<?xml version="1.0" encoding="UTF-8"?>
<gpx version="1.1" creator="https://www.youtrack.es" xsi:schemaLocation="http://www.topografix.com/GPX/1/1 http://www.topografix.com/GPX/1/1/gpx.xsd http://www.garmin.com/xmlschemas/GpxExtensions/v3 http://www.garmin.com/xmlschemas/GpxExtensionsv3.xsd http://www.garmin.com/xmlschemas/TrackPointExtension/v1 http://www.garmin.com/xmlschemas/TrackPointExtensionv1.xsd" xmlns:gpxtpx="http://www.garmin.com/xmlschemas/TrackPointExtension/v1" xmlns:gpxx="http://www.garmin.com/xmlschemas/GpxExtensions/v3" xmlns:xsi="http://www.w3.org/2001/XMLSchema-instance">
  <metadata>
    <link href="https://www.youtrack.es">
      <text>YouTrack.es</text>
    </link>
    <time>2026-05-08T21:25:10Z</time>
  </metadata>
  <trk>
    <src>https://www.youtrack.es</src>
    <link href="https://www.youtrack.es/ruta/473-banos-zocueca-y-vuelta">
      <text>YouTrack.es</text>
    </link>
    <trkseg>
      <trkpt lat="38.1712550" lon="-3.7758680">
        <ele>398.0</ele>
        <time>2018-04-28T06:34:36Z</time>
      </trkpt>
      <trkpt lat="38.1712570" lon="-3.7758690">
        <ele>398.0</ele>
        <time>2018-04-28T06:34:37Z</time>
      </trkpt>
      <trkpt lat="38.1712570" lon="-3.7758700">
        <ele>398.0</ele>
        <time>2018-04-28T06:34:38Z</time>
      </trkpt>
      <trkpt lat="38.1712570" lon="-3.7758700">
        <ele>398.0</ele>
        <time>2018-04-28T06:34:39Z</time>
      </trkpt>
      <trkpt lat="38.1712570" lon="-3.7758690">
        <ele>398.0</ele>
        <time>2018-04-28T06:34:40Z</time>
      </trkpt>
      <trkpt lat="38.1712570" lon="-3.7758690">
        <ele>390.8</ele>
        <time>2018-04-28T06:34:42Z</time>
      </trkpt>
      <trkpt lat="38.1712560" lon="-3.7758690">
        <ele>398.4</ele>
        <time>2018-04-28T06:34:43Z</time>
      </trkpt>
      <trkpt lat="38.1712550" lon="-3.7758700">
        <ele>398.2</ele>
        <time>2018-04-28T06:34:44Z</time>
      </trkpt>
      <trkpt lat="38.1712540" lon="-3.7758700">
        <ele>398.0</ele>
        <time>2018-04-28T06:34:45Z</time>
      </trkpt>
      <trkpt lat="38.1712530" lon="-3.7758710">
        <ele>398.0</ele>
        <time>2018-04-28T06:34:46Z</time>
      </trkpt>
      <trkpt lat="38.1712180" lon="-3.7759210">
        <ele>398.2</ele>
        <time>2018-04-28T06:36:34Z</time>
      </trkpt>
      <trkpt lat="38.1712080" lon="-3.7759380">
        <ele>397.8</ele>
        <time>2018-04-28T06:36:35Z</time>
      </trkpt>
      <trkpt lat="38.1711960" lon="-3.7759570">
        <ele>397.8</ele>
        <time>2018-04-28T06:36:36Z</time>
      </trkpt>
      <trkpt lat="38.1711790" lon="-3.7759830">
        <ele>397.6</ele>
        <time>2018-04-28T06:36:37Z</time>
      </trkpt>
      <trkpt lat="38.1711620" lon="-3.7760110">
        <ele>397.4</ele>
        <time>2018-04-28T06:36:38Z</time>
      </trkpt>
      <trkpt lat="38.1711390" lon="-3.7760410">
        <ele>397.2</ele>
        <time>2018-04-28T06:36:39Z</time>
      </trkpt>
      <trkpt lat="38.1711190" lon="-3.7760700">
        <ele>396.8</ele>
        <time>2018-04-28T06:36:40Z</time>
      </trkpt>
      <trkpt lat="38.1711070" lon="-3.7760940">
        <ele>396.8</ele>
        <time>2018-04-28T06:36:41Z</time>
      </trkpt>
      <trkpt lat="38.1710970" lon="-3.7761140">
        <ele>396.6</ele>
        <time>2018-04-28T06:36:42Z</time>
      </trkpt>
      <trkpt lat="38.1710850" lon="-3.7761320">
        <ele>396.4</ele>
        <time>2018-04-28T06:36:43Z</time>
      </trkpt>
      <trkpt lat="38.1710680" lon="-3.7761470">
        <ele>396.4</ele>
        <time>2018-04-28T06:36:44Z</time>
      </trkpt>
      <trkpt lat="38.1710480" lon="-3.7761600">
        <ele>396.2</ele>
        <time>2018-04-28T06:36:45Z</time>
      </trkpt>
      <trkpt lat="38.1710270" lon="-3.7761680">
        <ele>396.2</ele>
        <time>2018-04-28T06:36:46Z</time>
      </trkpt>
      <trkpt lat="38.1710050" lon="-3.7761750">
        <ele>396.0</ele>
        <time>2018-04-28T06:36:47Z</time>
      </trkpt>
      <trkpt lat="38.1709910" lon="-3.7761810">
        <ele>396.0</ele>
        <time>2018-04-28T06:36:48Z</time>
      </trkpt>
      <trkpt lat="38.1709870" lon="-3.7761790">
        <ele>396.0</ele>
        <time>2018-04-28T06:36:49Z</time>
      </trkpt>
      <trkpt lat="38.1709880" lon="-3.7761770">
        <ele>396.0</ele>
        <time>2018-04-28T06:36:50Z</time>
      </trkpt>
      <trkpt lat="38.1709890" lon="-3.7761760">
        <ele>396.0</ele>
        <time>2018-04-28T06:36:51Z</time>
      </trkpt>
      <trkpt lat="38.1709910" lon="-3.7761740">
        <ele>396.0</ele>
        <time>2018-04-28T06:36:52Z</time>
      </trkpt>
      <trkpt lat="38.1709920" lon="-3.7761720">
        <ele>396.0</ele>
        <time>2018-04-28T06:36:53Z</time>
      </trkpt>
      <trkpt lat="38.1709920" lon="-3.7761710">
        <ele>396.0</ele>
        <time>2018-04-28T06:36:54Z</time>
      </trkpt>
      <trkpt lat="38.1709930" lon="-3.7761700">
        <ele>396.0</ele>
        <time>2018-04-28T06:36:55Z</time>
      </trkpt>
      <trkpt lat="38.1709940" lon="-3.7761690">
        <ele>396.0</ele>
        <time>2018-04-28T06:36:56Z</time>
      </trkpt>
      <trkpt lat="38.1709970" lon="-3.7761670">
        <ele>384.8</ele>
        <time>2018-04-28T06:36:59Z</time>
      </trkpt>
      <trkpt lat="38.1709980" lon="-3.7761670">
        <ele>396.8</ele>
        <time>2018-04-28T06:37:00Z</time>
      </trkpt>
      <trkpt lat="38.1709980" lon="-3.7761680">
        <ele>396.0</ele>
        <time>2018-04-28T06:37:01Z</time>
      </trkpt>
      <trkpt lat="38.1709990" lon="-3.7761680">
        <ele>396.0</ele>
        <time>2018-04-28T06:37:02Z</time>
      </trkpt>
      <trkpt lat="38.1709990" lon="-3.7761680">
        <ele>396.0</ele>
        <time>2018-04-28T06:37:03Z</time>
      </trkpt>
      <trkpt lat="38.1711950" lon="-3.7760240">
        <ele>397.2</ele>
        <time>2018-04-28T06:37:21Z</time>
      </trkpt>
      <trkpt lat="38.1712200" lon="-3.7759800">
        <ele>397.6</ele>
        <time>2018-04-28T06:37:22Z</time>
      </trkpt>
      <trkpt lat="38.1712390" lon="-3.7759490">
        <ele>397.8</ele>
        <time>2018-04-28T06:37:23Z</time>
      </trkpt>
      <trkpt lat="38.1712170" lon="-3.7759700">
        <ele>397.8</ele>
        <time>2018-04-28T06:37:24Z</time>
      </trkpt>
      <trkpt lat="38.1711880" lon="-3.7759980">
        <ele>397.8</ele>
        <time>2018-04-28T06:37:25Z</time>
      </trkpt>
      <trkpt lat="38.1711590" lon="-3.7760250">
        <ele>397.8</ele>
        <time>2018-04-28T06:37:26Z</time>
      </trkpt>
      <trkpt lat="38.1711300" lon="-3.7760520">
        <ele>397.8</ele>
        <time>2018-04-28T06:37:27Z</time>
      </trkpt>
      <trkpt lat="38.1711020" lon="-3.7760800">
        <ele>397.8</ele>
        <time>2018-04-28T06:37:28Z</time>
      </trkpt>
      <trkpt lat="38.1710730" lon="-3.7761070">
        <ele>397.8</ele>
        <time>2018-04-28T06:37:29Z</time>
      </trkpt>
      <trkpt lat="38.1710440" lon="-3.7761340">
        <ele>397.8</ele>
        <time>2018-04-28T06:37:30Z</time>
      </trkpt>
      <trkpt lat="38.1710150" lon="-3.7761610">
        <ele>397.8</ele>
        <time>2018-04-28T06:37:31Z</time>
      </trkpt>
      <trkpt lat="38.1709860" lon="-3.7761890">
        <ele>396.2</ele>
        <time>2018-04-28T06:38:00Z</time>
      </trkpt>
      <trkpt lat="38.1709570" lon="-3.7762160">
        <ele>395.8</ele>
        <time>2018-04-28T06:38:01Z</time>
      </trkpt>
      <trkpt lat="38.1709040" lon="-3.7762650">
        <ele>394.0</ele>
        <time>2018-04-28T06:38:02Z</time>
      </trkpt>
      <trkpt lat="38.1708500" lon="-3.7763170">
        <ele>395.6</ele>
        <time>2018-04-28T06:38:03Z</time>
      </trkpt>
      <trkpt lat="38.1707930" lon="-3.7763710">
        <ele>394.2</ele>
        <time>2018-04-28T06:38:04Z</time>
      </trkpt>
      <trkpt lat="38.1707320" lon="-3.7764270">
        <ele>393.6</ele>
        <time>2018-04-28T06:38:05Z</time>
      </trkpt>
      <trkpt lat="38.1706680" lon="-3.7764840">
        <ele>393.0</ele>
        <time>2018-04-28T06:38:06Z</time>
      </trkpt>
      <trkpt lat="38.1706010" lon="-3.7765440">
        <ele>392.4</ele>
        <time>2018-04-28T06:38:07Z</time>
      </trkpt>
      <trkpt lat="38.1705330" lon="-3.7766080">
        <ele>391.8</ele>
        <time>2018-04-28T06:38:08Z</time>
      </trkpt>
      <trkpt lat="38.1704610" lon="-3.7766710">
        <ele>391.2</ele>
        <time>2018-04-28T06:38:09Z</time>
      </trkpt>
      <trkpt lat="38.1703830" lon="-3.7767270">
        <ele>390.4</ele>
        <time>2018-04-28T06:38:10Z</time>
      </trkpt>
      <trkpt lat="38.1703000" lon="-3.7767780">
        <ele>390.0</ele>
        <time>2018-04-28T06:38:11Z</time>
      </trkpt>
      <trkpt lat="38.1702130" lon="-3.7768240">
        <ele>389.4</ele>
        <time>2018-04-28T06:38:12Z</time>
      </trkpt>
      <trkpt lat="38.1701240" lon="-3.7768670">
        <ele>388.8</ele>
        <time>2018-04-28T06:38:13Z</time>
      </trkpt>
      <trkpt lat="38.1700340" lon="-3.7769050">
        <ele>388.2</ele>
        <time>2018-04-28T06:38:14Z</time>
      </trkpt>
      <trkpt lat="38.1699410" lon="-3.7769360">
        <ele>387.8</ele>
        <time>2018-04-28T06:38:15Z</time>
      </trkpt>
      <trkpt lat="38.1698440" lon="-3.7769560">
        <ele>387.0</ele>
        <time>2018-04-28T06:38:16Z</time>
      </trkpt>
      <trkpt lat="38.1697430" lon="-3.7769600">
        <ele>386.0</ele>
        <time>2018-04-28T06:38:17Z</time>
      </trkpt>
      <trkpt lat="38.1696390" lon="-3.7769460">
        <ele>385.4</ele>
        <time>2018-04-28T06:38:18Z</time>
      </trkpt>
      <trkpt lat="38.1695380" lon="-3.7769070">
        <ele>384.6</ele>
        <time>2018-04-28T06:38:19Z</time>
      </trkpt>
      <trkpt lat="38.1694410" lon="-3.7768440">
        <ele>383.8</ele>
        <time>2018-04-28T06:38:20Z</time>
      </trkpt>
      <trkpt lat="38.1693520" lon="-3.7767590">
        <ele>382.8</ele>
        <time>2018-04-28T06:38:21Z</time>
      </trkpt>
      <trkpt lat="38.1692710" lon="-3.7766600">
        <ele>382.0</ele>
        <time>2018-04-28T06:38:22Z</time>
      </trkpt>
      <trkpt lat="38.1691920" lon="-3.7765540">
        <ele>381.0</ele>
        <time>2018-04-28T06:38:23Z</time>
      </trkpt>
      <trkpt lat="38.1691120" lon="-3.7764460">
        <ele>380.0</ele>
        <time>2018-04-28T06:38:24Z</time>
      </trkpt>
      <trkpt lat="38.1690290" lon="-3.7763350">
        <ele>379.2</ele>
        <time>2018-04-28T06:38:25Z</time>
      </trkpt>
      <trkpt lat="38.1689490" lon="-3.7762220">
        <ele>378.4</ele>
        <time>2018-04-28T06:38:26Z</time>
      </trkpt>
      <trkpt lat="38.1688790" lon="-3.7761030">
        <ele>377.6</ele>
        <time>2018-04-28T06:38:27Z</time>
      </trkpt>
      <trkpt lat="38.1688200" lon="-3.7759770">
        <ele>376.8</ele>
        <time>2018-04-28T06:38:28Z</time>
      </trkpt>
      <trkpt lat="38.1687770" lon="-3.7758380">
        <ele>375.8</ele>
        <time>2018-04-28T06:38:29Z</time>
      </trkpt>
      <trkpt lat="38.1687560" lon="-3.7756890">
        <ele>375.0</ele>
        <time>2018-04-28T06:38:30Z</time>
      </trkpt>
      <trkpt lat="38.1687580" lon="-3.7755350">
        <ele>374.2</ele>
        <time>2018-04-28T06:38:31Z</time>
      </trkpt>
      <trkpt lat="38.1687730" lon="-3.7753820">
        <ele>374.2</ele>
        <time>2018-04-28T06:38:32Z</time>
      </trkpt>
      <trkpt lat="38.1687940" lon="-3.7752290">
        <ele>373.6</ele>
        <time>2018-04-28T06:38:33Z</time>
      </trkpt>
      <trkpt lat="38.1688110" lon="-3.7750760">
        <ele>373.0</ele>
        <time>2018-04-28T06:38:34Z</time>
      </trkpt>
      <trkpt lat="38.1688210" lon="-3.7749200">
        <ele>372.2</ele>
        <time>2018-04-28T06:38:35Z</time>
      </trkpt>
      <trkpt lat="38.1688260" lon="-3.7747630">
        <ele>371.4</ele>
        <time>2018-04-28T06:38:36Z</time>
      </trkpt>
      <trkpt lat="38.1688290" lon="-3.7746030">
        <ele>370.4</ele>
        <time>2018-04-28T06:38:37Z</time>
      </trkpt>
      <trkpt lat="38.1688310" lon="-3.7744430">
        <ele>369.4</ele>
        <time>2018-04-28T06:38:38Z</time>
      </trkpt>
      <trkpt lat="38.1688330" lon="-3.7742850">
        <ele>368.2</ele>
        <time>2018-04-28T06:38:39Z</time>
      </trkpt>
      <trkpt lat="38.1688320" lon="-3.7741370">
        <ele>367.0</ele>
        <time>2018-04-28T06:38:40Z</time>
      </trkpt>
      <trkpt lat="38.1688240" lon="-3.7740050">
        <ele>366.0</ele>
        <time>2018-04-28T06:38:41Z</time>
      </trkpt>
      <trkpt lat="38.1687980" lon="-3.7738820">
        <ele>365.4</ele>
        <time>2018-04-28T06:38:42Z</time>
      </trkpt>
      <trkpt lat="38.1687430" lon="-3.7737690">
        <ele>364.0</ele>
        <time>2018-04-28T06:38:43Z</time>
      </trkpt>
      <trkpt lat="38.1686660" lon="-3.7736770">
        <ele>363.2</ele>
        <time>2018-04-28T06:38:44Z</time>
      </trkpt>
      <trkpt lat="38.1685780" lon="-3.7735940">
        <ele>362.2</ele>
        <time>2018-04-28T06:38:45Z</time>
      </trkpt>
      <trkpt lat="38.1684910" lon="-3.7735060">
        <ele>361.4</ele>
        <time>2018-04-28T06:38:46Z</time>
      </trkpt>
      <trkpt lat="38.1684090" lon="-3.7734050">
        <ele>360.6</ele>
        <time>2018-04-28T06:38:47Z</time>
      </trkpt>
      <trkpt lat="38.1683320" lon="-3.7732950">
        <ele>359.6</ele>
        <time>2018-04-28T06:38:48Z</time>
      </trkpt>
      <trkpt lat="38.1682650" lon="-3.7731740">
        <ele>358.8</ele>
        <time>2018-04-28T06:38:49Z</time>
      </trkpt>
      <trkpt lat="38.1682100" lon="-3.7730400">
        <ele>358.0</ele>
        <time>2018-04-28T06:38:50Z</time>
      </trkpt>
      <trkpt lat="38.1681680" lon="-3.7728980">
        <ele>357.0</ele>
        <time>2018-04-28T06:38:51Z</time>
      </trkpt>
      <trkpt lat="38.1681310" lon="-3.7727500">
        <ele>356.4</ele>
        <time>2018-04-28T06:38:52Z</time>
      </trkpt>
      <trkpt lat="38.1680940" lon="-3.7726030">
        <ele>355.4</ele>
        <time>2018-04-28T06:38:53Z</time>
      </trkpt>
      <trkpt lat="38.1680550" lon="-3.7724630">
        <ele>354.4</ele>
        <time>2018-04-28T06:38:54Z</time>
      </trkpt>
      <trkpt lat="38.1680040" lon="-3.7723360">
        <ele>353.4</ele>
        <time>2018-04-28T06:38:55Z</time>
      </trkpt>
      <trkpt lat="38.1679360" lon="-3.7722190">
        <ele>352.4</ele>
        <time>2018-04-28T06:38:56Z</time>
      </trkpt>
      <trkpt lat="38.1678410" lon="-3.7721250">
        <ele>351.4</ele>
        <time>2018-04-28T06:38:57Z</time>
      </trkpt>
      <trkpt lat="38.1677300" lon="-3.7720660">
        <ele>350.4</ele>
        <time>2018-04-28T06:38:58Z</time>
      </trkpt>
      <trkpt lat="38.1676120" lon="-3.7720350">
        <ele>349.6</ele>
        <time>2018-04-28T06:38:59Z</time>
      </trkpt>
      <trkpt lat="38.1674910" lon="-3.7720170">
        <ele>348.8</ele>
        <time>2018-04-28T06:39:00Z</time>
      </trkpt>
      <trkpt lat="38.1673680" lon="-3.7720040">
        <ele>347.8</ele>
        <time>2018-04-28T06:39:01Z</time>
      </trkpt>
      <trkpt lat="38.1672440" lon="-3.7719950">
        <ele>346.8</ele>
        <time>2018-04-28T06:39:02Z</time>
      </trkpt>
      <trkpt lat="38.1671200" lon="-3.7719860">
        <ele>346.0</ele>
        <time>2018-04-28T06:39:03Z</time>
      </trkpt>
      <trkpt lat="38.1669950" lon="-3.7719770">
        <ele>345.4</ele>
        <time>2018-04-28T06:39:04Z</time>
      </trkpt>
      <trkpt lat="38.1668720" lon="-3.7719680">
        <ele>344.6</ele>
        <time>2018-04-28T06:39:05Z</time>
      </trkpt>
      <trkpt lat="38.1667520" lon="-3.7719570">
        <ele>344.0</ele>
        <time>2018-04-28T06:39:06Z</time>
      </trkpt>
      <trkpt lat="38.1666340" lon="-3.7719470">
        <ele>344.0</ele>
        <time>2018-04-28T06:39:07Z</time>
      </trkpt>
      <trkpt lat="38.1665180" lon="-3.7719360">
        <ele>343.4</ele>
        <time>2018-04-28T06:39:08Z</time>
      </trkpt>
      <trkpt lat="38.1664030" lon="-3.7719250">
        <ele>343.2</ele>
        <time>2018-04-28T06:39:09Z</time>
      </trkpt>
      <trkpt lat="38.1662920" lon="-3.7719130">
        <ele>343.0</ele>
        <time>2018-04-28T06:39:10Z</time>
      </trkpt>
      <trkpt lat="38.1661840" lon="-3.7719080">
        <ele>342.6</ele>
        <time>2018-04-28T06:39:11Z</time>
      </trkpt>
      <trkpt lat="38.1660770" lon="-3.7719120">
        <ele>342.4</ele>
        <time>2018-04-28T06:39:12Z</time>
      </trkpt>
      <trkpt lat="38.1659720" lon="-3.7719230">
        <ele>342.2</ele>
        <time>2018-04-28T06:39:13Z</time>
      </trkpt>
      <trkpt lat="38.1658700" lon="-3.7719360">
        <ele>342.0</ele>
        <time>2018-04-28T06:39:14Z</time>
      </trkpt>
      <trkpt lat="38.1657710" lon="-3.7719520">
        <ele>341.8</ele>
        <time>2018-04-28T06:39:15Z</time>
      </trkpt>
      <trkpt lat="38.1656730" lon="-3.7719700">
        <ele>341.8</ele>
        <time>2018-04-28T06:39:16Z</time>
      </trkpt>
      <trkpt lat="38.1655780" lon="-3.7719910">
        <ele>341.8</ele>
        <time>2018-04-28T06:39:17Z</time>
      </trkpt>
      <trkpt lat="38.1654850" lon="-3.7720190">
        <ele>341.4</ele>
        <time>2018-04-28T06:39:18Z</time>
      </trkpt>
      <trkpt lat="38.1653930" lon="-3.7720470">
        <ele>341.4</ele>
        <time>2018-04-28T06:39:19Z</time>
      </trkpt>
      <trkpt lat="38.1653020" lon="-3.7720670">
        <ele>341.6</ele>
        <time>2018-04-28T06:39:20Z</time>
      </trkpt>
      <trkpt lat="38.1652100" lon="-3.7720780">
        <ele>341.4</ele>
        <time>2018-04-28T06:39:21Z</time>
      </trkpt>
      <trkpt lat="38.1651210" lon="-3.7720820">
        <ele>341.4</ele>
        <time>2018-04-28T06:39:22Z</time>
      </trkpt>
      <trkpt lat="38.1650340" lon="-3.7720870">
        <ele>341.8</ele>
        <time>2018-04-28T06:39:23Z</time>
      </trkpt>
      <trkpt lat="38.1649590" lon="-3.7720950">
        <ele>342.0</ele>
        <time>2018-04-28T06:39:24Z</time>
      </trkpt>
      <trkpt lat="38.1648730" lon="-3.7721030">
        <ele>342.2</ele>
        <time>2018-04-28T06:39:25Z</time>
      </trkpt>
      <trkpt lat="38.1647880" lon="-3.7721090">
        <ele>342.4</ele>
        <time>2018-04-28T06:39:26Z</time>
      </trkpt>
      <trkpt lat="38.1647050" lon="-3.7721180">
        <ele>342.4</ele>
        <time>2018-04-28T06:39:27Z</time>
      </trkpt>
      <trkpt lat="38.1646230" lon="-3.7721290">
        <ele>342.6</ele>
        <time>2018-04-28T06:39:28Z</time>
      </trkpt>
      <trkpt lat="38.1645460" lon="-3.7721430">
        <ele>342.8</ele>
        <time>2018-04-28T06:39:29Z</time>
      </trkpt>
      <trkpt lat="38.1644690" lon="-3.7721590">
        <ele>343.0</ele>
        <time>2018-04-28T06:39:30Z</time>
      </trkpt>
      <trkpt lat="38.1643930" lon="-3.7721770">
        <ele>343.4</ele>
        <time>2018-04-28T06:39:31Z</time>
      </trkpt>
      <trkpt lat="38.1643200" lon="-3.7722010">
        <ele>343.6</ele>
        <time>2018-04-28T06:39:32Z</time>
      </trkpt>
      <trkpt lat="38.1642480" lon="-3.7722270">
        <ele>343.8</ele>
        <time>2018-04-28T06:39:33Z</time>
      </trkpt>
      <trkpt lat="38.1641750" lon="-3.7722570">
        <ele>344.0</ele>
        <time>2018-04-28T06:39:34Z</time>
      </trkpt>
      <trkpt lat="38.1641050" lon="-3.7722850">
        <ele>344.2</ele>
        <time>2018-04-28T06:39:35Z</time>
      </trkpt>
      <trkpt lat="38.1640360" lon="-3.7723120">
        <ele>344.4</ele>
        <time>2018-04-28T06:39:36Z</time>
      </trkpt>
      <trkpt lat="38.1639700" lon="-3.7723420">
        <ele>344.4</ele>
        <time>2018-04-28T06:39:37Z</time>
      </trkpt>
      <trkpt lat="38.1639020" lon="-3.7723700">
        <ele>344.6</ele>
        <time>2018-04-28T06:39:38Z</time>
      </trkpt>
      <trkpt lat="38.1638370" lon="-3.7723980">
        <ele>344.8</ele>
        <time>2018-04-28T06:39:39Z</time>
      </trkpt>
      <trkpt lat="38.1637690" lon="-3.7724270">
        <ele>345.0</ele>
        <time>2018-04-28T06:39:40Z</time>
      </trkpt>
      <trkpt lat="38.1637030" lon="-3.7724530">
        <ele>345.2</ele>
        <time>2018-04-28T06:39:41Z</time>
      </trkpt>
      <trkpt lat="38.1636380" lon="-3.7724770">
        <ele>345.4</ele>
        <time>2018-04-28T06:39:42Z</time>
      </trkpt>
      <trkpt lat="38.1635700" lon="-3.7725040">
        <ele>345.4</ele>
        <time>2018-04-28T06:39:43Z</time>
      </trkpt>
      <trkpt lat="38.1635060" lon="-3.7725290">
        <ele>345.6</ele>
        <time>2018-04-28T06:39:44Z</time>
      </trkpt>
      <trkpt lat="38.1634440" lon="-3.7725560">
        <ele>345.8</ele>
        <time>2018-04-28T06:39:45Z</time>
      </trkpt>
      <trkpt lat="38.1633880" lon="-3.7725830">
        <ele>346.0</ele>
        <time>2018-04-28T06:39:46Z</time>
      </trkpt>
      <trkpt lat="38.1633340" lon="-3.7726130">
        <ele>346.2</ele>
        <time>2018-04-28T06:39:47Z</time>
      </trkpt>
      <trkpt lat="38.1632730" lon="-3.7726430">
        <ele>346.4</ele>
        <time>2018-04-28T06:39:48Z</time>
      </trkpt>
      <trkpt lat="38.1632140" lon="-3.7726720">
        <ele>346.6</ele>
        <time>2018-04-28T06:39:49Z</time>
      </trkpt>
      <trkpt lat="38.1631580" lon="-3.7727020">
        <ele>346.6</ele>
        <time>2018-04-28T06:39:50Z</time>
      </trkpt>
      <trkpt lat="38.1631000" lon="-3.7727330">
        <ele>346.8</ele>
        <time>2018-04-28T06:39:51Z</time>
      </trkpt>
      <trkpt lat="38.1630430" lon="-3.7727640">
        <ele>347.0</ele>
        <time>2018-04-28T06:39:52Z</time>
      </trkpt>
      <trkpt lat="38.1629860" lon="-3.7727950">
        <ele>347.2</ele>
        <time>2018-04-28T06:39:53Z</time>
      </trkpt>
      <trkpt lat="38.1629280" lon="-3.7728270">
        <ele>347.4</ele>
        <time>2018-04-28T06:39:54Z</time>
      </trkpt>
      <trkpt lat="38.1628690" lon="-3.7728560">
        <ele>347.4</ele>
        <time>2018-04-28T06:39:55Z</time>
      </trkpt>
      <trkpt lat="38.1628120" lon="-3.7728890">
        <ele>347.6</ele>
        <time>2018-04-28T06:39:56Z</time>
      </trkpt>
      <trkpt lat="38.1627560" lon="-3.7729210">
        <ele>347.6</ele>
        <time>2018-04-28T06:39:57Z</time>
      </trkpt>
      <trkpt lat="38.1627020" lon="-3.7729570">
        <ele>347.8</ele>
        <time>2018-04-28T06:39:58Z</time>
      </trkpt>
      <trkpt lat="38.1626510" lon="-3.7729930">
        <ele>348.0</ele>
        <time>2018-04-28T06:39:59Z</time>
      </trkpt>
      <trkpt lat="38.1626000" lon="-3.7730300">
        <ele>348.0</ele>
        <time>2018-04-28T06:40:00Z</time>
      </trkpt>
      <trkpt lat="38.1625520" lon="-3.7730670">
        <ele>348.0</ele>
        <time>2018-04-28T06:40:01Z</time>
      </trkpt>
      <trkpt lat="38.1625020" lon="-3.7731070">
        <ele>348.0</ele>
        <time>2018-04-28T06:40:02Z</time>
      </trkpt>
      <trkpt lat="38.1624510" lon="-3.7731450">
        <ele>348.2</ele>
        <time>2018-04-28T06:40:03Z</time>
      </trkpt>
      <trkpt lat="38.1624020" lon="-3.7731800">
        <ele>348.2</ele>
        <time>2018-04-28T06:40:04Z</time>
      </trkpt>
      <trkpt lat="38.1623520" lon="-3.7732160">
        <ele>348.2</ele>
        <time>2018-04-28T06:40:05Z</time>
      </trkpt>
      <trkpt lat="38.1622990" lon="-3.7732510">
        <ele>348.2</ele>
        <time>2018-04-28T06:40:06Z</time>
      </trkpt>
      <trkpt lat="38.1622520" lon="-3.7732850">
        <ele>348.2</ele>
        <time>2018-04-28T06:40:07Z</time>
      </trkpt>
      <trkpt lat="38.1622030" lon="-3.7733210">
        <ele>348.2</ele>
        <time>2018-04-28T06:40:08Z</time>
      </trkpt>
      <trkpt lat="38.1621550" lon="-3.7733570">
        <ele>348.2</ele>
        <time>2018-04-28T06:40:09Z</time>
      </trkpt>
      <trkpt lat="38.1621070" lon="-3.7733910">
        <ele>348.4</ele>
        <time>2018-04-28T06:40:10Z</time>
      </trkpt>
      <trkpt lat="38.1620600" lon="-3.7734220">
        <ele>348.2</ele>
        <time>2018-04-28T06:40:11Z</time>
      </trkpt>
      <trkpt lat="38.1620160" lon="-3.7734510">
        <ele>348.2</ele>
        <time>2018-04-28T06:40:12Z</time>
      </trkpt>
      <trkpt lat="38.1619700" lon="-3.7734790">
        <ele>348.4</ele>
        <time>2018-04-28T06:40:13Z</time>
      </trkpt>
      <trkpt lat="38.1619260" lon="-3.7735010">
        <ele>348.2</ele>
        <time>2018-04-28T06:40:14Z</time>
      </trkpt>
      <trkpt lat="38.1618870" lon="-3.7735200">
        <ele>348.2</ele>
        <time>2018-04-28T06:40:15Z</time>
      </trkpt>
      <trkpt lat="38.1618510" lon="-3.7735370">
        <ele>348.2</ele>
        <time>2018-04-28T06:40:16Z</time>
      </trkpt>
      <trkpt lat="38.1618250" lon="-3.7735690">
        <ele>348.2</ele>
        <time>2018-04-28T06:40:17Z</time>
      </trkpt>
      <trkpt lat="38.1618230" lon="-3.7736090">
        <ele>348.4</ele>
        <time>2018-04-28T06:40:18Z</time>
      </trkpt>
      <trkpt lat="38.1618360" lon="-3.7736420">
        <ele>348.6</ele>
        <time>2018-04-28T06:40:19Z</time>
      </trkpt>
      <trkpt lat="38.1618560" lon="-3.7736680">
        <ele>348.8</ele>
        <time>2018-04-28T06:40:20Z</time>
      </trkpt>
      <trkpt lat="38.1618760" lon="-3.7736940">
        <ele>349.0</ele>
        <time>2018-04-28T06:40:21Z</time>
      </trkpt>
      <trkpt lat="38.1618980" lon="-3.7737210">
        <ele>349.2</ele>
        <time>2018-04-28T06:40:22Z</time>
      </trkpt>
      <trkpt lat="38.1619240" lon="-3.7737460">
        <ele>349.4</ele>
        <time>2018-04-28T06:40:23Z</time>
      </trkpt>
      <trkpt lat="38.1619510" lon="-3.7737690">
        <ele>349.6</ele>
        <time>2018-04-28T06:40:24Z</time>
      </trkpt>
      <trkpt lat="38.1619770" lon="-3.7737930">
        <ele>349.8</ele>
        <time>2018-04-28T06:40:25Z</time>
      </trkpt>
      <trkpt lat="38.1620030" lon="-3.7738160">
        <ele>350.0</ele>
        <time>2018-04-28T06:40:26Z</time>
      </trkpt>
      <trkpt lat="38.1620300" lon="-3.7738370">
        <ele>350.2</ele>
        <time>2018-04-28T06:40:27Z</time>
      </trkpt>
      <trkpt lat="38.1620570" lon="-3.7738580">
        <ele>350.4</ele>
        <time>2018-04-28T06:40:28Z</time>
      </trkpt>
      <trkpt lat="38.1620820" lon="-3.7738820">
        <ele>350.6</ele>
        <time>2018-04-28T06:40:29Z</time>
      </trkpt>
      <trkpt lat="38.1621090" lon="-3.7739050">
        <ele>350.6</ele>
        <time>2018-04-28T06:40:30Z</time>
      </trkpt>
      <trkpt lat="38.1621360" lon="-3.7739260">
        <ele>350.8</ele>
        <time>2018-04-28T06:40:31Z</time>
      </trkpt>
      <trkpt lat="38.1621620" lon="-3.7739480">
        <ele>351.2</ele>
        <time>2018-04-28T06:40:32Z</time>
      </trkpt>
      <trkpt lat="38.1621880" lon="-3.7739680">
        <ele>351.4</ele>
        <time>2018-04-28T06:40:33Z</time>
      </trkpt>
      <trkpt lat="38.1622120" lon="-3.7739920">
        <ele>351.4</ele>
        <time>2018-04-28T06:40:34Z</time>
      </trkpt>
      <trkpt lat="38.1622340" lon="-3.7740160">
        <ele>351.6</ele>
        <time>2018-04-28T06:40:35Z</time>
      </trkpt>
      <trkpt lat="38.1622570" lon="-3.7740370">
        <ele>351.8</ele>
        <time>2018-04-28T06:40:36Z</time>
      </trkpt>
      <trkpt lat="38.1622820" lon="-3.7740560">
        <ele>352.2</ele>
        <time>2018-04-28T06:40:37Z</time>
      </trkpt>
      <trkpt lat="38.1623060" lon="-3.7740780">
        <ele>352.2</ele>
        <time>2018-04-28T06:40:38Z</time>
      </trkpt>
      <trkpt lat="38.1623300" lon="-3.7741010">
        <ele>352.4</ele>
        <time>2018-04-28T06:40:39Z</time>
      </trkpt>
      <trkpt lat="38.1623510" lon="-3.7741210">
        <ele>352.6</ele>
        <time>2018-04-28T06:40:40Z</time>
      </trkpt>
      <trkpt lat="38.1623740" lon="-3.7741360">
        <ele>352.6</ele>
        <time>2018-04-28T06:40:41Z</time>
      </trkpt>
      <trkpt lat="38.1623970" lon="-3.7741520">
        <ele>352.8</ele>
        <time>2018-04-28T06:40:42Z</time>
      </trkpt>
      <trkpt lat="38.1624200" lon="-3.7741720">
        <ele>353.0</ele>
        <time>2018-04-28T06:40:43Z</time>
      </trkpt>
      <trkpt lat="38.1624460" lon="-3.7741970">
        <ele>353.4</ele>
        <time>2018-04-28T06:40:44Z</time>
      </trkpt>
      <trkpt lat="38.1624700" lon="-3.7742190">
        <ele>353.6</ele>
        <time>2018-04-28T06:40:45Z</time>
      </trkpt>
      <trkpt lat="38.1624960" lon="-3.7742420">
        <ele>353.8</ele>
        <time>2018-04-28T06:40:46Z</time>
      </trkpt>
      <trkpt lat="38.1625230" lon="-3.7742660">
        <ele>354.0</ele>
        <time>2018-04-28T06:40:47Z</time>
      </trkpt>
      <trkpt lat="38.1625490" lon="-3.7742870">
        <ele>354.0</ele>
        <time>2018-04-28T06:40:48Z</time>
      </trkpt>
      <trkpt lat="38.1625760" lon="-3.7743080">
        <ele>354.4</ele>
        <time>2018-04-28T06:40:49Z</time>
      </trkpt>
      <trkpt lat="38.1626040" lon="-3.7743280">
        <ele>354.4</ele>
        <time>2018-04-28T06:40:50Z</time>
      </trkpt>
      <trkpt lat="38.1626290" lon="-3.7743490">
        <ele>354.4</ele>
        <time>2018-04-28T06:40:51Z</time>
      </trkpt>
      <trkpt lat="38.1626520" lon="-3.7743710">
        <ele>354.6</ele>
        <time>2018-04-28T06:40:52Z</time>
      </trkpt>
      <trkpt lat="38.1626750" lon="-3.7743930">
        <ele>354.8</ele>
        <time>2018-04-28T06:40:53Z</time>
      </trkpt>
      <trkpt lat="38.1626990" lon="-3.7744150">
        <ele>355.2</ele>
        <time>2018-04-28T06:40:54Z</time>
      </trkpt>
      <trkpt lat="38.1627220" lon="-3.7744370">
        <ele>355.2</ele>
        <time>2018-04-28T06:40:55Z</time>
      </trkpt>
      <trkpt lat="38.1627440" lon="-3.7744590">
        <ele>355.4</ele>
        <time>2018-04-28T06:40:56Z</time>
      </trkpt>
      <trkpt lat="38.1627670" lon="-3.7744790">
        <ele>355.4</ele>
        <time>2018-04-28T06:40:57Z</time>
      </trkpt>
      <trkpt lat="38.1627920" lon="-3.7744990">
        <ele>355.6</ele>
        <time>2018-04-28T06:40:58Z</time>
      </trkpt>
      <trkpt lat="38.1628180" lon="-3.7745170">
        <ele>355.8</ele>
        <time>2018-04-28T06:40:59Z</time>
      </trkpt>
      <trkpt lat="38.1628400" lon="-3.7745330">
        <ele>356.0</ele>
        <time>2018-04-28T06:41:00Z</time>
      </trkpt>
      <trkpt lat="38.1628620" lon="-3.7745480">
        <ele>356.2</ele>
        <time>2018-04-28T06:41:01Z</time>
      </trkpt>
      <trkpt lat="38.1628850" lon="-3.7745670">
        <ele>356.4</ele>
        <time>2018-04-28T06:41:02Z</time>
      </trkpt>
      <trkpt lat="38.1629080" lon="-3.7745900">
        <ele>356.4</ele>
        <time>2018-04-28T06:41:03Z</time>
      </trkpt>
      <trkpt lat="38.1629290" lon="-3.7746130">
        <ele>356.6</ele>
        <time>2018-04-28T06:41:04Z</time>
      </trkpt>
      <trkpt lat="38.1629510" lon="-3.7746350">
        <ele>357.0</ele>
        <time>2018-04-28T06:41:05Z</time>
      </trkpt>
      <trkpt lat="38.1629750" lon="-3.7746560">
        <ele>357.2</ele>
        <time>2018-04-28T06:41:06Z</time>
      </trkpt>
      <trkpt lat="38.1630000" lon="-3.7746770">
        <ele>357.2</ele>
        <time>2018-04-28T06:41:07Z</time>
      </trkpt>
      <trkpt lat="38.1630250" lon="-3.7746960">
        <ele>357.4</ele>
        <time>2018-04-28T06:41:08Z</time>
      </trkpt>
      <trkpt lat="38.1630520" lon="-3.7747130">
        <ele>357.6</ele>
        <time>2018-04-28T06:41:09Z</time>
      </trkpt>
      <trkpt lat="38.1630770" lon="-3.7747270">
        <ele>357.8</ele>
        <time>2018-04-28T06:41:10Z</time>
      </trkpt>
      <trkpt lat="38.1631010" lon="-3.7747430">
        <ele>358.0</ele>
        <time>2018-04-28T06:41:11Z</time>
      </trkpt>
      <trkpt lat="38.1631240" lon="-3.7747630">
        <ele>358.2</ele>
        <time>2018-04-28T06:41:12Z</time>
      </trkpt>
      <trkpt lat="38.1631440" lon="-3.7747860">
        <ele>358.2</ele>
        <time>2018-04-28T06:41:13Z</time>
      </trkpt>
      <trkpt lat="38.1631610" lon="-3.7748110">
        <ele>358.4</ele>
        <time>2018-04-28T06:41:14Z</time>
      </trkpt>
      <trkpt lat="38.1631810" lon="-3.7748350">
        <ele>358.6</ele>
        <time>2018-04-28T06:41:15Z</time>
      </trkpt>
      <trkpt lat="38.1632010" lon="-3.7748600">
        <ele>358.8</ele>
        <time>2018-04-28T06:41:16Z</time>
      </trkpt>
      <trkpt lat="38.1632220" lon="-3.7748820">
        <ele>358.8</ele>
        <time>2018-04-28T06:41:17Z</time>
      </trkpt>
      <trkpt lat="38.1632430" lon="-3.7749030">
        <ele>359.0</ele>
        <time>2018-04-28T06:41:18Z</time>
      </trkpt>
      <trkpt lat="38.1632640" lon="-3.7749240">
        <ele>359.0</ele>
        <time>2018-04-28T06:41:19Z</time>
      </trkpt>
      <trkpt lat="38.1632830" lon="-3.7749510">
        <ele>359.2</ele>
        <time>2018-04-28T06:41:20Z</time>
      </trkpt>
      <trkpt lat="38.1633030" lon="-3.7749800">
        <ele>359.6</ele>
        <time>2018-04-28T06:41:21Z</time>
      </trkpt>
      <trkpt lat="38.1633230" lon="-3.7750090">
        <ele>359.6</ele>
        <time>2018-04-28T06:41:22Z</time>
      </trkpt>
      <trkpt lat="38.1633430" lon="-3.7750380">
        <ele>359.8</ele>
        <time>2018-04-28T06:41:23Z</time>
      </trkpt>
      <trkpt lat="38.1633600" lon="-3.7750680">
        <ele>360.0</ele>
        <time>2018-04-28T06:41:24Z</time>
      </trkpt>
      <trkpt lat="38.1633750" lon="-3.7750990">
        <ele>360.2</ele>
        <time>2018-04-28T06:41:25Z</time>
      </trkpt>
      <trkpt lat="38.1633910" lon="-3.7751290">
        <ele>360.2</ele>
        <time>2018-04-28T06:41:26Z</time>
      </trkpt>
      <trkpt lat="38.1634080" lon="-3.7751570">
        <ele>360.4</ele>
        <time>2018-04-28T06:41:27Z</time>
      </trkpt>
      <trkpt lat="38.1634230" lon="-3.7751890">
        <ele>360.6</ele>
        <time>2018-04-28T06:41:28Z</time>
      </trkpt>
      <trkpt lat="38.1634400" lon="-3.7752180">
        <ele>360.8</ele>
        <time>2018-04-28T06:41:29Z</time>
      </trkpt>
      <trkpt lat="38.1634560" lon="-3.7752450">
        <ele>361.0</ele>
        <time>2018-04-28T06:41:30Z</time>
      </trkpt>
      <trkpt lat="38.1634710" lon="-3.7752750">
        <ele>361.2</ele>
        <time>2018-04-28T06:41:31Z</time>
      </trkpt>
      <trkpt lat="38.1634850" lon="-3.7753070">
        <ele>361.2</ele>
        <time>2018-04-28T06:41:32Z</time>
      </trkpt>
      <trkpt lat="38.1635000" lon="-3.7753370">
        <ele>361.2</ele>
        <time>2018-04-28T06:41:33Z</time>
      </trkpt>
      <trkpt lat="38.1635170" lon="-3.7753690">
        <ele>361.6</ele>
        <time>2018-04-28T06:41:34Z</time>
      </trkpt>
      <trkpt lat="38.1635330" lon="-3.7753990">
        <ele>361.6</ele>
        <time>2018-04-28T06:41:35Z</time>
      </trkpt>
      <trkpt lat="38.1635510" lon="-3.7754280">
        <ele>361.6</ele>
        <time>2018-04-28T06:41:36Z</time>
      </trkpt>
      <trkpt lat="38.1635660" lon="-3.7754600">
        <ele>362.6</ele>
        <time>2018-04-28T06:41:37Z</time>
      </trkpt>
      <trkpt lat="38.1635810" lon="-3.7754920">
        <ele>362.2</ele>
        <time>2018-04-28T06:41:38Z</time>
      </trkpt>
      <trkpt lat="38.1635960" lon="-3.7755210">
        <ele>363.8</ele>
        <time>2018-04-28T06:41:39Z</time>
      </trkpt>
      <trkpt lat="38.1636120" lon="-3.7755480">
        <ele>362.6</ele>
        <time>2018-04-28T06:41:40Z</time>
      </trkpt>
      <trkpt lat="38.1636280" lon="-3.7755780">
        <ele>362.6</ele>
        <time>2018-04-28T06:41:41Z</time>
      </trkpt>
      <trkpt lat="38.1636410" lon="-3.7756090">
        <ele>362.8</ele>
        <time>2018-04-28T06:41:42Z</time>
      </trkpt>
      <trkpt lat="38.1636550" lon="-3.7756390">
        <ele>363.0</ele>
        <time>2018-04-28T06:41:43Z</time>
      </trkpt>
      <trkpt lat="38.1636670" lon="-3.7756690">
        <ele>363.2</ele>
        <time>2018-04-28T06:41:44Z</time>
      </trkpt>
      <trkpt lat="38.1636790" lon="-3.7757000">
        <ele>363.4</ele>
        <time>2018-04-28T06:41:45Z</time>
      </trkpt>
      <trkpt lat="38.1636900" lon="-3.7757280">
        <ele>363.6</ele>
        <time>2018-04-28T06:41:46Z</time>
      </trkpt>
      <trkpt lat="38.1636970" lon="-3.7757600">
        <ele>363.8</ele>
        <time>2018-04-28T06:41:47Z</time>
      </trkpt>
      <trkpt lat="38.1637050" lon="-3.7757900">
        <ele>364.0</ele>
        <time>2018-04-28T06:41:48Z</time>
      </trkpt>
      <trkpt lat="38.1637120" lon="-3.7758200">
        <ele>366.0</ele>
        <time>2018-04-28T06:41:49Z</time>
      </trkpt>
      <trkpt lat="38.1637190" lon="-3.7758500">
        <ele>364.4</ele>
        <time>2018-04-28T06:41:50Z</time>
      </trkpt>
      <trkpt lat="38.1637240" lon="-3.7758800">
        <ele>364.6</ele>
        <time>2018-04-28T06:41:51Z</time>
      </trkpt>
      <trkpt lat="38.1637270" lon="-3.7759110">
        <ele>364.8</ele>
        <time>2018-04-28T06:41:52Z</time>
      </trkpt>
      <trkpt lat="38.1637300" lon="-3.7759390">
        <ele>365.0</ele>
        <time>2018-04-28T06:41:53Z</time>
      </trkpt>
      <trkpt lat="38.1637310" lon="-3.7759700">
        <ele>365.0</ele>
        <time>2018-04-28T06:41:54Z</time>
      </trkpt>
      <trkpt lat="38.1637300" lon="-3.7760000">
        <ele>365.2</ele>
        <time>2018-04-28T06:41:55Z</time>
      </trkpt>
      <trkpt lat="38.1637310" lon="-3.7760310">
        <ele>365.4</ele>
        <time>2018-04-28T06:41:56Z</time>
      </trkpt>
      <trkpt lat="38.1637330" lon="-3.7760600">
        <ele>365.6</ele>
        <time>2018-04-28T06:41:57Z</time>
      </trkpt>
      <trkpt lat="38.1637320" lon="-3.7760890">
        <ele>365.6</ele>
        <time>2018-04-28T06:41:58Z</time>
      </trkpt>
      <trkpt lat="38.1637330" lon="-3.7761190">
        <ele>365.8</ele>
        <time>2018-04-28T06:41:59Z</time>
      </trkpt>
      <trkpt lat="38.1637350" lon="-3.7761480">
        <ele>368.0</ele>
        <time>2018-04-28T06:42:00Z</time>
      </trkpt>
      <trkpt lat="38.1637350" lon="-3.7761780">
        <ele>366.2</ele>
        <time>2018-04-28T06:42:01Z</time>
      </trkpt>
      <trkpt lat="38.1637350" lon="-3.7762080">
        <ele>366.2</ele>
        <time>2018-04-28T06:42:02Z</time>
      </trkpt>
      <trkpt lat="38.1637350" lon="-3.7762390">
        <ele>366.4</ele>
        <time>2018-04-28T06:42:03Z</time>
      </trkpt>
      <trkpt lat="38.1637330" lon="-3.7762700">
        <ele>366.6</ele>
        <time>2018-04-28T06:42:04Z</time>
      </trkpt>
      <trkpt lat="38.1637320" lon="-3.7763000">
        <ele>366.8</ele>
        <time>2018-04-28T06:42:05Z</time>
      </trkpt>
      <trkpt lat="38.1637290" lon="-3.7763300">
        <ele>366.8</ele>
        <time>2018-04-28T06:42:06Z</time>
      </trkpt>
      <trkpt lat="38.1637250" lon="-3.7763590">
        <ele>367.0</ele>
        <time>2018-04-28T06:42:07Z</time>
      </trkpt>
      <trkpt lat="38.1637210" lon="-3.7763890">
        <ele>367.2</ele>
        <time>2018-04-28T06:42:08Z</time>
      </trkpt>
      <trkpt lat="38.1637170" lon="-3.7764150">
        <ele>367.4</ele>
        <time>2018-04-28T06:42:09Z</time>
      </trkpt>
      <trkpt lat="38.1637120" lon="-3.7764430">
        <ele>367.4</ele>
        <time>2018-04-28T06:42:10Z</time>
      </trkpt>
      <trkpt lat="38.1637050" lon="-3.7764720">
        <ele>367.6</ele>
        <time>2018-04-28T06:42:11Z</time>
      </trkpt>
      <trkpt lat="38.1636980" lon="-3.7765060">
        <ele>367.8</ele>
        <time>2018-04-28T06:42:12Z</time>
      </trkpt>
      <trkpt lat="38.1636870" lon="-3.7765350">
        <ele>368.0</ele>
        <time>2018-04-28T06:42:13Z</time>
      </trkpt>
      <trkpt lat="38.1636750" lon="-3.7765590">
        <ele>368.0</ele>
        <time>2018-04-28T06:42:14Z</time>
      </trkpt>
      <trkpt lat="38.1636650" lon="-3.7765830">
        <ele>368.2</ele>
        <time>2018-04-28T06:42:15Z</time>
      </trkpt>
      <trkpt lat="38.1636520" lon="-3.7766070">
        <ele>368.4</ele>
        <time>2018-04-28T06:42:16Z</time>
      </trkpt>
      <trkpt lat="38.1636370" lon="-3.7766310">
        <ele>368.4</ele>
        <time>2018-04-28T06:42:17Z</time>
      </trkpt>
      <trkpt lat="38.1636220" lon="-3.7766510">
        <ele>368.6</ele>
        <time>2018-04-28T06:42:18Z</time>
      </trkpt>
      <trkpt lat="38.1636060" lon="-3.7766740">
        <ele>368.8</ele>
        <time>2018-04-28T06:42:19Z</time>
      </trkpt>
      <trkpt lat="38.1635900" lon="-3.7766980">
        <ele>368.8</ele>
        <time>2018-04-28T06:42:20Z</time>
      </trkpt>
      <trkpt lat="38.1635730" lon="-3.7767190">
        <ele>369.0</ele>
        <time>2018-04-28T06:42:21Z</time>
      </trkpt>
      <trkpt lat="38.1635520" lon="-3.7767390">
        <ele>369.2</ele>
        <time>2018-04-28T06:42:22Z</time>
      </trkpt>
      <trkpt lat="38.1635360" lon="-3.7767610">
        <ele>369.4</ele>
        <time>2018-04-28T06:42:23Z</time>
      </trkpt>
      <trkpt lat="38.1635170" lon="-3.7767800">
        <ele>369.4</ele>
        <time>2018-04-28T06:42:24Z</time>
      </trkpt>
      <trkpt lat="38.1634980" lon="-3.7767980">
        <ele>369.6</ele>
        <time>2018-04-28T06:42:25Z</time>
      </trkpt>
      <trkpt lat="38.1634810" lon="-3.7768180">
        <ele>369.8</ele>
        <time>2018-04-28T06:42:26Z</time>
      </trkpt>
      <trkpt lat="38.1634630" lon="-3.7768370">
        <ele>370.0</ele>
        <time>2018-04-28T06:42:27Z</time>
      </trkpt>
      <trkpt lat="38.1634450" lon="-3.7768560">
        <ele>370.2</ele>
        <time>2018-04-28T06:42:28Z</time>
      </trkpt>
      <trkpt lat="38.1634250" lon="-3.7768750">
        <ele>370.4</ele>
        <time>2018-04-28T06:42:29Z</time>
      </trkpt>
      <trkpt lat="38.1634050" lon="-3.7768920">
        <ele>370.6</ele>
        <time>2018-04-28T06:42:30Z</time>
      </trkpt>
      <trkpt lat="38.1633870" lon="-3.7769070">
        <ele>370.8</ele>
        <time>2018-04-28T06:42:31Z</time>
      </trkpt>
      <trkpt lat="38.1633730" lon="-3.7769260">
        <ele>370.8</ele>
        <time>2018-04-28T06:42:32Z</time>
      </trkpt>
      <trkpt lat="38.1633590" lon="-3.7769460">
        <ele>371.0</ele>
        <time>2018-04-28T06:42:33Z</time>
      </trkpt>
      <trkpt lat="38.1633440" lon="-3.7769660">
        <ele>371.2</ele>
        <time>2018-04-28T06:42:34Z</time>
      </trkpt>
      <trkpt lat="38.1633270" lon="-3.7769840">
        <ele>371.4</ele>
        <time>2018-04-28T06:42:35Z</time>
      </trkpt>
      <trkpt lat="38.1633090" lon="-3.7770040">
        <ele>371.6</ele>
        <time>2018-04-28T06:42:36Z</time>
      </trkpt>
      <trkpt lat="38.1632920" lon="-3.7770230">
        <ele>371.8</ele>
        <time>2018-04-28T06:42:37Z</time>
      </trkpt>
      <trkpt lat="38.1632770" lon="-3.7770400">
        <ele>371.8</ele>
        <time>2018-04-28T06:42:38Z</time>
      </trkpt>
      <trkpt lat="38.1632600" lon="-3.7770570">
        <ele>372.0</ele>
        <time>2018-04-28T06:42:39Z</time>
      </trkpt>
      <trkpt lat="38.1632410" lon="-3.7770730">
        <ele>372.2</ele>
        <time>2018-04-28T06:42:40Z</time>
      </trkpt>
      <trkpt lat="38.1632220" lon="-3.7770880">
        <ele>372.4</ele>
        <time>2018-04-28T06:42:41Z</time>
      </trkpt>
      <trkpt lat="38.1631990" lon="-3.7771030">
        <ele>372.4</ele>
        <time>2018-04-28T06:42:42Z</time>
      </trkpt>
      <trkpt lat="38.1631780" lon="-3.7771150">
        <ele>372.6</ele>
        <time>2018-04-28T06:42:43Z</time>
      </trkpt>
      <trkpt lat="38.1631580" lon="-3.7771270">
        <ele>372.8</ele>
        <time>2018-04-28T06:42:44Z</time>
      </trkpt>
      <trkpt lat="38.1631400" lon="-3.7771400">
        <ele>372.8</ele>
        <time>2018-04-28T06:42:45Z</time>
      </trkpt>
      <trkpt lat="38.1631200" lon="-3.7771520">
        <ele>373.0</ele>
        <time>2018-04-28T06:42:46Z</time>
      </trkpt>
      <trkpt lat="38.1631010" lon="-3.7771630">
        <ele>373.0</ele>
        <time>2018-04-28T06:42:47Z</time>
      </trkpt>
      <trkpt lat="38.1630830" lon="-3.7771750">
        <ele>373.2</ele>
        <time>2018-04-28T06:42:48Z</time>
      </trkpt>
      <trkpt lat="38.1630620" lon="-3.7771880">
        <ele>373.4</ele>
        <time>2018-04-28T06:42:49Z</time>
      </trkpt>
      <trkpt lat="38.1630410" lon="-3.7772010">
        <ele>373.6</ele>
        <time>2018-04-28T06:42:50Z</time>
      </trkpt>
      <trkpt lat="38.1630220" lon="-3.7772120">
        <ele>373.6</ele>
        <time>2018-04-28T06:42:51Z</time>
      </trkpt>
      <trkpt lat="38.1630010" lon="-3.7772250">
        <ele>373.8</ele>
        <time>2018-04-28T06:42:52Z</time>
      </trkpt>
      <trkpt lat="38.1629840" lon="-3.7772410">
        <ele>373.8</ele>
        <time>2018-04-28T06:42:53Z</time>
      </trkpt>
      <trkpt lat="38.1629650" lon="-3.7772570">
        <ele>374.0</ele>
        <time>2018-04-28T06:42:54Z</time>
      </trkpt>
      <trkpt lat="38.1629470" lon="-3.7772700">
        <ele>374.2</ele>
        <time>2018-04-28T06:42:55Z</time>
      </trkpt>
      <trkpt lat="38.1629310" lon="-3.7772840">
        <ele>374.2</ele>
        <time>2018-04-28T06:42:56Z</time>
      </trkpt>
      <trkpt lat="38.1629130" lon="-3.7773010">
        <ele>374.4</ele>
        <time>2018-04-28T06:42:57Z</time>
      </trkpt>
      <trkpt lat="38.1628960" lon="-3.7773180">
        <ele>374.6</ele>
        <time>2018-04-28T06:42:58Z</time>
      </trkpt>
      <trkpt lat="38.1628800" lon="-3.7773350">
        <ele>374.6</ele>
        <time>2018-04-28T06:42:59Z</time>
      </trkpt>
      <trkpt lat="38.1628660" lon="-3.7773530">
        <ele>374.8</ele>
        <time>2018-04-28T06:43:00Z</time>
      </trkpt>
      <trkpt lat="38.1628480" lon="-3.7773690">
        <ele>375.0</ele>
        <time>2018-04-28T06:43:01Z</time>
      </trkpt>
      <trkpt lat="38.1628290" lon="-3.7773870">
        <ele>375.2</ele>
        <time>2018-04-28T06:43:02Z</time>
      </trkpt>
      <trkpt lat="38.1628140" lon="-3.7774060">
        <ele>375.2</ele>
        <time>2018-04-28T06:43:03Z</time>
      </trkpt>
      <trkpt lat="38.1627990" lon="-3.7774270">
        <ele>375.4</ele>
        <time>2018-04-28T06:43:04Z</time>
      </trkpt>
      <trkpt lat="38.1627850" lon="-3.7774470">
        <ele>375.6</ele>
        <time>2018-04-28T06:43:05Z</time>
      </trkpt>
      <trkpt lat="38.1627710" lon="-3.7774670">
        <ele>375.8</ele>
        <time>2018-04-28T06:43:06Z</time>
      </trkpt>
      <trkpt lat="38.1627550" lon="-3.7774870">
        <ele>376.0</ele>
        <time>2018-04-28T06:43:07Z</time>
      </trkpt>
      <trkpt lat="38.1627420" lon="-3.7775070">
        <ele>376.0</ele>
        <time>2018-04-28T06:43:08Z</time>
      </trkpt>
      <trkpt lat="38.1627270" lon="-3.7775270">
        <ele>376.0</ele>
        <time>2018-04-28T06:43:09Z</time>
      </trkpt>
      <trkpt lat="38.1627130" lon="-3.7775450">
        <ele>376.2</ele>
        <time>2018-04-28T06:43:10Z</time>
      </trkpt>
      <trkpt lat="38.1627000" lon="-3.7775630">
        <ele>376.4</ele>
        <time>2018-04-28T06:43:11Z</time>
      </trkpt>
      <trkpt lat="38.1626890" lon="-3.7775840">
        <ele>376.6</ele>
        <time>2018-04-28T06:43:12Z</time>
      </trkpt>
      <trkpt lat="38.1626780" lon="-3.7776050">
        <ele>376.6</ele>
        <time>2018-04-28T06:43:13Z</time>
      </trkpt>
      <trkpt lat="38.1626620" lon="-3.7776250">
        <ele>376.8</ele>
        <time>2018-04-28T06:43:14Z</time>
      </trkpt>
      <trkpt lat="38.1626450" lon="-3.7776450">
        <ele>377.0</ele>
        <time>2018-04-28T06:43:15Z</time>
      </trkpt>
      <trkpt lat="38.1626250" lon="-3.7776680">
        <ele>377.2</ele>
        <time>2018-04-28T06:43:16Z</time>
      </trkpt>
      <trkpt lat="38.1626110" lon="-3.7776880">
        <ele>377.2</ele>
        <time>2018-04-28T06:43:17Z</time>
      </trkpt>
      <trkpt lat="38.1625960" lon="-3.7777080">
        <ele>377.4</ele>
        <time>2018-04-28T06:43:18Z</time>
      </trkpt>
      <trkpt lat="38.1625820" lon="-3.7777270">
        <ele>377.6</ele>
        <time>2018-04-28T06:43:19Z</time>
      </trkpt>
      <trkpt lat="38.1625650" lon="-3.7777480">
        <ele>377.6</ele>
        <time>2018-04-28T06:43:20Z</time>
      </trkpt>
      <trkpt lat="38.1625520" lon="-3.7777660">
        <ele>377.8</ele>
        <time>2018-04-28T06:43:21Z</time>
      </trkpt>
      <trkpt lat="38.1625360" lon="-3.7777860">
        <ele>378.0</ele>
        <time>2018-04-28T06:43:22Z</time>
      </trkpt>
      <trkpt lat="38.1625180" lon="-3.7778050">
        <ele>378.0</ele>
        <time>2018-04-28T06:43:23Z</time>
      </trkpt>
      <trkpt lat="38.1625040" lon="-3.7778280">
        <ele>378.2</ele>
        <time>2018-04-28T06:43:24Z</time>
      </trkpt>
      <trkpt lat="38.1624900" lon="-3.7778490">
        <ele>378.4</ele>
        <time>2018-04-28T06:43:25Z</time>
      </trkpt>
      <trkpt lat="38.1624740" lon="-3.7778700">
        <ele>378.4</ele>
        <time>2018-04-28T06:43:26Z</time>
      </trkpt>
      <trkpt lat="38.1624610" lon="-3.7778940">
        <ele>378.6</ele>
        <time>2018-04-28T06:43:27Z</time>
      </trkpt>
      <trkpt lat="38.1624470" lon="-3.7779160">
        <ele>378.8</ele>
        <time>2018-04-28T06:43:28Z</time>
      </trkpt>
      <trkpt lat="38.1624390" lon="-3.7779380">
        <ele>378.8</ele>
        <time>2018-04-28T06:43:29Z</time>
      </trkpt>
      <trkpt lat="38.1624240" lon="-3.7779600">
        <ele>379.0</ele>
        <time>2018-04-28T06:43:30Z</time>
      </trkpt>
      <trkpt lat="38.1624070" lon="-3.7779820">
        <ele>379.2</ele>
        <time>2018-04-28T06:43:31Z</time>
      </trkpt>
      <trkpt lat="38.1623930" lon="-3.7780040">
        <ele>379.2</ele>
        <time>2018-04-28T06:43:32Z</time>
      </trkpt>
      <trkpt lat="38.1623780" lon="-3.7780270">
        <ele>379.4</ele>
        <time>2018-04-28T06:43:33Z</time>
      </trkpt>
      <trkpt lat="38.1623630" lon="-3.7780510">
        <ele>379.6</ele>
        <time>2018-04-28T06:43:34Z</time>
      </trkpt>
      <trkpt lat="38.1623530" lon="-3.7780760">
        <ele>379.8</ele>
        <time>2018-04-28T06:43:35Z</time>
      </trkpt>
      <trkpt lat="38.1623450" lon="-3.7781010">
        <ele>379.8</ele>
        <time>2018-04-28T06:43:36Z</time>
      </trkpt>
      <trkpt lat="38.1623380" lon="-3.7781270">
        <ele>380.0</ele>
        <time>2018-04-28T06:43:37Z</time>
      </trkpt>
      <trkpt lat="38.1623300" lon="-3.7781540">
        <ele>380.2</ele>
        <time>2018-04-28T06:43:38Z</time>
      </trkpt>
      <trkpt lat="38.1623240" lon="-3.7781810">
        <ele>380.4</ele>
        <time>2018-04-28T06:43:39Z</time>
      </trkpt>
      <trkpt lat="38.1623200" lon="-3.7782090">
        <ele>380.6</ele>
        <time>2018-04-28T06:43:40Z</time>
      </trkpt>
      <trkpt lat="38.1623160" lon="-3.7782380">
        <ele>380.8</ele>
        <time>2018-04-28T06:43:41Z</time>
      </trkpt>
      <trkpt lat="38.1623130" lon="-3.7782660">
        <ele>380.8</ele>
        <time>2018-04-28T06:43:42Z</time>
      </trkpt>
      <trkpt lat="38.1623090" lon="-3.7782950">
        <ele>381.0</ele>
        <time>2018-04-28T06:43:43Z</time>
      </trkpt>
      <trkpt lat="38.1623060" lon="-3.7783210">
        <ele>381.2</ele>
        <time>2018-04-28T06:43:44Z</time>
      </trkpt>
      <trkpt lat="38.1623040" lon="-3.7783490">
        <ele>381.4</ele>
        <time>2018-04-28T06:43:45Z</time>
      </trkpt>
      <trkpt lat="38.1623010" lon="-3.7783760">
        <ele>381.6</ele>
        <time>2018-04-28T06:43:46Z</time>
      </trkpt>
      <trkpt lat="38.1623000" lon="-3.7784040">
        <ele>381.8</ele>
        <time>2018-04-28T06:43:47Z</time>
      </trkpt>
      <trkpt lat="38.1622970" lon="-3.7784300">
        <ele>381.8</ele>
        <time>2018-04-28T06:43:48Z</time>
      </trkpt>
      <trkpt lat="38.1622910" lon="-3.7784540">
        <ele>382.0</ele>
        <time>2018-04-28T06:43:49Z</time>
      </trkpt>
      <trkpt lat="38.1622860" lon="-3.7784810">
        <ele>382.2</ele>
        <time>2018-04-28T06:43:50Z</time>
      </trkpt>
      <trkpt lat="38.1622830" lon="-3.7785100">
        <ele>382.2</ele>
        <time>2018-04-28T06:43:51Z</time>
      </trkpt>
      <trkpt lat="38.1622800" lon="-3.7785410">
        <ele>382.4</ele>
        <time>2018-04-28T06:43:52Z</time>
      </trkpt>
      <trkpt lat="38.1622750" lon="-3.7785710">
        <ele>382.6</ele>
        <time>2018-04-28T06:43:53Z</time>
      </trkpt>
      <trkpt lat="38.1622720" lon="-3.7786010">
        <ele>382.8</ele>
        <time>2018-04-28T06:43:54Z</time>
      </trkpt>
      <trkpt lat="38.1622680" lon="-3.7786280">
        <ele>383.0</ele>
        <time>2018-04-28T06:43:55Z</time>
      </trkpt>
      <trkpt lat="38.1622630" lon="-3.7786570">
        <ele>383.0</ele>
        <time>2018-04-28T06:43:56Z</time>
      </trkpt>
      <trkpt lat="38.1622580" lon="-3.7786860">
        <ele>383.2</ele>
        <time>2018-04-28T06:43:57Z</time>
      </trkpt>
      <trkpt lat="38.1622530" lon="-3.7787150">
        <ele>383.2</ele>
        <time>2018-04-28T06:43:58Z</time>
      </trkpt>
      <trkpt lat="38.1622480" lon="-3.7787440">
        <ele>383.4</ele>
        <time>2018-04-28T06:43:59Z</time>
      </trkpt>
      <trkpt lat="38.1622430" lon="-3.7787720">
        <ele>383.6</ele>
        <time>2018-04-28T06:44:00Z</time>
      </trkpt>
      <trkpt lat="38.1622380" lon="-3.7788000">
        <ele>383.8</ele>
        <time>2018-04-28T06:44:01Z</time>
      </trkpt>
      <trkpt lat="38.1622340" lon="-3.7788280">
        <ele>384.0</ele>
        <time>2018-04-28T06:44:02Z</time>
      </trkpt>
      <trkpt lat="38.1622290" lon="-3.7788550">
        <ele>384.0</ele>
        <time>2018-04-28T06:44:03Z</time>
      </trkpt>
      <trkpt lat="38.1622230" lon="-3.7788800">
        <ele>384.2</ele>
        <time>2018-04-28T06:44:04Z</time>
      </trkpt>
      <trkpt lat="38.1622170" lon="-3.7789060">
        <ele>384.4</ele>
        <time>2018-04-28T06:44:05Z</time>
      </trkpt>
      <trkpt lat="38.1622110" lon="-3.7789330">
        <ele>384.6</ele>
        <time>2018-04-28T06:44:06Z</time>
      </trkpt>
      <trkpt lat="38.1622070" lon="-3.7789590">
        <ele>384.6</ele>
        <time>2018-04-28T06:44:07Z</time>
      </trkpt>
      <trkpt lat="38.1622060" lon="-3.7789860">
        <ele>384.8</ele>
        <time>2018-04-28T06:44:08Z</time>
      </trkpt>
      <trkpt lat="38.1622020" lon="-3.7790140">
        <ele>385.0</ele>
        <time>2018-04-28T06:44:09Z</time>
      </trkpt>
      <trkpt lat="38.1621970" lon="-3.7790420">
        <ele>385.0</ele>
        <time>2018-04-28T06:44:10Z</time>
      </trkpt>
      <trkpt lat="38.1621930" lon="-3.7790700">
        <ele>385.2</ele>
        <time>2018-04-28T06:44:11Z</time>
      </trkpt>
      <trkpt lat="38.1621900" lon="-3.7790990">
        <ele>385.4</ele>
        <time>2018-04-28T06:44:12Z</time>
      </trkpt>
      <trkpt lat="38.1621860" lon="-3.7791300">
        <ele>385.6</ele>
        <time>2018-04-28T06:44:13Z</time>
      </trkpt>
      <trkpt lat="38.1621820" lon="-3.7791580">
        <ele>385.6</ele>
        <time>2018-04-28T06:44:14Z</time>
      </trkpt>
      <trkpt lat="38.1621800" lon="-3.7791870">
        <ele>385.8</ele>
        <time>2018-04-28T06:44:15Z</time>
      </trkpt>
      <trkpt lat="38.1621780" lon="-3.7792160">
        <ele>386.0</ele>
        <time>2018-04-28T06:44:16Z</time>
      </trkpt>
      <trkpt lat="38.1621770" lon="-3.7792450">
        <ele>386.2</ele>
        <time>2018-04-28T06:44:17Z</time>
      </trkpt>
      <trkpt lat="38.1621770" lon="-3.7792720">
        <ele>386.2</ele>
        <time>2018-04-28T06:44:18Z</time>
      </trkpt>
      <trkpt lat="38.1621760" lon="-3.7793010">
        <ele>386.4</ele>
        <time>2018-04-28T06:44:19Z</time>
      </trkpt>
      <trkpt lat="38.1621750" lon="-3.7793290">
        <ele>386.6</ele>
        <time>2018-04-28T06:44:20Z</time>
      </trkpt>
      <trkpt lat="38.1621760" lon="-3.7793550">
        <ele>386.8</ele>
        <time>2018-04-28T06:44:21Z</time>
      </trkpt>
      <trkpt lat="38.1621790" lon="-3.7793820">
        <ele>387.0</ele>
        <time>2018-04-28T06:44:22Z</time>
      </trkpt>
      <trkpt lat="38.1621790" lon="-3.7794110">
        <ele>387.2</ele>
        <time>2018-04-28T06:44:23Z</time>
      </trkpt>
      <trkpt lat="38.1621780" lon="-3.7794410">
        <ele>387.2</ele>
        <time>2018-04-28T06:44:24Z</time>
      </trkpt>
      <trkpt lat="38.1621790" lon="-3.7794690">
        <ele>387.4</ele>
        <time>2018-04-28T06:44:25Z</time>
      </trkpt>
      <trkpt lat="38.1621790" lon="-3.7794980">
        <ele>387.6</ele>
        <time>2018-04-28T06:44:26Z</time>
      </trkpt>
      <trkpt lat="38.1621800" lon="-3.7795270">
        <ele>387.6</ele>
        <time>2018-04-28T06:44:27Z</time>
      </trkpt>
      <trkpt lat="38.1621810" lon="-3.7795540">
        <ele>387.8</ele>
        <time>2018-04-28T06:44:28Z</time>
      </trkpt>
      <trkpt lat="38.1621780" lon="-3.7795840">
        <ele>388.0</ele>
        <time>2018-04-28T06:44:29Z</time>
      </trkpt>
      <trkpt lat="38.1621740" lon="-3.7796140">
        <ele>388.0</ele>
        <time>2018-04-28T06:44:30Z</time>
      </trkpt>
      <trkpt lat="38.1621740" lon="-3.7796430">
        <ele>388.2</ele>
        <time>2018-04-28T06:44:31Z</time>
      </trkpt>
      <trkpt lat="38.1621720" lon="-3.7796710">
        <ele>388.4</ele>
        <time>2018-04-28T06:44:32Z</time>
      </trkpt>
      <trkpt lat="38.1621700" lon="-3.7797000">
        <ele>388.6</ele>
        <time>2018-04-28T06:44:33Z</time>
      </trkpt>
      <trkpt lat="38.1621690" lon="-3.7797290">
        <ele>388.8</ele>
        <time>2018-04-28T06:44:34Z</time>
      </trkpt>
      <trkpt lat="38.1621690" lon="-3.7797570">
        <ele>389.0</ele>
        <time>2018-04-28T06:44:35Z</time>
      </trkpt>
      <trkpt lat="38.1621680" lon="-3.7797850">
        <ele>389.2</ele>
        <time>2018-04-28T06:44:36Z</time>
      </trkpt>
      <trkpt lat="38.1621670" lon="-3.7798120">
        <ele>389.2</ele>
        <time>2018-04-28T06:44:37Z</time>
      </trkpt>
      <trkpt lat="38.1621660" lon="-3.7798360">
        <ele>389.4</ele>
        <time>2018-04-28T06:44:38Z</time>
      </trkpt>
      <trkpt lat="38.1621650" lon="-3.7798630">
        <ele>389.4</ele>
        <time>2018-04-28T06:44:39Z</time>
      </trkpt>
      <trkpt lat="38.1621610" lon="-3.7798910">
        <ele>389.6</ele>
        <time>2018-04-28T06:44:40Z</time>
      </trkpt>
      <trkpt lat="38.1621600" lon="-3.7799200">
        <ele>389.6</ele>
        <time>2018-04-28T06:44:41Z</time>
      </trkpt>
      <trkpt lat="38.1621550" lon="-3.7799500">
        <ele>389.8</ele>
        <time>2018-04-28T06:44:42Z</time>
      </trkpt>
      <trkpt lat="38.1621510" lon="-3.7799770">
        <ele>390.0</ele>
        <time>2018-04-28T06:44:43Z</time>
      </trkpt>
      <trkpt lat="38.1621490" lon="-3.7800030">
        <ele>390.0</ele>
        <time>2018-04-28T06:44:44Z</time>
      </trkpt>
      <trkpt lat="38.1621460" lon="-3.7800300">
        <ele>390.2</ele>
        <time>2018-04-28T06:44:45Z</time>
      </trkpt>
      <trkpt lat="38.1621390" lon="-3.7800590">
        <ele>390.4</ele>
        <time>2018-04-28T06:44:46Z</time>
      </trkpt>
      <trkpt lat="38.1621330" lon="-3.7800850">
        <ele>390.6</ele>
        <time>2018-04-28T06:44:47Z</time>
      </trkpt>
      <trkpt lat="38.1621270" lon="-3.7801120">
        <ele>390.6</ele>
        <time>2018-04-28T06:44:48Z</time>
      </trkpt>
      <trkpt lat="38.1621190" lon="-3.7801400">
        <ele>390.8</ele>
        <time>2018-04-28T06:44:49Z</time>
      </trkpt>
      <trkpt lat="38.1621110" lon="-3.7801660">
        <ele>391.0</ele>
        <time>2018-04-28T06:44:50Z</time>
      </trkpt>
      <trkpt lat="38.1621010" lon="-3.7801930">
        <ele>391.2</ele>
        <time>2018-04-28T06:44:51Z</time>
      </trkpt>
      <trkpt lat="38.1620900" lon="-3.7802200">
        <ele>391.2</ele>
        <time>2018-04-28T06:44:52Z</time>
      </trkpt>
      <trkpt lat="38.1620830" lon="-3.7802440">
        <ele>391.4</ele>
        <time>2018-04-28T06:44:53Z</time>
      </trkpt>
      <trkpt lat="38.1620750" lon="-3.7802680">
        <ele>391.6</ele>
        <time>2018-04-28T06:44:54Z</time>
      </trkpt>
      <trkpt lat="38.1620670" lon="-3.7802930">
        <ele>391.6</ele>
        <time>2018-04-28T06:44:55Z</time>
      </trkpt>
      <trkpt lat="38.1620580" lon="-3.7803160">
        <ele>391.8</ele>
        <time>2018-04-28T06:44:56Z</time>
      </trkpt>
      <trkpt lat="38.1620500" lon="-3.7803410">
        <ele>392.0</ele>
        <time>2018-04-28T06:44:57Z</time>
      </trkpt>
      <trkpt lat="38.1620390" lon="-3.7803670">
        <ele>392.2</ele>
        <time>2018-04-28T06:44:58Z</time>
      </trkpt>
      <trkpt lat="38.1620310" lon="-3.7803920">
        <ele>392.2</ele>
        <time>2018-04-28T06:44:59Z</time>
      </trkpt>
      <trkpt lat="38.1620230" lon="-3.7804170">
        <ele>392.4</ele>
        <time>2018-04-28T06:45:00Z</time>
      </trkpt>
      <trkpt lat="38.1620150" lon="-3.7804430">
        <ele>392.6</ele>
        <time>2018-04-28T06:45:01Z</time>
      </trkpt>
      <trkpt lat="38.1620070" lon="-3.7804680">
        <ele>392.8</ele>
        <time>2018-04-28T06:45:02Z</time>
      </trkpt>
      <trkpt lat="38.1619980" lon="-3.7804940">
        <ele>392.8</ele>
        <time>2018-04-28T06:45:03Z</time>
      </trkpt>
      <trkpt lat="38.1619890" lon="-3.7805220">
        <ele>393.0</ele>
        <time>2018-04-28T06:45:04Z</time>
      </trkpt>
      <trkpt lat="38.1619810" lon="-3.7805460">
        <ele>393.2</ele>
        <time>2018-04-28T06:45:05Z</time>
      </trkpt>
      <trkpt lat="38.1619710" lon="-3.7805740">
        <ele>393.2</ele>
        <time>2018-04-28T06:45:06Z</time>
      </trkpt>
      <trkpt lat="38.1619650" lon="-3.7805990">
        <ele>393.4</ele>
        <time>2018-04-28T06:45:07Z</time>
      </trkpt>
      <trkpt lat="38.1619590" lon="-3.7806230">
        <ele>393.6</ele>
        <time>2018-04-28T06:45:08Z</time>
      </trkpt>
      <trkpt lat="38.1619520" lon="-3.7806490">
        <ele>393.8</ele>
        <time>2018-04-28T06:45:09Z</time>
      </trkpt>
      <trkpt lat="38.1619470" lon="-3.7806740">
        <ele>394.0</ele>
        <time>2018-04-28T06:45:10Z</time>
      </trkpt>
      <trkpt lat="38.1619410" lon="-3.7807050">
        <ele>394.0</ele>
        <time>2018-04-28T06:45:11Z</time>
      </trkpt>
      <trkpt lat="38.1619370" lon="-3.7807330">
        <ele>394.2</ele>
        <time>2018-04-28T06:45:12Z</time>
      </trkpt>
      <trkpt lat="38.1619350" lon="-3.7807670">
        <ele>394.4</ele>
        <time>2018-04-28T06:45:13Z</time>
      </trkpt>
      <trkpt lat="38.1619340" lon="-3.7807950">
        <ele>394.6</ele>
        <time>2018-04-28T06:45:14Z</time>
      </trkpt>
      <trkpt lat="38.1619330" lon="-3.7808210">
        <ele>394.6</ele>
        <time>2018-04-28T06:45:15Z</time>
      </trkpt>
      <trkpt lat="38.1619330" lon="-3.7808460">
        <ele>394.8</ele>
        <time>2018-04-28T06:45:16Z</time>
      </trkpt>
      <trkpt lat="38.1619310" lon="-3.7808730">
        <ele>395.0</ele>
        <time>2018-04-28T06:45:17Z</time>
      </trkpt>
      <trkpt lat="38.1619300" lon="-3.7809010">
        <ele>395.2</ele>
        <time>2018-04-28T06:45:18Z</time>
      </trkpt>
      <trkpt lat="38.1619280" lon="-3.7809320">
        <ele>395.2</ele>
        <time>2018-04-28T06:45:19Z</time>
      </trkpt>
      <trkpt lat="38.1619280" lon="-3.7809620">
        <ele>395.4</ele>
        <time>2018-04-28T06:45:20Z</time>
      </trkpt>
      <trkpt lat="38.1619290" lon="-3.7809910">
        <ele>395.6</ele>
        <time>2018-04-28T06:45:21Z</time>
      </trkpt>
      <trkpt lat="38.1619330" lon="-3.7810190">
        <ele>395.8</ele>
        <time>2018-04-28T06:45:22Z</time>
      </trkpt>
      <trkpt lat="38.1619370" lon="-3.7810480">
        <ele>395.8</ele>
        <time>2018-04-28T06:45:23Z</time>
      </trkpt>
      <trkpt lat="38.1619430" lon="-3.7810760">
        <ele>396.0</ele>
        <time>2018-04-28T06:45:24Z</time>
      </trkpt>
      <trkpt lat="38.1619490" lon="-3.7811020">
        <ele>396.2</ele>
        <time>2018-04-28T06:45:25Z</time>
      </trkpt>
      <trkpt lat="38.1619560" lon="-3.7811290">
        <ele>396.4</ele>
        <time>2018-04-28T06:45:26Z</time>
      </trkpt>
      <trkpt lat="38.1619620" lon="-3.7811560">
        <ele>396.6</ele>
        <time>2018-04-28T06:45:27Z</time>
      </trkpt>
      <trkpt lat="38.1619690" lon="-3.7811820">
        <ele>396.6</ele>
        <time>2018-04-28T06:45:28Z</time>
      </trkpt>
      <trkpt lat="38.1619770" lon="-3.7812090">
        <ele>396.8</ele>
        <time>2018-04-28T06:45:29Z</time>
      </trkpt>
      <trkpt lat="38.1619850" lon="-3.7812340">
        <ele>396.8</ele>
        <time>2018-04-28T06:45:30Z</time>
      </trkpt>
      <trkpt lat="38.1619950" lon="-3.7812580">
        <ele>397.0</ele>
        <time>2018-04-28T06:45:31Z</time>
      </trkpt>
      <trkpt lat="38.1620050" lon="-3.7812840">
        <ele>397.0</ele>
        <time>2018-04-28T06:45:32Z</time>
      </trkpt>
      <trkpt lat="38.1620160" lon="-3.7813100">
        <ele>397.2</ele>
        <time>2018-04-28T06:45:33Z</time>
      </trkpt>
      <trkpt lat="38.1620260" lon="-3.7813360">
        <ele>397.4</ele>
        <time>2018-04-28T06:45:34Z</time>
      </trkpt>
      <trkpt lat="38.1620360" lon="-3.7813620">
        <ele>397.4</ele>
        <time>2018-04-28T06:45:35Z</time>
      </trkpt>
      <trkpt lat="38.1620460" lon="-3.7813870">
        <ele>397.6</ele>
        <time>2018-04-28T06:45:36Z</time>
      </trkpt>
      <trkpt lat="38.1620560" lon="-3.7814110">
        <ele>397.8</ele>
        <time>2018-04-28T06:45:37Z</time>
      </trkpt>
      <trkpt lat="38.1620670" lon="-3.7814350">
        <ele>398.0</ele>
        <time>2018-04-28T06:45:38Z</time>
      </trkpt>
      <trkpt lat="38.1620790" lon="-3.7814580">
        <ele>398.0</ele>
        <time>2018-04-28T06:45:39Z</time>
      </trkpt>
      <trkpt lat="38.1620900" lon="-3.7814820">
        <ele>398.2</ele>
        <time>2018-04-28T06:45:40Z</time>
      </trkpt>
      <trkpt lat="38.1621020" lon="-3.7815070">
        <ele>398.4</ele>
        <time>2018-04-28T06:45:41Z</time>
      </trkpt>
      <trkpt lat="38.1621110" lon="-3.7815330">
        <ele>398.6</ele>
        <time>2018-04-28T06:45:42Z</time>
      </trkpt>
      <trkpt lat="38.1621210" lon="-3.7815590">
        <ele>398.6</ele>
        <time>2018-04-28T06:45:43Z</time>
      </trkpt>
      <trkpt lat="38.1621320" lon="-3.7815840">
        <ele>398.8</ele>
        <time>2018-04-28T06:45:44Z</time>
      </trkpt>
      <trkpt lat="38.1621430" lon="-3.7816110">
        <ele>399.0</ele>
        <time>2018-04-28T06:45:45Z</time>
      </trkpt>
      <trkpt lat="38.1621560" lon="-3.7816390">
        <ele>399.2</ele>
        <time>2018-04-28T06:45:46Z</time>
      </trkpt>
      <trkpt lat="38.1621690" lon="-3.7816620">
        <ele>399.4</ele>
        <time>2018-04-28T06:45:47Z</time>
      </trkpt>
      <trkpt lat="38.1621810" lon="-3.7816850">
        <ele>399.4</ele>
        <time>2018-04-28T06:45:48Z</time>
      </trkpt>
      <trkpt lat="38.1621930" lon="-3.7817080">
        <ele>399.6</ele>
        <time>2018-04-28T06:45:49Z</time>
      </trkpt>
      <trkpt lat="38.1622050" lon="-3.7817330">
        <ele>399.8</ele>
        <time>2018-04-28T06:45:50Z</time>
      </trkpt>
      <trkpt lat="38.1622190" lon="-3.7817570">
        <ele>400.0</ele>
        <time>2018-04-28T06:45:51Z</time>
      </trkpt>
      <trkpt lat="38.1622310" lon="-3.7817820">
        <ele>400.0</ele>
        <time>2018-04-28T06:45:52Z</time>
      </trkpt>
      <trkpt lat="38.1622440" lon="-3.7818040">
        <ele>400.0</ele>
        <time>2018-04-28T06:45:53Z</time>
      </trkpt>
      <trkpt lat="38.1622560" lon="-3.7818300">
        <ele>400.6</ele>
        <time>2018-04-28T06:45:54Z</time>
      </trkpt>
      <trkpt lat="38.1622700" lon="-3.7818540">
        <ele>400.4</ele>
        <time>2018-04-28T06:45:55Z</time>
      </trkpt>
      <trkpt lat="38.1622820" lon="-3.7818790">
        <ele>400.4</ele>
        <time>2018-04-28T06:45:56Z</time>
      </trkpt>
      <trkpt lat="38.1622950" lon="-3.7819040">
        <ele>400.4</ele>
        <time>2018-04-28T06:45:57Z</time>
      </trkpt>
      <trkpt lat="38.1623070" lon="-3.7819320">
        <ele>400.6</ele>
        <time>2018-04-28T06:45:58Z</time>
      </trkpt>
      <trkpt lat="38.1623210" lon="-3.7819580">
        <ele>400.6</ele>
        <time>2018-04-28T06:45:59Z</time>
      </trkpt>
      <trkpt lat="38.1623350" lon="-3.7819840">
        <ele>400.6</ele>
        <time>2018-04-28T06:46:00Z</time>
      </trkpt>
      <trkpt lat="38.1623480" lon="-3.7820120">
        <ele>400.6</ele>
        <time>2018-04-28T06:46:01Z</time>
      </trkpt>
      <trkpt lat="38.1623600" lon="-3.7820390">
        <ele>400.8</ele>
        <time>2018-04-28T06:46:02Z</time>
      </trkpt>
      <trkpt lat="38.1623720" lon="-3.7820640">
        <ele>400.8</ele>
        <time>2018-04-28T06:46:03Z</time>
      </trkpt>
      <trkpt lat="38.1623840" lon="-3.7820910">
        <ele>400.8</ele>
        <time>2018-04-28T06:46:04Z</time>
      </trkpt>
      <trkpt lat="38.1623980" lon="-3.7821200">
        <ele>401.0</ele>
        <time>2018-04-28T06:46:05Z</time>
      </trkpt>
      <trkpt lat="38.1624120" lon="-3.7821490">
        <ele>401.0</ele>
        <time>2018-04-28T06:46:06Z</time>
      </trkpt>
      <trkpt lat="38.1624260" lon="-3.7821760">
        <ele>401.0</ele>
        <time>2018-04-28T06:46:07Z</time>
      </trkpt>
      <trkpt lat="38.1624400" lon="-3.7822030">
        <ele>401.2</ele>
        <time>2018-04-28T06:46:08Z</time>
      </trkpt>
      <trkpt lat="38.1624550" lon="-3.7822300">
        <ele>401.2</ele>
        <time>2018-04-28T06:46:09Z</time>
      </trkpt>
      <trkpt lat="38.1624700" lon="-3.7822560">
        <ele>401.4</ele>
        <time>2018-04-28T06:46:10Z</time>
      </trkpt>
      <trkpt lat="38.1624870" lon="-3.7822820">
        <ele>401.4</ele>
        <time>2018-04-28T06:46:11Z</time>
      </trkpt>
      <trkpt lat="38.1625030" lon="-3.7823080">
        <ele>401.6</ele>
        <time>2018-04-28T06:46:12Z</time>
      </trkpt>
      <trkpt lat="38.1625170" lon="-3.7823360">
        <ele>401.6</ele>
        <time>2018-04-28T06:46:13Z</time>
      </trkpt>
      <trkpt lat="38.1625300" lon="-3.7823650">
        <ele>401.8</ele>
        <time>2018-04-28T06:46:14Z</time>
      </trkpt>
      <trkpt lat="38.1625440" lon="-3.7823920">
        <ele>401.8</ele>
        <time>2018-04-28T06:46:15Z</time>
      </trkpt>
      <trkpt lat="38.1625570" lon="-3.7824190">
        <ele>402.0</ele>
        <time>2018-04-28T06:46:16Z</time>
      </trkpt>
      <trkpt lat="38.1625720" lon="-3.7824440">
        <ele>402.0</ele>
        <time>2018-04-28T06:46:17Z</time>
      </trkpt>
      <trkpt lat="38.1625860" lon="-3.7824700">
        <ele>402.0</ele>
        <time>2018-04-28T06:46:18Z</time>
      </trkpt>
      <trkpt lat="38.1625990" lon="-3.7824960">
        <ele>402.2</ele>
        <time>2018-04-28T06:46:19Z</time>
      </trkpt>
      <trkpt lat="38.1626110" lon="-3.7825250">
        <ele>402.2</ele>
        <time>2018-04-28T06:46:20Z</time>
      </trkpt>
      <trkpt lat="38.1626250" lon="-3.7825520">
        <ele>402.4</ele>
        <time>2018-04-28T06:46:21Z</time>
      </trkpt>
      <trkpt lat="38.1626400" lon="-3.7825800">
        <ele>402.6</ele>
        <time>2018-04-28T06:46:22Z</time>
      </trkpt>
      <trkpt lat="38.1626540" lon="-3.7826070">
        <ele>402.8</ele>
        <time>2018-04-28T06:46:23Z</time>
      </trkpt>
      <trkpt lat="38.1626670" lon="-3.7826320">
        <ele>403.0</ele>
        <time>2018-04-28T06:46:24Z</time>
      </trkpt>
      <trkpt lat="38.1626810" lon="-3.7826550">
        <ele>403.0</ele>
        <time>2018-04-28T06:46:25Z</time>
      </trkpt>
      <trkpt lat="38.1626940" lon="-3.7826800">
        <ele>403.2</ele>
        <time>2018-04-28T06:46:26Z</time>
      </trkpt>
      <trkpt lat="38.1627080" lon="-3.7827010">
        <ele>403.4</ele>
        <time>2018-04-28T06:46:27Z</time>
      </trkpt>
      <trkpt lat="38.1627240" lon="-3.7827210">
        <ele>405.4</ele>
        <time>2018-04-28T06:46:28Z</time>
      </trkpt>
      <trkpt lat="38.1627410" lon="-3.7827400">
        <ele>403.8</ele>
        <time>2018-04-28T06:46:29Z</time>
      </trkpt>
      <trkpt lat="38.1627590" lon="-3.7827570">
        <ele>403.8</ele>
        <time>2018-04-28T06:46:30Z</time>
      </trkpt>
      <trkpt lat="38.1627770" lon="-3.7827690">
        <ele>404.0</ele>
        <time>2018-04-28T06:46:31Z</time>
      </trkpt>
      <trkpt lat="38.1627990" lon="-3.7827770">
        <ele>404.2</ele>
        <time>2018-04-28T06:46:32Z</time>
      </trkpt>
      <trkpt lat="38.1628190" lon="-3.7827860">
        <ele>404.4</ele>
        <time>2018-04-28T06:46:33Z</time>
      </trkpt>
      <trkpt lat="38.1628410" lon="-3.7827910">
        <ele>404.6</ele>
        <time>2018-04-28T06:46:34Z</time>
      </trkpt>
      <trkpt lat="38.1628600" lon="-3.7827910">
        <ele>404.8</ele>
        <time>2018-04-28T06:46:35Z</time>
      </trkpt>
      <trkpt lat="38.1628790" lon="-3.7827930">
        <ele>405.0</ele>
        <time>2018-04-28T06:46:36Z</time>
      </trkpt>
      <trkpt lat="38.1628980" lon="-3.7827930">
        <ele>405.2</ele>
        <time>2018-04-28T06:46:37Z</time>
      </trkpt>
      <trkpt lat="38.1629160" lon="-3.7827890">
        <ele>405.4</ele>
        <time>2018-04-28T06:46:38Z</time>
      </trkpt>
      <trkpt lat="38.1629340" lon="-3.7827820">
        <ele>405.8</ele>
        <time>2018-04-28T06:46:39Z</time>
      </trkpt>
      <trkpt lat="38.1629520" lon="-3.7827780">
        <ele>406.0</ele>
        <time>2018-04-28T06:46:40Z</time>
      </trkpt>
      <trkpt lat="38.1629710" lon="-3.7827750">
        <ele>406.2</ele>
        <time>2018-04-28T06:46:41Z</time>
      </trkpt>
      <trkpt lat="38.1629910" lon="-3.7827710">
        <ele>406.4</ele>
        <time>2018-04-28T06:46:42Z</time>
      </trkpt>
      <trkpt lat="38.1630100" lon="-3.7827660">
        <ele>406.6</ele>
        <time>2018-04-28T06:46:43Z</time>
      </trkpt>
      <trkpt lat="38.1630300" lon="-3.7827620">
        <ele>406.6</ele>
        <time>2018-04-28T06:46:44Z</time>
      </trkpt>
      <trkpt lat="38.1630500" lon="-3.7827620">
        <ele>406.8</ele>
        <time>2018-04-28T06:46:45Z</time>
      </trkpt>
      <trkpt lat="38.1630710" lon="-3.7827610">
        <ele>407.0</ele>
        <time>2018-04-28T06:46:46Z</time>
      </trkpt>
      <trkpt lat="38.1630910" lon="-3.7827610">
        <ele>407.2</ele>
        <time>2018-04-28T06:46:47Z</time>
      </trkpt>
      <trkpt lat="38.1631110" lon="-3.7827650">
        <ele>407.4</ele>
        <time>2018-04-28T06:46:48Z</time>
      </trkpt>
      <trkpt lat="38.1631310" lon="-3.7827720">
        <ele>407.6</ele>
        <time>2018-04-28T06:46:49Z</time>
      </trkpt>
      <trkpt lat="38.1631500" lon="-3.7827820">
        <ele>407.6</ele>
        <time>2018-04-28T06:46:50Z</time>
      </trkpt>
      <trkpt lat="38.1631690" lon="-3.7827930">
        <ele>407.8</ele>
        <time>2018-04-28T06:46:51Z</time>
      </trkpt>
      <trkpt lat="38.1631860" lon="-3.7828070">
        <ele>408.0</ele>
        <time>2018-04-28T06:46:52Z</time>
      </trkpt>
      <trkpt lat="38.1632020" lon="-3.7828220">
        <ele>408.2</ele>
        <time>2018-04-28T06:46:53Z</time>
      </trkpt>
      <trkpt lat="38.1632170" lon="-3.7828390">
        <ele>408.2</ele>
        <time>2018-04-28T06:46:54Z</time>
      </trkpt>
      <trkpt lat="38.1632310" lon="-3.7828550">
        <ele>408.4</ele>
        <time>2018-04-28T06:46:55Z</time>
      </trkpt>
      <trkpt lat="38.1632450" lon="-3.7828710">
        <ele>408.6</ele>
        <time>2018-04-28T06:46:56Z</time>
      </trkpt>
      <trkpt lat="38.1632590" lon="-3.7828910">
        <ele>408.8</ele>
        <time>2018-04-28T06:46:57Z</time>
      </trkpt>
      <trkpt lat="38.1632720" lon="-3.7829120">
        <ele>409.0</ele>
        <time>2018-04-28T06:46:58Z</time>
      </trkpt>
      <trkpt lat="38.1632820" lon="-3.7829340">
        <ele>409.2</ele>
        <time>2018-04-28T06:46:59Z</time>
      </trkpt>
      <trkpt lat="38.1632900" lon="-3.7829570">
        <ele>409.4</ele>
        <time>2018-04-28T06:47:00Z</time>
      </trkpt>
      <trkpt lat="38.1632990" lon="-3.7829790">
        <ele>409.4</ele>
        <time>2018-04-28T06:47:01Z</time>
      </trkpt>
      <trkpt lat="38.1633060" lon="-3.7830020">
        <ele>409.6</ele>
        <time>2018-04-28T06:47:02Z</time>
      </trkpt>
      <trkpt lat="38.1633100" lon="-3.7830260">
        <ele>409.6</ele>
        <time>2018-04-28T06:47:03Z</time>
      </trkpt>
      <trkpt lat="38.1633170" lon="-3.7830510">
        <ele>409.8</ele>
        <time>2018-04-28T06:47:04Z</time>
      </trkpt>
      <trkpt lat="38.1633200" lon="-3.7830770">
        <ele>410.0</ele>
        <time>2018-04-28T06:47:05Z</time>
      </trkpt>
      <trkpt lat="38.1633220" lon="-3.7831030">
        <ele>410.0</ele>
        <time>2018-04-28T06:47:06Z</time>
      </trkpt>
      <trkpt lat="38.1633220" lon="-3.7831300">
        <ele>410.2</ele>
        <time>2018-04-28T06:47:07Z</time>
      </trkpt>
      <trkpt lat="38.1633230" lon="-3.7831570">
        <ele>410.4</ele>
        <time>2018-04-28T06:47:08Z</time>
      </trkpt>
      <trkpt lat="38.1633220" lon="-3.7831840">
        <ele>410.4</ele>
        <time>2018-04-28T06:47:09Z</time>
      </trkpt>
      <trkpt lat="38.1633200" lon="-3.7832100">
        <ele>410.6</ele>
        <time>2018-04-28T06:47:10Z</time>
      </trkpt>
      <trkpt lat="38.1633160" lon="-3.7832370">
        <ele>410.8</ele>
        <time>2018-04-28T06:47:11Z</time>
      </trkpt>
      <trkpt lat="38.1633110" lon="-3.7832630">
        <ele>410.8</ele>
        <time>2018-04-28T06:47:12Z</time>
      </trkpt>
      <trkpt lat="38.1633060" lon="-3.7832890">
        <ele>411.0</ele>
        <time>2018-04-28T06:47:13Z</time>
      </trkpt>
      <trkpt lat="38.1632990" lon="-3.7833150">
        <ele>411.0</ele>
        <time>2018-04-28T06:47:14Z</time>
      </trkpt>
      <trkpt lat="38.1632920" lon="-3.7833400">
        <ele>411.2</ele>
        <time>2018-04-28T06:47:15Z</time>
      </trkpt>
      <trkpt lat="38.1632860" lon="-3.7833660">
        <ele>411.2</ele>
        <time>2018-04-28T06:47:16Z</time>
      </trkpt>
      <trkpt lat="38.1632800" lon="-3.7833920">
        <ele>411.4</ele>
        <time>2018-04-28T06:47:17Z</time>
      </trkpt>
      <trkpt lat="38.1632730" lon="-3.7834180">
        <ele>411.6</ele>
        <time>2018-04-28T06:47:18Z</time>
      </trkpt>
      <trkpt lat="38.1632650" lon="-3.7834420">
        <ele>411.8</ele>
        <time>2018-04-28T06:47:19Z</time>
      </trkpt>
      <trkpt lat="38.1632550" lon="-3.7834660">
        <ele>411.8</ele>
        <time>2018-04-28T06:47:20Z</time>
      </trkpt>
      <trkpt lat="38.1632460" lon="-3.7834900">
        <ele>412.0</ele>
        <time>2018-04-28T06:47:21Z</time>
      </trkpt>
      <trkpt lat="38.1632380" lon="-3.7835140">
        <ele>412.0</ele>
        <time>2018-04-28T06:47:22Z</time>
      </trkpt>
      <trkpt lat="38.1632290" lon="-3.7835380">
        <ele>412.2</ele>
        <time>2018-04-28T06:47:23Z</time>
      </trkpt>
      <trkpt lat="38.1632200" lon="-3.7835630">
        <ele>412.4</ele>
        <time>2018-04-28T06:47:24Z</time>
      </trkpt>
      <trkpt lat="38.1632110" lon="-3.7835890">
        <ele>412.4</ele>
        <time>2018-04-28T06:47:25Z</time>
      </trkpt>
      <trkpt lat="38.1632030" lon="-3.7836140">
        <ele>412.6</ele>
        <time>2018-04-28T06:47:26Z</time>
      </trkpt>
      <trkpt lat="38.1631960" lon="-3.7836390">
        <ele>412.8</ele>
        <time>2018-04-28T06:47:27Z</time>
      </trkpt>
      <trkpt lat="38.1631910" lon="-3.7836660">
        <ele>412.8</ele>
        <time>2018-04-28T06:47:28Z</time>
      </trkpt>
      <trkpt lat="38.1631850" lon="-3.7836940">
        <ele>413.0</ele>
        <time>2018-04-28T06:47:29Z</time>
      </trkpt>
      <trkpt lat="38.1631770" lon="-3.7837220">
        <ele>413.2</ele>
        <time>2018-04-28T06:47:30Z</time>
      </trkpt>
      <trkpt lat="38.1631750" lon="-3.7837490">
        <ele>413.2</ele>
        <time>2018-04-28T06:47:31Z</time>
      </trkpt>
      <trkpt lat="38.1631730" lon="-3.7837760">
        <ele>413.4</ele>
        <time>2018-04-28T06:47:32Z</time>
      </trkpt>
      <trkpt lat="38.1631700" lon="-3.7838040">
        <ele>413.6</ele>
        <time>2018-04-28T06:47:33Z</time>
      </trkpt>
      <trkpt lat="38.1631690" lon="-3.7838310">
        <ele>413.6</ele>
        <time>2018-04-28T06:47:34Z</time>
      </trkpt>
      <trkpt lat="38.1631710" lon="-3.7838580">
        <ele>413.8</ele>
        <time>2018-04-28T06:47:35Z</time>
      </trkpt>
      <trkpt lat="38.1631740" lon="-3.7838850">
        <ele>414.0</ele>
        <time>2018-04-28T06:47:36Z</time>
      </trkpt>
      <trkpt lat="38.1631780" lon="-3.7839120">
        <ele>414.0</ele>
        <time>2018-04-28T06:47:37Z</time>
      </trkpt>
      <trkpt lat="38.1631820" lon="-3.7839380">
        <ele>414.2</ele>
        <time>2018-04-28T06:47:38Z</time>
      </trkpt>
      <trkpt lat="38.1631850" lon="-3.7839640">
        <ele>414.4</ele>
        <time>2018-04-28T06:47:39Z</time>
      </trkpt>
      <trkpt lat="38.1631890" lon="-3.7839900">
        <ele>414.6</ele>
        <time>2018-04-28T06:47:40Z</time>
      </trkpt>
      <trkpt lat="38.1631940" lon="-3.7840150">
        <ele>414.8</ele>
        <time>2018-04-28T06:47:41Z</time>
      </trkpt>
      <trkpt lat="38.1632000" lon="-3.7840410">
        <ele>414.8</ele>
        <time>2018-04-28T06:47:42Z</time>
      </trkpt>
      <trkpt lat="38.1632070" lon="-3.7840670">
        <ele>415.0</ele>
        <time>2018-04-28T06:47:43Z</time>
      </trkpt>
      <trkpt lat="38.1632130" lon="-3.7840930">
        <ele>415.2</ele>
        <time>2018-04-28T06:47:44Z</time>
      </trkpt>
      <trkpt lat="38.1632210" lon="-3.7841170">
        <ele>415.4</ele>
        <time>2018-04-28T06:47:45Z</time>
      </trkpt>
      <trkpt lat="38.1632250" lon="-3.7841420">
        <ele>415.4</ele>
        <time>2018-04-28T06:47:46Z</time>
      </trkpt>
      <trkpt lat="38.1632290" lon="-3.7841670">
        <ele>415.4</ele>
        <time>2018-04-28T06:47:47Z</time>
      </trkpt>
      <trkpt lat="38.1632310" lon="-3.7841930">
        <ele>415.6</ele>
        <time>2018-04-28T06:47:48Z</time>
      </trkpt>
      <trkpt lat="38.1632300" lon="-3.7842210">
        <ele>415.8</ele>
        <time>2018-04-28T06:47:49Z</time>
      </trkpt>
      <trkpt lat="38.1632300" lon="-3.7842480">
        <ele>415.8</ele>
        <time>2018-04-28T06:47:50Z</time>
      </trkpt>
      <trkpt lat="38.1632280" lon="-3.7842750">
        <ele>416.0</ele>
        <time>2018-04-28T06:47:51Z</time>
      </trkpt>
      <trkpt lat="38.1632250" lon="-3.7843010">
        <ele>416.2</ele>
        <time>2018-04-28T06:47:52Z</time>
      </trkpt>
      <trkpt lat="38.1632210" lon="-3.7843270">
        <ele>416.2</ele>
        <time>2018-04-28T06:47:53Z</time>
      </trkpt>
      <trkpt lat="38.1632140" lon="-3.7843530">
        <ele>416.4</ele>
        <time>2018-04-28T06:47:54Z</time>
      </trkpt>
      <trkpt lat="38.1632070" lon="-3.7843780">
        <ele>416.4</ele>
        <time>2018-04-28T06:47:55Z</time>
      </trkpt>
      <trkpt lat="38.1632000" lon="-3.7844030">
        <ele>416.6</ele>
        <time>2018-04-28T06:47:56Z</time>
      </trkpt>
      <trkpt lat="38.1631910" lon="-3.7844290">
        <ele>416.8</ele>
        <time>2018-04-28T06:47:57Z</time>
      </trkpt>
      <trkpt lat="38.1631790" lon="-3.7844540">
        <ele>416.8</ele>
        <time>2018-04-28T06:47:58Z</time>
      </trkpt>
      <trkpt lat="38.1631640" lon="-3.7844760">
        <ele>417.0</ele>
        <time>2018-04-28T06:47:59Z</time>
      </trkpt>
      <trkpt lat="38.1631480" lon="-3.7844960">
        <ele>417.0</ele>
        <time>2018-04-28T06:48:00Z</time>
      </trkpt>
      <trkpt lat="38.1631330" lon="-3.7845180">
        <ele>417.2</ele>
        <time>2018-04-28T06:48:01Z</time>
      </trkpt>
      <trkpt lat="38.1631180" lon="-3.7845380">
        <ele>417.2</ele>
        <time>2018-04-28T06:48:02Z</time>
      </trkpt>
      <trkpt lat="38.1630980" lon="-3.7845550">
        <ele>417.4</ele>
        <time>2018-04-28T06:48:03Z</time>
      </trkpt>
      <trkpt lat="38.1630760" lon="-3.7845690">
        <ele>417.4</ele>
        <time>2018-04-28T06:48:04Z</time>
      </trkpt>
      <trkpt lat="38.1630560" lon="-3.7845880">
        <ele>417.6</ele>
        <time>2018-04-28T06:48:05Z</time>
      </trkpt>
      <trkpt lat="38.1630370" lon="-3.7846060">
        <ele>417.8</ele>
        <time>2018-04-28T06:48:06Z</time>
      </trkpt>
      <trkpt lat="38.1630190" lon="-3.7846240">
        <ele>417.8</ele>
        <time>2018-04-28T06:48:07Z</time>
      </trkpt>
      <trkpt lat="38.1630000" lon="-3.7846420">
        <ele>418.0</ele>
        <time>2018-04-28T06:48:08Z</time>
      </trkpt>
      <trkpt lat="38.1629790" lon="-3.7846600">
        <ele>418.2</ele>
        <time>2018-04-28T06:48:09Z</time>
      </trkpt>
      <trkpt lat="38.1629600" lon="-3.7846780">
        <ele>418.4</ele>
        <time>2018-04-28T06:48:10Z</time>
      </trkpt>
      <trkpt lat="38.1629420" lon="-3.7846970">
        <ele>418.6</ele>
        <time>2018-04-28T06:48:11Z</time>
      </trkpt>
      <trkpt lat="38.1629220" lon="-3.7847150">
        <ele>418.6</ele>
        <time>2018-04-28T06:48:12Z</time>
      </trkpt>
      <trkpt lat="38.1629020" lon="-3.7847340">
        <ele>418.8</ele>
        <time>2018-04-28T06:48:13Z</time>
      </trkpt>
      <trkpt lat="38.1628850" lon="-3.7847520">
        <ele>418.8</ele>
        <time>2018-04-28T06:48:14Z</time>
      </trkpt>
      <trkpt lat="38.1628660" lon="-3.7847700">
        <ele>419.0</ele>
        <time>2018-04-28T06:48:15Z</time>
      </trkpt>
      <trkpt lat="38.1628480" lon="-3.7847890">
        <ele>419.2</ele>
        <time>2018-04-28T06:48:16Z</time>
      </trkpt>
      <trkpt lat="38.1628290" lon="-3.7848060">
        <ele>419.4</ele>
        <time>2018-04-28T06:48:17Z</time>
      </trkpt>
      <trkpt lat="38.1628090" lon="-3.7848240">
        <ele>419.4</ele>
        <time>2018-04-28T06:48:18Z</time>
      </trkpt>
      <trkpt lat="38.1627890" lon="-3.7848410">
        <ele>419.6</ele>
        <time>2018-04-28T06:48:19Z</time>
      </trkpt>
      <trkpt lat="38.1627710" lon="-3.7848580">
        <ele>419.8</ele>
        <time>2018-04-28T06:48:20Z</time>
      </trkpt>
      <trkpt lat="38.1627430" lon="-3.7848690">
        <ele>420.0</ele>
        <time>2018-04-28T06:48:21Z</time>
      </trkpt>
      <trkpt lat="38.1627210" lon="-3.7848850">
        <ele>420.0</ele>
        <time>2018-04-28T06:48:22Z</time>
      </trkpt>
      <trkpt lat="38.1627000" lon="-3.7849040">
        <ele>420.2</ele>
        <time>2018-04-28T06:48:23Z</time>
      </trkpt>
      <trkpt lat="38.1626790" lon="-3.7849220">
        <ele>420.4</ele>
        <time>2018-04-28T06:48:24Z</time>
      </trkpt>
      <trkpt lat="38.1626600" lon="-3.7849390">
        <ele>420.6</ele>
        <time>2018-04-28T06:48:25Z</time>
      </trkpt>
      <trkpt lat="38.1626390" lon="-3.7849560">
        <ele>420.6</ele>
        <time>2018-04-28T06:48:26Z</time>
      </trkpt>
      <trkpt lat="38.1626200" lon="-3.7849750">
        <ele>420.8</ele>
        <time>2018-04-28T06:48:27Z</time>
      </trkpt>
      <trkpt lat="38.1626030" lon="-3.7849950">
        <ele>421.0</ele>
        <time>2018-04-28T06:48:28Z</time>
      </trkpt>
      <trkpt lat="38.1625830" lon="-3.7850150">
        <ele>421.0</ele>
        <time>2018-04-28T06:48:29Z</time>
      </trkpt>
      <trkpt lat="38.1625650" lon="-3.7850360">
        <ele>421.2</ele>
        <time>2018-04-28T06:48:30Z</time>
      </trkpt>
      <trkpt lat="38.1625510" lon="-3.7850580">
        <ele>421.4</ele>
        <time>2018-04-28T06:48:31Z</time>
      </trkpt>
      <trkpt lat="38.1625370" lon="-3.7850840">
        <ele>421.4</ele>
        <time>2018-04-28T06:48:32Z</time>
      </trkpt>
      <trkpt lat="38.1625220" lon="-3.7851080">
        <ele>421.6</ele>
        <time>2018-04-28T06:48:33Z</time>
      </trkpt>
      <trkpt lat="38.1625060" lon="-3.7851330">
        <ele>421.8</ele>
        <time>2018-04-28T06:48:34Z</time>
      </trkpt>
      <trkpt lat="38.1624920" lon="-3.7851580">
        <ele>422.0</ele>
        <time>2018-04-28T06:48:35Z</time>
      </trkpt>
      <trkpt lat="38.1624780" lon="-3.7851830">
        <ele>422.0</ele>
        <time>2018-04-28T06:48:36Z</time>
      </trkpt>
      <trkpt lat="38.1624710" lon="-3.7852130">
        <ele>422.2</ele>
        <time>2018-04-28T06:48:37Z</time>
      </trkpt>
      <trkpt lat="38.1624620" lon="-3.7852430">
        <ele>422.2</ele>
        <time>2018-04-28T06:48:38Z</time>
      </trkpt>
      <trkpt lat="38.1624560" lon="-3.7852740">
        <ele>422.4</ele>
        <time>2018-04-28T06:48:39Z</time>
      </trkpt>
      <trkpt lat="38.1624510" lon="-3.7853060">
        <ele>422.6</ele>
        <time>2018-04-28T06:48:40Z</time>
      </trkpt>
      <trkpt lat="38.1624470" lon="-3.7853370">
        <ele>422.8</ele>
        <time>2018-04-28T06:48:41Z</time>
      </trkpt>
      <trkpt lat="38.1624440" lon="-3.7853670">
        <ele>422.8</ele>
        <time>2018-04-28T06:48:42Z</time>
      </trkpt>
      <trkpt lat="38.1624440" lon="-3.7853980">
        <ele>423.0</ele>
        <time>2018-04-28T06:48:43Z</time>
      </trkpt>
      <trkpt lat="38.1624440" lon="-3.7854290">
        <ele>423.2</ele>
        <time>2018-04-28T06:48:44Z</time>
      </trkpt>
      <trkpt lat="38.1624440" lon="-3.7854600">
        <ele>423.4</ele>
        <time>2018-04-28T06:48:45Z</time>
      </trkpt>
      <trkpt lat="38.1624440" lon="-3.7854910">
        <ele>423.6</ele>
        <time>2018-04-28T06:48:46Z</time>
      </trkpt>
      <trkpt lat="38.1624430" lon="-3.7855220">
        <ele>423.6</ele>
        <time>2018-04-28T06:48:47Z</time>
      </trkpt>
      <trkpt lat="38.1624410" lon="-3.7855530">
        <ele>423.8</ele>
        <time>2018-04-28T06:48:48Z</time>
      </trkpt>
      <trkpt lat="38.1624400" lon="-3.7855840">
        <ele>424.0</ele>
        <time>2018-04-28T06:48:49Z</time>
      </trkpt>
      <trkpt lat="38.1624410" lon="-3.7856150">
        <ele>424.0</ele>
        <time>2018-04-28T06:48:50Z</time>
      </trkpt>
      <trkpt lat="38.1624450" lon="-3.7856430">
        <ele>424.2</ele>
        <time>2018-04-28T06:48:51Z</time>
      </trkpt>
      <trkpt lat="38.1624480" lon="-3.7856730">
        <ele>424.4</ele>
        <time>2018-04-28T06:48:52Z</time>
      </trkpt>
      <trkpt lat="38.1624500" lon="-3.7857030">
        <ele>424.4</ele>
        <time>2018-04-28T06:48:53Z</time>
      </trkpt>
      <trkpt lat="38.1624520" lon="-3.7857340">
        <ele>424.6</ele>
        <time>2018-04-28T06:48:54Z</time>
      </trkpt>
      <trkpt lat="38.1624550" lon="-3.7857650">
        <ele>424.8</ele>
        <time>2018-04-28T06:48:55Z</time>
      </trkpt>
      <trkpt lat="38.1624580" lon="-3.7857970">
        <ele>424.8</ele>
        <time>2018-04-28T06:48:56Z</time>
      </trkpt>
      <trkpt lat="38.1624620" lon="-3.7858300">
        <ele>425.0</ele>
        <time>2018-04-28T06:48:57Z</time>
      </trkpt>
      <trkpt lat="38.1624630" lon="-3.7858610">
        <ele>425.2</ele>
        <time>2018-04-28T06:48:58Z</time>
      </trkpt>
      <trkpt lat="38.1624640" lon="-3.7858900">
        <ele>425.4</ele>
        <time>2018-04-28T06:48:59Z</time>
      </trkpt>
      <trkpt lat="38.1624660" lon="-3.7859190">
        <ele>425.6</ele>
        <time>2018-04-28T06:49:00Z</time>
      </trkpt>
      <trkpt lat="38.1624640" lon="-3.7859500">
        <ele>425.6</ele>
        <time>2018-04-28T06:49:01Z</time>
      </trkpt>
      <trkpt lat="38.1624640" lon="-3.7859800">
        <ele>425.8</ele>
        <time>2018-04-28T06:49:02Z</time>
      </trkpt>
      <trkpt lat="38.1624620" lon="-3.7860110">
        <ele>426.0</ele>
        <time>2018-04-28T06:49:03Z</time>
      </trkpt>
      <trkpt lat="38.1624610" lon="-3.7860420">
        <ele>426.0</ele>
        <time>2018-04-28T06:49:04Z</time>
      </trkpt>
      <trkpt lat="38.1624600" lon="-3.7860730">
        <ele>426.2</ele>
        <time>2018-04-28T06:49:05Z</time>
      </trkpt>
      <trkpt lat="38.1624560" lon="-3.7861010">
        <ele>426.4</ele>
        <time>2018-04-28T06:49:06Z</time>
      </trkpt>
      <trkpt lat="38.1624510" lon="-3.7861280">
        <ele>426.6</ele>
        <time>2018-04-28T06:49:07Z</time>
      </trkpt>
      <trkpt lat="38.1624450" lon="-3.7861560">
        <ele>426.8</ele>
        <time>2018-04-28T06:49:08Z</time>
      </trkpt>
      <trkpt lat="38.1624380" lon="-3.7861830">
        <ele>427.0</ele>
        <time>2018-04-28T06:49:09Z</time>
      </trkpt>
      <trkpt lat="38.1624270" lon="-3.7862090">
        <ele>427.2</ele>
        <time>2018-04-28T06:49:10Z</time>
      </trkpt>
      <trkpt lat="38.1624160" lon="-3.7862330">
        <ele>427.2</ele>
        <time>2018-04-28T06:49:11Z</time>
      </trkpt>
      <trkpt lat="38.1624040" lon="-3.7862580">
        <ele>427.2</ele>
        <time>2018-04-28T06:49:12Z</time>
      </trkpt>
      <trkpt lat="38.1623910" lon="-3.7862850">
        <ele>427.4</ele>
        <time>2018-04-28T06:49:13Z</time>
      </trkpt>
      <trkpt lat="38.1623780" lon="-3.7863110">
        <ele>427.4</ele>
        <time>2018-04-28T06:49:14Z</time>
      </trkpt>
      <trkpt lat="38.1623630" lon="-3.7863370">
        <ele>427.6</ele>
        <time>2018-04-28T06:49:15Z</time>
      </trkpt>
      <trkpt lat="38.1623460" lon="-3.7863640">
        <ele>427.6</ele>
        <time>2018-04-28T06:49:16Z</time>
      </trkpt>
      <trkpt lat="38.1623290" lon="-3.7863910">
        <ele>427.6</ele>
        <time>2018-04-28T06:49:17Z</time>
      </trkpt>
      <trkpt lat="38.1623120" lon="-3.7864190">
        <ele>427.6</ele>
        <time>2018-04-28T06:49:18Z</time>
      </trkpt>
      <trkpt lat="38.1622930" lon="-3.7864480">
        <ele>427.8</ele>
        <time>2018-04-28T06:49:19Z</time>
      </trkpt>
      <trkpt lat="38.1622750" lon="-3.7864780">
        <ele>427.8</ele>
        <time>2018-04-28T06:49:20Z</time>
      </trkpt>
      <trkpt lat="38.1622560" lon="-3.7865090">
        <ele>428.0</ele>
        <time>2018-04-28T06:49:21Z</time>
      </trkpt>
      <trkpt lat="38.1622330" lon="-3.7865380">
        <ele>428.0</ele>
        <time>2018-04-28T06:49:22Z</time>
      </trkpt>
      <trkpt lat="38.1622100" lon="-3.7865650">
        <ele>428.2</ele>
        <time>2018-04-28T06:49:23Z</time>
      </trkpt>
      <trkpt lat="38.1621840" lon="-3.7865890">
        <ele>428.2</ele>
        <time>2018-04-28T06:49:24Z</time>
      </trkpt>
      <trkpt lat="38.1621520" lon="-3.7866110">
        <ele>428.2</ele>
        <time>2018-04-28T06:49:25Z</time>
      </trkpt>
      <trkpt lat="38.1621190" lon="-3.7866270">
        <ele>428.4</ele>
        <time>2018-04-28T06:49:26Z</time>
      </trkpt>
      <trkpt lat="38.1620890" lon="-3.7866420">
        <ele>428.4</ele>
        <time>2018-04-28T06:49:27Z</time>
      </trkpt>
      <trkpt lat="38.1620560" lon="-3.7866530">
        <ele>428.4</ele>
        <time>2018-04-28T06:49:28Z</time>
      </trkpt>
      <trkpt lat="38.1620230" lon="-3.7866640">
        <ele>428.4</ele>
        <time>2018-04-28T06:49:29Z</time>
      </trkpt>
      <trkpt lat="38.1619900" lon="-3.7866750">
        <ele>428.6</ele>
        <time>2018-04-28T06:49:30Z</time>
      </trkpt>
      <trkpt lat="38.1619570" lon="-3.7866860">
        <ele>428.6</ele>
        <time>2018-04-28T06:49:31Z</time>
      </trkpt>
      <trkpt lat="38.1619250" lon="-3.7866970">
        <ele>428.6</ele>
        <time>2018-04-28T06:49:32Z</time>
      </trkpt>
      <trkpt lat="38.1618930" lon="-3.7867080">
        <ele>428.8</ele>
        <time>2018-04-28T06:49:33Z</time>
      </trkpt>
      <trkpt lat="38.1618590" lon="-3.7867190">
        <ele>428.8</ele>
        <time>2018-04-28T06:49:34Z</time>
      </trkpt>
      <trkpt lat="38.1618250" lon="-3.7867320">
        <ele>428.8</ele>
        <time>2018-04-28T06:49:35Z</time>
      </trkpt>
      <trkpt lat="38.1617900" lon="-3.7867460">
        <ele>428.8</ele>
        <time>2018-04-28T06:49:36Z</time>
      </trkpt>
      <trkpt lat="38.1617540" lon="-3.7867580">
        <ele>429.0</ele>
        <time>2018-04-28T06:49:37Z</time>
      </trkpt>
      <trkpt lat="38.1617170" lon="-3.7867700">
        <ele>429.0</ele>
        <time>2018-04-28T06:49:38Z</time>
      </trkpt>
      <trkpt lat="38.1616790" lon="-3.7867820">
        <ele>429.0</ele>
        <time>2018-04-28T06:49:39Z</time>
      </trkpt>
      <trkpt lat="38.1616430" lon="-3.7867950">
        <ele>429.2</ele>
        <time>2018-04-28T06:49:40Z</time>
      </trkpt>
      <trkpt lat="38.1616080" lon="-3.7868080">
        <ele>429.4</ele>
        <time>2018-04-28T06:49:41Z</time>
      </trkpt>
      <trkpt lat="38.1615720" lon="-3.7868210">
        <ele>429.4</ele>
        <time>2018-04-28T06:49:42Z</time>
      </trkpt>
      <trkpt lat="38.1615380" lon="-3.7868340">
        <ele>429.6</ele>
        <time>2018-04-28T06:49:43Z</time>
      </trkpt>
      <trkpt lat="38.1615040" lon="-3.7868460">
        <ele>429.8</ele>
        <time>2018-04-28T06:49:44Z</time>
      </trkpt>
      <trkpt lat="38.1614690" lon="-3.7868590">
        <ele>429.8</ele>
        <time>2018-04-28T06:49:45Z</time>
      </trkpt>
      <trkpt lat="38.1614350" lon="-3.7868720">
        <ele>430.0</ele>
        <time>2018-04-28T06:49:46Z</time>
      </trkpt>
      <trkpt lat="38.1613990" lon="-3.7868840">
        <ele>430.0</ele>
        <time>2018-04-28T06:49:47Z</time>
      </trkpt>
      <trkpt lat="38.1613650" lon="-3.7868950">
        <ele>430.2</ele>
        <time>2018-04-28T06:49:48Z</time>
      </trkpt>
      <trkpt lat="38.1613290" lon="-3.7869030">
        <ele>430.2</ele>
        <time>2018-04-28T06:49:49Z</time>
      </trkpt>
      <trkpt lat="38.1612930" lon="-3.7869120">
        <ele>430.4</ele>
        <time>2018-04-28T06:49:50Z</time>
      </trkpt>
      <trkpt lat="38.1612500" lon="-3.7869250">
        <ele>430.6</ele>
        <time>2018-04-28T06:49:51Z</time>
      </trkpt>
      <trkpt lat="38.1612150" lon="-3.7869360">
        <ele>430.6</ele>
        <time>2018-04-28T06:49:52Z</time>
      </trkpt>
      <trkpt lat="38.1611790" lon="-3.7869460">
        <ele>430.8</ele>
        <time>2018-04-28T06:49:53Z</time>
      </trkpt>
      <trkpt lat="38.1611470" lon="-3.7869570">
        <ele>430.8</ele>
        <time>2018-04-28T06:49:54Z</time>
      </trkpt>
      <trkpt lat="38.1611150" lon="-3.7869690">
        <ele>431.0</ele>
        <time>2018-04-28T06:49:55Z</time>
      </trkpt>
      <trkpt lat="38.1610830" lon="-3.7869810">
        <ele>431.2</ele>
        <time>2018-04-28T06:49:56Z</time>
      </trkpt>
      <trkpt lat="38.1610530" lon="-3.7869970">
        <ele>431.2</ele>
        <time>2018-04-28T06:49:57Z</time>
      </trkpt>
      <trkpt lat="38.1610230" lon="-3.7870190">
        <ele>431.4</ele>
        <time>2018-04-28T06:49:58Z</time>
      </trkpt>
      <trkpt lat="38.1609950" lon="-3.7870440">
        <ele>431.4</ele>
        <time>2018-04-28T06:49:59Z</time>
      </trkpt>
      <trkpt lat="38.1609710" lon="-3.7870720">
        <ele>431.6</ele>
        <time>2018-04-28T06:50:00Z</time>
      </trkpt>
      <trkpt lat="38.1609470" lon="-3.7871020">
        <ele>431.6</ele>
        <time>2018-04-28T06:50:01Z</time>
      </trkpt>
      <trkpt lat="38.1609240" lon="-3.7871330">
        <ele>431.8</ele>
        <time>2018-04-28T06:50:02Z</time>
      </trkpt>
      <trkpt lat="38.1609030" lon="-3.7871630">
        <ele>431.8</ele>
        <time>2018-04-28T06:50:03Z</time>
      </trkpt>
      <trkpt lat="38.1608830" lon="-3.7871970">
        <ele>432.0</ele>
        <time>2018-04-28T06:50:04Z</time>
      </trkpt>
      <trkpt lat="38.1608640" lon="-3.7872290">
        <ele>432.2</ele>
        <time>2018-04-28T06:50:05Z</time>
      </trkpt>
      <trkpt lat="38.1608440" lon="-3.7872600">
        <ele>432.2</ele>
        <time>2018-04-28T06:50:06Z</time>
      </trkpt>
      <trkpt lat="38.1608250" lon="-3.7872920">
        <ele>432.6</ele>
        <time>2018-04-28T06:50:07Z</time>
      </trkpt>
      <trkpt lat="38.1608070" lon="-3.7873250">
        <ele>432.8</ele>
        <time>2018-04-28T06:50:08Z</time>
      </trkpt>
      <trkpt lat="38.1607910" lon="-3.7873580">
        <ele>433.0</ele>
        <time>2018-04-28T06:50:09Z</time>
      </trkpt>
      <trkpt lat="38.1607740" lon="-3.7873900">
        <ele>433.2</ele>
        <time>2018-04-28T06:50:10Z</time>
      </trkpt>
      <trkpt lat="38.1607610" lon="-3.7874230">
        <ele>433.2</ele>
        <time>2018-04-28T06:50:11Z</time>
      </trkpt>
      <trkpt lat="38.1607460" lon="-3.7874570">
        <ele>433.6</ele>
        <time>2018-04-28T06:50:12Z</time>
      </trkpt>
      <trkpt lat="38.1607290" lon="-3.7874910">
        <ele>433.6</ele>
        <time>2018-04-28T06:50:13Z</time>
      </trkpt>
      <trkpt lat="38.1607110" lon="-3.7875220">
        <ele>434.0</ele>
        <time>2018-04-28T06:50:14Z</time>
      </trkpt>
      <trkpt lat="38.1606920" lon="-3.7875490">
        <ele>434.2</ele>
        <time>2018-04-28T06:50:15Z</time>
      </trkpt>
      <trkpt lat="38.1606740" lon="-3.7875760">
        <ele>434.2</ele>
        <time>2018-04-28T06:50:16Z</time>
      </trkpt>
      <trkpt lat="38.1606570" lon="-3.7876030">
        <ele>434.4</ele>
        <time>2018-04-28T06:50:17Z</time>
      </trkpt>
      <trkpt lat="38.1606400" lon="-3.7876300">
        <ele>434.6</ele>
        <time>2018-04-28T06:50:18Z</time>
      </trkpt>
      <trkpt lat="38.1606230" lon="-3.7876580">
        <ele>434.8</ele>
        <time>2018-04-28T06:50:19Z</time>
      </trkpt>
      <trkpt lat="38.1606060" lon="-3.7876850">
        <ele>435.0</ele>
        <time>2018-04-28T06:50:20Z</time>
      </trkpt>
      <trkpt lat="38.1605860" lon="-3.7877090">
        <ele>435.0</ele>
        <time>2018-04-28T06:50:21Z</time>
      </trkpt>
      <trkpt lat="38.1605610" lon="-3.7877280">
        <ele>435.2</ele>
        <time>2018-04-28T06:50:22Z</time>
      </trkpt>
      <trkpt lat="38.1605390" lon="-3.7877470">
        <ele>435.4</ele>
        <time>2018-04-28T06:50:23Z</time>
      </trkpt>
      <trkpt lat="38.1605200" lon="-3.7877620">
        <ele>435.6</ele>
        <time>2018-04-28T06:50:24Z</time>
      </trkpt>
      <trkpt lat="38.1605000" lon="-3.7877750">
        <ele>435.6</ele>
        <time>2018-04-28T06:50:25Z</time>
      </trkpt>
      <trkpt lat="38.1604790" lon="-3.7877870">
        <ele>435.8</ele>
        <time>2018-04-28T06:50:26Z</time>
      </trkpt>
      <trkpt lat="38.1604580" lon="-3.7878010">
        <ele>436.0</ele>
        <time>2018-04-28T06:50:27Z</time>
      </trkpt>
      <trkpt lat="38.1604350" lon="-3.7878140">
        <ele>436.2</ele>
        <time>2018-04-28T06:50:28Z</time>
      </trkpt>
      <trkpt lat="38.1604140" lon="-3.7878280">
        <ele>436.2</ele>
        <time>2018-04-28T06:50:29Z</time>
      </trkpt>
      <trkpt lat="38.1603950" lon="-3.7878440">
        <ele>436.4</ele>
        <time>2018-04-28T06:50:30Z</time>
      </trkpt>
      <trkpt lat="38.1603740" lon="-3.7878550">
        <ele>436.6</ele>
        <time>2018-04-28T06:50:31Z</time>
      </trkpt>
      <trkpt lat="38.1603510" lon="-3.7878650">
        <ele>436.6</ele>
        <time>2018-04-28T06:50:32Z</time>
      </trkpt>
      <trkpt lat="38.1603280" lon="-3.7878740">
        <ele>436.8</ele>
        <time>2018-04-28T06:50:33Z</time>
      </trkpt>
      <trkpt lat="38.1603040" lon="-3.7878840">
        <ele>437.0</ele>
        <time>2018-04-28T06:50:34Z</time>
      </trkpt>
      <trkpt lat="38.1602760" lon="-3.7878890">
        <ele>437.2</ele>
        <time>2018-04-28T06:50:35Z</time>
      </trkpt>
      <trkpt lat="38.1602520" lon="-3.7878980">
        <ele>437.2</ele>
        <time>2018-04-28T06:50:36Z</time>
      </trkpt>
      <trkpt lat="38.1602290" lon="-3.7879090">
        <ele>437.4</ele>
        <time>2018-04-28T06:50:37Z</time>
      </trkpt>
      <trkpt lat="38.1602050" lon="-3.7879200">
        <ele>437.6</ele>
        <time>2018-04-28T06:50:38Z</time>
      </trkpt>
      <trkpt lat="38.1601790" lon="-3.7879290">
        <ele>437.6</ele>
        <time>2018-04-28T06:50:39Z</time>
      </trkpt>
      <trkpt lat="38.1601540" lon="-3.7879390">
        <ele>437.8</ele>
        <time>2018-04-28T06:50:40Z</time>
      </trkpt>
      <trkpt lat="38.1601310" lon="-3.7879510">
        <ele>438.0</ele>
        <time>2018-04-28T06:50:41Z</time>
      </trkpt>
      <trkpt lat="38.1601050" lon="-3.7879600">
        <ele>438.2</ele>
        <time>2018-04-28T06:50:42Z</time>
      </trkpt>
      <trkpt lat="38.1600820" lon="-3.7879710">
        <ele>438.4</ele>
        <time>2018-04-28T06:50:43Z</time>
      </trkpt>
      <trkpt lat="38.1600600" lon="-3.7879830">
        <ele>438.6</ele>
        <time>2018-04-28T06:50:44Z</time>
      </trkpt>
      <trkpt lat="38.1600360" lon="-3.7879950">
        <ele>438.6</ele>
        <time>2018-04-28T06:50:45Z</time>
      </trkpt>
      <trkpt lat="38.1600130" lon="-3.7880080">
        <ele>438.8</ele>
        <time>2018-04-28T06:50:46Z</time>
      </trkpt>
      <trkpt lat="38.1599890" lon="-3.7880190">
        <ele>439.0</ele>
        <time>2018-04-28T06:50:47Z</time>
      </trkpt>
      <trkpt lat="38.1599660" lon="-3.7880280">
        <ele>439.0</ele>
        <time>2018-04-28T06:50:48Z</time>
      </trkpt>
      <trkpt lat="38.1599450" lon="-3.7880380">
        <ele>439.2</ele>
        <time>2018-04-28T06:50:49Z</time>
      </trkpt>
      <trkpt lat="38.1599200" lon="-3.7880550">
        <ele>439.2</ele>
        <time>2018-04-28T06:50:50Z</time>
      </trkpt>
      <trkpt lat="38.1599000" lon="-3.7880690">
        <ele>439.2</ele>
        <time>2018-04-28T06:50:51Z</time>
      </trkpt>
      <trkpt lat="38.1598820" lon="-3.7880810">
        <ele>439.2</ele>
        <time>2018-04-28T06:50:52Z</time>
      </trkpt>
      <trkpt lat="38.1598590" lon="-3.7880930">
        <ele>439.2</ele>
        <time>2018-04-28T06:50:53Z</time>
      </trkpt>
      <trkpt lat="38.1598430" lon="-3.7881080">
        <ele>439.2</ele>
        <time>2018-04-28T06:50:54Z</time>
      </trkpt>
      <trkpt lat="38.1598160" lon="-3.7881210">
        <ele>439.2</ele>
        <time>2018-04-28T06:50:55Z</time>
      </trkpt>
      <trkpt lat="38.1597860" lon="-3.7881350">
        <ele>439.0</ele>
        <time>2018-04-28T06:50:56Z</time>
      </trkpt>
      <trkpt lat="38.1597550" lon="-3.7881550">
        <ele>439.0</ele>
        <time>2018-04-28T06:50:57Z</time>
      </trkpt>
      <trkpt lat="38.1597230" lon="-3.7881720">
        <ele>438.8</ele>
        <time>2018-04-28T06:50:58Z</time>
      </trkpt>
      <trkpt lat="38.1596900" lon="-3.7881910">
        <ele>438.6</ele>
        <time>2018-04-28T06:50:59Z</time>
      </trkpt>
      <trkpt lat="38.1596570" lon="-3.7882140">
        <ele>438.6</ele>
        <time>2018-04-28T06:51:00Z</time>
      </trkpt>
      <trkpt lat="38.1596290" lon="-3.7882410">
        <ele>438.4</ele>
        <time>2018-04-28T06:51:01Z</time>
      </trkpt>
      <trkpt lat="38.1595950" lon="-3.7882660">
        <ele>438.4</ele>
        <time>2018-04-28T06:51:02Z</time>
      </trkpt>
      <trkpt lat="38.1595630" lon="-3.7882850">
        <ele>438.2</ele>
        <time>2018-04-28T06:51:03Z</time>
      </trkpt>
      <trkpt lat="38.1595260" lon="-3.7883070">
        <ele>438.2</ele>
        <time>2018-04-28T06:51:04Z</time>
      </trkpt>
      <trkpt lat="38.1594920" lon="-3.7883330">
        <ele>438.0</ele>
        <time>2018-04-28T06:51:05Z</time>
      </trkpt>
      <trkpt lat="38.1594490" lon="-3.7883570">
        <ele>437.8</ele>
        <time>2018-04-28T06:51:06Z</time>
      </trkpt>
      <trkpt lat="38.1594070" lon="-3.7883820">
        <ele>437.6</ele>
        <time>2018-04-28T06:51:07Z</time>
      </trkpt>
      <trkpt lat="38.1593640" lon="-3.7884050">
        <ele>437.6</ele>
        <time>2018-04-28T06:51:08Z</time>
      </trkpt>
      <trkpt lat="38.1593250" lon="-3.7884280">
        <ele>437.6</ele>
        <time>2018-04-28T06:51:09Z</time>
      </trkpt>
      <trkpt lat="38.1592800" lon="-3.7884400">
        <ele>437.4</ele>
        <time>2018-04-28T06:51:10Z</time>
      </trkpt>
      <trkpt lat="38.1592340" lon="-3.7884430">
        <ele>437.2</ele>
        <time>2018-04-28T06:51:11Z</time>
      </trkpt>
      <trkpt lat="38.1591860" lon="-3.7884460">
        <ele>437.0</ele>
        <time>2018-04-28T06:51:12Z</time>
      </trkpt>
      <trkpt lat="38.1591360" lon="-3.7884410">
        <ele>436.8</ele>
        <time>2018-04-28T06:51:13Z</time>
      </trkpt>
      <trkpt lat="38.1590840" lon="-3.7884360">
        <ele>436.6</ele>
        <time>2018-04-28T06:51:14Z</time>
      </trkpt>
      <trkpt lat="38.1590270" lon="-3.7884370">
        <ele>436.2</ele>
        <time>2018-04-28T06:51:15Z</time>
      </trkpt>
      <trkpt lat="38.1589660" lon="-3.7884420">
        <ele>435.8</ele>
        <time>2018-04-28T06:51:16Z</time>
      </trkpt>
      <trkpt lat="38.1589030" lon="-3.7884560">
        <ele>435.4</ele>
        <time>2018-04-28T06:51:17Z</time>
      </trkpt>
      <trkpt lat="38.1588500" lon="-3.7884870">
        <ele>435.2</ele>
        <time>2018-04-28T06:51:18Z</time>
      </trkpt>
      <trkpt lat="38.1587950" lon="-3.7885250">
        <ele>434.8</ele>
        <time>2018-04-28T06:51:19Z</time>
      </trkpt>
      <trkpt lat="38.1587360" lon="-3.7885640">
        <ele>434.4</ele>
        <time>2018-04-28T06:51:20Z</time>
      </trkpt>
      <trkpt lat="38.1586720" lon="-3.7885970">
        <ele>433.8</ele>
        <time>2018-04-28T06:51:21Z</time>
      </trkpt>
      <trkpt lat="38.1585970" lon="-3.7886160">
        <ele>433.4</ele>
        <time>2018-04-28T06:51:22Z</time>
      </trkpt>
      <trkpt lat="38.1585180" lon="-3.7886340">
        <ele>432.8</ele>
        <time>2018-04-28T06:51:23Z</time>
      </trkpt>
      <trkpt lat="38.1584370" lon="-3.7886660">
        <ele>432.2</ele>
        <time>2018-04-28T06:51:24Z</time>
      </trkpt>
      <trkpt lat="38.1583630" lon="-3.7887180">
        <ele>431.6</ele>
        <time>2018-04-28T06:51:25Z</time>
      </trkpt>
      <trkpt lat="38.1582950" lon="-3.7887860">
        <ele>431.0</ele>
        <time>2018-04-28T06:51:26Z</time>
      </trkpt>
      <trkpt lat="38.1582310" lon="-3.7888640">
        <ele>430.4</ele>
        <time>2018-04-28T06:51:27Z</time>
      </trkpt>
      <trkpt lat="38.1581690" lon="-3.7889470">
        <ele>429.8</ele>
        <time>2018-04-28T06:51:28Z</time>
      </trkpt>
      <trkpt lat="38.1581080" lon="-3.7890340">
        <ele>429.2</ele>
        <time>2018-04-28T06:51:29Z</time>
      </trkpt>
      <trkpt lat="38.1580370" lon="-3.7891130">
        <ele>428.6</ele>
        <time>2018-04-28T06:51:30Z</time>
      </trkpt>
      <trkpt lat="38.1579540" lon="-3.7891730">
        <ele>428.0</ele>
        <time>2018-04-28T06:51:31Z</time>
      </trkpt>
      <trkpt lat="38.1578650" lon="-3.7892180">
        <ele>427.4</ele>
        <time>2018-04-28T06:51:32Z</time>
      </trkpt>
      <trkpt lat="38.1577690" lon="-3.7892530">
        <ele>426.6</ele>
        <time>2018-04-28T06:51:33Z</time>
      </trkpt>
      <trkpt lat="38.1576720" lon="-3.7892870">
        <ele>426.0</ele>
        <time>2018-04-28T06:51:34Z</time>
      </trkpt>
      <trkpt lat="38.1575740" lon="-3.7893230">
        <ele>425.4</ele>
        <time>2018-04-28T06:51:35Z</time>
      </trkpt>
      <trkpt lat="38.1574780" lon="-3.7893640">
        <ele>425.2</ele>
        <time>2018-04-28T06:51:36Z</time>
      </trkpt>
      <trkpt lat="38.1573880" lon="-3.7894190">
        <ele>425.0</ele>
        <time>2018-04-28T06:51:37Z</time>
      </trkpt>
      <trkpt lat="38.1573150" lon="-3.7894970">
        <ele>424.8</ele>
        <time>2018-04-28T06:51:38Z</time>
      </trkpt>
      <trkpt lat="38.1572610" lon="-3.7895940">
        <ele>424.6</ele>
        <time>2018-04-28T06:51:39Z</time>
      </trkpt>
      <trkpt lat="38.1572340" lon="-3.7897030">
        <ele>424.6</ele>
        <time>2018-04-28T06:51:40Z</time>
      </trkpt>
      <trkpt lat="38.1572310" lon="-3.7898130">
        <ele>424.8</ele>
        <time>2018-04-28T06:51:41Z</time>
      </trkpt>
      <trkpt lat="38.1572410" lon="-3.7899200">
        <ele>424.8</ele>
        <time>2018-04-28T06:51:42Z</time>
      </trkpt>
      <trkpt lat="38.1572530" lon="-3.7900240">
        <ele>425.0</ele>
        <time>2018-04-28T06:51:43Z</time>
      </trkpt>
      <trkpt lat="38.1572650" lon="-3.7901230">
        <ele>425.2</ele>
        <time>2018-04-28T06:51:44Z</time>
      </trkpt>
      <trkpt lat="38.1572770" lon="-3.7902200">
        <ele>425.2</ele>
        <time>2018-04-28T06:51:45Z</time>
      </trkpt>
      <trkpt lat="38.1572890" lon="-3.7903130">
        <ele>425.4</ele>
        <time>2018-04-28T06:51:46Z</time>
      </trkpt>
      <trkpt lat="38.1573000" lon="-3.7904030">
        <ele>425.4</ele>
        <time>2018-04-28T06:51:47Z</time>
      </trkpt>
      <trkpt lat="38.1573120" lon="-3.7904920">
        <ele>425.6</ele>
        <time>2018-04-28T06:51:48Z</time>
      </trkpt>
      <trkpt lat="38.1573240" lon="-3.7905790">
        <ele>425.8</ele>
        <time>2018-04-28T06:51:49Z</time>
      </trkpt>
      <trkpt lat="38.1573380" lon="-3.7906630">
        <ele>425.8</ele>
        <time>2018-04-28T06:51:50Z</time>
      </trkpt>
      <trkpt lat="38.1573510" lon="-3.7907460">
        <ele>426.0</ele>
        <time>2018-04-28T06:51:51Z</time>
      </trkpt>
      <trkpt lat="38.1573630" lon="-3.7908290">
        <ele>426.0</ele>
        <time>2018-04-28T06:51:52Z</time>
      </trkpt>
      <trkpt lat="38.1573750" lon="-3.7909120">
        <ele>426.0</ele>
        <time>2018-04-28T06:51:53Z</time>
      </trkpt>
      <trkpt lat="38.1573870" lon="-3.7909940">
        <ele>426.2</ele>
        <time>2018-04-28T06:51:54Z</time>
      </trkpt>
      <trkpt lat="38.1574000" lon="-3.7910760">
        <ele>426.4</ele>
        <time>2018-04-28T06:51:55Z</time>
      </trkpt>
      <trkpt lat="38.1574100" lon="-3.7911570">
        <ele>426.4</ele>
        <time>2018-04-28T06:51:56Z</time>
      </trkpt>
      <trkpt lat="38.1574210" lon="-3.7912360">
        <ele>426.6</ele>
        <time>2018-04-28T06:51:57Z</time>
      </trkpt>
      <trkpt lat="38.1574300" lon="-3.7913140">
        <ele>426.6</ele>
        <time>2018-04-28T06:51:58Z</time>
      </trkpt>
      <trkpt lat="38.1574410" lon="-3.7913910">
        <ele>426.8</ele>
        <time>2018-04-28T06:51:59Z</time>
      </trkpt>
      <trkpt lat="38.1574520" lon="-3.7914670">
        <ele>427.0</ele>
        <time>2018-04-28T06:52:00Z</time>
      </trkpt>
      <trkpt lat="38.1574610" lon="-3.7915430">
        <ele>427.0</ele>
        <time>2018-04-28T06:52:01Z</time>
      </trkpt>
      <trkpt lat="38.1574690" lon="-3.7916180">
        <ele>427.2</ele>
        <time>2018-04-28T06:52:02Z</time>
      </trkpt>
      <trkpt lat="38.1574700" lon="-3.7916930">
        <ele>427.2</ele>
        <time>2018-04-28T06:52:03Z</time>
      </trkpt>
      <trkpt lat="38.1574650" lon="-3.7917680">
        <ele>427.4</ele>
        <time>2018-04-28T06:52:04Z</time>
      </trkpt>
      <trkpt lat="38.1574540" lon="-3.7918410">
        <ele>427.4</ele>
        <time>2018-04-28T06:52:05Z</time>
      </trkpt>
      <trkpt lat="38.1574400" lon="-3.7919140">
        <ele>427.2</ele>
        <time>2018-04-28T06:52:06Z</time>
      </trkpt>
      <trkpt lat="38.1574220" lon="-3.7919860">
        <ele>427.2</ele>
        <time>2018-04-28T06:52:07Z</time>
      </trkpt>
      <trkpt lat="38.1574020" lon="-3.7920590">
        <ele>427.0</ele>
        <time>2018-04-28T06:52:08Z</time>
      </trkpt>
      <trkpt lat="38.1573870" lon="-3.7921350">
        <ele>426.6</ele>
        <time>2018-04-28T06:52:09Z</time>
      </trkpt>
      <trkpt lat="38.1573770" lon="-3.7922160">
        <ele>426.4</ele>
        <time>2018-04-28T06:52:10Z</time>
      </trkpt>
      <trkpt lat="38.1573760" lon="-3.7923010">
        <ele>426.4</ele>
        <time>2018-04-28T06:52:11Z</time>
      </trkpt>
      <trkpt lat="38.1573800" lon="-3.7923880">
        <ele>426.2</ele>
        <time>2018-04-28T06:52:12Z</time>
      </trkpt>
      <trkpt lat="38.1573910" lon="-3.7924730">
        <ele>426.2</ele>
        <time>2018-04-28T06:52:13Z</time>
      </trkpt>
      <trkpt lat="38.1574030" lon="-3.7925570">
        <ele>426.0</ele>
        <time>2018-04-28T06:52:14Z</time>
      </trkpt>
      <trkpt lat="38.1574110" lon="-3.7926400">
        <ele>425.8</ele>
        <time>2018-04-28T06:52:15Z</time>
      </trkpt>
      <trkpt lat="38.1574120" lon="-3.7927250">
        <ele>425.6</ele>
        <time>2018-04-28T06:52:16Z</time>
      </trkpt>
      <trkpt lat="38.1574040" lon="-3.7928100">
        <ele>425.6</ele>
        <time>2018-04-28T06:52:17Z</time>
      </trkpt>
      <trkpt lat="38.1573880" lon="-3.7928940">
        <ele>425.2</ele>
        <time>2018-04-28T06:52:18Z</time>
      </trkpt>
      <trkpt lat="38.1573650" lon="-3.7929780">
        <ele>424.8</ele>
        <time>2018-04-28T06:52:19Z</time>
      </trkpt>
      <trkpt lat="38.1573370" lon="-3.7930620">
        <ele>424.8</ele>
        <time>2018-04-28T06:52:20Z</time>
      </trkpt>
      <trkpt lat="38.1573080" lon="-3.7931480">
        <ele>424.4</ele>
        <time>2018-04-28T06:52:21Z</time>
      </trkpt>
      <trkpt lat="38.1572800" lon="-3.7932380">
        <ele>424.0</ele>
        <time>2018-04-28T06:52:22Z</time>
      </trkpt>
      <trkpt lat="38.1572490" lon="-3.7933300">
        <ele>423.8</ele>
        <time>2018-04-28T06:52:23Z</time>
      </trkpt>
      <trkpt lat="38.1572120" lon="-3.7934210">
        <ele>423.4</ele>
        <time>2018-04-28T06:52:24Z</time>
      </trkpt>
      <trkpt lat="38.1571690" lon="-3.7935090">
        <ele>422.8</ele>
        <time>2018-04-28T06:52:25Z</time>
      </trkpt>
      <trkpt lat="38.1571200" lon="-3.7935930">
        <ele>422.4</ele>
        <time>2018-04-28T06:52:26Z</time>
      </trkpt>
      <trkpt lat="38.1570640" lon="-3.7936770">
        <ele>421.8</ele>
        <time>2018-04-28T06:52:27Z</time>
      </trkpt>
      <trkpt lat="38.1570040" lon="-3.7937600">
        <ele>421.2</ele>
        <time>2018-04-28T06:52:28Z</time>
      </trkpt>
      <trkpt lat="38.1569460" lon="-3.7938490">
        <ele>420.6</ele>
        <time>2018-04-28T06:52:29Z</time>
      </trkpt>
      <trkpt lat="38.1568930" lon="-3.7939480">
        <ele>420.0</ele>
        <time>2018-04-28T06:52:30Z</time>
      </trkpt>
      <trkpt lat="38.1568490" lon="-3.7940570">
        <ele>419.4</ele>
        <time>2018-04-28T06:52:31Z</time>
      </trkpt>
      <trkpt lat="38.1568150" lon="-3.7941740">
        <ele>418.8</ele>
        <time>2018-04-28T06:52:32Z</time>
      </trkpt>
      <trkpt lat="38.1567900" lon="-3.7942950">
        <ele>418.0</ele>
        <time>2018-04-28T06:52:33Z</time>
      </trkpt>
      <trkpt lat="38.1567690" lon="-3.7944210">
        <ele>417.4</ele>
        <time>2018-04-28T06:52:34Z</time>
      </trkpt>
      <trkpt lat="38.1567490" lon="-3.7945500">
        <ele>416.6</ele>
        <time>2018-04-28T06:52:35Z</time>
      </trkpt>
      <trkpt lat="38.1567310" lon="-3.7946810">
        <ele>416.0</ele>
        <time>2018-04-28T06:52:36Z</time>
      </trkpt>
      <trkpt lat="38.1567130" lon="-3.7948140">
        <ele>415.2</ele>
        <time>2018-04-28T06:52:37Z</time>
      </trkpt>
      <trkpt lat="38.1566960" lon="-3.7949490">
        <ele>414.6</ele>
        <time>2018-04-28T06:52:38Z</time>
      </trkpt>
      <trkpt lat="38.1566780" lon="-3.7950860">
        <ele>414.0</ele>
        <time>2018-04-28T06:52:39Z</time>
      </trkpt>
      <trkpt lat="38.1566590" lon="-3.7952220">
        <ele>413.6</ele>
        <time>2018-04-28T06:52:40Z</time>
      </trkpt>
      <trkpt lat="38.1566400" lon="-3.7953560">
        <ele>413.6</ele>
        <time>2018-04-28T06:52:41Z</time>
      </trkpt>
      <trkpt lat="38.1566220" lon="-3.7954850">
        <ele>413.6</ele>
        <time>2018-04-28T06:52:42Z</time>
      </trkpt>
      <trkpt lat="38.1566050" lon="-3.7956100">
        <ele>413.8</ele>
        <time>2018-04-28T06:52:43Z</time>
      </trkpt>
      <trkpt lat="38.1565900" lon="-3.7957300">
        <ele>414.4</ele>
        <time>2018-04-28T06:52:44Z</time>
      </trkpt>
      <trkpt lat="38.1565770" lon="-3.7958420">
        <ele>415.0</ele>
        <time>2018-04-28T06:52:45Z</time>
      </trkpt>
      <trkpt lat="38.1565640" lon="-3.7959450">
        <ele>415.8</ele>
        <time>2018-04-28T06:52:46Z</time>
      </trkpt>
      <trkpt lat="38.1565530" lon="-3.7960390">
        <ele>416.4</ele>
        <time>2018-04-28T06:52:47Z</time>
      </trkpt>
      <trkpt lat="38.1565420" lon="-3.7961260">
        <ele>416.8</ele>
        <time>2018-04-28T06:52:48Z</time>
      </trkpt>
      <trkpt lat="38.1565360" lon="-3.7962070">
        <ele>417.4</ele>
        <time>2018-04-28T06:52:49Z</time>
      </trkpt>
      <trkpt lat="38.1565340" lon="-3.7962850">
        <ele>417.6</ele>
        <time>2018-04-28T06:52:50Z</time>
      </trkpt>
      <trkpt lat="38.1565360" lon="-3.7963600">
        <ele>418.0</ele>
        <time>2018-04-28T06:52:51Z</time>
      </trkpt>
      <trkpt lat="38.1565450" lon="-3.7964310">
        <ele>418.2</ele>
        <time>2018-04-28T06:52:52Z</time>
      </trkpt>
      <trkpt lat="38.1565590" lon="-3.7965000">
        <ele>418.4</ele>
        <time>2018-04-28T06:52:53Z</time>
      </trkpt>
      <trkpt lat="38.1565750" lon="-3.7965670">
        <ele>418.4</ele>
        <time>2018-04-28T06:52:54Z</time>
      </trkpt>
      <trkpt lat="38.1565940" lon="-3.7966310">
        <ele>418.4</ele>
        <time>2018-04-28T06:52:55Z</time>
      </trkpt>
      <trkpt lat="38.1566130" lon="-3.7966960">
        <ele>418.6</ele>
        <time>2018-04-28T06:52:56Z</time>
      </trkpt>
      <trkpt lat="38.1566350" lon="-3.7967590">
        <ele>418.4</ele>
        <time>2018-04-28T06:52:57Z</time>
      </trkpt>
      <trkpt lat="38.1566570" lon="-3.7968230">
        <ele>418.4</ele>
        <time>2018-04-28T06:52:58Z</time>
      </trkpt>
      <trkpt lat="38.1566790" lon="-3.7968880">
        <ele>418.2</ele>
        <time>2018-04-28T06:52:59Z</time>
      </trkpt>
      <trkpt lat="38.1567020" lon="-3.7969530">
        <ele>418.2</ele>
        <time>2018-04-28T06:53:00Z</time>
      </trkpt>
      <trkpt lat="38.1567260" lon="-3.7970170">
        <ele>418.0</ele>
        <time>2018-04-28T06:53:01Z</time>
      </trkpt>
      <trkpt lat="38.1567490" lon="-3.7970810">
        <ele>418.0</ele>
        <time>2018-04-28T06:53:02Z</time>
      </trkpt>
      <trkpt lat="38.1567740" lon="-3.7971510">
        <ele>417.8</ele>
        <time>2018-04-28T06:53:03Z</time>
      </trkpt>
      <trkpt lat="38.1567940" lon="-3.7972160">
        <ele>417.6</ele>
        <time>2018-04-28T06:53:04Z</time>
      </trkpt>
      <trkpt lat="38.1568200" lon="-3.7972760">
        <ele>417.4</ele>
        <time>2018-04-28T06:53:05Z</time>
      </trkpt>
      <trkpt lat="38.1568500" lon="-3.7973370">
        <ele>417.2</ele>
        <time>2018-04-28T06:53:06Z</time>
      </trkpt>
      <trkpt lat="38.1568790" lon="-3.7974020">
        <ele>417.2</ele>
        <time>2018-04-28T06:53:07Z</time>
      </trkpt>
      <trkpt lat="38.1569050" lon="-3.7974730">
        <ele>416.8</ele>
        <time>2018-04-28T06:53:08Z</time>
      </trkpt>
      <trkpt lat="38.1569320" lon="-3.7975460">
        <ele>416.6</ele>
        <time>2018-04-28T06:53:09Z</time>
      </trkpt>
      <trkpt lat="38.1569610" lon="-3.7976210">
        <ele>416.2</ele>
        <time>2018-04-28T06:53:10Z</time>
      </trkpt>
      <trkpt lat="38.1569910" lon="-3.7976990">
        <ele>415.8</ele>
        <time>2018-04-28T06:53:11Z</time>
      </trkpt>
      <trkpt lat="38.1570220" lon="-3.7977800">
        <ele>415.4</ele>
        <time>2018-04-28T06:53:12Z</time>
      </trkpt>
      <trkpt lat="38.1570540" lon="-3.7978610">
        <ele>415.4</ele>
        <time>2018-04-28T06:53:13Z</time>
      </trkpt>
      <trkpt lat="38.1570870" lon="-3.7979460">
        <ele>414.8</ele>
        <time>2018-04-28T06:53:14Z</time>
      </trkpt>
      <trkpt lat="38.1571200" lon="-3.7980320">
        <ele>413.8</ele>
        <time>2018-04-28T06:53:15Z</time>
      </trkpt>
      <trkpt lat="38.1571530" lon="-3.7981210">
        <ele>413.6</ele>
        <time>2018-04-28T06:53:16Z</time>
      </trkpt>
      <trkpt lat="38.1571860" lon="-3.7982130">
        <ele>413.2</ele>
        <time>2018-04-28T06:53:17Z</time>
      </trkpt>
      <trkpt lat="38.1572210" lon="-3.7983070">
        <ele>412.8</ele>
        <time>2018-04-28T06:53:18Z</time>
      </trkpt>
      <trkpt lat="38.1572570" lon="-3.7984020">
        <ele>412.6</ele>
        <time>2018-04-28T06:53:19Z</time>
      </trkpt>
      <trkpt lat="38.1572930" lon="-3.7984980">
        <ele>412.4</ele>
        <time>2018-04-28T06:53:20Z</time>
      </trkpt>
      <trkpt lat="38.1573310" lon="-3.7985910">
        <ele>412.2</ele>
        <time>2018-04-28T06:53:21Z</time>
      </trkpt>
      <trkpt lat="38.1573700" lon="-3.7986830">
        <ele>412.2</ele>
        <time>2018-04-28T06:53:22Z</time>
      </trkpt>
      <trkpt lat="38.1574120" lon="-3.7987700">
        <ele>412.2</ele>
        <time>2018-04-28T06:53:23Z</time>
      </trkpt>
      <trkpt lat="38.1574570" lon="-3.7988520">
        <ele>412.0</ele>
        <time>2018-04-28T06:53:24Z</time>
      </trkpt>
      <trkpt lat="38.1575090" lon="-3.7989280">
        <ele>412.0</ele>
        <time>2018-04-28T06:53:25Z</time>
      </trkpt>
      <trkpt lat="38.1575670" lon="-3.7989930">
        <ele>412.0</ele>
        <time>2018-04-28T06:53:26Z</time>
      </trkpt>
      <trkpt lat="38.1576280" lon="-3.7990500">
        <ele>412.0</ele>
        <time>2018-04-28T06:53:27Z</time>
      </trkpt>
      <trkpt lat="38.1576900" lon="-3.7991010">
        <ele>412.2</ele>
        <time>2018-04-28T06:53:28Z</time>
      </trkpt>
      <trkpt lat="38.1577530" lon="-3.7991500">
        <ele>412.2</ele>
        <time>2018-04-28T06:53:29Z</time>
      </trkpt>
      <trkpt lat="38.1578150" lon="-3.7991990">
        <ele>412.2</ele>
        <time>2018-04-28T06:53:30Z</time>
      </trkpt>
      <trkpt lat="38.1578740" lon="-3.7992500">
        <ele>412.2</ele>
        <time>2018-04-28T06:53:31Z</time>
      </trkpt>
      <trkpt lat="38.1579310" lon="-3.7993020">
        <ele>412.0</ele>
        <time>2018-04-28T06:53:32Z</time>
      </trkpt>
      <trkpt lat="38.1579860" lon="-3.7993580">
        <ele>411.8</ele>
        <time>2018-04-28T06:53:33Z</time>
      </trkpt>
      <trkpt lat="38.1580380" lon="-3.7994190">
        <ele>411.4</ele>
        <time>2018-04-28T06:53:34Z</time>
      </trkpt>
      <trkpt lat="38.1580870" lon="-3.7994880">
        <ele>411.2</ele>
        <time>2018-04-28T06:53:35Z</time>
      </trkpt>
      <trkpt lat="38.1581290" lon="-3.7995670">
        <ele>411.0</ele>
        <time>2018-04-28T06:53:36Z</time>
      </trkpt>
      <trkpt lat="38.1581670" lon="-3.7996490">
        <ele>411.0</ele>
        <time>2018-04-28T06:53:37Z</time>
      </trkpt>
      <trkpt lat="38.1582010" lon="-3.7997340">
        <ele>411.0</ele>
        <time>2018-04-28T06:53:38Z</time>
      </trkpt>
      <trkpt lat="38.1582310" lon="-3.7998190">
        <ele>411.2</ele>
        <time>2018-04-28T06:53:39Z</time>
      </trkpt>
      <trkpt lat="38.1582590" lon="-3.7999010">
        <ele>411.4</ele>
        <time>2018-04-28T06:53:40Z</time>
      </trkpt>
      <trkpt lat="38.1582850" lon="-3.7999800">
        <ele>411.8</ele>
        <time>2018-04-28T06:53:41Z</time>
      </trkpt>
      <trkpt lat="38.1583110" lon="-3.8000550">
        <ele>412.2</ele>
        <time>2018-04-28T06:53:42Z</time>
      </trkpt>
      <trkpt lat="38.1583330" lon="-3.8001260">
        <ele>412.4</ele>
        <time>2018-04-28T06:53:43Z</time>
      </trkpt>
      <trkpt lat="38.1583550" lon="-3.8001920">
        <ele>412.8</ele>
        <time>2018-04-28T06:53:44Z</time>
      </trkpt>
      <trkpt lat="38.1583750" lon="-3.8002530">
        <ele>413.0</ele>
        <time>2018-04-28T06:53:45Z</time>
      </trkpt>
      <trkpt lat="38.1583950" lon="-3.8003110">
        <ele>413.2</ele>
        <time>2018-04-28T06:53:46Z</time>
      </trkpt>
      <trkpt lat="38.1584150" lon="-3.8003660">
        <ele>413.2</ele>
        <time>2018-04-28T06:53:47Z</time>
      </trkpt>
      <trkpt lat="38.1584350" lon="-3.8004210">
        <ele>413.4</ele>
        <time>2018-04-28T06:53:48Z</time>
      </trkpt>
      <trkpt lat="38.1584540" lon="-3.8004760">
        <ele>413.4</ele>
        <time>2018-04-28T06:53:49Z</time>
      </trkpt>
      <trkpt lat="38.1584730" lon="-3.8005310">
        <ele>413.4</ele>
        <time>2018-04-28T06:53:50Z</time>
      </trkpt>
      <trkpt lat="38.1584920" lon="-3.8005820">
        <ele>413.4</ele>
        <time>2018-04-28T06:53:51Z</time>
      </trkpt>
      <trkpt lat="38.1585070" lon="-3.8006330">
        <ele>413.6</ele>
        <time>2018-04-28T06:53:52Z</time>
      </trkpt>
      <trkpt lat="38.1585180" lon="-3.8006830">
        <ele>413.6</ele>
        <time>2018-04-28T06:53:53Z</time>
      </trkpt>
      <trkpt lat="38.1585320" lon="-3.8007290">
        <ele>413.6</ele>
        <time>2018-04-28T06:53:54Z</time>
      </trkpt>
      <trkpt lat="38.1585420" lon="-3.8007750">
        <ele>413.6</ele>
        <time>2018-04-28T06:53:55Z</time>
      </trkpt>
      <trkpt lat="38.1585520" lon="-3.8008200">
        <ele>413.6</ele>
        <time>2018-04-28T06:53:56Z</time>
      </trkpt>
      <trkpt lat="38.1585600" lon="-3.8008610">
        <ele>413.6</ele>
        <time>2018-04-28T06:53:57Z</time>
      </trkpt>
      <trkpt lat="38.1585670" lon="-3.8009020">
        <ele>413.6</ele>
        <time>2018-04-28T06:53:58Z</time>
      </trkpt>
      <trkpt lat="38.1585730" lon="-3.8009430">
        <ele>413.6</ele>
        <time>2018-04-28T06:53:59Z</time>
      </trkpt>
      <trkpt lat="38.1585780" lon="-3.8009830">
        <ele>413.4</ele>
        <time>2018-04-28T06:54:00Z</time>
      </trkpt>
      <trkpt lat="38.1585820" lon="-3.8010220">
        <ele>413.4</ele>
        <time>2018-04-28T06:54:01Z</time>
      </trkpt>
      <trkpt lat="38.1585840" lon="-3.8010610">
        <ele>413.4</ele>
        <time>2018-04-28T06:54:02Z</time>
      </trkpt>
      <trkpt lat="38.1585840" lon="-3.8011020">
        <ele>413.4</ele>
        <time>2018-04-28T06:54:03Z</time>
      </trkpt>
      <trkpt lat="38.1585830" lon="-3.8011430">
        <ele>413.4</ele>
        <time>2018-04-28T06:54:04Z</time>
      </trkpt>
      <trkpt lat="38.1585780" lon="-3.8011860">
        <ele>413.2</ele>
        <time>2018-04-28T06:54:05Z</time>
      </trkpt>
      <trkpt lat="38.1585650" lon="-3.8012310">
        <ele>413.0</ele>
        <time>2018-04-28T06:54:06Z</time>
      </trkpt>
      <trkpt lat="38.1585470" lon="-3.8012760">
        <ele>412.8</ele>
        <time>2018-04-28T06:54:07Z</time>
      </trkpt>
      <trkpt lat="38.1585180" lon="-3.8013180">
        <ele>412.4</ele>
        <time>2018-04-28T06:54:08Z</time>
      </trkpt>
      <trkpt lat="38.1584830" lon="-3.8013550">
        <ele>412.2</ele>
        <time>2018-04-28T06:54:09Z</time>
      </trkpt>
      <trkpt lat="38.1584420" lon="-3.8013870">
        <ele>412.0</ele>
        <time>2018-04-28T06:54:10Z</time>
      </trkpt>
      <trkpt lat="38.1583990" lon="-3.8014170">
        <ele>411.8</ele>
        <time>2018-04-28T06:54:11Z</time>
      </trkpt>
      <trkpt lat="38.1583540" lon="-3.8014440">
        <ele>411.6</ele>
        <time>2018-04-28T06:54:12Z</time>
      </trkpt>
      <trkpt lat="38.1583060" lon="-3.8014750">
        <ele>411.2</ele>
        <time>2018-04-28T06:54:13Z</time>
      </trkpt>
      <trkpt lat="38.1582560" lon="-3.8015050">
        <ele>411.0</ele>
        <time>2018-04-28T06:54:14Z</time>
      </trkpt>
      <trkpt lat="38.1582010" lon="-3.8015320">
        <ele>410.8</ele>
        <time>2018-04-28T06:54:15Z</time>
      </trkpt>
      <trkpt lat="38.1581510" lon="-3.8015570">
        <ele>410.6</ele>
        <time>2018-04-28T06:54:16Z</time>
      </trkpt>
      <trkpt lat="38.1581000" lon="-3.8015920">
        <ele>410.6</ele>
        <time>2018-04-28T06:54:17Z</time>
      </trkpt>
      <trkpt lat="38.1580540" lon="-3.8016230">
        <ele>410.4</ele>
        <time>2018-04-28T06:54:18Z</time>
      </trkpt>
      <trkpt lat="38.1580070" lon="-3.8016620">
        <ele>410.4</ele>
        <time>2018-04-28T06:54:19Z</time>
      </trkpt>
      <trkpt lat="38.1579610" lon="-3.8017060">
        <ele>410.2</ele>
        <time>2018-04-28T06:54:20Z</time>
      </trkpt>
      <trkpt lat="38.1579180" lon="-3.8017520">
        <ele>410.0</ele>
        <time>2018-04-28T06:54:21Z</time>
      </trkpt>
      <trkpt lat="38.1578780" lon="-3.8017970">
        <ele>409.8</ele>
        <time>2018-04-28T06:54:22Z</time>
      </trkpt>
      <trkpt lat="38.1578390" lon="-3.8018380">
        <ele>409.6</ele>
        <time>2018-04-28T06:54:23Z</time>
      </trkpt>
      <trkpt lat="38.1578000" lon="-3.8018760">
        <ele>409.2</ele>
        <time>2018-04-28T06:54:24Z</time>
      </trkpt>
      <trkpt lat="38.1577550" lon="-3.8019120">
        <ele>409.0</ele>
        <time>2018-04-28T06:54:25Z</time>
      </trkpt>
      <trkpt lat="38.1577050" lon="-3.8019440">
        <ele>408.4</ele>
        <time>2018-04-28T06:54:26Z</time>
      </trkpt>
      <trkpt lat="38.1576500" lon="-3.8019710">
        <ele>408.0</ele>
        <time>2018-04-28T06:54:27Z</time>
      </trkpt>
      <trkpt lat="38.1575920" lon="-3.8019890">
        <ele>407.8</ele>
        <time>2018-04-28T06:54:28Z</time>
      </trkpt>
      <trkpt lat="38.1575320" lon="-3.8019990">
        <ele>407.4</ele>
        <time>2018-04-28T06:54:29Z</time>
      </trkpt>
      <trkpt lat="38.1574740" lon="-3.8020010">
        <ele>407.2</ele>
        <time>2018-04-28T06:54:30Z</time>
      </trkpt>
      <trkpt lat="38.1574180" lon="-3.8019950">
        <ele>406.8</ele>
        <time>2018-04-28T06:54:31Z</time>
      </trkpt>
      <trkpt lat="38.1573590" lon="-3.8019890">
        <ele>406.6</ele>
        <time>2018-04-28T06:54:32Z</time>
      </trkpt>
      <trkpt lat="38.1573000" lon="-3.8019880">
        <ele>406.2</ele>
        <time>2018-04-28T06:54:33Z</time>
      </trkpt>
      <trkpt lat="38.1572380" lon="-3.8019930">
        <ele>405.6</ele>
        <time>2018-04-28T06:54:34Z</time>
      </trkpt>
      <trkpt lat="38.1571740" lon="-3.8020090">
        <ele>405.2</ele>
        <time>2018-04-28T06:54:35Z</time>
      </trkpt>
      <trkpt lat="38.1571090" lon="-3.8020340">
        <ele>404.8</ele>
        <time>2018-04-28T06:54:36Z</time>
      </trkpt>
      <trkpt lat="38.1570390" lon="-3.8020620">
        <ele>404.2</ele>
        <time>2018-04-28T06:54:37Z</time>
      </trkpt>
      <trkpt lat="38.1569670" lon="-3.8020850">
        <ele>403.6</ele>
        <time>2018-04-28T06:54:38Z</time>
      </trkpt>
      <trkpt lat="38.1568900" lon="-3.8020980">
        <ele>403.4</ele>
        <time>2018-04-28T06:54:39Z</time>
      </trkpt>
      <trkpt lat="38.1568080" lon="-3.8021080">
        <ele>402.6</ele>
        <time>2018-04-28T06:54:40Z</time>
      </trkpt>
      <trkpt lat="38.1567290" lon="-3.8021390">
        <ele>402.0</ele>
        <time>2018-04-28T06:54:41Z</time>
      </trkpt>
      <trkpt lat="38.1566510" lon="-3.8021910">
        <ele>401.2</ele>
        <time>2018-04-28T06:54:42Z</time>
      </trkpt>
      <trkpt lat="38.1565840" lon="-3.8022670">
        <ele>400.2</ele>
        <time>2018-04-28T06:54:43Z</time>
      </trkpt>
      <trkpt lat="38.1565200" lon="-3.8023540">
        <ele>399.6</ele>
        <time>2018-04-28T06:54:44Z</time>
      </trkpt>
      <trkpt lat="38.1564570" lon="-3.8024480">
        <ele>398.8</ele>
        <time>2018-04-28T06:54:45Z</time>
      </trkpt>
      <trkpt lat="38.1564010" lon="-3.8025530">
        <ele>398.4</ele>
        <time>2018-04-28T06:54:46Z</time>
      </trkpt>
      <trkpt lat="38.1563560" lon="-3.8026670">
        <ele>397.8</ele>
        <time>2018-04-28T06:54:47Z</time>
      </trkpt>
      <trkpt lat="38.1563190" lon="-3.8027910">
        <ele>396.8</ele>
        <time>2018-04-28T06:54:48Z</time>
      </trkpt>
      <trkpt lat="38.1562720" lon="-3.8029130">
        <ele>395.8</ele>
        <time>2018-04-28T06:54:49Z</time>
      </trkpt>
      <trkpt lat="38.1562080" lon="-3.8030280">
        <ele>394.8</ele>
        <time>2018-04-28T06:54:50Z</time>
      </trkpt>
      <trkpt lat="38.1561330" lon="-3.8031300">
        <ele>394.2</ele>
        <time>2018-04-28T06:54:51Z</time>
      </trkpt>
      <trkpt lat="38.1560590" lon="-3.8032260">
        <ele>393.0</ele>
        <time>2018-04-28T06:54:52Z</time>
      </trkpt>
      <trkpt lat="38.1560040" lon="-3.8033370">
        <ele>392.4</ele>
        <time>2018-04-28T06:54:53Z</time>
      </trkpt>
      <trkpt lat="38.1559600" lon="-3.8034500">
        <ele>391.6</ele>
        <time>2018-04-28T06:54:54Z</time>
      </trkpt>
      <trkpt lat="38.1559200" lon="-3.8035720">
        <ele>390.8</ele>
        <time>2018-04-28T06:54:55Z</time>
      </trkpt>
      <trkpt lat="38.1558640" lon="-3.8036870">
        <ele>389.6</ele>
        <time>2018-04-28T06:54:56Z</time>
      </trkpt>
      <trkpt lat="38.1557820" lon="-3.8037810">
        <ele>389.0</ele>
        <time>2018-04-28T06:54:57Z</time>
      </trkpt>
      <trkpt lat="38.1556850" lon="-3.8038470">
        <ele>388.2</ele>
        <time>2018-04-28T06:54:58Z</time>
      </trkpt>
      <trkpt lat="38.1555910" lon="-3.8038960">
        <ele>387.0</ele>
        <time>2018-04-28T06:54:59Z</time>
      </trkpt>
      <trkpt lat="38.1555070" lon="-3.8039550">
        <ele>386.2</ele>
        <time>2018-04-28T06:55:00Z</time>
      </trkpt>
      <trkpt lat="38.1554470" lon="-3.8040260">
        <ele>385.4</ele>
        <time>2018-04-28T06:55:01Z</time>
      </trkpt>
      <trkpt lat="38.1554090" lon="-3.8041010">
        <ele>384.8</ele>
        <time>2018-04-28T06:55:02Z</time>
      </trkpt>
      <trkpt lat="38.1554000" lon="-3.8041800">
        <ele>384.4</ele>
        <time>2018-04-28T06:55:03Z</time>
      </trkpt>
      <trkpt lat="38.1554160" lon="-3.8042610">
        <ele>383.8</ele>
        <time>2018-04-28T06:55:04Z</time>
      </trkpt>
      <trkpt lat="38.1554460" lon="-3.8043410">
        <ele>383.4</ele>
        <time>2018-04-28T06:55:05Z</time>
      </trkpt>
      <trkpt lat="38.1554840" lon="-3.8044210">
        <ele>382.8</ele>
        <time>2018-04-28T06:55:06Z</time>
      </trkpt>
      <trkpt lat="38.1555250" lon="-3.8045060">
        <ele>382.2</ele>
        <time>2018-04-28T06:55:07Z</time>
      </trkpt>
      <trkpt lat="38.1555670" lon="-3.8046090">
        <ele>382.0</ele>
        <time>2018-04-28T06:55:08Z</time>
      </trkpt>
      <trkpt lat="38.1556160" lon="-3.8047020">
        <ele>381.6</ele>
        <time>2018-04-28T06:55:09Z</time>
      </trkpt>
      <trkpt lat="38.1556730" lon="-3.8047810">
        <ele>381.0</ele>
        <time>2018-04-28T06:55:10Z</time>
      </trkpt>
      <trkpt lat="38.1557420" lon="-3.8048510">
        <ele>380.6</ele>
        <time>2018-04-28T06:55:11Z</time>
      </trkpt>
      <trkpt lat="38.1558170" lon="-3.8049120">
        <ele>380.0</ele>
        <time>2018-04-28T06:55:12Z</time>
      </trkpt>
      <trkpt lat="38.1558950" lon="-3.8049580">
        <ele>379.6</ele>
        <time>2018-04-28T06:55:13Z</time>
      </trkpt>
      <trkpt lat="38.1559740" lon="-3.8050100">
        <ele>379.2</ele>
        <time>2018-04-28T06:55:14Z</time>
      </trkpt>
      <trkpt lat="38.1560490" lon="-3.8050730">
        <ele>378.8</ele>
        <time>2018-04-28T06:55:15Z</time>
      </trkpt>
      <trkpt lat="38.1561210" lon="-3.8051450">
        <ele>378.4</ele>
        <time>2018-04-28T06:55:16Z</time>
      </trkpt>
      <trkpt lat="38.1561870" lon="-3.8052210">
        <ele>377.8</ele>
        <time>2018-04-28T06:55:17Z</time>
      </trkpt>
      <trkpt lat="38.1562550" lon="-3.8052990">
        <ele>377.4</ele>
        <time>2018-04-28T06:55:18Z</time>
      </trkpt>
      <trkpt lat="38.1563240" lon="-3.8053800">
        <ele>376.8</ele>
        <time>2018-04-28T06:55:19Z</time>
      </trkpt>
      <trkpt lat="38.1563900" lon="-3.8054640">
        <ele>376.8</ele>
        <time>2018-04-28T06:55:20Z</time>
      </trkpt>
      <trkpt lat="38.1564520" lon="-3.8055540">
        <ele>375.8</ele>
        <time>2018-04-28T06:55:21Z</time>
      </trkpt>
      <trkpt lat="38.1565140" lon="-3.8056460">
        <ele>375.8</ele>
        <time>2018-04-28T06:55:22Z</time>
      </trkpt>
      <trkpt lat="38.1565750" lon="-3.8057400">
        <ele>375.4</ele>
        <time>2018-04-28T06:55:23Z</time>
      </trkpt>
      <trkpt lat="38.1566380" lon="-3.8058330">
        <ele>374.6</ele>
        <time>2018-04-28T06:55:24Z</time>
      </trkpt>
      <trkpt lat="38.1567050" lon="-3.8059210">
        <ele>374.2</ele>
        <time>2018-04-28T06:55:25Z</time>
      </trkpt>
      <trkpt lat="38.1567810" lon="-3.8060020">
        <ele>373.6</ele>
        <time>2018-04-28T06:55:26Z</time>
      </trkpt>
      <trkpt lat="38.1568610" lon="-3.8060790">
        <ele>373.2</ele>
        <time>2018-04-28T06:55:27Z</time>
      </trkpt>
      <trkpt lat="38.1569430" lon="-3.8061580">
        <ele>372.6</ele>
        <time>2018-04-28T06:55:28Z</time>
      </trkpt>
      <trkpt lat="38.1570250" lon="-3.8062380">
        <ele>372.0</ele>
        <time>2018-04-28T06:55:29Z</time>
      </trkpt>
      <trkpt lat="38.1571070" lon="-3.8063140">
        <ele>371.2</ele>
        <time>2018-04-28T06:55:30Z</time>
      </trkpt>
      <trkpt lat="38.1571840" lon="-3.8064030">
        <ele>370.6</ele>
        <time>2018-04-28T06:55:31Z</time>
      </trkpt>
      <trkpt lat="38.1572540" lon="-3.8065030">
        <ele>370.2</ele>
        <time>2018-04-28T06:55:32Z</time>
      </trkpt>
      <trkpt lat="38.1573200" lon="-3.8066100">
        <ele>369.4</ele>
        <time>2018-04-28T06:55:33Z</time>
      </trkpt>
      <trkpt lat="38.1573840" lon="-3.8067220">
        <ele>368.8</ele>
        <time>2018-04-28T06:55:34Z</time>
      </trkpt>
      <trkpt lat="38.1574460" lon="-3.8068350">
        <ele>368.0</ele>
        <time>2018-04-28T06:55:35Z</time>
      </trkpt>
      <trkpt lat="38.1575010" lon="-3.8069650">
        <ele>367.0</ele>
        <time>2018-04-28T06:55:36Z</time>
      </trkpt>
      <trkpt lat="38.1575590" lon="-3.8070910">
        <ele>366.4</ele>
        <time>2018-04-28T06:55:37Z</time>
      </trkpt>
      <trkpt lat="38.1576140" lon="-3.8072150">
        <ele>365.4</ele>
        <time>2018-04-28T06:55:38Z</time>
      </trkpt>
      <trkpt lat="38.1576630" lon="-3.8073250">
        <ele>364.2</ele>
        <time>2018-04-28T06:55:39Z</time>
      </trkpt>
      <trkpt lat="38.1577060" lon="-3.8074280">
        <ele>363.4</ele>
        <time>2018-04-28T06:55:40Z</time>
      </trkpt>
      <trkpt lat="38.1577490" lon="-3.8075150">
        <ele>362.6</ele>
        <time>2018-04-28T06:55:41Z</time>
      </trkpt>
      <trkpt lat="38.1578020" lon="-3.8075880">
        <ele>361.8</ele>
        <time>2018-04-28T06:55:42Z</time>
      </trkpt>
      <trkpt lat="38.1578600" lon="-3.8076350">
        <ele>361.2</ele>
        <time>2018-04-28T06:55:43Z</time>
      </trkpt>
      <trkpt lat="38.1579270" lon="-3.8076520">
        <ele>360.4</ele>
        <time>2018-04-28T06:55:44Z</time>
      </trkpt>
      <trkpt lat="38.1579920" lon="-3.8076380">
        <ele>360.0</ele>
        <time>2018-04-28T06:55:45Z</time>
      </trkpt>
      <trkpt lat="38.1580430" lon="-3.8075800">
        <ele>359.4</ele>
        <time>2018-04-28T06:55:46Z</time>
      </trkpt>
      <trkpt lat="38.1580810" lon="-3.8075010">
        <ele>358.8</ele>
        <time>2018-04-28T06:55:47Z</time>
      </trkpt>
      <trkpt lat="38.1581090" lon="-3.8074130">
        <ele>358.4</ele>
        <time>2018-04-28T06:55:48Z</time>
      </trkpt>
      <trkpt lat="38.1581350" lon="-3.8073170">
        <ele>357.8</ele>
        <time>2018-04-28T06:55:49Z</time>
      </trkpt>
      <trkpt lat="38.1581610" lon="-3.8072150">
        <ele>357.0</ele>
        <time>2018-04-28T06:55:50Z</time>
      </trkpt>
      <trkpt lat="38.1581860" lon="-3.8071110">
        <ele>356.4</ele>
        <time>2018-04-28T06:55:51Z</time>
      </trkpt>
      <trkpt lat="38.1582260" lon="-3.8070090">
        <ele>355.6</ele>
        <time>2018-04-28T06:55:52Z</time>
      </trkpt>
      <trkpt lat="38.1582730" lon="-3.8069040">
        <ele>354.8</ele>
        <time>2018-04-28T06:55:53Z</time>
      </trkpt>
      <trkpt lat="38.1583210" lon="-3.8067930">
        <ele>354.2</ele>
        <time>2018-04-28T06:55:54Z</time>
      </trkpt>
      <trkpt lat="38.1583960" lon="-3.8066230">
        <ele>353.4</ele>
        <time>2018-04-28T06:55:55Z</time>
      </trkpt>
      <trkpt lat="38.1584220" lon="-3.8065640">
        <ele>352.6</ele>
        <time>2018-04-28T06:55:56Z</time>
      </trkpt>
      <trkpt lat="38.1584740" lon="-3.8064470">
        <ele>351.8</ele>
        <time>2018-04-28T06:55:57Z</time>
      </trkpt>
      <trkpt lat="38.1585390" lon="-3.8063330">
        <ele>350.8</ele>
        <time>2018-04-28T06:55:58Z</time>
      </trkpt>
      <trkpt lat="38.1586040" lon="-3.8062210">
        <ele>349.8</ele>
        <time>2018-04-28T06:55:59Z</time>
      </trkpt>
      <trkpt lat="38.1586650" lon="-3.8060970">
        <ele>348.6</ele>
        <time>2018-04-28T06:56:00Z</time>
      </trkpt>
      <trkpt lat="38.1587190" lon="-3.8059710">
        <ele>347.6</ele>
        <time>2018-04-28T06:56:01Z</time>
      </trkpt>
      <trkpt lat="38.1587680" lon="-3.8058370">
        <ele>346.4</ele>
        <time>2018-04-28T06:56:02Z</time>
      </trkpt>
      <trkpt lat="38.1588310" lon="-3.8057100">
        <ele>345.2</ele>
        <time>2018-04-28T06:56:03Z</time>
      </trkpt>
      <trkpt lat="38.1589110" lon="-3.8055990">
        <ele>344.0</ele>
        <time>2018-04-28T06:56:04Z</time>
      </trkpt>
      <trkpt lat="38.1590090" lon="-3.8055060">
        <ele>342.6</ele>
        <time>2018-04-28T06:56:05Z</time>
      </trkpt>
      <trkpt lat="38.1591040" lon="-3.8054260">
        <ele>341.8</ele>
        <time>2018-04-28T06:56:06Z</time>
      </trkpt>
      <trkpt lat="38.1591910" lon="-3.8053390">
        <ele>340.6</ele>
        <time>2018-04-28T06:56:07Z</time>
      </trkpt>
      <trkpt lat="38.1592610" lon="-3.8052330">
        <ele>339.4</ele>
        <time>2018-04-28T06:56:08Z</time>
      </trkpt>
      <trkpt lat="38.1593150" lon="-3.8051120">
        <ele>338.6</ele>
        <time>2018-04-28T06:56:09Z</time>
      </trkpt>
      <trkpt lat="38.1593710" lon="-3.8049880">
        <ele>337.4</ele>
        <time>2018-04-28T06:56:10Z</time>
      </trkpt>
      <trkpt lat="38.1594430" lon="-3.8048770">
        <ele>336.8</ele>
        <time>2018-04-28T06:56:11Z</time>
      </trkpt>
      <trkpt lat="38.1595410" lon="-3.8048020">
        <ele>336.2</ele>
        <time>2018-04-28T06:56:12Z</time>
      </trkpt>
      <trkpt lat="38.1596840" lon="-3.8046980">
        <ele>336.4</ele>
        <time>2018-04-28T06:56:13Z</time>
      </trkpt>
      <trkpt lat="38.1597300" lon="-3.8046700">
        <ele>336.4</ele>
        <time>2018-04-28T06:56:14Z</time>
      </trkpt>
      <trkpt lat="38.1598220" lon="-3.8046140">
        <ele>336.0</ele>
        <time>2018-04-28T06:56:15Z</time>
      </trkpt>
      <trkpt lat="38.1599000" lon="-3.8045490">
        <ele>335.8</ele>
        <time>2018-04-28T06:56:16Z</time>
      </trkpt>
      <trkpt lat="38.1599660" lon="-3.8044890">
        <ele>335.6</ele>
        <time>2018-04-28T06:56:17Z</time>
      </trkpt>
      <trkpt lat="38.1600360" lon="-3.8044470">
        <ele>335.6</ele>
        <time>2018-04-28T06:56:18Z</time>
      </trkpt>
      <trkpt lat="38.1600990" lon="-3.8044370">
        <ele>335.6</ele>
        <time>2018-04-28T06:56:19Z</time>
      </trkpt>
      <trkpt lat="38.1601600" lon="-3.8044570">
        <ele>335.6</ele>
        <time>2018-04-28T06:56:20Z</time>
      </trkpt>
      <trkpt lat="38.1602200" lon="-3.8044970">
        <ele>335.8</ele>
        <time>2018-04-28T06:56:21Z</time>
      </trkpt>
      <trkpt lat="38.1602540" lon="-3.8045480">
        <ele>335.6</ele>
        <time>2018-04-28T06:56:22Z</time>
      </trkpt>
      <trkpt lat="38.1602830" lon="-3.8046080">
        <ele>335.6</ele>
        <time>2018-04-28T06:56:23Z</time>
      </trkpt>
      <trkpt lat="38.1603110" lon="-3.8046720">
        <ele>335.6</ele>
        <time>2018-04-28T06:56:24Z</time>
      </trkpt>
      <trkpt lat="38.1603380" lon="-3.8047320">
        <ele>335.6</ele>
        <time>2018-04-28T06:56:25Z</time>
      </trkpt>
      <trkpt lat="38.1603670" lon="-3.8047920">
        <ele>335.6</ele>
        <time>2018-04-28T06:56:26Z</time>
      </trkpt>
      <trkpt lat="38.1603980" lon="-3.8048450">
        <ele>335.6</ele>
        <time>2018-04-28T06:56:27Z</time>
      </trkpt>
      <trkpt lat="38.1604580" lon="-3.8049650">
        <ele>335.6</ele>
        <time>2018-04-28T06:56:28Z</time>
      </trkpt>
      <trkpt lat="38.1604860" lon="-3.8050270">
        <ele>335.6</ele>
        <time>2018-04-28T06:56:29Z</time>
      </trkpt>
      <trkpt lat="38.1605150" lon="-3.8050890">
        <ele>335.6</ele>
        <time>2018-04-28T06:56:30Z</time>
      </trkpt>
      <trkpt lat="38.1605310" lon="-3.8051180">
        <ele>335.6</ele>
        <time>2018-04-28T06:56:31Z</time>
      </trkpt>
      <trkpt lat="38.1605460" lon="-3.8051470">
        <ele>335.6</ele>
        <time>2018-04-28T06:56:32Z</time>
      </trkpt>
      <trkpt lat="38.1606060" lon="-3.8052670">
        <ele>335.6</ele>
        <time>2018-04-28T06:56:33Z</time>
      </trkpt>
      <trkpt lat="38.1606200" lon="-3.8052970">
        <ele>335.6</ele>
        <time>2018-04-28T06:56:34Z</time>
      </trkpt>
      <trkpt lat="38.1606340" lon="-3.8053270">
        <ele>335.6</ele>
        <time>2018-04-28T06:56:35Z</time>
      </trkpt>
      <trkpt lat="38.1606640" lon="-3.8053890">
        <ele>335.6</ele>
        <time>2018-04-28T06:56:36Z</time>
      </trkpt>
      <trkpt lat="38.1606940" lon="-3.8054490">
        <ele>335.6</ele>
        <time>2018-04-28T06:56:37Z</time>
      </trkpt>
      <trkpt lat="38.1607240" lon="-3.8055040">
        <ele>335.6</ele>
        <time>2018-04-28T06:56:38Z</time>
      </trkpt>
      <trkpt lat="38.1607550" lon="-3.8055610">
        <ele>335.6</ele>
        <time>2018-04-28T06:56:39Z</time>
      </trkpt>
      <trkpt lat="38.1607850" lon="-3.8056190">
        <ele>335.6</ele>
        <time>2018-04-28T06:56:40Z</time>
      </trkpt>
      <trkpt lat="38.1608150" lon="-3.8056760">
        <ele>335.6</ele>
        <time>2018-04-28T06:56:41Z</time>
      </trkpt>
      <trkpt lat="38.1608460" lon="-3.8057330">
        <ele>335.6</ele>
        <time>2018-04-28T06:56:42Z</time>
      </trkpt>
      <trkpt lat="38.1608730" lon="-3.8057930">
        <ele>335.6</ele>
        <time>2018-04-28T06:56:43Z</time>
      </trkpt>
      <trkpt lat="38.1609010" lon="-3.8058500">
        <ele>335.6</ele>
        <time>2018-04-28T06:56:44Z</time>
      </trkpt>
      <trkpt lat="38.1609290" lon="-3.8059030">
        <ele>335.6</ele>
        <time>2018-04-28T06:56:45Z</time>
      </trkpt>
      <trkpt lat="38.1609550" lon="-3.8059540">
        <ele>335.6</ele>
        <time>2018-04-28T06:56:46Z</time>
      </trkpt>
      <trkpt lat="38.1609800" lon="-3.8060050">
        <ele>335.6</ele>
        <time>2018-04-28T06:56:47Z</time>
      </trkpt>
      <trkpt lat="38.1610040" lon="-3.8060540">
        <ele>335.6</ele>
        <time>2018-04-28T06:56:48Z</time>
      </trkpt>
      <trkpt lat="38.1610530" lon="-3.8061430">
        <ele>335.6</ele>
        <time>2018-04-28T06:56:49Z</time>
      </trkpt>
      <trkpt lat="38.1610640" lon="-3.8061660">
        <ele>335.6</ele>
        <time>2018-04-28T06:56:50Z</time>
      </trkpt>
      <trkpt lat="38.1610750" lon="-3.8061890">
        <ele>335.6</ele>
        <time>2018-04-28T06:56:51Z</time>
      </trkpt>
      <trkpt lat="38.1610940" lon="-3.8062340">
        <ele>335.4</ele>
        <time>2018-04-28T06:56:52Z</time>
      </trkpt>
      <trkpt lat="38.1611120" lon="-3.8062700">
        <ele>335.6</ele>
        <time>2018-04-28T06:56:53Z</time>
      </trkpt>
      <trkpt lat="38.1611380" lon="-3.8063240">
        <ele>335.4</ele>
        <time>2018-04-28T06:56:54Z</time>
      </trkpt>
      <trkpt lat="38.1611380" lon="-3.8063240">
        <ele>335.4</ele>
        <time>2018-04-28T06:56:55Z</time>
      </trkpt>
      <trkpt lat="38.1611500" lon="-3.8063450">
        <ele>335.4</ele>
        <time>2018-04-28T06:56:56Z</time>
      </trkpt>
      <trkpt lat="38.1611530" lon="-3.8063580">
        <ele>335.4</ele>
        <time>2018-04-28T06:56:57Z</time>
      </trkpt>
      <trkpt lat="38.1611520" lon="-3.8063580">
        <ele>335.4</ele>
        <time>2018-04-28T06:56:58Z</time>
      </trkpt>
      <trkpt lat="38.1611550" lon="-3.8063570">
        <ele>335.4</ele>
        <time>2018-04-28T06:56:59Z</time>
      </trkpt>
      <trkpt lat="38.1611610" lon="-3.8063560">
        <ele>335.4</ele>
        <time>2018-04-28T06:57:00Z</time>
      </trkpt>
      <trkpt lat="38.1611610" lon="-3.8063570">
        <ele>335.4</ele>
        <time>2018-04-28T06:57:01Z</time>
      </trkpt>
      <trkpt lat="38.1611630" lon="-3.8063560">
        <ele>335.6</ele>
        <time>2018-04-28T06:57:02Z</time>
      </trkpt>
      <trkpt lat="38.1611630" lon="-3.8063570">
        <ele>335.6</ele>
        <time>2018-04-28T06:57:03Z</time>
      </trkpt>
      <trkpt lat="38.1611640" lon="-3.8063570">
        <ele>335.6</ele>
        <time>2018-04-28T06:57:04Z</time>
      </trkpt>
      <trkpt lat="38.1613950" lon="-3.8063420">
        <ele>336.0</ele>
        <time>2018-04-28T06:58:09Z</time>
      </trkpt>
      <trkpt lat="38.1613950" lon="-3.8063420">
        <ele>336.0</ele>
        <time>2018-04-28T06:58:10Z</time>
      </trkpt>
      <trkpt lat="38.1614170" lon="-3.8063270">
        <ele>336.2</ele>
        <time>2018-04-28T06:58:11Z</time>
      </trkpt>
      <trkpt lat="38.1614620" lon="-3.8062930">
        <ele>336.6</ele>
        <time>2018-04-28T06:58:12Z</time>
      </trkpt>
      <trkpt lat="38.1614830" lon="-3.8062760">
        <ele>336.6</ele>
        <time>2018-04-28T06:58:13Z</time>
      </trkpt>
      <trkpt lat="38.1615030" lon="-3.8062590">
        <ele>336.8</ele>
        <time>2018-04-28T06:58:14Z</time>
      </trkpt>
      <trkpt lat="38.1615030" lon="-3.8062590">
        <ele>337.0</ele>
        <time>2018-04-28T06:58:15Z</time>
      </trkpt>
      <trkpt lat="38.1615260" lon="-3.8062420">
        <ele>337.2</ele>
        <time>2018-04-28T06:58:16Z</time>
      </trkpt>
      <trkpt lat="38.1615480" lon="-3.8062270">
        <ele>337.4</ele>
        <time>2018-04-28T06:58:17Z</time>
      </trkpt>
      <trkpt lat="38.1615680" lon="-3.8062110">
        <ele>337.4</ele>
        <time>2018-04-28T06:58:18Z</time>
      </trkpt>
      <trkpt lat="38.1615890" lon="-3.8061970">
        <ele>337.6</ele>
        <time>2018-04-28T06:58:19Z</time>
      </trkpt>
      <trkpt lat="38.1616080" lon="-3.8061810">
        <ele>337.8</ele>
        <time>2018-04-28T06:58:20Z</time>
      </trkpt>
      <trkpt lat="38.1616250" lon="-3.8061650">
        <ele>338.0</ele>
        <time>2018-04-28T06:58:21Z</time>
      </trkpt>
      <trkpt lat="38.1616430" lon="-3.8061520">
        <ele>338.2</ele>
        <time>2018-04-28T06:58:22Z</time>
      </trkpt>
      <trkpt lat="38.1616600" lon="-3.8061400">
        <ele>338.4</ele>
        <time>2018-04-28T06:58:23Z</time>
      </trkpt>
      <trkpt lat="38.1616790" lon="-3.8061270">
        <ele>338.4</ele>
        <time>2018-04-28T06:58:24Z</time>
      </trkpt>
      <trkpt lat="38.1616960" lon="-3.8061120">
        <ele>338.4</ele>
        <time>2018-04-28T06:58:25Z</time>
      </trkpt>
      <trkpt lat="38.1617300" lon="-3.8060850">
        <ele>338.6</ele>
        <time>2018-04-28T06:58:26Z</time>
      </trkpt>
      <trkpt lat="38.1617490" lon="-3.8060700">
        <ele>338.8</ele>
        <time>2018-04-28T06:58:27Z</time>
      </trkpt>
      <trkpt lat="38.1617690" lon="-3.8060580">
        <ele>338.8</ele>
        <time>2018-04-28T06:58:28Z</time>
      </trkpt>
      <trkpt lat="38.1617870" lon="-3.8060480">
        <ele>339.0</ele>
        <time>2018-04-28T06:58:29Z</time>
      </trkpt>
      <trkpt lat="38.1618070" lon="-3.8060430">
        <ele>339.2</ele>
        <time>2018-04-28T06:58:30Z</time>
      </trkpt>
      <trkpt lat="38.1618280" lon="-3.8060350">
        <ele>339.2</ele>
        <time>2018-04-28T06:58:31Z</time>
      </trkpt>
      <trkpt lat="38.1618510" lon="-3.8060260">
        <ele>339.4</ele>
        <time>2018-04-28T06:58:32Z</time>
      </trkpt>
      <trkpt lat="38.1618740" lon="-3.8060230">
        <ele>339.4</ele>
        <time>2018-04-28T06:58:33Z</time>
      </trkpt>
      <trkpt lat="38.1618970" lon="-3.8060190">
        <ele>339.6</ele>
        <time>2018-04-28T06:58:34Z</time>
      </trkpt>
      <trkpt lat="38.1619240" lon="-3.8060190">
        <ele>339.6</ele>
        <time>2018-04-28T06:58:35Z</time>
      </trkpt>
      <trkpt lat="38.1619470" lon="-3.8060180">
        <ele>339.8</ele>
        <time>2018-04-28T06:58:36Z</time>
      </trkpt>
      <trkpt lat="38.1619710" lon="-3.8060150">
        <ele>339.8</ele>
        <time>2018-04-28T06:58:37Z</time>
      </trkpt>
      <trkpt lat="38.1619710" lon="-3.8060150">
        <ele>340.0</ele>
        <time>2018-04-28T06:58:38Z</time>
      </trkpt>
      <trkpt lat="38.1619950" lon="-3.8060120">
        <ele>340.0</ele>
        <time>2018-04-28T06:58:39Z</time>
      </trkpt>
      <trkpt lat="38.1620190" lon="-3.8060180">
        <ele>340.2</ele>
        <time>2018-04-28T06:58:40Z</time>
      </trkpt>
      <trkpt lat="38.1620410" lon="-3.8060200">
        <ele>340.4</ele>
        <time>2018-04-28T06:58:41Z</time>
      </trkpt>
      <trkpt lat="38.1620680" lon="-3.8060220">
        <ele>340.4</ele>
        <time>2018-04-28T06:58:42Z</time>
      </trkpt>
      <trkpt lat="38.1620920" lon="-3.8060270">
        <ele>340.6</ele>
        <time>2018-04-28T06:58:43Z</time>
      </trkpt>
      <trkpt lat="38.1621170" lon="-3.8060270">
        <ele>340.6</ele>
        <time>2018-04-28T06:58:44Z</time>
      </trkpt>
      <trkpt lat="38.1621400" lon="-3.8060250">
        <ele>340.8</ele>
        <time>2018-04-28T06:58:45Z</time>
      </trkpt>
      <trkpt lat="38.1621910" lon="-3.8060260">
        <ele>340.8</ele>
        <time>2018-04-28T06:58:46Z</time>
      </trkpt>
      <trkpt lat="38.1622160" lon="-3.8060240">
        <ele>341.0</ele>
        <time>2018-04-28T06:58:47Z</time>
      </trkpt>
      <trkpt lat="38.1622380" lon="-3.8060220">
        <ele>341.2</ele>
        <time>2018-04-28T06:58:48Z</time>
      </trkpt>
      <trkpt lat="38.1622630" lon="-3.8060200">
        <ele>341.2</ele>
        <time>2018-04-28T06:58:49Z</time>
      </trkpt>
      <trkpt lat="38.1622850" lon="-3.8060180">
        <ele>341.2</ele>
        <time>2018-04-28T06:58:50Z</time>
      </trkpt>
      <trkpt lat="38.1622850" lon="-3.8060180">
        <ele>341.4</ele>
        <time>2018-04-28T06:58:51Z</time>
      </trkpt>
      <trkpt lat="38.1623090" lon="-3.8060150">
        <ele>341.4</ele>
        <time>2018-04-28T06:58:52Z</time>
      </trkpt>
      <trkpt lat="38.1623340" lon="-3.8060120">
        <ele>341.6</ele>
        <time>2018-04-28T06:58:53Z</time>
      </trkpt>
      <trkpt lat="38.1623620" lon="-3.8060120">
        <ele>341.6</ele>
        <time>2018-04-28T06:58:54Z</time>
      </trkpt>
      <trkpt lat="38.1623850" lon="-3.8060180">
        <ele>341.8</ele>
        <time>2018-04-28T06:58:55Z</time>
      </trkpt>
      <trkpt lat="38.1624120" lon="-3.8060190">
        <ele>341.8</ele>
        <time>2018-04-28T06:58:56Z</time>
      </trkpt>
      <trkpt lat="38.1624390" lon="-3.8060230">
        <ele>342.0</ele>
        <time>2018-04-28T06:58:57Z</time>
      </trkpt>
      <trkpt lat="38.1624650" lon="-3.8060220">
        <ele>342.0</ele>
        <time>2018-04-28T06:58:58Z</time>
      </trkpt>
      <trkpt lat="38.1624930" lon="-3.8060200">
        <ele>342.2</ele>
        <time>2018-04-28T06:58:59Z</time>
      </trkpt>
      <trkpt lat="38.1625210" lon="-3.8060160">
        <ele>342.4</ele>
        <time>2018-04-28T06:59:00Z</time>
      </trkpt>
      <trkpt lat="38.1625490" lon="-3.8060080">
        <ele>342.4</ele>
        <time>2018-04-28T06:59:01Z</time>
      </trkpt>
      <trkpt lat="38.1625730" lon="-3.8060020">
        <ele>342.4</ele>
        <time>2018-04-28T06:59:02Z</time>
      </trkpt>
      <trkpt lat="38.1626310" lon="-3.8059800">
        <ele>342.4</ele>
        <time>2018-04-28T06:59:03Z</time>
      </trkpt>
      <trkpt lat="38.1626640" lon="-3.8059620">
        <ele>342.4</ele>
        <time>2018-04-28T06:59:04Z</time>
      </trkpt>
      <trkpt lat="38.1626920" lon="-3.8059340">
        <ele>342.6</ele>
        <time>2018-04-28T06:59:05Z</time>
      </trkpt>
      <trkpt lat="38.1627160" lon="-3.8059140">
        <ele>342.8</ele>
        <time>2018-04-28T06:59:06Z</time>
      </trkpt>
      <trkpt lat="38.1627360" lon="-3.8058990">
        <ele>343.2</ele>
        <time>2018-04-28T06:59:07Z</time>
      </trkpt>
      <trkpt lat="38.1627640" lon="-3.8058830">
        <ele>343.4</ele>
        <time>2018-04-28T06:59:08Z</time>
      </trkpt>
      <trkpt lat="38.1627920" lon="-3.8058670">
        <ele>343.4</ele>
        <time>2018-04-28T06:59:09Z</time>
      </trkpt>
      <trkpt lat="38.1628180" lon="-3.8058540">
        <ele>343.6</ele>
        <time>2018-04-28T06:59:10Z</time>
      </trkpt>
      <trkpt lat="38.1628450" lon="-3.8058370">
        <ele>343.8</ele>
        <time>2018-04-28T06:59:11Z</time>
      </trkpt>
      <trkpt lat="38.1628690" lon="-3.8058210">
        <ele>343.8</ele>
        <time>2018-04-28T06:59:12Z</time>
      </trkpt>
      <trkpt lat="38.1628940" lon="-3.8058090">
        <ele>344.0</ele>
        <time>2018-04-28T06:59:13Z</time>
      </trkpt>
      <trkpt lat="38.1629200" lon="-3.8057970">
        <ele>344.2</ele>
        <time>2018-04-28T06:59:14Z</time>
      </trkpt>
      <trkpt lat="38.1629460" lon="-3.8057850">
        <ele>344.4</ele>
        <time>2018-04-28T06:59:15Z</time>
      </trkpt>
      <trkpt lat="38.1629690" lon="-3.8057750">
        <ele>344.4</ele>
        <time>2018-04-28T06:59:16Z</time>
      </trkpt>
      <trkpt lat="38.1629690" lon="-3.8057750">
        <ele>344.6</ele>
        <time>2018-04-28T06:59:17Z</time>
      </trkpt>
      <trkpt lat="38.1629930" lon="-3.8057660">
        <ele>344.8</ele>
        <time>2018-04-28T06:59:18Z</time>
      </trkpt>
      <trkpt lat="38.1630200" lon="-3.8057580">
        <ele>344.8</ele>
        <time>2018-04-28T06:59:19Z</time>
      </trkpt>
      <trkpt lat="38.1630460" lon="-3.8057480">
        <ele>345.0</ele>
        <time>2018-04-28T06:59:20Z</time>
      </trkpt>
      <trkpt lat="38.1630700" lon="-3.8057410">
        <ele>345.2</ele>
        <time>2018-04-28T06:59:21Z</time>
      </trkpt>
      <trkpt lat="38.1630950" lon="-3.8057330">
        <ele>345.2</ele>
        <time>2018-04-28T06:59:22Z</time>
      </trkpt>
      <trkpt lat="38.1631240" lon="-3.8057260">
        <ele>345.4</ele>
        <time>2018-04-28T06:59:23Z</time>
      </trkpt>
      <trkpt lat="38.1631510" lon="-3.8057180">
        <ele>345.4</ele>
        <time>2018-04-28T06:59:24Z</time>
      </trkpt>
      <trkpt lat="38.1631770" lon="-3.8057100">
        <ele>345.6</ele>
        <time>2018-04-28T06:59:25Z</time>
      </trkpt>
      <trkpt lat="38.1632290" lon="-3.8057020">
        <ele>345.8</ele>
        <time>2018-04-28T06:59:26Z</time>
      </trkpt>
      <trkpt lat="38.1632290" lon="-3.8057020">
        <ele>345.8</ele>
        <time>2018-04-28T06:59:27Z</time>
      </trkpt>
      <trkpt lat="38.1632570" lon="-3.8056940">
        <ele>346.0</ele>
        <time>2018-04-28T06:59:28Z</time>
      </trkpt>
      <trkpt lat="38.1633090" lon="-3.8056790">
        <ele>346.2</ele>
        <time>2018-04-28T06:59:29Z</time>
      </trkpt>
      <trkpt lat="38.1633350" lon="-3.8056780">
        <ele>346.4</ele>
        <time>2018-04-28T06:59:30Z</time>
      </trkpt>
      <trkpt lat="38.1633600" lon="-3.8056760">
        <ele>346.4</ele>
        <time>2018-04-28T06:59:31Z</time>
      </trkpt>
      <trkpt lat="38.1633880" lon="-3.8056730">
        <ele>346.6</ele>
        <time>2018-04-28T06:59:32Z</time>
      </trkpt>
      <trkpt lat="38.1634160" lon="-3.8056740">
        <ele>346.6</ele>
        <time>2018-04-28T06:59:33Z</time>
      </trkpt>
      <trkpt lat="38.1634470" lon="-3.8056780">
        <ele>346.8</ele>
        <time>2018-04-28T06:59:34Z</time>
      </trkpt>
      <trkpt lat="38.1634720" lon="-3.8056800">
        <ele>346.8</ele>
        <time>2018-04-28T06:59:35Z</time>
      </trkpt>
      <trkpt lat="38.1634970" lon="-3.8056800">
        <ele>347.0</ele>
        <time>2018-04-28T06:59:36Z</time>
      </trkpt>
      <trkpt lat="38.1634970" lon="-3.8056800">
        <ele>347.0</ele>
        <time>2018-04-28T06:59:37Z</time>
      </trkpt>
      <trkpt lat="38.1635250" lon="-3.8056810">
        <ele>347.2</ele>
        <time>2018-04-28T06:59:38Z</time>
      </trkpt>
      <trkpt lat="38.1635520" lon="-3.8056840">
        <ele>347.2</ele>
        <time>2018-04-28T06:59:39Z</time>
      </trkpt>
      <trkpt lat="38.1635810" lon="-3.8056870">
        <ele>347.4</ele>
        <time>2018-04-28T06:59:40Z</time>
      </trkpt>
      <trkpt lat="38.1636040" lon="-3.8056900">
        <ele>347.4</ele>
        <time>2018-04-28T06:59:41Z</time>
      </trkpt>
      <trkpt lat="38.1636550" lon="-3.8056970">
        <ele>347.6</ele>
        <time>2018-04-28T06:59:42Z</time>
      </trkpt>
      <trkpt lat="38.1636850" lon="-3.8057000">
        <ele>347.6</ele>
        <time>2018-04-28T06:59:43Z</time>
      </trkpt>
      <trkpt lat="38.1637100" lon="-3.8057030">
        <ele>347.6</ele>
        <time>2018-04-28T06:59:44Z</time>
      </trkpt>
      <trkpt lat="38.1637390" lon="-3.8057050">
        <ele>347.8</ele>
        <time>2018-04-28T06:59:45Z</time>
      </trkpt>
      <trkpt lat="38.1637670" lon="-3.8057090">
        <ele>348.0</ele>
        <time>2018-04-28T06:59:46Z</time>
      </trkpt>
      <trkpt lat="38.1637930" lon="-3.8057120">
        <ele>348.0</ele>
        <time>2018-04-28T06:59:47Z</time>
      </trkpt>
      <trkpt lat="38.1638280" lon="-3.8057110">
        <ele>348.0</ele>
        <time>2018-04-28T06:59:48Z</time>
      </trkpt>
      <trkpt lat="38.1638540" lon="-3.8057140">
        <ele>348.2</ele>
        <time>2018-04-28T06:59:49Z</time>
      </trkpt>
      <trkpt lat="38.1638840" lon="-3.8057190">
        <ele>348.2</ele>
        <time>2018-04-28T06:59:50Z</time>
      </trkpt>
      <trkpt lat="38.1639120" lon="-3.8057260">
        <ele>348.4</ele>
        <time>2018-04-28T06:59:51Z</time>
      </trkpt>
      <trkpt lat="38.1639120" lon="-3.8057260">
        <ele>348.4</ele>
        <time>2018-04-28T06:59:52Z</time>
      </trkpt>
      <trkpt lat="38.1639360" lon="-3.8057320">
        <ele>348.4</ele>
        <time>2018-04-28T06:59:53Z</time>
      </trkpt>
      <trkpt lat="38.1639600" lon="-3.8057380">
        <ele>348.6</ele>
        <time>2018-04-28T06:59:54Z</time>
      </trkpt>
      <trkpt lat="38.1639890" lon="-3.8057440">
        <ele>348.8</ele>
        <time>2018-04-28T06:59:55Z</time>
      </trkpt>
      <trkpt lat="38.1640160" lon="-3.8057530">
        <ele>348.8</ele>
        <time>2018-04-28T06:59:56Z</time>
      </trkpt>
      <trkpt lat="38.1640380" lon="-3.8057570">
        <ele>349.0</ele>
        <time>2018-04-28T06:59:57Z</time>
      </trkpt>
      <trkpt lat="38.1640930" lon="-3.8057670">
        <ele>349.2</ele>
        <time>2018-04-28T06:59:58Z</time>
      </trkpt>
      <trkpt lat="38.1641210" lon="-3.8057730">
        <ele>349.2</ele>
        <time>2018-04-28T06:59:59Z</time>
      </trkpt>
      <trkpt lat="38.1641480" lon="-3.8057790">
        <ele>349.4</ele>
        <time>2018-04-28T07:00:00Z</time>
      </trkpt>
      <trkpt lat="38.1641700" lon="-3.8057850">
        <ele>349.6</ele>
        <time>2018-04-28T07:00:01Z</time>
      </trkpt>
      <trkpt lat="38.1641960" lon="-3.8057900">
        <ele>349.6</ele>
        <time>2018-04-28T07:00:02Z</time>
      </trkpt>
      <trkpt lat="38.1642210" lon="-3.8057990">
        <ele>349.8</ele>
        <time>2018-04-28T07:00:03Z</time>
      </trkpt>
      <trkpt lat="38.1642450" lon="-3.8058040">
        <ele>349.8</ele>
        <time>2018-04-28T07:00:04Z</time>
      </trkpt>
      <trkpt lat="38.1642810" lon="-3.8058070">
        <ele>350.0</ele>
        <time>2018-04-28T07:00:05Z</time>
      </trkpt>
      <trkpt lat="38.1643020" lon="-3.8058110">
        <ele>350.2</ele>
        <time>2018-04-28T07:00:06Z</time>
      </trkpt>
      <trkpt lat="38.1643290" lon="-3.8058110">
        <ele>350.2</ele>
        <time>2018-04-28T07:00:07Z</time>
      </trkpt>
      <trkpt lat="38.1643290" lon="-3.8058110">
        <ele>350.4</ele>
        <time>2018-04-28T07:00:08Z</time>
      </trkpt>
      <trkpt lat="38.1643520" lon="-3.8058100">
        <ele>350.4</ele>
        <time>2018-04-28T07:00:09Z</time>
      </trkpt>
      <trkpt lat="38.1643800" lon="-3.8058080">
        <ele>350.4</ele>
        <time>2018-04-28T07:00:10Z</time>
      </trkpt>
      <trkpt lat="38.1644120" lon="-3.8058090">
        <ele>350.6</ele>
        <time>2018-04-28T07:00:11Z</time>
      </trkpt>
      <trkpt lat="38.1644390" lon="-3.8058160">
        <ele>350.6</ele>
        <time>2018-04-28T07:00:12Z</time>
      </trkpt>
      <trkpt lat="38.1644670" lon="-3.8058210">
        <ele>350.8</ele>
        <time>2018-04-28T07:00:13Z</time>
      </trkpt>
      <trkpt lat="38.1644920" lon="-3.8058240">
        <ele>351.0</ele>
        <time>2018-04-28T07:00:14Z</time>
      </trkpt>
      <trkpt lat="38.1645470" lon="-3.8058370">
        <ele>351.0</ele>
        <time>2018-04-28T07:00:15Z</time>
      </trkpt>
      <trkpt lat="38.1645840" lon="-3.8058460">
        <ele>351.0</ele>
        <time>2018-04-28T07:00:16Z</time>
      </trkpt>
      <trkpt lat="38.1646100" lon="-3.8058550">
        <ele>351.2</ele>
        <time>2018-04-28T07:00:17Z</time>
      </trkpt>
      <trkpt lat="38.1646330" lon="-3.8058630">
        <ele>351.4</ele>
        <time>2018-04-28T07:00:18Z</time>
      </trkpt>
      <trkpt lat="38.1646560" lon="-3.8058730">
        <ele>351.6</ele>
        <time>2018-04-28T07:00:19Z</time>
      </trkpt>
      <trkpt lat="38.1646830" lon="-3.8058840">
        <ele>351.6</ele>
        <time>2018-04-28T07:00:20Z</time>
      </trkpt>
      <trkpt lat="38.1647070" lon="-3.8058960">
        <ele>351.6</ele>
        <time>2018-04-28T07:00:21Z</time>
      </trkpt>
      <trkpt lat="38.1647360" lon="-3.8059090">
        <ele>351.8</ele>
        <time>2018-04-28T07:00:22Z</time>
      </trkpt>
      <trkpt lat="38.1647630" lon="-3.8059160">
        <ele>351.8</ele>
        <time>2018-04-28T07:00:23Z</time>
      </trkpt>
      <trkpt lat="38.1647900" lon="-3.8059300">
        <ele>352.0</ele>
        <time>2018-04-28T07:00:24Z</time>
      </trkpt>
      <trkpt lat="38.1647900" lon="-3.8059300">
        <ele>352.0</ele>
        <time>2018-04-28T07:00:25Z</time>
      </trkpt>
      <trkpt lat="38.1648160" lon="-3.8059400">
        <ele>352.2</ele>
        <time>2018-04-28T07:00:26Z</time>
      </trkpt>
      <trkpt lat="38.1648390" lon="-3.8059500">
        <ele>352.2</ele>
        <time>2018-04-28T07:00:27Z</time>
      </trkpt>
      <trkpt lat="38.1648630" lon="-3.8059530">
        <ele>352.4</ele>
        <time>2018-04-28T07:00:28Z</time>
      </trkpt>
      <trkpt lat="38.1649020" lon="-3.8059800">
        <ele>352.6</ele>
        <time>2018-04-28T07:00:29Z</time>
      </trkpt>
      <trkpt lat="38.1649270" lon="-3.8059970">
        <ele>352.6</ele>
        <time>2018-04-28T07:00:30Z</time>
      </trkpt>
      <trkpt lat="38.1649500" lon="-3.8060190">
        <ele>352.8</ele>
        <time>2018-04-28T07:00:31Z</time>
      </trkpt>
      <trkpt lat="38.1649700" lon="-3.8060380">
        <ele>352.8</ele>
        <time>2018-04-28T07:00:32Z</time>
      </trkpt>
      <trkpt lat="38.1649910" lon="-3.8060570">
        <ele>353.0</ele>
        <time>2018-04-28T07:00:33Z</time>
      </trkpt>
      <trkpt lat="38.1650130" lon="-3.8060740">
        <ele>353.2</ele>
        <time>2018-04-28T07:00:34Z</time>
      </trkpt>
      <trkpt lat="38.1650340" lon="-3.8060920">
        <ele>353.4</ele>
        <time>2018-04-28T07:00:35Z</time>
      </trkpt>
      <trkpt lat="38.1650560" lon="-3.8061100">
        <ele>353.6</ele>
        <time>2018-04-28T07:00:36Z</time>
      </trkpt>
      <trkpt lat="38.1650770" lon="-3.8061270">
        <ele>353.8</ele>
        <time>2018-04-28T07:00:37Z</time>
      </trkpt>
      <trkpt lat="38.1650990" lon="-3.8061430">
        <ele>354.0</ele>
        <time>2018-04-28T07:00:38Z</time>
      </trkpt>
      <trkpt lat="38.1651200" lon="-3.8061570">
        <ele>354.2</ele>
        <time>2018-04-28T07:00:39Z</time>
      </trkpt>
      <trkpt lat="38.1651390" lon="-3.8061760">
        <ele>354.4</ele>
        <time>2018-04-28T07:00:40Z</time>
      </trkpt>
      <trkpt lat="38.1651620" lon="-3.8061930">
        <ele>354.6</ele>
        <time>2018-04-28T07:00:41Z</time>
      </trkpt>
      <trkpt lat="38.1651620" lon="-3.8061930">
        <ele>354.8</ele>
        <time>2018-04-28T07:00:42Z</time>
      </trkpt>
      <trkpt lat="38.1651850" lon="-3.8062100">
        <ele>355.0</ele>
        <time>2018-04-28T07:00:43Z</time>
      </trkpt>
      <trkpt lat="38.1652070" lon="-3.8062260">
        <ele>355.2</ele>
        <time>2018-04-28T07:00:44Z</time>
      </trkpt>
      <trkpt lat="38.1652280" lon="-3.8062420">
        <ele>355.4</ele>
        <time>2018-04-28T07:00:45Z</time>
      </trkpt>
      <trkpt lat="38.1652500" lon="-3.8062590">
        <ele>355.4</ele>
        <time>2018-04-28T07:00:46Z</time>
      </trkpt>
      <trkpt lat="38.1652740" lon="-3.8062750">
        <ele>355.6</ele>
        <time>2018-04-28T07:00:47Z</time>
      </trkpt>
      <trkpt lat="38.1652960" lon="-3.8062900">
        <ele>355.8</ele>
        <time>2018-04-28T07:00:48Z</time>
      </trkpt>
      <trkpt lat="38.1653210" lon="-3.8063020">
        <ele>356.0</ele>
        <time>2018-04-28T07:00:49Z</time>
      </trkpt>
      <trkpt lat="38.1653650" lon="-3.8063370">
        <ele>356.2</ele>
        <time>2018-04-28T07:00:50Z</time>
      </trkpt>
      <trkpt lat="38.1653860" lon="-3.8063550">
        <ele>356.2</ele>
        <time>2018-04-28T07:00:51Z</time>
      </trkpt>
      <trkpt lat="38.1654070" lon="-3.8063730">
        <ele>356.4</ele>
        <time>2018-04-28T07:00:52Z</time>
      </trkpt>
      <trkpt lat="38.1654300" lon="-3.8063900">
        <ele>356.6</ele>
        <time>2018-04-28T07:00:53Z</time>
      </trkpt>
      <trkpt lat="38.1654500" lon="-3.8064070">
        <ele>356.6</ele>
        <time>2018-04-28T07:00:54Z</time>
      </trkpt>
      <trkpt lat="38.1654760" lon="-3.8064210">
        <ele>356.8</ele>
        <time>2018-04-28T07:00:55Z</time>
      </trkpt>
      <trkpt lat="38.1655000" lon="-3.8064360">
        <ele>357.0</ele>
        <time>2018-04-28T07:00:56Z</time>
      </trkpt>
      <trkpt lat="38.1655240" lon="-3.8064500">
        <ele>357.2</ele>
        <time>2018-04-28T07:00:57Z</time>
      </trkpt>
      <trkpt lat="38.1655460" lon="-3.8064660">
        <ele>357.2</ele>
        <time>2018-04-28T07:00:58Z</time>
      </trkpt>
      <trkpt lat="38.1655670" lon="-3.8064810">
        <ele>357.4</ele>
        <time>2018-04-28T07:00:59Z</time>
      </trkpt>
      <trkpt lat="38.1655880" lon="-3.8064950">
        <ele>357.6</ele>
        <time>2018-04-28T07:01:00Z</time>
      </trkpt>
      <trkpt lat="38.1656080" lon="-3.8065120">
        <ele>357.8</ele>
        <time>2018-04-28T07:01:01Z</time>
      </trkpt>
      <trkpt lat="38.1656290" lon="-3.8065240">
        <ele>358.0</ele>
        <time>2018-04-28T07:01:02Z</time>
      </trkpt>
      <trkpt lat="38.1656520" lon="-3.8065410">
        <ele>358.2</ele>
        <time>2018-04-28T07:01:03Z</time>
      </trkpt>
      <trkpt lat="38.1656520" lon="-3.8065410">
        <ele>358.2</ele>
        <time>2018-04-28T07:01:04Z</time>
      </trkpt>
      <trkpt lat="38.1656740" lon="-3.8065580">
        <ele>358.4</ele>
        <time>2018-04-28T07:01:05Z</time>
      </trkpt>
      <trkpt lat="38.1657090" lon="-3.8065950">
        <ele>358.6</ele>
        <time>2018-04-28T07:01:06Z</time>
      </trkpt>
      <trkpt lat="38.1657300" lon="-3.8066060">
        <ele>358.8</ele>
        <time>2018-04-28T07:01:07Z</time>
      </trkpt>
      <trkpt lat="38.1657300" lon="-3.8066060">
        <ele>359.0</ele>
        <time>2018-04-28T07:01:08Z</time>
      </trkpt>
      <trkpt lat="38.1657480" lon="-3.8066190">
        <ele>359.2</ele>
        <time>2018-04-28T07:01:09Z</time>
      </trkpt>
      <trkpt lat="38.1657810" lon="-3.8066310">
        <ele>359.4</ele>
        <time>2018-04-28T07:01:10Z</time>
      </trkpt>
      <trkpt lat="38.1658280" lon="-3.8066500">
        <ele>359.4</ele>
        <time>2018-04-28T07:01:11Z</time>
      </trkpt>
      <trkpt lat="38.1658510" lon="-3.8066580">
        <ele>359.6</ele>
        <time>2018-04-28T07:01:12Z</time>
      </trkpt>
      <trkpt lat="38.1658700" lon="-3.8066660">
        <ele>359.8</ele>
        <time>2018-04-28T07:01:13Z</time>
      </trkpt>
      <trkpt lat="38.1658910" lon="-3.8066710">
        <ele>360.0</ele>
        <time>2018-04-28T07:01:14Z</time>
      </trkpt>
      <trkpt lat="38.1659050" lon="-3.8066770">
        <ele>360.2</ele>
        <time>2018-04-28T07:01:15Z</time>
      </trkpt>
      <trkpt lat="38.1659230" lon="-3.8066850">
        <ele>360.4</ele>
        <time>2018-04-28T07:01:16Z</time>
      </trkpt>
      <trkpt lat="38.1659420" lon="-3.8066940">
        <ele>360.6</ele>
        <time>2018-04-28T07:01:17Z</time>
      </trkpt>
      <trkpt lat="38.1659600" lon="-3.8066960">
        <ele>360.6</ele>
        <time>2018-04-28T07:01:18Z</time>
      </trkpt>
      <trkpt lat="38.1659770" lon="-3.8067010">
        <ele>360.8</ele>
        <time>2018-04-28T07:01:19Z</time>
      </trkpt>
      <trkpt lat="38.1659980" lon="-3.8067040">
        <ele>361.0</ele>
        <time>2018-04-28T07:01:20Z</time>
      </trkpt>
      <trkpt lat="38.1660220" lon="-3.8067090">
        <ele>361.2</ele>
        <time>2018-04-28T07:01:21Z</time>
      </trkpt>
      <trkpt lat="38.1660430" lon="-3.8067160">
        <ele>361.4</ele>
        <time>2018-04-28T07:01:22Z</time>
      </trkpt>
      <trkpt lat="38.1660630" lon="-3.8067250">
        <ele>361.6</ele>
        <time>2018-04-28T07:01:23Z</time>
      </trkpt>
      <trkpt lat="38.1660820" lon="-3.8067330">
        <ele>361.8</ele>
        <time>2018-04-28T07:01:24Z</time>
      </trkpt>
      <trkpt lat="38.1661000" lon="-3.8067420">
        <ele>362.0</ele>
        <time>2018-04-28T07:01:25Z</time>
      </trkpt>
      <trkpt lat="38.1661000" lon="-3.8067420">
        <ele>362.0</ele>
        <time>2018-04-28T07:01:26Z</time>
      </trkpt>
      <trkpt lat="38.1661200" lon="-3.8067520">
        <ele>362.2</ele>
        <time>2018-04-28T07:01:27Z</time>
      </trkpt>
      <trkpt lat="38.1661390" lon="-3.8067580">
        <ele>362.4</ele>
        <time>2018-04-28T07:01:28Z</time>
      </trkpt>
      <trkpt lat="38.1661750" lon="-3.8067710">
        <ele>362.6</ele>
        <time>2018-04-28T07:01:29Z</time>
      </trkpt>
      <trkpt lat="38.1661940" lon="-3.8067790">
        <ele>362.8</ele>
        <time>2018-04-28T07:01:30Z</time>
      </trkpt>
      <trkpt lat="38.1662120" lon="-3.8067870">
        <ele>363.0</ele>
        <time>2018-04-28T07:01:31Z</time>
      </trkpt>
      <trkpt lat="38.1662310" lon="-3.8067960">
        <ele>363.2</ele>
        <time>2018-04-28T07:01:32Z</time>
      </trkpt>
      <trkpt lat="38.1662500" lon="-3.8068060">
        <ele>363.4</ele>
        <time>2018-04-28T07:01:33Z</time>
      </trkpt>
      <trkpt lat="38.1662680" lon="-3.8068120">
        <ele>363.8</ele>
        <time>2018-04-28T07:01:34Z</time>
      </trkpt>
      <trkpt lat="38.1662880" lon="-3.8068150">
        <ele>363.8</ele>
        <time>2018-04-28T07:01:35Z</time>
      </trkpt>
      <trkpt lat="38.1663100" lon="-3.8068160">
        <ele>364.0</ele>
        <time>2018-04-28T07:01:36Z</time>
      </trkpt>
      <trkpt lat="38.1663320" lon="-3.8068140">
        <ele>364.2</ele>
        <time>2018-04-28T07:01:37Z</time>
      </trkpt>
      <trkpt lat="38.1663530" lon="-3.8068100">
        <ele>364.4</ele>
        <time>2018-04-28T07:01:38Z</time>
      </trkpt>
      <trkpt lat="38.1663740" lon="-3.8068000">
        <ele>364.6</ele>
        <time>2018-04-28T07:01:39Z</time>
      </trkpt>
      <trkpt lat="38.1663900" lon="-3.8067950">
        <ele>364.8</ele>
        <time>2018-04-28T07:01:40Z</time>
      </trkpt>
      <trkpt lat="38.1664060" lon="-3.8067860">
        <ele>365.0</ele>
        <time>2018-04-28T07:01:41Z</time>
      </trkpt>
      <trkpt lat="38.1664240" lon="-3.8067730">
        <ele>365.2</ele>
        <time>2018-04-28T07:01:42Z</time>
      </trkpt>
      <trkpt lat="38.1664360" lon="-3.8067600">
        <ele>365.4</ele>
        <time>2018-04-28T07:01:43Z</time>
      </trkpt>
      <trkpt lat="38.1664530" lon="-3.8067430">
        <ele>365.4</ele>
        <time>2018-04-28T07:01:44Z</time>
      </trkpt>
      <trkpt lat="38.1664690" lon="-3.8067310">
        <ele>365.6</ele>
        <time>2018-04-28T07:01:45Z</time>
      </trkpt>
      <trkpt lat="38.1664840" lon="-3.8067170">
        <ele>366.0</ele>
        <time>2018-04-28T07:01:46Z</time>
      </trkpt>
      <trkpt lat="38.1664990" lon="-3.8067020">
        <ele>366.0</ele>
        <time>2018-04-28T07:01:47Z</time>
      </trkpt>
      <trkpt lat="38.1665150" lon="-3.8066870">
        <ele>366.2</ele>
        <time>2018-04-28T07:01:48Z</time>
      </trkpt>
      <trkpt lat="38.1665330" lon="-3.8066700">
        <ele>366.4</ele>
        <time>2018-04-28T07:01:49Z</time>
      </trkpt>
      <trkpt lat="38.1665620" lon="-3.8066550">
        <ele>366.6</ele>
        <time>2018-04-28T07:01:50Z</time>
      </trkpt>
      <trkpt lat="38.1665830" lon="-3.8066410">
        <ele>366.8</ele>
        <time>2018-04-28T07:01:51Z</time>
      </trkpt>
      <trkpt lat="38.1666000" lon="-3.8066340">
        <ele>367.0</ele>
        <time>2018-04-28T07:01:52Z</time>
      </trkpt>
      <trkpt lat="38.1666190" lon="-3.8066320">
        <ele>367.2</ele>
        <time>2018-04-28T07:01:53Z</time>
      </trkpt>
      <trkpt lat="38.1666350" lon="-3.8066340">
        <ele>367.4</ele>
        <time>2018-04-28T07:01:54Z</time>
      </trkpt>
      <trkpt lat="38.1666540" lon="-3.8066380">
        <ele>367.4</ele>
        <time>2018-04-28T07:01:55Z</time>
      </trkpt>
      <trkpt lat="38.1666710" lon="-3.8066440">
        <ele>367.6</ele>
        <time>2018-04-28T07:01:56Z</time>
      </trkpt>
      <trkpt lat="38.1666930" lon="-3.8066520">
        <ele>367.8</ele>
        <time>2018-04-28T07:01:57Z</time>
      </trkpt>
      <trkpt lat="38.1667100" lon="-3.8066600">
        <ele>367.8</ele>
        <time>2018-04-28T07:01:58Z</time>
      </trkpt>
      <trkpt lat="38.1667290" lon="-3.8066700">
        <ele>368.0</ele>
        <time>2018-04-28T07:01:59Z</time>
      </trkpt>
      <trkpt lat="38.1667470" lon="-3.8066800">
        <ele>368.0</ele>
        <time>2018-04-28T07:02:00Z</time>
      </trkpt>
      <trkpt lat="38.1667620" lon="-3.8066920">
        <ele>368.2</ele>
        <time>2018-04-28T07:02:01Z</time>
      </trkpt>
      <trkpt lat="38.1667780" lon="-3.8067010">
        <ele>368.2</ele>
        <time>2018-04-28T07:02:02Z</time>
      </trkpt>
      <trkpt lat="38.1667950" lon="-3.8067120">
        <ele>368.4</ele>
        <time>2018-04-28T07:02:03Z</time>
      </trkpt>
      <trkpt lat="38.1668110" lon="-3.8067230">
        <ele>368.4</ele>
        <time>2018-04-28T07:02:04Z</time>
      </trkpt>
      <trkpt lat="38.1668260" lon="-3.8067340">
        <ele>368.6</ele>
        <time>2018-04-28T07:02:05Z</time>
      </trkpt>
      <trkpt lat="38.1668430" lon="-3.8067420">
        <ele>368.6</ele>
        <time>2018-04-28T07:02:06Z</time>
      </trkpt>
      <trkpt lat="38.1668610" lon="-3.8067500">
        <ele>368.8</ele>
        <time>2018-04-28T07:02:07Z</time>
      </trkpt>
      <trkpt lat="38.1668780" lon="-3.8067550">
        <ele>369.0</ele>
        <time>2018-04-28T07:02:08Z</time>
      </trkpt>
      <trkpt lat="38.1669100" lon="-3.8067560">
        <ele>369.2</ele>
        <time>2018-04-28T07:02:09Z</time>
      </trkpt>
      <trkpt lat="38.1669350" lon="-3.8067500">
        <ele>369.2</ele>
        <time>2018-04-28T07:02:10Z</time>
      </trkpt>
      <trkpt lat="38.1669500" lon="-3.8067500">
        <ele>369.4</ele>
        <time>2018-04-28T07:02:11Z</time>
      </trkpt>
      <trkpt lat="38.1669670" lon="-3.8067530">
        <ele>369.6</ele>
        <time>2018-04-28T07:02:12Z</time>
      </trkpt>
      <trkpt lat="38.1669890" lon="-3.8067580">
        <ele>369.8</ele>
        <time>2018-04-28T07:02:13Z</time>
      </trkpt>
      <trkpt lat="38.1670040" lon="-3.8067560">
        <ele>370.0</ele>
        <time>2018-04-28T07:02:14Z</time>
      </trkpt>
      <trkpt lat="38.1670220" lon="-3.8067530">
        <ele>370.2</ele>
        <time>2018-04-28T07:02:15Z</time>
      </trkpt>
      <trkpt lat="38.1670420" lon="-3.8067480">
        <ele>370.2</ele>
        <time>2018-04-28T07:02:16Z</time>
      </trkpt>
      <trkpt lat="38.1670600" lon="-3.8067410">
        <ele>370.4</ele>
        <time>2018-04-28T07:02:17Z</time>
      </trkpt>
      <trkpt lat="38.1670790" lon="-3.8067340">
        <ele>370.6</ele>
        <time>2018-04-28T07:02:18Z</time>
      </trkpt>
      <trkpt lat="38.1670940" lon="-3.8067280">
        <ele>370.8</ele>
        <time>2018-04-28T07:02:19Z</time>
      </trkpt>
      <trkpt lat="38.1671100" lon="-3.8067210">
        <ele>371.0</ele>
        <time>2018-04-28T07:02:20Z</time>
      </trkpt>
      <trkpt lat="38.1671290" lon="-3.8067120">
        <ele>371.2</ele>
        <time>2018-04-28T07:02:21Z</time>
      </trkpt>
      <trkpt lat="38.1671380" lon="-3.8067050">
        <ele>371.4</ele>
        <time>2018-04-28T07:02:22Z</time>
      </trkpt>
      <trkpt lat="38.1671540" lon="-3.8066980">
        <ele>371.4</ele>
        <time>2018-04-28T07:02:23Z</time>
      </trkpt>
      <trkpt lat="38.1671690" lon="-3.8066920">
        <ele>371.8</ele>
        <time>2018-04-28T07:02:24Z</time>
      </trkpt>
      <trkpt lat="38.1671830" lon="-3.8066860">
        <ele>372.0</ele>
        <time>2018-04-28T07:02:25Z</time>
      </trkpt>
      <trkpt lat="38.1671980" lon="-3.8066780">
        <ele>372.2</ele>
        <time>2018-04-28T07:02:26Z</time>
      </trkpt>
      <trkpt lat="38.1672110" lon="-3.8066710">
        <ele>372.2</ele>
        <time>2018-04-28T07:02:27Z</time>
      </trkpt>
      <trkpt lat="38.1672270" lon="-3.8066640">
        <ele>372.4</ele>
        <time>2018-04-28T07:02:28Z</time>
      </trkpt>
      <trkpt lat="38.1672440" lon="-3.8066560">
        <ele>372.4</ele>
        <time>2018-04-28T07:02:29Z</time>
      </trkpt>
      <trkpt lat="38.1672590" lon="-3.8066490">
        <ele>372.6</ele>
        <time>2018-04-28T07:02:30Z</time>
      </trkpt>
      <trkpt lat="38.1672770" lon="-3.8066400">
        <ele>372.8</ele>
        <time>2018-04-28T07:02:31Z</time>
      </trkpt>
      <trkpt lat="38.1672880" lon="-3.8066320">
        <ele>372.8</ele>
        <time>2018-04-28T07:02:32Z</time>
      </trkpt>
      <trkpt lat="38.1673020" lon="-3.8066270">
        <ele>373.0</ele>
        <time>2018-04-28T07:02:33Z</time>
      </trkpt>
      <trkpt lat="38.1673190" lon="-3.8066220">
        <ele>373.2</ele>
        <time>2018-04-28T07:02:34Z</time>
      </trkpt>
      <trkpt lat="38.1673340" lon="-3.8066150">
        <ele>373.4</ele>
        <time>2018-04-28T07:02:35Z</time>
      </trkpt>
      <trkpt lat="38.1673500" lon="-3.8066080">
        <ele>373.4</ele>
        <time>2018-04-28T07:02:36Z</time>
      </trkpt>
      <trkpt lat="38.1673670" lon="-3.8066030">
        <ele>373.6</ele>
        <time>2018-04-28T07:02:37Z</time>
      </trkpt>
      <trkpt lat="38.1673830" lon="-3.8065990">
        <ele>373.8</ele>
        <time>2018-04-28T07:02:38Z</time>
      </trkpt>
      <trkpt lat="38.1673970" lon="-3.8065930">
        <ele>373.8</ele>
        <time>2018-04-28T07:02:39Z</time>
      </trkpt>
      <trkpt lat="38.1674170" lon="-3.8065870">
        <ele>374.0</ele>
        <time>2018-04-28T07:02:40Z</time>
      </trkpt>
      <trkpt lat="38.1674360" lon="-3.8065840">
        <ele>374.2</ele>
        <time>2018-04-28T07:02:41Z</time>
      </trkpt>
      <trkpt lat="38.1674500" lon="-3.8065810">
        <ele>374.4</ele>
        <time>2018-04-28T07:02:42Z</time>
      </trkpt>
      <trkpt lat="38.1674730" lon="-3.8065760">
        <ele>374.6</ele>
        <time>2018-04-28T07:02:43Z</time>
      </trkpt>
      <trkpt lat="38.1674910" lon="-3.8065760">
        <ele>374.6</ele>
        <time>2018-04-28T07:02:44Z</time>
      </trkpt>
      <trkpt lat="38.1675080" lon="-3.8065830">
        <ele>374.8</ele>
        <time>2018-04-28T07:02:45Z</time>
      </trkpt>
      <trkpt lat="38.1675270" lon="-3.8065930">
        <ele>374.8</ele>
        <time>2018-04-28T07:02:46Z</time>
      </trkpt>
      <trkpt lat="38.1675510" lon="-3.8066050">
        <ele>374.8</ele>
        <time>2018-04-28T07:02:47Z</time>
      </trkpt>
      <trkpt lat="38.1675730" lon="-3.8066230">
        <ele>374.8</ele>
        <time>2018-04-28T07:02:48Z</time>
      </trkpt>
      <trkpt lat="38.1675960" lon="-3.8066460">
        <ele>374.8</ele>
        <time>2018-04-28T07:02:49Z</time>
      </trkpt>
      <trkpt lat="38.1676120" lon="-3.8066770">
        <ele>374.8</ele>
        <time>2018-04-28T07:02:50Z</time>
      </trkpt>
      <trkpt lat="38.1676230" lon="-3.8067120">
        <ele>374.8</ele>
        <time>2018-04-28T07:02:51Z</time>
      </trkpt>
      <trkpt lat="38.1676330" lon="-3.8067480">
        <ele>374.8</ele>
        <time>2018-04-28T07:02:52Z</time>
      </trkpt>
      <trkpt lat="38.1676350" lon="-3.8067850">
        <ele>374.6</ele>
        <time>2018-04-28T07:02:53Z</time>
      </trkpt>
      <trkpt lat="38.1676340" lon="-3.8068170">
        <ele>374.6</ele>
        <time>2018-04-28T07:02:54Z</time>
      </trkpt>
      <trkpt lat="38.1676320" lon="-3.8068530">
        <ele>374.8</ele>
        <time>2018-04-28T07:02:55Z</time>
      </trkpt>
      <trkpt lat="38.1676300" lon="-3.8068890">
        <ele>374.8</ele>
        <time>2018-04-28T07:02:56Z</time>
      </trkpt>
      <trkpt lat="38.1676250" lon="-3.8069250">
        <ele>374.8</ele>
        <time>2018-04-28T07:02:57Z</time>
      </trkpt>
      <trkpt lat="38.1676220" lon="-3.8069580">
        <ele>375.0</ele>
        <time>2018-04-28T07:02:58Z</time>
      </trkpt>
      <trkpt lat="38.1676190" lon="-3.8069910">
        <ele>375.2</ele>
        <time>2018-04-28T07:02:59Z</time>
      </trkpt>
      <trkpt lat="38.1676150" lon="-3.8070220">
        <ele>375.2</ele>
        <time>2018-04-28T07:03:00Z</time>
      </trkpt>
      <trkpt lat="38.1676140" lon="-3.8070530">
        <ele>375.4</ele>
        <time>2018-04-28T07:03:01Z</time>
      </trkpt>
      <trkpt lat="38.1676150" lon="-3.8070840">
        <ele>375.6</ele>
        <time>2018-04-28T07:03:02Z</time>
      </trkpt>
      <trkpt lat="38.1676160" lon="-3.8071130">
        <ele>375.8</ele>
        <time>2018-04-28T07:03:03Z</time>
      </trkpt>
      <trkpt lat="38.1676180" lon="-3.8071430">
        <ele>376.0</ele>
        <time>2018-04-28T07:03:04Z</time>
      </trkpt>
      <trkpt lat="38.1676210" lon="-3.8071730">
        <ele>376.2</ele>
        <time>2018-04-28T07:03:05Z</time>
      </trkpt>
      <trkpt lat="38.1676230" lon="-3.8072050">
        <ele>376.2</ele>
        <time>2018-04-28T07:03:06Z</time>
      </trkpt>
      <trkpt lat="38.1676280" lon="-3.8072360">
        <ele>376.6</ele>
        <time>2018-04-28T07:03:07Z</time>
      </trkpt>
      <trkpt lat="38.1676340" lon="-3.8072670">
        <ele>376.8</ele>
        <time>2018-04-28T07:03:08Z</time>
      </trkpt>
      <trkpt lat="38.1676370" lon="-3.8072870">
        <ele>377.0</ele>
        <time>2018-04-28T07:03:09Z</time>
      </trkpt>
      <trkpt lat="38.1676420" lon="-3.8073120">
        <ele>377.2</ele>
        <time>2018-04-28T07:03:10Z</time>
      </trkpt>
      <trkpt lat="38.1676440" lon="-3.8073420">
        <ele>377.4</ele>
        <time>2018-04-28T07:03:11Z</time>
      </trkpt>
      <trkpt lat="38.1676460" lon="-3.8073740">
        <ele>377.6</ele>
        <time>2018-04-28T07:03:12Z</time>
      </trkpt>
      <trkpt lat="38.1676480" lon="-3.8074050">
        <ele>377.8</ele>
        <time>2018-04-28T07:03:13Z</time>
      </trkpt>
      <trkpt lat="38.1676490" lon="-3.8074380">
        <ele>378.0</ele>
        <time>2018-04-28T07:03:14Z</time>
      </trkpt>
      <trkpt lat="38.1676500" lon="-3.8074680">
        <ele>378.2</ele>
        <time>2018-04-28T07:03:15Z</time>
      </trkpt>
      <trkpt lat="38.1676500" lon="-3.8074990">
        <ele>378.2</ele>
        <time>2018-04-28T07:03:16Z</time>
      </trkpt>
      <trkpt lat="38.1676470" lon="-3.8075300">
        <ele>378.4</ele>
        <time>2018-04-28T07:03:17Z</time>
      </trkpt>
      <trkpt lat="38.1676470" lon="-3.8075620">
        <ele>378.6</ele>
        <time>2018-04-28T07:03:18Z</time>
      </trkpt>
      <trkpt lat="38.1676480" lon="-3.8075910">
        <ele>378.8</ele>
        <time>2018-04-28T07:03:19Z</time>
      </trkpt>
      <trkpt lat="38.1676480" lon="-3.8076220">
        <ele>379.0</ele>
        <time>2018-04-28T07:03:20Z</time>
      </trkpt>
      <trkpt lat="38.1676470" lon="-3.8076520">
        <ele>379.2</ele>
        <time>2018-04-28T07:03:21Z</time>
      </trkpt>
      <trkpt lat="38.1676440" lon="-3.8076830">
        <ele>379.4</ele>
        <time>2018-04-28T07:03:22Z</time>
      </trkpt>
      <trkpt lat="38.1676420" lon="-3.8077090">
        <ele>379.6</ele>
        <time>2018-04-28T07:03:23Z</time>
      </trkpt>
      <trkpt lat="38.1676410" lon="-3.8077370">
        <ele>379.8</ele>
        <time>2018-04-28T07:03:24Z</time>
      </trkpt>
      <trkpt lat="38.1676410" lon="-3.8077650">
        <ele>380.0</ele>
        <time>2018-04-28T07:03:25Z</time>
      </trkpt>
      <trkpt lat="38.1676390" lon="-3.8077930">
        <ele>380.2</ele>
        <time>2018-04-28T07:03:26Z</time>
      </trkpt>
      <trkpt lat="38.1676360" lon="-3.8078240">
        <ele>380.4</ele>
        <time>2018-04-28T07:03:27Z</time>
      </trkpt>
      <trkpt lat="38.1676330" lon="-3.8078550">
        <ele>380.8</ele>
        <time>2018-04-28T07:03:28Z</time>
      </trkpt>
      <trkpt lat="38.1676280" lon="-3.8078860">
        <ele>381.0</ele>
        <time>2018-04-28T07:03:29Z</time>
      </trkpt>
      <trkpt lat="38.1676220" lon="-3.8079180">
        <ele>381.0</ele>
        <time>2018-04-28T07:03:30Z</time>
      </trkpt>
      <trkpt lat="38.1676180" lon="-3.8079490">
        <ele>381.4</ele>
        <time>2018-04-28T07:03:31Z</time>
      </trkpt>
      <trkpt lat="38.1676160" lon="-3.8079750">
        <ele>381.6</ele>
        <time>2018-04-28T07:03:32Z</time>
      </trkpt>
      <trkpt lat="38.1676130" lon="-3.8080030">
        <ele>381.6</ele>
        <time>2018-04-28T07:03:33Z</time>
      </trkpt>
      <trkpt lat="38.1676100" lon="-3.8080290">
        <ele>381.8</ele>
        <time>2018-04-28T07:03:34Z</time>
      </trkpt>
      <trkpt lat="38.1676120" lon="-3.8080520">
        <ele>382.2</ele>
        <time>2018-04-28T07:03:35Z</time>
      </trkpt>
      <trkpt lat="38.1676110" lon="-3.8080800">
        <ele>382.2</ele>
        <time>2018-04-28T07:03:36Z</time>
      </trkpt>
      <trkpt lat="38.1676080" lon="-3.8081100">
        <ele>382.4</ele>
        <time>2018-04-28T07:03:37Z</time>
      </trkpt>
      <trkpt lat="38.1676010" lon="-3.8081420">
        <ele>382.6</ele>
        <time>2018-04-28T07:03:38Z</time>
      </trkpt>
      <trkpt lat="38.1675930" lon="-3.8081710">
        <ele>382.8</ele>
        <time>2018-04-28T07:03:39Z</time>
      </trkpt>
      <trkpt lat="38.1675880" lon="-3.8082000">
        <ele>383.2</ele>
        <time>2018-04-28T07:03:40Z</time>
      </trkpt>
      <trkpt lat="38.1675840" lon="-3.8082310">
        <ele>383.2</ele>
        <time>2018-04-28T07:03:41Z</time>
      </trkpt>
      <trkpt lat="38.1675800" lon="-3.8082600">
        <ele>383.6</ele>
        <time>2018-04-28T07:03:42Z</time>
      </trkpt>
      <trkpt lat="38.1675810" lon="-3.8082890">
        <ele>383.6</ele>
        <time>2018-04-28T07:03:43Z</time>
      </trkpt>
      <trkpt lat="38.1675840" lon="-3.8083170">
        <ele>383.8</ele>
        <time>2018-04-28T07:03:44Z</time>
      </trkpt>
      <trkpt lat="38.1675890" lon="-3.8083450">
        <ele>384.0</ele>
        <time>2018-04-28T07:03:45Z</time>
      </trkpt>
      <trkpt lat="38.1675950" lon="-3.8083770">
        <ele>384.0</ele>
        <time>2018-04-28T07:03:46Z</time>
      </trkpt>
      <trkpt lat="38.1676000" lon="-3.8084080">
        <ele>384.2</ele>
        <time>2018-04-28T07:03:47Z</time>
      </trkpt>
      <trkpt lat="38.1676050" lon="-3.8084370">
        <ele>384.2</ele>
        <time>2018-04-28T07:03:48Z</time>
      </trkpt>
      <trkpt lat="38.1676120" lon="-3.8084680">
        <ele>384.4</ele>
        <time>2018-04-28T07:03:49Z</time>
      </trkpt>
      <trkpt lat="38.1676190" lon="-3.8084950">
        <ele>384.6</ele>
        <time>2018-04-28T07:03:50Z</time>
      </trkpt>
      <trkpt lat="38.1676270" lon="-3.8085220">
        <ele>384.6</ele>
        <time>2018-04-28T07:03:51Z</time>
      </trkpt>
      <trkpt lat="38.1676350" lon="-3.8085500">
        <ele>384.8</ele>
        <time>2018-04-28T07:03:52Z</time>
      </trkpt>
      <trkpt lat="38.1676430" lon="-3.8085760">
        <ele>385.0</ele>
        <time>2018-04-28T07:03:53Z</time>
      </trkpt>
      <trkpt lat="38.1676530" lon="-3.8086020">
        <ele>385.2</ele>
        <time>2018-04-28T07:03:54Z</time>
      </trkpt>
      <trkpt lat="38.1676620" lon="-3.8086270">
        <ele>385.4</ele>
        <time>2018-04-28T07:03:55Z</time>
      </trkpt>
      <trkpt lat="38.1676750" lon="-3.8086520">
        <ele>385.4</ele>
        <time>2018-04-28T07:03:56Z</time>
      </trkpt>
      <trkpt lat="38.1676840" lon="-3.8086780">
        <ele>385.6</ele>
        <time>2018-04-28T07:03:57Z</time>
      </trkpt>
      <trkpt lat="38.1676970" lon="-3.8086990">
        <ele>385.8</ele>
        <time>2018-04-28T07:03:58Z</time>
      </trkpt>
      <trkpt lat="38.1677110" lon="-3.8087210">
        <ele>385.8</ele>
        <time>2018-04-28T07:03:59Z</time>
      </trkpt>
      <trkpt lat="38.1677280" lon="-3.8087450">
        <ele>386.0</ele>
        <time>2018-04-28T07:04:00Z</time>
      </trkpt>
      <trkpt lat="38.1677420" lon="-3.8087730">
        <ele>386.0</ele>
        <time>2018-04-28T07:04:01Z</time>
      </trkpt>
      <trkpt lat="38.1677560" lon="-3.8087940">
        <ele>386.2</ele>
        <time>2018-04-28T07:04:02Z</time>
      </trkpt>
      <trkpt lat="38.1677730" lon="-3.8088170">
        <ele>386.4</ele>
        <time>2018-04-28T07:04:03Z</time>
      </trkpt>
      <trkpt lat="38.1677900" lon="-3.8088410">
        <ele>386.4</ele>
        <time>2018-04-28T07:04:04Z</time>
      </trkpt>
      <trkpt lat="38.1678070" lon="-3.8088660">
        <ele>386.6</ele>
        <time>2018-04-28T07:04:05Z</time>
      </trkpt>
      <trkpt lat="38.1678260" lon="-3.8088900">
        <ele>386.6</ele>
        <time>2018-04-28T07:04:06Z</time>
      </trkpt>
      <trkpt lat="38.1678460" lon="-3.8089130">
        <ele>386.8</ele>
        <time>2018-04-28T07:04:07Z</time>
      </trkpt>
      <trkpt lat="38.1678650" lon="-3.8089340">
        <ele>387.0</ele>
        <time>2018-04-28T07:04:08Z</time>
      </trkpt>
      <trkpt lat="38.1678830" lon="-3.8089570">
        <ele>387.2</ele>
        <time>2018-04-28T07:04:09Z</time>
      </trkpt>
      <trkpt lat="38.1679030" lon="-3.8089800">
        <ele>387.4</ele>
        <time>2018-04-28T07:04:10Z</time>
      </trkpt>
      <trkpt lat="38.1679240" lon="-3.8090060">
        <ele>387.6</ele>
        <time>2018-04-28T07:04:11Z</time>
      </trkpt>
      <trkpt lat="38.1679410" lon="-3.8090330">
        <ele>387.8</ele>
        <time>2018-04-28T07:04:12Z</time>
      </trkpt>
      <trkpt lat="38.1679590" lon="-3.8090590">
        <ele>388.0</ele>
        <time>2018-04-28T07:04:13Z</time>
      </trkpt>
      <trkpt lat="38.1679750" lon="-3.8090840">
        <ele>388.2</ele>
        <time>2018-04-28T07:04:14Z</time>
      </trkpt>
      <trkpt lat="38.1679910" lon="-3.8091090">
        <ele>388.2</ele>
        <time>2018-04-28T07:04:15Z</time>
      </trkpt>
      <trkpt lat="38.1680090" lon="-3.8091340">
        <ele>388.4</ele>
        <time>2018-04-28T07:04:16Z</time>
      </trkpt>
      <trkpt lat="38.1680280" lon="-3.8091570">
        <ele>388.4</ele>
        <time>2018-04-28T07:04:17Z</time>
      </trkpt>
      <trkpt lat="38.1680440" lon="-3.8091830">
        <ele>388.6</ele>
        <time>2018-04-28T07:04:18Z</time>
      </trkpt>
      <trkpt lat="38.1680610" lon="-3.8092080">
        <ele>388.8</ele>
        <time>2018-04-28T07:04:19Z</time>
      </trkpt>
      <trkpt lat="38.1680810" lon="-3.8092320">
        <ele>388.8</ele>
        <time>2018-04-28T07:04:20Z</time>
      </trkpt>
      <trkpt lat="38.1680990" lon="-3.8092550">
        <ele>389.0</ele>
        <time>2018-04-28T07:04:21Z</time>
      </trkpt>
      <trkpt lat="38.1681160" lon="-3.8092810">
        <ele>389.0</ele>
        <time>2018-04-28T07:04:22Z</time>
      </trkpt>
      <trkpt lat="38.1681320" lon="-3.8093080">
        <ele>389.2</ele>
        <time>2018-04-28T07:04:23Z</time>
      </trkpt>
      <trkpt lat="38.1681500" lon="-3.8093350">
        <ele>389.2</ele>
        <time>2018-04-28T07:04:24Z</time>
      </trkpt>
      <trkpt lat="38.1681750" lon="-3.8093600">
        <ele>389.2</ele>
        <time>2018-04-28T07:04:25Z</time>
      </trkpt>
      <trkpt lat="38.1681960" lon="-3.8093850">
        <ele>389.4</ele>
        <time>2018-04-28T07:04:26Z</time>
      </trkpt>
      <trkpt lat="38.1682180" lon="-3.8094100">
        <ele>389.4</ele>
        <time>2018-04-28T07:04:27Z</time>
      </trkpt>
      <trkpt lat="38.1682360" lon="-3.8094320">
        <ele>389.6</ele>
        <time>2018-04-28T07:04:28Z</time>
      </trkpt>
      <trkpt lat="38.1682560" lon="-3.8094570">
        <ele>389.6</ele>
        <time>2018-04-28T07:04:29Z</time>
      </trkpt>
      <trkpt lat="38.1682780" lon="-3.8094830">
        <ele>389.8</ele>
        <time>2018-04-28T07:04:30Z</time>
      </trkpt>
      <trkpt lat="38.1682970" lon="-3.8095100">
        <ele>389.8</ele>
        <time>2018-04-28T07:04:31Z</time>
      </trkpt>
      <trkpt lat="38.1683140" lon="-3.8095380">
        <ele>389.8</ele>
        <time>2018-04-28T07:04:32Z</time>
      </trkpt>
      <trkpt lat="38.1683290" lon="-3.8095690">
        <ele>390.0</ele>
        <time>2018-04-28T07:04:33Z</time>
      </trkpt>
      <trkpt lat="38.1683460" lon="-3.8096000">
        <ele>390.0</ele>
        <time>2018-04-28T07:04:34Z</time>
      </trkpt>
      <trkpt lat="38.1683560" lon="-3.8096320">
        <ele>390.2</ele>
        <time>2018-04-28T07:04:35Z</time>
      </trkpt>
      <trkpt lat="38.1683760" lon="-3.8096610">
        <ele>390.2</ele>
        <time>2018-04-28T07:04:36Z</time>
      </trkpt>
      <trkpt lat="38.1684010" lon="-3.8096890">
        <ele>390.4</ele>
        <time>2018-04-28T07:04:37Z</time>
      </trkpt>
      <trkpt lat="38.1684250" lon="-3.8097180">
        <ele>390.4</ele>
        <time>2018-04-28T07:04:38Z</time>
      </trkpt>
      <trkpt lat="38.1684480" lon="-3.8097480">
        <ele>390.4</ele>
        <time>2018-04-28T07:04:39Z</time>
      </trkpt>
      <trkpt lat="38.1684750" lon="-3.8097790">
        <ele>390.4</ele>
        <time>2018-04-28T07:04:40Z</time>
      </trkpt>
      <trkpt lat="38.1685020" lon="-3.8098040">
        <ele>390.6</ele>
        <time>2018-04-28T07:04:41Z</time>
      </trkpt>
      <trkpt lat="38.1685290" lon="-3.8098280">
        <ele>390.6</ele>
        <time>2018-04-28T07:04:42Z</time>
      </trkpt>
      <trkpt lat="38.1685560" lon="-3.8098510">
        <ele>390.8</ele>
        <time>2018-04-28T07:04:43Z</time>
      </trkpt>
      <trkpt lat="38.1685830" lon="-3.8098750">
        <ele>391.0</ele>
        <time>2018-04-28T07:04:44Z</time>
      </trkpt>
      <trkpt lat="38.1686060" lon="-3.8099000">
        <ele>391.2</ele>
        <time>2018-04-28T07:04:45Z</time>
      </trkpt>
      <trkpt lat="38.1686250" lon="-3.8099270">
        <ele>391.4</ele>
        <time>2018-04-28T07:04:46Z</time>
      </trkpt>
      <trkpt lat="38.1686480" lon="-3.8099520">
        <ele>391.6</ele>
        <time>2018-04-28T07:04:47Z</time>
      </trkpt>
      <trkpt lat="38.1686650" lon="-3.8099790">
        <ele>391.8</ele>
        <time>2018-04-28T07:04:48Z</time>
      </trkpt>
      <trkpt lat="38.1686790" lon="-3.8100090">
        <ele>392.0</ele>
        <time>2018-04-28T07:04:49Z</time>
      </trkpt>
      <trkpt lat="38.1686920" lon="-3.8100410">
        <ele>392.0</ele>
        <time>2018-04-28T07:04:50Z</time>
      </trkpt>
      <trkpt lat="38.1687070" lon="-3.8100690">
        <ele>392.2</ele>
        <time>2018-04-28T07:04:51Z</time>
      </trkpt>
      <trkpt lat="38.1687180" lon="-3.8101020">
        <ele>392.4</ele>
        <time>2018-04-28T07:04:52Z</time>
      </trkpt>
      <trkpt lat="38.1687250" lon="-3.8101350">
        <ele>392.4</ele>
        <time>2018-04-28T07:04:53Z</time>
      </trkpt>
      <trkpt lat="38.1687270" lon="-3.8101710">
        <ele>392.6</ele>
        <time>2018-04-28T07:04:54Z</time>
      </trkpt>
      <trkpt lat="38.1687280" lon="-3.8102060">
        <ele>392.8</ele>
        <time>2018-04-28T07:04:55Z</time>
      </trkpt>
      <trkpt lat="38.1687310" lon="-3.8102420">
        <ele>392.8</ele>
        <time>2018-04-28T07:04:56Z</time>
      </trkpt>
      <trkpt lat="38.1687330" lon="-3.8102760">
        <ele>393.0</ele>
        <time>2018-04-28T07:04:57Z</time>
      </trkpt>
      <trkpt lat="38.1687320" lon="-3.8103110">
        <ele>393.2</ele>
        <time>2018-04-28T07:04:58Z</time>
      </trkpt>
      <trkpt lat="38.1687290" lon="-3.8103450">
        <ele>393.4</ele>
        <time>2018-04-28T07:04:59Z</time>
      </trkpt>
      <trkpt lat="38.1687290" lon="-3.8103810">
        <ele>393.6</ele>
        <time>2018-04-28T07:05:00Z</time>
      </trkpt>
      <trkpt lat="38.1687310" lon="-3.8104130">
        <ele>393.8</ele>
        <time>2018-04-28T07:05:01Z</time>
      </trkpt>
      <trkpt lat="38.1687300" lon="-3.8104460">
        <ele>393.8</ele>
        <time>2018-04-28T07:05:02Z</time>
      </trkpt>
      <trkpt lat="38.1687320" lon="-3.8104770">
        <ele>394.0</ele>
        <time>2018-04-28T07:05:03Z</time>
      </trkpt>
      <trkpt lat="38.1687360" lon="-3.8105100">
        <ele>394.2</ele>
        <time>2018-04-28T07:05:04Z</time>
      </trkpt>
      <trkpt lat="38.1687410" lon="-3.8105400">
        <ele>394.4</ele>
        <time>2018-04-28T07:05:05Z</time>
      </trkpt>
      <trkpt lat="38.1687460" lon="-3.8105720">
        <ele>394.6</ele>
        <time>2018-04-28T07:05:06Z</time>
      </trkpt>
      <trkpt lat="38.1687520" lon="-3.8106030">
        <ele>394.6</ele>
        <time>2018-04-28T07:05:07Z</time>
      </trkpt>
      <trkpt lat="38.1687590" lon="-3.8106310">
        <ele>394.8</ele>
        <time>2018-04-28T07:05:08Z</time>
      </trkpt>
      <trkpt lat="38.1687680" lon="-3.8106560">
        <ele>395.0</ele>
        <time>2018-04-28T07:05:09Z</time>
      </trkpt>
      <trkpt lat="38.1687770" lon="-3.8106830">
        <ele>395.2</ele>
        <time>2018-04-28T07:05:10Z</time>
      </trkpt>
      <trkpt lat="38.1687870" lon="-3.8107120">
        <ele>395.4</ele>
        <time>2018-04-28T07:05:11Z</time>
      </trkpt>
      <trkpt lat="38.1687990" lon="-3.8107400">
        <ele>395.6</ele>
        <time>2018-04-28T07:05:12Z</time>
      </trkpt>
      <trkpt lat="38.1688140" lon="-3.8107660">
        <ele>395.8</ele>
        <time>2018-04-28T07:05:13Z</time>
      </trkpt>
      <trkpt lat="38.1688270" lon="-3.8107920">
        <ele>396.0</ele>
        <time>2018-04-28T07:05:14Z</time>
      </trkpt>
      <trkpt lat="38.1688410" lon="-3.8108190">
        <ele>396.0</ele>
        <time>2018-04-28T07:05:15Z</time>
      </trkpt>
      <trkpt lat="38.1688510" lon="-3.8108450">
        <ele>396.2</ele>
        <time>2018-04-28T07:05:16Z</time>
      </trkpt>
      <trkpt lat="38.1688620" lon="-3.8108680">
        <ele>396.4</ele>
        <time>2018-04-28T07:05:17Z</time>
      </trkpt>
      <trkpt lat="38.1688730" lon="-3.8108920">
        <ele>396.6</ele>
        <time>2018-04-28T07:05:18Z</time>
      </trkpt>
      <trkpt lat="38.1688850" lon="-3.8109140">
        <ele>396.8</ele>
        <time>2018-04-28T07:05:19Z</time>
      </trkpt>
      <trkpt lat="38.1688980" lon="-3.8109350">
        <ele>396.8</ele>
        <time>2018-04-28T07:05:20Z</time>
      </trkpt>
      <trkpt lat="38.1689090" lon="-3.8109600">
        <ele>397.0</ele>
        <time>2018-04-28T07:05:21Z</time>
      </trkpt>
      <trkpt lat="38.1689240" lon="-3.8109750">
        <ele>397.2</ele>
        <time>2018-04-28T07:05:22Z</time>
      </trkpt>
      <trkpt lat="38.1689400" lon="-3.8109940">
        <ele>397.4</ele>
        <time>2018-04-28T07:05:23Z</time>
      </trkpt>
      <trkpt lat="38.1689540" lon="-3.8110130">
        <ele>397.6</ele>
        <time>2018-04-28T07:05:24Z</time>
      </trkpt>
      <trkpt lat="38.1689670" lon="-3.8110400">
        <ele>397.6</ele>
        <time>2018-04-28T07:05:25Z</time>
      </trkpt>
      <trkpt lat="38.1689810" lon="-3.8110620">
        <ele>397.8</ele>
        <time>2018-04-28T07:05:26Z</time>
      </trkpt>
      <trkpt lat="38.1689930" lon="-3.8110840">
        <ele>398.0</ele>
        <time>2018-04-28T07:05:27Z</time>
      </trkpt>
      <trkpt lat="38.1690050" lon="-3.8111070">
        <ele>398.0</ele>
        <time>2018-04-28T07:05:28Z</time>
      </trkpt>
      <trkpt lat="38.1690190" lon="-3.8111260">
        <ele>398.4</ele>
        <time>2018-04-28T07:05:29Z</time>
      </trkpt>
      <trkpt lat="38.1690360" lon="-3.8111410">
        <ele>398.6</ele>
        <time>2018-04-28T07:05:30Z</time>
      </trkpt>
      <trkpt lat="38.1690550" lon="-3.8111560">
        <ele>398.6</ele>
        <time>2018-04-28T07:05:31Z</time>
      </trkpt>
      <trkpt lat="38.1690740" lon="-3.8111730">
        <ele>398.8</ele>
        <time>2018-04-28T07:05:32Z</time>
      </trkpt>
      <trkpt lat="38.1690950" lon="-3.8111860">
        <ele>398.8</ele>
        <time>2018-04-28T07:05:33Z</time>
      </trkpt>
      <trkpt lat="38.1691160" lon="-3.8111920">
        <ele>399.0</ele>
        <time>2018-04-28T07:05:34Z</time>
      </trkpt>
      <trkpt lat="38.1691380" lon="-3.8111950">
        <ele>399.2</ele>
        <time>2018-04-28T07:05:35Z</time>
      </trkpt>
      <trkpt lat="38.1691590" lon="-3.8111960">
        <ele>399.2</ele>
        <time>2018-04-28T07:05:36Z</time>
      </trkpt>
      <trkpt lat="38.1691790" lon="-3.8111950">
        <ele>399.4</ele>
        <time>2018-04-28T07:05:37Z</time>
      </trkpt>
      <trkpt lat="38.1691990" lon="-3.8111910">
        <ele>399.4</ele>
        <time>2018-04-28T07:05:38Z</time>
      </trkpt>
      <trkpt lat="38.1692210" lon="-3.8111840">
        <ele>399.6</ele>
        <time>2018-04-28T07:05:39Z</time>
      </trkpt>
      <trkpt lat="38.1692430" lon="-3.8111760">
        <ele>399.6</ele>
        <time>2018-04-28T07:05:40Z</time>
      </trkpt>
      <trkpt lat="38.1692630" lon="-3.8111640">
        <ele>399.8</ele>
        <time>2018-04-28T07:05:41Z</time>
      </trkpt>
      <trkpt lat="38.1692810" lon="-3.8111490">
        <ele>399.8</ele>
        <time>2018-04-28T07:05:42Z</time>
      </trkpt>
      <trkpt lat="38.1692990" lon="-3.8111320">
        <ele>399.8</ele>
        <time>2018-04-28T07:05:43Z</time>
      </trkpt>
      <trkpt lat="38.1693150" lon="-3.8111150">
        <ele>399.8</ele>
        <time>2018-04-28T07:05:44Z</time>
      </trkpt>
      <trkpt lat="38.1693310" lon="-3.8110970">
        <ele>400.0</ele>
        <time>2018-04-28T07:05:45Z</time>
      </trkpt>
      <trkpt lat="38.1693470" lon="-3.8110770">
        <ele>400.0</ele>
        <time>2018-04-28T07:05:46Z</time>
      </trkpt>
      <trkpt lat="38.1693650" lon="-3.8110610">
        <ele>400.0</ele>
        <time>2018-04-28T07:05:47Z</time>
      </trkpt>
      <trkpt lat="38.1693840" lon="-3.8110430">
        <ele>400.0</ele>
        <time>2018-04-28T07:05:48Z</time>
      </trkpt>
      <trkpt lat="38.1694030" lon="-3.8110230">
        <ele>400.0</ele>
        <time>2018-04-28T07:05:49Z</time>
      </trkpt>
      <trkpt lat="38.1694250" lon="-3.8110070">
        <ele>400.0</ele>
        <time>2018-04-28T07:05:50Z</time>
      </trkpt>
      <trkpt lat="38.1694470" lon="-3.8109860">
        <ele>400.0</ele>
        <time>2018-04-28T07:05:51Z</time>
      </trkpt>
      <trkpt lat="38.1694740" lon="-3.8109650">
        <ele>400.0</ele>
        <time>2018-04-28T07:05:52Z</time>
      </trkpt>
      <trkpt lat="38.1695030" lon="-3.8109440">
        <ele>399.8</ele>
        <time>2018-04-28T07:05:53Z</time>
      </trkpt>
      <trkpt lat="38.1695320" lon="-3.8109240">
        <ele>399.8</ele>
        <time>2018-04-28T07:05:54Z</time>
      </trkpt>
      <trkpt lat="38.1695610" lon="-3.8109030">
        <ele>399.8</ele>
        <time>2018-04-28T07:05:55Z</time>
      </trkpt>
      <trkpt lat="38.1695890" lon="-3.8108820">
        <ele>399.8</ele>
        <time>2018-04-28T07:05:56Z</time>
      </trkpt>
      <trkpt lat="38.1696190" lon="-3.8108590">
        <ele>399.8</ele>
        <time>2018-04-28T07:05:57Z</time>
      </trkpt>
      <trkpt lat="38.1696510" lon="-3.8108350">
        <ele>399.8</ele>
        <time>2018-04-28T07:05:58Z</time>
      </trkpt>
      <trkpt lat="38.1696850" lon="-3.8108080">
        <ele>399.6</ele>
        <time>2018-04-28T07:05:59Z</time>
      </trkpt>
      <trkpt lat="38.1697230" lon="-3.8107820">
        <ele>399.4</ele>
        <time>2018-04-28T07:06:00Z</time>
      </trkpt>
      <trkpt lat="38.1697640" lon="-3.8107580">
        <ele>399.4</ele>
        <time>2018-04-28T07:06:01Z</time>
      </trkpt>
      <trkpt lat="38.1698080" lon="-3.8107390">
        <ele>399.4</ele>
        <time>2018-04-28T07:06:02Z</time>
      </trkpt>
      <trkpt lat="38.1698560" lon="-3.8107300">
        <ele>399.2</ele>
        <time>2018-04-28T07:06:03Z</time>
      </trkpt>
      <trkpt lat="38.1699050" lon="-3.8107240">
        <ele>399.2</ele>
        <time>2018-04-28T07:06:04Z</time>
      </trkpt>
      <trkpt lat="38.1699590" lon="-3.8107230">
        <ele>399.0</ele>
        <time>2018-04-28T07:06:05Z</time>
      </trkpt>
      <trkpt lat="38.1700140" lon="-3.8107220">
        <ele>398.8</ele>
        <time>2018-04-28T07:06:06Z</time>
      </trkpt>
      <trkpt lat="38.1700750" lon="-3.8107210">
        <ele>398.4</ele>
        <time>2018-04-28T07:06:07Z</time>
      </trkpt>
      <trkpt lat="38.1701370" lon="-3.8107200">
        <ele>398.2</ele>
        <time>2018-04-28T07:06:08Z</time>
      </trkpt>
      <trkpt lat="38.1701970" lon="-3.8107200">
        <ele>398.0</ele>
        <time>2018-04-28T07:06:09Z</time>
      </trkpt>
      <trkpt lat="38.1702610" lon="-3.8107310">
        <ele>397.8</ele>
        <time>2018-04-28T07:06:10Z</time>
      </trkpt>
      <trkpt lat="38.1703200" lon="-3.8107600">
        <ele>397.4</ele>
        <time>2018-04-28T07:06:11Z</time>
      </trkpt>
      <trkpt lat="38.1703760" lon="-3.8107990">
        <ele>397.2</ele>
        <time>2018-04-28T07:06:12Z</time>
      </trkpt>
      <trkpt lat="38.1704290" lon="-3.8108470">
        <ele>396.8</ele>
        <time>2018-04-28T07:06:13Z</time>
      </trkpt>
      <trkpt lat="38.1704780" lon="-3.8109050">
        <ele>396.4</ele>
        <time>2018-04-28T07:06:14Z</time>
      </trkpt>
      <trkpt lat="38.1705200" lon="-3.8109760">
        <ele>396.0</ele>
        <time>2018-04-28T07:06:15Z</time>
      </trkpt>
      <trkpt lat="38.1705560" lon="-3.8110520">
        <ele>395.6</ele>
        <time>2018-04-28T07:06:16Z</time>
      </trkpt>
      <trkpt lat="38.1705830" lon="-3.8111430">
        <ele>395.0</ele>
        <time>2018-04-28T07:06:17Z</time>
      </trkpt>
      <trkpt lat="38.1705940" lon="-3.8112420">
        <ele>394.6</ele>
        <time>2018-04-28T07:06:18Z</time>
      </trkpt>
      <trkpt lat="38.1705940" lon="-3.8113450">
        <ele>394.2</ele>
        <time>2018-04-28T07:06:19Z</time>
      </trkpt>
      <trkpt lat="38.1705880" lon="-3.8114520">
        <ele>393.4</ele>
        <time>2018-04-28T07:06:20Z</time>
      </trkpt>
      <trkpt lat="38.1705800" lon="-3.8115600">
        <ele>392.8</ele>
        <time>2018-04-28T07:06:21Z</time>
      </trkpt>
      <trkpt lat="38.1705760" lon="-3.8116750">
        <ele>392.0</ele>
        <time>2018-04-28T07:06:22Z</time>
      </trkpt>
      <trkpt lat="38.1705670" lon="-3.8117920">
        <ele>391.4</ele>
        <time>2018-04-28T07:06:23Z</time>
      </trkpt>
      <trkpt lat="38.1705540" lon="-3.8119080">
        <ele>390.8</ele>
        <time>2018-04-28T07:06:24Z</time>
      </trkpt>
      <trkpt lat="38.1705360" lon="-3.8120250">
        <ele>390.2</ele>
        <time>2018-04-28T07:06:25Z</time>
      </trkpt>
      <trkpt lat="38.1705120" lon="-3.8121400">
        <ele>389.4</ele>
        <time>2018-04-28T07:06:26Z</time>
      </trkpt>
      <trkpt lat="38.1704790" lon="-3.8122490">
        <ele>389.0</ele>
        <time>2018-04-28T07:06:27Z</time>
      </trkpt>
      <trkpt lat="38.1704370" lon="-3.8123560">
        <ele>388.0</ele>
        <time>2018-04-28T07:06:28Z</time>
      </trkpt>
      <trkpt lat="38.1704050" lon="-3.8124690">
        <ele>387.6</ele>
        <time>2018-04-28T07:06:29Z</time>
      </trkpt>
      <trkpt lat="38.1703820" lon="-3.8125900">
        <ele>387.0</ele>
        <time>2018-04-28T07:06:30Z</time>
      </trkpt>
      <trkpt lat="38.1703590" lon="-3.8127120">
        <ele>386.2</ele>
        <time>2018-04-28T07:06:31Z</time>
      </trkpt>
      <trkpt lat="38.1703350" lon="-3.8128370">
        <ele>385.6</ele>
        <time>2018-04-28T07:06:32Z</time>
      </trkpt>
      <trkpt lat="38.1703090" lon="-3.8129550">
        <ele>384.8</ele>
        <time>2018-04-28T07:06:33Z</time>
      </trkpt>
      <trkpt lat="38.1702830" lon="-3.8130570">
        <ele>383.8</ele>
        <time>2018-04-28T07:06:34Z</time>
      </trkpt>
      <trkpt lat="38.1702530" lon="-3.8131440">
        <ele>383.0</ele>
        <time>2018-04-28T07:06:35Z</time>
      </trkpt>
      <trkpt lat="38.1702180" lon="-3.8132240">
        <ele>382.2</ele>
        <time>2018-04-28T07:06:36Z</time>
      </trkpt>
      <trkpt lat="38.1701730" lon="-3.8133060">
        <ele>381.4</ele>
        <time>2018-04-28T07:06:37Z</time>
      </trkpt>
      <trkpt lat="38.1701290" lon="-3.8133870">
        <ele>380.4</ele>
        <time>2018-04-28T07:06:38Z</time>
      </trkpt>
      <trkpt lat="38.1700930" lon="-3.8134610">
        <ele>379.6</ele>
        <time>2018-04-28T07:06:39Z</time>
      </trkpt>
      <trkpt lat="38.1700630" lon="-3.8135350">
        <ele>379.0</ele>
        <time>2018-04-28T07:06:40Z</time>
      </trkpt>
      <trkpt lat="38.1700460" lon="-3.8136140">
        <ele>378.2</ele>
        <time>2018-04-28T07:06:41Z</time>
      </trkpt>
      <trkpt lat="38.1700470" lon="-3.8136980">
        <ele>377.8</ele>
        <time>2018-04-28T07:06:42Z</time>
      </trkpt>
      <trkpt lat="38.1700650" lon="-3.8137890">
        <ele>377.0</ele>
        <time>2018-04-28T07:06:43Z</time>
      </trkpt>
      <trkpt lat="38.1700950" lon="-3.8138780">
        <ele>376.4</ele>
        <time>2018-04-28T07:06:44Z</time>
      </trkpt>
      <trkpt lat="38.1701290" lon="-3.8139720">
        <ele>375.8</ele>
        <time>2018-04-28T07:06:45Z</time>
      </trkpt>
      <trkpt lat="38.1701570" lon="-3.8140740">
        <ele>375.0</ele>
        <time>2018-04-28T07:06:46Z</time>
      </trkpt>
      <trkpt lat="38.1701790" lon="-3.8141840">
        <ele>374.2</ele>
        <time>2018-04-28T07:06:47Z</time>
      </trkpt>
      <trkpt lat="38.1701900" lon="-3.8143030">
        <ele>373.2</ele>
        <time>2018-04-28T07:06:48Z</time>
      </trkpt>
      <trkpt lat="38.1701880" lon="-3.8144240">
        <ele>372.0</ele>
        <time>2018-04-28T07:06:49Z</time>
      </trkpt>
      <trkpt lat="38.1701780" lon="-3.8145330">
        <ele>370.8</ele>
        <time>2018-04-28T07:06:50Z</time>
      </trkpt>
      <trkpt lat="38.1701710" lon="-3.8146300">
        <ele>369.8</ele>
        <time>2018-04-28T07:06:51Z</time>
      </trkpt>
      <trkpt lat="38.1701810" lon="-3.8147250">
        <ele>369.0</ele>
        <time>2018-04-28T07:06:52Z</time>
      </trkpt>
      <trkpt lat="38.1702180" lon="-3.8147890">
        <ele>368.2</ele>
        <time>2018-04-28T07:06:53Z</time>
      </trkpt>
      <trkpt lat="38.1702540" lon="-3.8148530">
        <ele>367.4</ele>
        <time>2018-04-28T07:06:54Z</time>
      </trkpt>
      <trkpt lat="38.1703260" lon="-3.8149820">
        <ele>366.8</ele>
        <time>2018-04-28T07:06:55Z</time>
      </trkpt>
      <trkpt lat="38.1703960" lon="-3.8150470">
        <ele>366.4</ele>
        <time>2018-04-28T07:06:56Z</time>
      </trkpt>
      <trkpt lat="38.1704620" lon="-3.8151100">
        <ele>366.4</ele>
        <time>2018-04-28T07:06:57Z</time>
      </trkpt>
      <trkpt lat="38.1705220" lon="-3.8151710">
        <ele>366.4</ele>
        <time>2018-04-28T07:06:58Z</time>
      </trkpt>
      <trkpt lat="38.1705750" lon="-3.8152290">
        <ele>366.8</ele>
        <time>2018-04-28T07:06:59Z</time>
      </trkpt>
      <trkpt lat="38.1706150" lon="-3.8152850">
        <ele>367.2</ele>
        <time>2018-04-28T07:07:00Z</time>
      </trkpt>
      <trkpt lat="38.1706460" lon="-3.8153480">
        <ele>367.6</ele>
        <time>2018-04-28T07:07:01Z</time>
      </trkpt>
      <trkpt lat="38.1706720" lon="-3.8153990">
        <ele>368.0</ele>
        <time>2018-04-28T07:07:02Z</time>
      </trkpt>
      <trkpt lat="38.1706970" lon="-3.8154470">
        <ele>368.2</ele>
        <time>2018-04-28T07:07:03Z</time>
      </trkpt>
      <trkpt lat="38.1707190" lon="-3.8154960">
        <ele>368.8</ele>
        <time>2018-04-28T07:07:04Z</time>
      </trkpt>
      <trkpt lat="38.1707370" lon="-3.8155380">
        <ele>369.0</ele>
        <time>2018-04-28T07:07:05Z</time>
      </trkpt>
      <trkpt lat="38.1707510" lon="-3.8155810">
        <ele>369.2</ele>
        <time>2018-04-28T07:07:06Z</time>
      </trkpt>
      <trkpt lat="38.1707650" lon="-3.8156150">
        <ele>369.4</ele>
        <time>2018-04-28T07:07:07Z</time>
      </trkpt>
      <trkpt lat="38.1707800" lon="-3.8156460">
        <ele>369.8</ele>
        <time>2018-04-28T07:07:08Z</time>
      </trkpt>
      <trkpt lat="38.1707940" lon="-3.8156770">
        <ele>370.0</ele>
        <time>2018-04-28T07:07:09Z</time>
      </trkpt>
      <trkpt lat="38.1708090" lon="-3.8157100">
        <ele>370.2</ele>
        <time>2018-04-28T07:07:10Z</time>
      </trkpt>
      <trkpt lat="38.1708250" lon="-3.8157400">
        <ele>370.6</ele>
        <time>2018-04-28T07:07:11Z</time>
      </trkpt>
      <trkpt lat="38.1708410" lon="-3.8157680">
        <ele>370.8</ele>
        <time>2018-04-28T07:07:12Z</time>
      </trkpt>
      <trkpt lat="38.1708550" lon="-3.8157990">
        <ele>371.2</ele>
        <time>2018-04-28T07:07:13Z</time>
      </trkpt>
      <trkpt lat="38.1708690" lon="-3.8158300">
        <ele>371.4</ele>
        <time>2018-04-28T07:07:14Z</time>
      </trkpt>
      <trkpt lat="38.1708820" lon="-3.8158640">
        <ele>371.6</ele>
        <time>2018-04-28T07:07:15Z</time>
      </trkpt>
      <trkpt lat="38.1708950" lon="-3.8158920">
        <ele>372.0</ele>
        <time>2018-04-28T07:07:16Z</time>
      </trkpt>
      <trkpt lat="38.1709070" lon="-3.8159160">
        <ele>372.2</ele>
        <time>2018-04-28T07:07:17Z</time>
      </trkpt>
      <trkpt lat="38.1709180" lon="-3.8159420">
        <ele>372.4</ele>
        <time>2018-04-28T07:07:18Z</time>
      </trkpt>
      <trkpt lat="38.1709270" lon="-3.8159710">
        <ele>372.6</ele>
        <time>2018-04-28T07:07:19Z</time>
      </trkpt>
      <trkpt lat="38.1709350" lon="-3.8159990">
        <ele>372.8</ele>
        <time>2018-04-28T07:07:20Z</time>
      </trkpt>
      <trkpt lat="38.1709450" lon="-3.8160250">
        <ele>373.0</ele>
        <time>2018-04-28T07:07:21Z</time>
      </trkpt>
      <trkpt lat="38.1709570" lon="-3.8160510">
        <ele>373.2</ele>
        <time>2018-04-28T07:07:22Z</time>
      </trkpt>
      <trkpt lat="38.1709700" lon="-3.8160720">
        <ele>373.4</ele>
        <time>2018-04-28T07:07:23Z</time>
      </trkpt>
      <trkpt lat="38.1709840" lon="-3.8160940">
        <ele>373.4</ele>
        <time>2018-04-28T07:07:24Z</time>
      </trkpt>
      <trkpt lat="38.1709950" lon="-3.8161170">
        <ele>373.8</ele>
        <time>2018-04-28T07:07:25Z</time>
      </trkpt>
      <trkpt lat="38.1710070" lon="-3.8161420">
        <ele>374.0</ele>
        <time>2018-04-28T07:07:26Z</time>
      </trkpt>
      <trkpt lat="38.1710190" lon="-3.8161640">
        <ele>374.2</ele>
        <time>2018-04-28T07:07:27Z</time>
      </trkpt>
      <trkpt lat="38.1710310" lon="-3.8161860">
        <ele>374.4</ele>
        <time>2018-04-28T07:07:28Z</time>
      </trkpt>
      <trkpt lat="38.1710420" lon="-3.8162070">
        <ele>374.6</ele>
        <time>2018-04-28T07:07:29Z</time>
      </trkpt>
      <trkpt lat="38.1710530" lon="-3.8162310">
        <ele>374.8</ele>
        <time>2018-04-28T07:07:30Z</time>
      </trkpt>
      <trkpt lat="38.1710620" lon="-3.8162560">
        <ele>375.0</ele>
        <time>2018-04-28T07:07:31Z</time>
      </trkpt>
      <trkpt lat="38.1710710" lon="-3.8162830">
        <ele>375.2</ele>
        <time>2018-04-28T07:07:32Z</time>
      </trkpt>
      <trkpt lat="38.1710800" lon="-3.8163090">
        <ele>375.2</ele>
        <time>2018-04-28T07:07:33Z</time>
      </trkpt>
      <trkpt lat="38.1710890" lon="-3.8163360">
        <ele>375.4</ele>
        <time>2018-04-28T07:07:34Z</time>
      </trkpt>
      <trkpt lat="38.1710960" lon="-3.8163600">
        <ele>375.4</ele>
        <time>2018-04-28T07:07:35Z</time>
      </trkpt>
      <trkpt lat="38.1711020" lon="-3.8163880">
        <ele>375.6</ele>
        <time>2018-04-28T07:07:36Z</time>
      </trkpt>
      <trkpt lat="38.1711110" lon="-3.8164150">
        <ele>375.6</ele>
        <time>2018-04-28T07:07:37Z</time>
      </trkpt>
      <trkpt lat="38.1711160" lon="-3.8164410">
        <ele>375.8</ele>
        <time>2018-04-28T07:07:38Z</time>
      </trkpt>
      <trkpt lat="38.1711200" lon="-3.8164700">
        <ele>376.0</ele>
        <time>2018-04-28T07:07:39Z</time>
      </trkpt>
      <trkpt lat="38.1711230" lon="-3.8164980">
        <ele>376.0</ele>
        <time>2018-04-28T07:07:40Z</time>
      </trkpt>
      <trkpt lat="38.1711210" lon="-3.8165230">
        <ele>376.2</ele>
        <time>2018-04-28T07:07:41Z</time>
      </trkpt>
      <trkpt lat="38.1711200" lon="-3.8165500">
        <ele>376.2</ele>
        <time>2018-04-28T07:07:42Z</time>
      </trkpt>
      <trkpt lat="38.1711200" lon="-3.8165790">
        <ele>376.4</ele>
        <time>2018-04-28T07:07:43Z</time>
      </trkpt>
      <trkpt lat="38.1711210" lon="-3.8166070">
        <ele>376.4</ele>
        <time>2018-04-28T07:07:44Z</time>
      </trkpt>
      <trkpt lat="38.1711220" lon="-3.8166370">
        <ele>376.6</ele>
        <time>2018-04-28T07:07:45Z</time>
      </trkpt>
      <trkpt lat="38.1711210" lon="-3.8166650">
        <ele>376.6</ele>
        <time>2018-04-28T07:07:46Z</time>
      </trkpt>
      <trkpt lat="38.1711220" lon="-3.8166940">
        <ele>376.8</ele>
        <time>2018-04-28T07:07:47Z</time>
      </trkpt>
      <trkpt lat="38.1711230" lon="-3.8167220">
        <ele>376.8</ele>
        <time>2018-04-28T07:07:48Z</time>
      </trkpt>
      <trkpt lat="38.1711260" lon="-3.8167510">
        <ele>377.0</ele>
        <time>2018-04-28T07:07:49Z</time>
      </trkpt>
      <trkpt lat="38.1711290" lon="-3.8167820">
        <ele>377.0</ele>
        <time>2018-04-28T07:07:50Z</time>
      </trkpt>
      <trkpt lat="38.1711310" lon="-3.8168120">
        <ele>377.2</ele>
        <time>2018-04-28T07:07:51Z</time>
      </trkpt>
      <trkpt lat="38.1711340" lon="-3.8168400">
        <ele>377.2</ele>
        <time>2018-04-28T07:07:52Z</time>
      </trkpt>
      <trkpt lat="38.1711350" lon="-3.8168700">
        <ele>377.4</ele>
        <time>2018-04-28T07:07:53Z</time>
      </trkpt>
      <trkpt lat="38.1711350" lon="-3.8168990">
        <ele>377.6</ele>
        <time>2018-04-28T07:07:54Z</time>
      </trkpt>
      <trkpt lat="38.1711330" lon="-3.8169270">
        <ele>377.6</ele>
        <time>2018-04-28T07:07:55Z</time>
      </trkpt>
      <trkpt lat="38.1711310" lon="-3.8169570">
        <ele>377.8</ele>
        <time>2018-04-28T07:07:56Z</time>
      </trkpt>
      <trkpt lat="38.1711260" lon="-3.8169900">
        <ele>378.0</ele>
        <time>2018-04-28T07:07:57Z</time>
      </trkpt>
      <trkpt lat="38.1711240" lon="-3.8170200">
        <ele>378.2</ele>
        <time>2018-04-28T07:07:58Z</time>
      </trkpt>
      <trkpt lat="38.1711240" lon="-3.8170480">
        <ele>378.2</ele>
        <time>2018-04-28T07:07:59Z</time>
      </trkpt>
      <trkpt lat="38.1711230" lon="-3.8170760">
        <ele>378.4</ele>
        <time>2018-04-28T07:08:00Z</time>
      </trkpt>
      <trkpt lat="38.1711220" lon="-3.8171050">
        <ele>378.6</ele>
        <time>2018-04-28T07:08:01Z</time>
      </trkpt>
      <trkpt lat="38.1711200" lon="-3.8171340">
        <ele>378.6</ele>
        <time>2018-04-28T07:08:02Z</time>
      </trkpt>
      <trkpt lat="38.1711190" lon="-3.8171620">
        <ele>378.8</ele>
        <time>2018-04-28T07:08:03Z</time>
      </trkpt>
      <trkpt lat="38.1711180" lon="-3.8171900">
        <ele>379.0</ele>
        <time>2018-04-28T07:08:04Z</time>
      </trkpt>
      <trkpt lat="38.1711170" lon="-3.8172180">
        <ele>379.0</ele>
        <time>2018-04-28T07:08:05Z</time>
      </trkpt>
      <trkpt lat="38.1711160" lon="-3.8172460">
        <ele>379.2</ele>
        <time>2018-04-28T07:08:06Z</time>
      </trkpt>
      <trkpt lat="38.1711140" lon="-3.8172730">
        <ele>379.2</ele>
        <time>2018-04-28T07:08:07Z</time>
      </trkpt>
      <trkpt lat="38.1711130" lon="-3.8172990">
        <ele>379.4</ele>
        <time>2018-04-28T07:08:08Z</time>
      </trkpt>
      <trkpt lat="38.1711100" lon="-3.8173280">
        <ele>379.6</ele>
        <time>2018-04-28T07:08:09Z</time>
      </trkpt>
      <trkpt lat="38.1711080" lon="-3.8173570">
        <ele>379.8</ele>
        <time>2018-04-28T07:08:10Z</time>
      </trkpt>
      <trkpt lat="38.1711070" lon="-3.8173860">
        <ele>379.8</ele>
        <time>2018-04-28T07:08:11Z</time>
      </trkpt>
      <trkpt lat="38.1711070" lon="-3.8174140">
        <ele>380.0</ele>
        <time>2018-04-28T07:08:12Z</time>
      </trkpt>
      <trkpt lat="38.1711060" lon="-3.8174420">
        <ele>380.2</ele>
        <time>2018-04-28T07:08:13Z</time>
      </trkpt>
      <trkpt lat="38.1711050" lon="-3.8174720">
        <ele>380.4</ele>
        <time>2018-04-28T07:08:14Z</time>
      </trkpt>
      <trkpt lat="38.1711030" lon="-3.8174990">
        <ele>380.6</ele>
        <time>2018-04-28T07:08:15Z</time>
      </trkpt>
      <trkpt lat="38.1711020" lon="-3.8175180">
        <ele>380.8</ele>
        <time>2018-04-28T07:08:16Z</time>
      </trkpt>
      <trkpt lat="38.1711030" lon="-3.8175460">
        <ele>380.8</ele>
        <time>2018-04-28T07:08:17Z</time>
      </trkpt>
      <trkpt lat="38.1711010" lon="-3.8175740">
        <ele>381.0</ele>
        <time>2018-04-28T07:08:18Z</time>
      </trkpt>
      <trkpt lat="38.1710970" lon="-3.8176010">
        <ele>381.2</ele>
        <time>2018-04-28T07:08:19Z</time>
      </trkpt>
      <trkpt lat="38.1710900" lon="-3.8176300">
        <ele>381.4</ele>
        <time>2018-04-28T07:08:20Z</time>
      </trkpt>
      <trkpt lat="38.1710820" lon="-3.8176560">
        <ele>381.6</ele>
        <time>2018-04-28T07:08:21Z</time>
      </trkpt>
      <trkpt lat="38.1710740" lon="-3.8176820">
        <ele>381.8</ele>
        <time>2018-04-28T07:08:22Z</time>
      </trkpt>
      <trkpt lat="38.1710680" lon="-3.8177060">
        <ele>381.8</ele>
        <time>2018-04-28T07:08:23Z</time>
      </trkpt>
      <trkpt lat="38.1710600" lon="-3.8177290">
        <ele>382.0</ele>
        <time>2018-04-28T07:08:24Z</time>
      </trkpt>
      <trkpt lat="38.1710530" lon="-3.8177500">
        <ele>382.2</ele>
        <time>2018-04-28T07:08:25Z</time>
      </trkpt>
      <trkpt lat="38.1710460" lon="-3.8177780">
        <ele>382.2</ele>
        <time>2018-04-28T07:08:26Z</time>
      </trkpt>
      <trkpt lat="38.1710380" lon="-3.8178030">
        <ele>382.4</ele>
        <time>2018-04-28T07:08:27Z</time>
      </trkpt>
      <trkpt lat="38.1710330" lon="-3.8178280">
        <ele>382.6</ele>
        <time>2018-04-28T07:08:28Z</time>
      </trkpt>
      <trkpt lat="38.1710280" lon="-3.8178500">
        <ele>382.8</ele>
        <time>2018-04-28T07:08:29Z</time>
      </trkpt>
      <trkpt lat="38.1710210" lon="-3.8178730">
        <ele>383.0</ele>
        <time>2018-04-28T07:08:30Z</time>
      </trkpt>
      <trkpt lat="38.1710140" lon="-3.8178930">
        <ele>383.0</ele>
        <time>2018-04-28T07:08:31Z</time>
      </trkpt>
      <trkpt lat="38.1710060" lon="-3.8179160">
        <ele>383.2</ele>
        <time>2018-04-28T07:08:32Z</time>
      </trkpt>
      <trkpt lat="38.1709980" lon="-3.8179380">
        <ele>383.4</ele>
        <time>2018-04-28T07:08:33Z</time>
      </trkpt>
      <trkpt lat="38.1709950" lon="-3.8179340">
        <ele>383.6</ele>
        <time>2018-04-28T07:08:34Z</time>
      </trkpt>
      <trkpt lat="38.1709940" lon="-3.8179560">
        <ele>383.8</ele>
        <time>2018-04-28T07:08:35Z</time>
      </trkpt>
      <trkpt lat="38.1709880" lon="-3.8179810">
        <ele>384.0</ele>
        <time>2018-04-28T07:08:36Z</time>
      </trkpt>
      <trkpt lat="38.1709830" lon="-3.8180030">
        <ele>384.2</ele>
        <time>2018-04-28T07:08:37Z</time>
      </trkpt>
      <trkpt lat="38.1709760" lon="-3.8180250">
        <ele>384.2</ele>
        <time>2018-04-28T07:08:38Z</time>
      </trkpt>
      <trkpt lat="38.1709700" lon="-3.8180520">
        <ele>384.4</ele>
        <time>2018-04-28T07:08:39Z</time>
      </trkpt>
      <trkpt lat="38.1709640" lon="-3.8180790">
        <ele>384.6</ele>
        <time>2018-04-28T07:08:40Z</time>
      </trkpt>
      <trkpt lat="38.1709600" lon="-3.8181010">
        <ele>384.8</ele>
        <time>2018-04-28T07:08:41Z</time>
      </trkpt>
      <trkpt lat="38.1709540" lon="-3.8181260">
        <ele>385.0</ele>
        <time>2018-04-28T07:08:42Z</time>
      </trkpt>
      <trkpt lat="38.1709490" lon="-3.8181540">
        <ele>385.2</ele>
        <time>2018-04-28T07:08:43Z</time>
      </trkpt>
      <trkpt lat="38.1709460" lon="-3.8181810">
        <ele>385.4</ele>
        <time>2018-04-28T07:08:44Z</time>
      </trkpt>
      <trkpt lat="38.1709410" lon="-3.8182080">
        <ele>385.6</ele>
        <time>2018-04-28T07:08:45Z</time>
      </trkpt>
      <trkpt lat="38.1709370" lon="-3.8182330">
        <ele>385.6</ele>
        <time>2018-04-28T07:08:46Z</time>
      </trkpt>
      <trkpt lat="38.1709300" lon="-3.8182560">
        <ele>385.8</ele>
        <time>2018-04-28T07:08:47Z</time>
      </trkpt>
      <trkpt lat="38.1709200" lon="-3.8182850">
        <ele>386.0</ele>
        <time>2018-04-28T07:08:48Z</time>
      </trkpt>
      <trkpt lat="38.1709130" lon="-3.8183090">
        <ele>386.2</ele>
        <time>2018-04-28T07:08:49Z</time>
      </trkpt>
      <trkpt lat="38.1709090" lon="-3.8183340">
        <ele>386.2</ele>
        <time>2018-04-28T07:08:50Z</time>
      </trkpt>
      <trkpt lat="38.1709050" lon="-3.8183630">
        <ele>386.4</ele>
        <time>2018-04-28T07:08:51Z</time>
      </trkpt>
      <trkpt lat="38.1709010" lon="-3.8183890">
        <ele>386.6</ele>
        <time>2018-04-28T07:08:52Z</time>
      </trkpt>
      <trkpt lat="38.1708970" lon="-3.8184140">
        <ele>386.6</ele>
        <time>2018-04-28T07:08:53Z</time>
      </trkpt>
      <trkpt lat="38.1708920" lon="-3.8184390">
        <ele>386.8</ele>
        <time>2018-04-28T07:08:54Z</time>
      </trkpt>
      <trkpt lat="38.1708860" lon="-3.8184620">
        <ele>387.0</ele>
        <time>2018-04-28T07:08:55Z</time>
      </trkpt>
      <trkpt lat="38.1708780" lon="-3.8184860">
        <ele>387.0</ele>
        <time>2018-04-28T07:08:56Z</time>
      </trkpt>
      <trkpt lat="38.1708730" lon="-3.8185110">
        <ele>387.0</ele>
        <time>2018-04-28T07:08:57Z</time>
      </trkpt>
      <trkpt lat="38.1708690" lon="-3.8185360">
        <ele>387.2</ele>
        <time>2018-04-28T07:08:58Z</time>
      </trkpt>
      <trkpt lat="38.1708660" lon="-3.8185600">
        <ele>387.4</ele>
        <time>2018-04-28T07:08:59Z</time>
      </trkpt>
      <trkpt lat="38.1708660" lon="-3.8185830">
        <ele>387.6</ele>
        <time>2018-04-28T07:09:00Z</time>
      </trkpt>
      <trkpt lat="38.1708660" lon="-3.8186070">
        <ele>387.6</ele>
        <time>2018-04-28T07:09:01Z</time>
      </trkpt>
      <trkpt lat="38.1708620" lon="-3.8186310">
        <ele>387.8</ele>
        <time>2018-04-28T07:09:02Z</time>
      </trkpt>
      <trkpt lat="38.1708580" lon="-3.8186540">
        <ele>388.2</ele>
        <time>2018-04-28T07:09:03Z</time>
      </trkpt>
      <trkpt lat="38.1708570" lon="-3.8186810">
        <ele>388.2</ele>
        <time>2018-04-28T07:09:04Z</time>
      </trkpt>
      <trkpt lat="38.1708580" lon="-3.8187060">
        <ele>388.6</ele>
        <time>2018-04-28T07:09:05Z</time>
      </trkpt>
      <trkpt lat="38.1708590" lon="-3.8187310">
        <ele>388.6</ele>
        <time>2018-04-28T07:09:06Z</time>
      </trkpt>
      <trkpt lat="38.1708580" lon="-3.8187580">
        <ele>388.8</ele>
        <time>2018-04-28T07:09:07Z</time>
      </trkpt>
      <trkpt lat="38.1708600" lon="-3.8187830">
        <ele>389.0</ele>
        <time>2018-04-28T07:09:08Z</time>
      </trkpt>
      <trkpt lat="38.1708660" lon="-3.8188080">
        <ele>389.2</ele>
        <time>2018-04-28T07:09:09Z</time>
      </trkpt>
      <trkpt lat="38.1708730" lon="-3.8188320">
        <ele>389.2</ele>
        <time>2018-04-28T07:09:10Z</time>
      </trkpt>
      <trkpt lat="38.1708800" lon="-3.8188570">
        <ele>389.4</ele>
        <time>2018-04-28T07:09:11Z</time>
      </trkpt>
      <trkpt lat="38.1708860" lon="-3.8188810">
        <ele>389.6</ele>
        <time>2018-04-28T07:09:12Z</time>
      </trkpt>
      <trkpt lat="38.1708940" lon="-3.8189060">
        <ele>389.6</ele>
        <time>2018-04-28T07:09:13Z</time>
      </trkpt>
      <trkpt lat="38.1709020" lon="-3.8189260">
        <ele>389.8</ele>
        <time>2018-04-28T07:09:14Z</time>
      </trkpt>
      <trkpt lat="38.1709100" lon="-3.8189480">
        <ele>390.0</ele>
        <time>2018-04-28T07:09:15Z</time>
      </trkpt>
      <trkpt lat="38.1709160" lon="-3.8189710">
        <ele>390.0</ele>
        <time>2018-04-28T07:09:16Z</time>
      </trkpt>
      <trkpt lat="38.1709240" lon="-3.8189940">
        <ele>390.2</ele>
        <time>2018-04-28T07:09:17Z</time>
      </trkpt>
      <trkpt lat="38.1709320" lon="-3.8190150">
        <ele>390.4</ele>
        <time>2018-04-28T07:09:18Z</time>
      </trkpt>
      <trkpt lat="38.1709370" lon="-3.8190430">
        <ele>390.6</ele>
        <time>2018-04-28T07:09:19Z</time>
      </trkpt>
      <trkpt lat="38.1709430" lon="-3.8190680">
        <ele>390.6</ele>
        <time>2018-04-28T07:09:20Z</time>
      </trkpt>
      <trkpt lat="38.1709500" lon="-3.8190930">
        <ele>390.8</ele>
        <time>2018-04-28T07:09:21Z</time>
      </trkpt>
      <trkpt lat="38.1709560" lon="-3.8191140">
        <ele>391.0</ele>
        <time>2018-04-28T07:09:22Z</time>
      </trkpt>
      <trkpt lat="38.1709610" lon="-3.8191440">
        <ele>391.2</ele>
        <time>2018-04-28T07:09:23Z</time>
      </trkpt>
      <trkpt lat="38.1709630" lon="-3.8191670">
        <ele>391.2</ele>
        <time>2018-04-28T07:09:24Z</time>
      </trkpt>
      <trkpt lat="38.1709640" lon="-3.8191900">
        <ele>391.4</ele>
        <time>2018-04-28T07:09:25Z</time>
      </trkpt>
      <trkpt lat="38.1709650" lon="-3.8192160">
        <ele>391.6</ele>
        <time>2018-04-28T07:09:26Z</time>
      </trkpt>
      <trkpt lat="38.1709680" lon="-3.8192400">
        <ele>391.8</ele>
        <time>2018-04-28T07:09:27Z</time>
      </trkpt>
      <trkpt lat="38.1709730" lon="-3.8192650">
        <ele>392.0</ele>
        <time>2018-04-28T07:09:28Z</time>
      </trkpt>
      <trkpt lat="38.1709780" lon="-3.8192880">
        <ele>392.2</ele>
        <time>2018-04-28T07:09:29Z</time>
      </trkpt>
      <trkpt lat="38.1709800" lon="-3.8193150">
        <ele>392.2</ele>
        <time>2018-04-28T07:09:30Z</time>
      </trkpt>
      <trkpt lat="38.1709780" lon="-3.8193400">
        <ele>392.4</ele>
        <time>2018-04-28T07:09:31Z</time>
      </trkpt>
      <trkpt lat="38.1709770" lon="-3.8193660">
        <ele>392.6</ele>
        <time>2018-04-28T07:09:32Z</time>
      </trkpt>
      <trkpt lat="38.1709740" lon="-3.8193910">
        <ele>392.8</ele>
        <time>2018-04-28T07:09:33Z</time>
      </trkpt>
      <trkpt lat="38.1709710" lon="-3.8194180">
        <ele>393.0</ele>
        <time>2018-04-28T07:09:34Z</time>
      </trkpt>
      <trkpt lat="38.1709700" lon="-3.8194430">
        <ele>393.2</ele>
        <time>2018-04-28T07:09:35Z</time>
      </trkpt>
      <trkpt lat="38.1709690" lon="-3.8194670">
        <ele>393.2</ele>
        <time>2018-04-28T07:09:36Z</time>
      </trkpt>
      <trkpt lat="38.1709670" lon="-3.8194910">
        <ele>393.4</ele>
        <time>2018-04-28T07:09:37Z</time>
      </trkpt>
      <trkpt lat="38.1709630" lon="-3.8195150">
        <ele>393.6</ele>
        <time>2018-04-28T07:09:38Z</time>
      </trkpt>
      <trkpt lat="38.1709610" lon="-3.8195340">
        <ele>393.8</ele>
        <time>2018-04-28T07:09:39Z</time>
      </trkpt>
      <trkpt lat="38.1709570" lon="-3.8195570">
        <ele>394.0</ele>
        <time>2018-04-28T07:09:40Z</time>
      </trkpt>
      <trkpt lat="38.1709500" lon="-3.8195790">
        <ele>394.0</ele>
        <time>2018-04-28T07:09:41Z</time>
      </trkpt>
      <trkpt lat="38.1709420" lon="-3.8196020">
        <ele>394.2</ele>
        <time>2018-04-28T07:09:42Z</time>
      </trkpt>
      <trkpt lat="38.1709350" lon="-3.8196230">
        <ele>394.4</ele>
        <time>2018-04-28T07:09:43Z</time>
      </trkpt>
      <trkpt lat="38.1709270" lon="-3.8196460">
        <ele>394.4</ele>
        <time>2018-04-28T07:09:44Z</time>
      </trkpt>
      <trkpt lat="38.1709240" lon="-3.8196690">
        <ele>394.6</ele>
        <time>2018-04-28T07:09:45Z</time>
      </trkpt>
      <trkpt lat="38.1709180" lon="-3.8196890">
        <ele>394.8</ele>
        <time>2018-04-28T07:09:46Z</time>
      </trkpt>
      <trkpt lat="38.1709100" lon="-3.8197080">
        <ele>395.0</ele>
        <time>2018-04-28T07:09:47Z</time>
      </trkpt>
      <trkpt lat="38.1709020" lon="-3.8197280">
        <ele>395.2</ele>
        <time>2018-04-28T07:09:48Z</time>
      </trkpt>
      <trkpt lat="38.1708920" lon="-3.8197480">
        <ele>395.2</ele>
        <time>2018-04-28T07:09:49Z</time>
      </trkpt>
      <trkpt lat="38.1708830" lon="-3.8197630">
        <ele>395.4</ele>
        <time>2018-04-28T07:09:50Z</time>
      </trkpt>
      <trkpt lat="38.1708700" lon="-3.8197850">
        <ele>395.6</ele>
        <time>2018-04-28T07:09:51Z</time>
      </trkpt>
      <trkpt lat="38.1708590" lon="-3.8198070">
        <ele>395.8</ele>
        <time>2018-04-28T07:09:52Z</time>
      </trkpt>
      <trkpt lat="38.1708460" lon="-3.8198260">
        <ele>396.0</ele>
        <time>2018-04-28T07:09:53Z</time>
      </trkpt>
      <trkpt lat="38.1708400" lon="-3.8198450">
        <ele>396.0</ele>
        <time>2018-04-28T07:09:54Z</time>
      </trkpt>
      <trkpt lat="38.1708270" lon="-3.8198670">
        <ele>396.2</ele>
        <time>2018-04-28T07:09:55Z</time>
      </trkpt>
      <trkpt lat="38.1708100" lon="-3.8198770">
        <ele>396.2</ele>
        <time>2018-04-28T07:09:56Z</time>
      </trkpt>
      <trkpt lat="38.1707900" lon="-3.8198930">
        <ele>396.4</ele>
        <time>2018-04-28T07:09:57Z</time>
      </trkpt>
      <trkpt lat="38.1707700" lon="-3.8199060">
        <ele>396.4</ele>
        <time>2018-04-28T07:09:58Z</time>
      </trkpt>
      <trkpt lat="38.1707540" lon="-3.8199220">
        <ele>396.6</ele>
        <time>2018-04-28T07:09:59Z</time>
      </trkpt>
      <trkpt lat="38.1707360" lon="-3.8199330">
        <ele>396.8</ele>
        <time>2018-04-28T07:10:00Z</time>
      </trkpt>
      <trkpt lat="38.1707190" lon="-3.8199460">
        <ele>396.8</ele>
        <time>2018-04-28T07:10:01Z</time>
      </trkpt>
      <trkpt lat="38.1707010" lon="-3.8199570">
        <ele>397.0</ele>
        <time>2018-04-28T07:10:02Z</time>
      </trkpt>
      <trkpt lat="38.1706830" lon="-3.8199630">
        <ele>397.2</ele>
        <time>2018-04-28T07:10:03Z</time>
      </trkpt>
      <trkpt lat="38.1706670" lon="-3.8199730">
        <ele>397.2</ele>
        <time>2018-04-28T07:10:04Z</time>
      </trkpt>
      <trkpt lat="38.1706470" lon="-3.8199830">
        <ele>397.4</ele>
        <time>2018-04-28T07:10:05Z</time>
      </trkpt>
      <trkpt lat="38.1706310" lon="-3.8199940">
        <ele>397.6</ele>
        <time>2018-04-28T07:10:06Z</time>
      </trkpt>
      <trkpt lat="38.1706150" lon="-3.8200090">
        <ele>397.6</ele>
        <time>2018-04-28T07:10:07Z</time>
      </trkpt>
      <trkpt lat="38.1705970" lon="-3.8200230">
        <ele>397.8</ele>
        <time>2018-04-28T07:10:08Z</time>
      </trkpt>
      <trkpt lat="38.1705790" lon="-3.8200330">
        <ele>398.0</ele>
        <time>2018-04-28T07:10:09Z</time>
      </trkpt>
      <trkpt lat="38.1705640" lon="-3.8200480">
        <ele>398.0</ele>
        <time>2018-04-28T07:10:10Z</time>
      </trkpt>
      <trkpt lat="38.1705470" lon="-3.8200610">
        <ele>398.2</ele>
        <time>2018-04-28T07:10:11Z</time>
      </trkpt>
      <trkpt lat="38.1705330" lon="-3.8200800">
        <ele>398.4</ele>
        <time>2018-04-28T07:10:12Z</time>
      </trkpt>
      <trkpt lat="38.1705170" lon="-3.8200990">
        <ele>398.6</ele>
        <time>2018-04-28T07:10:13Z</time>
      </trkpt>
      <trkpt lat="38.1705030" lon="-3.8201150">
        <ele>398.6</ele>
        <time>2018-04-28T07:10:14Z</time>
      </trkpt>
      <trkpt lat="38.1704910" lon="-3.8201330">
        <ele>398.8</ele>
        <time>2018-04-28T07:10:15Z</time>
      </trkpt>
      <trkpt lat="38.1704800" lon="-3.8201540">
        <ele>399.0</ele>
        <time>2018-04-28T07:10:16Z</time>
      </trkpt>
      <trkpt lat="38.1704700" lon="-3.8201760">
        <ele>399.2</ele>
        <time>2018-04-28T07:10:17Z</time>
      </trkpt>
      <trkpt lat="38.1704580" lon="-3.8201970">
        <ele>399.2</ele>
        <time>2018-04-28T07:10:18Z</time>
      </trkpt>
      <trkpt lat="38.1704460" lon="-3.8202190">
        <ele>399.4</ele>
        <time>2018-04-28T07:10:19Z</time>
      </trkpt>
      <trkpt lat="38.1704390" lon="-3.8202430">
        <ele>399.4</ele>
        <time>2018-04-28T07:10:20Z</time>
      </trkpt>
      <trkpt lat="38.1704340" lon="-3.8202680">
        <ele>399.6</ele>
        <time>2018-04-28T07:10:21Z</time>
      </trkpt>
      <trkpt lat="38.1704270" lon="-3.8202950">
        <ele>399.6</ele>
        <time>2018-04-28T07:10:22Z</time>
      </trkpt>
      <trkpt lat="38.1704210" lon="-3.8203210">
        <ele>399.6</ele>
        <time>2018-04-28T07:10:23Z</time>
      </trkpt>
      <trkpt lat="38.1704150" lon="-3.8203500">
        <ele>399.8</ele>
        <time>2018-04-28T07:10:24Z</time>
      </trkpt>
      <trkpt lat="38.1704100" lon="-3.8203780">
        <ele>400.0</ele>
        <time>2018-04-28T07:10:25Z</time>
      </trkpt>
      <trkpt lat="38.1704070" lon="-3.8204060">
        <ele>400.0</ele>
        <time>2018-04-28T07:10:26Z</time>
      </trkpt>
      <trkpt lat="38.1704070" lon="-3.8204350">
        <ele>400.2</ele>
        <time>2018-04-28T07:10:27Z</time>
      </trkpt>
      <trkpt lat="38.1704080" lon="-3.8204650">
        <ele>400.2</ele>
        <time>2018-04-28T07:10:28Z</time>
      </trkpt>
      <trkpt lat="38.1704080" lon="-3.8204950">
        <ele>400.4</ele>
        <time>2018-04-28T07:10:29Z</time>
      </trkpt>
      <trkpt lat="38.1704050" lon="-3.8205240">
        <ele>400.6</ele>
        <time>2018-04-28T07:10:30Z</time>
      </trkpt>
      <trkpt lat="38.1703990" lon="-3.8205510">
        <ele>400.6</ele>
        <time>2018-04-28T07:10:31Z</time>
      </trkpt>
      <trkpt lat="38.1703930" lon="-3.8205790">
        <ele>400.8</ele>
        <time>2018-04-28T07:10:32Z</time>
      </trkpt>
      <trkpt lat="38.1703880" lon="-3.8206080">
        <ele>401.0</ele>
        <time>2018-04-28T07:10:33Z</time>
      </trkpt>
      <trkpt lat="38.1703810" lon="-3.8206360">
        <ele>401.0</ele>
        <time>2018-04-28T07:10:34Z</time>
      </trkpt>
      <trkpt lat="38.1703770" lon="-3.8206650">
        <ele>401.0</ele>
        <time>2018-04-28T07:10:35Z</time>
      </trkpt>
      <trkpt lat="38.1703740" lon="-3.8206930">
        <ele>401.2</ele>
        <time>2018-04-28T07:10:36Z</time>
      </trkpt>
      <trkpt lat="38.1703660" lon="-3.8207190">
        <ele>401.2</ele>
        <time>2018-04-28T07:10:37Z</time>
      </trkpt>
      <trkpt lat="38.1703560" lon="-3.8207450">
        <ele>401.4</ele>
        <time>2018-04-28T07:10:38Z</time>
      </trkpt>
      <trkpt lat="38.1703480" lon="-3.8207690">
        <ele>401.4</ele>
        <time>2018-04-28T07:10:39Z</time>
      </trkpt>
      <trkpt lat="38.1703440" lon="-3.8207960">
        <ele>401.6</ele>
        <time>2018-04-28T07:10:40Z</time>
      </trkpt>
      <trkpt lat="38.1703380" lon="-3.8208240">
        <ele>401.8</ele>
        <time>2018-04-28T07:10:41Z</time>
      </trkpt>
      <trkpt lat="38.1703300" lon="-3.8208510">
        <ele>401.8</ele>
        <time>2018-04-28T07:10:42Z</time>
      </trkpt>
      <trkpt lat="38.1703210" lon="-3.8208770">
        <ele>402.0</ele>
        <time>2018-04-28T07:10:43Z</time>
      </trkpt>
      <trkpt lat="38.1703130" lon="-3.8209040">
        <ele>402.0</ele>
        <time>2018-04-28T07:10:44Z</time>
      </trkpt>
      <trkpt lat="38.1703050" lon="-3.8209320">
        <ele>402.2</ele>
        <time>2018-04-28T07:10:45Z</time>
      </trkpt>
      <trkpt lat="38.1702990" lon="-3.8209600">
        <ele>402.2</ele>
        <time>2018-04-28T07:10:46Z</time>
      </trkpt>
      <trkpt lat="38.1702900" lon="-3.8209870">
        <ele>402.4</ele>
        <time>2018-04-28T07:10:47Z</time>
      </trkpt>
      <trkpt lat="38.1702830" lon="-3.8210160">
        <ele>402.4</ele>
        <time>2018-04-28T07:10:48Z</time>
      </trkpt>
      <trkpt lat="38.1702790" lon="-3.8210430">
        <ele>402.6</ele>
        <time>2018-04-28T07:10:49Z</time>
      </trkpt>
      <trkpt lat="38.1702760" lon="-3.8210700">
        <ele>402.8</ele>
        <time>2018-04-28T07:10:50Z</time>
      </trkpt>
      <trkpt lat="38.1702700" lon="-3.8210960">
        <ele>402.8</ele>
        <time>2018-04-28T07:10:51Z</time>
      </trkpt>
      <trkpt lat="38.1702620" lon="-3.8211230">
        <ele>403.0</ele>
        <time>2018-04-28T07:10:52Z</time>
      </trkpt>
      <trkpt lat="38.1702550" lon="-3.8211500">
        <ele>403.2</ele>
        <time>2018-04-28T07:10:53Z</time>
      </trkpt>
      <trkpt lat="38.1702490" lon="-3.8211760">
        <ele>403.4</ele>
        <time>2018-04-28T07:10:54Z</time>
      </trkpt>
      <trkpt lat="38.1702400" lon="-3.8212020">
        <ele>403.4</ele>
        <time>2018-04-28T07:10:55Z</time>
      </trkpt>
      <trkpt lat="38.1702300" lon="-3.8212290">
        <ele>403.4</ele>
        <time>2018-04-28T07:10:56Z</time>
      </trkpt>
      <trkpt lat="38.1702180" lon="-3.8212550">
        <ele>403.4</ele>
        <time>2018-04-28T07:10:57Z</time>
      </trkpt>
      <trkpt lat="38.1702060" lon="-3.8212810">
        <ele>403.6</ele>
        <time>2018-04-28T07:10:58Z</time>
      </trkpt>
      <trkpt lat="38.1701970" lon="-3.8213100">
        <ele>403.6</ele>
        <time>2018-04-28T07:10:59Z</time>
      </trkpt>
      <trkpt lat="38.1701910" lon="-3.8213410">
        <ele>403.6</ele>
        <time>2018-04-28T07:11:00Z</time>
      </trkpt>
      <trkpt lat="38.1701870" lon="-3.8213720">
        <ele>403.8</ele>
        <time>2018-04-28T07:11:01Z</time>
      </trkpt>
      <trkpt lat="38.1701840" lon="-3.8214050">
        <ele>403.8</ele>
        <time>2018-04-28T07:11:02Z</time>
      </trkpt>
      <trkpt lat="38.1701790" lon="-3.8214380">
        <ele>403.8</ele>
        <time>2018-04-28T07:11:03Z</time>
      </trkpt>
      <trkpt lat="38.1701770" lon="-3.8214700">
        <ele>403.8</ele>
        <time>2018-04-28T07:11:04Z</time>
      </trkpt>
      <trkpt lat="38.1701680" lon="-3.8215020">
        <ele>403.8</ele>
        <time>2018-04-28T07:11:05Z</time>
      </trkpt>
      <trkpt lat="38.1701600" lon="-3.8215370">
        <ele>403.8</ele>
        <time>2018-04-28T07:11:06Z</time>
      </trkpt>
      <trkpt lat="38.1701530" lon="-3.8215730">
        <ele>403.8</ele>
        <time>2018-04-28T07:11:07Z</time>
      </trkpt>
      <trkpt lat="38.1701460" lon="-3.8216100">
        <ele>403.8</ele>
        <time>2018-04-28T07:11:08Z</time>
      </trkpt>
      <trkpt lat="38.1701400" lon="-3.8216490">
        <ele>403.8</ele>
        <time>2018-04-28T07:11:09Z</time>
      </trkpt>
      <trkpt lat="38.1701310" lon="-3.8216840">
        <ele>403.8</ele>
        <time>2018-04-28T07:11:10Z</time>
      </trkpt>
      <trkpt lat="38.1701250" lon="-3.8217220">
        <ele>403.8</ele>
        <time>2018-04-28T07:11:11Z</time>
      </trkpt>
      <trkpt lat="38.1701200" lon="-3.8217610">
        <ele>403.8</ele>
        <time>2018-04-28T07:11:12Z</time>
      </trkpt>
      <trkpt lat="38.1701160" lon="-3.8218000">
        <ele>403.6</ele>
        <time>2018-04-28T07:11:13Z</time>
      </trkpt>
      <trkpt lat="38.1701130" lon="-3.8218410">
        <ele>403.6</ele>
        <time>2018-04-28T07:11:14Z</time>
      </trkpt>
      <trkpt lat="38.1701110" lon="-3.8218800">
        <ele>403.4</ele>
        <time>2018-04-28T07:11:15Z</time>
      </trkpt>
      <trkpt lat="38.1701110" lon="-3.8219150">
        <ele>403.2</ele>
        <time>2018-04-28T07:11:16Z</time>
      </trkpt>
      <trkpt lat="38.1701110" lon="-3.8219410">
        <ele>403.0</ele>
        <time>2018-04-28T07:11:17Z</time>
      </trkpt>
      <trkpt lat="38.1701190" lon="-3.8219950">
        <ele>403.0</ele>
        <time>2018-04-28T07:11:18Z</time>
      </trkpt>
      <trkpt lat="38.1701270" lon="-3.8220400">
        <ele>403.0</ele>
        <time>2018-04-28T07:11:19Z</time>
      </trkpt>
      <trkpt lat="38.1701360" lon="-3.8220850">
        <ele>403.0</ele>
        <time>2018-04-28T07:11:20Z</time>
      </trkpt>
      <trkpt lat="38.1701440" lon="-3.8221300">
        <ele>403.0</ele>
        <time>2018-04-28T07:11:21Z</time>
      </trkpt>
      <trkpt lat="38.1701530" lon="-3.8221740">
        <ele>403.0</ele>
        <time>2018-04-28T07:11:22Z</time>
      </trkpt>
      <trkpt lat="38.1701620" lon="-3.8222190">
        <ele>403.0</ele>
        <time>2018-04-28T07:11:23Z</time>
      </trkpt>
      <trkpt lat="38.1701700" lon="-3.8222640">
        <ele>403.0</ele>
        <time>2018-04-28T07:11:24Z</time>
      </trkpt>
      <trkpt lat="38.1701790" lon="-3.8223090">
        <ele>403.0</ele>
        <time>2018-04-28T07:11:25Z</time>
      </trkpt>
      <trkpt lat="38.1701870" lon="-3.8223540">
        <ele>401.2</ele>
        <time>2018-04-28T07:12:42Z</time>
      </trkpt>
      <trkpt lat="38.1701960" lon="-3.8223990">
        <ele>400.8</ele>
        <time>2018-04-28T07:12:43Z</time>
      </trkpt>
      <trkpt lat="38.1702050" lon="-3.8224770">
        <ele>400.6</ele>
        <time>2018-04-28T07:12:44Z</time>
      </trkpt>
      <trkpt lat="38.1702080" lon="-3.8225590">
        <ele>400.2</ele>
        <time>2018-04-28T07:12:45Z</time>
      </trkpt>
      <trkpt lat="38.1702060" lon="-3.8226490">
        <ele>399.6</ele>
        <time>2018-04-28T07:12:46Z</time>
      </trkpt>
      <trkpt lat="38.1702020" lon="-3.8227410">
        <ele>399.2</ele>
        <time>2018-04-28T07:12:47Z</time>
      </trkpt>
      <trkpt lat="38.1701950" lon="-3.8228360">
        <ele>399.0</ele>
        <time>2018-04-28T07:12:48Z</time>
      </trkpt>
      <trkpt lat="38.1701890" lon="-3.8229320">
        <ele>398.6</ele>
        <time>2018-04-28T07:12:49Z</time>
      </trkpt>
      <trkpt lat="38.1701830" lon="-3.8230290">
        <ele>398.4</ele>
        <time>2018-04-28T07:12:50Z</time>
      </trkpt>
      <trkpt lat="38.1701780" lon="-3.8231270">
        <ele>398.0</ele>
        <time>2018-04-28T07:12:51Z</time>
      </trkpt>
      <trkpt lat="38.1701770" lon="-3.8232270">
        <ele>397.8</ele>
        <time>2018-04-28T07:12:52Z</time>
      </trkpt>
      <trkpt lat="38.1701820" lon="-3.8233280">
        <ele>397.6</ele>
        <time>2018-04-28T07:12:53Z</time>
      </trkpt>
      <trkpt lat="38.1701890" lon="-3.8234290">
        <ele>397.2</ele>
        <time>2018-04-28T07:12:54Z</time>
      </trkpt>
      <trkpt lat="38.1702010" lon="-3.8235290">
        <ele>397.0</ele>
        <time>2018-04-28T07:12:55Z</time>
      </trkpt>
      <trkpt lat="38.1702120" lon="-3.8236300">
        <ele>396.6</ele>
        <time>2018-04-28T07:12:56Z</time>
      </trkpt>
      <trkpt lat="38.1702220" lon="-3.8237300">
        <ele>396.4</ele>
        <time>2018-04-28T07:12:57Z</time>
      </trkpt>
      <trkpt lat="38.1702320" lon="-3.8238220">
        <ele>395.8</ele>
        <time>2018-04-28T07:12:58Z</time>
      </trkpt>
      <trkpt lat="38.1702410" lon="-3.8239090">
        <ele>395.6</ele>
        <time>2018-04-28T07:12:59Z</time>
      </trkpt>
      <trkpt lat="38.1702570" lon="-3.8239930">
        <ele>395.2</ele>
        <time>2018-04-28T07:13:00Z</time>
      </trkpt>
      <trkpt lat="38.1702760" lon="-3.8240810">
        <ele>394.8</ele>
        <time>2018-04-28T07:13:01Z</time>
      </trkpt>
      <trkpt lat="38.1703000" lon="-3.8241640">
        <ele>394.6</ele>
        <time>2018-04-28T07:13:02Z</time>
      </trkpt>
      <trkpt lat="38.1703290" lon="-3.8242420">
        <ele>394.2</ele>
        <time>2018-04-28T07:13:03Z</time>
      </trkpt>
      <trkpt lat="38.1703560" lon="-3.8243020">
        <ele>393.8</ele>
        <time>2018-04-28T07:13:04Z</time>
      </trkpt>
      <trkpt lat="38.1703800" lon="-3.8243600">
        <ele>393.8</ele>
        <time>2018-04-28T07:13:05Z</time>
      </trkpt>
      <trkpt lat="38.1704030" lon="-3.8244170">
        <ele>393.8</ele>
        <time>2018-04-28T07:13:06Z</time>
      </trkpt>
      <trkpt lat="38.1704230" lon="-3.8244750">
        <ele>393.8</ele>
        <time>2018-04-28T07:13:07Z</time>
      </trkpt>
      <trkpt lat="38.1704420" lon="-3.8245330">
        <ele>393.4</ele>
        <time>2018-04-28T07:13:08Z</time>
      </trkpt>
      <trkpt lat="38.1704610" lon="-3.8245940">
        <ele>393.4</ele>
        <time>2018-04-28T07:13:09Z</time>
      </trkpt>
      <trkpt lat="38.1704800" lon="-3.8246570">
        <ele>393.4</ele>
        <time>2018-04-28T07:13:10Z</time>
      </trkpt>
      <trkpt lat="38.1704970" lon="-3.8247200">
        <ele>393.2</ele>
        <time>2018-04-28T07:13:11Z</time>
      </trkpt>
      <trkpt lat="38.1705110" lon="-3.8247860">
        <ele>393.4</ele>
        <time>2018-04-28T07:13:12Z</time>
      </trkpt>
      <trkpt lat="38.1705240" lon="-3.8248510">
        <ele>393.2</ele>
        <time>2018-04-28T07:13:13Z</time>
      </trkpt>
      <trkpt lat="38.1705370" lon="-3.8249160">
        <ele>393.2</ele>
        <time>2018-04-28T07:13:14Z</time>
      </trkpt>
      <trkpt lat="38.1705470" lon="-3.8249790">
        <ele>393.2</ele>
        <time>2018-04-28T07:13:15Z</time>
      </trkpt>
      <trkpt lat="38.1705590" lon="-3.8250420">
        <ele>393.2</ele>
        <time>2018-04-28T07:13:16Z</time>
      </trkpt>
      <trkpt lat="38.1705710" lon="-3.8251020">
        <ele>393.0</ele>
        <time>2018-04-28T07:13:17Z</time>
      </trkpt>
      <trkpt lat="38.1705820" lon="-3.8251620">
        <ele>392.8</ele>
        <time>2018-04-28T07:13:18Z</time>
      </trkpt>
      <trkpt lat="38.1705910" lon="-3.8252270">
        <ele>392.8</ele>
        <time>2018-04-28T07:13:19Z</time>
      </trkpt>
      <trkpt lat="38.1706010" lon="-3.8252950">
        <ele>392.6</ele>
        <time>2018-04-28T07:13:20Z</time>
      </trkpt>
      <trkpt lat="38.1706130" lon="-3.8253640">
        <ele>392.4</ele>
        <time>2018-04-28T07:13:21Z</time>
      </trkpt>
      <trkpt lat="38.1706230" lon="-3.8254360">
        <ele>392.6</ele>
        <time>2018-04-28T07:13:22Z</time>
      </trkpt>
      <trkpt lat="38.1706350" lon="-3.8255080">
        <ele>392.4</ele>
        <time>2018-04-28T07:13:23Z</time>
      </trkpt>
      <trkpt lat="38.1706480" lon="-3.8255780">
        <ele>392.4</ele>
        <time>2018-04-28T07:13:24Z</time>
      </trkpt>
      <trkpt lat="38.1706620" lon="-3.8256480">
        <ele>392.4</ele>
        <time>2018-04-28T07:13:25Z</time>
      </trkpt>
      <trkpt lat="38.1706760" lon="-3.8257200">
        <ele>392.4</ele>
        <time>2018-04-28T07:13:26Z</time>
      </trkpt>
      <trkpt lat="38.1706920" lon="-3.8257920">
        <ele>392.4</ele>
        <time>2018-04-28T07:13:27Z</time>
      </trkpt>
      <trkpt lat="38.1707090" lon="-3.8258610">
        <ele>392.4</ele>
        <time>2018-04-28T07:13:28Z</time>
      </trkpt>
      <trkpt lat="38.1707230" lon="-3.8259330">
        <ele>392.4</ele>
        <time>2018-04-28T07:13:29Z</time>
      </trkpt>
      <trkpt lat="38.1707380" lon="-3.8260060">
        <ele>392.4</ele>
        <time>2018-04-28T07:13:30Z</time>
      </trkpt>
      <trkpt lat="38.1707550" lon="-3.8260800">
        <ele>392.4</ele>
        <time>2018-04-28T07:13:31Z</time>
      </trkpt>
      <trkpt lat="38.1707760" lon="-3.8261540">
        <ele>392.6</ele>
        <time>2018-04-28T07:13:32Z</time>
      </trkpt>
      <trkpt lat="38.1708000" lon="-3.8262280">
        <ele>392.4</ele>
        <time>2018-04-28T07:13:33Z</time>
      </trkpt>
      <trkpt lat="38.1708230" lon="-3.8262980">
        <ele>392.4</ele>
        <time>2018-04-28T07:13:34Z</time>
      </trkpt>
      <trkpt lat="38.1708400" lon="-3.8263690">
        <ele>392.2</ele>
        <time>2018-04-28T07:13:35Z</time>
      </trkpt>
      <trkpt lat="38.1708580" lon="-3.8264400">
        <ele>392.2</ele>
        <time>2018-04-28T07:13:36Z</time>
      </trkpt>
      <trkpt lat="38.1708820" lon="-3.8265090">
        <ele>392.2</ele>
        <time>2018-04-28T07:13:37Z</time>
      </trkpt>
      <trkpt lat="38.1709080" lon="-3.8265750">
        <ele>392.2</ele>
        <time>2018-04-28T07:13:38Z</time>
      </trkpt>
      <trkpt lat="38.1709320" lon="-3.8266450">
        <ele>392.2</ele>
        <time>2018-04-28T07:13:39Z</time>
      </trkpt>
      <trkpt lat="38.1709550" lon="-3.8267160">
        <ele>392.0</ele>
        <time>2018-04-28T07:13:40Z</time>
      </trkpt>
      <trkpt lat="38.1709830" lon="-3.8267860">
        <ele>392.0</ele>
        <time>2018-04-28T07:13:41Z</time>
      </trkpt>
      <trkpt lat="38.1710120" lon="-3.8268600">
        <ele>392.0</ele>
        <time>2018-04-28T07:13:42Z</time>
      </trkpt>
      <trkpt lat="38.1710420" lon="-3.8269340">
        <ele>391.8</ele>
        <time>2018-04-28T07:13:43Z</time>
      </trkpt>
      <trkpt lat="38.1710730" lon="-3.8270080">
        <ele>391.6</ele>
        <time>2018-04-28T07:13:44Z</time>
      </trkpt>
      <trkpt lat="38.1711050" lon="-3.8270830">
        <ele>391.6</ele>
        <time>2018-04-28T07:13:45Z</time>
      </trkpt>
      <trkpt lat="38.1711360" lon="-3.8271560">
        <ele>391.4</ele>
        <time>2018-04-28T07:13:46Z</time>
      </trkpt>
      <trkpt lat="38.1711680" lon="-3.8272240">
        <ele>391.4</ele>
        <time>2018-04-28T07:13:47Z</time>
      </trkpt>
      <trkpt lat="38.1711990" lon="-3.8272960">
        <ele>391.2</ele>
        <time>2018-04-28T07:13:48Z</time>
      </trkpt>
      <trkpt lat="38.1712270" lon="-3.8273730">
        <ele>391.0</ele>
        <time>2018-04-28T07:13:49Z</time>
      </trkpt>
      <trkpt lat="38.1712570" lon="-3.8274440">
        <ele>391.0</ele>
        <time>2018-04-28T07:13:50Z</time>
      </trkpt>
      <trkpt lat="38.1712870" lon="-3.8275130">
        <ele>391.0</ele>
        <time>2018-04-28T07:13:51Z</time>
      </trkpt>
      <trkpt lat="38.1713170" lon="-3.8275850">
        <ele>391.0</ele>
        <time>2018-04-28T07:13:52Z</time>
      </trkpt>
      <trkpt lat="38.1713480" lon="-3.8276550">
        <ele>390.8</ele>
        <time>2018-04-28T07:13:53Z</time>
      </trkpt>
      <trkpt lat="38.1713770" lon="-3.8277270">
        <ele>391.0</ele>
        <time>2018-04-28T07:13:54Z</time>
      </trkpt>
      <trkpt lat="38.1714040" lon="-3.8278030">
        <ele>391.0</ele>
        <time>2018-04-28T07:13:55Z</time>
      </trkpt>
      <trkpt lat="38.1714290" lon="-3.8278780">
        <ele>390.8</ele>
        <time>2018-04-28T07:13:56Z</time>
      </trkpt>
      <trkpt lat="38.1714510" lon="-3.8279500">
        <ele>391.0</ele>
        <time>2018-04-28T07:13:57Z</time>
      </trkpt>
      <trkpt lat="38.1714680" lon="-3.8280240">
        <ele>390.8</ele>
        <time>2018-04-28T07:13:58Z</time>
      </trkpt>
      <trkpt lat="38.1714830" lon="-3.8281000">
        <ele>391.0</ele>
        <time>2018-04-28T07:13:59Z</time>
      </trkpt>
      <trkpt lat="38.1714910" lon="-3.8281750">
        <ele>391.0</ele>
        <time>2018-04-28T07:14:00Z</time>
      </trkpt>
      <trkpt lat="38.1714960" lon="-3.8282470">
        <ele>391.0</ele>
        <time>2018-04-28T07:14:01Z</time>
      </trkpt>
      <trkpt lat="38.1714930" lon="-3.8283200">
        <ele>391.2</ele>
        <time>2018-04-28T07:14:02Z</time>
      </trkpt>
      <trkpt lat="38.1714880" lon="-3.8283930">
        <ele>391.0</ele>
        <time>2018-04-28T07:14:03Z</time>
      </trkpt>
      <trkpt lat="38.1714820" lon="-3.8284670">
        <ele>391.2</ele>
        <time>2018-04-28T07:14:04Z</time>
      </trkpt>
      <trkpt lat="38.1714740" lon="-3.8285350">
        <ele>391.2</ele>
        <time>2018-04-28T07:14:05Z</time>
      </trkpt>
      <trkpt lat="38.1714660" lon="-3.8285980">
        <ele>391.2</ele>
        <time>2018-04-28T07:14:06Z</time>
      </trkpt>
      <trkpt lat="38.1714610" lon="-3.8286650">
        <ele>391.4</ele>
        <time>2018-04-28T07:14:07Z</time>
      </trkpt>
      <trkpt lat="38.1714590" lon="-3.8287340">
        <ele>391.6</ele>
        <time>2018-04-28T07:14:08Z</time>
      </trkpt>
      <trkpt lat="38.1714620" lon="-3.8288050">
        <ele>391.6</ele>
        <time>2018-04-28T07:14:09Z</time>
      </trkpt>
      <trkpt lat="38.1714700" lon="-3.8288750">
        <ele>392.0</ele>
        <time>2018-04-28T07:14:10Z</time>
      </trkpt>
      <trkpt lat="38.1714770" lon="-3.8289420">
        <ele>392.0</ele>
        <time>2018-04-28T07:14:11Z</time>
      </trkpt>
      <trkpt lat="38.1714790" lon="-3.8290100">
        <ele>392.2</ele>
        <time>2018-04-28T07:14:12Z</time>
      </trkpt>
      <trkpt lat="38.1714790" lon="-3.8290770">
        <ele>392.4</ele>
        <time>2018-04-28T07:14:13Z</time>
      </trkpt>
      <trkpt lat="38.1714810" lon="-3.8291430">
        <ele>392.4</ele>
        <time>2018-04-28T07:14:14Z</time>
      </trkpt>
      <trkpt lat="38.1714820" lon="-3.8292090">
        <ele>392.6</ele>
        <time>2018-04-28T07:14:15Z</time>
      </trkpt>
      <trkpt lat="38.1714840" lon="-3.8292740">
        <ele>392.8</ele>
        <time>2018-04-28T07:14:16Z</time>
      </trkpt>
      <trkpt lat="38.1714850" lon="-3.8293360">
        <ele>392.8</ele>
        <time>2018-04-28T07:14:17Z</time>
      </trkpt>
      <trkpt lat="38.1714830" lon="-3.8294020">
        <ele>393.0</ele>
        <time>2018-04-28T07:14:18Z</time>
      </trkpt>
      <trkpt lat="38.1714800" lon="-3.8294670">
        <ele>393.0</ele>
        <time>2018-04-28T07:14:19Z</time>
      </trkpt>
      <trkpt lat="38.1714730" lon="-3.8295310">
        <ele>393.2</ele>
        <time>2018-04-28T07:14:20Z</time>
      </trkpt>
      <trkpt lat="38.1714680" lon="-3.8295940">
        <ele>393.0</ele>
        <time>2018-04-28T07:14:21Z</time>
      </trkpt>
      <trkpt lat="38.1714620" lon="-3.8296580">
        <ele>393.0</ele>
        <time>2018-04-28T07:14:22Z</time>
      </trkpt>
      <trkpt lat="38.1714510" lon="-3.8297220">
        <ele>393.2</ele>
        <time>2018-04-28T07:14:23Z</time>
      </trkpt>
      <trkpt lat="38.1714360" lon="-3.8297850">
        <ele>393.0</ele>
        <time>2018-04-28T07:14:24Z</time>
      </trkpt>
      <trkpt lat="38.1714190" lon="-3.8298470">
        <ele>393.0</ele>
        <time>2018-04-28T07:14:25Z</time>
      </trkpt>
      <trkpt lat="38.1713960" lon="-3.8299080">
        <ele>392.8</ele>
        <time>2018-04-28T07:14:26Z</time>
      </trkpt>
      <trkpt lat="38.1713750" lon="-3.8299710">
        <ele>392.8</ele>
        <time>2018-04-28T07:14:27Z</time>
      </trkpt>
      <trkpt lat="38.1713510" lon="-3.8300360">
        <ele>392.6</ele>
        <time>2018-04-28T07:14:28Z</time>
      </trkpt>
      <trkpt lat="38.1713270" lon="-3.8301020">
        <ele>392.6</ele>
        <time>2018-04-28T07:14:29Z</time>
      </trkpt>
      <trkpt lat="38.1713010" lon="-3.8301700">
        <ele>392.2</ele>
        <time>2018-04-28T07:14:30Z</time>
      </trkpt>
      <trkpt lat="38.1712720" lon="-3.8302400">
        <ele>392.2</ele>
        <time>2018-04-28T07:14:31Z</time>
      </trkpt>
      <trkpt lat="38.1712420" lon="-3.8303110">
        <ele>392.0</ele>
        <time>2018-04-28T07:14:32Z</time>
      </trkpt>
      <trkpt lat="38.1712120" lon="-3.8303860">
        <ele>391.8</ele>
        <time>2018-04-28T07:14:33Z</time>
      </trkpt>
      <trkpt lat="38.1711840" lon="-3.8304620">
        <ele>391.6</ele>
        <time>2018-04-28T07:14:34Z</time>
      </trkpt>
      <trkpt lat="38.1711570" lon="-3.8305430">
        <ele>391.2</ele>
        <time>2018-04-28T07:14:35Z</time>
      </trkpt>
      <trkpt lat="38.1711310" lon="-3.8306270">
        <ele>391.0</ele>
        <time>2018-04-28T07:14:36Z</time>
      </trkpt>
      <trkpt lat="38.1711010" lon="-3.8307100">
        <ele>390.8</ele>
        <time>2018-04-28T07:14:37Z</time>
      </trkpt>
      <trkpt lat="38.1710690" lon="-3.8307960">
        <ele>390.4</ele>
        <time>2018-04-28T07:14:38Z</time>
      </trkpt>
      <trkpt lat="38.1710350" lon="-3.8308860">
        <ele>390.2</ele>
        <time>2018-04-28T07:14:39Z</time>
      </trkpt>
      <trkpt lat="38.1710020" lon="-3.8309760">
        <ele>389.8</ele>
        <time>2018-04-28T07:14:40Z</time>
      </trkpt>
      <trkpt lat="38.1709670" lon="-3.8310690">
        <ele>389.2</ele>
        <time>2018-04-28T07:14:41Z</time>
      </trkpt>
      <trkpt lat="38.1709310" lon="-3.8311670">
        <ele>388.6</ele>
        <time>2018-04-28T07:14:42Z</time>
      </trkpt>
      <trkpt lat="38.1708950" lon="-3.8312680">
        <ele>387.8</ele>
        <time>2018-04-28T07:14:43Z</time>
      </trkpt>
      <trkpt lat="38.1708530" lon="-3.8313790">
        <ele>387.0</ele>
        <time>2018-04-28T07:14:44Z</time>
      </trkpt>
      <trkpt lat="38.1708090" lon="-3.8314980">
        <ele>386.0</ele>
        <time>2018-04-28T07:14:45Z</time>
      </trkpt>
      <trkpt lat="38.1707610" lon="-3.8316220">
        <ele>385.4</ele>
        <time>2018-04-28T07:14:46Z</time>
      </trkpt>
      <trkpt lat="38.1707140" lon="-3.8317400">
        <ele>384.6</ele>
        <time>2018-04-28T07:14:47Z</time>
      </trkpt>
      <trkpt lat="38.1706640" lon="-3.8318670">
        <ele>383.8</ele>
        <time>2018-04-28T07:14:48Z</time>
      </trkpt>
      <trkpt lat="38.1706140" lon="-3.8319940">
        <ele>383.0</ele>
        <time>2018-04-28T07:14:49Z</time>
      </trkpt>
      <trkpt lat="38.1705670" lon="-3.8321170">
        <ele>382.4</ele>
        <time>2018-04-28T07:14:50Z</time>
      </trkpt>
      <trkpt lat="38.1705160" lon="-3.8322480">
        <ele>382.0</ele>
        <time>2018-04-28T07:14:51Z</time>
      </trkpt>
      <trkpt lat="38.1704680" lon="-3.8323820">
        <ele>381.8</ele>
        <time>2018-04-28T07:14:52Z</time>
      </trkpt>
      <trkpt lat="38.1704200" lon="-3.8325130">
        <ele>381.6</ele>
        <time>2018-04-28T07:14:53Z</time>
      </trkpt>
      <trkpt lat="38.1703720" lon="-3.8326450">
        <ele>381.2</ele>
        <time>2018-04-28T07:14:54Z</time>
      </trkpt>
      <trkpt lat="38.1703320" lon="-3.8327740">
        <ele>381.0</ele>
        <time>2018-04-28T07:14:55Z</time>
      </trkpt>
      <trkpt lat="38.1702980" lon="-3.8329070">
        <ele>381.0</ele>
        <time>2018-04-28T07:14:56Z</time>
      </trkpt>
      <trkpt lat="38.1702710" lon="-3.8330350">
        <ele>380.8</ele>
        <time>2018-04-28T07:14:57Z</time>
      </trkpt>
      <trkpt lat="38.1702460" lon="-3.8331570">
        <ele>380.6</ele>
        <time>2018-04-28T07:14:58Z</time>
      </trkpt>
      <trkpt lat="38.1702240" lon="-3.8332780">
        <ele>380.2</ele>
        <time>2018-04-28T07:14:59Z</time>
      </trkpt>
      <trkpt lat="38.1702090" lon="-3.8333980">
        <ele>380.0</ele>
        <time>2018-04-28T07:15:00Z</time>
      </trkpt>
      <trkpt lat="38.1701990" lon="-3.8335160">
        <ele>379.8</ele>
        <time>2018-04-28T07:15:01Z</time>
      </trkpt>
      <trkpt lat="38.1701920" lon="-3.8336310">
        <ele>379.4</ele>
        <time>2018-04-28T07:15:02Z</time>
      </trkpt>
      <trkpt lat="38.1701900" lon="-3.8337440">
        <ele>379.4</ele>
        <time>2018-04-28T07:15:03Z</time>
      </trkpt>
      <trkpt lat="38.1701910" lon="-3.8338560">
        <ele>379.2</ele>
        <time>2018-04-28T07:15:04Z</time>
      </trkpt>
      <trkpt lat="38.1701920" lon="-3.8339650">
        <ele>378.8</ele>
        <time>2018-04-28T07:15:05Z</time>
      </trkpt>
      <trkpt lat="38.1701890" lon="-3.8340750">
        <ele>378.4</ele>
        <time>2018-04-28T07:15:06Z</time>
      </trkpt>
      <trkpt lat="38.1701850" lon="-3.8341860">
        <ele>378.2</ele>
        <time>2018-04-28T07:15:07Z</time>
      </trkpt>
      <trkpt lat="38.1701780" lon="-3.8342980">
        <ele>377.8</ele>
        <time>2018-04-28T07:15:08Z</time>
      </trkpt>
      <trkpt lat="38.1701690" lon="-3.8344100">
        <ele>377.4</ele>
        <time>2018-04-28T07:15:09Z</time>
      </trkpt>
      <trkpt lat="38.1701590" lon="-3.8345250">
        <ele>377.0</ele>
        <time>2018-04-28T07:15:10Z</time>
      </trkpt>
      <trkpt lat="38.1701450" lon="-3.8346410">
        <ele>376.4</ele>
        <time>2018-04-28T07:15:11Z</time>
      </trkpt>
      <trkpt lat="38.1701310" lon="-3.8347590">
        <ele>376.0</ele>
        <time>2018-04-28T07:15:12Z</time>
      </trkpt>
      <trkpt lat="38.1701170" lon="-3.8348770">
        <ele>375.6</ele>
        <time>2018-04-28T07:15:13Z</time>
      </trkpt>
      <trkpt lat="38.1701030" lon="-3.8349960">
        <ele>375.2</ele>
        <time>2018-04-28T07:15:14Z</time>
      </trkpt>
      <trkpt lat="38.1700870" lon="-3.8351150">
        <ele>374.8</ele>
        <time>2018-04-28T07:15:15Z</time>
      </trkpt>
      <trkpt lat="38.1700730" lon="-3.8352340">
        <ele>374.6</ele>
        <time>2018-04-28T07:15:16Z</time>
      </trkpt>
      <trkpt lat="38.1700600" lon="-3.8353530">
        <ele>374.2</ele>
        <time>2018-04-28T07:15:17Z</time>
      </trkpt>
      <trkpt lat="38.1700470" lon="-3.8354730">
        <ele>373.8</ele>
        <time>2018-04-28T07:15:18Z</time>
      </trkpt>
      <trkpt lat="38.1700360" lon="-3.8355920">
        <ele>373.6</ele>
        <time>2018-04-28T07:15:19Z</time>
      </trkpt>
      <trkpt lat="38.1700270" lon="-3.8357110">
        <ele>373.2</ele>
        <time>2018-04-28T07:15:20Z</time>
      </trkpt>
      <trkpt lat="38.1700200" lon="-3.8358300">
        <ele>373.0</ele>
        <time>2018-04-28T07:15:21Z</time>
      </trkpt>
      <trkpt lat="38.1700150" lon="-3.8359480">
        <ele>372.6</ele>
        <time>2018-04-28T07:15:22Z</time>
      </trkpt>
      <trkpt lat="38.1700130" lon="-3.8360660">
        <ele>372.4</ele>
        <time>2018-04-28T07:15:23Z</time>
      </trkpt>
      <trkpt lat="38.1700120" lon="-3.8361830">
        <ele>372.0</ele>
        <time>2018-04-28T07:15:24Z</time>
      </trkpt>
      <trkpt lat="38.1700120" lon="-3.8363000">
        <ele>371.8</ele>
        <time>2018-04-28T07:15:25Z</time>
      </trkpt>
      <trkpt lat="38.1700130" lon="-3.8364160">
        <ele>371.6</ele>
        <time>2018-04-28T07:15:26Z</time>
      </trkpt>
      <trkpt lat="38.1700140" lon="-3.8365320">
        <ele>371.6</ele>
        <time>2018-04-28T07:15:27Z</time>
      </trkpt>
      <trkpt lat="38.1700150" lon="-3.8366460">
        <ele>371.4</ele>
        <time>2018-04-28T07:15:28Z</time>
      </trkpt>
      <trkpt lat="38.1700170" lon="-3.8367610">
        <ele>371.2</ele>
        <time>2018-04-28T07:15:29Z</time>
      </trkpt>
      <trkpt lat="38.1700200" lon="-3.8368750">
        <ele>371.2</ele>
        <time>2018-04-28T07:15:30Z</time>
      </trkpt>
      <trkpt lat="38.1700230" lon="-3.8369870">
        <ele>371.0</ele>
        <time>2018-04-28T07:15:31Z</time>
      </trkpt>
      <trkpt lat="38.1700250" lon="-3.8370970">
        <ele>371.0</ele>
        <time>2018-04-28T07:15:32Z</time>
      </trkpt>
      <trkpt lat="38.1700270" lon="-3.8372070">
        <ele>370.8</ele>
        <time>2018-04-28T07:15:33Z</time>
      </trkpt>
      <trkpt lat="38.1700280" lon="-3.8373180">
        <ele>370.8</ele>
        <time>2018-04-28T07:15:34Z</time>
      </trkpt>
      <trkpt lat="38.1700270" lon="-3.8374280">
        <ele>370.6</ele>
        <time>2018-04-28T07:15:35Z</time>
      </trkpt>
      <trkpt lat="38.1700260" lon="-3.8375340">
        <ele>370.6</ele>
        <time>2018-04-28T07:15:36Z</time>
      </trkpt>
      <trkpt lat="38.1700220" lon="-3.8376390">
        <ele>370.4</ele>
        <time>2018-04-28T07:15:37Z</time>
      </trkpt>
      <trkpt lat="38.1700150" lon="-3.8377430">
        <ele>370.2</ele>
        <time>2018-04-28T07:15:38Z</time>
      </trkpt>
      <trkpt lat="38.1700030" lon="-3.8378480">
        <ele>370.2</ele>
        <time>2018-04-28T07:15:39Z</time>
      </trkpt>
      <trkpt lat="38.1699880" lon="-3.8379520">
        <ele>369.8</ele>
        <time>2018-04-28T07:15:40Z</time>
      </trkpt>
      <trkpt lat="38.1699710" lon="-3.8380550">
        <ele>369.6</ele>
        <time>2018-04-28T07:15:41Z</time>
      </trkpt>
      <trkpt lat="38.1699550" lon="-3.8381600">
        <ele>369.4</ele>
        <time>2018-04-28T07:15:42Z</time>
      </trkpt>
      <trkpt lat="38.1699410" lon="-3.8382640">
        <ele>369.2</ele>
        <time>2018-04-28T07:15:43Z</time>
      </trkpt>
      <trkpt lat="38.1699260" lon="-3.8383690">
        <ele>369.2</ele>
        <time>2018-04-28T07:15:44Z</time>
      </trkpt>
      <trkpt lat="38.1699120" lon="-3.8384730">
        <ele>368.8</ele>
        <time>2018-04-28T07:15:45Z</time>
      </trkpt>
      <trkpt lat="38.1698950" lon="-3.8385760">
        <ele>368.6</ele>
        <time>2018-04-28T07:15:46Z</time>
      </trkpt>
      <trkpt lat="38.1698750" lon="-3.8386780">
        <ele>368.4</ele>
        <time>2018-04-28T07:15:47Z</time>
      </trkpt>
      <trkpt lat="38.1698560" lon="-3.8387800">
        <ele>368.2</ele>
        <time>2018-04-28T07:15:48Z</time>
      </trkpt>
      <trkpt lat="38.1698390" lon="-3.8388820">
        <ele>368.2</ele>
        <time>2018-04-28T07:15:49Z</time>
      </trkpt>
      <trkpt lat="38.1698260" lon="-3.8389840">
        <ele>368.0</ele>
        <time>2018-04-28T07:15:50Z</time>
      </trkpt>
      <trkpt lat="38.1698140" lon="-3.8390830">
        <ele>368.0</ele>
        <time>2018-04-28T07:15:51Z</time>
      </trkpt>
      <trkpt lat="38.1698020" lon="-3.8391810">
        <ele>368.0</ele>
        <time>2018-04-28T07:15:52Z</time>
      </trkpt>
      <trkpt lat="38.1697880" lon="-3.8392800">
        <ele>368.2</ele>
        <time>2018-04-28T07:15:53Z</time>
      </trkpt>
      <trkpt lat="38.1697780" lon="-3.8393760">
        <ele>368.0</ele>
        <time>2018-04-28T07:15:54Z</time>
      </trkpt>
      <trkpt lat="38.1697700" lon="-3.8394790">
        <ele>367.8</ele>
        <time>2018-04-28T07:15:55Z</time>
      </trkpt>
      <trkpt lat="38.1697490" lon="-3.8395730">
        <ele>368.0</ele>
        <time>2018-04-28T07:15:56Z</time>
      </trkpt>
      <trkpt lat="38.1697310" lon="-3.8396630">
        <ele>367.8</ele>
        <time>2018-04-28T07:15:57Z</time>
      </trkpt>
      <trkpt lat="38.1697210" lon="-3.8397510">
        <ele>367.6</ele>
        <time>2018-04-28T07:15:58Z</time>
      </trkpt>
      <trkpt lat="38.1697160" lon="-3.8398390">
        <ele>367.6</ele>
        <time>2018-04-28T07:15:59Z</time>
      </trkpt>
      <trkpt lat="38.1697090" lon="-3.8399240">
        <ele>367.4</ele>
        <time>2018-04-28T07:16:00Z</time>
      </trkpt>
      <trkpt lat="38.1697120" lon="-3.8400100">
        <ele>367.4</ele>
        <time>2018-04-28T07:16:01Z</time>
      </trkpt>
      <trkpt lat="38.1697220" lon="-3.8400950">
        <ele>367.0</ele>
        <time>2018-04-28T07:16:02Z</time>
      </trkpt>
      <trkpt lat="38.1697410" lon="-3.8401790">
        <ele>366.6</ele>
        <time>2018-04-28T07:16:03Z</time>
      </trkpt>
      <trkpt lat="38.1697700" lon="-3.8402550">
        <ele>366.4</ele>
        <time>2018-04-28T07:16:04Z</time>
      </trkpt>
      <trkpt lat="38.1697960" lon="-3.8403360">
        <ele>366.0</ele>
        <time>2018-04-28T07:16:05Z</time>
      </trkpt>
      <trkpt lat="38.1698180" lon="-3.8404250">
        <ele>365.8</ele>
        <time>2018-04-28T07:16:06Z</time>
      </trkpt>
      <trkpt lat="38.1698410" lon="-3.8405120">
        <ele>365.4</ele>
        <time>2018-04-28T07:16:07Z</time>
      </trkpt>
      <trkpt lat="38.1698650" lon="-3.8405990">
        <ele>365.2</ele>
        <time>2018-04-28T07:16:08Z</time>
      </trkpt>
      <trkpt lat="38.1698900" lon="-3.8406880">
        <ele>365.0</ele>
        <time>2018-04-28T07:16:09Z</time>
      </trkpt>
      <trkpt lat="38.1699120" lon="-3.8407750">
        <ele>364.8</ele>
        <time>2018-04-28T07:16:10Z</time>
      </trkpt>
      <trkpt lat="38.1699340" lon="-3.8408580">
        <ele>364.8</ele>
        <time>2018-04-28T07:16:11Z</time>
      </trkpt>
      <trkpt lat="38.1699640" lon="-3.8409360">
        <ele>364.6</ele>
        <time>2018-04-28T07:16:12Z</time>
      </trkpt>
      <trkpt lat="38.1700000" lon="-3.8410120">
        <ele>364.8</ele>
        <time>2018-04-28T07:16:13Z</time>
      </trkpt>
      <trkpt lat="38.1700410" lon="-3.8410880">
        <ele>364.6</ele>
        <time>2018-04-28T07:16:14Z</time>
      </trkpt>
      <trkpt lat="38.1700870" lon="-3.8411500">
        <ele>364.4</ele>
        <time>2018-04-28T07:16:15Z</time>
      </trkpt>
      <trkpt lat="38.1701310" lon="-3.8412140">
        <ele>364.4</ele>
        <time>2018-04-28T07:16:16Z</time>
      </trkpt>
      <trkpt lat="38.1701710" lon="-3.8412810">
        <ele>364.2</ele>
        <time>2018-04-28T07:16:17Z</time>
      </trkpt>
      <trkpt lat="38.1702090" lon="-3.8413510">
        <ele>364.2</ele>
        <time>2018-04-28T07:16:18Z</time>
      </trkpt>
      <trkpt lat="38.1702440" lon="-3.8414190">
        <ele>364.0</ele>
        <time>2018-04-28T07:16:19Z</time>
      </trkpt>
      <trkpt lat="38.1702730" lon="-3.8414950">
        <ele>363.6</ele>
        <time>2018-04-28T07:16:20Z</time>
      </trkpt>
      <trkpt lat="38.1702970" lon="-3.8415770">
        <ele>363.2</ele>
        <time>2018-04-28T07:16:21Z</time>
      </trkpt>
      <trkpt lat="38.1703160" lon="-3.8416600">
        <ele>362.8</ele>
        <time>2018-04-28T07:16:22Z</time>
      </trkpt>
      <trkpt lat="38.1703330" lon="-3.8417510">
        <ele>362.4</ele>
        <time>2018-04-28T07:16:23Z</time>
      </trkpt>
      <trkpt lat="38.1703480" lon="-3.8418480">
        <ele>362.0</ele>
        <time>2018-04-28T07:16:24Z</time>
      </trkpt>
      <trkpt lat="38.1703660" lon="-3.8419440">
        <ele>361.6</ele>
        <time>2018-04-28T07:16:25Z</time>
      </trkpt>
      <trkpt lat="38.1703870" lon="-3.8420430">
        <ele>361.2</ele>
        <time>2018-04-28T07:16:26Z</time>
      </trkpt>
      <trkpt lat="38.1704070" lon="-3.8421430">
        <ele>360.8</ele>
        <time>2018-04-28T07:16:27Z</time>
      </trkpt>
      <trkpt lat="38.1704300" lon="-3.8422460">
        <ele>360.2</ele>
        <time>2018-04-28T07:16:28Z</time>
      </trkpt>
      <trkpt lat="38.1704540" lon="-3.8423490">
        <ele>359.6</ele>
        <time>2018-04-28T07:16:29Z</time>
      </trkpt>
      <trkpt lat="38.1704780" lon="-3.8424580">
        <ele>359.4</ele>
        <time>2018-04-28T07:16:30Z</time>
      </trkpt>
      <trkpt lat="38.1705040" lon="-3.8425690">
        <ele>359.2</ele>
        <time>2018-04-28T07:16:31Z</time>
      </trkpt>
      <trkpt lat="38.1705300" lon="-3.8426820">
        <ele>358.4</ele>
        <time>2018-04-28T07:16:32Z</time>
      </trkpt>
      <trkpt lat="38.1705550" lon="-3.8427980">
        <ele>358.4</ele>
        <time>2018-04-28T07:16:33Z</time>
      </trkpt>
      <trkpt lat="38.1705800" lon="-3.8429110">
        <ele>358.0</ele>
        <time>2018-04-28T07:16:34Z</time>
      </trkpt>
      <trkpt lat="38.1706070" lon="-3.8430260">
        <ele>357.4</ele>
        <time>2018-04-28T07:16:35Z</time>
      </trkpt>
      <trkpt lat="38.1706370" lon="-3.8431400">
        <ele>356.8</ele>
        <time>2018-04-28T07:16:36Z</time>
      </trkpt>
      <trkpt lat="38.1706760" lon="-3.8432490">
        <ele>356.0</ele>
        <time>2018-04-28T07:16:37Z</time>
      </trkpt>
      <trkpt lat="38.1707150" lon="-3.8433660">
        <ele>355.4</ele>
        <time>2018-04-28T07:16:38Z</time>
      </trkpt>
      <trkpt lat="38.1707550" lon="-3.8434800">
        <ele>354.8</ele>
        <time>2018-04-28T07:16:39Z</time>
      </trkpt>
      <trkpt lat="38.1707950" lon="-3.8435930">
        <ele>353.8</ele>
        <time>2018-04-28T07:16:40Z</time>
      </trkpt>
      <trkpt lat="38.1708390" lon="-3.8437140">
        <ele>353.2</ele>
        <time>2018-04-28T07:16:41Z</time>
      </trkpt>
      <trkpt lat="38.1708890" lon="-3.8438180">
        <ele>352.6</ele>
        <time>2018-04-28T07:16:42Z</time>
      </trkpt>
      <trkpt lat="38.1709490" lon="-3.8439160">
        <ele>352.0</ele>
        <time>2018-04-28T07:16:43Z</time>
      </trkpt>
      <trkpt lat="38.1710150" lon="-3.8440060">
        <ele>351.4</ele>
        <time>2018-04-28T07:16:44Z</time>
      </trkpt>
      <trkpt lat="38.1710850" lon="-3.8440920">
        <ele>350.6</ele>
        <time>2018-04-28T07:16:45Z</time>
      </trkpt>
      <trkpt lat="38.1711510" lon="-3.8441820">
        <ele>349.8</ele>
        <time>2018-04-28T07:16:46Z</time>
      </trkpt>
      <trkpt lat="38.1712050" lon="-3.8442840">
        <ele>349.2</ele>
        <time>2018-04-28T07:16:47Z</time>
      </trkpt>
      <trkpt lat="38.1712440" lon="-3.8443950">
        <ele>348.8</ele>
        <time>2018-04-28T07:16:48Z</time>
      </trkpt>
      <trkpt lat="38.1712730" lon="-3.8445090">
        <ele>348.6</ele>
        <time>2018-04-28T07:16:49Z</time>
      </trkpt>
      <trkpt lat="38.1712990" lon="-3.8446160">
        <ele>348.6</ele>
        <time>2018-04-28T07:16:50Z</time>
      </trkpt>
      <trkpt lat="38.1713230" lon="-3.8447170">
        <ele>348.8</ele>
        <time>2018-04-28T07:16:51Z</time>
      </trkpt>
      <trkpt lat="38.1713440" lon="-3.8448100">
        <ele>348.8</ele>
        <time>2018-04-28T07:16:52Z</time>
      </trkpt>
      <trkpt lat="38.1713620" lon="-3.8449000">
        <ele>348.6</ele>
        <time>2018-04-28T07:16:53Z</time>
      </trkpt>
      <trkpt lat="38.1713800" lon="-3.8449940">
        <ele>348.6</ele>
        <time>2018-04-28T07:16:54Z</time>
      </trkpt>
      <trkpt lat="38.1713950" lon="-3.8450870">
        <ele>348.4</ele>
        <time>2018-04-28T07:16:55Z</time>
      </trkpt>
      <trkpt lat="38.1714050" lon="-3.8451750">
        <ele>348.4</ele>
        <time>2018-04-28T07:16:56Z</time>
      </trkpt>
      <trkpt lat="38.1714070" lon="-3.8452650">
        <ele>348.6</ele>
        <time>2018-04-28T07:16:57Z</time>
      </trkpt>
      <trkpt lat="38.1714040" lon="-3.8453470">
        <ele>348.6</ele>
        <time>2018-04-28T07:16:58Z</time>
      </trkpt>
      <trkpt lat="38.1713970" lon="-3.8454290">
        <ele>348.8</ele>
        <time>2018-04-28T07:16:59Z</time>
      </trkpt>
      <trkpt lat="38.1713840" lon="-3.8455050">
        <ele>349.0</ele>
        <time>2018-04-28T07:17:00Z</time>
      </trkpt>
      <trkpt lat="38.1713710" lon="-3.8455800">
        <ele>349.4</ele>
        <time>2018-04-28T07:17:01Z</time>
      </trkpt>
      <trkpt lat="38.1713580" lon="-3.8456500">
        <ele>349.6</ele>
        <time>2018-04-28T07:17:02Z</time>
      </trkpt>
      <trkpt lat="38.1713450" lon="-3.8457160">
        <ele>350.0</ele>
        <time>2018-04-28T07:17:03Z</time>
      </trkpt>
      <trkpt lat="38.1713330" lon="-3.8457780">
        <ele>350.2</ele>
        <time>2018-04-28T07:17:04Z</time>
      </trkpt>
      <trkpt lat="38.1713220" lon="-3.8458340">
        <ele>350.4</ele>
        <time>2018-04-28T07:17:05Z</time>
      </trkpt>
      <trkpt lat="38.1713120" lon="-3.8458880">
        <ele>350.6</ele>
        <time>2018-04-28T07:17:06Z</time>
      </trkpt>
      <trkpt lat="38.1713000" lon="-3.8459390">
        <ele>350.8</ele>
        <time>2018-04-28T07:17:07Z</time>
      </trkpt>
      <trkpt lat="38.1712870" lon="-3.8459860">
        <ele>351.0</ele>
        <time>2018-04-28T07:17:08Z</time>
      </trkpt>
      <trkpt lat="38.1712720" lon="-3.8460330">
        <ele>351.2</ele>
        <time>2018-04-28T07:17:09Z</time>
      </trkpt>
      <trkpt lat="38.1712560" lon="-3.8460780">
        <ele>351.4</ele>
        <time>2018-04-28T07:17:10Z</time>
      </trkpt>
      <trkpt lat="38.1712430" lon="-3.8461170">
        <ele>351.4</ele>
        <time>2018-04-28T07:17:11Z</time>
      </trkpt>
      <trkpt lat="38.1712300" lon="-3.8461620">
        <ele>351.6</ele>
        <time>2018-04-28T07:17:12Z</time>
      </trkpt>
      <trkpt lat="38.1712190" lon="-3.8462040">
        <ele>352.0</ele>
        <time>2018-04-28T07:17:13Z</time>
      </trkpt>
      <trkpt lat="38.1712110" lon="-3.8462480">
        <ele>352.2</ele>
        <time>2018-04-28T07:17:14Z</time>
      </trkpt>
      <trkpt lat="38.1712070" lon="-3.8462910">
        <ele>352.4</ele>
        <time>2018-04-28T07:17:15Z</time>
      </trkpt>
      <trkpt lat="38.1712000" lon="-3.8463350">
        <ele>352.6</ele>
        <time>2018-04-28T07:17:16Z</time>
      </trkpt>
      <trkpt lat="38.1711910" lon="-3.8463800">
        <ele>352.8</ele>
        <time>2018-04-28T07:17:17Z</time>
      </trkpt>
      <trkpt lat="38.1711850" lon="-3.8464260">
        <ele>352.8</ele>
        <time>2018-04-28T07:17:18Z</time>
      </trkpt>
      <trkpt lat="38.1711820" lon="-3.8464700">
        <ele>353.0</ele>
        <time>2018-04-28T07:17:19Z</time>
      </trkpt>
      <trkpt lat="38.1711780" lon="-3.8465160">
        <ele>353.2</ele>
        <time>2018-04-28T07:17:20Z</time>
      </trkpt>
      <trkpt lat="38.1711750" lon="-3.8465630">
        <ele>353.4</ele>
        <time>2018-04-28T07:17:21Z</time>
      </trkpt>
      <trkpt lat="38.1711730" lon="-3.8466080">
        <ele>353.4</ele>
        <time>2018-04-28T07:17:22Z</time>
      </trkpt>
      <trkpt lat="38.1711730" lon="-3.8466550">
        <ele>353.6</ele>
        <time>2018-04-28T07:17:23Z</time>
      </trkpt>
      <trkpt lat="38.1711720" lon="-3.8467060">
        <ele>353.6</ele>
        <time>2018-04-28T07:17:24Z</time>
      </trkpt>
      <trkpt lat="38.1711730" lon="-3.8467510">
        <ele>353.8</ele>
        <time>2018-04-28T07:17:25Z</time>
      </trkpt>
      <trkpt lat="38.1711720" lon="-3.8468010">
        <ele>354.0</ele>
        <time>2018-04-28T07:17:26Z</time>
      </trkpt>
      <trkpt lat="38.1711710" lon="-3.8468480">
        <ele>354.0</ele>
        <time>2018-04-28T07:17:27Z</time>
      </trkpt>
      <trkpt lat="38.1711700" lon="-3.8468930">
        <ele>354.2</ele>
        <time>2018-04-28T07:17:28Z</time>
      </trkpt>
      <trkpt lat="38.1711680" lon="-3.8469350">
        <ele>354.4</ele>
        <time>2018-04-28T07:17:29Z</time>
      </trkpt>
      <trkpt lat="38.1711680" lon="-3.8469750">
        <ele>354.6</ele>
        <time>2018-04-28T07:17:30Z</time>
      </trkpt>
      <trkpt lat="38.1711710" lon="-3.8470130">
        <ele>354.8</ele>
        <time>2018-04-28T07:17:31Z</time>
      </trkpt>
      <trkpt lat="38.1711730" lon="-3.8470510">
        <ele>354.8</ele>
        <time>2018-04-28T07:17:32Z</time>
      </trkpt>
      <trkpt lat="38.1711740" lon="-3.8470900">
        <ele>355.0</ele>
        <time>2018-04-28T07:17:33Z</time>
      </trkpt>
      <trkpt lat="38.1711750" lon="-3.8471290">
        <ele>355.0</ele>
        <time>2018-04-28T07:17:34Z</time>
      </trkpt>
      <trkpt lat="38.1711770" lon="-3.8471680">
        <ele>355.2</ele>
        <time>2018-04-28T07:17:35Z</time>
      </trkpt>
      <trkpt lat="38.1711780" lon="-3.8472100">
        <ele>355.2</ele>
        <time>2018-04-28T07:17:36Z</time>
      </trkpt>
      <trkpt lat="38.1711800" lon="-3.8472540">
        <ele>355.2</ele>
        <time>2018-04-28T07:17:37Z</time>
      </trkpt>
      <trkpt lat="38.1711840" lon="-3.8472970">
        <ele>355.2</ele>
        <time>2018-04-28T07:17:38Z</time>
      </trkpt>
      <trkpt lat="38.1711890" lon="-3.8473420">
        <ele>355.0</ele>
        <time>2018-04-28T07:17:39Z</time>
      </trkpt>
      <trkpt lat="38.1711950" lon="-3.8473890">
        <ele>355.0</ele>
        <time>2018-04-28T07:17:40Z</time>
      </trkpt>
      <trkpt lat="38.1712010" lon="-3.8474390">
        <ele>355.0</ele>
        <time>2018-04-28T07:17:41Z</time>
      </trkpt>
      <trkpt lat="38.1712070" lon="-3.8474920">
        <ele>354.8</ele>
        <time>2018-04-28T07:17:42Z</time>
      </trkpt>
      <trkpt lat="38.1712130" lon="-3.8475470">
        <ele>354.6</ele>
        <time>2018-04-28T07:17:43Z</time>
      </trkpt>
      <trkpt lat="38.1712220" lon="-3.8476030">
        <ele>354.6</ele>
        <time>2018-04-28T07:17:44Z</time>
      </trkpt>
      <trkpt lat="38.1712320" lon="-3.8476600">
        <ele>354.6</ele>
        <time>2018-04-28T07:17:45Z</time>
      </trkpt>
      <trkpt lat="38.1712440" lon="-3.8477160">
        <ele>354.6</ele>
        <time>2018-04-28T07:17:46Z</time>
      </trkpt>
      <trkpt lat="38.1712540" lon="-3.8477690">
        <ele>354.6</ele>
        <time>2018-04-28T07:17:47Z</time>
      </trkpt>
      <trkpt lat="38.1712630" lon="-3.8478220">
        <ele>354.6</ele>
        <time>2018-04-28T07:17:48Z</time>
      </trkpt>
      <trkpt lat="38.1712700" lon="-3.8478710">
        <ele>354.8</ele>
        <time>2018-04-28T07:17:49Z</time>
      </trkpt>
      <trkpt lat="38.1712770" lon="-3.8479190">
        <ele>354.8</ele>
        <time>2018-04-28T07:17:50Z</time>
      </trkpt>
      <trkpt lat="38.1712830" lon="-3.8479630">
        <ele>355.0</ele>
        <time>2018-04-28T07:17:51Z</time>
      </trkpt>
      <trkpt lat="38.1712900" lon="-3.8480050">
        <ele>355.2</ele>
        <time>2018-04-28T07:17:52Z</time>
      </trkpt>
      <trkpt lat="38.1712970" lon="-3.8480470">
        <ele>355.2</ele>
        <time>2018-04-28T07:17:53Z</time>
      </trkpt>
      <trkpt lat="38.1713040" lon="-3.8480880">
        <ele>355.4</ele>
        <time>2018-04-28T07:17:54Z</time>
      </trkpt>
      <trkpt lat="38.1713090" lon="-3.8481290">
        <ele>355.6</ele>
        <time>2018-04-28T07:17:55Z</time>
      </trkpt>
      <trkpt lat="38.1713130" lon="-3.8481680">
        <ele>355.8</ele>
        <time>2018-04-28T07:17:56Z</time>
      </trkpt>
      <trkpt lat="38.1713190" lon="-3.8482030">
        <ele>356.0</ele>
        <time>2018-04-28T07:17:57Z</time>
      </trkpt>
      <trkpt lat="38.1713260" lon="-3.8482360">
        <ele>356.2</ele>
        <time>2018-04-28T07:17:58Z</time>
      </trkpt>
      <trkpt lat="38.1713330" lon="-3.8482700">
        <ele>356.2</ele>
        <time>2018-04-28T07:17:59Z</time>
      </trkpt>
      <trkpt lat="38.1713370" lon="-3.8483020">
        <ele>356.4</ele>
        <time>2018-04-28T07:18:00Z</time>
      </trkpt>
      <trkpt lat="38.1713430" lon="-3.8483360">
        <ele>356.6</ele>
        <time>2018-04-28T07:18:01Z</time>
      </trkpt>
      <trkpt lat="38.1713500" lon="-3.8483670">
        <ele>356.6</ele>
        <time>2018-04-28T07:18:02Z</time>
      </trkpt>
      <trkpt lat="38.1713570" lon="-3.8483980">
        <ele>356.8</ele>
        <time>2018-04-28T07:18:03Z</time>
      </trkpt>
      <trkpt lat="38.1713650" lon="-3.8484300">
        <ele>357.0</ele>
        <time>2018-04-28T07:18:04Z</time>
      </trkpt>
      <trkpt lat="38.1713740" lon="-3.8484610">
        <ele>357.2</ele>
        <time>2018-04-28T07:18:05Z</time>
      </trkpt>
      <trkpt lat="38.1713820" lon="-3.8484940">
        <ele>357.4</ele>
        <time>2018-04-28T07:18:06Z</time>
      </trkpt>
      <trkpt lat="38.1713920" lon="-3.8485260">
        <ele>357.6</ele>
        <time>2018-04-28T07:18:07Z</time>
      </trkpt>
      <trkpt lat="38.1714030" lon="-3.8485550">
        <ele>357.8</ele>
        <time>2018-04-28T07:18:08Z</time>
      </trkpt>
      <trkpt lat="38.1714150" lon="-3.8485840">
        <ele>357.8</ele>
        <time>2018-04-28T07:18:09Z</time>
      </trkpt>
      <trkpt lat="38.1714250" lon="-3.8486140">
        <ele>358.0</ele>
        <time>2018-04-28T07:18:10Z</time>
      </trkpt>
      <trkpt lat="38.1714380" lon="-3.8486440">
        <ele>358.2</ele>
        <time>2018-04-28T07:18:11Z</time>
      </trkpt>
      <trkpt lat="38.1714500" lon="-3.8486720">
        <ele>358.4</ele>
        <time>2018-04-28T07:18:12Z</time>
      </trkpt>
      <trkpt lat="38.1714620" lon="-3.8487010">
        <ele>358.6</ele>
        <time>2018-04-28T07:18:13Z</time>
      </trkpt>
      <trkpt lat="38.1714740" lon="-3.8487300">
        <ele>358.8</ele>
        <time>2018-04-28T07:18:14Z</time>
      </trkpt>
      <trkpt lat="38.1714880" lon="-3.8487520">
        <ele>359.0</ele>
        <time>2018-04-28T07:18:15Z</time>
      </trkpt>
      <trkpt lat="38.1715010" lon="-3.8487790">
        <ele>359.2</ele>
        <time>2018-04-28T07:18:16Z</time>
      </trkpt>
      <trkpt lat="38.1715120" lon="-3.8488100">
        <ele>359.4</ele>
        <time>2018-04-28T07:18:17Z</time>
      </trkpt>
      <trkpt lat="38.1715260" lon="-3.8488380">
        <ele>359.8</ele>
        <time>2018-04-28T07:18:18Z</time>
      </trkpt>
      <trkpt lat="38.1715390" lon="-3.8488650">
        <ele>359.8</ele>
        <time>2018-04-28T07:18:19Z</time>
      </trkpt>
      <trkpt lat="38.1715500" lon="-3.8488960">
        <ele>360.0</ele>
        <time>2018-04-28T07:18:20Z</time>
      </trkpt>
      <trkpt lat="38.1715630" lon="-3.8489230">
        <ele>360.4</ele>
        <time>2018-04-28T07:18:21Z</time>
      </trkpt>
      <trkpt lat="38.1715760" lon="-3.8489490">
        <ele>360.6</ele>
        <time>2018-04-28T07:18:22Z</time>
      </trkpt>
      <trkpt lat="38.1715900" lon="-3.8489750">
        <ele>360.8</ele>
        <time>2018-04-28T07:18:23Z</time>
      </trkpt>
      <trkpt lat="38.1716020" lon="-3.8489990">
        <ele>360.8</ele>
        <time>2018-04-28T07:18:24Z</time>
      </trkpt>
      <trkpt lat="38.1716170" lon="-3.8490150">
        <ele>361.0</ele>
        <time>2018-04-28T07:18:25Z</time>
      </trkpt>
      <trkpt lat="38.1716300" lon="-3.8490420">
        <ele>361.2</ele>
        <time>2018-04-28T07:18:26Z</time>
      </trkpt>
      <trkpt lat="38.1716400" lon="-3.8490680">
        <ele>361.4</ele>
        <time>2018-04-28T07:18:27Z</time>
      </trkpt>
      <trkpt lat="38.1716510" lon="-3.8490940">
        <ele>361.6</ele>
        <time>2018-04-28T07:18:28Z</time>
      </trkpt>
      <trkpt lat="38.1716600" lon="-3.8491200">
        <ele>361.8</ele>
        <time>2018-04-28T07:18:29Z</time>
      </trkpt>
      <trkpt lat="38.1716710" lon="-3.8491500">
        <ele>362.0</ele>
        <time>2018-04-28T07:18:30Z</time>
      </trkpt>
      <trkpt lat="38.1716860" lon="-3.8491750">
        <ele>362.2</ele>
        <time>2018-04-28T07:18:31Z</time>
      </trkpt>
      <trkpt lat="38.1716960" lon="-3.8492020">
        <ele>362.2</ele>
        <time>2018-04-28T07:18:32Z</time>
      </trkpt>
      <trkpt lat="38.1717050" lon="-3.8492290">
        <ele>362.4</ele>
        <time>2018-04-28T07:18:33Z</time>
      </trkpt>
      <trkpt lat="38.1717160" lon="-3.8492550">
        <ele>362.6</ele>
        <time>2018-04-28T07:18:34Z</time>
      </trkpt>
      <trkpt lat="38.1717260" lon="-3.8492800">
        <ele>362.8</ele>
        <time>2018-04-28T07:18:35Z</time>
      </trkpt>
      <trkpt lat="38.1717360" lon="-3.8493060">
        <ele>363.0</ele>
        <time>2018-04-28T07:18:36Z</time>
      </trkpt>
      <trkpt lat="38.1717470" lon="-3.8493340">
        <ele>363.2</ele>
        <time>2018-04-28T07:18:37Z</time>
      </trkpt>
      <trkpt lat="38.1717600" lon="-3.8493580">
        <ele>363.4</ele>
        <time>2018-04-28T07:18:38Z</time>
      </trkpt>
      <trkpt lat="38.1717730" lon="-3.8493810">
        <ele>363.4</ele>
        <time>2018-04-28T07:18:39Z</time>
      </trkpt>
      <trkpt lat="38.1717840" lon="-3.8494080">
        <ele>363.6</ele>
        <time>2018-04-28T07:18:40Z</time>
      </trkpt>
      <trkpt lat="38.1717950" lon="-3.8494350">
        <ele>363.8</ele>
        <time>2018-04-28T07:18:41Z</time>
      </trkpt>
      <trkpt lat="38.1718070" lon="-3.8494590">
        <ele>364.0</ele>
        <time>2018-04-28T07:18:42Z</time>
      </trkpt>
      <trkpt lat="38.1718200" lon="-3.8494840">
        <ele>364.0</ele>
        <time>2018-04-28T07:18:43Z</time>
      </trkpt>
      <trkpt lat="38.1718330" lon="-3.8495080">
        <ele>364.2</ele>
        <time>2018-04-28T07:18:44Z</time>
      </trkpt>
      <trkpt lat="38.1718470" lon="-3.8495310">
        <ele>364.4</ele>
        <time>2018-04-28T07:18:45Z</time>
      </trkpt>
      <trkpt lat="38.1718610" lon="-3.8495540">
        <ele>364.4</ele>
        <time>2018-04-28T07:18:46Z</time>
      </trkpt>
      <trkpt lat="38.1718760" lon="-3.8495770">
        <ele>364.6</ele>
        <time>2018-04-28T07:18:47Z</time>
      </trkpt>
      <trkpt lat="38.1718910" lon="-3.8495990">
        <ele>364.6</ele>
        <time>2018-04-28T07:18:48Z</time>
      </trkpt>
      <trkpt lat="38.1719050" lon="-3.8496230">
        <ele>364.8</ele>
        <time>2018-04-28T07:18:49Z</time>
      </trkpt>
      <trkpt lat="38.1719210" lon="-3.8496450">
        <ele>365.0</ele>
        <time>2018-04-28T07:18:50Z</time>
      </trkpt>
      <trkpt lat="38.1719370" lon="-3.8496650">
        <ele>365.0</ele>
        <time>2018-04-28T07:18:51Z</time>
      </trkpt>
      <trkpt lat="38.1719510" lon="-3.8496930">
        <ele>365.2</ele>
        <time>2018-04-28T07:18:52Z</time>
      </trkpt>
      <trkpt lat="38.1719650" lon="-3.8497190">
        <ele>365.4</ele>
        <time>2018-04-28T07:18:53Z</time>
      </trkpt>
      <trkpt lat="38.1719800" lon="-3.8497430">
        <ele>365.4</ele>
        <time>2018-04-28T07:18:54Z</time>
      </trkpt>
      <trkpt lat="38.1719940" lon="-3.8497680">
        <ele>361.6</ele>
        <time>2018-04-28T07:18:55Z</time>
      </trkpt>
      <trkpt lat="38.1720090" lon="-3.8497910">
        <ele>365.8</ele>
        <time>2018-04-28T07:18:57Z</time>
      </trkpt>
      <trkpt lat="38.1720240" lon="-3.8498140">
        <ele>365.6</ele>
        <time>2018-04-28T07:18:58Z</time>
      </trkpt>
      <trkpt lat="38.1720380" lon="-3.8498360">
        <ele>365.8</ele>
        <time>2018-04-28T07:18:59Z</time>
      </trkpt>
      <trkpt lat="38.1720520" lon="-3.8498590">
        <ele>365.8</ele>
        <time>2018-04-28T07:19:00Z</time>
      </trkpt>
      <trkpt lat="38.1720670" lon="-3.8498780">
        <ele>366.0</ele>
        <time>2018-04-28T07:19:01Z</time>
      </trkpt>
      <trkpt lat="38.1720820" lon="-3.8499000">
        <ele>366.0</ele>
        <time>2018-04-28T07:19:02Z</time>
      </trkpt>
      <trkpt lat="38.1720980" lon="-3.8499230">
        <ele>366.2</ele>
        <time>2018-04-28T07:19:03Z</time>
      </trkpt>
      <trkpt lat="38.1721140" lon="-3.8499440">
        <ele>366.4</ele>
        <time>2018-04-28T07:19:04Z</time>
      </trkpt>
      <trkpt lat="38.1721280" lon="-3.8499630">
        <ele>366.4</ele>
        <time>2018-04-28T07:19:05Z</time>
      </trkpt>
      <trkpt lat="38.1721400" lon="-3.8499880">
        <ele>366.6</ele>
        <time>2018-04-28T07:19:06Z</time>
      </trkpt>
      <trkpt lat="38.1721500" lon="-3.8500130">
        <ele>366.6</ele>
        <time>2018-04-28T07:19:07Z</time>
      </trkpt>
      <trkpt lat="38.1721580" lon="-3.8500390">
        <ele>366.8</ele>
        <time>2018-04-28T07:19:08Z</time>
      </trkpt>
      <trkpt lat="38.1721650" lon="-3.8500650">
        <ele>366.8</ele>
        <time>2018-04-28T07:19:09Z</time>
      </trkpt>
      <trkpt lat="38.1721690" lon="-3.8500900">
        <ele>367.0</ele>
        <time>2018-04-28T07:19:10Z</time>
      </trkpt>
      <trkpt lat="38.1721690" lon="-3.8501200">
        <ele>367.2</ele>
        <time>2018-04-28T07:19:11Z</time>
      </trkpt>
      <trkpt lat="38.1721690" lon="-3.8501480">
        <ele>367.2</ele>
        <time>2018-04-28T07:19:12Z</time>
      </trkpt>
      <trkpt lat="38.1721700" lon="-3.8501760">
        <ele>367.4</ele>
        <time>2018-04-28T07:19:13Z</time>
      </trkpt>
      <trkpt lat="38.1721720" lon="-3.8502020">
        <ele>367.6</ele>
        <time>2018-04-28T07:19:14Z</time>
      </trkpt>
      <trkpt lat="38.1721710" lon="-3.8502290">
        <ele>367.6</ele>
        <time>2018-04-28T07:19:15Z</time>
      </trkpt>
      <trkpt lat="38.1721670" lon="-3.8502830">
        <ele>367.8</ele>
        <time>2018-04-28T07:19:16Z</time>
      </trkpt>
      <trkpt lat="38.1721620" lon="-3.8503090">
        <ele>368.0</ele>
        <time>2018-04-28T07:19:17Z</time>
      </trkpt>
      <trkpt lat="38.1721540" lon="-3.8503340">
        <ele>368.0</ele>
        <time>2018-04-28T07:19:18Z</time>
      </trkpt>
      <trkpt lat="38.1721450" lon="-3.8503590">
        <ele>368.2</ele>
        <time>2018-04-28T07:19:19Z</time>
      </trkpt>
      <trkpt lat="38.1721360" lon="-3.8503830">
        <ele>368.2</ele>
        <time>2018-04-28T07:19:20Z</time>
      </trkpt>
      <trkpt lat="38.1721260" lon="-3.8504070">
        <ele>368.2</ele>
        <time>2018-04-28T07:19:21Z</time>
      </trkpt>
      <trkpt lat="38.1721140" lon="-3.8504290">
        <ele>368.4</ele>
        <time>2018-04-28T07:19:22Z</time>
      </trkpt>
      <trkpt lat="38.1721010" lon="-3.8504500">
        <ele>368.4</ele>
        <time>2018-04-28T07:19:23Z</time>
      </trkpt>
      <trkpt lat="38.1720880" lon="-3.8504720">
        <ele>368.6</ele>
        <time>2018-04-28T07:19:24Z</time>
      </trkpt>
      <trkpt lat="38.1720740" lon="-3.8504910">
        <ele>366.6</ele>
        <time>2018-04-28T07:19:25Z</time>
      </trkpt>
      <trkpt lat="38.1720590" lon="-3.8505090">
        <ele>368.8</ele>
        <time>2018-04-28T07:19:26Z</time>
      </trkpt>
      <trkpt lat="38.1720460" lon="-3.8505290">
        <ele>368.8</ele>
        <time>2018-04-28T07:19:27Z</time>
      </trkpt>
      <trkpt lat="38.1720340" lon="-3.8505490">
        <ele>368.8</ele>
        <time>2018-04-28T07:19:28Z</time>
      </trkpt>
      <trkpt lat="38.1720230" lon="-3.8505670">
        <ele>369.0</ele>
        <time>2018-04-28T07:19:29Z</time>
      </trkpt>
      <trkpt lat="38.1720140" lon="-3.8505880">
        <ele>369.0</ele>
        <time>2018-04-28T07:19:30Z</time>
      </trkpt>
      <trkpt lat="38.1720020" lon="-3.8506080">
        <ele>369.0</ele>
        <time>2018-04-28T07:19:31Z</time>
      </trkpt>
      <trkpt lat="38.1719890" lon="-3.8506280">
        <ele>369.2</ele>
        <time>2018-04-28T07:19:32Z</time>
      </trkpt>
      <trkpt lat="38.1719770" lon="-3.8506480">
        <ele>370.4</ele>
        <time>2018-04-28T07:19:33Z</time>
      </trkpt>
      <trkpt lat="38.1719650" lon="-3.8506680">
        <ele>369.2</ele>
        <time>2018-04-28T07:19:34Z</time>
      </trkpt>
      <trkpt lat="38.1719490" lon="-3.8506860">
        <ele>369.4</ele>
        <time>2018-04-28T07:19:35Z</time>
      </trkpt>
      <trkpt lat="38.1719350" lon="-3.8507030">
        <ele>369.4</ele>
        <time>2018-04-28T07:19:36Z</time>
      </trkpt>
      <trkpt lat="38.1719190" lon="-3.8507200">
        <ele>369.4</ele>
        <time>2018-04-28T07:19:37Z</time>
      </trkpt>
      <trkpt lat="38.1719020" lon="-3.8507400">
        <ele>369.4</ele>
        <time>2018-04-28T07:19:38Z</time>
      </trkpt>
      <trkpt lat="38.1718850" lon="-3.8507600">
        <ele>369.6</ele>
        <time>2018-04-28T07:19:39Z</time>
      </trkpt>
      <trkpt lat="38.1718720" lon="-3.8507860">
        <ele>369.4</ele>
        <time>2018-04-28T07:19:40Z</time>
      </trkpt>
      <trkpt lat="38.1718570" lon="-3.8508150">
        <ele>369.4</ele>
        <time>2018-04-28T07:19:41Z</time>
      </trkpt>
      <trkpt lat="38.1718420" lon="-3.8508470">
        <ele>369.4</ele>
        <time>2018-04-28T07:19:42Z</time>
      </trkpt>
      <trkpt lat="38.1718250" lon="-3.8508820">
        <ele>369.2</ele>
        <time>2018-04-28T07:19:43Z</time>
      </trkpt>
      <trkpt lat="38.1718090" lon="-3.8509210">
        <ele>369.2</ele>
        <time>2018-04-28T07:19:44Z</time>
      </trkpt>
      <trkpt lat="38.1717900" lon="-3.8509630">
        <ele>369.0</ele>
        <time>2018-04-28T07:19:45Z</time>
      </trkpt>
      <trkpt lat="38.1717690" lon="-3.8510090">
        <ele>368.8</ele>
        <time>2018-04-28T07:19:46Z</time>
      </trkpt>
      <trkpt lat="38.1717460" lon="-3.8510590">
        <ele>368.6</ele>
        <time>2018-04-28T07:19:47Z</time>
      </trkpt>
      <trkpt lat="38.1717220" lon="-3.8511120">
        <ele>368.2</ele>
        <time>2018-04-28T07:19:48Z</time>
      </trkpt>
      <trkpt lat="38.1716960" lon="-3.8511700">
        <ele>368.0</ele>
        <time>2018-04-28T07:19:49Z</time>
      </trkpt>
      <trkpt lat="38.1716640" lon="-3.8512270">
        <ele>367.6</ele>
        <time>2018-04-28T07:19:50Z</time>
      </trkpt>
      <trkpt lat="38.1716220" lon="-3.8512790">
        <ele>367.4</ele>
        <time>2018-04-28T07:19:51Z</time>
      </trkpt>
      <trkpt lat="38.1715730" lon="-3.8513280">
        <ele>367.2</ele>
        <time>2018-04-28T07:19:52Z</time>
      </trkpt>
      <trkpt lat="38.1715210" lon="-3.8513700">
        <ele>366.6</ele>
        <time>2018-04-28T07:19:53Z</time>
      </trkpt>
      <trkpt lat="38.1714640" lon="-3.8514100">
        <ele>366.2</ele>
        <time>2018-04-28T07:19:54Z</time>
      </trkpt>
      <trkpt lat="38.1714020" lon="-3.8514480">
        <ele>366.0</ele>
        <time>2018-04-28T07:19:55Z</time>
      </trkpt>
      <trkpt lat="38.1713380" lon="-3.8514810">
        <ele>365.6</ele>
        <time>2018-04-28T07:19:56Z</time>
      </trkpt>
      <trkpt lat="38.1712710" lon="-3.8515120">
        <ele>365.2</ele>
        <time>2018-04-28T07:19:57Z</time>
      </trkpt>
      <trkpt lat="38.1712050" lon="-3.8515510">
        <ele>364.8</ele>
        <time>2018-04-28T07:19:58Z</time>
      </trkpt>
      <trkpt lat="38.1711440" lon="-3.8516030">
        <ele>364.4</ele>
        <time>2018-04-28T07:19:59Z</time>
      </trkpt>
      <trkpt lat="38.1710850" lon="-3.8516670">
        <ele>364.0</ele>
        <time>2018-04-28T07:20:00Z</time>
      </trkpt>
      <trkpt lat="38.1710330" lon="-3.8517400">
        <ele>363.6</ele>
        <time>2018-04-28T07:20:01Z</time>
      </trkpt>
      <trkpt lat="38.1709830" lon="-3.8518210">
        <ele>363.2</ele>
        <time>2018-04-28T07:20:02Z</time>
      </trkpt>
      <trkpt lat="38.1709390" lon="-3.8519110">
        <ele>362.6</ele>
        <time>2018-04-28T07:20:03Z</time>
      </trkpt>
      <trkpt lat="38.1708960" lon="-3.8520050">
        <ele>362.2</ele>
        <time>2018-04-28T07:20:04Z</time>
      </trkpt>
      <trkpt lat="38.1708590" lon="-3.8521040">
        <ele>361.8</ele>
        <time>2018-04-28T07:20:05Z</time>
      </trkpt>
      <trkpt lat="38.1708210" lon="-3.8522060">
        <ele>361.2</ele>
        <time>2018-04-28T07:20:06Z</time>
      </trkpt>
      <trkpt lat="38.1707850" lon="-3.8523090">
        <ele>360.6</ele>
        <time>2018-04-28T07:20:07Z</time>
      </trkpt>
      <trkpt lat="38.1707480" lon="-3.8524160">
        <ele>360.0</ele>
        <time>2018-04-28T07:20:08Z</time>
      </trkpt>
      <trkpt lat="38.1707060" lon="-3.8525230">
        <ele>359.2</ele>
        <time>2018-04-28T07:20:09Z</time>
      </trkpt>
      <trkpt lat="38.1706690" lon="-3.8526340">
        <ele>358.8</ele>
        <time>2018-04-28T07:20:10Z</time>
      </trkpt>
      <trkpt lat="38.1706330" lon="-3.8527480">
        <ele>358.0</ele>
        <time>2018-04-28T07:20:11Z</time>
      </trkpt>
      <trkpt lat="38.1706000" lon="-3.8528630">
        <ele>357.4</ele>
        <time>2018-04-28T07:20:12Z</time>
      </trkpt>
      <trkpt lat="38.1705580" lon="-3.8529770">
        <ele>356.8</ele>
        <time>2018-04-28T07:20:13Z</time>
      </trkpt>
      <trkpt lat="38.1705060" lon="-3.8530820">
        <ele>356.0</ele>
        <time>2018-04-28T07:20:14Z</time>
      </trkpt>
      <trkpt lat="38.1704410" lon="-3.8531760">
        <ele>355.4</ele>
        <time>2018-04-28T07:20:15Z</time>
      </trkpt>
      <trkpt lat="38.1703670" lon="-3.8532600">
        <ele>354.8</ele>
        <time>2018-04-28T07:20:16Z</time>
      </trkpt>
      <trkpt lat="38.1702850" lon="-3.8533340">
        <ele>354.2</ele>
        <time>2018-04-28T07:20:17Z</time>
      </trkpt>
      <trkpt lat="38.1702060" lon="-3.8534050">
        <ele>353.6</ele>
        <time>2018-04-28T07:20:18Z</time>
      </trkpt>
      <trkpt lat="38.1701300" lon="-3.8534800">
        <ele>353.2</ele>
        <time>2018-04-28T07:20:19Z</time>
      </trkpt>
      <trkpt lat="38.1700550" lon="-3.8535590">
        <ele>352.6</ele>
        <time>2018-04-28T07:20:20Z</time>
      </trkpt>
      <trkpt lat="38.1699840" lon="-3.8536440">
        <ele>352.0</ele>
        <time>2018-04-28T07:20:21Z</time>
      </trkpt>
      <trkpt lat="38.1699160" lon="-3.8537330">
        <ele>351.4</ele>
        <time>2018-04-28T07:20:22Z</time>
      </trkpt>
      <trkpt lat="38.1698500" lon="-3.8538260">
        <ele>350.8</ele>
        <time>2018-04-28T07:20:23Z</time>
      </trkpt>
      <trkpt lat="38.1697840" lon="-3.8539190">
        <ele>350.2</ele>
        <time>2018-04-28T07:20:24Z</time>
      </trkpt>
      <trkpt lat="38.1697180" lon="-3.8540130">
        <ele>349.6</ele>
        <time>2018-04-28T07:20:25Z</time>
      </trkpt>
      <trkpt lat="38.1696500" lon="-3.8541060">
        <ele>349.0</ele>
        <time>2018-04-28T07:20:26Z</time>
      </trkpt>
      <trkpt lat="38.1695800" lon="-3.8541970">
        <ele>348.4</ele>
        <time>2018-04-28T07:20:27Z</time>
      </trkpt>
      <trkpt lat="38.1695100" lon="-3.8542870">
        <ele>347.8</ele>
        <time>2018-04-28T07:20:28Z</time>
      </trkpt>
      <trkpt lat="38.1694430" lon="-3.8543720">
        <ele>347.0</ele>
        <time>2018-04-28T07:20:29Z</time>
      </trkpt>
      <trkpt lat="38.1693870" lon="-3.8544590">
        <ele>346.4</ele>
        <time>2018-04-28T07:20:30Z</time>
      </trkpt>
      <trkpt lat="38.1693500" lon="-3.8545510">
        <ele>345.8</ele>
        <time>2018-04-28T07:20:31Z</time>
      </trkpt>
      <trkpt lat="38.1693290" lon="-3.8546540">
        <ele>345.4</ele>
        <time>2018-04-28T07:20:32Z</time>
      </trkpt>
      <trkpt lat="38.1693280" lon="-3.8547590">
        <ele>344.6</ele>
        <time>2018-04-28T07:20:33Z</time>
      </trkpt>
      <trkpt lat="38.1693460" lon="-3.8548630">
        <ele>344.0</ele>
        <time>2018-04-28T07:20:34Z</time>
      </trkpt>
      <trkpt lat="38.1693820" lon="-3.8549620">
        <ele>343.2</ele>
        <time>2018-04-28T07:20:35Z</time>
      </trkpt>
      <trkpt lat="38.1694310" lon="-3.8550550">
        <ele>342.8</ele>
        <time>2018-04-28T07:20:36Z</time>
      </trkpt>
      <trkpt lat="38.1694880" lon="-3.8551440">
        <ele>342.0</ele>
        <time>2018-04-28T07:20:37Z</time>
      </trkpt>
      <trkpt lat="38.1695470" lon="-3.8552410">
        <ele>341.2</ele>
        <time>2018-04-28T07:20:38Z</time>
      </trkpt>
      <trkpt lat="38.1696100" lon="-3.8553330">
        <ele>340.6</ele>
        <time>2018-04-28T07:20:39Z</time>
      </trkpt>
      <trkpt lat="38.1696710" lon="-3.8554270">
        <ele>340.0</ele>
        <time>2018-04-28T07:20:40Z</time>
      </trkpt>
      <trkpt lat="38.1697260" lon="-3.8555180">
        <ele>339.2</ele>
        <time>2018-04-28T07:20:41Z</time>
      </trkpt>
      <trkpt lat="38.1697650" lon="-3.8556080">
        <ele>339.0</ele>
        <time>2018-04-28T07:20:42Z</time>
      </trkpt>
      <trkpt lat="38.1697880" lon="-3.8556930">
        <ele>338.6</ele>
        <time>2018-04-28T07:20:43Z</time>
      </trkpt>
      <trkpt lat="38.1697880" lon="-3.8557800">
        <ele>338.6</ele>
        <time>2018-04-28T07:20:44Z</time>
      </trkpt>
      <trkpt lat="38.1697720" lon="-3.8558650">
        <ele>338.6</ele>
        <time>2018-04-28T07:20:45Z</time>
      </trkpt>
      <trkpt lat="38.1697470" lon="-3.8559460">
        <ele>338.2</ele>
        <time>2018-04-28T07:20:46Z</time>
      </trkpt>
      <trkpt lat="38.1697190" lon="-3.8560170">
        <ele>338.2</ele>
        <time>2018-04-28T07:20:47Z</time>
      </trkpt>
      <trkpt lat="38.1696900" lon="-3.8560850">
        <ele>338.2</ele>
        <time>2018-04-28T07:20:48Z</time>
      </trkpt>
      <trkpt lat="38.1696640" lon="-3.8561520">
        <ele>338.4</ele>
        <time>2018-04-28T07:20:49Z</time>
      </trkpt>
      <trkpt lat="38.1696390" lon="-3.8562150">
        <ele>338.4</ele>
        <time>2018-04-28T07:20:50Z</time>
      </trkpt>
      <trkpt lat="38.1696180" lon="-3.8562790">
        <ele>338.4</ele>
        <time>2018-04-28T07:20:51Z</time>
      </trkpt>
      <trkpt lat="38.1696070" lon="-3.8563450">
        <ele>338.4</ele>
        <time>2018-04-28T07:20:52Z</time>
      </trkpt>
      <trkpt lat="38.1696080" lon="-3.8564140">
        <ele>338.6</ele>
        <time>2018-04-28T07:20:53Z</time>
      </trkpt>
      <trkpt lat="38.1696190" lon="-3.8564800">
        <ele>338.6</ele>
        <time>2018-04-28T07:20:54Z</time>
      </trkpt>
      <trkpt lat="38.1696360" lon="-3.8565450">
        <ele>338.6</ele>
        <time>2018-04-28T07:20:55Z</time>
      </trkpt>
      <trkpt lat="38.1696510" lon="-3.8566090">
        <ele>338.8</ele>
        <time>2018-04-28T07:20:56Z</time>
      </trkpt>
      <trkpt lat="38.1696670" lon="-3.8566740">
        <ele>338.8</ele>
        <time>2018-04-28T07:20:57Z</time>
      </trkpt>
      <trkpt lat="38.1696820" lon="-3.8567360">
        <ele>339.0</ele>
        <time>2018-04-28T07:20:58Z</time>
      </trkpt>
      <trkpt lat="38.1696970" lon="-3.8567960">
        <ele>339.0</ele>
        <time>2018-04-28T07:20:59Z</time>
      </trkpt>
      <trkpt lat="38.1697140" lon="-3.8568540">
        <ele>339.2</ele>
        <time>2018-04-28T07:21:00Z</time>
      </trkpt>
      <trkpt lat="38.1697300" lon="-3.8569110">
        <ele>339.2</ele>
        <time>2018-04-28T07:21:01Z</time>
      </trkpt>
      <trkpt lat="38.1697450" lon="-3.8569660">
        <ele>339.2</ele>
        <time>2018-04-28T07:21:02Z</time>
      </trkpt>
      <trkpt lat="38.1697590" lon="-3.8570200">
        <ele>339.6</ele>
        <time>2018-04-28T07:21:03Z</time>
      </trkpt>
      <trkpt lat="38.1697730" lon="-3.8570720">
        <ele>339.6</ele>
        <time>2018-04-28T07:21:04Z</time>
      </trkpt>
      <trkpt lat="38.1697870" lon="-3.8571240">
        <ele>339.8</ele>
        <time>2018-04-28T07:21:05Z</time>
      </trkpt>
      <trkpt lat="38.1697990" lon="-3.8571740">
        <ele>340.0</ele>
        <time>2018-04-28T07:21:06Z</time>
      </trkpt>
      <trkpt lat="38.1698070" lon="-3.8572210">
        <ele>340.2</ele>
        <time>2018-04-28T07:21:07Z</time>
      </trkpt>
      <trkpt lat="38.1698130" lon="-3.8572690">
        <ele>340.4</ele>
        <time>2018-04-28T07:21:08Z</time>
      </trkpt>
      <trkpt lat="38.1698150" lon="-3.8573160">
        <ele>340.6</ele>
        <time>2018-04-28T07:21:09Z</time>
      </trkpt>
      <trkpt lat="38.1698120" lon="-3.8573620">
        <ele>340.8</ele>
        <time>2018-04-28T07:21:10Z</time>
      </trkpt>
      <trkpt lat="38.1698050" lon="-3.8574060">
        <ele>340.8</ele>
        <time>2018-04-28T07:21:11Z</time>
      </trkpt>
      <trkpt lat="38.1697980" lon="-3.8574510">
        <ele>341.0</ele>
        <time>2018-04-28T07:21:12Z</time>
      </trkpt>
      <trkpt lat="38.1697890" lon="-3.8574940">
        <ele>341.2</ele>
        <time>2018-04-28T07:21:13Z</time>
      </trkpt>
      <trkpt lat="38.1697780" lon="-3.8575330">
        <ele>341.4</ele>
        <time>2018-04-28T07:21:14Z</time>
      </trkpt>
      <trkpt lat="38.1697660" lon="-3.8575680">
        <ele>341.6</ele>
        <time>2018-04-28T07:21:15Z</time>
      </trkpt>
      <trkpt lat="38.1697520" lon="-3.8575960">
        <ele>341.8</ele>
        <time>2018-04-28T07:21:16Z</time>
      </trkpt>
      <trkpt lat="38.1697390" lon="-3.8576240">
        <ele>341.8</ele>
        <time>2018-04-28T07:21:17Z</time>
      </trkpt>
      <trkpt lat="38.1697250" lon="-3.8576470">
        <ele>341.8</ele>
        <time>2018-04-28T07:21:18Z</time>
      </trkpt>
      <trkpt lat="38.1697090" lon="-3.8576640">
        <ele>342.0</ele>
        <time>2018-04-28T07:21:19Z</time>
      </trkpt>
      <trkpt lat="38.1696940" lon="-3.8576780">
        <ele>342.0</ele>
        <time>2018-04-28T07:21:20Z</time>
      </trkpt>
      <trkpt lat="38.1696790" lon="-3.8576880">
        <ele>342.0</ele>
        <time>2018-04-28T07:21:21Z</time>
      </trkpt>
      <trkpt lat="38.1696690" lon="-3.8577020">
        <ele>342.0</ele>
        <time>2018-04-28T07:21:22Z</time>
      </trkpt>
      <trkpt lat="38.1696610" lon="-3.8577140">
        <ele>342.0</ele>
        <time>2018-04-28T07:21:23Z</time>
      </trkpt>
      <trkpt lat="38.1696570" lon="-3.8577170">
        <ele>342.0</ele>
        <time>2018-04-28T07:21:24Z</time>
      </trkpt>
      <trkpt lat="38.1696560" lon="-3.8577160">
        <ele>342.0</ele>
        <time>2018-04-28T07:21:25Z</time>
      </trkpt>
      <trkpt lat="38.1696530" lon="-3.8577160">
        <ele>342.0</ele>
        <time>2018-04-28T07:21:26Z</time>
      </trkpt>
      <trkpt lat="38.1696520" lon="-3.8577160">
        <ele>342.0</ele>
        <time>2018-04-28T07:21:27Z</time>
      </trkpt>
      <trkpt lat="38.1696520" lon="-3.8577160">
        <ele>342.0</ele>
        <time>2018-04-28T07:21:28Z</time>
      </trkpt>
      <trkpt lat="38.1696520" lon="-3.8577160">
        <ele>342.0</ele>
        <time>2018-04-28T07:21:29Z</time>
      </trkpt>
      <trkpt lat="38.1696530" lon="-3.8577160">
        <ele>342.0</ele>
        <time>2018-04-28T07:21:30Z</time>
      </trkpt>
      <trkpt lat="38.1696530" lon="-3.8577160">
        <ele>342.0</ele>
        <time>2018-04-28T07:21:31Z</time>
      </trkpt>
      <trkpt lat="38.1695580" lon="-3.8579520">
        <ele>342.6</ele>
        <time>2018-04-28T07:24:45Z</time>
      </trkpt>
      <trkpt lat="38.1695450" lon="-3.8579810">
        <ele>342.6</ele>
        <time>2018-04-28T07:24:46Z</time>
      </trkpt>
      <trkpt lat="38.1695330" lon="-3.8580110">
        <ele>342.6</ele>
        <time>2018-04-28T07:24:47Z</time>
      </trkpt>
      <trkpt lat="38.1695210" lon="-3.8580400">
        <ele>342.6</ele>
        <time>2018-04-28T07:24:48Z</time>
      </trkpt>
      <trkpt lat="38.1695060" lon="-3.8580720">
        <ele>342.8</ele>
        <time>2018-04-28T07:24:49Z</time>
      </trkpt>
      <trkpt lat="38.1694910" lon="-3.8581020">
        <ele>342.8</ele>
        <time>2018-04-28T07:24:50Z</time>
      </trkpt>
      <trkpt lat="38.1694740" lon="-3.8581330">
        <ele>342.8</ele>
        <time>2018-04-28T07:24:51Z</time>
      </trkpt>
      <trkpt lat="38.1694580" lon="-3.8581660">
        <ele>342.8</ele>
        <time>2018-04-28T07:24:52Z</time>
      </trkpt>
      <trkpt lat="38.1694430" lon="-3.8581990">
        <ele>343.0</ele>
        <time>2018-04-28T07:24:53Z</time>
      </trkpt>
      <trkpt lat="38.1694280" lon="-3.8582340">
        <ele>343.0</ele>
        <time>2018-04-28T07:24:54Z</time>
      </trkpt>
      <trkpt lat="38.1694150" lon="-3.8582700">
        <ele>343.0</ele>
        <time>2018-04-28T07:24:55Z</time>
      </trkpt>
      <trkpt lat="38.1693980" lon="-3.8583050">
        <ele>343.0</ele>
        <time>2018-04-28T07:24:56Z</time>
      </trkpt>
      <trkpt lat="38.1693810" lon="-3.8583370">
        <ele>343.0</ele>
        <time>2018-04-28T07:24:57Z</time>
      </trkpt>
      <trkpt lat="38.1693640" lon="-3.8583740">
        <ele>343.2</ele>
        <time>2018-04-28T07:24:58Z</time>
      </trkpt>
      <trkpt lat="38.1693480" lon="-3.8584090">
        <ele>343.2</ele>
        <time>2018-04-28T07:24:59Z</time>
      </trkpt>
      <trkpt lat="38.1693320" lon="-3.8584460">
        <ele>343.4</ele>
        <time>2018-04-28T07:25:00Z</time>
      </trkpt>
      <trkpt lat="38.1693170" lon="-3.8584840">
        <ele>343.4</ele>
        <time>2018-04-28T07:25:01Z</time>
      </trkpt>
      <trkpt lat="38.1693010" lon="-3.8585220">
        <ele>343.4</ele>
        <time>2018-04-28T07:25:02Z</time>
      </trkpt>
      <trkpt lat="38.1692840" lon="-3.8585580">
        <ele>343.4</ele>
        <time>2018-04-28T07:25:03Z</time>
      </trkpt>
      <trkpt lat="38.1692660" lon="-3.8585950">
        <ele>343.6</ele>
        <time>2018-04-28T07:25:04Z</time>
      </trkpt>
      <trkpt lat="38.1692490" lon="-3.8586330">
        <ele>343.6</ele>
        <time>2018-04-28T07:25:05Z</time>
      </trkpt>
      <trkpt lat="38.1692330" lon="-3.8586720">
        <ele>343.8</ele>
        <time>2018-04-28T07:25:06Z</time>
      </trkpt>
      <trkpt lat="38.1692150" lon="-3.8587110">
        <ele>343.8</ele>
        <time>2018-04-28T07:25:07Z</time>
      </trkpt>
      <trkpt lat="38.1691950" lon="-3.8587470">
        <ele>344.0</ele>
        <time>2018-04-28T07:25:08Z</time>
      </trkpt>
      <trkpt lat="38.1691760" lon="-3.8587830">
        <ele>344.0</ele>
        <time>2018-04-28T07:25:09Z</time>
      </trkpt>
      <trkpt lat="38.1691620" lon="-3.8588210">
        <ele>344.2</ele>
        <time>2018-04-28T07:25:10Z</time>
      </trkpt>
      <trkpt lat="38.1691470" lon="-3.8588590">
        <ele>344.4</ele>
        <time>2018-04-28T07:25:11Z</time>
      </trkpt>
      <trkpt lat="38.1691340" lon="-3.8589010">
        <ele>344.4</ele>
        <time>2018-04-28T07:25:12Z</time>
      </trkpt>
      <trkpt lat="38.1691260" lon="-3.8589420">
        <ele>344.6</ele>
        <time>2018-04-28T07:25:13Z</time>
      </trkpt>
      <trkpt lat="38.1691220" lon="-3.8589860">
        <ele>344.8</ele>
        <time>2018-04-28T07:25:14Z</time>
      </trkpt>
      <trkpt lat="38.1691230" lon="-3.8590320">
        <ele>344.8</ele>
        <time>2018-04-28T07:25:15Z</time>
      </trkpt>
      <trkpt lat="38.1691270" lon="-3.8590760">
        <ele>345.0</ele>
        <time>2018-04-28T07:25:16Z</time>
      </trkpt>
      <trkpt lat="38.1691350" lon="-3.8591190">
        <ele>345.0</ele>
        <time>2018-04-28T07:25:17Z</time>
      </trkpt>
      <trkpt lat="38.1691510" lon="-3.8591610">
        <ele>345.0</ele>
        <time>2018-04-28T07:25:18Z</time>
      </trkpt>
      <trkpt lat="38.1691690" lon="-3.8592030">
        <ele>345.0</ele>
        <time>2018-04-28T07:25:19Z</time>
      </trkpt>
      <trkpt lat="38.1691840" lon="-3.8592470">
        <ele>345.2</ele>
        <time>2018-04-28T07:25:20Z</time>
      </trkpt>
      <trkpt lat="38.1691990" lon="-3.8592910">
        <ele>345.2</ele>
        <time>2018-04-28T07:25:21Z</time>
      </trkpt>
      <trkpt lat="38.1692110" lon="-3.8593340">
        <ele>345.2</ele>
        <time>2018-04-28T07:25:22Z</time>
      </trkpt>
      <trkpt lat="38.1692210" lon="-3.8593760">
        <ele>345.4</ele>
        <time>2018-04-28T07:25:23Z</time>
      </trkpt>
      <trkpt lat="38.1692290" lon="-3.8594200">
        <ele>345.4</ele>
        <time>2018-04-28T07:25:24Z</time>
      </trkpt>
      <trkpt lat="38.1692350" lon="-3.8594640">
        <ele>345.6</ele>
        <time>2018-04-28T07:25:25Z</time>
      </trkpt>
      <trkpt lat="38.1692400" lon="-3.8595110">
        <ele>345.6</ele>
        <time>2018-04-28T07:25:26Z</time>
      </trkpt>
      <trkpt lat="38.1692430" lon="-3.8595560">
        <ele>345.8</ele>
        <time>2018-04-28T07:25:27Z</time>
      </trkpt>
      <trkpt lat="38.1692430" lon="-3.8596000">
        <ele>346.0</ele>
        <time>2018-04-28T07:25:28Z</time>
      </trkpt>
      <trkpt lat="38.1692420" lon="-3.8596450">
        <ele>346.2</ele>
        <time>2018-04-28T07:25:29Z</time>
      </trkpt>
      <trkpt lat="38.1692380" lon="-3.8596890">
        <ele>346.4</ele>
        <time>2018-04-28T07:25:30Z</time>
      </trkpt>
      <trkpt lat="38.1692280" lon="-3.8597310">
        <ele>346.6</ele>
        <time>2018-04-28T07:25:31Z</time>
      </trkpt>
      <trkpt lat="38.1692140" lon="-3.8597690">
        <ele>346.8</ele>
        <time>2018-04-28T07:25:32Z</time>
      </trkpt>
      <trkpt lat="38.1691940" lon="-3.8598050">
        <ele>346.8</ele>
        <time>2018-04-28T07:25:33Z</time>
      </trkpt>
      <trkpt lat="38.1691710" lon="-3.8598370">
        <ele>347.0</ele>
        <time>2018-04-28T07:25:34Z</time>
      </trkpt>
      <trkpt lat="38.1691500" lon="-3.8598720">
        <ele>347.2</ele>
        <time>2018-04-28T07:25:35Z</time>
      </trkpt>
      <trkpt lat="38.1691280" lon="-3.8599070">
        <ele>347.2</ele>
        <time>2018-04-28T07:25:36Z</time>
      </trkpt>
      <trkpt lat="38.1691050" lon="-3.8599390">
        <ele>347.4</ele>
        <time>2018-04-28T07:25:37Z</time>
      </trkpt>
      <trkpt lat="38.1690830" lon="-3.8599720">
        <ele>347.6</ele>
        <time>2018-04-28T07:25:38Z</time>
      </trkpt>
      <trkpt lat="38.1690620" lon="-3.8600050">
        <ele>347.6</ele>
        <time>2018-04-28T07:25:39Z</time>
      </trkpt>
      <trkpt lat="38.1690400" lon="-3.8600380">
        <ele>347.8</ele>
        <time>2018-04-28T07:25:40Z</time>
      </trkpt>
      <trkpt lat="38.1690190" lon="-3.8600730">
        <ele>347.8</ele>
        <time>2018-04-28T07:25:41Z</time>
      </trkpt>
      <trkpt lat="38.1689960" lon="-3.8601060">
        <ele>348.0</ele>
        <time>2018-04-28T07:25:42Z</time>
      </trkpt>
      <trkpt lat="38.1689750" lon="-3.8601400">
        <ele>348.0</ele>
        <time>2018-04-28T07:25:43Z</time>
      </trkpt>
      <trkpt lat="38.1689510" lon="-3.8601730">
        <ele>348.4</ele>
        <time>2018-04-28T07:25:44Z</time>
      </trkpt>
      <trkpt lat="38.1689300" lon="-3.8602070">
        <ele>348.4</ele>
        <time>2018-04-28T07:25:45Z</time>
      </trkpt>
      <trkpt lat="38.1689070" lon="-3.8602400">
        <ele>348.4</ele>
        <time>2018-04-28T07:25:46Z</time>
      </trkpt>
      <trkpt lat="38.1688860" lon="-3.8602740">
        <ele>348.6</ele>
        <time>2018-04-28T07:25:47Z</time>
      </trkpt>
      <trkpt lat="38.1688640" lon="-3.8603080">
        <ele>348.8</ele>
        <time>2018-04-28T07:25:48Z</time>
      </trkpt>
      <trkpt lat="38.1688440" lon="-3.8603440">
        <ele>348.8</ele>
        <time>2018-04-28T07:25:49Z</time>
      </trkpt>
      <trkpt lat="38.1688240" lon="-3.8603760">
        <ele>348.8</ele>
        <time>2018-04-28T07:25:50Z</time>
      </trkpt>
      <trkpt lat="38.1688050" lon="-3.8604110">
        <ele>349.0</ele>
        <time>2018-04-28T07:25:51Z</time>
      </trkpt>
      <trkpt lat="38.1687840" lon="-3.8604470">
        <ele>349.2</ele>
        <time>2018-04-28T07:25:52Z</time>
      </trkpt>
      <trkpt lat="38.1687610" lon="-3.8604810">
        <ele>349.2</ele>
        <time>2018-04-28T07:25:53Z</time>
      </trkpt>
      <trkpt lat="38.1687400" lon="-3.8605150">
        <ele>349.4</ele>
        <time>2018-04-28T07:25:54Z</time>
      </trkpt>
      <trkpt lat="38.1687180" lon="-3.8605480">
        <ele>349.6</ele>
        <time>2018-04-28T07:25:55Z</time>
      </trkpt>
      <trkpt lat="38.1686980" lon="-3.8605820">
        <ele>349.6</ele>
        <time>2018-04-28T07:25:56Z</time>
      </trkpt>
      <trkpt lat="38.1686770" lon="-3.8606160">
        <ele>349.8</ele>
        <time>2018-04-28T07:25:57Z</time>
      </trkpt>
      <trkpt lat="38.1686560" lon="-3.8606510">
        <ele>350.0</ele>
        <time>2018-04-28T07:25:58Z</time>
      </trkpt>
      <trkpt lat="38.1686360" lon="-3.8606860">
        <ele>350.2</ele>
        <time>2018-04-28T07:25:59Z</time>
      </trkpt>
      <trkpt lat="38.1686160" lon="-3.8607210">
        <ele>350.2</ele>
        <time>2018-04-28T07:26:00Z</time>
      </trkpt>
      <trkpt lat="38.1685970" lon="-3.8607540">
        <ele>350.4</ele>
        <time>2018-04-28T07:26:01Z</time>
      </trkpt>
      <trkpt lat="38.1685780" lon="-3.8607890">
        <ele>350.4</ele>
        <time>2018-04-28T07:26:02Z</time>
      </trkpt>
      <trkpt lat="38.1685610" lon="-3.8608210">
        <ele>350.6</ele>
        <time>2018-04-28T07:26:03Z</time>
      </trkpt>
      <trkpt lat="38.1685430" lon="-3.8608590">
        <ele>350.8</ele>
        <time>2018-04-28T07:26:04Z</time>
      </trkpt>
      <trkpt lat="38.1685260" lon="-3.8608970">
        <ele>350.8</ele>
        <time>2018-04-28T07:26:05Z</time>
      </trkpt>
      <trkpt lat="38.1685100" lon="-3.8609330">
        <ele>351.0</ele>
        <time>2018-04-28T07:26:06Z</time>
      </trkpt>
      <trkpt lat="38.1684920" lon="-3.8609710">
        <ele>351.2</ele>
        <time>2018-04-28T07:26:07Z</time>
      </trkpt>
      <trkpt lat="38.1684750" lon="-3.8610110">
        <ele>351.2</ele>
        <time>2018-04-28T07:26:08Z</time>
      </trkpt>
      <trkpt lat="38.1684590" lon="-3.8610530">
        <ele>351.4</ele>
        <time>2018-04-28T07:26:09Z</time>
      </trkpt>
      <trkpt lat="38.1684440" lon="-3.8610920">
        <ele>351.4</ele>
        <time>2018-04-28T07:26:10Z</time>
      </trkpt>
      <trkpt lat="38.1684290" lon="-3.8611330">
        <ele>351.4</ele>
        <time>2018-04-28T07:26:11Z</time>
      </trkpt>
      <trkpt lat="38.1684130" lon="-3.8611720">
        <ele>351.6</ele>
        <time>2018-04-28T07:26:12Z</time>
      </trkpt>
      <trkpt lat="38.1683970" lon="-3.8612120">
        <ele>351.6</ele>
        <time>2018-04-28T07:26:13Z</time>
      </trkpt>
      <trkpt lat="38.1683830" lon="-3.8612520">
        <ele>351.6</ele>
        <time>2018-04-28T07:26:14Z</time>
      </trkpt>
      <trkpt lat="38.1683710" lon="-3.8612920">
        <ele>351.8</ele>
        <time>2018-04-28T07:26:15Z</time>
      </trkpt>
      <trkpt lat="38.1683630" lon="-3.8613200">
        <ele>352.0</ele>
        <time>2018-04-28T07:26:16Z</time>
      </trkpt>
      <trkpt lat="38.1683530" lon="-3.8613600">
        <ele>352.0</ele>
        <time>2018-04-28T07:26:17Z</time>
      </trkpt>
      <trkpt lat="38.1683400" lon="-3.8614000">
        <ele>352.0</ele>
        <time>2018-04-28T07:26:18Z</time>
      </trkpt>
      <trkpt lat="38.1683240" lon="-3.8614400">
        <ele>352.2</ele>
        <time>2018-04-28T07:26:19Z</time>
      </trkpt>
      <trkpt lat="38.1683050" lon="-3.8614830">
        <ele>352.2</ele>
        <time>2018-04-28T07:26:20Z</time>
      </trkpt>
      <trkpt lat="38.1682850" lon="-3.8615200">
        <ele>352.2</ele>
        <time>2018-04-28T07:26:21Z</time>
      </trkpt>
      <trkpt lat="38.1682650" lon="-3.8615610">
        <ele>352.2</ele>
        <time>2018-04-28T07:26:22Z</time>
      </trkpt>
      <trkpt lat="38.1682440" lon="-3.8616030">
        <ele>352.2</ele>
        <time>2018-04-28T07:26:23Z</time>
      </trkpt>
      <trkpt lat="38.1682200" lon="-3.8616450">
        <ele>352.0</ele>
        <time>2018-04-28T07:26:24Z</time>
      </trkpt>
      <trkpt lat="38.1681930" lon="-3.8616880">
        <ele>352.0</ele>
        <time>2018-04-28T07:26:25Z</time>
      </trkpt>
      <trkpt lat="38.1681650" lon="-3.8617320">
        <ele>352.0</ele>
        <time>2018-04-28T07:26:26Z</time>
      </trkpt>
      <trkpt lat="38.1681390" lon="-3.8617790">
        <ele>351.8</ele>
        <time>2018-04-28T07:26:27Z</time>
      </trkpt>
      <trkpt lat="38.1681120" lon="-3.8618290">
        <ele>351.8</ele>
        <time>2018-04-28T07:26:28Z</time>
      </trkpt>
      <trkpt lat="38.1680860" lon="-3.8618810">
        <ele>351.6</ele>
        <time>2018-04-28T07:26:29Z</time>
      </trkpt>
      <trkpt lat="38.1680540" lon="-3.8619270">
        <ele>351.6</ele>
        <time>2018-04-28T07:26:30Z</time>
      </trkpt>
      <trkpt lat="38.1680210" lon="-3.8619750">
        <ele>351.6</ele>
        <time>2018-04-28T07:26:31Z</time>
      </trkpt>
      <trkpt lat="38.1679900" lon="-3.8620210">
        <ele>351.6</ele>
        <time>2018-04-28T07:26:32Z</time>
      </trkpt>
      <trkpt lat="38.1679600" lon="-3.8620700">
        <ele>351.6</ele>
        <time>2018-04-28T07:26:33Z</time>
      </trkpt>
      <trkpt lat="38.1679290" lon="-3.8621160">
        <ele>351.4</ele>
        <time>2018-04-28T07:26:34Z</time>
      </trkpt>
      <trkpt lat="38.1679000" lon="-3.8621630">
        <ele>351.6</ele>
        <time>2018-04-28T07:26:35Z</time>
      </trkpt>
      <trkpt lat="38.1678720" lon="-3.8622090">
        <ele>351.6</ele>
        <time>2018-04-28T07:26:36Z</time>
      </trkpt>
      <trkpt lat="38.1678440" lon="-3.8622560">
        <ele>351.8</ele>
        <time>2018-04-28T07:26:37Z</time>
      </trkpt>
      <trkpt lat="38.1678190" lon="-3.8623010">
        <ele>352.0</ele>
        <time>2018-04-28T07:26:38Z</time>
      </trkpt>
      <trkpt lat="38.1677970" lon="-3.8623450">
        <ele>352.2</ele>
        <time>2018-04-28T07:26:39Z</time>
      </trkpt>
      <trkpt lat="38.1677740" lon="-3.8623900">
        <ele>352.2</ele>
        <time>2018-04-28T07:26:40Z</time>
      </trkpt>
      <trkpt lat="38.1677520" lon="-3.8624300">
        <ele>352.4</ele>
        <time>2018-04-28T07:26:41Z</time>
      </trkpt>
      <trkpt lat="38.1677290" lon="-3.8624670">
        <ele>352.6</ele>
        <time>2018-04-28T07:26:42Z</time>
      </trkpt>
      <trkpt lat="38.1677050" lon="-3.8625050">
        <ele>352.8</ele>
        <time>2018-04-28T07:26:43Z</time>
      </trkpt>
      <trkpt lat="38.1676820" lon="-3.8625430">
        <ele>353.0</ele>
        <time>2018-04-28T07:26:44Z</time>
      </trkpt>
      <trkpt lat="38.1676590" lon="-3.8625780">
        <ele>353.4</ele>
        <time>2018-04-28T07:26:45Z</time>
      </trkpt>
      <trkpt lat="38.1676380" lon="-3.8626140">
        <ele>353.4</ele>
        <time>2018-04-28T07:26:46Z</time>
      </trkpt>
      <trkpt lat="38.1676150" lon="-3.8626480">
        <ele>353.8</ele>
        <time>2018-04-28T07:26:47Z</time>
      </trkpt>
      <trkpt lat="38.1675920" lon="-3.8626830">
        <ele>354.0</ele>
        <time>2018-04-28T07:26:48Z</time>
      </trkpt>
      <trkpt lat="38.1675680" lon="-3.8627150">
        <ele>354.0</ele>
        <time>2018-04-28T07:26:49Z</time>
      </trkpt>
      <trkpt lat="38.1675490" lon="-3.8627520">
        <ele>354.2</ele>
        <time>2018-04-28T07:26:50Z</time>
      </trkpt>
      <trkpt lat="38.1675340" lon="-3.8627920">
        <ele>354.4</ele>
        <time>2018-04-28T07:26:51Z</time>
      </trkpt>
      <trkpt lat="38.1675220" lon="-3.8628340">
        <ele>354.4</ele>
        <time>2018-04-28T07:26:52Z</time>
      </trkpt>
      <trkpt lat="38.1675130" lon="-3.8628780">
        <ele>354.4</ele>
        <time>2018-04-28T07:26:53Z</time>
      </trkpt>
      <trkpt lat="38.1675070" lon="-3.8629250">
        <ele>354.6</ele>
        <time>2018-04-28T07:26:54Z</time>
      </trkpt>
      <trkpt lat="38.1675040" lon="-3.8629700">
        <ele>354.8</ele>
        <time>2018-04-28T07:26:55Z</time>
      </trkpt>
      <trkpt lat="38.1675030" lon="-3.8630130">
        <ele>354.8</ele>
        <time>2018-04-28T07:26:56Z</time>
      </trkpt>
      <trkpt lat="38.1675010" lon="-3.8630580">
        <ele>354.6</ele>
        <time>2018-04-28T07:26:57Z</time>
      </trkpt>
      <trkpt lat="38.1675020" lon="-3.8631020">
        <ele>354.6</ele>
        <time>2018-04-28T07:26:58Z</time>
      </trkpt>
      <trkpt lat="38.1675000" lon="-3.8631560">
        <ele>354.4</ele>
        <time>2018-04-28T07:26:59Z</time>
      </trkpt>
      <trkpt lat="38.1674940" lon="-3.8632110">
        <ele>354.4</ele>
        <time>2018-04-28T07:27:00Z</time>
      </trkpt>
      <trkpt lat="38.1674860" lon="-3.8632610">
        <ele>354.4</ele>
        <time>2018-04-28T07:27:01Z</time>
      </trkpt>
      <trkpt lat="38.1674720" lon="-3.8633140">
        <ele>354.4</ele>
        <time>2018-04-28T07:27:02Z</time>
      </trkpt>
      <trkpt lat="38.1674580" lon="-3.8633660">
        <ele>354.4</ele>
        <time>2018-04-28T07:27:03Z</time>
      </trkpt>
      <trkpt lat="38.1674390" lon="-3.8634170">
        <ele>354.6</ele>
        <time>2018-04-28T07:27:04Z</time>
      </trkpt>
      <trkpt lat="38.1674190" lon="-3.8634670">
        <ele>354.6</ele>
        <time>2018-04-28T07:27:05Z</time>
      </trkpt>
      <trkpt lat="38.1673970" lon="-3.8635160">
        <ele>354.8</ele>
        <time>2018-04-28T07:27:06Z</time>
      </trkpt>
      <trkpt lat="38.1673690" lon="-3.8635620">
        <ele>354.8</ele>
        <time>2018-04-28T07:27:07Z</time>
      </trkpt>
      <trkpt lat="38.1673410" lon="-3.8636110">
        <ele>355.0</ele>
        <time>2018-04-28T07:27:08Z</time>
      </trkpt>
      <trkpt lat="38.1673160" lon="-3.8636540">
        <ele>355.2</ele>
        <time>2018-04-28T07:27:09Z</time>
      </trkpt>
      <trkpt lat="38.1672880" lon="-3.8636940">
        <ele>355.4</ele>
        <time>2018-04-28T07:27:10Z</time>
      </trkpt>
      <trkpt lat="38.1672610" lon="-3.8637310">
        <ele>355.4</ele>
        <time>2018-04-28T07:27:11Z</time>
      </trkpt>
      <trkpt lat="38.1672360" lon="-3.8637710">
        <ele>355.6</ele>
        <time>2018-04-28T07:27:12Z</time>
      </trkpt>
      <trkpt lat="38.1672100" lon="-3.8638100">
        <ele>355.8</ele>
        <time>2018-04-28T07:27:13Z</time>
      </trkpt>
      <trkpt lat="38.1671860" lon="-3.8638490">
        <ele>356.0</ele>
        <time>2018-04-28T07:27:14Z</time>
      </trkpt>
      <trkpt lat="38.1671620" lon="-3.8638870">
        <ele>356.2</ele>
        <time>2018-04-28T07:27:15Z</time>
      </trkpt>
      <trkpt lat="38.1671390" lon="-3.8639260">
        <ele>356.2</ele>
        <time>2018-04-28T07:27:16Z</time>
      </trkpt>
      <trkpt lat="38.1671160" lon="-3.8639680">
        <ele>356.4</ele>
        <time>2018-04-28T07:27:17Z</time>
      </trkpt>
      <trkpt lat="38.1670940" lon="-3.8640080">
        <ele>356.4</ele>
        <time>2018-04-28T07:27:18Z</time>
      </trkpt>
      <trkpt lat="38.1670720" lon="-3.8640470">
        <ele>356.6</ele>
        <time>2018-04-28T07:27:19Z</time>
      </trkpt>
      <trkpt lat="38.1670520" lon="-3.8640860">
        <ele>356.8</ele>
        <time>2018-04-28T07:27:20Z</time>
      </trkpt>
      <trkpt lat="38.1670320" lon="-3.8641250">
        <ele>357.0</ele>
        <time>2018-04-28T07:27:21Z</time>
      </trkpt>
      <trkpt lat="38.1670120" lon="-3.8641650">
        <ele>357.2</ele>
        <time>2018-04-28T07:27:22Z</time>
      </trkpt>
      <trkpt lat="38.1669960" lon="-3.8642070">
        <ele>357.2</ele>
        <time>2018-04-28T07:27:23Z</time>
      </trkpt>
      <trkpt lat="38.1669780" lon="-3.8642500">
        <ele>357.2</ele>
        <time>2018-04-28T07:27:24Z</time>
      </trkpt>
      <trkpt lat="38.1669610" lon="-3.8642940">
        <ele>357.4</ele>
        <time>2018-04-28T07:27:25Z</time>
      </trkpt>
      <trkpt lat="38.1669440" lon="-3.8643380">
        <ele>357.4</ele>
        <time>2018-04-28T07:27:26Z</time>
      </trkpt>
      <trkpt lat="38.1669320" lon="-3.8643790">
        <ele>357.6</ele>
        <time>2018-04-28T07:27:27Z</time>
      </trkpt>
      <trkpt lat="38.1669190" lon="-3.8644230">
        <ele>357.6</ele>
        <time>2018-04-28T07:27:28Z</time>
      </trkpt>
      <trkpt lat="38.1669020" lon="-3.8644630">
        <ele>357.4</ele>
        <time>2018-04-28T07:27:29Z</time>
      </trkpt>
      <trkpt lat="38.1668870" lon="-3.8644960">
        <ele>357.6</ele>
        <time>2018-04-28T07:27:30Z</time>
      </trkpt>
      <trkpt lat="38.1668680" lon="-3.8645400">
        <ele>357.6</ele>
        <time>2018-04-28T07:27:31Z</time>
      </trkpt>
      <trkpt lat="38.1668460" lon="-3.8645860">
        <ele>357.6</ele>
        <time>2018-04-28T07:27:32Z</time>
      </trkpt>
      <trkpt lat="38.1668200" lon="-3.8646270">
        <ele>357.6</ele>
        <time>2018-04-28T07:27:33Z</time>
      </trkpt>
      <trkpt lat="38.1667960" lon="-3.8646670">
        <ele>357.6</ele>
        <time>2018-04-28T07:27:34Z</time>
      </trkpt>
      <trkpt lat="38.1667700" lon="-3.8647040">
        <ele>357.6</ele>
        <time>2018-04-28T07:27:35Z</time>
      </trkpt>
      <trkpt lat="38.1667470" lon="-3.8647440">
        <ele>357.6</ele>
        <time>2018-04-28T07:27:36Z</time>
      </trkpt>
      <trkpt lat="38.1667250" lon="-3.8647810">
        <ele>357.8</ele>
        <time>2018-04-28T07:27:37Z</time>
      </trkpt>
      <trkpt lat="38.1667040" lon="-3.8648230">
        <ele>357.8</ele>
        <time>2018-04-28T07:27:38Z</time>
      </trkpt>
      <trkpt lat="38.1666840" lon="-3.8648660">
        <ele>357.8</ele>
        <time>2018-04-28T07:27:39Z</time>
      </trkpt>
      <trkpt lat="38.1666670" lon="-3.8649120">
        <ele>358.0</ele>
        <time>2018-04-28T07:27:40Z</time>
      </trkpt>
      <trkpt lat="38.1666470" lon="-3.8649550">
        <ele>358.0</ele>
        <time>2018-04-28T07:27:41Z</time>
      </trkpt>
      <trkpt lat="38.1666280" lon="-3.8649980">
        <ele>358.2</ele>
        <time>2018-04-28T07:27:42Z</time>
      </trkpt>
      <trkpt lat="38.1666100" lon="-3.8650380">
        <ele>358.2</ele>
        <time>2018-04-28T07:27:43Z</time>
      </trkpt>
      <trkpt lat="38.1665910" lon="-3.8650780">
        <ele>358.4</ele>
        <time>2018-04-28T07:27:44Z</time>
      </trkpt>
      <trkpt lat="38.1665700" lon="-3.8651230">
        <ele>358.6</ele>
        <time>2018-04-28T07:27:45Z</time>
      </trkpt>
      <trkpt lat="38.1665490" lon="-3.8651630">
        <ele>358.6</ele>
        <time>2018-04-28T07:27:46Z</time>
      </trkpt>
      <trkpt lat="38.1665300" lon="-3.8652020">
        <ele>358.8</ele>
        <time>2018-04-28T07:27:47Z</time>
      </trkpt>
      <trkpt lat="38.1665120" lon="-3.8652400">
        <ele>358.8</ele>
        <time>2018-04-28T07:27:48Z</time>
      </trkpt>
      <trkpt lat="38.1664940" lon="-3.8652790">
        <ele>359.0</ele>
        <time>2018-04-28T07:27:49Z</time>
      </trkpt>
      <trkpt lat="38.1664760" lon="-3.8653170">
        <ele>359.2</ele>
        <time>2018-04-28T07:27:50Z</time>
      </trkpt>
      <trkpt lat="38.1664600" lon="-3.8653550">
        <ele>359.2</ele>
        <time>2018-04-28T07:27:51Z</time>
      </trkpt>
      <trkpt lat="38.1664450" lon="-3.8653940">
        <ele>359.4</ele>
        <time>2018-04-28T07:27:52Z</time>
      </trkpt>
      <trkpt lat="38.1664290" lon="-3.8654310">
        <ele>359.6</ele>
        <time>2018-04-28T07:27:53Z</time>
      </trkpt>
      <trkpt lat="38.1664110" lon="-3.8654670">
        <ele>359.8</ele>
        <time>2018-04-28T07:27:54Z</time>
      </trkpt>
      <trkpt lat="38.1663950" lon="-3.8655010">
        <ele>360.0</ele>
        <time>2018-04-28T07:27:55Z</time>
      </trkpt>
      <trkpt lat="38.1663790" lon="-3.8655330">
        <ele>360.0</ele>
        <time>2018-04-28T07:27:56Z</time>
      </trkpt>
      <trkpt lat="38.1663630" lon="-3.8655640">
        <ele>360.2</ele>
        <time>2018-04-28T07:27:57Z</time>
      </trkpt>
      <trkpt lat="38.1663470" lon="-3.8656000">
        <ele>360.4</ele>
        <time>2018-04-28T07:27:58Z</time>
      </trkpt>
      <trkpt lat="38.1663310" lon="-3.8656320">
        <ele>360.6</ele>
        <time>2018-04-28T07:27:59Z</time>
      </trkpt>
      <trkpt lat="38.1663150" lon="-3.8656650">
        <ele>360.8</ele>
        <time>2018-04-28T07:28:00Z</time>
      </trkpt>
      <trkpt lat="38.1663010" lon="-3.8656970">
        <ele>361.0</ele>
        <time>2018-04-28T07:28:01Z</time>
      </trkpt>
      <trkpt lat="38.1662860" lon="-3.8657280">
        <ele>361.0</ele>
        <time>2018-04-28T07:28:02Z</time>
      </trkpt>
      <trkpt lat="38.1662720" lon="-3.8657590">
        <ele>361.2</ele>
        <time>2018-04-28T07:28:03Z</time>
      </trkpt>
      <trkpt lat="38.1662580" lon="-3.8657900">
        <ele>361.4</ele>
        <time>2018-04-28T07:28:04Z</time>
      </trkpt>
      <trkpt lat="38.1662410" lon="-3.8658200">
        <ele>361.6</ele>
        <time>2018-04-28T07:28:05Z</time>
      </trkpt>
      <trkpt lat="38.1662240" lon="-3.8658490">
        <ele>361.8</ele>
        <time>2018-04-28T07:28:06Z</time>
      </trkpt>
      <trkpt lat="38.1662100" lon="-3.8658810">
        <ele>362.0</ele>
        <time>2018-04-28T07:28:07Z</time>
      </trkpt>
      <trkpt lat="38.1661980" lon="-3.8659100">
        <ele>362.0</ele>
        <time>2018-04-28T07:28:08Z</time>
      </trkpt>
      <trkpt lat="38.1661860" lon="-3.8659390">
        <ele>362.2</ele>
        <time>2018-04-28T07:28:09Z</time>
      </trkpt>
      <trkpt lat="38.1661710" lon="-3.8659680">
        <ele>362.4</ele>
        <time>2018-04-28T07:28:10Z</time>
      </trkpt>
      <trkpt lat="38.1661560" lon="-3.8659970">
        <ele>362.6</ele>
        <time>2018-04-28T07:28:11Z</time>
      </trkpt>
      <trkpt lat="38.1661410" lon="-3.8660300">
        <ele>362.6</ele>
        <time>2018-04-28T07:28:12Z</time>
      </trkpt>
      <trkpt lat="38.1661260" lon="-3.8660590">
        <ele>362.8</ele>
        <time>2018-04-28T07:28:13Z</time>
      </trkpt>
      <trkpt lat="38.1661090" lon="-3.8660850">
        <ele>363.0</ele>
        <time>2018-04-28T07:28:14Z</time>
      </trkpt>
      <trkpt lat="38.1660930" lon="-3.8661120">
        <ele>363.0</ele>
        <time>2018-04-28T07:28:15Z</time>
      </trkpt>
      <trkpt lat="38.1660790" lon="-3.8661390">
        <ele>363.2</ele>
        <time>2018-04-28T07:28:16Z</time>
      </trkpt>
      <trkpt lat="38.1660650" lon="-3.8661670">
        <ele>363.4</ele>
        <time>2018-04-28T07:28:17Z</time>
      </trkpt>
      <trkpt lat="38.1660520" lon="-3.8661930">
        <ele>363.4</ele>
        <time>2018-04-28T07:28:18Z</time>
      </trkpt>
      <trkpt lat="38.1660390" lon="-3.8662210">
        <ele>363.6</ele>
        <time>2018-04-28T07:28:19Z</time>
      </trkpt>
      <trkpt lat="38.1660260" lon="-3.8662490">
        <ele>363.8</ele>
        <time>2018-04-28T07:28:20Z</time>
      </trkpt>
      <trkpt lat="38.1660120" lon="-3.8662750">
        <ele>364.0</ele>
        <time>2018-04-28T07:28:21Z</time>
      </trkpt>
      <trkpt lat="38.1659980" lon="-3.8663020">
        <ele>364.0</ele>
        <time>2018-04-28T07:28:22Z</time>
      </trkpt>
      <trkpt lat="38.1659850" lon="-3.8663290">
        <ele>364.2</ele>
        <time>2018-04-28T07:28:23Z</time>
      </trkpt>
      <trkpt lat="38.1659720" lon="-3.8663570">
        <ele>364.4</ele>
        <time>2018-04-28T07:28:24Z</time>
      </trkpt>
      <trkpt lat="38.1659590" lon="-3.8663850">
        <ele>364.6</ele>
        <time>2018-04-28T07:28:25Z</time>
      </trkpt>
      <trkpt lat="38.1659460" lon="-3.8664120">
        <ele>364.6</ele>
        <time>2018-04-28T07:28:26Z</time>
      </trkpt>
      <trkpt lat="38.1659330" lon="-3.8664390">
        <ele>364.8</ele>
        <time>2018-04-28T07:28:27Z</time>
      </trkpt>
      <trkpt lat="38.1659190" lon="-3.8664670">
        <ele>365.0</ele>
        <time>2018-04-28T07:28:28Z</time>
      </trkpt>
      <trkpt lat="38.1659070" lon="-3.8664950">
        <ele>365.0</ele>
        <time>2018-04-28T07:28:29Z</time>
      </trkpt>
      <trkpt lat="38.1658940" lon="-3.8665250">
        <ele>365.2</ele>
        <time>2018-04-28T07:28:30Z</time>
      </trkpt>
      <trkpt lat="38.1658800" lon="-3.8665540">
        <ele>365.4</ele>
        <time>2018-04-28T07:28:31Z</time>
      </trkpt>
      <trkpt lat="38.1658660" lon="-3.8665830">
        <ele>365.6</ele>
        <time>2018-04-28T07:28:32Z</time>
      </trkpt>
      <trkpt lat="38.1658530" lon="-3.8666100">
        <ele>365.6</ele>
        <time>2018-04-28T07:28:33Z</time>
      </trkpt>
      <trkpt lat="38.1658410" lon="-3.8666370">
        <ele>365.8</ele>
        <time>2018-04-28T07:28:34Z</time>
      </trkpt>
      <trkpt lat="38.1658270" lon="-3.8666650">
        <ele>366.0</ele>
        <time>2018-04-28T07:28:35Z</time>
      </trkpt>
      <trkpt lat="38.1658130" lon="-3.8666940">
        <ele>366.2</ele>
        <time>2018-04-28T07:28:36Z</time>
      </trkpt>
      <trkpt lat="38.1658000" lon="-3.8667190">
        <ele>366.4</ele>
        <time>2018-04-28T07:28:37Z</time>
      </trkpt>
      <trkpt lat="38.1657860" lon="-3.8667430">
        <ele>366.4</ele>
        <time>2018-04-28T07:28:38Z</time>
      </trkpt>
      <trkpt lat="38.1657730" lon="-3.8667600">
        <ele>366.6</ele>
        <time>2018-04-28T07:28:39Z</time>
      </trkpt>
      <trkpt lat="38.1657560" lon="-3.8667740">
        <ele>366.8</ele>
        <time>2018-04-28T07:28:40Z</time>
      </trkpt>
      <trkpt lat="38.1657400" lon="-3.8667900">
        <ele>366.8</ele>
        <time>2018-04-28T07:28:41Z</time>
      </trkpt>
      <trkpt lat="38.1657220" lon="-3.8668090">
        <ele>367.0</ele>
        <time>2018-04-28T07:28:42Z</time>
      </trkpt>
      <trkpt lat="38.1657040" lon="-3.8668310">
        <ele>367.2</ele>
        <time>2018-04-28T07:28:43Z</time>
      </trkpt>
      <trkpt lat="38.1656870" lon="-3.8668480">
        <ele>367.4</ele>
        <time>2018-04-28T07:28:44Z</time>
      </trkpt>
      <trkpt lat="38.1656690" lon="-3.8668640">
        <ele>367.6</ele>
        <time>2018-04-28T07:28:45Z</time>
      </trkpt>
      <trkpt lat="38.1656520" lon="-3.8668810">
        <ele>367.8</ele>
        <time>2018-04-28T07:28:46Z</time>
      </trkpt>
      <trkpt lat="38.1656330" lon="-3.8669000">
        <ele>368.0</ele>
        <time>2018-04-28T07:28:47Z</time>
      </trkpt>
      <trkpt lat="38.1656120" lon="-3.8669120">
        <ele>368.2</ele>
        <time>2018-04-28T07:28:48Z</time>
      </trkpt>
      <trkpt lat="38.1655910" lon="-3.8669210">
        <ele>368.4</ele>
        <time>2018-04-28T07:28:49Z</time>
      </trkpt>
      <trkpt lat="38.1655690" lon="-3.8669310">
        <ele>368.6</ele>
        <time>2018-04-28T07:28:50Z</time>
      </trkpt>
      <trkpt lat="38.1655480" lon="-3.8669370">
        <ele>368.8</ele>
        <time>2018-04-28T07:28:51Z</time>
      </trkpt>
      <trkpt lat="38.1655270" lon="-3.8669390">
        <ele>368.8</ele>
        <time>2018-04-28T07:28:52Z</time>
      </trkpt>
      <trkpt lat="38.1655060" lon="-3.8669400">
        <ele>369.0</ele>
        <time>2018-04-28T07:28:53Z</time>
      </trkpt>
      <trkpt lat="38.1654860" lon="-3.8669470">
        <ele>369.2</ele>
        <time>2018-04-28T07:28:54Z</time>
      </trkpt>
      <trkpt lat="38.1654650" lon="-3.8669510">
        <ele>369.4</ele>
        <time>2018-04-28T07:28:55Z</time>
      </trkpt>
      <trkpt lat="38.1654460" lon="-3.8669500">
        <ele>369.6</ele>
        <time>2018-04-28T07:28:56Z</time>
      </trkpt>
      <trkpt lat="38.1654260" lon="-3.8669450">
        <ele>369.8</ele>
        <time>2018-04-28T07:28:57Z</time>
      </trkpt>
      <trkpt lat="38.1654050" lon="-3.8669360">
        <ele>369.8</ele>
        <time>2018-04-28T07:28:58Z</time>
      </trkpt>
      <trkpt lat="38.1653850" lon="-3.8669300">
        <ele>370.0</ele>
        <time>2018-04-28T07:28:59Z</time>
      </trkpt>
      <trkpt lat="38.1653650" lon="-3.8669220">
        <ele>370.2</ele>
        <time>2018-04-28T07:29:00Z</time>
      </trkpt>
      <trkpt lat="38.1653460" lon="-3.8669120">
        <ele>370.2</ele>
        <time>2018-04-28T07:29:01Z</time>
      </trkpt>
      <trkpt lat="38.1653280" lon="-3.8669010">
        <ele>370.4</ele>
        <time>2018-04-28T07:29:02Z</time>
      </trkpt>
      <trkpt lat="38.1653090" lon="-3.8668910">
        <ele>370.6</ele>
        <time>2018-04-28T07:29:03Z</time>
      </trkpt>
      <trkpt lat="38.1652910" lon="-3.8668800">
        <ele>370.8</ele>
        <time>2018-04-28T07:29:04Z</time>
      </trkpt>
      <trkpt lat="38.1652740" lon="-3.8668690">
        <ele>371.0</ele>
        <time>2018-04-28T07:29:05Z</time>
      </trkpt>
      <trkpt lat="38.1652550" lon="-3.8668600">
        <ele>371.0</ele>
        <time>2018-04-28T07:29:06Z</time>
      </trkpt>
      <trkpt lat="38.1652380" lon="-3.8668490">
        <ele>371.2</ele>
        <time>2018-04-28T07:29:07Z</time>
      </trkpt>
      <trkpt lat="38.1652210" lon="-3.8668380">
        <ele>371.4</ele>
        <time>2018-04-28T07:29:08Z</time>
      </trkpt>
      <trkpt lat="38.1652030" lon="-3.8668260">
        <ele>371.4</ele>
        <time>2018-04-28T07:29:09Z</time>
      </trkpt>
      <trkpt lat="38.1651840" lon="-3.8668130">
        <ele>371.6</ele>
        <time>2018-04-28T07:29:10Z</time>
      </trkpt>
      <trkpt lat="38.1651660" lon="-3.8668060">
        <ele>371.8</ele>
        <time>2018-04-28T07:29:11Z</time>
      </trkpt>
      <trkpt lat="38.1651490" lon="-3.8667930">
        <ele>371.8</ele>
        <time>2018-04-28T07:29:12Z</time>
      </trkpt>
      <trkpt lat="38.1651300" lon="-3.8667810">
        <ele>372.0</ele>
        <time>2018-04-28T07:29:13Z</time>
      </trkpt>
      <trkpt lat="38.1651110" lon="-3.8667680">
        <ele>372.2</ele>
        <time>2018-04-28T07:29:14Z</time>
      </trkpt>
      <trkpt lat="38.1650920" lon="-3.8667560">
        <ele>372.2</ele>
        <time>2018-04-28T07:29:15Z</time>
      </trkpt>
      <trkpt lat="38.1650740" lon="-3.8667420">
        <ele>372.4</ele>
        <time>2018-04-28T07:29:16Z</time>
      </trkpt>
      <trkpt lat="38.1650570" lon="-3.8667280">
        <ele>372.6</ele>
        <time>2018-04-28T07:29:17Z</time>
      </trkpt>
      <trkpt lat="38.1650380" lon="-3.8667110">
        <ele>372.8</ele>
        <time>2018-04-28T07:29:18Z</time>
      </trkpt>
      <trkpt lat="38.1650200" lon="-3.8666970">
        <ele>372.8</ele>
        <time>2018-04-28T07:29:19Z</time>
      </trkpt>
      <trkpt lat="38.1650030" lon="-3.8666850">
        <ele>373.0</ele>
        <time>2018-04-28T07:29:20Z</time>
      </trkpt>
      <trkpt lat="38.1649850" lon="-3.8666720">
        <ele>373.2</ele>
        <time>2018-04-28T07:29:21Z</time>
      </trkpt>
      <trkpt lat="38.1649660" lon="-3.8666620">
        <ele>373.2</ele>
        <time>2018-04-28T07:29:22Z</time>
      </trkpt>
      <trkpt lat="38.1649470" lon="-3.8666540">
        <ele>373.4</ele>
        <time>2018-04-28T07:29:23Z</time>
      </trkpt>
      <trkpt lat="38.1649270" lon="-3.8666450">
        <ele>373.6</ele>
        <time>2018-04-28T07:29:24Z</time>
      </trkpt>
      <trkpt lat="38.1649080" lon="-3.8666380">
        <ele>373.6</ele>
        <time>2018-04-28T07:29:25Z</time>
      </trkpt>
      <trkpt lat="38.1648890" lon="-3.8666300">
        <ele>373.8</ele>
        <time>2018-04-28T07:29:26Z</time>
      </trkpt>
      <trkpt lat="38.1648710" lon="-3.8666230">
        <ele>374.0</ele>
        <time>2018-04-28T07:29:27Z</time>
      </trkpt>
      <trkpt lat="38.1648520" lon="-3.8666150">
        <ele>374.2</ele>
        <time>2018-04-28T07:29:28Z</time>
      </trkpt>
      <trkpt lat="38.1648330" lon="-3.8666090">
        <ele>374.2</ele>
        <time>2018-04-28T07:29:29Z</time>
      </trkpt>
      <trkpt lat="38.1648150" lon="-3.8665980">
        <ele>374.4</ele>
        <time>2018-04-28T07:29:30Z</time>
      </trkpt>
      <trkpt lat="38.1647950" lon="-3.8665900">
        <ele>374.6</ele>
        <time>2018-04-28T07:29:31Z</time>
      </trkpt>
      <trkpt lat="38.1647760" lon="-3.8665860">
        <ele>374.8</ele>
        <time>2018-04-28T07:29:32Z</time>
      </trkpt>
      <trkpt lat="38.1647580" lon="-3.8665850">
        <ele>375.0</ele>
        <time>2018-04-28T07:29:33Z</time>
      </trkpt>
      <trkpt lat="38.1647390" lon="-3.8665830">
        <ele>375.2</ele>
        <time>2018-04-28T07:29:34Z</time>
      </trkpt>
      <trkpt lat="38.1647190" lon="-3.8665790">
        <ele>375.4</ele>
        <time>2018-04-28T07:29:35Z</time>
      </trkpt>
      <trkpt lat="38.1646990" lon="-3.8665770">
        <ele>375.6</ele>
        <time>2018-04-28T07:29:36Z</time>
      </trkpt>
      <trkpt lat="38.1646800" lon="-3.8665770">
        <ele>375.6</ele>
        <time>2018-04-28T07:29:37Z</time>
      </trkpt>
      <trkpt lat="38.1646620" lon="-3.8665810">
        <ele>375.8</ele>
        <time>2018-04-28T07:29:38Z</time>
      </trkpt>
      <trkpt lat="38.1646420" lon="-3.8665850">
        <ele>376.0</ele>
        <time>2018-04-28T07:29:39Z</time>
      </trkpt>
      <trkpt lat="38.1646200" lon="-3.8665850">
        <ele>376.0</ele>
        <time>2018-04-28T07:29:40Z</time>
      </trkpt>
      <trkpt lat="38.1646010" lon="-3.8665830">
        <ele>376.2</ele>
        <time>2018-04-28T07:29:41Z</time>
      </trkpt>
      <trkpt lat="38.1645810" lon="-3.8665850">
        <ele>376.4</ele>
        <time>2018-04-28T07:29:42Z</time>
      </trkpt>
      <trkpt lat="38.1645620" lon="-3.8665890">
        <ele>376.4</ele>
        <time>2018-04-28T07:29:43Z</time>
      </trkpt>
      <trkpt lat="38.1645420" lon="-3.8665940">
        <ele>376.6</ele>
        <time>2018-04-28T07:29:44Z</time>
      </trkpt>
      <trkpt lat="38.1645230" lon="-3.8666000">
        <ele>376.8</ele>
        <time>2018-04-28T07:29:45Z</time>
      </trkpt>
      <trkpt lat="38.1645050" lon="-3.8666070">
        <ele>377.0</ele>
        <time>2018-04-28T07:29:46Z</time>
      </trkpt>
      <trkpt lat="38.1644880" lon="-3.8666170">
        <ele>377.2</ele>
        <time>2018-04-28T07:29:47Z</time>
      </trkpt>
      <trkpt lat="38.1644730" lon="-3.8666330">
        <ele>377.2</ele>
        <time>2018-04-28T07:29:48Z</time>
      </trkpt>
      <trkpt lat="38.1644530" lon="-3.8666420">
        <ele>377.4</ele>
        <time>2018-04-28T07:29:49Z</time>
      </trkpt>
      <trkpt lat="38.1644350" lon="-3.8666530">
        <ele>377.6</ele>
        <time>2018-04-28T07:29:50Z</time>
      </trkpt>
      <trkpt lat="38.1644160" lon="-3.8666620">
        <ele>377.8</ele>
        <time>2018-04-28T07:29:51Z</time>
      </trkpt>
      <trkpt lat="38.1643970" lon="-3.8666750">
        <ele>377.8</ele>
        <time>2018-04-28T07:29:52Z</time>
      </trkpt>
      <trkpt lat="38.1643790" lon="-3.8666880">
        <ele>378.0</ele>
        <time>2018-04-28T07:29:53Z</time>
      </trkpt>
      <trkpt lat="38.1643620" lon="-3.8667020">
        <ele>378.0</ele>
        <time>2018-04-28T07:29:54Z</time>
      </trkpt>
      <trkpt lat="38.1643460" lon="-3.8667170">
        <ele>378.2</ele>
        <time>2018-04-28T07:29:55Z</time>
      </trkpt>
      <trkpt lat="38.1643290" lon="-3.8667310">
        <ele>378.2</ele>
        <time>2018-04-28T07:29:56Z</time>
      </trkpt>
      <trkpt lat="38.1643120" lon="-3.8667460">
        <ele>378.4</ele>
        <time>2018-04-28T07:29:57Z</time>
      </trkpt>
      <trkpt lat="38.1642950" lon="-3.8667610">
        <ele>378.4</ele>
        <time>2018-04-28T07:29:58Z</time>
      </trkpt>
      <trkpt lat="38.1642800" lon="-3.8667780">
        <ele>378.6</ele>
        <time>2018-04-28T07:29:59Z</time>
      </trkpt>
      <trkpt lat="38.1642650" lon="-3.8667950">
        <ele>378.6</ele>
        <time>2018-04-28T07:30:00Z</time>
      </trkpt>
      <trkpt lat="38.1642500" lon="-3.8668120">
        <ele>378.8</ele>
        <time>2018-04-28T07:30:01Z</time>
      </trkpt>
      <trkpt lat="38.1642360" lon="-3.8668320">
        <ele>379.0</ele>
        <time>2018-04-28T07:30:02Z</time>
      </trkpt>
      <trkpt lat="38.1642230" lon="-3.8668500">
        <ele>379.0</ele>
        <time>2018-04-28T07:30:03Z</time>
      </trkpt>
      <trkpt lat="38.1642090" lon="-3.8668680">
        <ele>379.2</ele>
        <time>2018-04-28T07:30:04Z</time>
      </trkpt>
      <trkpt lat="38.1641940" lon="-3.8668840">
        <ele>379.4</ele>
        <time>2018-04-28T07:30:05Z</time>
      </trkpt>
      <trkpt lat="38.1641790" lon="-3.8669010">
        <ele>379.6</ele>
        <time>2018-04-28T07:30:06Z</time>
      </trkpt>
      <trkpt lat="38.1641630" lon="-3.8669170">
        <ele>379.6</ele>
        <time>2018-04-28T07:30:07Z</time>
      </trkpt>
      <trkpt lat="38.1641480" lon="-3.8669340">
        <ele>379.8</ele>
        <time>2018-04-28T07:30:08Z</time>
      </trkpt>
      <trkpt lat="38.1641320" lon="-3.8669510">
        <ele>380.0</ele>
        <time>2018-04-28T07:30:09Z</time>
      </trkpt>
      <trkpt lat="38.1641180" lon="-3.8669700">
        <ele>380.2</ele>
        <time>2018-04-28T07:30:10Z</time>
      </trkpt>
      <trkpt lat="38.1641040" lon="-3.8669880">
        <ele>380.4</ele>
        <time>2018-04-28T07:30:11Z</time>
      </trkpt>
      <trkpt lat="38.1640880" lon="-3.8670070">
        <ele>380.4</ele>
        <time>2018-04-28T07:30:12Z</time>
      </trkpt>
      <trkpt lat="38.1640730" lon="-3.8670230">
        <ele>380.6</ele>
        <time>2018-04-28T07:30:13Z</time>
      </trkpt>
      <trkpt lat="38.1640570" lon="-3.8670390">
        <ele>380.8</ele>
        <time>2018-04-28T07:30:14Z</time>
      </trkpt>
      <trkpt lat="38.1640440" lon="-3.8670560">
        <ele>381.0</ele>
        <time>2018-04-28T07:30:15Z</time>
      </trkpt>
      <trkpt lat="38.1640310" lon="-3.8670770">
        <ele>381.0</ele>
        <time>2018-04-28T07:30:16Z</time>
      </trkpt>
      <trkpt lat="38.1640180" lon="-3.8670970">
        <ele>381.2</ele>
        <time>2018-04-28T07:30:17Z</time>
      </trkpt>
      <trkpt lat="38.1640080" lon="-3.8671190">
        <ele>381.4</ele>
        <time>2018-04-28T07:30:18Z</time>
      </trkpt>
      <trkpt lat="38.1639990" lon="-3.8671420">
        <ele>381.6</ele>
        <time>2018-04-28T07:30:19Z</time>
      </trkpt>
      <trkpt lat="38.1639870" lon="-3.8671640">
        <ele>381.6</ele>
        <time>2018-04-28T07:30:20Z</time>
      </trkpt>
      <trkpt lat="38.1639740" lon="-3.8671840">
        <ele>381.8</ele>
        <time>2018-04-28T07:30:21Z</time>
      </trkpt>
      <trkpt lat="38.1639600" lon="-3.8672030">
        <ele>382.0</ele>
        <time>2018-04-28T07:30:22Z</time>
      </trkpt>
      <trkpt lat="38.1639460" lon="-3.8672220">
        <ele>382.0</ele>
        <time>2018-04-28T07:30:23Z</time>
      </trkpt>
      <trkpt lat="38.1639320" lon="-3.8672420">
        <ele>382.2</ele>
        <time>2018-04-28T07:30:24Z</time>
      </trkpt>
      <trkpt lat="38.1639180" lon="-3.8672610">
        <ele>382.4</ele>
        <time>2018-04-28T07:30:25Z</time>
      </trkpt>
      <trkpt lat="38.1639060" lon="-3.8672820">
        <ele>382.6</ele>
        <time>2018-04-28T07:30:26Z</time>
      </trkpt>
      <trkpt lat="38.1638940" lon="-3.8673030">
        <ele>382.6</ele>
        <time>2018-04-28T07:30:27Z</time>
      </trkpt>
      <trkpt lat="38.1638830" lon="-3.8673260">
        <ele>382.8</ele>
        <time>2018-04-28T07:30:28Z</time>
      </trkpt>
      <trkpt lat="38.1638710" lon="-3.8673480">
        <ele>382.8</ele>
        <time>2018-04-28T07:30:29Z</time>
      </trkpt>
      <trkpt lat="38.1638600" lon="-3.8673690">
        <ele>383.0</ele>
        <time>2018-04-28T07:30:30Z</time>
      </trkpt>
      <trkpt lat="38.1638470" lon="-3.8673890">
        <ele>383.2</ele>
        <time>2018-04-28T07:30:31Z</time>
      </trkpt>
      <trkpt lat="38.1638340" lon="-3.8674080">
        <ele>383.4</ele>
        <time>2018-04-28T07:30:32Z</time>
      </trkpt>
      <trkpt lat="38.1638240" lon="-3.8674290">
        <ele>383.6</ele>
        <time>2018-04-28T07:30:33Z</time>
      </trkpt>
      <trkpt lat="38.1638140" lon="-3.8674520">
        <ele>383.8</ele>
        <time>2018-04-28T07:30:34Z</time>
      </trkpt>
      <trkpt lat="38.1638060" lon="-3.8674730">
        <ele>383.8</ele>
        <time>2018-04-28T07:30:35Z</time>
      </trkpt>
      <trkpt lat="38.1637980" lon="-3.8674960">
        <ele>384.0</ele>
        <time>2018-04-28T07:30:36Z</time>
      </trkpt>
      <trkpt lat="38.1637900" lon="-3.8675200">
        <ele>384.2</ele>
        <time>2018-04-28T07:30:37Z</time>
      </trkpt>
      <trkpt lat="38.1637820" lon="-3.8675430">
        <ele>384.2</ele>
        <time>2018-04-28T07:30:38Z</time>
      </trkpt>
      <trkpt lat="38.1637740" lon="-3.8675670">
        <ele>384.4</ele>
        <time>2018-04-28T07:30:39Z</time>
      </trkpt>
      <trkpt lat="38.1637640" lon="-3.8675910">
        <ele>384.6</ele>
        <time>2018-04-28T07:30:40Z</time>
      </trkpt>
      <trkpt lat="38.1637550" lon="-3.8676130">
        <ele>384.6</ele>
        <time>2018-04-28T07:30:41Z</time>
      </trkpt>
      <trkpt lat="38.1637450" lon="-3.8676360">
        <ele>384.8</ele>
        <time>2018-04-28T07:30:42Z</time>
      </trkpt>
      <trkpt lat="38.1637380" lon="-3.8676590">
        <ele>385.0</ele>
        <time>2018-04-28T07:30:43Z</time>
      </trkpt>
      <trkpt lat="38.1637310" lon="-3.8676840">
        <ele>385.0</ele>
        <time>2018-04-28T07:30:44Z</time>
      </trkpt>
      <trkpt lat="38.1637250" lon="-3.8677070">
        <ele>385.2</ele>
        <time>2018-04-28T07:30:45Z</time>
      </trkpt>
      <trkpt lat="38.1637180" lon="-3.8677320">
        <ele>385.4</ele>
        <time>2018-04-28T07:30:46Z</time>
      </trkpt>
      <trkpt lat="38.1637110" lon="-3.8677530">
        <ele>385.4</ele>
        <time>2018-04-28T07:30:47Z</time>
      </trkpt>
      <trkpt lat="38.1637030" lon="-3.8677760">
        <ele>385.6</ele>
        <time>2018-04-28T07:30:48Z</time>
      </trkpt>
      <trkpt lat="38.1636950" lon="-3.8678000">
        <ele>385.8</ele>
        <time>2018-04-28T07:30:49Z</time>
      </trkpt>
      <trkpt lat="38.1636860" lon="-3.8678250">
        <ele>385.8</ele>
        <time>2018-04-28T07:30:50Z</time>
      </trkpt>
      <trkpt lat="38.1636820" lon="-3.8678470">
        <ele>386.0</ele>
        <time>2018-04-28T07:30:51Z</time>
      </trkpt>
      <trkpt lat="38.1636760" lon="-3.8678710">
        <ele>386.2</ele>
        <time>2018-04-28T07:30:52Z</time>
      </trkpt>
      <trkpt lat="38.1636700" lon="-3.8678920">
        <ele>386.2</ele>
        <time>2018-04-28T07:30:53Z</time>
      </trkpt>
      <trkpt lat="38.1636620" lon="-3.8679110">
        <ele>386.4</ele>
        <time>2018-04-28T07:30:54Z</time>
      </trkpt>
      <trkpt lat="38.1636560" lon="-3.8679380">
        <ele>386.4</ele>
        <time>2018-04-28T07:30:55Z</time>
      </trkpt>
      <trkpt lat="38.1636520" lon="-3.8679630">
        <ele>386.6</ele>
        <time>2018-04-28T07:30:56Z</time>
      </trkpt>
      <trkpt lat="38.1636450" lon="-3.8679870">
        <ele>386.8</ele>
        <time>2018-04-28T07:30:57Z</time>
      </trkpt>
      <trkpt lat="38.1636370" lon="-3.8680090">
        <ele>386.8</ele>
        <time>2018-04-28T07:30:58Z</time>
      </trkpt>
      <trkpt lat="38.1636290" lon="-3.8680360">
        <ele>387.0</ele>
        <time>2018-04-28T07:30:59Z</time>
      </trkpt>
      <trkpt lat="38.1636230" lon="-3.8680590">
        <ele>387.2</ele>
        <time>2018-04-28T07:31:00Z</time>
      </trkpt>
      <trkpt lat="38.1636150" lon="-3.8680820">
        <ele>387.4</ele>
        <time>2018-04-28T07:31:01Z</time>
      </trkpt>
      <trkpt lat="38.1636070" lon="-3.8681040">
        <ele>387.6</ele>
        <time>2018-04-28T07:31:02Z</time>
      </trkpt>
      <trkpt lat="38.1636010" lon="-3.8681260">
        <ele>387.6</ele>
        <time>2018-04-28T07:31:03Z</time>
      </trkpt>
      <trkpt lat="38.1635940" lon="-3.8681500">
        <ele>387.8</ele>
        <time>2018-04-28T07:31:04Z</time>
      </trkpt>
      <trkpt lat="38.1635830" lon="-3.8681720">
        <ele>388.0</ele>
        <time>2018-04-28T07:31:05Z</time>
      </trkpt>
      <trkpt lat="38.1635720" lon="-3.8681950">
        <ele>388.0</ele>
        <time>2018-04-28T07:31:06Z</time>
      </trkpt>
      <trkpt lat="38.1635650" lon="-3.8682180">
        <ele>388.2</ele>
        <time>2018-04-28T07:31:07Z</time>
      </trkpt>
      <trkpt lat="38.1635590" lon="-3.8682420">
        <ele>388.4</ele>
        <time>2018-04-28T07:31:08Z</time>
      </trkpt>
      <trkpt lat="38.1635530" lon="-3.8682670">
        <ele>388.4</ele>
        <time>2018-04-28T07:31:09Z</time>
      </trkpt>
      <trkpt lat="38.1635470" lon="-3.8682890">
        <ele>388.6</ele>
        <time>2018-04-28T07:31:10Z</time>
      </trkpt>
      <trkpt lat="38.1635390" lon="-3.8683200">
        <ele>388.8</ele>
        <time>2018-04-28T07:31:11Z</time>
      </trkpt>
      <trkpt lat="38.1635350" lon="-3.8683460">
        <ele>388.8</ele>
        <time>2018-04-28T07:31:12Z</time>
      </trkpt>
      <trkpt lat="38.1635300" lon="-3.8683700">
        <ele>389.0</ele>
        <time>2018-04-28T07:31:13Z</time>
      </trkpt>
      <trkpt lat="38.1635250" lon="-3.8683960">
        <ele>389.0</ele>
        <time>2018-04-28T07:31:14Z</time>
      </trkpt>
      <trkpt lat="38.1635210" lon="-3.8684230">
        <ele>389.2</ele>
        <time>2018-04-28T07:31:15Z</time>
      </trkpt>
      <trkpt lat="38.1635210" lon="-3.8684480">
        <ele>389.2</ele>
        <time>2018-04-28T07:31:16Z</time>
      </trkpt>
      <trkpt lat="38.1635170" lon="-3.8684760">
        <ele>389.4</ele>
        <time>2018-04-28T07:31:17Z</time>
      </trkpt>
      <trkpt lat="38.1635150" lon="-3.8685070">
        <ele>389.4</ele>
        <time>2018-04-28T07:31:18Z</time>
      </trkpt>
      <trkpt lat="38.1635140" lon="-3.8685360">
        <ele>389.6</ele>
        <time>2018-04-28T07:31:19Z</time>
      </trkpt>
      <trkpt lat="38.1635100" lon="-3.8685660">
        <ele>389.6</ele>
        <time>2018-04-28T07:31:20Z</time>
      </trkpt>
      <trkpt lat="38.1635060" lon="-3.8685950">
        <ele>389.6</ele>
        <time>2018-04-28T07:31:21Z</time>
      </trkpt>
      <trkpt lat="38.1634990" lon="-3.8686240">
        <ele>389.8</ele>
        <time>2018-04-28T07:31:22Z</time>
      </trkpt>
      <trkpt lat="38.1634930" lon="-3.8686530">
        <ele>389.8</ele>
        <time>2018-04-28T07:31:23Z</time>
      </trkpt>
      <trkpt lat="38.1634860" lon="-3.8686860">
        <ele>390.0</ele>
        <time>2018-04-28T07:31:24Z</time>
      </trkpt>
      <trkpt lat="38.1634820" lon="-3.8687200">
        <ele>390.0</ele>
        <time>2018-04-28T07:31:25Z</time>
      </trkpt>
      <trkpt lat="38.1634790" lon="-3.8687550">
        <ele>390.2</ele>
        <time>2018-04-28T07:31:26Z</time>
      </trkpt>
      <trkpt lat="38.1634770" lon="-3.8687900">
        <ele>390.2</ele>
        <time>2018-04-28T07:31:27Z</time>
      </trkpt>
      <trkpt lat="38.1634740" lon="-3.8688250">
        <ele>390.2</ele>
        <time>2018-04-28T07:31:28Z</time>
      </trkpt>
      <trkpt lat="38.1634710" lon="-3.8688610">
        <ele>390.4</ele>
        <time>2018-04-28T07:31:29Z</time>
      </trkpt>
      <trkpt lat="38.1634680" lon="-3.8688980">
        <ele>390.4</ele>
        <time>2018-04-28T07:31:30Z</time>
      </trkpt>
      <trkpt lat="38.1634670" lon="-3.8689350">
        <ele>390.4</ele>
        <time>2018-04-28T07:31:31Z</time>
      </trkpt>
      <trkpt lat="38.1634670" lon="-3.8689730">
        <ele>390.6</ele>
        <time>2018-04-28T07:31:32Z</time>
      </trkpt>
      <trkpt lat="38.1634710" lon="-3.8690140">
        <ele>390.6</ele>
        <time>2018-04-28T07:31:33Z</time>
      </trkpt>
      <trkpt lat="38.1634750" lon="-3.8690520">
        <ele>390.8</ele>
        <time>2018-04-28T07:31:34Z</time>
      </trkpt>
      <trkpt lat="38.1634810" lon="-3.8690910">
        <ele>390.8</ele>
        <time>2018-04-28T07:31:35Z</time>
      </trkpt>
      <trkpt lat="38.1634870" lon="-3.8691290">
        <ele>391.0</ele>
        <time>2018-04-28T07:31:36Z</time>
      </trkpt>
      <trkpt lat="38.1634950" lon="-3.8691670">
        <ele>391.0</ele>
        <time>2018-04-28T07:31:37Z</time>
      </trkpt>
      <trkpt lat="38.1635040" lon="-3.8692050">
        <ele>391.2</ele>
        <time>2018-04-28T07:31:38Z</time>
      </trkpt>
      <trkpt lat="38.1635140" lon="-3.8692390">
        <ele>391.4</ele>
        <time>2018-04-28T07:31:39Z</time>
      </trkpt>
      <trkpt lat="38.1635270" lon="-3.8692720">
        <ele>391.4</ele>
        <time>2018-04-28T07:31:40Z</time>
      </trkpt>
      <trkpt lat="38.1635410" lon="-3.8693040">
        <ele>391.6</ele>
        <time>2018-04-28T07:31:41Z</time>
      </trkpt>
      <trkpt lat="38.1635560" lon="-3.8693350">
        <ele>391.8</ele>
        <time>2018-04-28T07:31:42Z</time>
      </trkpt>
      <trkpt lat="38.1635730" lon="-3.8693650">
        <ele>391.8</ele>
        <time>2018-04-28T07:31:43Z</time>
      </trkpt>
      <trkpt lat="38.1635930" lon="-3.8693930">
        <ele>392.0</ele>
        <time>2018-04-28T07:31:44Z</time>
      </trkpt>
      <trkpt lat="38.1636140" lon="-3.8694190">
        <ele>392.0</ele>
        <time>2018-04-28T07:31:45Z</time>
      </trkpt>
      <trkpt lat="38.1636340" lon="-3.8694470">
        <ele>392.2</ele>
        <time>2018-04-28T07:31:46Z</time>
      </trkpt>
      <trkpt lat="38.1636530" lon="-3.8694770">
        <ele>392.4</ele>
        <time>2018-04-28T07:31:47Z</time>
      </trkpt>
      <trkpt lat="38.1636730" lon="-3.8695050">
        <ele>392.6</ele>
        <time>2018-04-28T07:31:48Z</time>
      </trkpt>
      <trkpt lat="38.1636940" lon="-3.8695330">
        <ele>392.8</ele>
        <time>2018-04-28T07:31:49Z</time>
      </trkpt>
      <trkpt lat="38.1637140" lon="-3.8695640">
        <ele>392.8</ele>
        <time>2018-04-28T07:31:50Z</time>
      </trkpt>
      <trkpt lat="38.1637360" lon="-3.8695920">
        <ele>392.8</ele>
        <time>2018-04-28T07:31:51Z</time>
      </trkpt>
      <trkpt lat="38.1637600" lon="-3.8696180">
        <ele>393.0</ele>
        <time>2018-04-28T07:31:52Z</time>
      </trkpt>
      <trkpt lat="38.1637840" lon="-3.8696460">
        <ele>392.8</ele>
        <time>2018-04-28T07:31:53Z</time>
      </trkpt>
      <trkpt lat="38.1638100" lon="-3.8696720">
        <ele>392.8</ele>
        <time>2018-04-28T07:31:54Z</time>
      </trkpt>
      <trkpt lat="38.1638380" lon="-3.8696930">
        <ele>392.8</ele>
        <time>2018-04-28T07:31:55Z</time>
      </trkpt>
      <trkpt lat="38.1638630" lon="-3.8697230">
        <ele>392.8</ele>
        <time>2018-04-28T07:31:56Z</time>
      </trkpt>
      <trkpt lat="38.1638900" lon="-3.8697550">
        <ele>392.8</ele>
        <time>2018-04-28T07:31:57Z</time>
      </trkpt>
      <trkpt lat="38.1639200" lon="-3.8697820">
        <ele>392.8</ele>
        <time>2018-04-28T07:31:58Z</time>
      </trkpt>
      <trkpt lat="38.1639540" lon="-3.8698050">
        <ele>392.8</ele>
        <time>2018-04-28T07:31:59Z</time>
      </trkpt>
      <trkpt lat="38.1639880" lon="-3.8698260">
        <ele>392.6</ele>
        <time>2018-04-28T07:32:00Z</time>
      </trkpt>
      <trkpt lat="38.1640200" lon="-3.8698570">
        <ele>392.6</ele>
        <time>2018-04-28T07:32:01Z</time>
      </trkpt>
      <trkpt lat="38.1640540" lon="-3.8698830">
        <ele>392.6</ele>
        <time>2018-04-28T07:32:02Z</time>
      </trkpt>
      <trkpt lat="38.1640860" lon="-3.8699160">
        <ele>392.6</ele>
        <time>2018-04-28T07:32:03Z</time>
      </trkpt>
      <trkpt lat="38.1641160" lon="-3.8699530">
        <ele>392.6</ele>
        <time>2018-04-28T07:32:04Z</time>
      </trkpt>
      <trkpt lat="38.1641460" lon="-3.8699860">
        <ele>392.6</ele>
        <time>2018-04-28T07:32:05Z</time>
      </trkpt>
      <trkpt lat="38.1641800" lon="-3.8700120">
        <ele>392.6</ele>
        <time>2018-04-28T07:32:06Z</time>
      </trkpt>
      <trkpt lat="38.1642130" lon="-3.8700360">
        <ele>392.6</ele>
        <time>2018-04-28T07:32:07Z</time>
      </trkpt>
      <trkpt lat="38.1642440" lon="-3.8700670">
        <ele>392.6</ele>
        <time>2018-04-28T07:32:08Z</time>
      </trkpt>
      <trkpt lat="38.1642750" lon="-3.8700980">
        <ele>392.6</ele>
        <time>2018-04-28T07:32:09Z</time>
      </trkpt>
      <trkpt lat="38.1643050" lon="-3.8701300">
        <ele>392.8</ele>
        <time>2018-04-28T07:32:10Z</time>
      </trkpt>
      <trkpt lat="38.1643350" lon="-3.8701630">
        <ele>393.0</ele>
        <time>2018-04-28T07:32:11Z</time>
      </trkpt>
      <trkpt lat="38.1643620" lon="-3.8701980">
        <ele>392.8</ele>
        <time>2018-04-28T07:32:12Z</time>
      </trkpt>
      <trkpt lat="38.1643850" lon="-3.8702390">
        <ele>392.6</ele>
        <time>2018-04-28T07:32:13Z</time>
      </trkpt>
      <trkpt lat="38.1644070" lon="-3.8702810">
        <ele>392.8</ele>
        <time>2018-04-28T07:32:14Z</time>
      </trkpt>
      <trkpt lat="38.1644280" lon="-3.8703230">
        <ele>392.8</ele>
        <time>2018-04-28T07:32:15Z</time>
      </trkpt>
      <trkpt lat="38.1644480" lon="-3.8703620">
        <ele>393.0</ele>
        <time>2018-04-28T07:32:16Z</time>
      </trkpt>
      <trkpt lat="38.1644630" lon="-3.8704070">
        <ele>393.0</ele>
        <time>2018-04-28T07:32:17Z</time>
      </trkpt>
      <trkpt lat="38.1644780" lon="-3.8704520">
        <ele>393.0</ele>
        <time>2018-04-28T07:32:18Z</time>
      </trkpt>
      <trkpt lat="38.1644910" lon="-3.8704980">
        <ele>393.0</ele>
        <time>2018-04-28T07:32:19Z</time>
      </trkpt>
      <trkpt lat="38.1645010" lon="-3.8705430">
        <ele>393.2</ele>
        <time>2018-04-28T07:32:20Z</time>
      </trkpt>
      <trkpt lat="38.1645110" lon="-3.8705890">
        <ele>393.2</ele>
        <time>2018-04-28T07:32:21Z</time>
      </trkpt>
      <trkpt lat="38.1645200" lon="-3.8706360">
        <ele>393.4</ele>
        <time>2018-04-28T07:32:22Z</time>
      </trkpt>
      <trkpt lat="38.1645290" lon="-3.8706840">
        <ele>393.4</ele>
        <time>2018-04-28T07:32:23Z</time>
      </trkpt>
      <trkpt lat="38.1645390" lon="-3.8707300">
        <ele>393.4</ele>
        <time>2018-04-28T07:32:24Z</time>
      </trkpt>
      <trkpt lat="38.1645470" lon="-3.8707770">
        <ele>393.6</ele>
        <time>2018-04-28T07:32:25Z</time>
      </trkpt>
      <trkpt lat="38.1645550" lon="-3.8708250">
        <ele>393.8</ele>
        <time>2018-04-28T07:32:26Z</time>
      </trkpt>
      <trkpt lat="38.1645650" lon="-3.8708710">
        <ele>393.8</ele>
        <time>2018-04-28T07:32:27Z</time>
      </trkpt>
      <trkpt lat="38.1645740" lon="-3.8709180">
        <ele>394.0</ele>
        <time>2018-04-28T07:32:28Z</time>
      </trkpt>
      <trkpt lat="38.1645820" lon="-3.8709640">
        <ele>394.0</ele>
        <time>2018-04-28T07:32:29Z</time>
      </trkpt>
      <trkpt lat="38.1645910" lon="-3.8710100">
        <ele>394.2</ele>
        <time>2018-04-28T07:32:30Z</time>
      </trkpt>
      <trkpt lat="38.1646000" lon="-3.8710570">
        <ele>394.2</ele>
        <time>2018-04-28T07:32:31Z</time>
      </trkpt>
      <trkpt lat="38.1646100" lon="-3.8711030">
        <ele>394.2</ele>
        <time>2018-04-28T07:32:32Z</time>
      </trkpt>
      <trkpt lat="38.1646200" lon="-3.8711480">
        <ele>394.4</ele>
        <time>2018-04-28T07:32:33Z</time>
      </trkpt>
      <trkpt lat="38.1646290" lon="-3.8711940">
        <ele>394.6</ele>
        <time>2018-04-28T07:32:34Z</time>
      </trkpt>
      <trkpt lat="38.1646380" lon="-3.8712390">
        <ele>394.6</ele>
        <time>2018-04-28T07:32:35Z</time>
      </trkpt>
      <trkpt lat="38.1646460" lon="-3.8712840">
        <ele>394.8</ele>
        <time>2018-04-28T07:32:36Z</time>
      </trkpt>
      <trkpt lat="38.1646540" lon="-3.8713290">
        <ele>394.8</ele>
        <time>2018-04-28T07:32:37Z</time>
      </trkpt>
      <trkpt lat="38.1646620" lon="-3.8713750">
        <ele>395.0</ele>
        <time>2018-04-28T07:32:38Z</time>
      </trkpt>
      <trkpt lat="38.1646690" lon="-3.8714200">
        <ele>395.2</ele>
        <time>2018-04-28T07:32:39Z</time>
      </trkpt>
      <trkpt lat="38.1646750" lon="-3.8714660">
        <ele>395.2</ele>
        <time>2018-04-28T07:32:40Z</time>
      </trkpt>
      <trkpt lat="38.1646820" lon="-3.8715110">
        <ele>395.4</ele>
        <time>2018-04-28T07:32:41Z</time>
      </trkpt>
      <trkpt lat="38.1646910" lon="-3.8715550">
        <ele>395.6</ele>
        <time>2018-04-28T07:32:42Z</time>
      </trkpt>
      <trkpt lat="38.1647000" lon="-3.8715980">
        <ele>395.8</ele>
        <time>2018-04-28T07:32:43Z</time>
      </trkpt>
      <trkpt lat="38.1647080" lon="-3.8716400">
        <ele>396.0</ele>
        <time>2018-04-28T07:32:44Z</time>
      </trkpt>
      <trkpt lat="38.1647170" lon="-3.8716810">
        <ele>396.0</ele>
        <time>2018-04-28T07:32:45Z</time>
      </trkpt>
      <trkpt lat="38.1647260" lon="-3.8717220">
        <ele>396.4</ele>
        <time>2018-04-28T07:32:46Z</time>
      </trkpt>
      <trkpt lat="38.1647330" lon="-3.8717630">
        <ele>396.4</ele>
        <time>2018-04-28T07:32:47Z</time>
      </trkpt>
      <trkpt lat="38.1647430" lon="-3.8718020">
        <ele>396.6</ele>
        <time>2018-04-28T07:32:48Z</time>
      </trkpt>
      <trkpt lat="38.1647530" lon="-3.8718420">
        <ele>396.8</ele>
        <time>2018-04-28T07:32:49Z</time>
      </trkpt>
      <trkpt lat="38.1647590" lon="-3.8718790">
        <ele>397.0</ele>
        <time>2018-04-28T07:32:50Z</time>
      </trkpt>
      <trkpt lat="38.1647670" lon="-3.8719150">
        <ele>397.4</ele>
        <time>2018-04-28T07:32:51Z</time>
      </trkpt>
      <trkpt lat="38.1647730" lon="-3.8719490">
        <ele>397.4</ele>
        <time>2018-04-28T07:32:52Z</time>
      </trkpt>
      <trkpt lat="38.1647790" lon="-3.8719830">
        <ele>397.8</ele>
        <time>2018-04-28T07:32:53Z</time>
      </trkpt>
      <trkpt lat="38.1647850" lon="-3.8720160">
        <ele>398.0</ele>
        <time>2018-04-28T07:32:54Z</time>
      </trkpt>
      <trkpt lat="38.1647850" lon="-3.8720510">
        <ele>398.2</ele>
        <time>2018-04-28T07:32:55Z</time>
      </trkpt>
      <trkpt lat="38.1647830" lon="-3.8720820">
        <ele>398.4</ele>
        <time>2018-04-28T07:32:56Z</time>
      </trkpt>
      <trkpt lat="38.1647820" lon="-3.8721140">
        <ele>398.6</ele>
        <time>2018-04-28T07:32:57Z</time>
      </trkpt>
      <trkpt lat="38.1647820" lon="-3.8721470">
        <ele>398.8</ele>
        <time>2018-04-28T07:32:58Z</time>
      </trkpt>
      <trkpt lat="38.1647820" lon="-3.8721800">
        <ele>399.0</ele>
        <time>2018-04-28T07:32:59Z</time>
      </trkpt>
      <trkpt lat="38.1647810" lon="-3.8722120">
        <ele>399.2</ele>
        <time>2018-04-28T07:33:00Z</time>
      </trkpt>
      <trkpt lat="38.1647770" lon="-3.8722420">
        <ele>399.4</ele>
        <time>2018-04-28T07:33:01Z</time>
      </trkpt>
      <trkpt lat="38.1647700" lon="-3.8722710">
        <ele>399.4</ele>
        <time>2018-04-28T07:33:02Z</time>
      </trkpt>
      <trkpt lat="38.1647620" lon="-3.8723000">
        <ele>399.6</ele>
        <time>2018-04-28T07:33:03Z</time>
      </trkpt>
      <trkpt lat="38.1647530" lon="-3.8723290">
        <ele>399.6</ele>
        <time>2018-04-28T07:33:04Z</time>
      </trkpt>
      <trkpt lat="38.1647470" lon="-3.8723550">
        <ele>399.8</ele>
        <time>2018-04-28T07:33:05Z</time>
      </trkpt>
      <trkpt lat="38.1647400" lon="-3.8723790">
        <ele>399.8</ele>
        <time>2018-04-28T07:33:06Z</time>
      </trkpt>
      <trkpt lat="38.1647310" lon="-3.8724010">
        <ele>399.8</ele>
        <time>2018-04-28T07:33:07Z</time>
      </trkpt>
      <trkpt lat="38.1647200" lon="-3.8724280">
        <ele>399.8</ele>
        <time>2018-04-28T07:33:08Z</time>
      </trkpt>
      <trkpt lat="38.1647100" lon="-3.8724520">
        <ele>400.0</ele>
        <time>2018-04-28T07:33:09Z</time>
      </trkpt>
      <trkpt lat="38.1646970" lon="-3.8724790">
        <ele>400.0</ele>
        <time>2018-04-28T07:33:10Z</time>
      </trkpt>
      <trkpt lat="38.1646870" lon="-3.8725010">
        <ele>400.0</ele>
        <time>2018-04-28T07:33:11Z</time>
      </trkpt>
      <trkpt lat="38.1646800" lon="-3.8725180">
        <ele>400.0</ele>
        <time>2018-04-28T07:33:12Z</time>
      </trkpt>
      <trkpt lat="38.1646740" lon="-3.8725340">
        <ele>400.0</ele>
        <time>2018-04-28T07:33:13Z</time>
      </trkpt>
      <trkpt lat="38.1646660" lon="-3.8725530">
        <ele>400.0</ele>
        <time>2018-04-28T07:33:14Z</time>
      </trkpt>
      <trkpt lat="38.1646600" lon="-3.8725680">
        <ele>400.0</ele>
        <time>2018-04-28T07:33:15Z</time>
      </trkpt>
      <trkpt lat="38.1646530" lon="-3.8725870">
        <ele>400.0</ele>
        <time>2018-04-28T07:33:16Z</time>
      </trkpt>
      <trkpt lat="38.1646440" lon="-3.8726040">
        <ele>400.2</ele>
        <time>2018-04-28T07:33:17Z</time>
      </trkpt>
      <trkpt lat="38.1646350" lon="-3.8726210">
        <ele>400.2</ele>
        <time>2018-04-28T07:33:18Z</time>
      </trkpt>
      <trkpt lat="38.1646270" lon="-3.8726290">
        <ele>400.2</ele>
        <time>2018-04-28T07:33:19Z</time>
      </trkpt>
      <trkpt lat="38.1646250" lon="-3.8726300">
        <ele>400.0</ele>
        <time>2018-04-28T07:33:20Z</time>
      </trkpt>
      <trkpt lat="38.1646270" lon="-3.8726330">
        <ele>400.2</ele>
        <time>2018-04-28T07:33:21Z</time>
      </trkpt>
      <trkpt lat="38.1646280" lon="-3.8726430">
        <ele>400.2</ele>
        <time>2018-04-28T07:33:22Z</time>
      </trkpt>
      <trkpt lat="38.1646310" lon="-3.8726410">
        <ele>400.2</ele>
        <time>2018-04-28T07:33:23Z</time>
      </trkpt>
      <trkpt lat="38.1646300" lon="-3.8726410">
        <ele>400.2</ele>
        <time>2018-04-28T07:33:24Z</time>
      </trkpt>
      <trkpt lat="38.1646300" lon="-3.8726420">
        <ele>400.2</ele>
        <time>2018-04-28T07:33:25Z</time>
      </trkpt>
      <trkpt lat="38.1646310" lon="-3.8726400">
        <ele>400.2</ele>
        <time>2018-04-28T07:33:26Z</time>
      </trkpt>
      <trkpt lat="38.1645660" lon="-3.8729460">
        <ele>400.2</ele>
        <time>2018-04-28T07:34:09Z</time>
      </trkpt>
      <trkpt lat="38.1645600" lon="-3.8729920">
        <ele>400.2</ele>
        <time>2018-04-28T07:34:10Z</time>
      </trkpt>
      <trkpt lat="38.1645500" lon="-3.8730360">
        <ele>400.2</ele>
        <time>2018-04-28T07:34:11Z</time>
      </trkpt>
      <trkpt lat="38.1645390" lon="-3.8730830">
        <ele>400.0</ele>
        <time>2018-04-28T07:34:12Z</time>
      </trkpt>
      <trkpt lat="38.1645260" lon="-3.8731330">
        <ele>400.0</ele>
        <time>2018-04-28T07:34:13Z</time>
      </trkpt>
      <trkpt lat="38.1645150" lon="-3.8731820">
        <ele>400.0</ele>
        <time>2018-04-28T07:34:14Z</time>
      </trkpt>
      <trkpt lat="38.1645010" lon="-3.8732330">
        <ele>400.0</ele>
        <time>2018-04-28T07:34:15Z</time>
      </trkpt>
      <trkpt lat="38.1644870" lon="-3.8732800">
        <ele>400.0</ele>
        <time>2018-04-28T07:34:16Z</time>
      </trkpt>
      <trkpt lat="38.1644690" lon="-3.8733320">
        <ele>400.0</ele>
        <time>2018-04-28T07:34:17Z</time>
      </trkpt>
      <trkpt lat="38.1644520" lon="-3.8733860">
        <ele>399.8</ele>
        <time>2018-04-28T07:34:18Z</time>
      </trkpt>
      <trkpt lat="38.1644350" lon="-3.8734380">
        <ele>399.8</ele>
        <time>2018-04-28T07:34:19Z</time>
      </trkpt>
      <trkpt lat="38.1644170" lon="-3.8734910">
        <ele>399.8</ele>
        <time>2018-04-28T07:34:20Z</time>
      </trkpt>
      <trkpt lat="38.1643970" lon="-3.8735420">
        <ele>400.0</ele>
        <time>2018-04-28T07:34:21Z</time>
      </trkpt>
      <trkpt lat="38.1643800" lon="-3.8735920">
        <ele>400.0</ele>
        <time>2018-04-28T07:34:22Z</time>
      </trkpt>
      <trkpt lat="38.1643630" lon="-3.8736410">
        <ele>400.0</ele>
        <time>2018-04-28T07:34:23Z</time>
      </trkpt>
      <trkpt lat="38.1643470" lon="-3.8736900">
        <ele>400.2</ele>
        <time>2018-04-28T07:34:24Z</time>
      </trkpt>
      <trkpt lat="38.1643340" lon="-3.8737400">
        <ele>400.2</ele>
        <time>2018-04-28T07:34:25Z</time>
      </trkpt>
      <trkpt lat="38.1643190" lon="-3.8737890">
        <ele>400.2</ele>
        <time>2018-04-28T07:34:26Z</time>
      </trkpt>
      <trkpt lat="38.1643020" lon="-3.8738350">
        <ele>400.2</ele>
        <time>2018-04-28T07:34:27Z</time>
      </trkpt>
      <trkpt lat="38.1642850" lon="-3.8738810">
        <ele>400.2</ele>
        <time>2018-04-28T07:34:28Z</time>
      </trkpt>
      <trkpt lat="38.1642710" lon="-3.8739240">
        <ele>400.2</ele>
        <time>2018-04-28T07:34:29Z</time>
      </trkpt>
      <trkpt lat="38.1642570" lon="-3.8739650">
        <ele>400.2</ele>
        <time>2018-04-28T07:34:30Z</time>
      </trkpt>
      <trkpt lat="38.1642450" lon="-3.8740030">
        <ele>400.2</ele>
        <time>2018-04-28T07:34:31Z</time>
      </trkpt>
      <trkpt lat="38.1642330" lon="-3.8740420">
        <ele>400.2</ele>
        <time>2018-04-28T07:34:32Z</time>
      </trkpt>
      <trkpt lat="38.1642220" lon="-3.8740790">
        <ele>400.4</ele>
        <time>2018-04-28T07:34:33Z</time>
      </trkpt>
      <trkpt lat="38.1642080" lon="-3.8741200">
        <ele>400.4</ele>
        <time>2018-04-28T07:34:34Z</time>
      </trkpt>
      <trkpt lat="38.1641940" lon="-3.8741630">
        <ele>400.4</ele>
        <time>2018-04-28T07:34:35Z</time>
      </trkpt>
      <trkpt lat="38.1641770" lon="-3.8742090">
        <ele>400.6</ele>
        <time>2018-04-28T07:34:36Z</time>
      </trkpt>
      <trkpt lat="38.1641650" lon="-3.8742550">
        <ele>400.4</ele>
        <time>2018-04-28T07:34:37Z</time>
      </trkpt>
      <trkpt lat="38.1641550" lon="-3.8743000">
        <ele>400.6</ele>
        <time>2018-04-28T07:34:38Z</time>
      </trkpt>
      <trkpt lat="38.1641440" lon="-3.8743460">
        <ele>400.6</ele>
        <time>2018-04-28T07:34:39Z</time>
      </trkpt>
      <trkpt lat="38.1641310" lon="-3.8743920">
        <ele>400.6</ele>
        <time>2018-04-28T07:34:40Z</time>
      </trkpt>
      <trkpt lat="38.1641170" lon="-3.8744380">
        <ele>400.6</ele>
        <time>2018-04-28T07:34:41Z</time>
      </trkpt>
      <trkpt lat="38.1641020" lon="-3.8744830">
        <ele>400.6</ele>
        <time>2018-04-28T07:34:42Z</time>
      </trkpt>
      <trkpt lat="38.1640840" lon="-3.8745300">
        <ele>400.6</ele>
        <time>2018-04-28T07:34:43Z</time>
      </trkpt>
      <trkpt lat="38.1640630" lon="-3.8745730">
        <ele>400.6</ele>
        <time>2018-04-28T07:34:44Z</time>
      </trkpt>
      <trkpt lat="38.1640410" lon="-3.8746160">
        <ele>400.6</ele>
        <time>2018-04-28T07:34:45Z</time>
      </trkpt>
      <trkpt lat="38.1640190" lon="-3.8746590">
        <ele>400.4</ele>
        <time>2018-04-28T07:34:46Z</time>
      </trkpt>
      <trkpt lat="38.1639950" lon="-3.8747010">
        <ele>400.4</ele>
        <time>2018-04-28T07:34:47Z</time>
      </trkpt>
      <trkpt lat="38.1639710" lon="-3.8747430">
        <ele>400.4</ele>
        <time>2018-04-28T07:34:48Z</time>
      </trkpt>
      <trkpt lat="38.1639480" lon="-3.8747860">
        <ele>400.4</ele>
        <time>2018-04-28T07:34:49Z</time>
      </trkpt>
      <trkpt lat="38.1639210" lon="-3.8748270">
        <ele>400.4</ele>
        <time>2018-04-28T07:34:50Z</time>
      </trkpt>
      <trkpt lat="38.1638960" lon="-3.8748680">
        <ele>400.4</ele>
        <time>2018-04-28T07:34:51Z</time>
      </trkpt>
      <trkpt lat="38.1638720" lon="-3.8749120">
        <ele>400.4</ele>
        <time>2018-04-28T07:34:52Z</time>
      </trkpt>
      <trkpt lat="38.1638490" lon="-3.8749560">
        <ele>400.4</ele>
        <time>2018-04-28T07:34:53Z</time>
      </trkpt>
      <trkpt lat="38.1638240" lon="-3.8749980">
        <ele>400.4</ele>
        <time>2018-04-28T07:34:54Z</time>
      </trkpt>
      <trkpt lat="38.1638000" lon="-3.8750380">
        <ele>400.4</ele>
        <time>2018-04-28T07:34:55Z</time>
      </trkpt>
      <trkpt lat="38.1637770" lon="-3.8750800">
        <ele>400.4</ele>
        <time>2018-04-28T07:34:56Z</time>
      </trkpt>
      <trkpt lat="38.1637540" lon="-3.8751240">
        <ele>400.4</ele>
        <time>2018-04-28T07:34:57Z</time>
      </trkpt>
      <trkpt lat="38.1637310" lon="-3.8751680">
        <ele>400.6</ele>
        <time>2018-04-28T07:34:58Z</time>
      </trkpt>
      <trkpt lat="38.1637080" lon="-3.8752130">
        <ele>400.6</ele>
        <time>2018-04-28T07:34:59Z</time>
      </trkpt>
      <trkpt lat="38.1636850" lon="-3.8752570">
        <ele>400.6</ele>
        <time>2018-04-28T07:35:00Z</time>
      </trkpt>
      <trkpt lat="38.1636620" lon="-3.8753000">
        <ele>400.6</ele>
        <time>2018-04-28T07:35:01Z</time>
      </trkpt>
      <trkpt lat="38.1636400" lon="-3.8753450">
        <ele>400.8</ele>
        <time>2018-04-28T07:35:02Z</time>
      </trkpt>
      <trkpt lat="38.1636200" lon="-3.8753900">
        <ele>400.8</ele>
        <time>2018-04-28T07:35:03Z</time>
      </trkpt>
      <trkpt lat="38.1635980" lon="-3.8754330">
        <ele>401.0</ele>
        <time>2018-04-28T07:35:04Z</time>
      </trkpt>
      <trkpt lat="38.1635740" lon="-3.8754720">
        <ele>401.0</ele>
        <time>2018-04-28T07:35:05Z</time>
      </trkpt>
      <trkpt lat="38.1635510" lon="-3.8755120">
        <ele>401.2</ele>
        <time>2018-04-28T07:35:06Z</time>
      </trkpt>
      <trkpt lat="38.1635270" lon="-3.8755500">
        <ele>401.4</ele>
        <time>2018-04-28T07:35:07Z</time>
      </trkpt>
      <trkpt lat="38.1635050" lon="-3.8755910">
        <ele>401.4</ele>
        <time>2018-04-28T07:35:08Z</time>
      </trkpt>
      <trkpt lat="38.1634840" lon="-3.8756310">
        <ele>401.6</ele>
        <time>2018-04-28T07:35:09Z</time>
      </trkpt>
      <trkpt lat="38.1634650" lon="-3.8756710">
        <ele>401.8</ele>
        <time>2018-04-28T07:35:10Z</time>
      </trkpt>
      <trkpt lat="38.1634450" lon="-3.8757110">
        <ele>402.0</ele>
        <time>2018-04-28T07:35:11Z</time>
      </trkpt>
      <trkpt lat="38.1634240" lon="-3.8757500">
        <ele>402.2</ele>
        <time>2018-04-28T07:35:12Z</time>
      </trkpt>
      <trkpt lat="38.1634040" lon="-3.8757870">
        <ele>402.4</ele>
        <time>2018-04-28T07:35:13Z</time>
      </trkpt>
      <trkpt lat="38.1633810" lon="-3.8758230">
        <ele>402.4</ele>
        <time>2018-04-28T07:35:14Z</time>
      </trkpt>
      <trkpt lat="38.1633550" lon="-3.8758550">
        <ele>402.6</ele>
        <time>2018-04-28T07:35:15Z</time>
      </trkpt>
      <trkpt lat="38.1633290" lon="-3.8758880">
        <ele>402.8</ele>
        <time>2018-04-28T07:35:16Z</time>
      </trkpt>
      <trkpt lat="38.1633010" lon="-3.8759200">
        <ele>402.8</ele>
        <time>2018-04-28T07:35:17Z</time>
      </trkpt>
      <trkpt lat="38.1632780" lon="-3.8759570">
        <ele>403.0</ele>
        <time>2018-04-28T07:35:18Z</time>
      </trkpt>
      <trkpt lat="38.1632560" lon="-3.8759930">
        <ele>403.0</ele>
        <time>2018-04-28T07:35:19Z</time>
      </trkpt>
      <trkpt lat="38.1632350" lon="-3.8760300">
        <ele>403.2</ele>
        <time>2018-04-28T07:35:20Z</time>
      </trkpt>
      <trkpt lat="38.1632140" lon="-3.8760670">
        <ele>403.4</ele>
        <time>2018-04-28T07:35:21Z</time>
      </trkpt>
      <trkpt lat="38.1631930" lon="-3.8761030">
        <ele>403.4</ele>
        <time>2018-04-28T07:35:22Z</time>
      </trkpt>
      <trkpt lat="38.1631730" lon="-3.8761390">
        <ele>403.4</ele>
        <time>2018-04-28T07:35:23Z</time>
      </trkpt>
      <trkpt lat="38.1631540" lon="-3.8761770">
        <ele>403.6</ele>
        <time>2018-04-28T07:35:24Z</time>
      </trkpt>
      <trkpt lat="38.1631350" lon="-3.8762130">
        <ele>403.8</ele>
        <time>2018-04-28T07:35:25Z</time>
      </trkpt>
      <trkpt lat="38.1631160" lon="-3.8762490">
        <ele>403.8</ele>
        <time>2018-04-28T07:35:26Z</time>
      </trkpt>
      <trkpt lat="38.1630970" lon="-3.8762840">
        <ele>404.0</ele>
        <time>2018-04-28T07:35:27Z</time>
      </trkpt>
      <trkpt lat="38.1630790" lon="-3.8763210">
        <ele>404.0</ele>
        <time>2018-04-28T07:35:28Z</time>
      </trkpt>
      <trkpt lat="38.1630640" lon="-3.8763580">
        <ele>404.2</ele>
        <time>2018-04-28T07:35:29Z</time>
      </trkpt>
      <trkpt lat="38.1630510" lon="-3.8763970">
        <ele>404.4</ele>
        <time>2018-04-28T07:35:30Z</time>
      </trkpt>
      <trkpt lat="38.1630350" lon="-3.8764370">
        <ele>404.6</ele>
        <time>2018-04-28T07:35:31Z</time>
      </trkpt>
      <trkpt lat="38.1630160" lon="-3.8764730">
        <ele>404.6</ele>
        <time>2018-04-28T07:35:32Z</time>
      </trkpt>
      <trkpt lat="38.1629960" lon="-3.8765070">
        <ele>404.8</ele>
        <time>2018-04-28T07:35:33Z</time>
      </trkpt>
      <trkpt lat="38.1629740" lon="-3.8765420">
        <ele>405.0</ele>
        <time>2018-04-28T07:35:34Z</time>
      </trkpt>
      <trkpt lat="38.1629530" lon="-3.8765780">
        <ele>405.2</ele>
        <time>2018-04-28T07:35:35Z</time>
      </trkpt>
      <trkpt lat="38.1629340" lon="-3.8766110">
        <ele>405.2</ele>
        <time>2018-04-28T07:35:36Z</time>
      </trkpt>
      <trkpt lat="38.1629140" lon="-3.8766470">
        <ele>405.4</ele>
        <time>2018-04-28T07:35:37Z</time>
      </trkpt>
      <trkpt lat="38.1628950" lon="-3.8766820">
        <ele>405.6</ele>
        <time>2018-04-28T07:35:38Z</time>
      </trkpt>
      <trkpt lat="38.1628760" lon="-3.8767190">
        <ele>405.6</ele>
        <time>2018-04-28T07:35:39Z</time>
      </trkpt>
      <trkpt lat="38.1628580" lon="-3.8767520">
        <ele>405.8</ele>
        <time>2018-04-28T07:35:40Z</time>
      </trkpt>
      <trkpt lat="38.1628370" lon="-3.8767840">
        <ele>406.0</ele>
        <time>2018-04-28T07:35:41Z</time>
      </trkpt>
      <trkpt lat="38.1628160" lon="-3.8768210">
        <ele>406.2</ele>
        <time>2018-04-28T07:35:42Z</time>
      </trkpt>
      <trkpt lat="38.1627970" lon="-3.8768560">
        <ele>406.4</ele>
        <time>2018-04-28T07:35:43Z</time>
      </trkpt>
      <trkpt lat="38.1627780" lon="-3.8768900">
        <ele>406.6</ele>
        <time>2018-04-28T07:35:44Z</time>
      </trkpt>
      <trkpt lat="38.1627540" lon="-3.8769220">
        <ele>406.8</ele>
        <time>2018-04-28T07:35:45Z</time>
      </trkpt>
      <trkpt lat="38.1627290" lon="-3.8769510">
        <ele>406.8</ele>
        <time>2018-04-28T07:35:46Z</time>
      </trkpt>
      <trkpt lat="38.1627070" lon="-3.8769860">
        <ele>407.0</ele>
        <time>2018-04-28T07:35:47Z</time>
      </trkpt>
      <trkpt lat="38.1626880" lon="-3.8770210">
        <ele>407.2</ele>
        <time>2018-04-28T07:35:48Z</time>
      </trkpt>
      <trkpt lat="38.1626690" lon="-3.8770550">
        <ele>407.4</ele>
        <time>2018-04-28T07:35:49Z</time>
      </trkpt>
      <trkpt lat="38.1626520" lon="-3.8770930">
        <ele>407.6</ele>
        <time>2018-04-28T07:35:50Z</time>
      </trkpt>
      <trkpt lat="38.1626340" lon="-3.8771310">
        <ele>407.6</ele>
        <time>2018-04-28T07:35:51Z</time>
      </trkpt>
      <trkpt lat="38.1626180" lon="-3.8771640">
        <ele>407.8</ele>
        <time>2018-04-28T07:35:52Z</time>
      </trkpt>
      <trkpt lat="38.1626050" lon="-3.8772010">
        <ele>408.0</ele>
        <time>2018-04-28T07:35:53Z</time>
      </trkpt>
      <trkpt lat="38.1625930" lon="-3.8772390">
        <ele>408.2</ele>
        <time>2018-04-28T07:35:54Z</time>
      </trkpt>
      <trkpt lat="38.1625850" lon="-3.8772800">
        <ele>408.2</ele>
        <time>2018-04-28T07:35:55Z</time>
      </trkpt>
      <trkpt lat="38.1625790" lon="-3.8773200">
        <ele>408.4</ele>
        <time>2018-04-28T07:35:56Z</time>
      </trkpt>
      <trkpt lat="38.1625750" lon="-3.8773620">
        <ele>408.4</ele>
        <time>2018-04-28T07:35:57Z</time>
      </trkpt>
      <trkpt lat="38.1625720" lon="-3.8774070">
        <ele>408.2</ele>
        <time>2018-04-28T07:35:58Z</time>
      </trkpt>
      <trkpt lat="38.1625740" lon="-3.8774560">
        <ele>408.4</ele>
        <time>2018-04-28T07:35:59Z</time>
      </trkpt>
      <trkpt lat="38.1625800" lon="-3.8775040">
        <ele>408.2</ele>
        <time>2018-04-28T07:36:00Z</time>
      </trkpt>
      <trkpt lat="38.1625870" lon="-3.8775540">
        <ele>408.2</ele>
        <time>2018-04-28T07:36:01Z</time>
      </trkpt>
      <trkpt lat="38.1626000" lon="-3.8776040">
        <ele>408.2</ele>
        <time>2018-04-28T07:36:02Z</time>
      </trkpt>
      <trkpt lat="38.1626200" lon="-3.8776490">
        <ele>408.2</ele>
        <time>2018-04-28T07:36:03Z</time>
      </trkpt>
      <trkpt lat="38.1626400" lon="-3.8776990">
        <ele>408.0</ele>
        <time>2018-04-28T07:36:04Z</time>
      </trkpt>
      <trkpt lat="38.1626610" lon="-3.8777460">
        <ele>408.2</ele>
        <time>2018-04-28T07:36:05Z</time>
      </trkpt>
      <trkpt lat="38.1626790" lon="-3.8777950">
        <ele>408.2</ele>
        <time>2018-04-28T07:36:06Z</time>
      </trkpt>
      <trkpt lat="38.1626930" lon="-3.8778460">
        <ele>408.4</ele>
        <time>2018-04-28T07:36:07Z</time>
      </trkpt>
      <trkpt lat="38.1627020" lon="-3.8778980">
        <ele>408.4</ele>
        <time>2018-04-28T07:36:08Z</time>
      </trkpt>
      <trkpt lat="38.1627070" lon="-3.8779470">
        <ele>408.6</ele>
        <time>2018-04-28T07:36:09Z</time>
      </trkpt>
      <trkpt lat="38.1627100" lon="-3.8779970">
        <ele>408.6</ele>
        <time>2018-04-28T07:36:10Z</time>
      </trkpt>
      <trkpt lat="38.1627100" lon="-3.8780450">
        <ele>408.8</ele>
        <time>2018-04-28T07:36:11Z</time>
      </trkpt>
      <trkpt lat="38.1627070" lon="-3.8780910">
        <ele>409.0</ele>
        <time>2018-04-28T07:36:12Z</time>
      </trkpt>
      <trkpt lat="38.1627030" lon="-3.8781370">
        <ele>409.2</ele>
        <time>2018-04-28T07:36:13Z</time>
      </trkpt>
      <trkpt lat="38.1626980" lon="-3.8781840">
        <ele>409.4</ele>
        <time>2018-04-28T07:36:14Z</time>
      </trkpt>
      <trkpt lat="38.1626960" lon="-3.8782290">
        <ele>409.4</ele>
        <time>2018-04-28T07:36:15Z</time>
      </trkpt>
      <trkpt lat="38.1626950" lon="-3.8782750">
        <ele>409.6</ele>
        <time>2018-04-28T07:36:16Z</time>
      </trkpt>
      <trkpt lat="38.1626960" lon="-3.8783200">
        <ele>409.8</ele>
        <time>2018-04-28T07:36:17Z</time>
      </trkpt>
      <trkpt lat="38.1626960" lon="-3.8783660">
        <ele>410.0</ele>
        <time>2018-04-28T07:36:18Z</time>
      </trkpt>
      <trkpt lat="38.1626970" lon="-3.8784110">
        <ele>410.0</ele>
        <time>2018-04-28T07:36:19Z</time>
      </trkpt>
      <trkpt lat="38.1626970" lon="-3.8784560">
        <ele>410.2</ele>
        <time>2018-04-28T07:36:20Z</time>
      </trkpt>
      <trkpt lat="38.1626930" lon="-3.8785000">
        <ele>410.4</ele>
        <time>2018-04-28T07:36:21Z</time>
      </trkpt>
      <trkpt lat="38.1626880" lon="-3.8785430">
        <ele>410.6</ele>
        <time>2018-04-28T07:36:22Z</time>
      </trkpt>
      <trkpt lat="38.1626840" lon="-3.8785840">
        <ele>410.8</ele>
        <time>2018-04-28T07:36:23Z</time>
      </trkpt>
      <trkpt lat="38.1626780" lon="-3.8786240">
        <ele>411.0</ele>
        <time>2018-04-28T07:36:24Z</time>
      </trkpt>
      <trkpt lat="38.1626710" lon="-3.8786580">
        <ele>411.2</ele>
        <time>2018-04-28T07:36:25Z</time>
      </trkpt>
      <trkpt lat="38.1626620" lon="-3.8786950">
        <ele>411.4</ele>
        <time>2018-04-28T07:36:26Z</time>
      </trkpt>
      <trkpt lat="38.1626540" lon="-3.8787320">
        <ele>411.6</ele>
        <time>2018-04-28T07:36:27Z</time>
      </trkpt>
      <trkpt lat="38.1626460" lon="-3.8787680">
        <ele>411.6</ele>
        <time>2018-04-28T07:36:28Z</time>
      </trkpt>
      <trkpt lat="38.1626360" lon="-3.8788060">
        <ele>411.6</ele>
        <time>2018-04-28T07:36:29Z</time>
      </trkpt>
      <trkpt lat="38.1626250" lon="-3.8788370">
        <ele>411.4</ele>
        <time>2018-04-28T07:36:30Z</time>
      </trkpt>
      <trkpt lat="38.1626200" lon="-3.8788760">
        <ele>411.4</ele>
        <time>2018-04-28T07:36:31Z</time>
      </trkpt>
      <trkpt lat="38.1626160" lon="-3.8789240">
        <ele>411.2</ele>
        <time>2018-04-28T07:36:32Z</time>
      </trkpt>
      <trkpt lat="38.1626150" lon="-3.8789780">
        <ele>411.0</ele>
        <time>2018-04-28T07:36:33Z</time>
      </trkpt>
      <trkpt lat="38.1626170" lon="-3.8790370">
        <ele>410.8</ele>
        <time>2018-04-28T07:36:34Z</time>
      </trkpt>
      <trkpt lat="38.1626220" lon="-3.8790930">
        <ele>410.6</ele>
        <time>2018-04-28T07:36:35Z</time>
      </trkpt>
      <trkpt lat="38.1626310" lon="-3.8791510">
        <ele>410.6</ele>
        <time>2018-04-28T07:36:36Z</time>
      </trkpt>
      <trkpt lat="38.1626430" lon="-3.8792090">
        <ele>410.6</ele>
        <time>2018-04-28T07:36:37Z</time>
      </trkpt>
      <trkpt lat="38.1626550" lon="-3.8792650">
        <ele>410.6</ele>
        <time>2018-04-28T07:36:38Z</time>
      </trkpt>
      <trkpt lat="38.1626660" lon="-3.8793170">
        <ele>410.6</ele>
        <time>2018-04-28T07:36:39Z</time>
      </trkpt>
      <trkpt lat="38.1626820" lon="-3.8793650">
        <ele>410.6</ele>
        <time>2018-04-28T07:36:40Z</time>
      </trkpt>
      <trkpt lat="38.1627020" lon="-3.8794070">
        <ele>410.8</ele>
        <time>2018-04-28T07:36:41Z</time>
      </trkpt>
      <trkpt lat="38.1627190" lon="-3.8794450">
        <ele>410.8</ele>
        <time>2018-04-28T07:36:42Z</time>
      </trkpt>
      <trkpt lat="38.1627340" lon="-3.8794810">
        <ele>410.8</ele>
        <time>2018-04-28T07:36:43Z</time>
      </trkpt>
      <trkpt lat="38.1627470" lon="-3.8795190">
        <ele>410.8</ele>
        <time>2018-04-28T07:36:44Z</time>
      </trkpt>
      <trkpt lat="38.1627610" lon="-3.8795480">
        <ele>411.0</ele>
        <time>2018-04-28T07:36:45Z</time>
      </trkpt>
      <trkpt lat="38.1627740" lon="-3.8795770">
        <ele>411.0</ele>
        <time>2018-04-28T07:36:46Z</time>
      </trkpt>
      <trkpt lat="38.1628030" lon="-3.8796310">
        <ele>411.2</ele>
        <time>2018-04-28T07:36:48Z</time>
      </trkpt>
      <trkpt lat="38.1628160" lon="-3.8796600">
        <ele>411.4</ele>
        <time>2018-04-28T07:36:49Z</time>
      </trkpt>
      <trkpt lat="38.1628260" lon="-3.8796880">
        <ele>411.4</ele>
        <time>2018-04-28T07:36:50Z</time>
      </trkpt>
      <trkpt lat="38.1628330" lon="-3.8797210">
        <ele>411.4</ele>
        <time>2018-04-28T07:36:51Z</time>
      </trkpt>
      <trkpt lat="38.1628430" lon="-3.8797500">
        <ele>411.6</ele>
        <time>2018-04-28T07:36:52Z</time>
      </trkpt>
      <trkpt lat="38.1628540" lon="-3.8797750">
        <ele>411.6</ele>
        <time>2018-04-28T07:36:53Z</time>
      </trkpt>
      <trkpt lat="38.1628620" lon="-3.8797960">
        <ele>411.8</ele>
        <time>2018-04-28T07:36:54Z</time>
      </trkpt>
      <trkpt lat="38.1628690" lon="-3.8798170">
        <ele>411.8</ele>
        <time>2018-04-28T07:36:55Z</time>
      </trkpt>
      <trkpt lat="38.1628790" lon="-3.8798370">
        <ele>411.8</ele>
        <time>2018-04-28T07:36:56Z</time>
      </trkpt>
      <trkpt lat="38.1628900" lon="-3.8798560">
        <ele>412.0</ele>
        <time>2018-04-28T07:36:57Z</time>
      </trkpt>
      <trkpt lat="38.1628990" lon="-3.8798770">
        <ele>412.0</ele>
        <time>2018-04-28T07:36:58Z</time>
      </trkpt>
      <trkpt lat="38.1629040" lon="-3.8799000">
        <ele>412.2</ele>
        <time>2018-04-28T07:36:59Z</time>
      </trkpt>
      <trkpt lat="38.1629100" lon="-3.8799210">
        <ele>412.2</ele>
        <time>2018-04-28T07:37:00Z</time>
      </trkpt>
      <trkpt lat="38.1629160" lon="-3.8799430">
        <ele>412.2</ele>
        <time>2018-04-28T07:37:01Z</time>
      </trkpt>
      <trkpt lat="38.1629250" lon="-3.8799620">
        <ele>412.2</ele>
        <time>2018-04-28T07:37:02Z</time>
      </trkpt>
      <trkpt lat="38.1629310" lon="-3.8799880">
        <ele>412.4</ele>
        <time>2018-04-28T07:37:03Z</time>
      </trkpt>
      <trkpt lat="38.1629340" lon="-3.8800140">
        <ele>412.4</ele>
        <time>2018-04-28T07:37:04Z</time>
      </trkpt>
      <trkpt lat="38.1629380" lon="-3.8800400">
        <ele>412.4</ele>
        <time>2018-04-28T07:37:05Z</time>
      </trkpt>
      <trkpt lat="38.1629410" lon="-3.8800650">
        <ele>412.6</ele>
        <time>2018-04-28T07:37:06Z</time>
      </trkpt>
      <trkpt lat="38.1629410" lon="-3.8800940">
        <ele>412.6</ele>
        <time>2018-04-28T07:37:07Z</time>
      </trkpt>
      <trkpt lat="38.1629420" lon="-3.8801200">
        <ele>412.6</ele>
        <time>2018-04-28T07:37:08Z</time>
      </trkpt>
      <trkpt lat="38.1629430" lon="-3.8801470">
        <ele>412.6</ele>
        <time>2018-04-28T07:37:09Z</time>
      </trkpt>
      <trkpt lat="38.1629460" lon="-3.8801720">
        <ele>412.8</ele>
        <time>2018-04-28T07:37:11Z</time>
      </trkpt>
      <trkpt lat="38.1629480" lon="-3.8802250">
        <ele>413.0</ele>
        <time>2018-04-28T07:37:12Z</time>
      </trkpt>
      <trkpt lat="38.1629490" lon="-3.8802520">
        <ele>413.0</ele>
        <time>2018-04-28T07:37:13Z</time>
      </trkpt>
      <trkpt lat="38.1629520" lon="-3.8802790">
        <ele>413.0</ele>
        <time>2018-04-28T07:37:14Z</time>
      </trkpt>
      <trkpt lat="38.1629550" lon="-3.8803050">
        <ele>413.2</ele>
        <time>2018-04-28T07:37:15Z</time>
      </trkpt>
      <trkpt lat="38.1629600" lon="-3.8803320">
        <ele>413.2</ele>
        <time>2018-04-28T07:37:16Z</time>
      </trkpt>
      <trkpt lat="38.1629640" lon="-3.8803600">
        <ele>413.4</ele>
        <time>2018-04-28T07:37:17Z</time>
      </trkpt>
      <trkpt lat="38.1629650" lon="-3.8803880">
        <ele>413.4</ele>
        <time>2018-04-28T07:37:18Z</time>
      </trkpt>
      <trkpt lat="38.1629670" lon="-3.8804150">
        <ele>413.6</ele>
        <time>2018-04-28T07:37:19Z</time>
      </trkpt>
      <trkpt lat="38.1629660" lon="-3.8804430">
        <ele>413.6</ele>
        <time>2018-04-28T07:37:20Z</time>
      </trkpt>
      <trkpt lat="38.1629660" lon="-3.8804710">
        <ele>413.8</ele>
        <time>2018-04-28T07:37:21Z</time>
      </trkpt>
      <trkpt lat="38.1629650" lon="-3.8804970">
        <ele>413.8</ele>
        <time>2018-04-28T07:37:22Z</time>
      </trkpt>
      <trkpt lat="38.1629650" lon="-3.8805240">
        <ele>414.0</ele>
        <time>2018-04-28T07:37:23Z</time>
      </trkpt>
      <trkpt lat="38.1629670" lon="-3.8805510">
        <ele>414.0</ele>
        <time>2018-04-28T07:37:24Z</time>
      </trkpt>
      <trkpt lat="38.1629690" lon="-3.8805770">
        <ele>414.2</ele>
        <time>2018-04-28T07:37:25Z</time>
      </trkpt>
      <trkpt lat="38.1629720" lon="-3.8806040">
        <ele>414.2</ele>
        <time>2018-04-28T07:37:26Z</time>
      </trkpt>
      <trkpt lat="38.1629760" lon="-3.8806330">
        <ele>414.4</ele>
        <time>2018-04-28T07:37:27Z</time>
      </trkpt>
      <trkpt lat="38.1629790" lon="-3.8806600">
        <ele>414.4</ele>
        <time>2018-04-28T07:37:28Z</time>
      </trkpt>
      <trkpt lat="38.1629820" lon="-3.8806870">
        <ele>414.6</ele>
        <time>2018-04-28T07:37:29Z</time>
      </trkpt>
      <trkpt lat="38.1629850" lon="-3.8807130">
        <ele>414.6</ele>
        <time>2018-04-28T07:37:30Z</time>
      </trkpt>
      <trkpt lat="38.1629880" lon="-3.8807390">
        <ele>414.8</ele>
        <time>2018-04-28T07:37:31Z</time>
      </trkpt>
      <trkpt lat="38.1629890" lon="-3.8807670">
        <ele>415.0</ele>
        <time>2018-04-28T07:37:32Z</time>
      </trkpt>
      <trkpt lat="38.1629920" lon="-3.8807950">
        <ele>415.0</ele>
        <time>2018-04-28T07:37:33Z</time>
      </trkpt>
      <trkpt lat="38.1629930" lon="-3.8808220">
        <ele>415.2</ele>
        <time>2018-04-28T07:37:34Z</time>
      </trkpt>
      <trkpt lat="38.1629930" lon="-3.8808490">
        <ele>415.4</ele>
        <time>2018-04-28T07:37:35Z</time>
      </trkpt>
      <trkpt lat="38.1629930" lon="-3.8808760">
        <ele>415.4</ele>
        <time>2018-04-28T07:37:36Z</time>
      </trkpt>
      <trkpt lat="38.1629960" lon="-3.8809040">
        <ele>415.6</ele>
        <time>2018-04-28T07:37:37Z</time>
      </trkpt>
      <trkpt lat="38.1630000" lon="-3.8809310">
        <ele>415.8</ele>
        <time>2018-04-28T07:37:38Z</time>
      </trkpt>
      <trkpt lat="38.1630020" lon="-3.8809590">
        <ele>416.0</ele>
        <time>2018-04-28T07:37:39Z</time>
      </trkpt>
      <trkpt lat="38.1630030" lon="-3.8809860">
        <ele>416.0</ele>
        <time>2018-04-28T07:37:40Z</time>
      </trkpt>
      <trkpt lat="38.1630030" lon="-3.8810140">
        <ele>416.2</ele>
        <time>2018-04-28T07:37:41Z</time>
      </trkpt>
      <trkpt lat="38.1630040" lon="-3.8810430">
        <ele>416.4</ele>
        <time>2018-04-28T07:37:42Z</time>
      </trkpt>
      <trkpt lat="38.1630010" lon="-3.8810710">
        <ele>416.6</ele>
        <time>2018-04-28T07:37:43Z</time>
      </trkpt>
      <trkpt lat="38.1629990" lon="-3.8810990">
        <ele>416.6</ele>
        <time>2018-04-28T07:37:44Z</time>
      </trkpt>
      <trkpt lat="38.1629980" lon="-3.8811280">
        <ele>416.8</ele>
        <time>2018-04-28T07:37:45Z</time>
      </trkpt>
      <trkpt lat="38.1629940" lon="-3.8811570">
        <ele>416.8</ele>
        <time>2018-04-28T07:37:46Z</time>
      </trkpt>
      <trkpt lat="38.1629890" lon="-3.8811860">
        <ele>417.0</ele>
        <time>2018-04-28T07:37:47Z</time>
      </trkpt>
      <trkpt lat="38.1629840" lon="-3.8812150">
        <ele>417.0</ele>
        <time>2018-04-28T07:37:48Z</time>
      </trkpt>
      <trkpt lat="38.1629800" lon="-3.8812450">
        <ele>417.2</ele>
        <time>2018-04-28T07:37:49Z</time>
      </trkpt>
      <trkpt lat="38.1629760" lon="-3.8812740">
        <ele>417.2</ele>
        <time>2018-04-28T07:37:50Z</time>
      </trkpt>
      <trkpt lat="38.1629690" lon="-3.8813040">
        <ele>417.2</ele>
        <time>2018-04-28T07:37:51Z</time>
      </trkpt>
      <trkpt lat="38.1629610" lon="-3.8813350">
        <ele>417.4</ele>
        <time>2018-04-28T07:37:52Z</time>
      </trkpt>
      <trkpt lat="38.1629550" lon="-3.8813670">
        <ele>417.4</ele>
        <time>2018-04-28T07:37:53Z</time>
      </trkpt>
      <trkpt lat="38.1629490" lon="-3.8814000">
        <ele>417.4</ele>
        <time>2018-04-28T07:37:54Z</time>
      </trkpt>
      <trkpt lat="38.1629460" lon="-3.8814290">
        <ele>417.6</ele>
        <time>2018-04-28T07:37:55Z</time>
      </trkpt>
      <trkpt lat="38.1629400" lon="-3.8814590">
        <ele>417.6</ele>
        <time>2018-04-28T07:37:56Z</time>
      </trkpt>
      <trkpt lat="38.1629270" lon="-3.8815250">
        <ele>417.6</ele>
        <time>2018-04-28T07:37:58Z</time>
      </trkpt>
      <trkpt lat="38.1629220" lon="-3.8815580">
        <ele>418.0</ele>
        <time>2018-04-28T07:37:59Z</time>
      </trkpt>
      <trkpt lat="38.1629160" lon="-3.8815910">
        <ele>418.0</ele>
        <time>2018-04-28T07:38:00Z</time>
      </trkpt>
      <trkpt lat="38.1629100" lon="-3.8816250">
        <ele>418.2</ele>
        <time>2018-04-28T07:38:01Z</time>
      </trkpt>
      <trkpt lat="38.1629040" lon="-3.8816570">
        <ele>418.4</ele>
        <time>2018-04-28T07:38:02Z</time>
      </trkpt>
      <trkpt lat="38.1629030" lon="-3.8816820">
        <ele>418.4</ele>
        <time>2018-04-28T07:38:03Z</time>
      </trkpt>
      <trkpt lat="38.1628970" lon="-3.8817130">
        <ele>418.6</ele>
        <time>2018-04-28T07:38:04Z</time>
      </trkpt>
      <trkpt lat="38.1628900" lon="-3.8817450">
        <ele>418.6</ele>
        <time>2018-04-28T07:38:05Z</time>
      </trkpt>
      <trkpt lat="38.1628840" lon="-3.8817790">
        <ele>418.8</ele>
        <time>2018-04-28T07:38:06Z</time>
      </trkpt>
      <trkpt lat="38.1628790" lon="-3.8818150">
        <ele>419.0</ele>
        <time>2018-04-28T07:38:07Z</time>
      </trkpt>
      <trkpt lat="38.1628740" lon="-3.8818500">
        <ele>419.2</ele>
        <time>2018-04-28T07:38:08Z</time>
      </trkpt>
      <trkpt lat="38.1628700" lon="-3.8818800">
        <ele>419.2</ele>
        <time>2018-04-28T07:38:09Z</time>
      </trkpt>
      <trkpt lat="38.1628630" lon="-3.8819130">
        <ele>419.4</ele>
        <time>2018-04-28T07:38:10Z</time>
      </trkpt>
      <trkpt lat="38.1628570" lon="-3.8819460">
        <ele>419.4</ele>
        <time>2018-04-28T07:38:11Z</time>
      </trkpt>
      <trkpt lat="38.1628500" lon="-3.8819790">
        <ele>419.6</ele>
        <time>2018-04-28T07:38:12Z</time>
      </trkpt>
      <trkpt lat="38.1628430" lon="-3.8820140">
        <ele>419.8</ele>
        <time>2018-04-28T07:38:13Z</time>
      </trkpt>
      <trkpt lat="38.1628370" lon="-3.8820460">
        <ele>419.8</ele>
        <time>2018-04-28T07:38:14Z</time>
      </trkpt>
      <trkpt lat="38.1628300" lon="-3.8820780">
        <ele>420.0</ele>
        <time>2018-04-28T07:38:15Z</time>
      </trkpt>
      <trkpt lat="38.1628230" lon="-3.8821090">
        <ele>420.2</ele>
        <time>2018-04-28T07:38:16Z</time>
      </trkpt>
      <trkpt lat="38.1628180" lon="-3.8821410">
        <ele>420.2</ele>
        <time>2018-04-28T07:38:17Z</time>
      </trkpt>
      <trkpt lat="38.1628130" lon="-3.8821730">
        <ele>420.4</ele>
        <time>2018-04-28T07:38:18Z</time>
      </trkpt>
      <trkpt lat="38.1628070" lon="-3.8822060">
        <ele>420.4</ele>
        <time>2018-04-28T07:38:20Z</time>
      </trkpt>
      <trkpt lat="38.1628020" lon="-3.8822370">
        <ele>420.6</ele>
        <time>2018-04-28T07:38:21Z</time>
      </trkpt>
      <trkpt lat="38.1627950" lon="-3.8822670">
        <ele>420.8</ele>
        <time>2018-04-28T07:38:22Z</time>
      </trkpt>
      <trkpt lat="38.1627800" lon="-3.8823330">
        <ele>421.0</ele>
        <time>2018-04-28T07:38:23Z</time>
      </trkpt>
      <trkpt lat="38.1627720" lon="-3.8823650">
        <ele>421.2</ele>
        <time>2018-04-28T07:38:24Z</time>
      </trkpt>
      <trkpt lat="38.1627640" lon="-3.8823950">
        <ele>421.4</ele>
        <time>2018-04-28T07:38:25Z</time>
      </trkpt>
      <trkpt lat="38.1627560" lon="-3.8824260">
        <ele>421.4</ele>
        <time>2018-04-28T07:38:26Z</time>
      </trkpt>
      <trkpt lat="38.1627450" lon="-3.8824570">
        <ele>421.6</ele>
        <time>2018-04-28T07:38:27Z</time>
      </trkpt>
      <trkpt lat="38.1627340" lon="-3.8824900">
        <ele>421.8</ele>
        <time>2018-04-28T07:38:28Z</time>
      </trkpt>
      <trkpt lat="38.1627270" lon="-3.8825230">
        <ele>422.0</ele>
        <time>2018-04-28T07:38:29Z</time>
      </trkpt>
      <trkpt lat="38.1627210" lon="-3.8825570">
        <ele>422.2</ele>
        <time>2018-04-28T07:38:30Z</time>
      </trkpt>
      <trkpt lat="38.1627150" lon="-3.8825880">
        <ele>422.2</ele>
        <time>2018-04-28T07:38:31Z</time>
      </trkpt>
      <trkpt lat="38.1627100" lon="-3.8826170">
        <ele>422.4</ele>
        <time>2018-04-28T07:38:32Z</time>
      </trkpt>
      <trkpt lat="38.1627040" lon="-3.8826500">
        <ele>422.6</ele>
        <time>2018-04-28T07:38:33Z</time>
      </trkpt>
      <trkpt lat="38.1626990" lon="-3.8826830">
        <ele>422.8</ele>
        <time>2018-04-28T07:38:34Z</time>
      </trkpt>
      <trkpt lat="38.1626940" lon="-3.8827140">
        <ele>422.8</ele>
        <time>2018-04-28T07:38:35Z</time>
      </trkpt>
      <trkpt lat="38.1626890" lon="-3.8827470">
        <ele>423.0</ele>
        <time>2018-04-28T07:38:36Z</time>
      </trkpt>
      <trkpt lat="38.1626850" lon="-3.8827810">
        <ele>423.0</ele>
        <time>2018-04-28T07:38:37Z</time>
      </trkpt>
      <trkpt lat="38.1626770" lon="-3.8828140">
        <ele>423.2</ele>
        <time>2018-04-28T07:38:38Z</time>
      </trkpt>
      <trkpt lat="38.1626700" lon="-3.8828480">
        <ele>423.4</ele>
        <time>2018-04-28T07:38:39Z</time>
      </trkpt>
      <trkpt lat="38.1626640" lon="-3.8828820">
        <ele>423.4</ele>
        <time>2018-04-28T07:38:40Z</time>
      </trkpt>
      <trkpt lat="38.1626590" lon="-3.8829140">
        <ele>423.6</ele>
        <time>2018-04-28T07:38:41Z</time>
      </trkpt>
      <trkpt lat="38.1626540" lon="-3.8829460">
        <ele>423.8</ele>
        <time>2018-04-28T07:38:42Z</time>
      </trkpt>
      <trkpt lat="38.1626490" lon="-3.8829800">
        <ele>423.8</ele>
        <time>2018-04-28T07:38:43Z</time>
      </trkpt>
      <trkpt lat="38.1626430" lon="-3.8830140">
        <ele>424.0</ele>
        <time>2018-04-28T07:38:44Z</time>
      </trkpt>
      <trkpt lat="38.1626370" lon="-3.8830510">
        <ele>424.0</ele>
        <time>2018-04-28T07:38:45Z</time>
      </trkpt>
      <trkpt lat="38.1626330" lon="-3.8830860">
        <ele>424.2</ele>
        <time>2018-04-28T07:38:46Z</time>
      </trkpt>
      <trkpt lat="38.1626270" lon="-3.8831210">
        <ele>424.2</ele>
        <time>2018-04-28T07:38:47Z</time>
      </trkpt>
      <trkpt lat="38.1626220" lon="-3.8831590">
        <ele>424.4</ele>
        <time>2018-04-28T07:38:48Z</time>
      </trkpt>
      <trkpt lat="38.1626160" lon="-3.8831950">
        <ele>424.4</ele>
        <time>2018-04-28T07:38:49Z</time>
      </trkpt>
      <trkpt lat="38.1626110" lon="-3.8832310">
        <ele>424.4</ele>
        <time>2018-04-28T07:38:50Z</time>
      </trkpt>
      <trkpt lat="38.1626060" lon="-3.8832700">
        <ele>424.6</ele>
        <time>2018-04-28T07:38:51Z</time>
      </trkpt>
      <trkpt lat="38.1626010" lon="-3.8833080">
        <ele>424.6</ele>
        <time>2018-04-28T07:38:52Z</time>
      </trkpt>
      <trkpt lat="38.1625940" lon="-3.8833480">
        <ele>424.6</ele>
        <time>2018-04-28T07:38:53Z</time>
      </trkpt>
      <trkpt lat="38.1625870" lon="-3.8833890">
        <ele>424.8</ele>
        <time>2018-04-28T07:38:54Z</time>
      </trkpt>
      <trkpt lat="38.1625790" lon="-3.8834300">
        <ele>424.8</ele>
        <time>2018-04-28T07:38:55Z</time>
      </trkpt>
      <trkpt lat="38.1625690" lon="-3.8834710">
        <ele>424.8</ele>
        <time>2018-04-28T07:38:56Z</time>
      </trkpt>
      <trkpt lat="38.1625620" lon="-3.8835150">
        <ele>425.0</ele>
        <time>2018-04-28T07:38:57Z</time>
      </trkpt>
      <trkpt lat="38.1625580" lon="-3.8835540">
        <ele>425.0</ele>
        <time>2018-04-28T07:38:58Z</time>
      </trkpt>
      <trkpt lat="38.1625450" lon="-3.8836330">
        <ele>425.0</ele>
        <time>2018-04-28T07:39:00Z</time>
      </trkpt>
      <trkpt lat="38.1625380" lon="-3.8836720">
        <ele>425.2</ele>
        <time>2018-04-28T07:39:01Z</time>
      </trkpt>
      <trkpt lat="38.1625280" lon="-3.8837100">
        <ele>425.0</ele>
        <time>2018-04-28T07:39:02Z</time>
      </trkpt>
      <trkpt lat="38.1625190" lon="-3.8837510">
        <ele>425.2</ele>
        <time>2018-04-28T07:39:03Z</time>
      </trkpt>
      <trkpt lat="38.1625070" lon="-3.8837900">
        <ele>425.0</ele>
        <time>2018-04-28T07:39:04Z</time>
      </trkpt>
      <trkpt lat="38.1624910" lon="-3.8838280">
        <ele>425.2</ele>
        <time>2018-04-28T07:39:05Z</time>
      </trkpt>
      <trkpt lat="38.1624680" lon="-3.8838600">
        <ele>425.2</ele>
        <time>2018-04-28T07:39:06Z</time>
      </trkpt>
      <trkpt lat="38.1624380" lon="-3.8838930">
        <ele>425.0</ele>
        <time>2018-04-28T07:39:07Z</time>
      </trkpt>
      <trkpt lat="38.1624040" lon="-3.8839160">
        <ele>425.2</ele>
        <time>2018-04-28T07:39:08Z</time>
      </trkpt>
      <trkpt lat="38.1623700" lon="-3.8839430">
        <ele>425.0</ele>
        <time>2018-04-28T07:39:09Z</time>
      </trkpt>
      <trkpt lat="38.1623370" lon="-3.8839700">
        <ele>425.0</ele>
        <time>2018-04-28T07:39:10Z</time>
      </trkpt>
      <trkpt lat="38.1623020" lon="-3.8839940">
        <ele>425.0</ele>
        <time>2018-04-28T07:39:11Z</time>
      </trkpt>
      <trkpt lat="38.1622660" lon="-3.8840190">
        <ele>425.0</ele>
        <time>2018-04-28T07:39:12Z</time>
      </trkpt>
      <trkpt lat="38.1622320" lon="-3.8840530">
        <ele>424.8</ele>
        <time>2018-04-28T07:39:13Z</time>
      </trkpt>
      <trkpt lat="38.1621940" lon="-3.8840840">
        <ele>424.6</ele>
        <time>2018-04-28T07:39:14Z</time>
      </trkpt>
      <trkpt lat="38.1621520" lon="-3.8841090">
        <ele>424.4</ele>
        <time>2018-04-28T07:39:15Z</time>
      </trkpt>
      <trkpt lat="38.1621050" lon="-3.8841280">
        <ele>424.2</ele>
        <time>2018-04-28T07:39:16Z</time>
      </trkpt>
      <trkpt lat="38.1620540" lon="-3.8841450">
        <ele>424.2</ele>
        <time>2018-04-28T07:39:18Z</time>
      </trkpt>
      <trkpt lat="38.1620010" lon="-3.8841570">
        <ele>424.0</ele>
        <time>2018-04-28T07:39:19Z</time>
      </trkpt>
      <trkpt lat="38.1619470" lon="-3.8841690">
        <ele>423.8</ele>
        <time>2018-04-28T07:39:20Z</time>
      </trkpt>
      <trkpt lat="38.1618360" lon="-3.8841840">
        <ele>423.6</ele>
        <time>2018-04-28T07:39:21Z</time>
      </trkpt>
      <trkpt lat="38.1617770" lon="-3.8841870">
        <ele>423.6</ele>
        <time>2018-04-28T07:39:22Z</time>
      </trkpt>
      <trkpt lat="38.1617210" lon="-3.8842040">
        <ele>423.4</ele>
        <time>2018-04-28T07:39:23Z</time>
      </trkpt>
      <trkpt lat="38.1616700" lon="-3.8842410">
        <ele>423.2</ele>
        <time>2018-04-28T07:39:24Z</time>
      </trkpt>
      <trkpt lat="38.1616290" lon="-3.8842900">
        <ele>423.2</ele>
        <time>2018-04-28T07:39:25Z</time>
      </trkpt>
      <trkpt lat="38.1615990" lon="-3.8843550">
        <ele>422.8</ele>
        <time>2018-04-28T07:39:26Z</time>
      </trkpt>
      <trkpt lat="38.1615810" lon="-3.8844280">
        <ele>422.8</ele>
        <time>2018-04-28T07:39:27Z</time>
      </trkpt>
      <trkpt lat="38.1615740" lon="-3.8845080">
        <ele>422.6</ele>
        <time>2018-04-28T07:39:28Z</time>
      </trkpt>
      <trkpt lat="38.1615750" lon="-3.8845890">
        <ele>422.4</ele>
        <time>2018-04-28T07:39:29Z</time>
      </trkpt>
      <trkpt lat="38.1615760" lon="-3.8846690">
        <ele>422.4</ele>
        <time>2018-04-28T07:39:30Z</time>
      </trkpt>
      <trkpt lat="38.1615770" lon="-3.8847490">
        <ele>422.4</ele>
        <time>2018-04-28T07:39:31Z</time>
      </trkpt>
      <trkpt lat="38.1615760" lon="-3.8848290">
        <ele>422.4</ele>
        <time>2018-04-28T07:39:32Z</time>
      </trkpt>
      <trkpt lat="38.1615770" lon="-3.8849060">
        <ele>422.4</ele>
        <time>2018-04-28T07:39:33Z</time>
      </trkpt>
      <trkpt lat="38.1615800" lon="-3.8849810">
        <ele>422.4</ele>
        <time>2018-04-28T07:39:34Z</time>
      </trkpt>
      <trkpt lat="38.1615810" lon="-3.8850580">
        <ele>422.4</ele>
        <time>2018-04-28T07:39:35Z</time>
      </trkpt>
      <trkpt lat="38.1615860" lon="-3.8851360">
        <ele>422.4</ele>
        <time>2018-04-28T07:39:36Z</time>
      </trkpt>
      <trkpt lat="38.1615920" lon="-3.8852120">
        <ele>422.4</ele>
        <time>2018-04-28T07:39:37Z</time>
      </trkpt>
      <trkpt lat="38.1616000" lon="-3.8852850">
        <ele>422.4</ele>
        <time>2018-04-28T07:39:38Z</time>
      </trkpt>
      <trkpt lat="38.1616100" lon="-3.8853600">
        <ele>422.4</ele>
        <time>2018-04-28T07:39:39Z</time>
      </trkpt>
      <trkpt lat="38.1616220" lon="-3.8854350">
        <ele>422.4</ele>
        <time>2018-04-28T07:39:40Z</time>
      </trkpt>
      <trkpt lat="38.1616360" lon="-3.8855080">
        <ele>422.4</ele>
        <time>2018-04-28T07:39:41Z</time>
      </trkpt>
      <trkpt lat="38.1616460" lon="-3.8855800">
        <ele>422.4</ele>
        <time>2018-04-28T07:39:42Z</time>
      </trkpt>
      <trkpt lat="38.1616510" lon="-3.8856540">
        <ele>422.4</ele>
        <time>2018-04-28T07:39:43Z</time>
      </trkpt>
      <trkpt lat="38.1616430" lon="-3.8857260">
        <ele>422.2</ele>
        <time>2018-04-28T07:39:44Z</time>
      </trkpt>
      <trkpt lat="38.1616230" lon="-3.8857970">
        <ele>422.0</ele>
        <time>2018-04-28T07:39:45Z</time>
      </trkpt>
      <trkpt lat="38.1615930" lon="-3.8858660">
        <ele>421.8</ele>
        <time>2018-04-28T07:39:46Z</time>
      </trkpt>
      <trkpt lat="38.1615610" lon="-3.8859310">
        <ele>421.8</ele>
        <time>2018-04-28T07:39:47Z</time>
      </trkpt>
      <trkpt lat="38.1615250" lon="-3.8859940">
        <ele>421.6</ele>
        <time>2018-04-28T07:39:48Z</time>
      </trkpt>
      <trkpt lat="38.1614860" lon="-3.8860570">
        <ele>421.8</ele>
        <time>2018-04-28T07:39:49Z</time>
      </trkpt>
      <trkpt lat="38.1614490" lon="-3.8861120">
        <ele>421.8</ele>
        <time>2018-04-28T07:39:50Z</time>
      </trkpt>
      <trkpt lat="38.1614060" lon="-3.8861650">
        <ele>421.8</ele>
        <time>2018-04-28T07:39:51Z</time>
      </trkpt>
      <trkpt lat="38.1613610" lon="-3.8862090">
        <ele>421.8</ele>
        <time>2018-04-28T07:39:52Z</time>
      </trkpt>
      <trkpt lat="38.1613140" lon="-3.8862520">
        <ele>422.0</ele>
        <time>2018-04-28T07:39:53Z</time>
      </trkpt>
      <trkpt lat="38.1612670" lon="-3.8862890">
        <ele>422.2</ele>
        <time>2018-04-28T07:39:54Z</time>
      </trkpt>
      <trkpt lat="38.1612220" lon="-3.8863240">
        <ele>422.2</ele>
        <time>2018-04-28T07:39:56Z</time>
      </trkpt>
      <trkpt lat="38.1611770" lon="-3.8863560">
        <ele>422.4</ele>
        <time>2018-04-28T07:39:57Z</time>
      </trkpt>
      <trkpt lat="38.1611340" lon="-3.8863910">
        <ele>422.8</ele>
        <time>2018-04-28T07:39:58Z</time>
      </trkpt>
      <trkpt lat="38.1610980" lon="-3.8864260">
        <ele>423.0</ele>
        <time>2018-04-28T07:39:59Z</time>
      </trkpt>
      <trkpt lat="38.1610660" lon="-3.8864610">
        <ele>423.4</ele>
        <time>2018-04-28T07:40:00Z</time>
      </trkpt>
      <trkpt lat="38.1610380" lon="-3.8864920">
        <ele>423.6</ele>
        <time>2018-04-28T07:40:01Z</time>
      </trkpt>
      <trkpt lat="38.1610130" lon="-3.8865310">
        <ele>424.0</ele>
        <time>2018-04-28T07:40:02Z</time>
      </trkpt>
      <trkpt lat="38.1609950" lon="-3.8865660">
        <ele>424.2</ele>
        <time>2018-04-28T07:40:03Z</time>
      </trkpt>
      <trkpt lat="38.1609780" lon="-3.8865980">
        <ele>424.4</ele>
        <time>2018-04-28T07:40:04Z</time>
      </trkpt>
      <trkpt lat="38.1609470" lon="-3.8866660">
        <ele>425.0</ele>
        <time>2018-04-28T07:40:05Z</time>
      </trkpt>
      <trkpt lat="38.1609350" lon="-3.8867000">
        <ele>425.2</ele>
        <time>2018-04-28T07:40:06Z</time>
      </trkpt>
      <trkpt lat="38.1609240" lon="-3.8867270">
        <ele>425.4</ele>
        <time>2018-04-28T07:40:07Z</time>
      </trkpt>
      <trkpt lat="38.1609130" lon="-3.8867540">
        <ele>425.8</ele>
        <time>2018-04-28T07:40:09Z</time>
      </trkpt>
      <trkpt lat="38.1609000" lon="-3.8867800">
        <ele>426.0</ele>
        <time>2018-04-28T07:40:10Z</time>
      </trkpt>
      <trkpt lat="38.1608830" lon="-3.8868050">
        <ele>426.2</ele>
        <time>2018-04-28T07:40:11Z</time>
      </trkpt>
      <trkpt lat="38.1608670" lon="-3.8868280">
        <ele>426.4</ele>
        <time>2018-04-28T07:40:12Z</time>
      </trkpt>
      <trkpt lat="38.1608520" lon="-3.8868540">
        <ele>426.6</ele>
        <time>2018-04-28T07:40:13Z</time>
      </trkpt>
      <trkpt lat="38.1608370" lon="-3.8868800">
        <ele>426.8</ele>
        <time>2018-04-28T07:40:14Z</time>
      </trkpt>
      <trkpt lat="38.1608240" lon="-3.8869080">
        <ele>427.0</ele>
        <time>2018-04-28T07:40:15Z</time>
      </trkpt>
      <trkpt lat="38.1608100" lon="-3.8869340">
        <ele>427.4</ele>
        <time>2018-04-28T07:40:16Z</time>
      </trkpt>
      <trkpt lat="38.1607780" lon="-3.8869850">
        <ele>427.6</ele>
        <time>2018-04-28T07:40:17Z</time>
      </trkpt>
      <trkpt lat="38.1607600" lon="-3.8870080">
        <ele>427.8</ele>
        <time>2018-04-28T07:40:18Z</time>
      </trkpt>
      <trkpt lat="38.1607430" lon="-3.8870270">
        <ele>428.0</ele>
        <time>2018-04-28T07:40:19Z</time>
      </trkpt>
      <trkpt lat="38.1607260" lon="-3.8870510">
        <ele>428.2</ele>
        <time>2018-04-28T07:40:20Z</time>
      </trkpt>
      <trkpt lat="38.1607110" lon="-3.8870740">
        <ele>428.4</ele>
        <time>2018-04-28T07:40:21Z</time>
      </trkpt>
      <trkpt lat="38.1606970" lon="-3.8870940">
        <ele>428.6</ele>
        <time>2018-04-28T07:40:22Z</time>
      </trkpt>
      <trkpt lat="38.1606800" lon="-3.8871130">
        <ele>429.0</ele>
        <time>2018-04-28T07:40:23Z</time>
      </trkpt>
      <trkpt lat="38.1606630" lon="-3.8871330">
        <ele>429.2</ele>
        <time>2018-04-28T07:40:24Z</time>
      </trkpt>
      <trkpt lat="38.1606440" lon="-3.8871500">
        <ele>429.4</ele>
        <time>2018-04-28T07:40:25Z</time>
      </trkpt>
      <trkpt lat="38.1606260" lon="-3.8871650">
        <ele>429.6</ele>
        <time>2018-04-28T07:40:26Z</time>
      </trkpt>
      <trkpt lat="38.1606040" lon="-3.8871750">
        <ele>429.8</ele>
        <time>2018-04-28T07:40:27Z</time>
      </trkpt>
      <trkpt lat="38.1605830" lon="-3.8871890">
        <ele>430.2</ele>
        <time>2018-04-28T07:40:29Z</time>
      </trkpt>
      <trkpt lat="38.1605640" lon="-3.8872040">
        <ele>430.4</ele>
        <time>2018-04-28T07:40:30Z</time>
      </trkpt>
      <trkpt lat="38.1605470" lon="-3.8872240">
        <ele>430.6</ele>
        <time>2018-04-28T07:40:31Z</time>
      </trkpt>
      <trkpt lat="38.1605290" lon="-3.8872400">
        <ele>430.8</ele>
        <time>2018-04-28T07:40:32Z</time>
      </trkpt>
      <trkpt lat="38.1605130" lon="-3.8872590">
        <ele>431.0</ele>
        <time>2018-04-28T07:40:33Z</time>
      </trkpt>
      <trkpt lat="38.1605010" lon="-3.8872810">
        <ele>431.4</ele>
        <time>2018-04-28T07:40:34Z</time>
      </trkpt>
      <trkpt lat="38.1604900" lon="-3.8873030">
        <ele>431.6</ele>
        <time>2018-04-28T07:40:35Z</time>
      </trkpt>
      <trkpt lat="38.1604770" lon="-3.8873490">
        <ele>431.8</ele>
        <time>2018-04-28T07:40:36Z</time>
      </trkpt>
      <trkpt lat="38.1604740" lon="-3.8873750">
        <ele>432.0</ele>
        <time>2018-04-28T07:40:37Z</time>
      </trkpt>
      <trkpt lat="38.1604700" lon="-3.8874010">
        <ele>432.0</ele>
        <time>2018-04-28T07:40:38Z</time>
      </trkpt>
      <trkpt lat="38.1604680" lon="-3.8874290">
        <ele>432.2</ele>
        <time>2018-04-28T07:40:39Z</time>
      </trkpt>
      <trkpt lat="38.1604670" lon="-3.8874570">
        <ele>432.2</ele>
        <time>2018-04-28T07:40:40Z</time>
      </trkpt>
      <trkpt lat="38.1604670" lon="-3.8874820">
        <ele>432.4</ele>
        <time>2018-04-28T07:40:41Z</time>
      </trkpt>
      <trkpt lat="38.1604690" lon="-3.8875040">
        <ele>432.6</ele>
        <time>2018-04-28T07:40:42Z</time>
      </trkpt>
      <trkpt lat="38.1604720" lon="-3.8875290">
        <ele>432.6</ele>
        <time>2018-04-28T07:40:44Z</time>
      </trkpt>
      <trkpt lat="38.1604760" lon="-3.8875510">
        <ele>432.8</ele>
        <time>2018-04-28T07:40:45Z</time>
      </trkpt>
      <trkpt lat="38.1604760" lon="-3.8875740">
        <ele>433.0</ele>
        <time>2018-04-28T07:40:46Z</time>
      </trkpt>
      <trkpt lat="38.1604760" lon="-3.8875990">
        <ele>433.2</ele>
        <time>2018-04-28T07:40:47Z</time>
      </trkpt>
      <trkpt lat="38.1604740" lon="-3.8876230">
        <ele>433.4</ele>
        <time>2018-04-28T07:40:48Z</time>
      </trkpt>
      <trkpt lat="38.1604710" lon="-3.8876470">
        <ele>433.4</ele>
        <time>2018-04-28T07:40:49Z</time>
      </trkpt>
      <trkpt lat="38.1604670" lon="-3.8876720">
        <ele>433.6</ele>
        <time>2018-04-28T07:40:50Z</time>
      </trkpt>
      <trkpt lat="38.1604620" lon="-3.8876970">
        <ele>433.8</ele>
        <time>2018-04-28T07:40:51Z</time>
      </trkpt>
      <trkpt lat="38.1604560" lon="-3.8877200">
        <ele>434.0</ele>
        <time>2018-04-28T07:40:52Z</time>
      </trkpt>
      <trkpt lat="38.1604550" lon="-3.8877430">
        <ele>434.2</ele>
        <time>2018-04-28T07:40:53Z</time>
      </trkpt>
      <trkpt lat="38.1604510" lon="-3.8877640">
        <ele>434.4</ele>
        <time>2018-04-28T07:40:54Z</time>
      </trkpt>
      <trkpt lat="38.1604380" lon="-3.8877860">
        <ele>434.4</ele>
        <time>2018-04-28T07:40:55Z</time>
      </trkpt>
      <trkpt lat="38.1604280" lon="-3.8878070">
        <ele>434.6</ele>
        <time>2018-04-28T07:40:56Z</time>
      </trkpt>
      <trkpt lat="38.1604160" lon="-3.8878300">
        <ele>434.8</ele>
        <time>2018-04-28T07:40:57Z</time>
      </trkpt>
      <trkpt lat="38.1604040" lon="-3.8878520">
        <ele>435.0</ele>
        <time>2018-04-28T07:40:58Z</time>
      </trkpt>
      <trkpt lat="38.1603790" lon="-3.8878890">
        <ele>435.2</ele>
        <time>2018-04-28T07:40:59Z</time>
      </trkpt>
      <trkpt lat="38.1603690" lon="-3.8879100">
        <ele>435.4</ele>
        <time>2018-04-28T07:41:00Z</time>
      </trkpt>
      <trkpt lat="38.1603600" lon="-3.8879320">
        <ele>435.6</ele>
        <time>2018-04-28T07:41:01Z</time>
      </trkpt>
      <trkpt lat="38.1603550" lon="-3.8879520">
        <ele>435.6</ele>
        <time>2018-04-28T07:41:02Z</time>
      </trkpt>
      <trkpt lat="38.1603500" lon="-3.8879730">
        <ele>435.8</ele>
        <time>2018-04-28T07:41:03Z</time>
      </trkpt>
      <trkpt lat="38.1603430" lon="-3.8879980">
        <ele>436.0</ele>
        <time>2018-04-28T07:41:04Z</time>
      </trkpt>
      <trkpt lat="38.1603390" lon="-3.8880230">
        <ele>436.2</ele>
        <time>2018-04-28T07:41:05Z</time>
      </trkpt>
      <trkpt lat="38.1603360" lon="-3.8880460">
        <ele>436.2</ele>
        <time>2018-04-28T07:41:06Z</time>
      </trkpt>
      <trkpt lat="38.1603330" lon="-3.8880700">
        <ele>436.4</ele>
        <time>2018-04-28T07:41:07Z</time>
      </trkpt>
      <trkpt lat="38.1603290" lon="-3.8880900">
        <ele>436.6</ele>
        <time>2018-04-28T07:41:09Z</time>
      </trkpt>
      <trkpt lat="38.1603260" lon="-3.8881130">
        <ele>436.8</ele>
        <time>2018-04-28T07:41:10Z</time>
      </trkpt>
      <trkpt lat="38.1603230" lon="-3.8881350">
        <ele>437.0</ele>
        <time>2018-04-28T07:41:11Z</time>
      </trkpt>
      <trkpt lat="38.1603220" lon="-3.8881590">
        <ele>437.0</ele>
        <time>2018-04-28T07:41:12Z</time>
      </trkpt>
      <trkpt lat="38.1603210" lon="-3.8881820">
        <ele>437.2</ele>
        <time>2018-04-28T07:41:13Z</time>
      </trkpt>
      <trkpt lat="38.1603220" lon="-3.8882060">
        <ele>437.4</ele>
        <time>2018-04-28T07:41:14Z</time>
      </trkpt>
      <trkpt lat="38.1603210" lon="-3.8882300">
        <ele>437.6</ele>
        <time>2018-04-28T07:41:15Z</time>
      </trkpt>
      <trkpt lat="38.1603200" lon="-3.8882530">
        <ele>437.8</ele>
        <time>2018-04-28T07:41:16Z</time>
      </trkpt>
      <trkpt lat="38.1603210" lon="-3.8882770">
        <ele>437.8</ele>
        <time>2018-04-28T07:41:17Z</time>
      </trkpt>
      <trkpt lat="38.1603210" lon="-3.8883020">
        <ele>438.0</ele>
        <time>2018-04-28T07:41:18Z</time>
      </trkpt>
      <trkpt lat="38.1603200" lon="-3.8883250">
        <ele>438.2</ele>
        <time>2018-04-28T07:41:19Z</time>
      </trkpt>
      <trkpt lat="38.1603150" lon="-3.8883550">
        <ele>438.4</ele>
        <time>2018-04-28T07:41:20Z</time>
      </trkpt>
      <trkpt lat="38.1603120" lon="-3.8883790">
        <ele>438.6</ele>
        <time>2018-04-28T07:41:21Z</time>
      </trkpt>
      <trkpt lat="38.1603110" lon="-3.8884060">
        <ele>438.6</ele>
        <time>2018-04-28T07:41:22Z</time>
      </trkpt>
      <trkpt lat="38.1603120" lon="-3.8884310">
        <ele>438.8</ele>
        <time>2018-04-28T07:41:23Z</time>
      </trkpt>
      <trkpt lat="38.1603140" lon="-3.8884790">
        <ele>439.2</ele>
        <time>2018-04-28T07:41:24Z</time>
      </trkpt>
      <trkpt lat="38.1603150" lon="-3.8885010">
        <ele>439.4</ele>
        <time>2018-04-28T07:41:25Z</time>
      </trkpt>
      <trkpt lat="38.1603140" lon="-3.8885240">
        <ele>439.6</ele>
        <time>2018-04-28T07:41:26Z</time>
      </trkpt>
      <trkpt lat="38.1603130" lon="-3.8885460">
        <ele>439.8</ele>
        <time>2018-04-28T07:41:28Z</time>
      </trkpt>
      <trkpt lat="38.1603150" lon="-3.8885690">
        <ele>440.0</ele>
        <time>2018-04-28T07:41:29Z</time>
      </trkpt>
      <trkpt lat="38.1603170" lon="-3.8885900">
        <ele>440.2</ele>
        <time>2018-04-28T07:41:30Z</time>
      </trkpt>
      <trkpt lat="38.1603190" lon="-3.8886120">
        <ele>440.4</ele>
        <time>2018-04-28T07:41:31Z</time>
      </trkpt>
      <trkpt lat="38.1603210" lon="-3.8886360">
        <ele>440.4</ele>
        <time>2018-04-28T07:41:32Z</time>
      </trkpt>
      <trkpt lat="38.1603230" lon="-3.8886590">
        <ele>440.6</ele>
        <time>2018-04-28T07:41:33Z</time>
      </trkpt>
      <trkpt lat="38.1603230" lon="-3.8886840">
        <ele>440.8</ele>
        <time>2018-04-28T07:41:34Z</time>
      </trkpt>
      <trkpt lat="38.1603230" lon="-3.8887090">
        <ele>441.0</ele>
        <time>2018-04-28T07:41:35Z</time>
      </trkpt>
      <trkpt lat="38.1603250" lon="-3.8887330">
        <ele>441.2</ele>
        <time>2018-04-28T07:41:36Z</time>
      </trkpt>
      <trkpt lat="38.1603240" lon="-3.8887560">
        <ele>441.2</ele>
        <time>2018-04-28T07:41:37Z</time>
      </trkpt>
      <trkpt lat="38.1603280" lon="-3.8887810">
        <ele>441.4</ele>
        <time>2018-04-28T07:41:38Z</time>
      </trkpt>
      <trkpt lat="38.1603290" lon="-3.8888050">
        <ele>441.6</ele>
        <time>2018-04-28T07:41:39Z</time>
      </trkpt>
      <trkpt lat="38.1603290" lon="-3.8888280">
        <ele>441.8</ele>
        <time>2018-04-28T07:41:40Z</time>
      </trkpt>
      <trkpt lat="38.1603320" lon="-3.8888760">
        <ele>442.2</ele>
        <time>2018-04-28T07:41:41Z</time>
      </trkpt>
      <trkpt lat="38.1603330" lon="-3.8888990">
        <ele>442.4</ele>
        <time>2018-04-28T07:41:42Z</time>
      </trkpt>
      <trkpt lat="38.1603350" lon="-3.8889230">
        <ele>442.6</ele>
        <time>2018-04-28T07:41:43Z</time>
      </trkpt>
      <trkpt lat="38.1603340" lon="-3.8889490">
        <ele>442.8</ele>
        <time>2018-04-28T07:41:44Z</time>
      </trkpt>
      <trkpt lat="38.1603320" lon="-3.8889750">
        <ele>443.0</ele>
        <time>2018-04-28T07:41:45Z</time>
      </trkpt>
      <trkpt lat="38.1603270" lon="-3.8889970">
        <ele>443.2</ele>
        <time>2018-04-28T07:41:46Z</time>
      </trkpt>
      <trkpt lat="38.1603210" lon="-3.8890180">
        <ele>443.4</ele>
        <time>2018-04-28T07:41:47Z</time>
      </trkpt>
      <trkpt lat="38.1603140" lon="-3.8890410">
        <ele>443.6</ele>
        <time>2018-04-28T07:41:48Z</time>
      </trkpt>
      <trkpt lat="38.1603090" lon="-3.8890610">
        <ele>443.8</ele>
        <time>2018-04-28T07:41:49Z</time>
      </trkpt>
      <trkpt lat="38.1603030" lon="-3.8890810">
        <ele>444.0</ele>
        <time>2018-04-28T07:41:50Z</time>
      </trkpt>
      <trkpt lat="38.1602970" lon="-3.8890990">
        <ele>444.0</ele>
        <time>2018-04-28T07:41:52Z</time>
      </trkpt>
      <trkpt lat="38.1602880" lon="-3.8891170">
        <ele>444.2</ele>
        <time>2018-04-28T07:41:53Z</time>
      </trkpt>
      <trkpt lat="38.1602770" lon="-3.8891370">
        <ele>444.2</ele>
        <time>2018-04-28T07:41:54Z</time>
      </trkpt>
      <trkpt lat="38.1602670" lon="-3.8891570">
        <ele>444.2</ele>
        <time>2018-04-28T07:41:55Z</time>
      </trkpt>
      <trkpt lat="38.1602590" lon="-3.8891770">
        <ele>444.4</ele>
        <time>2018-04-28T07:41:56Z</time>
      </trkpt>
      <trkpt lat="38.1602480" lon="-3.8891950">
        <ele>444.6</ele>
        <time>2018-04-28T07:41:57Z</time>
      </trkpt>
      <trkpt lat="38.1602360" lon="-3.8892130">
        <ele>444.8</ele>
        <time>2018-04-28T07:41:58Z</time>
      </trkpt>
      <trkpt lat="38.1602270" lon="-3.8892310">
        <ele>444.8</ele>
        <time>2018-04-28T07:41:59Z</time>
      </trkpt>
      <trkpt lat="38.1602170" lon="-3.8892510">
        <ele>445.0</ele>
        <time>2018-04-28T07:42:00Z</time>
      </trkpt>
      <trkpt lat="38.1602070" lon="-3.8892690">
        <ele>445.2</ele>
        <time>2018-04-28T07:42:01Z</time>
      </trkpt>
      <trkpt lat="38.1601960" lon="-3.8892850">
        <ele>445.4</ele>
        <time>2018-04-28T07:42:02Z</time>
      </trkpt>
      <trkpt lat="38.1601850" lon="-3.8893030">
        <ele>445.6</ele>
        <time>2018-04-28T07:42:03Z</time>
      </trkpt>
      <trkpt lat="38.1601750" lon="-3.8893220">
        <ele>445.8</ele>
        <time>2018-04-28T07:42:04Z</time>
      </trkpt>
      <trkpt lat="38.1601650" lon="-3.8893410">
        <ele>446.0</ele>
        <time>2018-04-28T07:42:05Z</time>
      </trkpt>
      <trkpt lat="38.1601570" lon="-3.8893610">
        <ele>446.2</ele>
        <time>2018-04-28T07:42:06Z</time>
      </trkpt>
      <trkpt lat="38.1601490" lon="-3.8893820">
        <ele>446.4</ele>
        <time>2018-04-28T07:42:07Z</time>
      </trkpt>
      <trkpt lat="38.1601420" lon="-3.8894030">
        <ele>446.6</ele>
        <time>2018-04-28T07:42:08Z</time>
      </trkpt>
      <trkpt lat="38.1601350" lon="-3.8894240">
        <ele>446.6</ele>
        <time>2018-04-28T07:42:09Z</time>
      </trkpt>
      <trkpt lat="38.1601280" lon="-3.8894450">
        <ele>447.0</ele>
        <time>2018-04-28T07:42:10Z</time>
      </trkpt>
      <trkpt lat="38.1601190" lon="-3.8894900">
        <ele>447.2</ele>
        <time>2018-04-28T07:42:11Z</time>
      </trkpt>
      <trkpt lat="38.1601150" lon="-3.8895120">
        <ele>447.4</ele>
        <time>2018-04-28T07:42:12Z</time>
      </trkpt>
      <trkpt lat="38.1601100" lon="-3.8895360">
        <ele>447.4</ele>
        <time>2018-04-28T07:42:13Z</time>
      </trkpt>
      <trkpt lat="38.1601050" lon="-3.8895590">
        <ele>447.6</ele>
        <time>2018-04-28T07:42:14Z</time>
      </trkpt>
      <trkpt lat="38.1601010" lon="-3.8895800">
        <ele>447.6</ele>
        <time>2018-04-28T07:42:15Z</time>
      </trkpt>
      <trkpt lat="38.1600950" lon="-3.8896020">
        <ele>447.8</ele>
        <time>2018-04-28T07:42:16Z</time>
      </trkpt>
      <trkpt lat="38.1600900" lon="-3.8896250">
        <ele>448.0</ele>
        <time>2018-04-28T07:42:17Z</time>
      </trkpt>
      <trkpt lat="38.1600900" lon="-3.8896470">
        <ele>448.2</ele>
        <time>2018-04-28T07:42:18Z</time>
      </trkpt>
      <trkpt lat="38.1600870" lon="-3.8896700">
        <ele>448.4</ele>
        <time>2018-04-28T07:42:19Z</time>
      </trkpt>
      <trkpt lat="38.1600830" lon="-3.8896930">
        <ele>448.4</ele>
        <time>2018-04-28T07:42:20Z</time>
      </trkpt>
      <trkpt lat="38.1600780" lon="-3.8897150">
        <ele>448.6</ele>
        <time>2018-04-28T07:42:21Z</time>
      </trkpt>
      <trkpt lat="38.1600740" lon="-3.8897370">
        <ele>448.6</ele>
        <time>2018-04-28T07:42:22Z</time>
      </trkpt>
      <trkpt lat="38.1600720" lon="-3.8897580">
        <ele>448.8</ele>
        <time>2018-04-28T07:42:23Z</time>
      </trkpt>
      <trkpt lat="38.1600700" lon="-3.8897790">
        <ele>449.0</ele>
        <time>2018-04-28T07:42:24Z</time>
      </trkpt>
      <trkpt lat="38.1600690" lon="-3.8897960">
        <ele>449.0</ele>
        <time>2018-04-28T07:42:25Z</time>
      </trkpt>
      <trkpt lat="38.1600690" lon="-3.8898120">
        <ele>449.2</ele>
        <time>2018-04-28T07:42:26Z</time>
      </trkpt>
      <trkpt lat="38.1600690" lon="-3.8898300">
        <ele>449.2</ele>
        <time>2018-04-28T07:42:27Z</time>
      </trkpt>
      <trkpt lat="38.1600660" lon="-3.8898490">
        <ele>449.4</ele>
        <time>2018-04-28T07:42:28Z</time>
      </trkpt>
      <trkpt lat="38.1600640" lon="-3.8898660">
        <ele>449.4</ele>
        <time>2018-04-28T07:42:29Z</time>
      </trkpt>
      <trkpt lat="38.1600600" lon="-3.8898820">
        <ele>449.6</ele>
        <time>2018-04-28T07:42:30Z</time>
      </trkpt>
      <trkpt lat="38.1600560" lon="-3.8898960">
        <ele>449.6</ele>
        <time>2018-04-28T07:42:31Z</time>
      </trkpt>
      <trkpt lat="38.1600510" lon="-3.8899090">
        <ele>449.8</ele>
        <time>2018-04-28T07:42:32Z</time>
      </trkpt>
      <trkpt lat="38.1600480" lon="-3.8899270">
        <ele>449.8</ele>
        <time>2018-04-28T07:42:33Z</time>
      </trkpt>
      <trkpt lat="38.1600440" lon="-3.8899480">
        <ele>450.0</ele>
        <time>2018-04-28T07:42:34Z</time>
      </trkpt>
      <trkpt lat="38.1600400" lon="-3.8899690">
        <ele>450.2</ele>
        <time>2018-04-28T07:42:36Z</time>
      </trkpt>
      <trkpt lat="38.1600370" lon="-3.8899890">
        <ele>450.2</ele>
        <time>2018-04-28T07:42:37Z</time>
      </trkpt>
      <trkpt lat="38.1600320" lon="-3.8900100">
        <ele>450.4</ele>
        <time>2018-04-28T07:42:38Z</time>
      </trkpt>
      <trkpt lat="38.1600260" lon="-3.8900300">
        <ele>450.4</ele>
        <time>2018-04-28T07:42:39Z</time>
      </trkpt>
      <trkpt lat="38.1600190" lon="-3.8900500">
        <ele>450.4</ele>
        <time>2018-04-28T07:42:40Z</time>
      </trkpt>
      <trkpt lat="38.1600130" lon="-3.8900710">
        <ele>450.6</ele>
        <time>2018-04-28T07:42:41Z</time>
      </trkpt>
      <trkpt lat="38.1600110" lon="-3.8900930">
        <ele>450.8</ele>
        <time>2018-04-28T07:42:42Z</time>
      </trkpt>
      <trkpt lat="38.1600110" lon="-3.8901160">
        <ele>450.8</ele>
        <time>2018-04-28T07:42:43Z</time>
      </trkpt>
      <trkpt lat="38.1600130" lon="-3.8901390">
        <ele>451.0</ele>
        <time>2018-04-28T07:42:44Z</time>
      </trkpt>
      <trkpt lat="38.1600130" lon="-3.8901610">
        <ele>451.2</ele>
        <time>2018-04-28T07:42:45Z</time>
      </trkpt>
      <trkpt lat="38.1600090" lon="-3.8901830">
        <ele>451.2</ele>
        <time>2018-04-28T07:42:46Z</time>
      </trkpt>
      <trkpt lat="38.1600070" lon="-3.8902030">
        <ele>451.4</ele>
        <time>2018-04-28T07:42:47Z</time>
      </trkpt>
      <trkpt lat="38.1600050" lon="-3.8902240">
        <ele>451.6</ele>
        <time>2018-04-28T07:42:48Z</time>
      </trkpt>
      <trkpt lat="38.1600070" lon="-3.8902460">
        <ele>451.6</ele>
        <time>2018-04-28T07:42:49Z</time>
      </trkpt>
      <trkpt lat="38.1600070" lon="-3.8902680">
        <ele>451.8</ele>
        <time>2018-04-28T07:42:50Z</time>
      </trkpt>
      <trkpt lat="38.1600040" lon="-3.8902920">
        <ele>451.8</ele>
        <time>2018-04-28T07:42:51Z</time>
      </trkpt>
      <trkpt lat="38.1599980" lon="-3.8903120">
        <ele>452.0</ele>
        <time>2018-04-28T07:42:52Z</time>
      </trkpt>
      <trkpt lat="38.1599920" lon="-3.8903320">
        <ele>452.0</ele>
        <time>2018-04-28T07:42:53Z</time>
      </trkpt>
      <trkpt lat="38.1599880" lon="-3.8903530">
        <ele>452.2</ele>
        <time>2018-04-28T07:42:54Z</time>
      </trkpt>
      <trkpt lat="38.1599860" lon="-3.8903750">
        <ele>452.4</ele>
        <time>2018-04-28T07:42:55Z</time>
      </trkpt>
      <trkpt lat="38.1599850" lon="-3.8903970">
        <ele>452.4</ele>
        <time>2018-04-28T07:42:56Z</time>
      </trkpt>
      <trkpt lat="38.1599820" lon="-3.8904190">
        <ele>452.6</ele>
        <time>2018-04-28T07:42:57Z</time>
      </trkpt>
      <trkpt lat="38.1599780" lon="-3.8904410">
        <ele>452.8</ele>
        <time>2018-04-28T07:42:58Z</time>
      </trkpt>
      <trkpt lat="38.1599730" lon="-3.8904610">
        <ele>452.8</ele>
        <time>2018-04-28T07:42:59Z</time>
      </trkpt>
      <trkpt lat="38.1599680" lon="-3.8904800">
        <ele>453.0</ele>
        <time>2018-04-28T07:43:00Z</time>
      </trkpt>
      <trkpt lat="38.1599630" lon="-3.8905000">
        <ele>453.0</ele>
        <time>2018-04-28T07:43:01Z</time>
      </trkpt>
      <trkpt lat="38.1599580" lon="-3.8905220">
        <ele>453.2</ele>
        <time>2018-04-28T07:43:02Z</time>
      </trkpt>
      <trkpt lat="38.1599550" lon="-3.8905430">
        <ele>453.2</ele>
        <time>2018-04-28T07:43:03Z</time>
      </trkpt>
      <trkpt lat="38.1599520" lon="-3.8905650">
        <ele>453.4</ele>
        <time>2018-04-28T07:43:04Z</time>
      </trkpt>
      <trkpt lat="38.1599500" lon="-3.8905870">
        <ele>453.4</ele>
        <time>2018-04-28T07:43:05Z</time>
      </trkpt>
      <trkpt lat="38.1599450" lon="-3.8906320">
        <ele>453.4</ele>
        <time>2018-04-28T07:43:07Z</time>
      </trkpt>
      <trkpt lat="38.1599410" lon="-3.8906550">
        <ele>453.6</ele>
        <time>2018-04-28T07:43:08Z</time>
      </trkpt>
      <trkpt lat="38.1599390" lon="-3.8906780">
        <ele>453.6</ele>
        <time>2018-04-28T07:43:09Z</time>
      </trkpt>
      <trkpt lat="38.1599390" lon="-3.8907000">
        <ele>453.6</ele>
        <time>2018-04-28T07:43:10Z</time>
      </trkpt>
      <trkpt lat="38.1599370" lon="-3.8907240">
        <ele>453.6</ele>
        <time>2018-04-28T07:43:11Z</time>
      </trkpt>
      <trkpt lat="38.1599330" lon="-3.8907490">
        <ele>453.4</ele>
        <time>2018-04-28T07:43:12Z</time>
      </trkpt>
      <trkpt lat="38.1599290" lon="-3.8907760">
        <ele>453.4</ele>
        <time>2018-04-28T07:43:13Z</time>
      </trkpt>
      <trkpt lat="38.1599250" lon="-3.8908070">
        <ele>453.4</ele>
        <time>2018-04-28T07:43:14Z</time>
      </trkpt>
      <trkpt lat="38.1599220" lon="-3.8908450">
        <ele>453.4</ele>
        <time>2018-04-28T07:43:15Z</time>
      </trkpt>
      <trkpt lat="38.1599200" lon="-3.8908820">
        <ele>453.2</ele>
        <time>2018-04-28T07:43:16Z</time>
      </trkpt>
      <trkpt lat="38.1599180" lon="-3.8909230">
        <ele>453.2</ele>
        <time>2018-04-28T07:43:17Z</time>
      </trkpt>
      <trkpt lat="38.1599130" lon="-3.8909670">
        <ele>453.2</ele>
        <time>2018-04-28T07:43:18Z</time>
      </trkpt>
      <trkpt lat="38.1599080" lon="-3.8910130">
        <ele>453.2</ele>
        <time>2018-04-28T07:43:19Z</time>
      </trkpt>
      <trkpt lat="38.1599010" lon="-3.8910610">
        <ele>453.0</ele>
        <time>2018-04-28T07:43:20Z</time>
      </trkpt>
      <trkpt lat="38.1598960" lon="-3.8911110">
        <ele>453.0</ele>
        <time>2018-04-28T07:43:21Z</time>
      </trkpt>
      <trkpt lat="38.1598920" lon="-3.8911640">
        <ele>453.0</ele>
        <time>2018-04-28T07:43:22Z</time>
      </trkpt>
      <trkpt lat="38.1598870" lon="-3.8912160">
        <ele>453.0</ele>
        <time>2018-04-28T07:43:23Z</time>
      </trkpt>
      <trkpt lat="38.1598800" lon="-3.8912690">
        <ele>453.0</ele>
        <time>2018-04-28T07:43:24Z</time>
      </trkpt>
      <trkpt lat="38.1598760" lon="-3.8913220">
        <ele>453.0</ele>
        <time>2018-04-28T07:43:25Z</time>
      </trkpt>
      <trkpt lat="38.1598740" lon="-3.8913750">
        <ele>453.0</ele>
        <time>2018-04-28T07:43:26Z</time>
      </trkpt>
      <trkpt lat="38.1598710" lon="-3.8914280">
        <ele>453.0</ele>
        <time>2018-04-28T07:43:27Z</time>
      </trkpt>
      <trkpt lat="38.1598680" lon="-3.8914820">
        <ele>453.0</ele>
        <time>2018-04-28T07:43:28Z</time>
      </trkpt>
      <trkpt lat="38.1598670" lon="-3.8915380">
        <ele>452.8</ele>
        <time>2018-04-28T07:43:29Z</time>
      </trkpt>
      <trkpt lat="38.1598670" lon="-3.8915930">
        <ele>452.8</ele>
        <time>2018-04-28T07:43:30Z</time>
      </trkpt>
      <trkpt lat="38.1598650" lon="-3.8916510">
        <ele>452.6</ele>
        <time>2018-04-28T07:43:31Z</time>
      </trkpt>
      <trkpt lat="38.1598630" lon="-3.8917090">
        <ele>452.6</ele>
        <time>2018-04-28T07:43:32Z</time>
      </trkpt>
      <trkpt lat="38.1598620" lon="-3.8917630">
        <ele>452.6</ele>
        <time>2018-04-28T07:43:33Z</time>
      </trkpt>
      <trkpt lat="38.1598640" lon="-3.8918130">
        <ele>452.6</ele>
        <time>2018-04-28T07:43:34Z</time>
      </trkpt>
      <trkpt lat="38.1598650" lon="-3.8918610">
        <ele>452.6</ele>
        <time>2018-04-28T07:43:35Z</time>
      </trkpt>
      <trkpt lat="38.1598640" lon="-3.8919110">
        <ele>452.6</ele>
        <time>2018-04-28T07:43:36Z</time>
      </trkpt>
      <trkpt lat="38.1598590" lon="-3.8919610">
        <ele>452.6</ele>
        <time>2018-04-28T07:43:37Z</time>
      </trkpt>
      <trkpt lat="38.1598550" lon="-3.8920040">
        <ele>452.8</ele>
        <time>2018-04-28T07:43:38Z</time>
      </trkpt>
      <trkpt lat="38.1598560" lon="-3.8920460">
        <ele>452.8</ele>
        <time>2018-04-28T07:43:39Z</time>
      </trkpt>
      <trkpt lat="38.1598580" lon="-3.8920860">
        <ele>453.0</ele>
        <time>2018-04-28T07:43:40Z</time>
      </trkpt>
      <trkpt lat="38.1598560" lon="-3.8921260">
        <ele>453.0</ele>
        <time>2018-04-28T07:43:41Z</time>
      </trkpt>
      <trkpt lat="38.1598510" lon="-3.8921640">
        <ele>453.0</ele>
        <time>2018-04-28T07:43:42Z</time>
      </trkpt>
      <trkpt lat="38.1598460" lon="-3.8922030">
        <ele>453.2</ele>
        <time>2018-04-28T07:43:43Z</time>
      </trkpt>
      <trkpt lat="38.1598440" lon="-3.8922370">
        <ele>453.4</ele>
        <time>2018-04-28T07:43:44Z</time>
      </trkpt>
      <trkpt lat="38.1598420" lon="-3.8922710">
        <ele>453.6</ele>
        <time>2018-04-28T07:43:45Z</time>
      </trkpt>
      <trkpt lat="38.1598430" lon="-3.8923030">
        <ele>453.8</ele>
        <time>2018-04-28T07:43:46Z</time>
      </trkpt>
      <trkpt lat="38.1598440" lon="-3.8923360">
        <ele>453.8</ele>
        <time>2018-04-28T07:43:47Z</time>
      </trkpt>
      <trkpt lat="38.1598420" lon="-3.8923680">
        <ele>454.0</ele>
        <time>2018-04-28T07:43:48Z</time>
      </trkpt>
      <trkpt lat="38.1598370" lon="-3.8923980">
        <ele>454.2</ele>
        <time>2018-04-28T07:43:49Z</time>
      </trkpt>
      <trkpt lat="38.1598290" lon="-3.8924240">
        <ele>454.4</ele>
        <time>2018-04-28T07:43:50Z</time>
      </trkpt>
      <trkpt lat="38.1598220" lon="-3.8924500">
        <ele>454.6</ele>
        <time>2018-04-28T07:43:51Z</time>
      </trkpt>
      <trkpt lat="38.1598160" lon="-3.8924750">
        <ele>454.6</ele>
        <time>2018-04-28T07:43:52Z</time>
      </trkpt>
      <trkpt lat="38.1598130" lon="-3.8925010">
        <ele>454.8</ele>
        <time>2018-04-28T07:43:53Z</time>
      </trkpt>
      <trkpt lat="38.1598120" lon="-3.8925290">
        <ele>455.0</ele>
        <time>2018-04-28T07:43:54Z</time>
      </trkpt>
      <trkpt lat="38.1598100" lon="-3.8925560">
        <ele>455.2</ele>
        <time>2018-04-28T07:43:55Z</time>
      </trkpt>
      <trkpt lat="38.1598090" lon="-3.8925880">
        <ele>455.4</ele>
        <time>2018-04-28T07:43:56Z</time>
      </trkpt>
      <trkpt lat="38.1598080" lon="-3.8926170">
        <ele>455.6</ele>
        <time>2018-04-28T07:43:57Z</time>
      </trkpt>
      <trkpt lat="38.1598090" lon="-3.8926450">
        <ele>455.8</ele>
        <time>2018-04-28T07:43:58Z</time>
      </trkpt>
      <trkpt lat="38.1598100" lon="-3.8926720">
        <ele>456.0</ele>
        <time>2018-04-28T07:43:59Z</time>
      </trkpt>
      <trkpt lat="38.1598120" lon="-3.8926990">
        <ele>456.0</ele>
        <time>2018-04-28T07:44:00Z</time>
      </trkpt>
      <trkpt lat="38.1598140" lon="-3.8927270">
        <ele>456.2</ele>
        <time>2018-04-28T07:44:01Z</time>
      </trkpt>
      <trkpt lat="38.1598150" lon="-3.8927530">
        <ele>456.4</ele>
        <time>2018-04-28T07:44:02Z</time>
      </trkpt>
      <trkpt lat="38.1598150" lon="-3.8927800">
        <ele>456.4</ele>
        <time>2018-04-28T07:44:03Z</time>
      </trkpt>
      <trkpt lat="38.1598140" lon="-3.8928070">
        <ele>456.6</ele>
        <time>2018-04-28T07:44:04Z</time>
      </trkpt>
      <trkpt lat="38.1598140" lon="-3.8928350">
        <ele>456.8</ele>
        <time>2018-04-28T07:44:05Z</time>
      </trkpt>
      <trkpt lat="38.1598140" lon="-3.8928620">
        <ele>456.8</ele>
        <time>2018-04-28T07:44:06Z</time>
      </trkpt>
      <trkpt lat="38.1598140" lon="-3.8928890">
        <ele>457.0</ele>
        <time>2018-04-28T07:44:07Z</time>
      </trkpt>
      <trkpt lat="38.1598120" lon="-3.8929170">
        <ele>457.4</ele>
        <time>2018-04-28T07:44:08Z</time>
      </trkpt>
      <trkpt lat="38.1598110" lon="-3.8929430">
        <ele>457.6</ele>
        <time>2018-04-28T07:44:09Z</time>
      </trkpt>
      <trkpt lat="38.1598110" lon="-3.8929690">
        <ele>457.6</ele>
        <time>2018-04-28T07:44:10Z</time>
      </trkpt>
      <trkpt lat="38.1598130" lon="-3.8929950">
        <ele>457.8</ele>
        <time>2018-04-28T07:44:11Z</time>
      </trkpt>
      <trkpt lat="38.1598170" lon="-3.8930210">
        <ele>457.8</ele>
        <time>2018-04-28T07:44:12Z</time>
      </trkpt>
      <trkpt lat="38.1598210" lon="-3.8930490">
        <ele>458.0</ele>
        <time>2018-04-28T07:44:13Z</time>
      </trkpt>
      <trkpt lat="38.1598260" lon="-3.8930740">
        <ele>458.2</ele>
        <time>2018-04-28T07:44:14Z</time>
      </trkpt>
      <trkpt lat="38.1598330" lon="-3.8931000">
        <ele>458.4</ele>
        <time>2018-04-28T07:44:15Z</time>
      </trkpt>
      <trkpt lat="38.1598400" lon="-3.8931260">
        <ele>458.6</ele>
        <time>2018-04-28T07:44:16Z</time>
      </trkpt>
      <trkpt lat="38.1598430" lon="-3.8931510">
        <ele>458.6</ele>
        <time>2018-04-28T07:44:17Z</time>
      </trkpt>
      <trkpt lat="38.1598450" lon="-3.8931760">
        <ele>459.0</ele>
        <time>2018-04-28T07:44:18Z</time>
      </trkpt>
      <trkpt lat="38.1598490" lon="-3.8932020">
        <ele>459.0</ele>
        <time>2018-04-28T07:44:19Z</time>
      </trkpt>
      <trkpt lat="38.1598520" lon="-3.8932280">
        <ele>459.2</ele>
        <time>2018-04-28T07:44:20Z</time>
      </trkpt>
      <trkpt lat="38.1598560" lon="-3.8932530">
        <ele>459.4</ele>
        <time>2018-04-28T07:44:21Z</time>
      </trkpt>
      <trkpt lat="38.1598580" lon="-3.8932790">
        <ele>459.6</ele>
        <time>2018-04-28T07:44:22Z</time>
      </trkpt>
      <trkpt lat="38.1598640" lon="-3.8933030">
        <ele>459.6</ele>
        <time>2018-04-28T07:44:23Z</time>
      </trkpt>
      <trkpt lat="38.1598710" lon="-3.8933280">
        <ele>459.8</ele>
        <time>2018-04-28T07:44:24Z</time>
      </trkpt>
      <trkpt lat="38.1598780" lon="-3.8933530">
        <ele>460.0</ele>
        <time>2018-04-28T07:44:25Z</time>
      </trkpt>
      <trkpt lat="38.1598840" lon="-3.8933800">
        <ele>460.2</ele>
        <time>2018-04-28T07:44:26Z</time>
      </trkpt>
      <trkpt lat="38.1598910" lon="-3.8934040">
        <ele>460.4</ele>
        <time>2018-04-28T07:44:27Z</time>
      </trkpt>
      <trkpt lat="38.1599010" lon="-3.8934280">
        <ele>460.6</ele>
        <time>2018-04-28T07:44:28Z</time>
      </trkpt>
      <trkpt lat="38.1599100" lon="-3.8934510">
        <ele>460.6</ele>
        <time>2018-04-28T07:44:29Z</time>
      </trkpt>
      <trkpt lat="38.1599170" lon="-3.8934730">
        <ele>460.8</ele>
        <time>2018-04-28T07:44:30Z</time>
      </trkpt>
      <trkpt lat="38.1599260" lon="-3.8934960">
        <ele>461.0</ele>
        <time>2018-04-28T07:44:31Z</time>
      </trkpt>
      <trkpt lat="38.1599350" lon="-3.8935210">
        <ele>461.2</ele>
        <time>2018-04-28T07:44:32Z</time>
      </trkpt>
      <trkpt lat="38.1599440" lon="-3.8935440">
        <ele>461.4</ele>
        <time>2018-04-28T07:44:33Z</time>
      </trkpt>
      <trkpt lat="38.1599530" lon="-3.8935690">
        <ele>461.4</ele>
        <time>2018-04-28T07:44:34Z</time>
      </trkpt>
      <trkpt lat="38.1599590" lon="-3.8935960">
        <ele>461.6</ele>
        <time>2018-04-28T07:44:35Z</time>
      </trkpt>
      <trkpt lat="38.1599680" lon="-3.8936190">
        <ele>461.8</ele>
        <time>2018-04-28T07:44:36Z</time>
      </trkpt>
      <trkpt lat="38.1599770" lon="-3.8936410">
        <ele>462.0</ele>
        <time>2018-04-28T07:44:37Z</time>
      </trkpt>
      <trkpt lat="38.1599850" lon="-3.8936640">
        <ele>462.2</ele>
        <time>2018-04-28T07:44:38Z</time>
      </trkpt>
      <trkpt lat="38.1599930" lon="-3.8936870">
        <ele>462.2</ele>
        <time>2018-04-28T07:44:39Z</time>
      </trkpt>
      <trkpt lat="38.1600000" lon="-3.8937120">
        <ele>462.6</ele>
        <time>2018-04-28T07:44:40Z</time>
      </trkpt>
      <trkpt lat="38.1600070" lon="-3.8937380">
        <ele>462.6</ele>
        <time>2018-04-28T07:44:41Z</time>
      </trkpt>
      <trkpt lat="38.1600120" lon="-3.8937630">
        <ele>462.8</ele>
        <time>2018-04-28T07:44:42Z</time>
      </trkpt>
      <trkpt lat="38.1600180" lon="-3.8937880">
        <ele>463.0</ele>
        <time>2018-04-28T07:44:43Z</time>
      </trkpt>
      <trkpt lat="38.1600220" lon="-3.8938130">
        <ele>463.2</ele>
        <time>2018-04-28T07:44:44Z</time>
      </trkpt>
      <trkpt lat="38.1600250" lon="-3.8938390">
        <ele>463.2</ele>
        <time>2018-04-28T07:44:45Z</time>
      </trkpt>
      <trkpt lat="38.1600310" lon="-3.8938640">
        <ele>463.6</ele>
        <time>2018-04-28T07:44:46Z</time>
      </trkpt>
      <trkpt lat="38.1600380" lon="-3.8938880">
        <ele>463.6</ele>
        <time>2018-04-28T07:44:47Z</time>
      </trkpt>
      <trkpt lat="38.1600450" lon="-3.8939110">
        <ele>463.6</ele>
        <time>2018-04-28T07:44:48Z</time>
      </trkpt>
      <trkpt lat="38.1600500" lon="-3.8939360">
        <ele>463.8</ele>
        <time>2018-04-28T07:44:49Z</time>
      </trkpt>
      <trkpt lat="38.1600570" lon="-3.8939600">
        <ele>464.0</ele>
        <time>2018-04-28T07:44:50Z</time>
      </trkpt>
      <trkpt lat="38.1600670" lon="-3.8939820">
        <ele>464.0</ele>
        <time>2018-04-28T07:44:51Z</time>
      </trkpt>
      <trkpt lat="38.1600760" lon="-3.8940060">
        <ele>464.2</ele>
        <time>2018-04-28T07:44:52Z</time>
      </trkpt>
      <trkpt lat="38.1600830" lon="-3.8940300">
        <ele>464.4</ele>
        <time>2018-04-28T07:44:53Z</time>
      </trkpt>
      <trkpt lat="38.1600870" lon="-3.8940550">
        <ele>464.6</ele>
        <time>2018-04-28T07:44:54Z</time>
      </trkpt>
      <trkpt lat="38.1600950" lon="-3.8940820">
        <ele>464.8</ele>
        <time>2018-04-28T07:44:55Z</time>
      </trkpt>
      <trkpt lat="38.1600980" lon="-3.8941070">
        <ele>465.0</ele>
        <time>2018-04-28T07:44:56Z</time>
      </trkpt>
      <trkpt lat="38.1601000" lon="-3.8941310">
        <ele>465.0</ele>
        <time>2018-04-28T07:44:57Z</time>
      </trkpt>
      <trkpt lat="38.1601050" lon="-3.8941560">
        <ele>465.2</ele>
        <time>2018-04-28T07:44:58Z</time>
      </trkpt>
      <trkpt lat="38.1601120" lon="-3.8941790">
        <ele>465.4</ele>
        <time>2018-04-28T07:44:59Z</time>
      </trkpt>
      <trkpt lat="38.1601170" lon="-3.8942030">
        <ele>465.6</ele>
        <time>2018-04-28T07:45:00Z</time>
      </trkpt>
      <trkpt lat="38.1601210" lon="-3.8942270">
        <ele>465.6</ele>
        <time>2018-04-28T07:45:01Z</time>
      </trkpt>
      <trkpt lat="38.1601250" lon="-3.8942520">
        <ele>465.8</ele>
        <time>2018-04-28T07:45:02Z</time>
      </trkpt>
      <trkpt lat="38.1601280" lon="-3.8942770">
        <ele>466.0</ele>
        <time>2018-04-28T07:45:03Z</time>
      </trkpt>
      <trkpt lat="38.1601310" lon="-3.8943020">
        <ele>466.2</ele>
        <time>2018-04-28T07:45:04Z</time>
      </trkpt>
      <trkpt lat="38.1601330" lon="-3.8943270">
        <ele>466.4</ele>
        <time>2018-04-28T07:45:05Z</time>
      </trkpt>
      <trkpt lat="38.1601340" lon="-3.8943510">
        <ele>466.6</ele>
        <time>2018-04-28T07:45:06Z</time>
      </trkpt>
      <trkpt lat="38.1601350" lon="-3.8943760">
        <ele>466.8</ele>
        <time>2018-04-28T07:45:07Z</time>
      </trkpt>
      <trkpt lat="38.1601320" lon="-3.8944000">
        <ele>467.0</ele>
        <time>2018-04-28T07:45:08Z</time>
      </trkpt>
      <trkpt lat="38.1601300" lon="-3.8944230">
        <ele>467.2</ele>
        <time>2018-04-28T07:45:09Z</time>
      </trkpt>
      <trkpt lat="38.1601270" lon="-3.8944500">
        <ele>467.4</ele>
        <time>2018-04-28T07:45:10Z</time>
      </trkpt>
      <trkpt lat="38.1601260" lon="-3.8944750">
        <ele>467.6</ele>
        <time>2018-04-28T07:45:11Z</time>
      </trkpt>
      <trkpt lat="38.1601260" lon="-3.8945030">
        <ele>467.8</ele>
        <time>2018-04-28T07:45:12Z</time>
      </trkpt>
      <trkpt lat="38.1601250" lon="-3.8945270">
        <ele>467.8</ele>
        <time>2018-04-28T07:45:13Z</time>
      </trkpt>
      <trkpt lat="38.1601180" lon="-3.8945480">
        <ele>467.8</ele>
        <time>2018-04-28T07:45:14Z</time>
      </trkpt>
      <trkpt lat="38.1601120" lon="-3.8945690">
        <ele>468.0</ele>
        <time>2018-04-28T07:45:15Z</time>
      </trkpt>
      <trkpt lat="38.1601020" lon="-3.8945880">
        <ele>468.0</ele>
        <time>2018-04-28T07:45:16Z</time>
      </trkpt>
      <trkpt lat="38.1600910" lon="-3.8946060">
        <ele>468.2</ele>
        <time>2018-04-28T07:45:17Z</time>
      </trkpt>
      <trkpt lat="38.1600810" lon="-3.8946300">
        <ele>468.4</ele>
        <time>2018-04-28T07:45:18Z</time>
      </trkpt>
      <trkpt lat="38.1600730" lon="-3.8946470">
        <ele>468.4</ele>
        <time>2018-04-28T07:45:19Z</time>
      </trkpt>
      <trkpt lat="38.1600620" lon="-3.8946670">
        <ele>468.6</ele>
        <time>2018-04-28T07:45:20Z</time>
      </trkpt>
      <trkpt lat="38.1600510" lon="-3.8946860">
        <ele>468.8</ele>
        <time>2018-04-28T07:45:21Z</time>
      </trkpt>
      <trkpt lat="38.1600420" lon="-3.8947060">
        <ele>468.8</ele>
        <time>2018-04-28T07:45:22Z</time>
      </trkpt>
      <trkpt lat="38.1600290" lon="-3.8947240">
        <ele>469.0</ele>
        <time>2018-04-28T07:45:23Z</time>
      </trkpt>
      <trkpt lat="38.1600190" lon="-3.8947440">
        <ele>469.0</ele>
        <time>2018-04-28T07:45:24Z</time>
      </trkpt>
      <trkpt lat="38.1600090" lon="-3.8947630">
        <ele>469.2</ele>
        <time>2018-04-28T07:45:25Z</time>
      </trkpt>
      <trkpt lat="38.1599980" lon="-3.8947810">
        <ele>469.2</ele>
        <time>2018-04-28T07:45:26Z</time>
      </trkpt>
      <trkpt lat="38.1599870" lon="-3.8947970">
        <ele>469.4</ele>
        <time>2018-04-28T07:45:27Z</time>
      </trkpt>
      <trkpt lat="38.1599760" lon="-3.8948130">
        <ele>469.6</ele>
        <time>2018-04-28T07:45:28Z</time>
      </trkpt>
      <trkpt lat="38.1599710" lon="-3.8948370">
        <ele>469.8</ele>
        <time>2018-04-28T07:45:29Z</time>
      </trkpt>
      <trkpt lat="38.1599620" lon="-3.8948560">
        <ele>469.8</ele>
        <time>2018-04-28T07:45:30Z</time>
      </trkpt>
      <trkpt lat="38.1599520" lon="-3.8948750">
        <ele>469.8</ele>
        <time>2018-04-28T07:45:31Z</time>
      </trkpt>
      <trkpt lat="38.1599410" lon="-3.8948980">
        <ele>470.0</ele>
        <time>2018-04-28T07:45:32Z</time>
      </trkpt>
      <trkpt lat="38.1599330" lon="-3.8949200">
        <ele>470.2</ele>
        <time>2018-04-28T07:45:33Z</time>
      </trkpt>
      <trkpt lat="38.1599290" lon="-3.8949410">
        <ele>470.4</ele>
        <time>2018-04-28T07:45:34Z</time>
      </trkpt>
      <trkpt lat="38.1599250" lon="-3.8949640">
        <ele>470.6</ele>
        <time>2018-04-28T07:45:35Z</time>
      </trkpt>
      <trkpt lat="38.1599220" lon="-3.8949850">
        <ele>470.6</ele>
        <time>2018-04-28T07:45:36Z</time>
      </trkpt>
      <trkpt lat="38.1599180" lon="-3.8950060">
        <ele>470.8</ele>
        <time>2018-04-28T07:45:37Z</time>
      </trkpt>
      <trkpt lat="38.1599130" lon="-3.8950270">
        <ele>471.0</ele>
        <time>2018-04-28T07:45:38Z</time>
      </trkpt>
      <trkpt lat="38.1599100" lon="-3.8950480">
        <ele>471.2</ele>
        <time>2018-04-28T07:45:39Z</time>
      </trkpt>
      <trkpt lat="38.1599090" lon="-3.8950700">
        <ele>471.2</ele>
        <time>2018-04-28T07:45:40Z</time>
      </trkpt>
      <trkpt lat="38.1599090" lon="-3.8950920">
        <ele>471.4</ele>
        <time>2018-04-28T07:45:41Z</time>
      </trkpt>
      <trkpt lat="38.1599090" lon="-3.8951120">
        <ele>471.4</ele>
        <time>2018-04-28T07:45:42Z</time>
      </trkpt>
      <trkpt lat="38.1599070" lon="-3.8951320">
        <ele>471.6</ele>
        <time>2018-04-28T07:45:43Z</time>
      </trkpt>
      <trkpt lat="38.1599070" lon="-3.8951530">
        <ele>471.8</ele>
        <time>2018-04-28T07:45:44Z</time>
      </trkpt>
      <trkpt lat="38.1599060" lon="-3.8951740">
        <ele>471.8</ele>
        <time>2018-04-28T07:45:45Z</time>
      </trkpt>
      <trkpt lat="38.1599050" lon="-3.8951950">
        <ele>472.0</ele>
        <time>2018-04-28T07:45:46Z</time>
      </trkpt>
      <trkpt lat="38.1599050" lon="-3.8952170">
        <ele>472.2</ele>
        <time>2018-04-28T07:45:47Z</time>
      </trkpt>
      <trkpt lat="38.1599070" lon="-3.8952390">
        <ele>472.2</ele>
        <time>2018-04-28T07:45:48Z</time>
      </trkpt>
      <trkpt lat="38.1599080" lon="-3.8952590">
        <ele>472.4</ele>
        <time>2018-04-28T07:45:49Z</time>
      </trkpt>
      <trkpt lat="38.1599110" lon="-3.8952800">
        <ele>472.4</ele>
        <time>2018-04-28T07:45:50Z</time>
      </trkpt>
      <trkpt lat="38.1599150" lon="-3.8953000">
        <ele>472.6</ele>
        <time>2018-04-28T07:45:51Z</time>
      </trkpt>
      <trkpt lat="38.1599150" lon="-3.8953200">
        <ele>472.8</ele>
        <time>2018-04-28T07:45:52Z</time>
      </trkpt>
      <trkpt lat="38.1599150" lon="-3.8953400">
        <ele>472.8</ele>
        <time>2018-04-28T07:45:53Z</time>
      </trkpt>
      <trkpt lat="38.1599200" lon="-3.8953630">
        <ele>473.0</ele>
        <time>2018-04-28T07:45:54Z</time>
      </trkpt>
      <trkpt lat="38.1599260" lon="-3.8953830">
        <ele>473.0</ele>
        <time>2018-04-28T07:45:55Z</time>
      </trkpt>
      <trkpt lat="38.1599320" lon="-3.8954020">
        <ele>473.2</ele>
        <time>2018-04-28T07:45:56Z</time>
      </trkpt>
      <trkpt lat="38.1599390" lon="-3.8954230">
        <ele>473.2</ele>
        <time>2018-04-28T07:45:57Z</time>
      </trkpt>
      <trkpt lat="38.1599470" lon="-3.8954420">
        <ele>473.4</ele>
        <time>2018-04-28T07:45:58Z</time>
      </trkpt>
      <trkpt lat="38.1599560" lon="-3.8954620">
        <ele>473.4</ele>
        <time>2018-04-28T07:45:59Z</time>
      </trkpt>
      <trkpt lat="38.1599670" lon="-3.8954740">
        <ele>473.6</ele>
        <time>2018-04-28T07:46:00Z</time>
      </trkpt>
      <trkpt lat="38.1599770" lon="-3.8954880">
        <ele>473.8</ele>
        <time>2018-04-28T07:46:01Z</time>
      </trkpt>
      <trkpt lat="38.1599870" lon="-3.8955050">
        <ele>473.8</ele>
        <time>2018-04-28T07:46:02Z</time>
      </trkpt>
      <trkpt lat="38.1599990" lon="-3.8955200">
        <ele>474.0</ele>
        <time>2018-04-28T07:46:03Z</time>
      </trkpt>
      <trkpt lat="38.1600100" lon="-3.8955360">
        <ele>474.0</ele>
        <time>2018-04-28T07:46:04Z</time>
      </trkpt>
      <trkpt lat="38.1600210" lon="-3.8955510">
        <ele>474.2</ele>
        <time>2018-04-28T07:46:05Z</time>
      </trkpt>
      <trkpt lat="38.1600330" lon="-3.8955670">
        <ele>474.4</ele>
        <time>2018-04-28T07:46:06Z</time>
      </trkpt>
      <trkpt lat="38.1600460" lon="-3.8955820">
        <ele>474.4</ele>
        <time>2018-04-28T07:46:07Z</time>
      </trkpt>
      <trkpt lat="38.1600590" lon="-3.8955980">
        <ele>474.6</ele>
        <time>2018-04-28T07:46:08Z</time>
      </trkpt>
      <trkpt lat="38.1600720" lon="-3.8956130">
        <ele>474.6</ele>
        <time>2018-04-28T07:46:09Z</time>
      </trkpt>
      <trkpt lat="38.1600860" lon="-3.8956260">
        <ele>474.8</ele>
        <time>2018-04-28T07:46:10Z</time>
      </trkpt>
      <trkpt lat="38.1600990" lon="-3.8956400">
        <ele>475.0</ele>
        <time>2018-04-28T07:46:11Z</time>
      </trkpt>
      <trkpt lat="38.1601110" lon="-3.8956560">
        <ele>475.0</ele>
        <time>2018-04-28T07:46:12Z</time>
      </trkpt>
      <trkpt lat="38.1601260" lon="-3.8956690">
        <ele>475.2</ele>
        <time>2018-04-28T07:46:13Z</time>
      </trkpt>
      <trkpt lat="38.1601410" lon="-3.8956790">
        <ele>475.4</ele>
        <time>2018-04-28T07:46:14Z</time>
      </trkpt>
      <trkpt lat="38.1601560" lon="-3.8956880">
        <ele>475.4</ele>
        <time>2018-04-28T07:46:15Z</time>
      </trkpt>
      <trkpt lat="38.1601710" lon="-3.8956970">
        <ele>475.6</ele>
        <time>2018-04-28T07:46:16Z</time>
      </trkpt>
      <trkpt lat="38.1601860" lon="-3.8957060">
        <ele>475.6</ele>
        <time>2018-04-28T07:46:17Z</time>
      </trkpt>
      <trkpt lat="38.1602020" lon="-3.8957140">
        <ele>475.8</ele>
        <time>2018-04-28T07:46:18Z</time>
      </trkpt>
      <trkpt lat="38.1602160" lon="-3.8957220">
        <ele>475.8</ele>
        <time>2018-04-28T07:46:19Z</time>
      </trkpt>
      <trkpt lat="38.1602300" lon="-3.8957330">
        <ele>476.0</ele>
        <time>2018-04-28T07:46:20Z</time>
      </trkpt>
      <trkpt lat="38.1602470" lon="-3.8957440">
        <ele>476.2</ele>
        <time>2018-04-28T07:46:21Z</time>
      </trkpt>
      <trkpt lat="38.1602600" lon="-3.8957560">
        <ele>476.2</ele>
        <time>2018-04-28T07:46:22Z</time>
      </trkpt>
      <trkpt lat="38.1602750" lon="-3.8957690">
        <ele>476.4</ele>
        <time>2018-04-28T07:46:23Z</time>
      </trkpt>
      <trkpt lat="38.1602900" lon="-3.8957800">
        <ele>476.4</ele>
        <time>2018-04-28T07:46:24Z</time>
      </trkpt>
      <trkpt lat="38.1603040" lon="-3.8957910">
        <ele>476.6</ele>
        <time>2018-04-28T07:46:25Z</time>
      </trkpt>
      <trkpt lat="38.1603170" lon="-3.8958040">
        <ele>476.8</ele>
        <time>2018-04-28T07:46:26Z</time>
      </trkpt>
      <trkpt lat="38.1603310" lon="-3.8958170">
        <ele>476.8</ele>
        <time>2018-04-28T07:46:27Z</time>
      </trkpt>
      <trkpt lat="38.1603430" lon="-3.8958310">
        <ele>477.0</ele>
        <time>2018-04-28T07:46:28Z</time>
      </trkpt>
      <trkpt lat="38.1603560" lon="-3.8958450">
        <ele>477.0</ele>
        <time>2018-04-28T07:46:29Z</time>
      </trkpt>
      <trkpt lat="38.1603680" lon="-3.8958580">
        <ele>477.2</ele>
        <time>2018-04-28T07:46:30Z</time>
      </trkpt>
      <trkpt lat="38.1603770" lon="-3.8958750">
        <ele>477.4</ele>
        <time>2018-04-28T07:46:31Z</time>
      </trkpt>
      <trkpt lat="38.1603820" lon="-3.8958960">
        <ele>477.4</ele>
        <time>2018-04-28T07:46:32Z</time>
      </trkpt>
      <trkpt lat="38.1603890" lon="-3.8959160">
        <ele>477.6</ele>
        <time>2018-04-28T07:46:33Z</time>
      </trkpt>
      <trkpt lat="38.1603960" lon="-3.8959340">
        <ele>477.8</ele>
        <time>2018-04-28T07:46:34Z</time>
      </trkpt>
      <trkpt lat="38.1604030" lon="-3.8959550">
        <ele>478.0</ele>
        <time>2018-04-28T07:46:35Z</time>
      </trkpt>
      <trkpt lat="38.1604080" lon="-3.8959750">
        <ele>478.0</ele>
        <time>2018-04-28T07:46:36Z</time>
      </trkpt>
      <trkpt lat="38.1604130" lon="-3.8959950">
        <ele>478.2</ele>
        <time>2018-04-28T07:46:37Z</time>
      </trkpt>
      <trkpt lat="38.1604170" lon="-3.8960150">
        <ele>478.4</ele>
        <time>2018-04-28T07:46:38Z</time>
      </trkpt>
      <trkpt lat="38.1604190" lon="-3.8960340">
        <ele>478.6</ele>
        <time>2018-04-28T07:46:39Z</time>
      </trkpt>
      <trkpt lat="38.1604150" lon="-3.8960630">
        <ele>478.6</ele>
        <time>2018-04-28T07:46:40Z</time>
      </trkpt>
      <trkpt lat="38.1604120" lon="-3.8960860">
        <ele>478.8</ele>
        <time>2018-04-28T07:46:41Z</time>
      </trkpt>
      <trkpt lat="38.1604090" lon="-3.8961060">
        <ele>478.8</ele>
        <time>2018-04-28T07:46:42Z</time>
      </trkpt>
      <trkpt lat="38.1604040" lon="-3.8961280">
        <ele>479.0</ele>
        <time>2018-04-28T07:46:43Z</time>
      </trkpt>
      <trkpt lat="38.1603990" lon="-3.8961480">
        <ele>479.2</ele>
        <time>2018-04-28T07:46:44Z</time>
      </trkpt>
      <trkpt lat="38.1603930" lon="-3.8961670">
        <ele>479.2</ele>
        <time>2018-04-28T07:46:45Z</time>
      </trkpt>
      <trkpt lat="38.1603870" lon="-3.8961850">
        <ele>479.2</ele>
        <time>2018-04-28T07:46:46Z</time>
      </trkpt>
      <trkpt lat="38.1603770" lon="-3.8961980">
        <ele>479.4</ele>
        <time>2018-04-28T07:46:47Z</time>
      </trkpt>
      <trkpt lat="38.1603680" lon="-3.8962140">
        <ele>479.4</ele>
        <time>2018-04-28T07:46:48Z</time>
      </trkpt>
      <trkpt lat="38.1603570" lon="-3.8962290">
        <ele>479.6</ele>
        <time>2018-04-28T07:46:49Z</time>
      </trkpt>
      <trkpt lat="38.1603420" lon="-3.8962380">
        <ele>479.8</ele>
        <time>2018-04-28T07:46:50Z</time>
      </trkpt>
      <trkpt lat="38.1603270" lon="-3.8962480">
        <ele>479.8</ele>
        <time>2018-04-28T07:46:51Z</time>
      </trkpt>
      <trkpt lat="38.1603110" lon="-3.8962620">
        <ele>479.8</ele>
        <time>2018-04-28T07:46:52Z</time>
      </trkpt>
      <trkpt lat="38.1602940" lon="-3.8962730">
        <ele>480.0</ele>
        <time>2018-04-28T07:46:53Z</time>
      </trkpt>
      <trkpt lat="38.1602760" lon="-3.8962790">
        <ele>480.0</ele>
        <time>2018-04-28T07:46:54Z</time>
      </trkpt>
      <trkpt lat="38.1602600" lon="-3.8962870">
        <ele>480.2</ele>
        <time>2018-04-28T07:46:55Z</time>
      </trkpt>
      <trkpt lat="38.1602450" lon="-3.8962980">
        <ele>480.2</ele>
        <time>2018-04-28T07:46:56Z</time>
      </trkpt>
      <trkpt lat="38.1602290" lon="-3.8963120">
        <ele>480.4</ele>
        <time>2018-04-28T07:46:57Z</time>
      </trkpt>
      <trkpt lat="38.1602130" lon="-3.8963210">
        <ele>480.6</ele>
        <time>2018-04-28T07:46:58Z</time>
      </trkpt>
      <trkpt lat="38.1601960" lon="-3.8963270">
        <ele>480.6</ele>
        <time>2018-04-28T07:46:59Z</time>
      </trkpt>
      <trkpt lat="38.1601790" lon="-3.8963300">
        <ele>480.8</ele>
        <time>2018-04-28T07:47:00Z</time>
      </trkpt>
      <trkpt lat="38.1601610" lon="-3.8963330">
        <ele>481.0</ele>
        <time>2018-04-28T07:47:01Z</time>
      </trkpt>
      <trkpt lat="38.1601440" lon="-3.8963400">
        <ele>481.0</ele>
        <time>2018-04-28T07:47:02Z</time>
      </trkpt>
      <trkpt lat="38.1601280" lon="-3.8963480">
        <ele>481.2</ele>
        <time>2018-04-28T07:47:03Z</time>
      </trkpt>
      <trkpt lat="38.1601140" lon="-3.8963580">
        <ele>481.4</ele>
        <time>2018-04-28T07:47:04Z</time>
      </trkpt>
      <trkpt lat="38.1601000" lon="-3.8963700">
        <ele>481.6</ele>
        <time>2018-04-28T07:47:05Z</time>
      </trkpt>
      <trkpt lat="38.1600850" lon="-3.8963790">
        <ele>481.6</ele>
        <time>2018-04-28T07:47:06Z</time>
      </trkpt>
      <trkpt lat="38.1600700" lon="-3.8963890">
        <ele>481.8</ele>
        <time>2018-04-28T07:47:07Z</time>
      </trkpt>
      <trkpt lat="38.1600550" lon="-3.8963980">
        <ele>482.0</ele>
        <time>2018-04-28T07:47:08Z</time>
      </trkpt>
      <trkpt lat="38.1600410" lon="-3.8964060">
        <ele>482.2</ele>
        <time>2018-04-28T07:47:09Z</time>
      </trkpt>
      <trkpt lat="38.1600240" lon="-3.8964110">
        <ele>482.2</ele>
        <time>2018-04-28T07:47:10Z</time>
      </trkpt>
      <trkpt lat="38.1600090" lon="-3.8964190">
        <ele>482.4</ele>
        <time>2018-04-28T07:47:11Z</time>
      </trkpt>
      <trkpt lat="38.1599970" lon="-3.8964280">
        <ele>482.6</ele>
        <time>2018-04-28T07:47:12Z</time>
      </trkpt>
      <trkpt lat="38.1599820" lon="-3.8964360">
        <ele>482.6</ele>
        <time>2018-04-28T07:47:13Z</time>
      </trkpt>
      <trkpt lat="38.1599690" lon="-3.8964480">
        <ele>482.8</ele>
        <time>2018-04-28T07:47:14Z</time>
      </trkpt>
      <trkpt lat="38.1599520" lon="-3.8964590">
        <ele>482.8</ele>
        <time>2018-04-28T07:47:15Z</time>
      </trkpt>
      <trkpt lat="38.1599390" lon="-3.8964710">
        <ele>483.0</ele>
        <time>2018-04-28T07:47:16Z</time>
      </trkpt>
      <trkpt lat="38.1599240" lon="-3.8964790">
        <ele>483.2</ele>
        <time>2018-04-28T07:47:17Z</time>
      </trkpt>
      <trkpt lat="38.1599100" lon="-3.8964920">
        <ele>483.2</ele>
        <time>2018-04-28T07:47:18Z</time>
      </trkpt>
      <trkpt lat="38.1598980" lon="-3.8965050">
        <ele>483.4</ele>
        <time>2018-04-28T07:47:19Z</time>
      </trkpt>
      <trkpt lat="38.1598870" lon="-3.8965260">
        <ele>483.6</ele>
        <time>2018-04-28T07:47:20Z</time>
      </trkpt>
      <trkpt lat="38.1598740" lon="-3.8965490">
        <ele>483.6</ele>
        <time>2018-04-28T07:47:21Z</time>
      </trkpt>
      <trkpt lat="38.1598620" lon="-3.8965640">
        <ele>483.8</ele>
        <time>2018-04-28T07:47:22Z</time>
      </trkpt>
      <trkpt lat="38.1598510" lon="-3.8965780">
        <ele>483.8</ele>
        <time>2018-04-28T07:47:23Z</time>
      </trkpt>
      <trkpt lat="38.1598410" lon="-3.8965930">
        <ele>484.0</ele>
        <time>2018-04-28T07:47:24Z</time>
      </trkpt>
      <trkpt lat="38.1598330" lon="-3.8966140">
        <ele>484.2</ele>
        <time>2018-04-28T07:47:25Z</time>
      </trkpt>
      <trkpt lat="38.1598240" lon="-3.8966320">
        <ele>484.4</ele>
        <time>2018-04-28T07:47:26Z</time>
      </trkpt>
      <trkpt lat="38.1598150" lon="-3.8966520">
        <ele>484.4</ele>
        <time>2018-04-28T07:47:27Z</time>
      </trkpt>
      <trkpt lat="38.1598070" lon="-3.8966730">
        <ele>484.6</ele>
        <time>2018-04-28T07:47:28Z</time>
      </trkpt>
      <trkpt lat="38.1597990" lon="-3.8966930">
        <ele>484.6</ele>
        <time>2018-04-28T07:47:29Z</time>
      </trkpt>
      <trkpt lat="38.1597920" lon="-3.8967140">
        <ele>484.8</ele>
        <time>2018-04-28T07:47:30Z</time>
      </trkpt>
      <trkpt lat="38.1597870" lon="-3.8967330">
        <ele>484.8</ele>
        <time>2018-04-28T07:47:31Z</time>
      </trkpt>
      <trkpt lat="38.1597860" lon="-3.8967540">
        <ele>485.0</ele>
        <time>2018-04-28T07:47:32Z</time>
      </trkpt>
      <trkpt lat="38.1597820" lon="-3.8967740">
        <ele>485.2</ele>
        <time>2018-04-28T07:47:33Z</time>
      </trkpt>
      <trkpt lat="38.1597730" lon="-3.8967920">
        <ele>485.2</ele>
        <time>2018-04-28T07:47:34Z</time>
      </trkpt>
      <trkpt lat="38.1597660" lon="-3.8968130">
        <ele>485.4</ele>
        <time>2018-04-28T07:47:35Z</time>
      </trkpt>
      <trkpt lat="38.1597560" lon="-3.8968310">
        <ele>485.4</ele>
        <time>2018-04-28T07:47:36Z</time>
      </trkpt>
      <trkpt lat="38.1597470" lon="-3.8968500">
        <ele>485.6</ele>
        <time>2018-04-28T07:47:37Z</time>
      </trkpt>
      <trkpt lat="38.1597380" lon="-3.8968680">
        <ele>485.6</ele>
        <time>2018-04-28T07:47:38Z</time>
      </trkpt>
      <trkpt lat="38.1597290" lon="-3.8968880">
        <ele>485.8</ele>
        <time>2018-04-28T07:47:39Z</time>
      </trkpt>
      <trkpt lat="38.1597210" lon="-3.8969080">
        <ele>485.8</ele>
        <time>2018-04-28T07:47:40Z</time>
      </trkpt>
      <trkpt lat="38.1597130" lon="-3.8969300">
        <ele>486.2</ele>
        <time>2018-04-28T07:47:41Z</time>
      </trkpt>
      <trkpt lat="38.1597040" lon="-3.8969500">
        <ele>486.2</ele>
        <time>2018-04-28T07:47:42Z</time>
      </trkpt>
      <trkpt lat="38.1596950" lon="-3.8969710">
        <ele>486.4</ele>
        <time>2018-04-28T07:47:43Z</time>
      </trkpt>
      <trkpt lat="38.1596850" lon="-3.8969910">
        <ele>486.4</ele>
        <time>2018-04-28T07:47:44Z</time>
      </trkpt>
      <trkpt lat="38.1596750" lon="-3.8970120">
        <ele>486.6</ele>
        <time>2018-04-28T07:47:45Z</time>
      </trkpt>
      <trkpt lat="38.1596670" lon="-3.8970310">
        <ele>486.6</ele>
        <time>2018-04-28T07:47:46Z</time>
      </trkpt>
      <trkpt lat="38.1596570" lon="-3.8970520">
        <ele>486.8</ele>
        <time>2018-04-28T07:47:47Z</time>
      </trkpt>
      <trkpt lat="38.1596480" lon="-3.8970710">
        <ele>486.8</ele>
        <time>2018-04-28T07:47:48Z</time>
      </trkpt>
      <trkpt lat="38.1596380" lon="-3.8970890">
        <ele>487.0</ele>
        <time>2018-04-28T07:47:49Z</time>
      </trkpt>
      <trkpt lat="38.1596260" lon="-3.8971060">
        <ele>487.2</ele>
        <time>2018-04-28T07:47:50Z</time>
      </trkpt>
      <trkpt lat="38.1596120" lon="-3.8971220">
        <ele>487.4</ele>
        <time>2018-04-28T07:47:51Z</time>
      </trkpt>
      <trkpt lat="38.1595970" lon="-3.8971360">
        <ele>487.4</ele>
        <time>2018-04-28T07:47:52Z</time>
      </trkpt>
      <trkpt lat="38.1595840" lon="-3.8971540">
        <ele>487.6</ele>
        <time>2018-04-28T07:47:53Z</time>
      </trkpt>
      <trkpt lat="38.1595740" lon="-3.8971740">
        <ele>487.6</ele>
        <time>2018-04-28T07:47:54Z</time>
      </trkpt>
      <trkpt lat="38.1595640" lon="-3.8971920">
        <ele>487.8</ele>
        <time>2018-04-28T07:47:55Z</time>
      </trkpt>
      <trkpt lat="38.1595550" lon="-3.8972180">
        <ele>488.0</ele>
        <time>2018-04-28T07:47:56Z</time>
      </trkpt>
      <trkpt lat="38.1595460" lon="-3.8972380">
        <ele>488.2</ele>
        <time>2018-04-28T07:47:57Z</time>
      </trkpt>
      <trkpt lat="38.1595360" lon="-3.8972560">
        <ele>488.4</ele>
        <time>2018-04-28T07:47:58Z</time>
      </trkpt>
      <trkpt lat="38.1595250" lon="-3.8972770">
        <ele>488.4</ele>
        <time>2018-04-28T07:47:59Z</time>
      </trkpt>
      <trkpt lat="38.1595150" lon="-3.8972970">
        <ele>488.6</ele>
        <time>2018-04-28T07:48:00Z</time>
      </trkpt>
      <trkpt lat="38.1595060" lon="-3.8973180">
        <ele>488.8</ele>
        <time>2018-04-28T07:48:01Z</time>
      </trkpt>
      <trkpt lat="38.1594970" lon="-3.8973390">
        <ele>488.8</ele>
        <time>2018-04-28T07:48:02Z</time>
      </trkpt>
      <trkpt lat="38.1594930" lon="-3.8973630">
        <ele>489.0</ele>
        <time>2018-04-28T07:48:03Z</time>
      </trkpt>
      <trkpt lat="38.1594830" lon="-3.8973830">
        <ele>489.2</ele>
        <time>2018-04-28T07:48:04Z</time>
      </trkpt>
      <trkpt lat="38.1594720" lon="-3.8974030">
        <ele>489.2</ele>
        <time>2018-04-28T07:48:05Z</time>
      </trkpt>
      <trkpt lat="38.1594620" lon="-3.8974230">
        <ele>489.4</ele>
        <time>2018-04-28T07:48:06Z</time>
      </trkpt>
      <trkpt lat="38.1594520" lon="-3.8974440">
        <ele>489.4</ele>
        <time>2018-04-28T07:48:07Z</time>
      </trkpt>
      <trkpt lat="38.1594430" lon="-3.8974630">
        <ele>489.6</ele>
        <time>2018-04-28T07:48:08Z</time>
      </trkpt>
      <trkpt lat="38.1594330" lon="-3.8974810">
        <ele>489.6</ele>
        <time>2018-04-28T07:48:09Z</time>
      </trkpt>
      <trkpt lat="38.1594230" lon="-3.8975010">
        <ele>489.8</ele>
        <time>2018-04-28T07:48:10Z</time>
      </trkpt>
      <trkpt lat="38.1594150" lon="-3.8975220">
        <ele>490.0</ele>
        <time>2018-04-28T07:48:11Z</time>
      </trkpt>
      <trkpt lat="38.1594060" lon="-3.8975440">
        <ele>490.0</ele>
        <time>2018-04-28T07:48:12Z</time>
      </trkpt>
      <trkpt lat="38.1593970" lon="-3.8975640">
        <ele>490.0</ele>
        <time>2018-04-28T07:48:13Z</time>
      </trkpt>
      <trkpt lat="38.1593880" lon="-3.8975830">
        <ele>490.2</ele>
        <time>2018-04-28T07:48:14Z</time>
      </trkpt>
      <trkpt lat="38.1593770" lon="-3.8976000">
        <ele>490.2</ele>
        <time>2018-04-28T07:48:15Z</time>
      </trkpt>
      <trkpt lat="38.1593650" lon="-3.8976160">
        <ele>490.2</ele>
        <time>2018-04-28T07:48:16Z</time>
      </trkpt>
      <trkpt lat="38.1593520" lon="-3.8976330">
        <ele>490.4</ele>
        <time>2018-04-28T07:48:17Z</time>
      </trkpt>
      <trkpt lat="38.1593390" lon="-3.8976480">
        <ele>490.4</ele>
        <time>2018-04-28T07:48:18Z</time>
      </trkpt>
      <trkpt lat="38.1593210" lon="-3.8976590">
        <ele>490.6</ele>
        <time>2018-04-28T07:48:19Z</time>
      </trkpt>
      <trkpt lat="38.1593000" lon="-3.8976660">
        <ele>490.6</ele>
        <time>2018-04-28T07:48:20Z</time>
      </trkpt>
      <trkpt lat="38.1592790" lon="-3.8976760">
        <ele>490.6</ele>
        <time>2018-04-28T07:48:21Z</time>
      </trkpt>
      <trkpt lat="38.1592580" lon="-3.8976840">
        <ele>490.6</ele>
        <time>2018-04-28T07:48:22Z</time>
      </trkpt>
      <trkpt lat="38.1592350" lon="-3.8976960">
        <ele>490.6</ele>
        <time>2018-04-28T07:48:23Z</time>
      </trkpt>
      <trkpt lat="38.1592130" lon="-3.8977070">
        <ele>490.8</ele>
        <time>2018-04-28T07:48:24Z</time>
      </trkpt>
      <trkpt lat="38.1591910" lon="-3.8977150">
        <ele>491.0</ele>
        <time>2018-04-28T07:48:25Z</time>
      </trkpt>
      <trkpt lat="38.1591690" lon="-3.8977220">
        <ele>491.2</ele>
        <time>2018-04-28T07:48:26Z</time>
      </trkpt>
      <trkpt lat="38.1591460" lon="-3.8977250">
        <ele>491.4</ele>
        <time>2018-04-28T07:48:27Z</time>
      </trkpt>
      <trkpt lat="38.1591260" lon="-3.8977230">
        <ele>491.4</ele>
        <time>2018-04-28T07:48:28Z</time>
      </trkpt>
      <trkpt lat="38.1591060" lon="-3.8977160">
        <ele>491.4</ele>
        <time>2018-04-28T07:48:29Z</time>
      </trkpt>
      <trkpt lat="38.1590880" lon="-3.8977110">
        <ele>491.6</ele>
        <time>2018-04-28T07:48:30Z</time>
      </trkpt>
      <trkpt lat="38.1590720" lon="-3.8977080">
        <ele>491.8</ele>
        <time>2018-04-28T07:48:31Z</time>
      </trkpt>
      <trkpt lat="38.1590550" lon="-3.8976970">
        <ele>491.8</ele>
        <time>2018-04-28T07:48:32Z</time>
      </trkpt>
      <trkpt lat="38.1590410" lon="-3.8976810">
        <ele>492.0</ele>
        <time>2018-04-28T07:48:33Z</time>
      </trkpt>
      <trkpt lat="38.1590300" lon="-3.8976690">
        <ele>492.2</ele>
        <time>2018-04-28T07:48:34Z</time>
      </trkpt>
      <trkpt lat="38.1590210" lon="-3.8976550">
        <ele>492.2</ele>
        <time>2018-04-28T07:48:35Z</time>
      </trkpt>
      <trkpt lat="38.1590190" lon="-3.8976430">
        <ele>492.4</ele>
        <time>2018-04-28T07:48:36Z</time>
      </trkpt>
      <trkpt lat="38.1590090" lon="-3.8976210">
        <ele>492.6</ele>
        <time>2018-04-28T07:48:37Z</time>
      </trkpt>
      <trkpt lat="38.1589950" lon="-3.8976010">
        <ele>492.8</ele>
        <time>2018-04-28T07:48:38Z</time>
      </trkpt>
      <trkpt lat="38.1589810" lon="-3.8975690">
        <ele>493.0</ele>
        <time>2018-04-28T07:48:39Z</time>
      </trkpt>
      <trkpt lat="38.1589690" lon="-3.8975460">
        <ele>493.2</ele>
        <time>2018-04-28T07:48:40Z</time>
      </trkpt>
      <trkpt lat="38.1589630" lon="-3.8975240">
        <ele>493.2</ele>
        <time>2018-04-28T07:48:41Z</time>
      </trkpt>
      <trkpt lat="38.1589490" lon="-3.8975010">
        <ele>493.4</ele>
        <time>2018-04-28T07:48:42Z</time>
      </trkpt>
      <trkpt lat="38.1589320" lon="-3.8974800">
        <ele>493.6</ele>
        <time>2018-04-28T07:48:43Z</time>
      </trkpt>
      <trkpt lat="38.1589220" lon="-3.8974580">
        <ele>493.6</ele>
        <time>2018-04-28T07:48:44Z</time>
      </trkpt>
      <trkpt lat="38.1589100" lon="-3.8974350">
        <ele>493.8</ele>
        <time>2018-04-28T07:48:45Z</time>
      </trkpt>
      <trkpt lat="38.1588980" lon="-3.8974130">
        <ele>494.0</ele>
        <time>2018-04-28T07:48:46Z</time>
      </trkpt>
      <trkpt lat="38.1588880" lon="-3.8973940">
        <ele>494.2</ele>
        <time>2018-04-28T07:48:47Z</time>
      </trkpt>
      <trkpt lat="38.1588770" lon="-3.8973750">
        <ele>494.2</ele>
        <time>2018-04-28T07:48:48Z</time>
      </trkpt>
      <trkpt lat="38.1588630" lon="-3.8973590">
        <ele>494.4</ele>
        <time>2018-04-28T07:48:49Z</time>
      </trkpt>
      <trkpt lat="38.1588470" lon="-3.8973470">
        <ele>494.4</ele>
        <time>2018-04-28T07:48:50Z</time>
      </trkpt>
      <trkpt lat="38.1588310" lon="-3.8973220">
        <ele>494.6</ele>
        <time>2018-04-28T07:48:51Z</time>
      </trkpt>
      <trkpt lat="38.1588190" lon="-3.8973030">
        <ele>494.8</ele>
        <time>2018-04-28T07:48:52Z</time>
      </trkpt>
      <trkpt lat="38.1588140" lon="-3.8972830">
        <ele>495.0</ele>
        <time>2018-04-28T07:48:53Z</time>
      </trkpt>
      <trkpt lat="38.1588060" lon="-3.8972590">
        <ele>495.2</ele>
        <time>2018-04-28T07:48:54Z</time>
      </trkpt>
      <trkpt lat="38.1587970" lon="-3.8972420">
        <ele>495.2</ele>
        <time>2018-04-28T07:48:55Z</time>
      </trkpt>
      <trkpt lat="38.1587890" lon="-3.8972230">
        <ele>495.4</ele>
        <time>2018-04-28T07:48:56Z</time>
      </trkpt>
      <trkpt lat="38.1587850" lon="-3.8972010">
        <ele>495.4</ele>
        <time>2018-04-28T07:48:57Z</time>
      </trkpt>
      <trkpt lat="38.1587860" lon="-3.8971770">
        <ele>495.6</ele>
        <time>2018-04-28T07:48:58Z</time>
      </trkpt>
      <trkpt lat="38.1587820" lon="-3.8971520">
        <ele>495.6</ele>
        <time>2018-04-28T07:48:59Z</time>
      </trkpt>
      <trkpt lat="38.1587800" lon="-3.8971260">
        <ele>495.8</ele>
        <time>2018-04-28T07:49:00Z</time>
      </trkpt>
      <trkpt lat="38.1587760" lon="-3.8970990">
        <ele>495.8</ele>
        <time>2018-04-28T07:49:01Z</time>
      </trkpt>
      <trkpt lat="38.1587720" lon="-3.8970730">
        <ele>496.0</ele>
        <time>2018-04-28T07:49:02Z</time>
      </trkpt>
      <trkpt lat="38.1587670" lon="-3.8970440">
        <ele>496.2</ele>
        <time>2018-04-28T07:49:03Z</time>
      </trkpt>
      <trkpt lat="38.1587580" lon="-3.8970170">
        <ele>496.2</ele>
        <time>2018-04-28T07:49:04Z</time>
      </trkpt>
      <trkpt lat="38.1587520" lon="-3.8969920">
        <ele>496.4</ele>
        <time>2018-04-28T07:49:05Z</time>
      </trkpt>
      <trkpt lat="38.1587440" lon="-3.8969670">
        <ele>496.6</ele>
        <time>2018-04-28T07:49:06Z</time>
      </trkpt>
      <trkpt lat="38.1587400" lon="-3.8969440">
        <ele>496.6</ele>
        <time>2018-04-28T07:49:07Z</time>
      </trkpt>
      <trkpt lat="38.1587350" lon="-3.8969160">
        <ele>497.0</ele>
        <time>2018-04-28T07:49:08Z</time>
      </trkpt>
      <trkpt lat="38.1587310" lon="-3.8968880">
        <ele>497.2</ele>
        <time>2018-04-28T07:49:09Z</time>
      </trkpt>
      <trkpt lat="38.1587260" lon="-3.8968640">
        <ele>497.2</ele>
        <time>2018-04-28T07:49:10Z</time>
      </trkpt>
      <trkpt lat="38.1587240" lon="-3.8968390">
        <ele>497.4</ele>
        <time>2018-04-28T07:49:11Z</time>
      </trkpt>
      <trkpt lat="38.1587210" lon="-3.8968120">
        <ele>497.6</ele>
        <time>2018-04-28T07:49:12Z</time>
      </trkpt>
      <trkpt lat="38.1587200" lon="-3.8967880">
        <ele>497.8</ele>
        <time>2018-04-28T07:49:13Z</time>
      </trkpt>
      <trkpt lat="38.1587140" lon="-3.8967590">
        <ele>498.0</ele>
        <time>2018-04-28T07:49:14Z</time>
      </trkpt>
      <trkpt lat="38.1587090" lon="-3.8967340">
        <ele>498.2</ele>
        <time>2018-04-28T07:49:15Z</time>
      </trkpt>
      <trkpt lat="38.1587030" lon="-3.8967110">
        <ele>498.4</ele>
        <time>2018-04-28T07:49:16Z</time>
      </trkpt>
      <trkpt lat="38.1586970" lon="-3.8966860">
        <ele>498.4</ele>
        <time>2018-04-28T07:49:17Z</time>
      </trkpt>
      <trkpt lat="38.1586930" lon="-3.8966590">
        <ele>498.6</ele>
        <time>2018-04-28T07:49:18Z</time>
      </trkpt>
      <trkpt lat="38.1586870" lon="-3.8966350">
        <ele>498.8</ele>
        <time>2018-04-28T07:49:19Z</time>
      </trkpt>
      <trkpt lat="38.1586830" lon="-3.8966110">
        <ele>499.0</ele>
        <time>2018-04-28T07:49:20Z</time>
      </trkpt>
      <trkpt lat="38.1586740" lon="-3.8965870">
        <ele>499.0</ele>
        <time>2018-04-28T07:49:21Z</time>
      </trkpt>
      <trkpt lat="38.1586630" lon="-3.8965610">
        <ele>499.2</ele>
        <time>2018-04-28T07:49:22Z</time>
      </trkpt>
      <trkpt lat="38.1586490" lon="-3.8965350">
        <ele>499.4</ele>
        <time>2018-04-28T07:49:23Z</time>
      </trkpt>
      <trkpt lat="38.1586360" lon="-3.8965120">
        <ele>499.4</ele>
        <time>2018-04-28T07:49:24Z</time>
      </trkpt>
      <trkpt lat="38.1586220" lon="-3.8964890">
        <ele>499.6</ele>
        <time>2018-04-28T07:49:25Z</time>
      </trkpt>
      <trkpt lat="38.1586080" lon="-3.8964630">
        <ele>499.8</ele>
        <time>2018-04-28T07:49:26Z</time>
      </trkpt>
      <trkpt lat="38.1585940" lon="-3.8964440">
        <ele>500.0</ele>
        <time>2018-04-28T07:49:27Z</time>
      </trkpt>
      <trkpt lat="38.1585790" lon="-3.8964270">
        <ele>500.0</ele>
        <time>2018-04-28T07:49:28Z</time>
      </trkpt>
      <trkpt lat="38.1585620" lon="-3.8964110">
        <ele>500.2</ele>
        <time>2018-04-28T07:49:29Z</time>
      </trkpt>
      <trkpt lat="38.1585440" lon="-3.8963980">
        <ele>500.4</ele>
        <time>2018-04-28T07:49:30Z</time>
      </trkpt>
      <trkpt lat="38.1585250" lon="-3.8963850">
        <ele>500.4</ele>
        <time>2018-04-28T07:49:31Z</time>
      </trkpt>
      <trkpt lat="38.1585050" lon="-3.8963670">
        <ele>500.6</ele>
        <time>2018-04-28T07:49:32Z</time>
      </trkpt>
      <trkpt lat="38.1584850" lon="-3.8963550">
        <ele>500.8</ele>
        <time>2018-04-28T07:49:33Z</time>
      </trkpt>
      <trkpt lat="38.1584660" lon="-3.8963450">
        <ele>500.8</ele>
        <time>2018-04-28T07:49:34Z</time>
      </trkpt>
      <trkpt lat="38.1584490" lon="-3.8963370">
        <ele>501.2</ele>
        <time>2018-04-28T07:49:35Z</time>
      </trkpt>
      <trkpt lat="38.1584290" lon="-3.8963260">
        <ele>501.2</ele>
        <time>2018-04-28T07:49:36Z</time>
      </trkpt>
      <trkpt lat="38.1584120" lon="-3.8963140">
        <ele>501.4</ele>
        <time>2018-04-28T07:49:37Z</time>
      </trkpt>
      <trkpt lat="38.1583940" lon="-3.8963030">
        <ele>501.6</ele>
        <time>2018-04-28T07:49:38Z</time>
      </trkpt>
      <trkpt lat="38.1583770" lon="-3.8962960">
        <ele>501.8</ele>
        <time>2018-04-28T07:49:39Z</time>
      </trkpt>
      <trkpt lat="38.1583580" lon="-3.8962880">
        <ele>502.0</ele>
        <time>2018-04-28T07:49:40Z</time>
      </trkpt>
      <trkpt lat="38.1583380" lon="-3.8962810">
        <ele>502.0</ele>
        <time>2018-04-28T07:49:41Z</time>
      </trkpt>
      <trkpt lat="38.1583160" lon="-3.8962700">
        <ele>502.2</ele>
        <time>2018-04-28T07:49:42Z</time>
      </trkpt>
      <trkpt lat="38.1582960" lon="-3.8962640">
        <ele>502.4</ele>
        <time>2018-04-28T07:49:43Z</time>
      </trkpt>
      <trkpt lat="38.1582780" lon="-3.8962590">
        <ele>502.6</ele>
        <time>2018-04-28T07:49:44Z</time>
      </trkpt>
      <trkpt lat="38.1582570" lon="-3.8962510">
        <ele>502.8</ele>
        <time>2018-04-28T07:49:45Z</time>
      </trkpt>
      <trkpt lat="38.1582390" lon="-3.8962470">
        <ele>503.0</ele>
        <time>2018-04-28T07:49:46Z</time>
      </trkpt>
      <trkpt lat="38.1582190" lon="-3.8962450">
        <ele>503.2</ele>
        <time>2018-04-28T07:49:47Z</time>
      </trkpt>
      <trkpt lat="38.1581980" lon="-3.8962330">
        <ele>503.2</ele>
        <time>2018-04-28T07:49:48Z</time>
      </trkpt>
      <trkpt lat="38.1581810" lon="-3.8962250">
        <ele>503.4</ele>
        <time>2018-04-28T07:49:49Z</time>
      </trkpt>
      <trkpt lat="38.1581630" lon="-3.8962170">
        <ele>503.6</ele>
        <time>2018-04-28T07:49:50Z</time>
      </trkpt>
      <trkpt lat="38.1581480" lon="-3.8962110">
        <ele>503.6</ele>
        <time>2018-04-28T07:49:51Z</time>
      </trkpt>
      <trkpt lat="38.1581300" lon="-3.8962020">
        <ele>504.0</ele>
        <time>2018-04-28T07:49:52Z</time>
      </trkpt>
      <trkpt lat="38.1581120" lon="-3.8961930">
        <ele>504.0</ele>
        <time>2018-04-28T07:49:53Z</time>
      </trkpt>
      <trkpt lat="38.1580950" lon="-3.8961800">
        <ele>504.0</ele>
        <time>2018-04-28T07:49:54Z</time>
      </trkpt>
      <trkpt lat="38.1580780" lon="-3.8961690">
        <ele>504.2</ele>
        <time>2018-04-28T07:49:55Z</time>
      </trkpt>
      <trkpt lat="38.1580590" lon="-3.8961590">
        <ele>504.4</ele>
        <time>2018-04-28T07:49:56Z</time>
      </trkpt>
      <trkpt lat="38.1580440" lon="-3.8961480">
        <ele>504.6</ele>
        <time>2018-04-28T07:49:57Z</time>
      </trkpt>
      <trkpt lat="38.1580260" lon="-3.8961380">
        <ele>504.6</ele>
        <time>2018-04-28T07:49:58Z</time>
      </trkpt>
      <trkpt lat="38.1580050" lon="-3.8961340">
        <ele>504.8</ele>
        <time>2018-04-28T07:49:59Z</time>
      </trkpt>
      <trkpt lat="38.1579850" lon="-3.8961330">
        <ele>505.0</ele>
        <time>2018-04-28T07:50:00Z</time>
      </trkpt>
      <trkpt lat="38.1579640" lon="-3.8961310">
        <ele>505.0</ele>
        <time>2018-04-28T07:50:01Z</time>
      </trkpt>
      <trkpt lat="38.1579430" lon="-3.8961290">
        <ele>505.0</ele>
        <time>2018-04-28T07:50:02Z</time>
      </trkpt>
      <trkpt lat="38.1579210" lon="-3.8961280">
        <ele>505.0</ele>
        <time>2018-04-28T07:50:03Z</time>
      </trkpt>
      <trkpt lat="38.1579010" lon="-3.8961320">
        <ele>505.2</ele>
        <time>2018-04-28T07:50:04Z</time>
      </trkpt>
      <trkpt lat="38.1578810" lon="-3.8961410">
        <ele>505.6</ele>
        <time>2018-04-28T07:50:05Z</time>
      </trkpt>
      <trkpt lat="38.1578620" lon="-3.8961480">
        <ele>505.6</ele>
        <time>2018-04-28T07:50:06Z</time>
      </trkpt>
      <trkpt lat="38.1578410" lon="-3.8961540">
        <ele>505.6</ele>
        <time>2018-04-28T07:50:07Z</time>
      </trkpt>
      <trkpt lat="38.1578210" lon="-3.8961610">
        <ele>505.8</ele>
        <time>2018-04-28T07:50:08Z</time>
      </trkpt>
      <trkpt lat="38.1578000" lon="-3.8961630">
        <ele>506.0</ele>
        <time>2018-04-28T07:50:09Z</time>
      </trkpt>
      <trkpt lat="38.1577800" lon="-3.8961700">
        <ele>506.2</ele>
        <time>2018-04-28T07:50:10Z</time>
      </trkpt>
      <trkpt lat="38.1577600" lon="-3.8961800">
        <ele>506.4</ele>
        <time>2018-04-28T07:50:11Z</time>
      </trkpt>
      <trkpt lat="38.1577410" lon="-3.8961880">
        <ele>506.6</ele>
        <time>2018-04-28T07:50:12Z</time>
      </trkpt>
      <trkpt lat="38.1577240" lon="-3.8962000">
        <ele>506.8</ele>
        <time>2018-04-28T07:50:13Z</time>
      </trkpt>
      <trkpt lat="38.1577050" lon="-3.8962080">
        <ele>507.0</ele>
        <time>2018-04-28T07:50:14Z</time>
      </trkpt>
      <trkpt lat="38.1576880" lon="-3.8962190">
        <ele>507.2</ele>
        <time>2018-04-28T07:50:15Z</time>
      </trkpt>
      <trkpt lat="38.1576700" lon="-3.8962300">
        <ele>507.2</ele>
        <time>2018-04-28T07:50:16Z</time>
      </trkpt>
      <trkpt lat="38.1576520" lon="-3.8962400">
        <ele>507.4</ele>
        <time>2018-04-28T07:50:17Z</time>
      </trkpt>
      <trkpt lat="38.1576340" lon="-3.8962490">
        <ele>507.6</ele>
        <time>2018-04-28T07:50:18Z</time>
      </trkpt>
      <trkpt lat="38.1576160" lon="-3.8962640">
        <ele>507.8</ele>
        <time>2018-04-28T07:50:19Z</time>
      </trkpt>
      <trkpt lat="38.1575980" lon="-3.8962720">
        <ele>507.8</ele>
        <time>2018-04-28T07:50:20Z</time>
      </trkpt>
      <trkpt lat="38.1575800" lon="-3.8962820">
        <ele>508.0</ele>
        <time>2018-04-28T07:50:21Z</time>
      </trkpt>
      <trkpt lat="38.1575610" lon="-3.8962880">
        <ele>508.2</ele>
        <time>2018-04-28T07:50:22Z</time>
      </trkpt>
      <trkpt lat="38.1575420" lon="-3.8962920">
        <ele>508.2</ele>
        <time>2018-04-28T07:50:23Z</time>
      </trkpt>
      <trkpt lat="38.1575220" lon="-3.8962910">
        <ele>508.4</ele>
        <time>2018-04-28T07:50:24Z</time>
      </trkpt>
      <trkpt lat="38.1574990" lon="-3.8962850">
        <ele>508.4</ele>
        <time>2018-04-28T07:50:25Z</time>
      </trkpt>
      <trkpt lat="38.1574760" lon="-3.8962790">
        <ele>508.6</ele>
        <time>2018-04-28T07:50:26Z</time>
      </trkpt>
      <trkpt lat="38.1574570" lon="-3.8962740">
        <ele>508.6</ele>
        <time>2018-04-28T07:50:27Z</time>
      </trkpt>
      <trkpt lat="38.1574380" lon="-3.8962720">
        <ele>508.8</ele>
        <time>2018-04-28T07:50:28Z</time>
      </trkpt>
      <trkpt lat="38.1574170" lon="-3.8962690">
        <ele>509.2</ele>
        <time>2018-04-28T07:50:29Z</time>
      </trkpt>
      <trkpt lat="38.1573960" lon="-3.8962650">
        <ele>509.2</ele>
        <time>2018-04-28T07:50:30Z</time>
      </trkpt>
      <trkpt lat="38.1573750" lon="-3.8962610">
        <ele>509.4</ele>
        <time>2018-04-28T07:50:31Z</time>
      </trkpt>
      <trkpt lat="38.1573540" lon="-3.8962600">
        <ele>509.6</ele>
        <time>2018-04-28T07:50:32Z</time>
      </trkpt>
      <trkpt lat="38.1573350" lon="-3.8962570">
        <ele>509.8</ele>
        <time>2018-04-28T07:50:33Z</time>
      </trkpt>
      <trkpt lat="38.1573160" lon="-3.8962510">
        <ele>510.0</ele>
        <time>2018-04-28T07:50:34Z</time>
      </trkpt>
      <trkpt lat="38.1572970" lon="-3.8962500">
        <ele>510.0</ele>
        <time>2018-04-28T07:50:35Z</time>
      </trkpt>
      <trkpt lat="38.1572770" lon="-3.8962500">
        <ele>510.2</ele>
        <time>2018-04-28T07:50:36Z</time>
      </trkpt>
      <trkpt lat="38.1572560" lon="-3.8962510">
        <ele>510.4</ele>
        <time>2018-04-28T07:50:37Z</time>
      </trkpt>
      <trkpt lat="38.1572360" lon="-3.8962470">
        <ele>510.6</ele>
        <time>2018-04-28T07:50:38Z</time>
      </trkpt>
      <trkpt lat="38.1572140" lon="-3.8962430">
        <ele>510.6</ele>
        <time>2018-04-28T07:50:39Z</time>
      </trkpt>
      <trkpt lat="38.1571940" lon="-3.8962420">
        <ele>510.8</ele>
        <time>2018-04-28T07:50:40Z</time>
      </trkpt>
      <trkpt lat="38.1571730" lon="-3.8962350">
        <ele>510.8</ele>
        <time>2018-04-28T07:50:41Z</time>
      </trkpt>
      <trkpt lat="38.1571530" lon="-3.8962280">
        <ele>511.0</ele>
        <time>2018-04-28T07:50:42Z</time>
      </trkpt>
      <trkpt lat="38.1571320" lon="-3.8962200">
        <ele>511.2</ele>
        <time>2018-04-28T07:50:43Z</time>
      </trkpt>
      <trkpt lat="38.1571120" lon="-3.8962120">
        <ele>511.2</ele>
        <time>2018-04-28T07:50:44Z</time>
      </trkpt>
      <trkpt lat="38.1570930" lon="-3.8962050">
        <ele>511.4</ele>
        <time>2018-04-28T07:50:45Z</time>
      </trkpt>
      <trkpt lat="38.1570730" lon="-3.8961960">
        <ele>511.6</ele>
        <time>2018-04-28T07:50:46Z</time>
      </trkpt>
      <trkpt lat="38.1570530" lon="-3.8961880">
        <ele>511.8</ele>
        <time>2018-04-28T07:50:47Z</time>
      </trkpt>
      <trkpt lat="38.1570320" lon="-3.8961810">
        <ele>512.0</ele>
        <time>2018-04-28T07:50:48Z</time>
      </trkpt>
      <trkpt lat="38.1570140" lon="-3.8961790">
        <ele>512.2</ele>
        <time>2018-04-28T07:50:49Z</time>
      </trkpt>
      <trkpt lat="38.1569940" lon="-3.8961750">
        <ele>512.4</ele>
        <time>2018-04-28T07:50:50Z</time>
      </trkpt>
      <trkpt lat="38.1569740" lon="-3.8961730">
        <ele>512.4</ele>
        <time>2018-04-28T07:50:51Z</time>
      </trkpt>
      <trkpt lat="38.1569530" lon="-3.8961660">
        <ele>512.8</ele>
        <time>2018-04-28T07:50:52Z</time>
      </trkpt>
      <trkpt lat="38.1569320" lon="-3.8961650">
        <ele>512.8</ele>
        <time>2018-04-28T07:50:53Z</time>
      </trkpt>
      <trkpt lat="38.1569100" lon="-3.8961580">
        <ele>513.0</ele>
        <time>2018-04-28T07:50:54Z</time>
      </trkpt>
      <trkpt lat="38.1568890" lon="-3.8961590">
        <ele>513.2</ele>
        <time>2018-04-28T07:50:55Z</time>
      </trkpt>
      <trkpt lat="38.1568680" lon="-3.8961660">
        <ele>513.4</ele>
        <time>2018-04-28T07:50:56Z</time>
      </trkpt>
      <trkpt lat="38.1568480" lon="-3.8961730">
        <ele>513.6</ele>
        <time>2018-04-28T07:50:57Z</time>
      </trkpt>
      <trkpt lat="38.1568300" lon="-3.8961830">
        <ele>513.8</ele>
        <time>2018-04-28T07:50:58Z</time>
      </trkpt>
      <trkpt lat="38.1568150" lon="-3.8962000">
        <ele>513.8</ele>
        <time>2018-04-28T07:50:59Z</time>
      </trkpt>
      <trkpt lat="38.1568020" lon="-3.8962220">
        <ele>513.8</ele>
        <time>2018-04-28T07:51:00Z</time>
      </trkpt>
      <trkpt lat="38.1567910" lon="-3.8962460">
        <ele>514.0</ele>
        <time>2018-04-28T07:51:01Z</time>
      </trkpt>
      <trkpt lat="38.1567810" lon="-3.8962710">
        <ele>514.0</ele>
        <time>2018-04-28T07:51:02Z</time>
      </trkpt>
      <trkpt lat="38.1567730" lon="-3.8962960">
        <ele>514.0</ele>
        <time>2018-04-28T07:51:03Z</time>
      </trkpt>
      <trkpt lat="38.1567650" lon="-3.8963220">
        <ele>514.2</ele>
        <time>2018-04-28T07:51:04Z</time>
      </trkpt>
      <trkpt lat="38.1567600" lon="-3.8963510">
        <ele>514.2</ele>
        <time>2018-04-28T07:51:05Z</time>
      </trkpt>
      <trkpt lat="38.1567580" lon="-3.8963790">
        <ele>514.2</ele>
        <time>2018-04-28T07:51:06Z</time>
      </trkpt>
      <trkpt lat="38.1567580" lon="-3.8964060">
        <ele>514.4</ele>
        <time>2018-04-28T07:51:07Z</time>
      </trkpt>
      <trkpt lat="38.1567560" lon="-3.8964330">
        <ele>514.6</ele>
        <time>2018-04-28T07:51:08Z</time>
      </trkpt>
      <trkpt lat="38.1567520" lon="-3.8964590">
        <ele>514.6</ele>
        <time>2018-04-28T07:51:09Z</time>
      </trkpt>
      <trkpt lat="38.1567490" lon="-3.8964850">
        <ele>514.6</ele>
        <time>2018-04-28T07:51:10Z</time>
      </trkpt>
      <trkpt lat="38.1567450" lon="-3.8965120">
        <ele>514.8</ele>
        <time>2018-04-28T07:51:11Z</time>
      </trkpt>
      <trkpt lat="38.1567400" lon="-3.8965380">
        <ele>515.0</ele>
        <time>2018-04-28T07:51:12Z</time>
      </trkpt>
      <trkpt lat="38.1567350" lon="-3.8965640">
        <ele>515.0</ele>
        <time>2018-04-28T07:51:13Z</time>
      </trkpt>
      <trkpt lat="38.1567290" lon="-3.8965880">
        <ele>515.2</ele>
        <time>2018-04-28T07:51:14Z</time>
      </trkpt>
      <trkpt lat="38.1567230" lon="-3.8966150">
        <ele>515.2</ele>
        <time>2018-04-28T07:51:15Z</time>
      </trkpt>
      <trkpt lat="38.1567180" lon="-3.8966400">
        <ele>515.4</ele>
        <time>2018-04-28T07:51:16Z</time>
      </trkpt>
      <trkpt lat="38.1567090" lon="-3.8966620">
        <ele>515.6</ele>
        <time>2018-04-28T07:51:17Z</time>
      </trkpt>
      <trkpt lat="38.1567000" lon="-3.8966860">
        <ele>515.6</ele>
        <time>2018-04-28T07:51:18Z</time>
      </trkpt>
      <trkpt lat="38.1566900" lon="-3.8967100">
        <ele>515.8</ele>
        <time>2018-04-28T07:51:19Z</time>
      </trkpt>
      <trkpt lat="38.1566810" lon="-3.8967340">
        <ele>515.8</ele>
        <time>2018-04-28T07:51:20Z</time>
      </trkpt>
      <trkpt lat="38.1566730" lon="-3.8967590">
        <ele>516.2</ele>
        <time>2018-04-28T07:51:21Z</time>
      </trkpt>
      <trkpt lat="38.1566660" lon="-3.8967830">
        <ele>516.4</ele>
        <time>2018-04-28T07:51:22Z</time>
      </trkpt>
      <trkpt lat="38.1566550" lon="-3.8968080">
        <ele>516.4</ele>
        <time>2018-04-28T07:51:23Z</time>
      </trkpt>
      <trkpt lat="38.1566430" lon="-3.8968310">
        <ele>516.4</ele>
        <time>2018-04-28T07:51:24Z</time>
      </trkpt>
      <trkpt lat="38.1566290" lon="-3.8968540">
        <ele>516.6</ele>
        <time>2018-04-28T07:51:25Z</time>
      </trkpt>
      <trkpt lat="38.1566180" lon="-3.8968770">
        <ele>516.8</ele>
        <time>2018-04-28T07:51:26Z</time>
      </trkpt>
      <trkpt lat="38.1566070" lon="-3.8969010">
        <ele>517.0</ele>
        <time>2018-04-28T07:51:27Z</time>
      </trkpt>
      <trkpt lat="38.1565960" lon="-3.8969230">
        <ele>517.2</ele>
        <time>2018-04-28T07:51:28Z</time>
      </trkpt>
      <trkpt lat="38.1565870" lon="-3.8969410">
        <ele>517.2</ele>
        <time>2018-04-28T07:51:29Z</time>
      </trkpt>
      <trkpt lat="38.1565730" lon="-3.8969600">
        <ele>517.4</ele>
        <time>2018-04-28T07:51:30Z</time>
      </trkpt>
      <trkpt lat="38.1565550" lon="-3.8969770">
        <ele>517.4</ele>
        <time>2018-04-28T07:51:31Z</time>
      </trkpt>
      <trkpt lat="38.1565390" lon="-3.8969960">
        <ele>517.6</ele>
        <time>2018-04-28T07:51:32Z</time>
      </trkpt>
      <trkpt lat="38.1565230" lon="-3.8970150">
        <ele>517.8</ele>
        <time>2018-04-28T07:51:33Z</time>
      </trkpt>
      <trkpt lat="38.1565060" lon="-3.8970320">
        <ele>517.8</ele>
        <time>2018-04-28T07:51:34Z</time>
      </trkpt>
      <trkpt lat="38.1564890" lon="-3.8970490">
        <ele>518.0</ele>
        <time>2018-04-28T07:51:35Z</time>
      </trkpt>
      <trkpt lat="38.1564680" lon="-3.8970590">
        <ele>518.0</ele>
        <time>2018-04-28T07:51:36Z</time>
      </trkpt>
      <trkpt lat="38.1564460" lon="-3.8970690">
        <ele>518.2</ele>
        <time>2018-04-28T07:51:37Z</time>
      </trkpt>
      <trkpt lat="38.1564240" lon="-3.8970750">
        <ele>518.2</ele>
        <time>2018-04-28T07:51:38Z</time>
      </trkpt>
      <trkpt lat="38.1564000" lon="-3.8970720">
        <ele>518.2</ele>
        <time>2018-04-28T07:51:39Z</time>
      </trkpt>
      <trkpt lat="38.1563750" lon="-3.8970710">
        <ele>518.4</ele>
        <time>2018-04-28T07:51:40Z</time>
      </trkpt>
      <trkpt lat="38.1563530" lon="-3.8970740">
        <ele>518.6</ele>
        <time>2018-04-28T07:51:41Z</time>
      </trkpt>
      <trkpt lat="38.1563300" lon="-3.8970690">
        <ele>518.6</ele>
        <time>2018-04-28T07:51:42Z</time>
      </trkpt>
      <trkpt lat="38.1563070" lon="-3.8970610">
        <ele>518.8</ele>
        <time>2018-04-28T07:51:43Z</time>
      </trkpt>
      <trkpt lat="38.1562850" lon="-3.8970570">
        <ele>519.0</ele>
        <time>2018-04-28T07:51:44Z</time>
      </trkpt>
      <trkpt lat="38.1562640" lon="-3.8970550">
        <ele>519.2</ele>
        <time>2018-04-28T07:51:45Z</time>
      </trkpt>
      <trkpt lat="38.1562420" lon="-3.8970540">
        <ele>519.4</ele>
        <time>2018-04-28T07:51:46Z</time>
      </trkpt>
      <trkpt lat="38.1562170" lon="-3.8970480">
        <ele>519.6</ele>
        <time>2018-04-28T07:51:47Z</time>
      </trkpt>
      <trkpt lat="38.1561960" lon="-3.8970530">
        <ele>519.6</ele>
        <time>2018-04-28T07:51:48Z</time>
      </trkpt>
      <trkpt lat="38.1561740" lon="-3.8970610">
        <ele>519.8</ele>
        <time>2018-04-28T07:51:49Z</time>
      </trkpt>
      <trkpt lat="38.1561540" lon="-3.8970730">
        <ele>519.8</ele>
        <time>2018-04-28T07:51:50Z</time>
      </trkpt>
      <trkpt lat="38.1561330" lon="-3.8970820">
        <ele>520.0</ele>
        <time>2018-04-28T07:51:51Z</time>
      </trkpt>
      <trkpt lat="38.1561110" lon="-3.8970930">
        <ele>520.2</ele>
        <time>2018-04-28T07:51:52Z</time>
      </trkpt>
      <trkpt lat="38.1560900" lon="-3.8971050">
        <ele>520.2</ele>
        <time>2018-04-28T07:51:53Z</time>
      </trkpt>
      <trkpt lat="38.1560710" lon="-3.8971200">
        <ele>520.4</ele>
        <time>2018-04-28T07:51:54Z</time>
      </trkpt>
      <trkpt lat="38.1560530" lon="-3.8971360">
        <ele>520.4</ele>
        <time>2018-04-28T07:51:55Z</time>
      </trkpt>
      <trkpt lat="38.1560380" lon="-3.8971580">
        <ele>520.4</ele>
        <time>2018-04-28T07:51:56Z</time>
      </trkpt>
      <trkpt lat="38.1560210" lon="-3.8971800">
        <ele>520.6</ele>
        <time>2018-04-28T07:51:57Z</time>
      </trkpt>
      <trkpt lat="38.1560040" lon="-3.8972040">
        <ele>520.6</ele>
        <time>2018-04-28T07:51:58Z</time>
      </trkpt>
      <trkpt lat="38.1559870" lon="-3.8972260">
        <ele>520.6</ele>
        <time>2018-04-28T07:51:59Z</time>
      </trkpt>
      <trkpt lat="38.1559700" lon="-3.8972500">
        <ele>520.8</ele>
        <time>2018-04-28T07:52:00Z</time>
      </trkpt>
      <trkpt lat="38.1559540" lon="-3.8972710">
        <ele>520.8</ele>
        <time>2018-04-28T07:52:01Z</time>
      </trkpt>
      <trkpt lat="38.1559360" lon="-3.8972900">
        <ele>521.0</ele>
        <time>2018-04-28T07:52:02Z</time>
      </trkpt>
      <trkpt lat="38.1559180" lon="-3.8973070">
        <ele>521.2</ele>
        <time>2018-04-28T07:52:03Z</time>
      </trkpt>
      <trkpt lat="38.1559000" lon="-3.8973280">
        <ele>521.2</ele>
        <time>2018-04-28T07:52:04Z</time>
      </trkpt>
      <trkpt lat="38.1558820" lon="-3.8973470">
        <ele>521.4</ele>
        <time>2018-04-28T07:52:05Z</time>
      </trkpt>
      <trkpt lat="38.1558600" lon="-3.8973630">
        <ele>521.4</ele>
        <time>2018-04-28T07:52:06Z</time>
      </trkpt>
      <trkpt lat="38.1558390" lon="-3.8973740">
        <ele>521.6</ele>
        <time>2018-04-28T07:52:07Z</time>
      </trkpt>
      <trkpt lat="38.1558170" lon="-3.8973890">
        <ele>521.6</ele>
        <time>2018-04-28T07:52:08Z</time>
      </trkpt>
      <trkpt lat="38.1558000" lon="-3.8974090">
        <ele>521.8</ele>
        <time>2018-04-28T07:52:09Z</time>
      </trkpt>
      <trkpt lat="38.1557810" lon="-3.8974320">
        <ele>521.6</ele>
        <time>2018-04-28T07:52:10Z</time>
      </trkpt>
      <trkpt lat="38.1557620" lon="-3.8974530">
        <ele>521.8</ele>
        <time>2018-04-28T07:52:11Z</time>
      </trkpt>
      <trkpt lat="38.1557420" lon="-3.8974750">
        <ele>521.8</ele>
        <time>2018-04-28T07:52:12Z</time>
      </trkpt>
      <trkpt lat="38.1557250" lon="-3.8975000">
        <ele>521.8</ele>
        <time>2018-04-28T07:52:13Z</time>
      </trkpt>
      <trkpt lat="38.1557060" lon="-3.8975280">
        <ele>521.8</ele>
        <time>2018-04-28T07:52:14Z</time>
      </trkpt>
      <trkpt lat="38.1556840" lon="-3.8975540">
        <ele>521.6</ele>
        <time>2018-04-28T07:52:15Z</time>
      </trkpt>
      <trkpt lat="38.1556640" lon="-3.8975790">
        <ele>521.6</ele>
        <time>2018-04-28T07:52:16Z</time>
      </trkpt>
      <trkpt lat="38.1556420" lon="-3.8975990">
        <ele>521.6</ele>
        <time>2018-04-28T07:52:17Z</time>
      </trkpt>
      <trkpt lat="38.1556180" lon="-3.8976140">
        <ele>521.6</ele>
        <time>2018-04-28T07:52:18Z</time>
      </trkpt>
      <trkpt lat="38.1555940" lon="-3.8976260">
        <ele>521.8</ele>
        <time>2018-04-28T07:52:19Z</time>
      </trkpt>
      <trkpt lat="38.1555710" lon="-3.8976410">
        <ele>521.8</ele>
        <time>2018-04-28T07:52:20Z</time>
      </trkpt>
      <trkpt lat="38.1555410" lon="-3.8976350">
        <ele>521.8</ele>
        <time>2018-04-28T07:52:21Z</time>
      </trkpt>
      <trkpt lat="38.1555160" lon="-3.8976340">
        <ele>522.0</ele>
        <time>2018-04-28T07:52:22Z</time>
      </trkpt>
      <trkpt lat="38.1554920" lon="-3.8976380">
        <ele>522.0</ele>
        <time>2018-04-28T07:52:23Z</time>
      </trkpt>
      <trkpt lat="38.1554680" lon="-3.8976420">
        <ele>522.0</ele>
        <time>2018-04-28T07:52:24Z</time>
      </trkpt>
      <trkpt lat="38.1554420" lon="-3.8976460">
        <ele>522.2</ele>
        <time>2018-04-28T07:52:25Z</time>
      </trkpt>
      <trkpt lat="38.1554170" lon="-3.8976520">
        <ele>522.2</ele>
        <time>2018-04-28T07:52:26Z</time>
      </trkpt>
      <trkpt lat="38.1553970" lon="-3.8976680">
        <ele>522.2</ele>
        <time>2018-04-28T07:52:27Z</time>
      </trkpt>
      <trkpt lat="38.1553750" lon="-3.8976770">
        <ele>522.2</ele>
        <time>2018-04-28T07:52:28Z</time>
      </trkpt>
      <trkpt lat="38.1553580" lon="-3.8976860">
        <ele>522.2</ele>
        <time>2018-04-28T07:52:29Z</time>
      </trkpt>
      <trkpt lat="38.1553540" lon="-3.8976840">
        <ele>522.2</ele>
        <time>2018-04-28T07:52:30Z</time>
      </trkpt>
      <trkpt lat="38.1553530" lon="-3.8976790">
        <ele>522.0</ele>
        <time>2018-04-28T07:52:31Z</time>
      </trkpt>
      <trkpt lat="38.1553540" lon="-3.8976770">
        <ele>522.2</ele>
        <time>2018-04-28T07:52:32Z</time>
      </trkpt>
      <trkpt lat="38.1553520" lon="-3.8976760">
        <ele>521.8</ele>
        <time>2018-04-28T07:52:33Z</time>
      </trkpt>
      <trkpt lat="38.1553520" lon="-3.8976780">
        <ele>521.6</ele>
        <time>2018-04-28T07:52:34Z</time>
      </trkpt>
      <trkpt lat="38.1553530" lon="-3.8976820">
        <ele>521.4</ele>
        <time>2018-04-28T07:52:35Z</time>
      </trkpt>
      <trkpt lat="38.1553520" lon="-3.8976850">
        <ele>521.4</ele>
        <time>2018-04-28T07:52:36Z</time>
      </trkpt>
      <trkpt lat="38.1553540" lon="-3.8976880">
        <ele>521.6</ele>
        <time>2018-04-28T07:52:37Z</time>
      </trkpt>
      <trkpt lat="38.1552500" lon="-3.8979690">
        <ele>521.6</ele>
        <time>2018-04-28T07:53:44Z</time>
      </trkpt>
      <trkpt lat="38.1552420" lon="-3.8980120">
        <ele>521.6</ele>
        <time>2018-04-28T07:53:45Z</time>
      </trkpt>
      <trkpt lat="38.1552330" lon="-3.8980530">
        <ele>521.4</ele>
        <time>2018-04-28T07:53:46Z</time>
      </trkpt>
      <trkpt lat="38.1552220" lon="-3.8980950">
        <ele>521.4</ele>
        <time>2018-04-28T07:53:47Z</time>
      </trkpt>
      <trkpt lat="38.1552120" lon="-3.8981330">
        <ele>521.4</ele>
        <time>2018-04-28T07:53:48Z</time>
      </trkpt>
      <trkpt lat="38.1552060" lon="-3.8981700">
        <ele>521.4</ele>
        <time>2018-04-28T07:53:49Z</time>
      </trkpt>
      <trkpt lat="38.1552000" lon="-3.8982100">
        <ele>521.4</ele>
        <time>2018-04-28T07:53:50Z</time>
      </trkpt>
      <trkpt lat="38.1551960" lon="-3.8982530">
        <ele>521.2</ele>
        <time>2018-04-28T07:53:51Z</time>
      </trkpt>
      <trkpt lat="38.1551930" lon="-3.8982990">
        <ele>521.2</ele>
        <time>2018-04-28T07:53:52Z</time>
      </trkpt>
      <trkpt lat="38.1551870" lon="-3.8983470">
        <ele>521.0</ele>
        <time>2018-04-28T07:53:53Z</time>
      </trkpt>
      <trkpt lat="38.1551740" lon="-3.8983960">
        <ele>521.0</ele>
        <time>2018-04-28T07:53:54Z</time>
      </trkpt>
      <trkpt lat="38.1551580" lon="-3.8984400">
        <ele>520.8</ele>
        <time>2018-04-28T07:53:55Z</time>
      </trkpt>
      <trkpt lat="38.1551370" lon="-3.8984800">
        <ele>520.8</ele>
        <time>2018-04-28T07:53:56Z</time>
      </trkpt>
      <trkpt lat="38.1551120" lon="-3.8985130">
        <ele>521.0</ele>
        <time>2018-04-28T07:53:57Z</time>
      </trkpt>
      <trkpt lat="38.1550850" lon="-3.8985410">
        <ele>521.0</ele>
        <time>2018-04-28T07:53:58Z</time>
      </trkpt>
      <trkpt lat="38.1550560" lon="-3.8985630">
        <ele>521.2</ele>
        <time>2018-04-28T07:53:59Z</time>
      </trkpt>
      <trkpt lat="38.1550250" lon="-3.8985820">
        <ele>521.4</ele>
        <time>2018-04-28T07:54:00Z</time>
      </trkpt>
      <trkpt lat="38.1549930" lon="-3.8985960">
        <ele>521.6</ele>
        <time>2018-04-28T07:54:01Z</time>
      </trkpt>
      <trkpt lat="38.1549620" lon="-3.8986100">
        <ele>521.8</ele>
        <time>2018-04-28T07:54:02Z</time>
      </trkpt>
      <trkpt lat="38.1549340" lon="-3.8986320">
        <ele>522.2</ele>
        <time>2018-04-28T07:54:03Z</time>
      </trkpt>
      <trkpt lat="38.1549150" lon="-3.8986620">
        <ele>522.2</ele>
        <time>2018-04-28T07:54:04Z</time>
      </trkpt>
      <trkpt lat="38.1549040" lon="-3.8986910">
        <ele>522.4</ele>
        <time>2018-04-28T07:54:05Z</time>
      </trkpt>
      <trkpt lat="38.1548910" lon="-3.8987270">
        <ele>522.4</ele>
        <time>2018-04-28T07:54:06Z</time>
      </trkpt>
      <trkpt lat="38.1548810" lon="-3.8987640">
        <ele>522.6</ele>
        <time>2018-04-28T07:54:07Z</time>
      </trkpt>
      <trkpt lat="38.1548740" lon="-3.8988040">
        <ele>522.6</ele>
        <time>2018-04-28T07:54:08Z</time>
      </trkpt>
      <trkpt lat="38.1548710" lon="-3.8988450">
        <ele>522.6</ele>
        <time>2018-04-28T07:54:09Z</time>
      </trkpt>
      <trkpt lat="38.1548720" lon="-3.8988840">
        <ele>522.8</ele>
        <time>2018-04-28T07:54:10Z</time>
      </trkpt>
      <trkpt lat="38.1548710" lon="-3.8989240">
        <ele>523.0</ele>
        <time>2018-04-28T07:54:11Z</time>
      </trkpt>
      <trkpt lat="38.1548700" lon="-3.8989610">
        <ele>523.0</ele>
        <time>2018-04-28T07:54:12Z</time>
      </trkpt>
      <trkpt lat="38.1548670" lon="-3.8989960">
        <ele>523.2</ele>
        <time>2018-04-28T07:54:13Z</time>
      </trkpt>
      <trkpt lat="38.1548620" lon="-3.8990300">
        <ele>523.2</ele>
        <time>2018-04-28T07:54:14Z</time>
      </trkpt>
      <trkpt lat="38.1548560" lon="-3.8990620">
        <ele>523.2</ele>
        <time>2018-04-28T07:54:15Z</time>
      </trkpt>
      <trkpt lat="38.1548510" lon="-3.8990910">
        <ele>523.4</ele>
        <time>2018-04-28T07:54:16Z</time>
      </trkpt>
      <trkpt lat="38.1548490" lon="-3.8991200">
        <ele>523.4</ele>
        <time>2018-04-28T07:54:17Z</time>
      </trkpt>
      <trkpt lat="38.1548480" lon="-3.8991490">
        <ele>523.4</ele>
        <time>2018-04-28T07:54:18Z</time>
      </trkpt>
      <trkpt lat="38.1548490" lon="-3.8991780">
        <ele>523.6</ele>
        <time>2018-04-28T07:54:19Z</time>
      </trkpt>
      <trkpt lat="38.1548490" lon="-3.8992050">
        <ele>523.8</ele>
        <time>2018-04-28T07:54:20Z</time>
      </trkpt>
      <trkpt lat="38.1548510" lon="-3.8992340">
        <ele>523.8</ele>
        <time>2018-04-28T07:54:21Z</time>
      </trkpt>
      <trkpt lat="38.1548550" lon="-3.8992630">
        <ele>523.8</ele>
        <time>2018-04-28T07:54:22Z</time>
      </trkpt>
      <trkpt lat="38.1548590" lon="-3.8992940">
        <ele>524.0</ele>
        <time>2018-04-28T07:54:23Z</time>
      </trkpt>
      <trkpt lat="38.1548670" lon="-3.8993270">
        <ele>524.0</ele>
        <time>2018-04-28T07:54:24Z</time>
      </trkpt>
      <trkpt lat="38.1548730" lon="-3.8993560">
        <ele>524.0</ele>
        <time>2018-04-28T07:54:25Z</time>
      </trkpt>
      <trkpt lat="38.1548830" lon="-3.8993850">
        <ele>524.0</ele>
        <time>2018-04-28T07:54:26Z</time>
      </trkpt>
      <trkpt lat="38.1548930" lon="-3.8994180">
        <ele>524.2</ele>
        <time>2018-04-28T07:54:27Z</time>
      </trkpt>
      <trkpt lat="38.1549050" lon="-3.8994540">
        <ele>524.4</ele>
        <time>2018-04-28T07:54:28Z</time>
      </trkpt>
      <trkpt lat="38.1549180" lon="-3.8994880">
        <ele>524.6</ele>
        <time>2018-04-28T07:54:29Z</time>
      </trkpt>
      <trkpt lat="38.1549270" lon="-3.8995190">
        <ele>524.6</ele>
        <time>2018-04-28T07:54:30Z</time>
      </trkpt>
      <trkpt lat="38.1549290" lon="-3.8995510">
        <ele>524.8</ele>
        <time>2018-04-28T07:54:31Z</time>
      </trkpt>
      <trkpt lat="38.1549360" lon="-3.8995810">
        <ele>525.0</ele>
        <time>2018-04-28T07:54:32Z</time>
      </trkpt>
      <trkpt lat="38.1549530" lon="-3.8996040">
        <ele>525.2</ele>
        <time>2018-04-28T07:54:33Z</time>
      </trkpt>
      <trkpt lat="38.1549670" lon="-3.8996290">
        <ele>525.2</ele>
        <time>2018-04-28T07:54:34Z</time>
      </trkpt>
      <trkpt lat="38.1549800" lon="-3.8996550">
        <ele>525.4</ele>
        <time>2018-04-28T07:54:35Z</time>
      </trkpt>
      <trkpt lat="38.1549890" lon="-3.8996830">
        <ele>525.4</ele>
        <time>2018-04-28T07:54:36Z</time>
      </trkpt>
      <trkpt lat="38.1549980" lon="-3.8997120">
        <ele>525.6</ele>
        <time>2018-04-28T07:54:37Z</time>
      </trkpt>
      <trkpt lat="38.1550060" lon="-3.8997400">
        <ele>525.8</ele>
        <time>2018-04-28T07:54:38Z</time>
      </trkpt>
      <trkpt lat="38.1550130" lon="-3.8997670">
        <ele>525.8</ele>
        <time>2018-04-28T07:54:39Z</time>
      </trkpt>
      <trkpt lat="38.1550220" lon="-3.8997950">
        <ele>526.0</ele>
        <time>2018-04-28T07:54:40Z</time>
      </trkpt>
      <trkpt lat="38.1550320" lon="-3.8998200">
        <ele>526.0</ele>
        <time>2018-04-28T07:54:41Z</time>
      </trkpt>
      <trkpt lat="38.1550440" lon="-3.8998450">
        <ele>526.2</ele>
        <time>2018-04-28T07:54:42Z</time>
      </trkpt>
      <trkpt lat="38.1550570" lon="-3.8998690">
        <ele>526.2</ele>
        <time>2018-04-28T07:54:43Z</time>
      </trkpt>
      <trkpt lat="38.1550710" lon="-3.8998920">
        <ele>526.4</ele>
        <time>2018-04-28T07:54:44Z</time>
      </trkpt>
      <trkpt lat="38.1550850" lon="-3.8999130">
        <ele>526.4</ele>
        <time>2018-04-28T07:54:45Z</time>
      </trkpt>
      <trkpt lat="38.1551000" lon="-3.8999340">
        <ele>526.6</ele>
        <time>2018-04-28T07:54:46Z</time>
      </trkpt>
      <trkpt lat="38.1551160" lon="-3.8999510">
        <ele>526.8</ele>
        <time>2018-04-28T07:54:47Z</time>
      </trkpt>
      <trkpt lat="38.1551340" lon="-3.8999670">
        <ele>527.0</ele>
        <time>2018-04-28T07:54:48Z</time>
      </trkpt>
      <trkpt lat="38.1551500" lon="-3.8999840">
        <ele>527.0</ele>
        <time>2018-04-28T07:54:49Z</time>
      </trkpt>
      <trkpt lat="38.1551680" lon="-3.9000010">
        <ele>527.2</ele>
        <time>2018-04-28T07:54:50Z</time>
      </trkpt>
      <trkpt lat="38.1551860" lon="-3.9000170">
        <ele>527.2</ele>
        <time>2018-04-28T07:54:51Z</time>
      </trkpt>
      <trkpt lat="38.1552030" lon="-3.9000350">
        <ele>527.4</ele>
        <time>2018-04-28T07:54:52Z</time>
      </trkpt>
      <trkpt lat="38.1552200" lon="-3.9000510">
        <ele>527.4</ele>
        <time>2018-04-28T07:54:53Z</time>
      </trkpt>
      <trkpt lat="38.1552350" lon="-3.9000710">
        <ele>527.6</ele>
        <time>2018-04-28T07:54:54Z</time>
      </trkpt>
      <trkpt lat="38.1552510" lon="-3.9000920">
        <ele>527.6</ele>
        <time>2018-04-28T07:54:55Z</time>
      </trkpt>
      <trkpt lat="38.1552640" lon="-3.9001150">
        <ele>527.8</ele>
        <time>2018-04-28T07:54:56Z</time>
      </trkpt>
      <trkpt lat="38.1552770" lon="-3.9001390">
        <ele>527.8</ele>
        <time>2018-04-28T07:54:57Z</time>
      </trkpt>
      <trkpt lat="38.1552850" lon="-3.9001670">
        <ele>528.0</ele>
        <time>2018-04-28T07:54:58Z</time>
      </trkpt>
      <trkpt lat="38.1552930" lon="-3.9001950">
        <ele>528.2</ele>
        <time>2018-04-28T07:54:59Z</time>
      </trkpt>
      <trkpt lat="38.1553010" lon="-3.9002200">
        <ele>528.2</ele>
        <time>2018-04-28T07:55:00Z</time>
      </trkpt>
      <trkpt lat="38.1553100" lon="-3.9002500">
        <ele>528.4</ele>
        <time>2018-04-28T07:55:01Z</time>
      </trkpt>
      <trkpt lat="38.1553180" lon="-3.9002820">
        <ele>528.4</ele>
        <time>2018-04-28T07:55:02Z</time>
      </trkpt>
      <trkpt lat="38.1553230" lon="-3.9003100">
        <ele>528.6</ele>
        <time>2018-04-28T07:55:03Z</time>
      </trkpt>
      <trkpt lat="38.1553270" lon="-3.9003370">
        <ele>528.8</ele>
        <time>2018-04-28T07:55:04Z</time>
      </trkpt>
      <trkpt lat="38.1553330" lon="-3.9003620">
        <ele>528.8</ele>
        <time>2018-04-28T07:55:05Z</time>
      </trkpt>
      <trkpt lat="38.1553410" lon="-3.9003890">
        <ele>528.8</ele>
        <time>2018-04-28T07:55:06Z</time>
      </trkpt>
      <trkpt lat="38.1553520" lon="-3.9004160">
        <ele>528.8</ele>
        <time>2018-04-28T07:55:07Z</time>
      </trkpt>
      <trkpt lat="38.1553650" lon="-3.9004430">
        <ele>528.8</ele>
        <time>2018-04-28T07:55:08Z</time>
      </trkpt>
      <trkpt lat="38.1553800" lon="-3.9004690">
        <ele>528.8</ele>
        <time>2018-04-28T07:55:09Z</time>
      </trkpt>
      <trkpt lat="38.1553990" lon="-3.9004930">
        <ele>528.8</ele>
        <time>2018-04-28T07:55:10Z</time>
      </trkpt>
      <trkpt lat="38.1554170" lon="-3.9005170">
        <ele>528.6</ele>
        <time>2018-04-28T07:55:11Z</time>
      </trkpt>
      <trkpt lat="38.1554380" lon="-3.9005420">
        <ele>528.6</ele>
        <time>2018-04-28T07:55:12Z</time>
      </trkpt>
      <trkpt lat="38.1554660" lon="-3.9005620">
        <ele>528.6</ele>
        <time>2018-04-28T07:55:13Z</time>
      </trkpt>
      <trkpt lat="38.1554950" lon="-3.9005840">
        <ele>528.4</ele>
        <time>2018-04-28T07:55:14Z</time>
      </trkpt>
      <trkpt lat="38.1555230" lon="-3.9006120">
        <ele>528.4</ele>
        <time>2018-04-28T07:55:15Z</time>
      </trkpt>
      <trkpt lat="38.1555510" lon="-3.9006410">
        <ele>528.2</ele>
        <time>2018-04-28T07:55:16Z</time>
      </trkpt>
      <trkpt lat="38.1555780" lon="-3.9006730">
        <ele>528.2</ele>
        <time>2018-04-28T07:55:17Z</time>
      </trkpt>
      <trkpt lat="38.1556020" lon="-3.9007080">
        <ele>528.2</ele>
        <time>2018-04-28T07:55:18Z</time>
      </trkpt>
      <trkpt lat="38.1556250" lon="-3.9007430">
        <ele>528.2</ele>
        <time>2018-04-28T07:55:19Z</time>
      </trkpt>
      <trkpt lat="38.1556400" lon="-3.9007860">
        <ele>528.0</ele>
        <time>2018-04-28T07:55:20Z</time>
      </trkpt>
      <trkpt lat="38.1556520" lon="-3.9008320">
        <ele>528.0</ele>
        <time>2018-04-28T07:55:21Z</time>
      </trkpt>
      <trkpt lat="38.1556610" lon="-3.9008790">
        <ele>528.0</ele>
        <time>2018-04-28T07:55:22Z</time>
      </trkpt>
      <trkpt lat="38.1556580" lon="-3.9009320">
        <ele>528.0</ele>
        <time>2018-04-28T07:55:23Z</time>
      </trkpt>
      <trkpt lat="38.1556530" lon="-3.9009860">
        <ele>528.0</ele>
        <time>2018-04-28T07:55:24Z</time>
      </trkpt>
      <trkpt lat="38.1556460" lon="-3.9010410">
        <ele>527.8</ele>
        <time>2018-04-28T07:55:25Z</time>
      </trkpt>
      <trkpt lat="38.1556370" lon="-3.9010950">
        <ele>527.8</ele>
        <time>2018-04-28T07:55:26Z</time>
      </trkpt>
      <trkpt lat="38.1556220" lon="-3.9011480">
        <ele>527.6</ele>
        <time>2018-04-28T07:55:27Z</time>
      </trkpt>
      <trkpt lat="38.1556100" lon="-3.9012010">
        <ele>527.8</ele>
        <time>2018-04-28T07:55:28Z</time>
      </trkpt>
      <trkpt lat="38.1556010" lon="-3.9012520">
        <ele>527.8</ele>
        <time>2018-04-28T07:55:29Z</time>
      </trkpt>
      <trkpt lat="38.1555890" lon="-3.9013010">
        <ele>527.8</ele>
        <time>2018-04-28T07:55:30Z</time>
      </trkpt>
      <trkpt lat="38.1555730" lon="-3.9013450">
        <ele>527.8</ele>
        <time>2018-04-28T07:55:31Z</time>
      </trkpt>
      <trkpt lat="38.1555580" lon="-3.9013940">
        <ele>527.8</ele>
        <time>2018-04-28T07:55:32Z</time>
      </trkpt>
      <trkpt lat="38.1555450" lon="-3.9014380">
        <ele>527.8</ele>
        <time>2018-04-28T07:55:33Z</time>
      </trkpt>
      <trkpt lat="38.1555340" lon="-3.9014870">
        <ele>527.8</ele>
        <time>2018-04-28T07:55:34Z</time>
      </trkpt>
      <trkpt lat="38.1555240" lon="-3.9015370">
        <ele>527.8</ele>
        <time>2018-04-28T07:55:35Z</time>
      </trkpt>
      <trkpt lat="38.1555120" lon="-3.9015860">
        <ele>528.0</ele>
        <time>2018-04-28T07:55:36Z</time>
      </trkpt>
      <trkpt lat="38.1554970" lon="-3.9016340">
        <ele>527.8</ele>
        <time>2018-04-28T07:55:37Z</time>
      </trkpt>
      <trkpt lat="38.1554810" lon="-3.9016810">
        <ele>527.8</ele>
        <time>2018-04-28T07:55:38Z</time>
      </trkpt>
      <trkpt lat="38.1554660" lon="-3.9017290">
        <ele>527.8</ele>
        <time>2018-04-28T07:55:39Z</time>
      </trkpt>
      <trkpt lat="38.1554500" lon="-3.9017770">
        <ele>527.8</ele>
        <time>2018-04-28T07:55:40Z</time>
      </trkpt>
      <trkpt lat="38.1554350" lon="-3.9018250">
        <ele>527.8</ele>
        <time>2018-04-28T07:55:41Z</time>
      </trkpt>
      <trkpt lat="38.1554180" lon="-3.9018710">
        <ele>527.8</ele>
        <time>2018-04-28T07:55:42Z</time>
      </trkpt>
      <trkpt lat="38.1553990" lon="-3.9019170">
        <ele>528.0</ele>
        <time>2018-04-28T07:55:43Z</time>
      </trkpt>
      <trkpt lat="38.1553810" lon="-3.9019630">
        <ele>527.8</ele>
        <time>2018-04-28T07:55:44Z</time>
      </trkpt>
      <trkpt lat="38.1553580" lon="-3.9020070">
        <ele>527.8</ele>
        <time>2018-04-28T07:55:45Z</time>
      </trkpt>
      <trkpt lat="38.1553290" lon="-3.9020440">
        <ele>527.8</ele>
        <time>2018-04-28T07:55:46Z</time>
      </trkpt>
      <trkpt lat="38.1553020" lon="-3.9020800">
        <ele>527.8</ele>
        <time>2018-04-28T07:55:47Z</time>
      </trkpt>
      <trkpt lat="38.1552710" lon="-3.9021120">
        <ele>528.0</ele>
        <time>2018-04-28T07:55:48Z</time>
      </trkpt>
      <trkpt lat="38.1552370" lon="-3.9021350">
        <ele>528.0</ele>
        <time>2018-04-28T07:55:49Z</time>
      </trkpt>
      <trkpt lat="38.1552010" lon="-3.9021540">
        <ele>528.0</ele>
        <time>2018-04-28T07:55:50Z</time>
      </trkpt>
      <trkpt lat="38.1551650" lon="-3.9021680">
        <ele>528.0</ele>
        <time>2018-04-28T07:55:51Z</time>
      </trkpt>
      <trkpt lat="38.1551250" lon="-3.9021720">
        <ele>527.8</ele>
        <time>2018-04-28T07:55:52Z</time>
      </trkpt>
      <trkpt lat="38.1550880" lon="-3.9021780">
        <ele>528.0</ele>
        <time>2018-04-28T07:55:53Z</time>
      </trkpt>
      <trkpt lat="38.1550520" lon="-3.9021820">
        <ele>528.2</ele>
        <time>2018-04-28T07:55:54Z</time>
      </trkpt>
      <trkpt lat="38.1550180" lon="-3.9021930">
        <ele>528.4</ele>
        <time>2018-04-28T07:55:55Z</time>
      </trkpt>
      <trkpt lat="38.1549890" lon="-3.9022140">
        <ele>528.4</ele>
        <time>2018-04-28T07:55:56Z</time>
      </trkpt>
      <trkpt lat="38.1549640" lon="-3.9022350">
        <ele>528.8</ele>
        <time>2018-04-28T07:55:57Z</time>
      </trkpt>
      <trkpt lat="38.1549440" lon="-3.9022570">
        <ele>529.0</ele>
        <time>2018-04-28T07:55:58Z</time>
      </trkpt>
      <trkpt lat="38.1549260" lon="-3.9022840">
        <ele>529.2</ele>
        <time>2018-04-28T07:55:59Z</time>
      </trkpt>
      <trkpt lat="38.1549120" lon="-3.9023090">
        <ele>529.4</ele>
        <time>2018-04-28T07:56:00Z</time>
      </trkpt>
      <trkpt lat="38.1549010" lon="-3.9023390">
        <ele>529.6</ele>
        <time>2018-04-28T07:56:01Z</time>
      </trkpt>
      <trkpt lat="38.1548920" lon="-3.9023710">
        <ele>529.8</ele>
        <time>2018-04-28T07:56:02Z</time>
      </trkpt>
      <trkpt lat="38.1548840" lon="-3.9024000">
        <ele>530.0</ele>
        <time>2018-04-28T07:56:03Z</time>
      </trkpt>
      <trkpt lat="38.1548780" lon="-3.9024300">
        <ele>530.2</ele>
        <time>2018-04-28T07:56:04Z</time>
      </trkpt>
      <trkpt lat="38.1548750" lon="-3.9024600">
        <ele>530.4</ele>
        <time>2018-04-28T07:56:05Z</time>
      </trkpt>
      <trkpt lat="38.1548730" lon="-3.9024910">
        <ele>530.4</ele>
        <time>2018-04-28T07:56:06Z</time>
      </trkpt>
      <trkpt lat="38.1548690" lon="-3.9025200">
        <ele>530.6</ele>
        <time>2018-04-28T07:56:07Z</time>
      </trkpt>
      <trkpt lat="38.1548640" lon="-3.9025470">
        <ele>530.8</ele>
        <time>2018-04-28T07:56:08Z</time>
      </trkpt>
      <trkpt lat="38.1548570" lon="-3.9025730">
        <ele>530.8</ele>
        <time>2018-04-28T07:56:09Z</time>
      </trkpt>
      <trkpt lat="38.1548500" lon="-3.9025990">
        <ele>531.0</ele>
        <time>2018-04-28T07:56:10Z</time>
      </trkpt>
      <trkpt lat="38.1548420" lon="-3.9026240">
        <ele>531.2</ele>
        <time>2018-04-28T07:56:11Z</time>
      </trkpt>
      <trkpt lat="38.1548340" lon="-3.9026450">
        <ele>531.4</ele>
        <time>2018-04-28T07:56:12Z</time>
      </trkpt>
      <trkpt lat="38.1548270" lon="-3.9026670">
        <ele>531.4</ele>
        <time>2018-04-28T07:56:13Z</time>
      </trkpt>
      <trkpt lat="38.1548200" lon="-3.9026900">
        <ele>531.6</ele>
        <time>2018-04-28T07:56:14Z</time>
      </trkpt>
      <trkpt lat="38.1548130" lon="-3.9027150">
        <ele>531.8</ele>
        <time>2018-04-28T07:56:15Z</time>
      </trkpt>
      <trkpt lat="38.1548080" lon="-3.9027420">
        <ele>532.0</ele>
        <time>2018-04-28T07:56:16Z</time>
      </trkpt>
      <trkpt lat="38.1548030" lon="-3.9027660">
        <ele>532.2</ele>
        <time>2018-04-28T07:56:17Z</time>
      </trkpt>
      <trkpt lat="38.1547950" lon="-3.9027890">
        <ele>532.4</ele>
        <time>2018-04-28T07:56:18Z</time>
      </trkpt>
      <trkpt lat="38.1547890" lon="-3.9028140">
        <ele>532.6</ele>
        <time>2018-04-28T07:56:19Z</time>
      </trkpt>
      <trkpt lat="38.1547820" lon="-3.9028380">
        <ele>532.6</ele>
        <time>2018-04-28T07:56:20Z</time>
      </trkpt>
      <trkpt lat="38.1547760" lon="-3.9028690">
        <ele>532.8</ele>
        <time>2018-04-28T07:56:21Z</time>
      </trkpt>
      <trkpt lat="38.1547720" lon="-3.9029000">
        <ele>533.0</ele>
        <time>2018-04-28T07:56:22Z</time>
      </trkpt>
      <trkpt lat="38.1547680" lon="-3.9029280">
        <ele>533.2</ele>
        <time>2018-04-28T07:56:23Z</time>
      </trkpt>
      <trkpt lat="38.1547620" lon="-3.9029510">
        <ele>533.4</ele>
        <time>2018-04-28T07:56:24Z</time>
      </trkpt>
      <trkpt lat="38.1547550" lon="-3.9029730">
        <ele>533.6</ele>
        <time>2018-04-28T07:56:25Z</time>
      </trkpt>
      <trkpt lat="38.1547440" lon="-3.9029910">
        <ele>533.6</ele>
        <time>2018-04-28T07:56:26Z</time>
      </trkpt>
      <trkpt lat="38.1547300" lon="-3.9030070">
        <ele>533.8</ele>
        <time>2018-04-28T07:56:27Z</time>
      </trkpt>
      <trkpt lat="38.1547140" lon="-3.9030180">
        <ele>534.0</ele>
        <time>2018-04-28T07:56:28Z</time>
      </trkpt>
      <trkpt lat="38.1546980" lon="-3.9030230">
        <ele>534.2</ele>
        <time>2018-04-28T07:56:29Z</time>
      </trkpt>
      <trkpt lat="38.1546830" lon="-3.9030280">
        <ele>534.2</ele>
        <time>2018-04-28T07:56:30Z</time>
      </trkpt>
      <trkpt lat="38.1546690" lon="-3.9030320">
        <ele>534.2</ele>
        <time>2018-04-28T07:56:31Z</time>
      </trkpt>
      <trkpt lat="38.1546550" lon="-3.9030350">
        <ele>534.4</ele>
        <time>2018-04-28T07:56:32Z</time>
      </trkpt>
      <trkpt lat="38.1546420" lon="-3.9030360">
        <ele>534.4</ele>
        <time>2018-04-28T07:56:33Z</time>
      </trkpt>
      <trkpt lat="38.1546300" lon="-3.9030320">
        <ele>534.4</ele>
        <time>2018-04-28T07:56:34Z</time>
      </trkpt>
      <trkpt lat="38.1546210" lon="-3.9030320">
        <ele>534.6</ele>
        <time>2018-04-28T07:56:35Z</time>
      </trkpt>
      <trkpt lat="38.1546120" lon="-3.9030300">
        <ele>534.6</ele>
        <time>2018-04-28T07:56:36Z</time>
      </trkpt>
      <trkpt lat="38.1546000" lon="-3.9030240">
        <ele>534.8</ele>
        <time>2018-04-28T07:56:37Z</time>
      </trkpt>
      <trkpt lat="38.1545860" lon="-3.9030250">
        <ele>534.8</ele>
        <time>2018-04-28T07:56:38Z</time>
      </trkpt>
      <trkpt lat="38.1545710" lon="-3.9030210">
        <ele>535.0</ele>
        <time>2018-04-28T07:56:39Z</time>
      </trkpt>
      <trkpt lat="38.1545530" lon="-3.9030150">
        <ele>535.0</ele>
        <time>2018-04-28T07:56:40Z</time>
      </trkpt>
      <trkpt lat="38.1545380" lon="-3.9030130">
        <ele>535.0</ele>
        <time>2018-04-28T07:56:41Z</time>
      </trkpt>
      <trkpt lat="38.1545220" lon="-3.9030100">
        <ele>535.2</ele>
        <time>2018-04-28T07:56:42Z</time>
      </trkpt>
      <trkpt lat="38.1545040" lon="-3.9030070">
        <ele>535.2</ele>
        <time>2018-04-28T07:56:43Z</time>
      </trkpt>
      <trkpt lat="38.1544880" lon="-3.9030000">
        <ele>535.4</ele>
        <time>2018-04-28T07:56:44Z</time>
      </trkpt>
      <trkpt lat="38.1544700" lon="-3.9029940">
        <ele>535.4</ele>
        <time>2018-04-28T07:56:45Z</time>
      </trkpt>
      <trkpt lat="38.1544490" lon="-3.9029850">
        <ele>535.4</ele>
        <time>2018-04-28T07:56:46Z</time>
      </trkpt>
      <trkpt lat="38.1544280" lon="-3.9029770">
        <ele>535.6</ele>
        <time>2018-04-28T07:56:47Z</time>
      </trkpt>
      <trkpt lat="38.1544090" lon="-3.9029710">
        <ele>535.6</ele>
        <time>2018-04-28T07:56:48Z</time>
      </trkpt>
      <trkpt lat="38.1543910" lon="-3.9029660">
        <ele>535.8</ele>
        <time>2018-04-28T07:56:49Z</time>
      </trkpt>
      <trkpt lat="38.1543730" lon="-3.9029640">
        <ele>536.0</ele>
        <time>2018-04-28T07:56:50Z</time>
      </trkpt>
      <trkpt lat="38.1543530" lon="-3.9029600">
        <ele>536.0</ele>
        <time>2018-04-28T07:56:51Z</time>
      </trkpt>
      <trkpt lat="38.1543340" lon="-3.9029550">
        <ele>536.2</ele>
        <time>2018-04-28T07:56:52Z</time>
      </trkpt>
      <trkpt lat="38.1543150" lon="-3.9029500">
        <ele>536.2</ele>
        <time>2018-04-28T07:56:53Z</time>
      </trkpt>
      <trkpt lat="38.1542940" lon="-3.9029420">
        <ele>536.4</ele>
        <time>2018-04-28T07:56:54Z</time>
      </trkpt>
      <trkpt lat="38.1542750" lon="-3.9029340">
        <ele>536.6</ele>
        <time>2018-04-28T07:56:55Z</time>
      </trkpt>
      <trkpt lat="38.1542550" lon="-3.9029310">
        <ele>536.6</ele>
        <time>2018-04-28T07:56:56Z</time>
      </trkpt>
      <trkpt lat="38.1542350" lon="-3.9029270">
        <ele>536.8</ele>
        <time>2018-04-28T07:56:57Z</time>
      </trkpt>
      <trkpt lat="38.1542110" lon="-3.9029070">
        <ele>536.8</ele>
        <time>2018-04-28T07:56:58Z</time>
      </trkpt>
      <trkpt lat="38.1541910" lon="-3.9029010">
        <ele>537.0</ele>
        <time>2018-04-28T07:56:59Z</time>
      </trkpt>
      <trkpt lat="38.1541710" lon="-3.9028950">
        <ele>537.0</ele>
        <time>2018-04-28T07:57:00Z</time>
      </trkpt>
      <trkpt lat="38.1541520" lon="-3.9028910">
        <ele>537.2</ele>
        <time>2018-04-28T07:57:01Z</time>
      </trkpt>
      <trkpt lat="38.1541330" lon="-3.9028860">
        <ele>537.2</ele>
        <time>2018-04-28T07:57:02Z</time>
      </trkpt>
      <trkpt lat="38.1541110" lon="-3.9028760">
        <ele>537.4</ele>
        <time>2018-04-28T07:57:03Z</time>
      </trkpt>
      <trkpt lat="38.1540920" lon="-3.9028740">
        <ele>537.6</ele>
        <time>2018-04-28T07:57:04Z</time>
      </trkpt>
      <trkpt lat="38.1540720" lon="-3.9028690">
        <ele>537.6</ele>
        <time>2018-04-28T07:57:05Z</time>
      </trkpt>
      <trkpt lat="38.1540530" lon="-3.9028660">
        <ele>537.8</ele>
        <time>2018-04-28T07:57:06Z</time>
      </trkpt>
      <trkpt lat="38.1540320" lon="-3.9028660">
        <ele>537.8</ele>
        <time>2018-04-28T07:57:07Z</time>
      </trkpt>
      <trkpt lat="38.1540140" lon="-3.9028650">
        <ele>538.0</ele>
        <time>2018-04-28T07:57:08Z</time>
      </trkpt>
      <trkpt lat="38.1539950" lon="-3.9028620">
        <ele>538.0</ele>
        <time>2018-04-28T07:57:09Z</time>
      </trkpt>
      <trkpt lat="38.1539750" lon="-3.9028560">
        <ele>538.2</ele>
        <time>2018-04-28T07:57:10Z</time>
      </trkpt>
      <trkpt lat="38.1539560" lon="-3.9028520">
        <ele>538.4</ele>
        <time>2018-04-28T07:57:11Z</time>
      </trkpt>
      <trkpt lat="38.1539370" lon="-3.9028500">
        <ele>538.4</ele>
        <time>2018-04-28T07:57:12Z</time>
      </trkpt>
      <trkpt lat="38.1539170" lon="-3.9028450">
        <ele>538.6</ele>
        <time>2018-04-28T07:57:13Z</time>
      </trkpt>
      <trkpt lat="38.1538960" lon="-3.9028360">
        <ele>538.6</ele>
        <time>2018-04-28T07:57:14Z</time>
      </trkpt>
      <trkpt lat="38.1538730" lon="-3.9028260">
        <ele>538.8</ele>
        <time>2018-04-28T07:57:15Z</time>
      </trkpt>
      <trkpt lat="38.1538510" lon="-3.9028210">
        <ele>538.8</ele>
        <time>2018-04-28T07:57:16Z</time>
      </trkpt>
      <trkpt lat="38.1538320" lon="-3.9028180">
        <ele>539.0</ele>
        <time>2018-04-28T07:57:17Z</time>
      </trkpt>
      <trkpt lat="38.1538140" lon="-3.9028090">
        <ele>539.2</ele>
        <time>2018-04-28T07:57:18Z</time>
      </trkpt>
      <trkpt lat="38.1537980" lon="-3.9028000">
        <ele>539.2</ele>
        <time>2018-04-28T07:57:19Z</time>
      </trkpt>
      <trkpt lat="38.1537770" lon="-3.9027990">
        <ele>539.2</ele>
        <time>2018-04-28T07:57:20Z</time>
      </trkpt>
      <trkpt lat="38.1537540" lon="-3.9027920">
        <ele>539.4</ele>
        <time>2018-04-28T07:57:21Z</time>
      </trkpt>
      <trkpt lat="38.1537330" lon="-3.9027870">
        <ele>539.4</ele>
        <time>2018-04-28T07:57:22Z</time>
      </trkpt>
      <trkpt lat="38.1537090" lon="-3.9027800">
        <ele>539.6</ele>
        <time>2018-04-28T07:57:23Z</time>
      </trkpt>
      <trkpt lat="38.1536870" lon="-3.9027750">
        <ele>539.6</ele>
        <time>2018-04-28T07:57:24Z</time>
      </trkpt>
      <trkpt lat="38.1536680" lon="-3.9027740">
        <ele>539.8</ele>
        <time>2018-04-28T07:57:25Z</time>
      </trkpt>
      <trkpt lat="38.1536460" lon="-3.9027680">
        <ele>539.8</ele>
        <time>2018-04-28T07:57:26Z</time>
      </trkpt>
      <trkpt lat="38.1536230" lon="-3.9027600">
        <ele>539.8</ele>
        <time>2018-04-28T07:57:27Z</time>
      </trkpt>
      <trkpt lat="38.1536010" lon="-3.9027540">
        <ele>539.8</ele>
        <time>2018-04-28T07:57:28Z</time>
      </trkpt>
      <trkpt lat="38.1535790" lon="-3.9027480">
        <ele>540.0</ele>
        <time>2018-04-28T07:57:29Z</time>
      </trkpt>
      <trkpt lat="38.1535570" lon="-3.9027420">
        <ele>540.2</ele>
        <time>2018-04-28T07:57:30Z</time>
      </trkpt>
      <trkpt lat="38.1535360" lon="-3.9027350">
        <ele>540.2</ele>
        <time>2018-04-28T07:57:31Z</time>
      </trkpt>
      <trkpt lat="38.1535120" lon="-3.9027280">
        <ele>540.2</ele>
        <time>2018-04-28T07:57:32Z</time>
      </trkpt>
      <trkpt lat="38.1534900" lon="-3.9027220">
        <ele>540.2</ele>
        <time>2018-04-28T07:57:33Z</time>
      </trkpt>
      <trkpt lat="38.1534650" lon="-3.9027150">
        <ele>540.4</ele>
        <time>2018-04-28T07:57:34Z</time>
      </trkpt>
      <trkpt lat="38.1534420" lon="-3.9027110">
        <ele>540.4</ele>
        <time>2018-04-28T07:57:35Z</time>
      </trkpt>
      <trkpt lat="38.1534160" lon="-3.9027080">
        <ele>540.4</ele>
        <time>2018-04-28T07:57:36Z</time>
      </trkpt>
      <trkpt lat="38.1533890" lon="-3.9027040">
        <ele>540.2</ele>
        <time>2018-04-28T07:57:37Z</time>
      </trkpt>
      <trkpt lat="38.1533600" lon="-3.9026970">
        <ele>540.0</ele>
        <time>2018-04-28T07:57:38Z</time>
      </trkpt>
      <trkpt lat="38.1533290" lon="-3.9026910">
        <ele>539.8</ele>
        <time>2018-04-28T07:57:39Z</time>
      </trkpt>
      <trkpt lat="38.1532960" lon="-3.9026840">
        <ele>539.6</ele>
        <time>2018-04-28T07:57:40Z</time>
      </trkpt>
      <trkpt lat="38.1532580" lon="-3.9026720">
        <ele>539.2</ele>
        <time>2018-04-28T07:57:41Z</time>
      </trkpt>
      <trkpt lat="38.1532180" lon="-3.9026650">
        <ele>539.0</ele>
        <time>2018-04-28T07:57:42Z</time>
      </trkpt>
      <trkpt lat="38.1531740" lon="-3.9026500">
        <ele>538.4</ele>
        <time>2018-04-28T07:57:43Z</time>
      </trkpt>
      <trkpt lat="38.1531290" lon="-3.9026380">
        <ele>538.2</ele>
        <time>2018-04-28T07:57:44Z</time>
      </trkpt>
      <trkpt lat="38.1530810" lon="-3.9026220">
        <ele>538.0</ele>
        <time>2018-04-28T07:57:45Z</time>
      </trkpt>
      <trkpt lat="38.1530280" lon="-3.9026080">
        <ele>537.6</ele>
        <time>2018-04-28T07:57:46Z</time>
      </trkpt>
      <trkpt lat="38.1529730" lon="-3.9025940">
        <ele>537.0</ele>
        <time>2018-04-28T07:57:47Z</time>
      </trkpt>
      <trkpt lat="38.1529150" lon="-3.9025870">
        <ele>536.4</ele>
        <time>2018-04-28T07:57:48Z</time>
      </trkpt>
      <trkpt lat="38.1528590" lon="-3.9026050">
        <ele>535.8</ele>
        <time>2018-04-28T07:57:49Z</time>
      </trkpt>
      <trkpt lat="38.1527950" lon="-3.9026150">
        <ele>535.2</ele>
        <time>2018-04-28T07:57:50Z</time>
      </trkpt>
      <trkpt lat="38.1527270" lon="-3.9026330">
        <ele>534.6</ele>
        <time>2018-04-28T07:57:51Z</time>
      </trkpt>
      <trkpt lat="38.1526530" lon="-3.9026490">
        <ele>534.0</ele>
        <time>2018-04-28T07:57:52Z</time>
      </trkpt>
      <trkpt lat="38.1525750" lon="-3.9026680">
        <ele>533.2</ele>
        <time>2018-04-28T07:57:53Z</time>
      </trkpt>
      <trkpt lat="38.1524980" lon="-3.9027030">
        <ele>532.8</ele>
        <time>2018-04-28T07:57:54Z</time>
      </trkpt>
      <trkpt lat="38.1524180" lon="-3.9027370">
        <ele>532.4</ele>
        <time>2018-04-28T07:57:55Z</time>
      </trkpt>
      <trkpt lat="38.1523370" lon="-3.9027700">
        <ele>532.0</ele>
        <time>2018-04-28T07:57:56Z</time>
      </trkpt>
      <trkpt lat="38.1522550" lon="-3.9027910">
        <ele>531.6</ele>
        <time>2018-04-28T07:57:57Z</time>
      </trkpt>
      <trkpt lat="38.1521700" lon="-3.9027900">
        <ele>531.2</ele>
        <time>2018-04-28T07:57:58Z</time>
      </trkpt>
      <trkpt lat="38.1520890" lon="-3.9027790">
        <ele>530.4</ele>
        <time>2018-04-28T07:57:59Z</time>
      </trkpt>
      <trkpt lat="38.1520160" lon="-3.9027850">
        <ele>530.0</ele>
        <time>2018-04-28T07:58:00Z</time>
      </trkpt>
      <trkpt lat="38.1519480" lon="-3.9028130">
        <ele>529.4</ele>
        <time>2018-04-28T07:58:01Z</time>
      </trkpt>
      <trkpt lat="38.1518800" lon="-3.9028520">
        <ele>529.0</ele>
        <time>2018-04-28T07:58:02Z</time>
      </trkpt>
      <trkpt lat="38.1518070" lon="-3.9028810">
        <ele>528.4</ele>
        <time>2018-04-28T07:58:03Z</time>
      </trkpt>
      <trkpt lat="38.1517300" lon="-3.9028980">
        <ele>528.2</ele>
        <time>2018-04-28T07:58:04Z</time>
      </trkpt>
      <trkpt lat="38.1516490" lon="-3.9028890">
        <ele>527.8</ele>
        <time>2018-04-28T07:58:05Z</time>
      </trkpt>
      <trkpt lat="38.1515710" lon="-3.9028680">
        <ele>527.6</ele>
        <time>2018-04-28T07:58:06Z</time>
      </trkpt>
      <trkpt lat="38.1514990" lon="-3.9028540">
        <ele>527.2</ele>
        <time>2018-04-28T07:58:07Z</time>
      </trkpt>
      <trkpt lat="38.1514330" lon="-3.9028650">
        <ele>526.6</ele>
        <time>2018-04-28T07:58:08Z</time>
      </trkpt>
      <trkpt lat="38.1513730" lon="-3.9029010">
        <ele>526.0</ele>
        <time>2018-04-28T07:58:09Z</time>
      </trkpt>
      <trkpt lat="38.1513170" lon="-3.9029510">
        <ele>525.4</ele>
        <time>2018-04-28T07:58:10Z</time>
      </trkpt>
      <trkpt lat="38.1512630" lon="-3.9030170">
        <ele>525.0</ele>
        <time>2018-04-28T07:58:11Z</time>
      </trkpt>
      <trkpt lat="38.1512110" lon="-3.9030910">
        <ele>524.4</ele>
        <time>2018-04-28T07:58:12Z</time>
      </trkpt>
      <trkpt lat="38.1511670" lon="-3.9031730">
        <ele>524.0</ele>
        <time>2018-04-28T07:58:13Z</time>
      </trkpt>
      <trkpt lat="38.1511340" lon="-3.9032690">
        <ele>523.6</ele>
        <time>2018-04-28T07:58:14Z</time>
      </trkpt>
      <trkpt lat="38.1511040" lon="-3.9033660">
        <ele>523.0</ele>
        <time>2018-04-28T07:58:15Z</time>
      </trkpt>
      <trkpt lat="38.1510690" lon="-3.9034550">
        <ele>522.4</ele>
        <time>2018-04-28T07:58:16Z</time>
      </trkpt>
      <trkpt lat="38.1510240" lon="-3.9035310">
        <ele>522.4</ele>
        <time>2018-04-28T07:58:17Z</time>
      </trkpt>
      <trkpt lat="38.1509670" lon="-3.9035870">
        <ele>522.0</ele>
        <time>2018-04-28T07:58:18Z</time>
      </trkpt>
      <trkpt lat="38.1509010" lon="-3.9036170">
        <ele>521.4</ele>
        <time>2018-04-28T07:58:19Z</time>
      </trkpt>
      <trkpt lat="38.1508330" lon="-3.9036200">
        <ele>521.4</ele>
        <time>2018-04-28T07:58:20Z</time>
      </trkpt>
      <trkpt lat="38.1507690" lon="-3.9035880">
        <ele>521.0</ele>
        <time>2018-04-28T07:58:21Z</time>
      </trkpt>
      <trkpt lat="38.1507180" lon="-3.9035320">
        <ele>520.8</ele>
        <time>2018-04-28T07:58:22Z</time>
      </trkpt>
      <trkpt lat="38.1506800" lon="-3.9034610">
        <ele>520.4</ele>
        <time>2018-04-28T07:58:23Z</time>
      </trkpt>
      <trkpt lat="38.1506490" lon="-3.9033820">
        <ele>520.2</ele>
        <time>2018-04-28T07:58:24Z</time>
      </trkpt>
      <trkpt lat="38.1506300" lon="-3.9032950">
        <ele>519.8</ele>
        <time>2018-04-28T07:58:25Z</time>
      </trkpt>
      <trkpt lat="38.1506120" lon="-3.9032010">
        <ele>519.4</ele>
        <time>2018-04-28T07:58:26Z</time>
      </trkpt>
      <trkpt lat="38.1505890" lon="-3.9031030">
        <ele>519.0</ele>
        <time>2018-04-28T07:58:27Z</time>
      </trkpt>
      <trkpt lat="38.1505630" lon="-3.9030100">
        <ele>518.6</ele>
        <time>2018-04-28T07:58:28Z</time>
      </trkpt>
      <trkpt lat="38.1505230" lon="-3.9029160">
        <ele>518.0</ele>
        <time>2018-04-28T07:58:29Z</time>
      </trkpt>
      <trkpt lat="38.1504700" lon="-3.9028260">
        <ele>517.2</ele>
        <time>2018-04-28T07:58:30Z</time>
      </trkpt>
      <trkpt lat="38.1504120" lon="-3.9027390">
        <ele>516.2</ele>
        <time>2018-04-28T07:58:31Z</time>
      </trkpt>
      <trkpt lat="38.1503500" lon="-3.9026510">
        <ele>515.4</ele>
        <time>2018-04-28T07:58:32Z</time>
      </trkpt>
      <trkpt lat="38.1502880" lon="-3.9025620">
        <ele>514.8</ele>
        <time>2018-04-28T07:58:33Z</time>
      </trkpt>
      <trkpt lat="38.1502310" lon="-3.9024660">
        <ele>514.0</ele>
        <time>2018-04-28T07:58:34Z</time>
      </trkpt>
      <trkpt lat="38.1501900" lon="-3.9023570">
        <ele>513.2</ele>
        <time>2018-04-28T07:58:35Z</time>
      </trkpt>
      <trkpt lat="38.1501610" lon="-3.9022360">
        <ele>512.2</ele>
        <time>2018-04-28T07:58:36Z</time>
      </trkpt>
      <trkpt lat="38.1501500" lon="-3.9021050">
        <ele>511.4</ele>
        <time>2018-04-28T07:58:37Z</time>
      </trkpt>
      <trkpt lat="38.1501470" lon="-3.9019710">
        <ele>510.6</ele>
        <time>2018-04-28T07:58:38Z</time>
      </trkpt>
      <trkpt lat="38.1501490" lon="-3.9018380">
        <ele>510.0</ele>
        <time>2018-04-28T07:58:39Z</time>
      </trkpt>
      <trkpt lat="38.1501500" lon="-3.9017010">
        <ele>508.6</ele>
        <time>2018-04-28T07:58:40Z</time>
      </trkpt>
      <trkpt lat="38.1501560" lon="-3.9015630">
        <ele>507.8</ele>
        <time>2018-04-28T07:58:41Z</time>
      </trkpt>
      <trkpt lat="38.1501600" lon="-3.9014390">
        <ele>506.2</ele>
        <time>2018-04-28T07:58:42Z</time>
      </trkpt>
      <trkpt lat="38.1501590" lon="-3.9013290">
        <ele>505.6</ele>
        <time>2018-04-28T07:58:43Z</time>
      </trkpt>
      <trkpt lat="38.1501480" lon="-3.9012250">
        <ele>505.0</ele>
        <time>2018-04-28T07:58:44Z</time>
      </trkpt>
      <trkpt lat="38.1501120" lon="-3.9011260">
        <ele>504.2</ele>
        <time>2018-04-28T07:58:45Z</time>
      </trkpt>
      <trkpt lat="38.1500690" lon="-3.9010290">
        <ele>503.6</ele>
        <time>2018-04-28T07:58:46Z</time>
      </trkpt>
      <trkpt lat="38.1500320" lon="-3.9009250">
        <ele>502.8</ele>
        <time>2018-04-28T07:58:47Z</time>
      </trkpt>
      <trkpt lat="38.1500120" lon="-3.9008060">
        <ele>502.0</ele>
        <time>2018-04-28T07:58:48Z</time>
      </trkpt>
      <trkpt lat="38.1499960" lon="-3.9006930">
        <ele>501.6</ele>
        <time>2018-04-28T07:58:49Z</time>
      </trkpt>
      <trkpt lat="38.1499650" lon="-3.9005900">
        <ele>500.8</ele>
        <time>2018-04-28T07:58:50Z</time>
      </trkpt>
      <trkpt lat="38.1499230" lon="-3.9004940">
        <ele>499.8</ele>
        <time>2018-04-28T07:58:51Z</time>
      </trkpt>
      <trkpt lat="38.1498860" lon="-3.9003930">
        <ele>499.2</ele>
        <time>2018-04-28T07:58:52Z</time>
      </trkpt>
      <trkpt lat="38.1498720" lon="-3.9002860">
        <ele>498.4</ele>
        <time>2018-04-28T07:58:53Z</time>
      </trkpt>
      <trkpt lat="38.1498820" lon="-3.9001800">
        <ele>497.8</ele>
        <time>2018-04-28T07:58:54Z</time>
      </trkpt>
      <trkpt lat="38.1499140" lon="-3.9000770">
        <ele>497.2</ele>
        <time>2018-04-28T07:58:55Z</time>
      </trkpt>
      <trkpt lat="38.1499560" lon="-3.8999750">
        <ele>496.4</ele>
        <time>2018-04-28T07:58:56Z</time>
      </trkpt>
      <trkpt lat="38.1499870" lon="-3.8998670">
        <ele>495.8</ele>
        <time>2018-04-28T07:58:57Z</time>
      </trkpt>
      <trkpt lat="38.1500080" lon="-3.8997500">
        <ele>494.8</ele>
        <time>2018-04-28T07:58:58Z</time>
      </trkpt>
      <trkpt lat="38.1500280" lon="-3.8996270">
        <ele>493.8</ele>
        <time>2018-04-28T07:58:59Z</time>
      </trkpt>
      <trkpt lat="38.1500480" lon="-3.8994990">
        <ele>493.0</ele>
        <time>2018-04-28T07:59:00Z</time>
      </trkpt>
      <trkpt lat="38.1500630" lon="-3.8993670">
        <ele>492.6</ele>
        <time>2018-04-28T07:59:01Z</time>
      </trkpt>
      <trkpt lat="38.1500870" lon="-3.8992360">
        <ele>491.6</ele>
        <time>2018-04-28T07:59:02Z</time>
      </trkpt>
      <trkpt lat="38.1501070" lon="-3.8991040">
        <ele>490.8</ele>
        <time>2018-04-28T07:59:03Z</time>
      </trkpt>
      <trkpt lat="38.1501190" lon="-3.8989840">
        <ele>490.0</ele>
        <time>2018-04-28T07:59:04Z</time>
      </trkpt>
      <trkpt lat="38.1501310" lon="-3.8988820">
        <ele>489.4</ele>
        <time>2018-04-28T07:59:05Z</time>
      </trkpt>
      <trkpt lat="38.1501380" lon="-3.8987940">
        <ele>488.6</ele>
        <time>2018-04-28T07:59:06Z</time>
      </trkpt>
      <trkpt lat="38.1501280" lon="-3.8987180">
        <ele>488.0</ele>
        <time>2018-04-28T07:59:07Z</time>
      </trkpt>
      <trkpt lat="38.1501030" lon="-3.8986560">
        <ele>487.6</ele>
        <time>2018-04-28T07:59:08Z</time>
      </trkpt>
      <trkpt lat="38.1500600" lon="-3.8986060">
        <ele>487.0</ele>
        <time>2018-04-28T07:59:09Z</time>
      </trkpt>
      <trkpt lat="38.1500070" lon="-3.8985600">
        <ele>486.2</ele>
        <time>2018-04-28T07:59:10Z</time>
      </trkpt>
      <trkpt lat="38.1499480" lon="-3.8985150">
        <ele>485.8</ele>
        <time>2018-04-28T07:59:11Z</time>
      </trkpt>
      <trkpt lat="38.1498960" lon="-3.8984520">
        <ele>485.4</ele>
        <time>2018-04-28T07:59:12Z</time>
      </trkpt>
      <trkpt lat="38.1498610" lon="-3.8983690">
        <ele>484.8</ele>
        <time>2018-04-28T07:59:13Z</time>
      </trkpt>
      <trkpt lat="38.1498390" lon="-3.8982740">
        <ele>484.2</ele>
        <time>2018-04-28T07:59:14Z</time>
      </trkpt>
      <trkpt lat="38.1498280" lon="-3.8981750">
        <ele>483.6</ele>
        <time>2018-04-28T07:59:15Z</time>
      </trkpt>
      <trkpt lat="38.1498260" lon="-3.8980710">
        <ele>483.0</ele>
        <time>2018-04-28T07:59:16Z</time>
      </trkpt>
      <trkpt lat="38.1498210" lon="-3.8979630">
        <ele>482.4</ele>
        <time>2018-04-28T07:59:17Z</time>
      </trkpt>
      <trkpt lat="38.1498160" lon="-3.8978510">
        <ele>481.8</ele>
        <time>2018-04-28T07:59:18Z</time>
      </trkpt>
      <trkpt lat="38.1498090" lon="-3.8977340">
        <ele>481.2</ele>
        <time>2018-04-28T07:59:19Z</time>
      </trkpt>
      <trkpt lat="38.1498070" lon="-3.8976120">
        <ele>480.8</ele>
        <time>2018-04-28T07:59:20Z</time>
      </trkpt>
      <trkpt lat="38.1498080" lon="-3.8974980">
        <ele>480.2</ele>
        <time>2018-04-28T07:59:21Z</time>
      </trkpt>
      <trkpt lat="38.1497930" lon="-3.8973940">
        <ele>479.6</ele>
        <time>2018-04-28T07:59:22Z</time>
      </trkpt>
      <trkpt lat="38.1497630" lon="-3.8972950">
        <ele>479.0</ele>
        <time>2018-04-28T07:59:23Z</time>
      </trkpt>
      <trkpt lat="38.1497160" lon="-3.8972000">
        <ele>478.0</ele>
        <time>2018-04-28T07:59:24Z</time>
      </trkpt>
      <trkpt lat="38.1496590" lon="-3.8971070">
        <ele>477.2</ele>
        <time>2018-04-28T07:59:25Z</time>
      </trkpt>
      <trkpt lat="38.1496040" lon="-3.8970110">
        <ele>476.6</ele>
        <time>2018-04-28T07:59:26Z</time>
      </trkpt>
      <trkpt lat="38.1495470" lon="-3.8969080">
        <ele>475.8</ele>
        <time>2018-04-28T07:59:27Z</time>
      </trkpt>
      <trkpt lat="38.1495020" lon="-3.8968030">
        <ele>475.0</ele>
        <time>2018-04-28T07:59:28Z</time>
      </trkpt>
      <trkpt lat="38.1494710" lon="-3.8967030">
        <ele>474.2</ele>
        <time>2018-04-28T07:59:29Z</time>
      </trkpt>
      <trkpt lat="38.1494470" lon="-3.8966140">
        <ele>473.6</ele>
        <time>2018-04-28T07:59:30Z</time>
      </trkpt>
      <trkpt lat="38.1494170" lon="-3.8965380">
        <ele>472.8</ele>
        <time>2018-04-28T07:59:31Z</time>
      </trkpt>
      <trkpt lat="38.1493690" lon="-3.8964800">
        <ele>472.2</ele>
        <time>2018-04-28T07:59:32Z</time>
      </trkpt>
      <trkpt lat="38.1493040" lon="-3.8964410">
        <ele>471.4</ele>
        <time>2018-04-28T07:59:33Z</time>
      </trkpt>
      <trkpt lat="38.1492320" lon="-3.8964080">
        <ele>470.6</ele>
        <time>2018-04-28T07:59:34Z</time>
      </trkpt>
      <trkpt lat="38.1491610" lon="-3.8963580">
        <ele>470.0</ele>
        <time>2018-04-28T07:59:35Z</time>
      </trkpt>
      <trkpt lat="38.1490980" lon="-3.8962860">
        <ele>469.2</ele>
        <time>2018-04-28T07:59:36Z</time>
      </trkpt>
      <trkpt lat="38.1490460" lon="-3.8961980">
        <ele>468.4</ele>
        <time>2018-04-28T07:59:37Z</time>
      </trkpt>
      <trkpt lat="38.1490020" lon="-3.8961110">
        <ele>467.6</ele>
        <time>2018-04-28T07:59:38Z</time>
      </trkpt>
      <trkpt lat="38.1489470" lon="-3.8960410">
        <ele>467.0</ele>
        <time>2018-04-28T07:59:39Z</time>
      </trkpt>
      <trkpt lat="38.1488800" lon="-3.8959880">
        <ele>466.4</ele>
        <time>2018-04-28T07:59:40Z</time>
      </trkpt>
      <trkpt lat="38.1488000" lon="-3.8959550">
        <ele>465.4</ele>
        <time>2018-04-28T07:59:41Z</time>
      </trkpt>
      <trkpt lat="38.1487230" lon="-3.8959040">
        <ele>464.8</ele>
        <time>2018-04-28T07:59:42Z</time>
      </trkpt>
      <trkpt lat="38.1486530" lon="-3.8958320">
        <ele>464.0</ele>
        <time>2018-04-28T07:59:43Z</time>
      </trkpt>
      <trkpt lat="38.1485880" lon="-3.8957540">
        <ele>463.0</ele>
        <time>2018-04-28T07:59:44Z</time>
      </trkpt>
      <trkpt lat="38.1485170" lon="-3.8956890">
        <ele>462.4</ele>
        <time>2018-04-28T07:59:45Z</time>
      </trkpt>
      <trkpt lat="38.1484340" lon="-3.8956440">
        <ele>461.6</ele>
        <time>2018-04-28T07:59:46Z</time>
      </trkpt>
      <trkpt lat="38.1483480" lon="-3.8956050">
        <ele>460.4</ele>
        <time>2018-04-28T07:59:47Z</time>
      </trkpt>
      <trkpt lat="38.1482720" lon="-3.8955470">
        <ele>459.6</ele>
        <time>2018-04-28T07:59:48Z</time>
      </trkpt>
      <trkpt lat="38.1482040" lon="-3.8954790">
        <ele>458.8</ele>
        <time>2018-04-28T07:59:49Z</time>
      </trkpt>
      <trkpt lat="38.1481380" lon="-3.8954170">
        <ele>458.0</ele>
        <time>2018-04-28T07:59:50Z</time>
      </trkpt>
      <trkpt lat="38.1480670" lon="-3.8953800">
        <ele>457.6</ele>
        <time>2018-04-28T07:59:51Z</time>
      </trkpt>
      <trkpt lat="38.1479890" lon="-3.8953600">
        <ele>456.8</ele>
        <time>2018-04-28T07:59:52Z</time>
      </trkpt>
      <trkpt lat="38.1479160" lon="-3.8953520">
        <ele>456.0</ele>
        <time>2018-04-28T07:59:53Z</time>
      </trkpt>
      <trkpt lat="38.1478470" lon="-3.8953360">
        <ele>455.4</ele>
        <time>2018-04-28T07:59:54Z</time>
      </trkpt>
      <trkpt lat="38.1477810" lon="-3.8953080">
        <ele>454.8</ele>
        <time>2018-04-28T07:59:55Z</time>
      </trkpt>
      <trkpt lat="38.1477180" lon="-3.8952710">
        <ele>454.0</ele>
        <time>2018-04-28T07:59:56Z</time>
      </trkpt>
      <trkpt lat="38.1476650" lon="-3.8952340">
        <ele>454.0</ele>
        <time>2018-04-28T07:59:57Z</time>
      </trkpt>
      <trkpt lat="38.1476160" lon="-3.8951980">
        <ele>453.2</ele>
        <time>2018-04-28T07:59:58Z</time>
      </trkpt>
      <trkpt lat="38.1475690" lon="-3.8951610">
        <ele>452.6</ele>
        <time>2018-04-28T07:59:59Z</time>
      </trkpt>
      <trkpt lat="38.1475290" lon="-3.8951230">
        <ele>452.2</ele>
        <time>2018-04-28T08:00:00Z</time>
      </trkpt>
      <trkpt lat="38.1474930" lon="-3.8950910">
        <ele>451.8</ele>
        <time>2018-04-28T08:00:01Z</time>
      </trkpt>
      <trkpt lat="38.1474610" lon="-3.8950590">
        <ele>451.4</ele>
        <time>2018-04-28T08:00:02Z</time>
      </trkpt>
      <trkpt lat="38.1474330" lon="-3.8950310">
        <ele>451.0</ele>
        <time>2018-04-28T08:00:03Z</time>
      </trkpt>
      <trkpt lat="38.1474100" lon="-3.8950070">
        <ele>450.6</ele>
        <time>2018-04-28T08:00:04Z</time>
      </trkpt>
      <trkpt lat="38.1473900" lon="-3.8949900">
        <ele>450.6</ele>
        <time>2018-04-28T08:00:05Z</time>
      </trkpt>
      <trkpt lat="38.1473750" lon="-3.8949790">
        <ele>450.4</ele>
        <time>2018-04-28T08:00:06Z</time>
      </trkpt>
      <trkpt lat="38.1473640" lon="-3.8949690">
        <ele>450.2</ele>
        <time>2018-04-28T08:00:07Z</time>
      </trkpt>
      <trkpt lat="38.1473530" lon="-3.8949580">
        <ele>450.0</ele>
        <time>2018-04-28T08:00:08Z</time>
      </trkpt>
      <trkpt lat="38.1473370" lon="-3.8949460">
        <ele>449.8</ele>
        <time>2018-04-28T08:00:09Z</time>
      </trkpt>
      <trkpt lat="38.1473210" lon="-3.8949330">
        <ele>449.6</ele>
        <time>2018-04-28T08:00:10Z</time>
      </trkpt>
      <trkpt lat="38.1473060" lon="-3.8949230">
        <ele>449.8</ele>
        <time>2018-04-28T08:00:11Z</time>
      </trkpt>
      <trkpt lat="38.1472890" lon="-3.8949060">
        <ele>449.8</ele>
        <time>2018-04-28T08:00:12Z</time>
      </trkpt>
      <trkpt lat="38.1472700" lon="-3.8948930">
        <ele>449.8</ele>
        <time>2018-04-28T08:00:13Z</time>
      </trkpt>
      <trkpt lat="38.1472500" lon="-3.8948810">
        <ele>449.6</ele>
        <time>2018-04-28T08:00:14Z</time>
      </trkpt>
      <trkpt lat="38.1472300" lon="-3.8948700">
        <ele>449.6</ele>
        <time>2018-04-28T08:00:15Z</time>
      </trkpt>
      <trkpt lat="38.1472100" lon="-3.8948600">
        <ele>449.6</ele>
        <time>2018-04-28T08:00:16Z</time>
      </trkpt>
      <trkpt lat="38.1471900" lon="-3.8948530">
        <ele>449.4</ele>
        <time>2018-04-28T08:00:17Z</time>
      </trkpt>
      <trkpt lat="38.1471670" lon="-3.8948470">
        <ele>449.4</ele>
        <time>2018-04-28T08:00:18Z</time>
      </trkpt>
      <trkpt lat="38.1471450" lon="-3.8948440">
        <ele>449.2</ele>
        <time>2018-04-28T08:00:19Z</time>
      </trkpt>
      <trkpt lat="38.1471230" lon="-3.8948400">
        <ele>449.2</ele>
        <time>2018-04-28T08:00:20Z</time>
      </trkpt>
      <trkpt lat="38.1471000" lon="-3.8948360">
        <ele>449.2</ele>
        <time>2018-04-28T08:00:21Z</time>
      </trkpt>
      <trkpt lat="38.1470760" lon="-3.8948340">
        <ele>449.2</ele>
        <time>2018-04-28T08:00:22Z</time>
      </trkpt>
      <trkpt lat="38.1470530" lon="-3.8948340">
        <ele>449.0</ele>
        <time>2018-04-28T08:00:23Z</time>
      </trkpt>
      <trkpt lat="38.1470290" lon="-3.8948340">
        <ele>448.8</ele>
        <time>2018-04-28T08:00:24Z</time>
      </trkpt>
      <trkpt lat="38.1470050" lon="-3.8948290">
        <ele>448.8</ele>
        <time>2018-04-28T08:00:25Z</time>
      </trkpt>
      <trkpt lat="38.1469800" lon="-3.8948280">
        <ele>448.8</ele>
        <time>2018-04-28T08:00:26Z</time>
      </trkpt>
      <trkpt lat="38.1469540" lon="-3.8948270">
        <ele>448.8</ele>
        <time>2018-04-28T08:00:27Z</time>
      </trkpt>
      <trkpt lat="38.1469280" lon="-3.8948290">
        <ele>448.6</ele>
        <time>2018-04-28T08:00:28Z</time>
      </trkpt>
      <trkpt lat="38.1469010" lon="-3.8948260">
        <ele>448.6</ele>
        <time>2018-04-28T08:00:29Z</time>
      </trkpt>
      <trkpt lat="38.1468720" lon="-3.8948280">
        <ele>448.4</ele>
        <time>2018-04-28T08:00:30Z</time>
      </trkpt>
      <trkpt lat="38.1468420" lon="-3.8948290">
        <ele>448.4</ele>
        <time>2018-04-28T08:00:31Z</time>
      </trkpt>
      <trkpt lat="38.1468140" lon="-3.8948320">
        <ele>448.4</ele>
        <time>2018-04-28T08:00:32Z</time>
      </trkpt>
      <trkpt lat="38.1467870" lon="-3.8948330">
        <ele>448.4</ele>
        <time>2018-04-28T08:00:33Z</time>
      </trkpt>
      <trkpt lat="38.1467600" lon="-3.8948360">
        <ele>448.2</ele>
        <time>2018-04-28T08:00:34Z</time>
      </trkpt>
      <trkpt lat="38.1467330" lon="-3.8948340">
        <ele>448.2</ele>
        <time>2018-04-28T08:00:35Z</time>
      </trkpt>
      <trkpt lat="38.1466990" lon="-3.8948340">
        <ele>448.0</ele>
        <time>2018-04-28T08:00:36Z</time>
      </trkpt>
      <trkpt lat="38.1466640" lon="-3.8948360">
        <ele>447.8</ele>
        <time>2018-04-28T08:00:37Z</time>
      </trkpt>
      <trkpt lat="38.1466250" lon="-3.8948380">
        <ele>447.8</ele>
        <time>2018-04-28T08:00:38Z</time>
      </trkpt>
      <trkpt lat="38.1465860" lon="-3.8948350">
        <ele>447.6</ele>
        <time>2018-04-28T08:00:39Z</time>
      </trkpt>
      <trkpt lat="38.1465440" lon="-3.8948380">
        <ele>447.4</ele>
        <time>2018-04-28T08:00:40Z</time>
      </trkpt>
      <trkpt lat="38.1464990" lon="-3.8948410">
        <ele>447.2</ele>
        <time>2018-04-28T08:00:41Z</time>
      </trkpt>
      <trkpt lat="38.1464530" lon="-3.8948410">
        <ele>447.0</ele>
        <time>2018-04-28T08:00:42Z</time>
      </trkpt>
      <trkpt lat="38.1464050" lon="-3.8948400">
        <ele>447.0</ele>
        <time>2018-04-28T08:00:43Z</time>
      </trkpt>
      <trkpt lat="38.1463550" lon="-3.8948400">
        <ele>446.8</ele>
        <time>2018-04-28T08:00:44Z</time>
      </trkpt>
      <trkpt lat="38.1463050" lon="-3.8948440">
        <ele>446.8</ele>
        <time>2018-04-28T08:00:45Z</time>
      </trkpt>
      <trkpt lat="38.1462530" lon="-3.8948490">
        <ele>446.6</ele>
        <time>2018-04-28T08:00:46Z</time>
      </trkpt>
      <trkpt lat="38.1462000" lon="-3.8948510">
        <ele>446.4</ele>
        <time>2018-04-28T08:00:47Z</time>
      </trkpt>
      <trkpt lat="38.1461460" lon="-3.8948540">
        <ele>446.2</ele>
        <time>2018-04-28T08:00:48Z</time>
      </trkpt>
      <trkpt lat="38.1460970" lon="-3.8948560">
        <ele>446.0</ele>
        <time>2018-04-28T08:00:49Z</time>
      </trkpt>
      <trkpt lat="38.1460540" lon="-3.8948580">
        <ele>445.8</ele>
        <time>2018-04-28T08:00:50Z</time>
      </trkpt>
      <trkpt lat="38.1460170" lon="-3.8948620">
        <ele>445.6</ele>
        <time>2018-04-28T08:00:51Z</time>
      </trkpt>
      <trkpt lat="38.1459880" lon="-3.8948650">
        <ele>445.4</ele>
        <time>2018-04-28T08:00:52Z</time>
      </trkpt>
      <trkpt lat="38.1459400" lon="-3.8948700">
        <ele>445.4</ele>
        <time>2018-04-28T08:00:53Z</time>
      </trkpt>
      <trkpt lat="38.1459020" lon="-3.8948730">
        <ele>445.2</ele>
        <time>2018-04-28T08:00:54Z</time>
      </trkpt>
      <trkpt lat="38.1458630" lon="-3.8948770">
        <ele>445.4</ele>
        <time>2018-04-28T08:00:55Z</time>
      </trkpt>
      <trkpt lat="38.1458250" lon="-3.8948800">
        <ele>445.2</ele>
        <time>2018-04-28T08:00:56Z</time>
      </trkpt>
      <trkpt lat="38.1457870" lon="-3.8948830">
        <ele>445.2</ele>
        <time>2018-04-28T08:00:57Z</time>
      </trkpt>
      <trkpt lat="38.1457490" lon="-3.8948860">
        <ele>445.2</ele>
        <time>2018-04-28T08:00:58Z</time>
      </trkpt>
      <trkpt lat="38.1457110" lon="-3.8948890">
        <ele>445.2</ele>
        <time>2018-04-28T08:00:59Z</time>
      </trkpt>
      <trkpt lat="38.1456720" lon="-3.8948930">
        <ele>445.2</ele>
        <time>2018-04-28T08:01:00Z</time>
      </trkpt>
      <trkpt lat="38.1456340" lon="-3.8948960">
        <ele>444.8</ele>
        <time>2018-04-28T08:01:27Z</time>
      </trkpt>
      <trkpt lat="38.1455960" lon="-3.8948990">
        <ele>444.6</ele>
        <time>2018-04-28T08:01:28Z</time>
      </trkpt>
      <trkpt lat="38.1455420" lon="-3.8949020">
        <ele>444.2</ele>
        <time>2018-04-28T08:01:29Z</time>
      </trkpt>
      <trkpt lat="38.1454910" lon="-3.8949050">
        <ele>444.0</ele>
        <time>2018-04-28T08:01:30Z</time>
      </trkpt>
      <trkpt lat="38.1454330" lon="-3.8949050">
        <ele>444.0</ele>
        <time>2018-04-28T08:01:31Z</time>
      </trkpt>
      <trkpt lat="38.1453730" lon="-3.8949050">
        <ele>444.0</ele>
        <time>2018-04-28T08:01:32Z</time>
      </trkpt>
      <trkpt lat="38.1453150" lon="-3.8948970">
        <ele>443.8</ele>
        <time>2018-04-28T08:01:33Z</time>
      </trkpt>
      <trkpt lat="38.1452550" lon="-3.8948970">
        <ele>443.4</ele>
        <time>2018-04-28T08:01:34Z</time>
      </trkpt>
      <trkpt lat="38.1451940" lon="-3.8948920">
        <ele>443.2</ele>
        <time>2018-04-28T08:01:35Z</time>
      </trkpt>
      <trkpt lat="38.1451220" lon="-3.8949020">
        <ele>443.0</ele>
        <time>2018-04-28T08:01:36Z</time>
      </trkpt>
      <trkpt lat="38.1450540" lon="-3.8949060">
        <ele>442.6</ele>
        <time>2018-04-28T08:01:37Z</time>
      </trkpt>
      <trkpt lat="38.1449860" lon="-3.8949110">
        <ele>442.4</ele>
        <time>2018-04-28T08:01:38Z</time>
      </trkpt>
      <trkpt lat="38.1449180" lon="-3.8949150">
        <ele>442.2</ele>
        <time>2018-04-28T08:01:39Z</time>
      </trkpt>
      <trkpt lat="38.1448510" lon="-3.8949190">
        <ele>442.0</ele>
        <time>2018-04-28T08:01:40Z</time>
      </trkpt>
      <trkpt lat="38.1447850" lon="-3.8949200">
        <ele>442.0</ele>
        <time>2018-04-28T08:01:41Z</time>
      </trkpt>
      <trkpt lat="38.1447240" lon="-3.8949200">
        <ele>442.0</ele>
        <time>2018-04-28T08:01:42Z</time>
      </trkpt>
      <trkpt lat="38.1446650" lon="-3.8949220">
        <ele>442.0</ele>
        <time>2018-04-28T08:01:43Z</time>
      </trkpt>
      <trkpt lat="38.1446070" lon="-3.8949210">
        <ele>442.0</ele>
        <time>2018-04-28T08:01:44Z</time>
      </trkpt>
      <trkpt lat="38.1445570" lon="-3.8949210">
        <ele>442.0</ele>
        <time>2018-04-28T08:01:45Z</time>
      </trkpt>
      <trkpt lat="38.1445150" lon="-3.8949210">
        <ele>442.0</ele>
        <time>2018-04-28T08:01:46Z</time>
      </trkpt>
      <trkpt lat="38.1444780" lon="-3.8949200">
        <ele>441.8</ele>
        <time>2018-04-28T08:01:47Z</time>
      </trkpt>
      <trkpt lat="38.1444410" lon="-3.8949150">
        <ele>441.8</ele>
        <time>2018-04-28T08:01:48Z</time>
      </trkpt>
      <trkpt lat="38.1444040" lon="-3.8949130">
        <ele>441.6</ele>
        <time>2018-04-28T08:01:49Z</time>
      </trkpt>
      <trkpt lat="38.1443650" lon="-3.8949100">
        <ele>441.4</ele>
        <time>2018-04-28T08:01:50Z</time>
      </trkpt>
      <trkpt lat="38.1443230" lon="-3.8949040">
        <ele>441.4</ele>
        <time>2018-04-28T08:01:51Z</time>
      </trkpt>
      <trkpt lat="38.1442780" lon="-3.8948980">
        <ele>441.0</ele>
        <time>2018-04-28T08:01:52Z</time>
      </trkpt>
      <trkpt lat="38.1442300" lon="-3.8948900">
        <ele>441.0</ele>
        <time>2018-04-28T08:01:53Z</time>
      </trkpt>
      <trkpt lat="38.1441790" lon="-3.8948810">
        <ele>440.4</ele>
        <time>2018-04-28T08:01:54Z</time>
      </trkpt>
      <trkpt lat="38.1441240" lon="-3.8948710">
        <ele>440.2</ele>
        <time>2018-04-28T08:01:55Z</time>
      </trkpt>
      <trkpt lat="38.1440670" lon="-3.8948600">
        <ele>440.2</ele>
        <time>2018-04-28T08:01:56Z</time>
      </trkpt>
      <trkpt lat="38.1440070" lon="-3.8948470">
        <ele>439.8</ele>
        <time>2018-04-28T08:01:57Z</time>
      </trkpt>
      <trkpt lat="38.1439480" lon="-3.8948350">
        <ele>439.4</ele>
        <time>2018-04-28T08:01:58Z</time>
      </trkpt>
      <trkpt lat="38.1438910" lon="-3.8948270">
        <ele>439.4</ele>
        <time>2018-04-28T08:01:59Z</time>
      </trkpt>
      <trkpt lat="38.1438350" lon="-3.8948200">
        <ele>439.6</ele>
        <time>2018-04-28T08:02:00Z</time>
      </trkpt>
      <trkpt lat="38.1437820" lon="-3.8948120">
        <ele>439.6</ele>
        <time>2018-04-28T08:02:01Z</time>
      </trkpt>
      <trkpt lat="38.1437280" lon="-3.8948050">
        <ele>439.4</ele>
        <time>2018-04-28T08:02:02Z</time>
      </trkpt>
      <trkpt lat="38.1436770" lon="-3.8947950">
        <ele>439.4</ele>
        <time>2018-04-28T08:02:03Z</time>
      </trkpt>
      <trkpt lat="38.1436200" lon="-3.8947870">
        <ele>439.6</ele>
        <time>2018-04-28T08:02:04Z</time>
      </trkpt>
      <trkpt lat="38.1435580" lon="-3.8947750">
        <ele>439.4</ele>
        <time>2018-04-28T08:02:05Z</time>
      </trkpt>
      <trkpt lat="38.1434940" lon="-3.8947620">
        <ele>439.2</ele>
        <time>2018-04-28T08:02:06Z</time>
      </trkpt>
      <trkpt lat="38.1434330" lon="-3.8947500">
        <ele>438.8</ele>
        <time>2018-04-28T08:02:07Z</time>
      </trkpt>
      <trkpt lat="38.1433680" lon="-3.8947310">
        <ele>438.8</ele>
        <time>2018-04-28T08:02:08Z</time>
      </trkpt>
      <trkpt lat="38.1432990" lon="-3.8947090">
        <ele>438.6</ele>
        <time>2018-04-28T08:02:09Z</time>
      </trkpt>
      <trkpt lat="38.1432320" lon="-3.8946920">
        <ele>438.6</ele>
        <time>2018-04-28T08:02:10Z</time>
      </trkpt>
      <trkpt lat="38.1431680" lon="-3.8946800">
        <ele>438.6</ele>
        <time>2018-04-28T08:02:11Z</time>
      </trkpt>
      <trkpt lat="38.1431030" lon="-3.8946660">
        <ele>438.4</ele>
        <time>2018-04-28T08:02:12Z</time>
      </trkpt>
      <trkpt lat="38.1430360" lon="-3.8946440">
        <ele>438.6</ele>
        <time>2018-04-28T08:02:13Z</time>
      </trkpt>
      <trkpt lat="38.1429720" lon="-3.8946300">
        <ele>438.4</ele>
        <time>2018-04-28T08:02:14Z</time>
      </trkpt>
      <trkpt lat="38.1429060" lon="-3.8946220">
        <ele>438.2</ele>
        <time>2018-04-28T08:02:15Z</time>
      </trkpt>
      <trkpt lat="38.1428400" lon="-3.8946200">
        <ele>438.0</ele>
        <time>2018-04-28T08:02:16Z</time>
      </trkpt>
      <trkpt lat="38.1427720" lon="-3.8946210">
        <ele>437.4</ele>
        <time>2018-04-28T08:02:17Z</time>
      </trkpt>
      <trkpt lat="38.1427000" lon="-3.8946260">
        <ele>436.8</ele>
        <time>2018-04-28T08:02:18Z</time>
      </trkpt>
      <trkpt lat="38.1426260" lon="-3.8946360">
        <ele>436.4</ele>
        <time>2018-04-28T08:02:19Z</time>
      </trkpt>
      <trkpt lat="38.1425530" lon="-3.8946530">
        <ele>436.2</ele>
        <time>2018-04-28T08:02:20Z</time>
      </trkpt>
      <trkpt lat="38.1424780" lon="-3.8946720">
        <ele>436.0</ele>
        <time>2018-04-28T08:02:21Z</time>
      </trkpt>
      <trkpt lat="38.1424050" lon="-3.8946890">
        <ele>436.2</ele>
        <time>2018-04-28T08:02:22Z</time>
      </trkpt>
      <trkpt lat="38.1423360" lon="-3.8947050">
        <ele>436.0</ele>
        <time>2018-04-28T08:02:23Z</time>
      </trkpt>
      <trkpt lat="38.1422760" lon="-3.8947130">
        <ele>436.0</ele>
        <time>2018-04-28T08:02:24Z</time>
      </trkpt>
      <trkpt lat="38.1422100" lon="-3.8947220">
        <ele>435.8</ele>
        <time>2018-04-28T08:02:25Z</time>
      </trkpt>
      <trkpt lat="38.1421480" lon="-3.8947290">
        <ele>435.8</ele>
        <time>2018-04-28T08:02:26Z</time>
      </trkpt>
      <trkpt lat="38.1420830" lon="-3.8947320">
        <ele>435.4</ele>
        <time>2018-04-28T08:02:27Z</time>
      </trkpt>
      <trkpt lat="38.1420180" lon="-3.8947310">
        <ele>435.0</ele>
        <time>2018-04-28T08:02:28Z</time>
      </trkpt>
      <trkpt lat="38.1419510" lon="-3.8947270">
        <ele>434.8</ele>
        <time>2018-04-28T08:02:29Z</time>
      </trkpt>
      <trkpt lat="38.1418820" lon="-3.8947230">
        <ele>434.0</ele>
        <time>2018-04-28T08:02:30Z</time>
      </trkpt>
      <trkpt lat="38.1418130" lon="-3.8947180">
        <ele>433.6</ele>
        <time>2018-04-28T08:02:31Z</time>
      </trkpt>
      <trkpt lat="38.1417450" lon="-3.8947120">
        <ele>433.8</ele>
        <time>2018-04-28T08:02:32Z</time>
      </trkpt>
      <trkpt lat="38.1416780" lon="-3.8947050">
        <ele>433.4</ele>
        <time>2018-04-28T08:02:33Z</time>
      </trkpt>
      <trkpt lat="38.1416130" lon="-3.8947100">
        <ele>433.6</ele>
        <time>2018-04-28T08:02:34Z</time>
      </trkpt>
      <trkpt lat="38.1415450" lon="-3.8947140">
        <ele>433.4</ele>
        <time>2018-04-28T08:02:35Z</time>
      </trkpt>
      <trkpt lat="38.1414730" lon="-3.8947200">
        <ele>433.0</ele>
        <time>2018-04-28T08:02:36Z</time>
      </trkpt>
      <trkpt lat="38.1414000" lon="-3.8947250">
        <ele>433.2</ele>
        <time>2018-04-28T08:02:37Z</time>
      </trkpt>
      <trkpt lat="38.1413290" lon="-3.8947450">
        <ele>433.2</ele>
        <time>2018-04-28T08:02:38Z</time>
      </trkpt>
      <trkpt lat="38.1412610" lon="-3.8947810">
        <ele>433.4</ele>
        <time>2018-04-28T08:02:39Z</time>
      </trkpt>
      <trkpt lat="38.1411990" lon="-3.8948260">
        <ele>433.2</ele>
        <time>2018-04-28T08:02:40Z</time>
      </trkpt>
      <trkpt lat="38.1411450" lon="-3.8948630">
        <ele>433.2</ele>
        <time>2018-04-28T08:02:41Z</time>
      </trkpt>
      <trkpt lat="38.1410870" lon="-3.8949020">
        <ele>433.0</ele>
        <time>2018-04-28T08:02:42Z</time>
      </trkpt>
      <trkpt lat="38.1410260" lon="-3.8949400">
        <ele>432.6</ele>
        <time>2018-04-28T08:02:43Z</time>
      </trkpt>
      <trkpt lat="38.1409610" lon="-3.8949810">
        <ele>432.2</ele>
        <time>2018-04-28T08:02:44Z</time>
      </trkpt>
      <trkpt lat="38.1408920" lon="-3.8950140">
        <ele>431.8</ele>
        <time>2018-04-28T08:02:45Z</time>
      </trkpt>
      <trkpt lat="38.1408180" lon="-3.8950470">
        <ele>431.2</ele>
        <time>2018-04-28T08:02:46Z</time>
      </trkpt>
      <trkpt lat="38.1407420" lon="-3.8950750">
        <ele>430.6</ele>
        <time>2018-04-28T08:02:47Z</time>
      </trkpt>
      <trkpt lat="38.1406620" lon="-3.8951050">
        <ele>430.4</ele>
        <time>2018-04-28T08:02:48Z</time>
      </trkpt>
      <trkpt lat="38.1405830" lon="-3.8951370">
        <ele>430.6</ele>
        <time>2018-04-28T08:02:49Z</time>
      </trkpt>
      <trkpt lat="38.1405060" lon="-3.8951680">
        <ele>430.6</ele>
        <time>2018-04-28T08:02:50Z</time>
      </trkpt>
      <trkpt lat="38.1404300" lon="-3.8951970">
        <ele>430.4</ele>
        <time>2018-04-28T08:02:51Z</time>
      </trkpt>
      <trkpt lat="38.1403560" lon="-3.8952260">
        <ele>430.2</ele>
        <time>2018-04-28T08:02:52Z</time>
      </trkpt>
      <trkpt lat="38.1402780" lon="-3.8952530">
        <ele>429.8</ele>
        <time>2018-04-28T08:02:53Z</time>
      </trkpt>
      <trkpt lat="38.1401980" lon="-3.8952790">
        <ele>429.4</ele>
        <time>2018-04-28T08:02:54Z</time>
      </trkpt>
      <trkpt lat="38.1401200" lon="-3.8953020">
        <ele>428.8</ele>
        <time>2018-04-28T08:02:55Z</time>
      </trkpt>
      <trkpt lat="38.1400360" lon="-3.8953250">
        <ele>428.0</ele>
        <time>2018-04-28T08:02:56Z</time>
      </trkpt>
      <trkpt lat="38.1399520" lon="-3.8953510">
        <ele>427.6</ele>
        <time>2018-04-28T08:02:57Z</time>
      </trkpt>
      <trkpt lat="38.1398670" lon="-3.8953750">
        <ele>427.2</ele>
        <time>2018-04-28T08:02:58Z</time>
      </trkpt>
      <trkpt lat="38.1397820" lon="-3.8953990">
        <ele>427.2</ele>
        <time>2018-04-28T08:02:59Z</time>
      </trkpt>
      <trkpt lat="38.1396990" lon="-3.8954210">
        <ele>427.2</ele>
        <time>2018-04-28T08:03:00Z</time>
      </trkpt>
      <trkpt lat="38.1396210" lon="-3.8954440">
        <ele>427.0</ele>
        <time>2018-04-28T08:03:01Z</time>
      </trkpt>
      <trkpt lat="38.1395450" lon="-3.8954650">
        <ele>427.4</ele>
        <time>2018-04-28T08:03:02Z</time>
      </trkpt>
      <trkpt lat="38.1394710" lon="-3.8954860">
        <ele>427.2</ele>
        <time>2018-04-28T08:03:03Z</time>
      </trkpt>
      <trkpt lat="38.1393990" lon="-3.8955080">
        <ele>427.0</ele>
        <time>2018-04-28T08:03:04Z</time>
      </trkpt>
      <trkpt lat="38.1393270" lon="-3.8955280">
        <ele>426.8</ele>
        <time>2018-04-28T08:03:05Z</time>
      </trkpt>
      <trkpt lat="38.1392570" lon="-3.8955530">
        <ele>426.8</ele>
        <time>2018-04-28T08:03:06Z</time>
      </trkpt>
      <trkpt lat="38.1391870" lon="-3.8955850">
        <ele>426.6</ele>
        <time>2018-04-28T08:03:07Z</time>
      </trkpt>
      <trkpt lat="38.1391220" lon="-3.8956230">
        <ele>426.6</ele>
        <time>2018-04-28T08:03:08Z</time>
      </trkpt>
      <trkpt lat="38.1390600" lon="-3.8956670">
        <ele>426.4</ele>
        <time>2018-04-28T08:03:09Z</time>
      </trkpt>
      <trkpt lat="38.1390010" lon="-3.8957180">
        <ele>426.0</ele>
        <time>2018-04-28T08:03:10Z</time>
      </trkpt>
      <trkpt lat="38.1389410" lon="-3.8957670">
        <ele>426.0</ele>
        <time>2018-04-28T08:03:11Z</time>
      </trkpt>
      <trkpt lat="38.1388810" lon="-3.8958160">
        <ele>425.8</ele>
        <time>2018-04-28T08:03:12Z</time>
      </trkpt>
      <trkpt lat="38.1388180" lon="-3.8958650">
        <ele>425.4</ele>
        <time>2018-04-28T08:03:13Z</time>
      </trkpt>
      <trkpt lat="38.1387550" lon="-3.8959180">
        <ele>424.8</ele>
        <time>2018-04-28T08:03:14Z</time>
      </trkpt>
      <trkpt lat="38.1386900" lon="-3.8959740">
        <ele>424.4</ele>
        <time>2018-04-28T08:03:15Z</time>
      </trkpt>
      <trkpt lat="38.1386230" lon="-3.8960290">
        <ele>424.2</ele>
        <time>2018-04-28T08:03:16Z</time>
      </trkpt>
      <trkpt lat="38.1385550" lon="-3.8960860">
        <ele>423.8</ele>
        <time>2018-04-28T08:03:17Z</time>
      </trkpt>
      <trkpt lat="38.1384870" lon="-3.8961440">
        <ele>423.4</ele>
        <time>2018-04-28T08:03:18Z</time>
      </trkpt>
      <trkpt lat="38.1384190" lon="-3.8962000">
        <ele>423.2</ele>
        <time>2018-04-28T08:03:19Z</time>
      </trkpt>
      <trkpt lat="38.1383510" lon="-3.8962580">
        <ele>423.0</ele>
        <time>2018-04-28T08:03:20Z</time>
      </trkpt>
      <trkpt lat="38.1382840" lon="-3.8963170">
        <ele>422.6</ele>
        <time>2018-04-28T08:03:21Z</time>
      </trkpt>
      <trkpt lat="38.1382150" lon="-3.8963760">
        <ele>422.4</ele>
        <time>2018-04-28T08:03:22Z</time>
      </trkpt>
      <trkpt lat="38.1381550" lon="-3.8964280">
        <ele>422.0</ele>
        <time>2018-04-28T08:03:23Z</time>
      </trkpt>
      <trkpt lat="38.1380830" lon="-3.8964880">
        <ele>421.6</ele>
        <time>2018-04-28T08:03:24Z</time>
      </trkpt>
      <trkpt lat="38.1380100" lon="-3.8965490">
        <ele>421.0</ele>
        <time>2018-04-28T08:03:25Z</time>
      </trkpt>
      <trkpt lat="38.1379380" lon="-3.8966140">
        <ele>420.8</ele>
        <time>2018-04-28T08:03:26Z</time>
      </trkpt>
      <trkpt lat="38.1378660" lon="-3.8966800">
        <ele>420.2</ele>
        <time>2018-04-28T08:03:27Z</time>
      </trkpt>
      <trkpt lat="38.1377960" lon="-3.8967470">
        <ele>420.0</ele>
        <time>2018-04-28T08:03:28Z</time>
      </trkpt>
      <trkpt lat="38.1377270" lon="-3.8968160">
        <ele>419.8</ele>
        <time>2018-04-28T08:03:29Z</time>
      </trkpt>
      <trkpt lat="38.1376600" lon="-3.8968830">
        <ele>419.4</ele>
        <time>2018-04-28T08:03:30Z</time>
      </trkpt>
      <trkpt lat="38.1375950" lon="-3.8969490">
        <ele>419.4</ele>
        <time>2018-04-28T08:03:31Z</time>
      </trkpt>
      <trkpt lat="38.1375310" lon="-3.8970170">
        <ele>418.8</ele>
        <time>2018-04-28T08:03:32Z</time>
      </trkpt>
      <trkpt lat="38.1374690" lon="-3.8970780">
        <ele>418.6</ele>
        <time>2018-04-28T08:03:33Z</time>
      </trkpt>
      <trkpt lat="38.1374020" lon="-3.8971380">
        <ele>418.6</ele>
        <time>2018-04-28T08:03:34Z</time>
      </trkpt>
      <trkpt lat="38.1373330" lon="-3.8971920">
        <ele>418.2</ele>
        <time>2018-04-28T08:03:35Z</time>
      </trkpt>
      <trkpt lat="38.1372570" lon="-3.8972440">
        <ele>418.0</ele>
        <time>2018-04-28T08:03:36Z</time>
      </trkpt>
      <trkpt lat="38.1371820" lon="-3.8972870">
        <ele>417.8</ele>
        <time>2018-04-28T08:03:37Z</time>
      </trkpt>
      <trkpt lat="38.1371070" lon="-3.8973200">
        <ele>417.4</ele>
        <time>2018-04-28T08:03:38Z</time>
      </trkpt>
      <trkpt lat="38.1370290" lon="-3.8973530">
        <ele>417.4</ele>
        <time>2018-04-28T08:03:39Z</time>
      </trkpt>
      <trkpt lat="38.1369510" lon="-3.8973840">
        <ele>417.0</ele>
        <time>2018-04-28T08:03:40Z</time>
      </trkpt>
      <trkpt lat="38.1368790" lon="-3.8974150">
        <ele>416.6</ele>
        <time>2018-04-28T08:03:41Z</time>
      </trkpt>
      <trkpt lat="38.1368020" lon="-3.8974490">
        <ele>416.6</ele>
        <time>2018-04-28T08:03:42Z</time>
      </trkpt>
      <trkpt lat="38.1367270" lon="-3.8974850">
        <ele>416.4</ele>
        <time>2018-04-28T08:03:43Z</time>
      </trkpt>
      <trkpt lat="38.1366540" lon="-3.8975280">
        <ele>416.0</ele>
        <time>2018-04-28T08:03:44Z</time>
      </trkpt>
      <trkpt lat="38.1365820" lon="-3.8975770">
        <ele>415.8</ele>
        <time>2018-04-28T08:03:45Z</time>
      </trkpt>
      <trkpt lat="38.1365110" lon="-3.8976260">
        <ele>415.2</ele>
        <time>2018-04-28T08:03:46Z</time>
      </trkpt>
      <trkpt lat="38.1364420" lon="-3.8976800">
        <ele>415.0</ele>
        <time>2018-04-28T08:03:47Z</time>
      </trkpt>
      <trkpt lat="38.1363760" lon="-3.8977380">
        <ele>414.6</ele>
        <time>2018-04-28T08:03:48Z</time>
      </trkpt>
      <trkpt lat="38.1363110" lon="-3.8977930">
        <ele>414.4</ele>
        <time>2018-04-28T08:03:49Z</time>
      </trkpt>
      <trkpt lat="38.1362460" lon="-3.8978480">
        <ele>414.0</ele>
        <time>2018-04-28T08:03:50Z</time>
      </trkpt>
      <trkpt lat="38.1361790" lon="-3.8978990">
        <ele>413.6</ele>
        <time>2018-04-28T08:03:51Z</time>
      </trkpt>
      <trkpt lat="38.1361080" lon="-3.8979420">
        <ele>413.2</ele>
        <time>2018-04-28T08:03:52Z</time>
      </trkpt>
      <trkpt lat="38.1360360" lon="-3.8979870">
        <ele>412.8</ele>
        <time>2018-04-28T08:03:53Z</time>
      </trkpt>
      <trkpt lat="38.1359660" lon="-3.8980300">
        <ele>412.2</ele>
        <time>2018-04-28T08:03:54Z</time>
      </trkpt>
      <trkpt lat="38.1358930" lon="-3.8980740">
        <ele>411.6</ele>
        <time>2018-04-28T08:03:55Z</time>
      </trkpt>
      <trkpt lat="38.1358170" lon="-3.8981190">
        <ele>411.2</ele>
        <time>2018-04-28T08:03:56Z</time>
      </trkpt>
      <trkpt lat="38.1357410" lon="-3.8981690">
        <ele>410.8</ele>
        <time>2018-04-28T08:03:57Z</time>
      </trkpt>
      <trkpt lat="38.1356640" lon="-3.8982150">
        <ele>410.6</ele>
        <time>2018-04-28T08:03:58Z</time>
      </trkpt>
      <trkpt lat="38.1355850" lon="-3.8982610">
        <ele>410.2</ele>
        <time>2018-04-28T08:03:59Z</time>
      </trkpt>
      <trkpt lat="38.1355070" lon="-3.8983100">
        <ele>410.0</ele>
        <time>2018-04-28T08:04:00Z</time>
      </trkpt>
      <trkpt lat="38.1354270" lon="-3.8983580">
        <ele>409.4</ele>
        <time>2018-04-28T08:04:01Z</time>
      </trkpt>
      <trkpt lat="38.1353460" lon="-3.8984080">
        <ele>409.2</ele>
        <time>2018-04-28T08:04:02Z</time>
      </trkpt>
      <trkpt lat="38.1352630" lon="-3.8984570">
        <ele>408.8</ele>
        <time>2018-04-28T08:04:03Z</time>
      </trkpt>
      <trkpt lat="38.1351800" lon="-3.8985060">
        <ele>408.4</ele>
        <time>2018-04-28T08:04:04Z</time>
      </trkpt>
      <trkpt lat="38.1350940" lon="-3.8985560">
        <ele>408.2</ele>
        <time>2018-04-28T08:04:05Z</time>
      </trkpt>
      <trkpt lat="38.1350090" lon="-3.8986050">
        <ele>408.2</ele>
        <time>2018-04-28T08:04:06Z</time>
      </trkpt>
      <trkpt lat="38.1349240" lon="-3.8986530">
        <ele>407.8</ele>
        <time>2018-04-28T08:04:07Z</time>
      </trkpt>
      <trkpt lat="38.1348430" lon="-3.8986990">
        <ele>407.6</ele>
        <time>2018-04-28T08:04:08Z</time>
      </trkpt>
      <trkpt lat="38.1347570" lon="-3.8987460">
        <ele>407.4</ele>
        <time>2018-04-28T08:04:09Z</time>
      </trkpt>
      <trkpt lat="38.1346770" lon="-3.8987870">
        <ele>407.2</ele>
        <time>2018-04-28T08:04:10Z</time>
      </trkpt>
      <trkpt lat="38.1345960" lon="-3.8988220">
        <ele>407.4</ele>
        <time>2018-04-28T08:04:11Z</time>
      </trkpt>
      <trkpt lat="38.1345180" lon="-3.8988550">
        <ele>407.4</ele>
        <time>2018-04-28T08:04:12Z</time>
      </trkpt>
      <trkpt lat="38.1344390" lon="-3.8988860">
        <ele>407.6</ele>
        <time>2018-04-28T08:04:13Z</time>
      </trkpt>
      <trkpt lat="38.1343660" lon="-3.8989170">
        <ele>408.0</ele>
        <time>2018-04-28T08:04:14Z</time>
      </trkpt>
      <trkpt lat="38.1342970" lon="-3.8989460">
        <ele>408.2</ele>
        <time>2018-04-28T08:04:15Z</time>
      </trkpt>
      <trkpt lat="38.1342330" lon="-3.8989740">
        <ele>408.2</ele>
        <time>2018-04-28T08:04:16Z</time>
      </trkpt>
      <trkpt lat="38.1341710" lon="-3.8989990">
        <ele>408.4</ele>
        <time>2018-04-28T08:04:17Z</time>
      </trkpt>
      <trkpt lat="38.1341120" lon="-3.8990240">
        <ele>408.6</ele>
        <time>2018-04-28T08:04:18Z</time>
      </trkpt>
      <trkpt lat="38.1340510" lon="-3.8990480">
        <ele>408.6</ele>
        <time>2018-04-28T08:04:19Z</time>
      </trkpt>
      <trkpt lat="38.1339930" lon="-3.8990740">
        <ele>408.8</ele>
        <time>2018-04-28T08:04:20Z</time>
      </trkpt>
      <trkpt lat="38.1339460" lon="-3.8991020">
        <ele>408.8</ele>
        <time>2018-04-28T08:04:21Z</time>
      </trkpt>
      <trkpt lat="38.1338900" lon="-3.8991280">
        <ele>408.8</ele>
        <time>2018-04-28T08:04:22Z</time>
      </trkpt>
      <trkpt lat="38.1338370" lon="-3.8991550">
        <ele>409.0</ele>
        <time>2018-04-28T08:04:23Z</time>
      </trkpt>
      <trkpt lat="38.1337820" lon="-3.8991780">
        <ele>409.4</ele>
        <time>2018-04-28T08:04:24Z</time>
      </trkpt>
      <trkpt lat="38.1337270" lon="-3.8992030">
        <ele>409.6</ele>
        <time>2018-04-28T08:04:25Z</time>
      </trkpt>
      <trkpt lat="38.1336760" lon="-3.8992260">
        <ele>409.6</ele>
        <time>2018-04-28T08:04:26Z</time>
      </trkpt>
      <trkpt lat="38.1336280" lon="-3.8992470">
        <ele>409.8</ele>
        <time>2018-04-28T08:04:27Z</time>
      </trkpt>
      <trkpt lat="38.1335790" lon="-3.8992610">
        <ele>410.0</ele>
        <time>2018-04-28T08:04:28Z</time>
      </trkpt>
      <trkpt lat="38.1335350" lon="-3.8992780">
        <ele>410.2</ele>
        <time>2018-04-28T08:04:29Z</time>
      </trkpt>
      <trkpt lat="38.1334920" lon="-3.8992940">
        <ele>410.6</ele>
        <time>2018-04-28T08:04:30Z</time>
      </trkpt>
      <trkpt lat="38.1334490" lon="-3.8993100">
        <ele>410.8</ele>
        <time>2018-04-28T08:04:31Z</time>
      </trkpt>
      <trkpt lat="38.1334060" lon="-3.8993280">
        <ele>411.2</ele>
        <time>2018-04-28T08:04:32Z</time>
      </trkpt>
      <trkpt lat="38.1333640" lon="-3.8993470">
        <ele>411.4</ele>
        <time>2018-04-28T08:04:33Z</time>
      </trkpt>
      <trkpt lat="38.1333210" lon="-3.8993650">
        <ele>411.6</ele>
        <time>2018-04-28T08:04:34Z</time>
      </trkpt>
      <trkpt lat="38.1332790" lon="-3.8993840">
        <ele>411.8</ele>
        <time>2018-04-28T08:04:35Z</time>
      </trkpt>
      <trkpt lat="38.1332360" lon="-3.8994020">
        <ele>412.0</ele>
        <time>2018-04-28T08:04:36Z</time>
      </trkpt>
      <trkpt lat="38.1331930" lon="-3.8994200">
        <ele>412.0</ele>
        <time>2018-04-28T08:04:37Z</time>
      </trkpt>
      <trkpt lat="38.1331510" lon="-3.8994370">
        <ele>412.2</ele>
        <time>2018-04-28T08:04:38Z</time>
      </trkpt>
      <trkpt lat="38.1331090" lon="-3.8994580">
        <ele>412.6</ele>
        <time>2018-04-28T08:04:39Z</time>
      </trkpt>
      <trkpt lat="38.1330670" lon="-3.8994770">
        <ele>413.2</ele>
        <time>2018-04-28T08:04:40Z</time>
      </trkpt>
      <trkpt lat="38.1330210" lon="-3.8994950">
        <ele>413.2</ele>
        <time>2018-04-28T08:04:41Z</time>
      </trkpt>
      <trkpt lat="38.1329760" lon="-3.8995140">
        <ele>413.6</ele>
        <time>2018-04-28T08:04:42Z</time>
      </trkpt>
      <trkpt lat="38.1329320" lon="-3.8995330">
        <ele>413.8</ele>
        <time>2018-04-28T08:04:43Z</time>
      </trkpt>
      <trkpt lat="38.1328880" lon="-3.8995510">
        <ele>414.0</ele>
        <time>2018-04-28T08:04:44Z</time>
      </trkpt>
      <trkpt lat="38.1328430" lon="-3.8995670">
        <ele>414.2</ele>
        <time>2018-04-28T08:04:45Z</time>
      </trkpt>
      <trkpt lat="38.1327990" lon="-3.8995830">
        <ele>414.2</ele>
        <time>2018-04-28T08:04:46Z</time>
      </trkpt>
      <trkpt lat="38.1327560" lon="-3.8996010">
        <ele>414.4</ele>
        <time>2018-04-28T08:04:47Z</time>
      </trkpt>
      <trkpt lat="38.1327110" lon="-3.8996200">
        <ele>414.6</ele>
        <time>2018-04-28T08:04:48Z</time>
      </trkpt>
      <trkpt lat="38.1326660" lon="-3.8996380">
        <ele>415.0</ele>
        <time>2018-04-28T08:04:49Z</time>
      </trkpt>
      <trkpt lat="38.1326220" lon="-3.8996540">
        <ele>415.0</ele>
        <time>2018-04-28T08:04:50Z</time>
      </trkpt>
      <trkpt lat="38.1325770" lon="-3.8996680">
        <ele>415.0</ele>
        <time>2018-04-28T08:04:51Z</time>
      </trkpt>
      <trkpt lat="38.1325310" lon="-3.8996780">
        <ele>415.2</ele>
        <time>2018-04-28T08:04:52Z</time>
      </trkpt>
      <trkpt lat="38.1324860" lon="-3.8996880">
        <ele>415.2</ele>
        <time>2018-04-28T08:04:53Z</time>
      </trkpt>
      <trkpt lat="38.1324420" lon="-3.8996990">
        <ele>415.4</ele>
        <time>2018-04-28T08:04:54Z</time>
      </trkpt>
      <trkpt lat="38.1323990" lon="-3.8997060">
        <ele>415.6</ele>
        <time>2018-04-28T08:04:55Z</time>
      </trkpt>
      <trkpt lat="38.1323560" lon="-3.8997110">
        <ele>416.0</ele>
        <time>2018-04-28T08:04:56Z</time>
      </trkpt>
      <trkpt lat="38.1323130" lon="-3.8997140">
        <ele>416.2</ele>
        <time>2018-04-28T08:04:57Z</time>
      </trkpt>
      <trkpt lat="38.1322710" lon="-3.8997150">
        <ele>416.6</ele>
        <time>2018-04-28T08:04:58Z</time>
      </trkpt>
      <trkpt lat="38.1322310" lon="-3.8997200">
        <ele>416.8</ele>
        <time>2018-04-28T08:04:59Z</time>
      </trkpt>
      <trkpt lat="38.1321880" lon="-3.8997200">
        <ele>417.0</ele>
        <time>2018-04-28T08:05:00Z</time>
      </trkpt>
      <trkpt lat="38.1321460" lon="-3.8997230">
        <ele>417.2</ele>
        <time>2018-04-28T08:05:01Z</time>
      </trkpt>
      <trkpt lat="38.1321060" lon="-3.8997290">
        <ele>417.4</ele>
        <time>2018-04-28T08:05:02Z</time>
      </trkpt>
      <trkpt lat="38.1320660" lon="-3.8997310">
        <ele>417.6</ele>
        <time>2018-04-28T08:05:03Z</time>
      </trkpt>
      <trkpt lat="38.1320240" lon="-3.8997270">
        <ele>417.8</ele>
        <time>2018-04-28T08:05:04Z</time>
      </trkpt>
      <trkpt lat="38.1319860" lon="-3.8997320">
        <ele>418.2</ele>
        <time>2018-04-28T08:05:05Z</time>
      </trkpt>
      <trkpt lat="38.1319500" lon="-3.8997410">
        <ele>418.4</ele>
        <time>2018-04-28T08:05:06Z</time>
      </trkpt>
      <trkpt lat="38.1319140" lon="-3.8997530">
        <ele>418.6</ele>
        <time>2018-04-28T08:05:07Z</time>
      </trkpt>
      <trkpt lat="38.1318800" lon="-3.8997660">
        <ele>418.6</ele>
        <time>2018-04-28T08:05:08Z</time>
      </trkpt>
      <trkpt lat="38.1318480" lon="-3.8997800">
        <ele>419.0</ele>
        <time>2018-04-28T08:05:09Z</time>
      </trkpt>
      <trkpt lat="38.1318140" lon="-3.8997840">
        <ele>419.2</ele>
        <time>2018-04-28T08:05:10Z</time>
      </trkpt>
      <trkpt lat="38.1317790" lon="-3.8997860">
        <ele>419.4</ele>
        <time>2018-04-28T08:05:11Z</time>
      </trkpt>
      <trkpt lat="38.1317470" lon="-3.8997910">
        <ele>419.6</ele>
        <time>2018-04-28T08:05:12Z</time>
      </trkpt>
      <trkpt lat="38.1317160" lon="-3.8997960">
        <ele>419.8</ele>
        <time>2018-04-28T08:05:13Z</time>
      </trkpt>
      <trkpt lat="38.1316880" lon="-3.8998040">
        <ele>420.0</ele>
        <time>2018-04-28T08:05:14Z</time>
      </trkpt>
      <trkpt lat="38.1316610" lon="-3.8998100">
        <ele>420.2</ele>
        <time>2018-04-28T08:05:15Z</time>
      </trkpt>
      <trkpt lat="38.1316340" lon="-3.8998140">
        <ele>421.2</ele>
        <time>2018-04-28T08:05:16Z</time>
      </trkpt>
      <trkpt lat="38.1316080" lon="-3.8998150">
        <ele>420.2</ele>
        <time>2018-04-28T08:05:17Z</time>
      </trkpt>
      <trkpt lat="38.1315820" lon="-3.8998190">
        <ele>422.4</ele>
        <time>2018-04-28T08:05:18Z</time>
      </trkpt>
      <trkpt lat="38.1315550" lon="-3.8998190">
        <ele>420.8</ele>
        <time>2018-04-28T08:05:19Z</time>
      </trkpt>
      <trkpt lat="38.1315280" lon="-3.8998220">
        <ele>420.8</ele>
        <time>2018-04-28T08:05:20Z</time>
      </trkpt>
      <trkpt lat="38.1315000" lon="-3.8998220">
        <ele>421.0</ele>
        <time>2018-04-28T08:05:21Z</time>
      </trkpt>
      <trkpt lat="38.1314730" lon="-3.8998270">
        <ele>421.2</ele>
        <time>2018-04-28T08:05:22Z</time>
      </trkpt>
      <trkpt lat="38.1314460" lon="-3.8998300">
        <ele>421.4</ele>
        <time>2018-04-28T08:05:23Z</time>
      </trkpt>
      <trkpt lat="38.1314200" lon="-3.8998320">
        <ele>421.6</ele>
        <time>2018-04-28T08:05:24Z</time>
      </trkpt>
      <trkpt lat="38.1313930" lon="-3.8998360">
        <ele>421.6</ele>
        <time>2018-04-28T08:05:25Z</time>
      </trkpt>
      <trkpt lat="38.1313660" lon="-3.8998370">
        <ele>421.8</ele>
        <time>2018-04-28T08:05:26Z</time>
      </trkpt>
      <trkpt lat="38.1313390" lon="-3.8998400">
        <ele>422.0</ele>
        <time>2018-04-28T08:05:27Z</time>
      </trkpt>
      <trkpt lat="38.1313110" lon="-3.8998430">
        <ele>422.0</ele>
        <time>2018-04-28T08:05:28Z</time>
      </trkpt>
      <trkpt lat="38.1312840" lon="-3.8998440">
        <ele>422.0</ele>
        <time>2018-04-28T08:05:29Z</time>
      </trkpt>
      <trkpt lat="38.1312570" lon="-3.8998420">
        <ele>422.2</ele>
        <time>2018-04-28T08:05:30Z</time>
      </trkpt>
      <trkpt lat="38.1312290" lon="-3.8998350">
        <ele>422.2</ele>
        <time>2018-04-28T08:05:31Z</time>
      </trkpt>
      <trkpt lat="38.1312020" lon="-3.8998290">
        <ele>422.4</ele>
        <time>2018-04-28T08:05:32Z</time>
      </trkpt>
      <trkpt lat="38.1311750" lon="-3.8998250">
        <ele>422.6</ele>
        <time>2018-04-28T08:05:33Z</time>
      </trkpt>
      <trkpt lat="38.1311470" lon="-3.8998200">
        <ele>422.6</ele>
        <time>2018-04-28T08:05:34Z</time>
      </trkpt>
      <trkpt lat="38.1311200" lon="-3.8998150">
        <ele>422.8</ele>
        <time>2018-04-28T08:05:35Z</time>
      </trkpt>
      <trkpt lat="38.1310940" lon="-3.8998130">
        <ele>422.8</ele>
        <time>2018-04-28T08:05:36Z</time>
      </trkpt>
      <trkpt lat="38.1310690" lon="-3.8998110">
        <ele>423.0</ele>
        <time>2018-04-28T08:05:37Z</time>
      </trkpt>
      <trkpt lat="38.1310430" lon="-3.8998060">
        <ele>423.2</ele>
        <time>2018-04-28T08:05:38Z</time>
      </trkpt>
      <trkpt lat="38.1310170" lon="-3.8998000">
        <ele>423.4</ele>
        <time>2018-04-28T08:05:39Z</time>
      </trkpt>
      <trkpt lat="38.1309920" lon="-3.8997970">
        <ele>423.4</ele>
        <time>2018-04-28T08:05:40Z</time>
      </trkpt>
      <trkpt lat="38.1309670" lon="-3.8997950">
        <ele>423.8</ele>
        <time>2018-04-28T08:05:41Z</time>
      </trkpt>
      <trkpt lat="38.1309410" lon="-3.8997940">
        <ele>423.8</ele>
        <time>2018-04-28T08:05:42Z</time>
      </trkpt>
      <trkpt lat="38.1309140" lon="-3.8997890">
        <ele>424.2</ele>
        <time>2018-04-28T08:05:43Z</time>
      </trkpt>
      <trkpt lat="38.1308890" lon="-3.8997880">
        <ele>424.4</ele>
        <time>2018-04-28T08:05:44Z</time>
      </trkpt>
      <trkpt lat="38.1308630" lon="-3.8997870">
        <ele>424.6</ele>
        <time>2018-04-28T08:05:45Z</time>
      </trkpt>
      <trkpt lat="38.1308380" lon="-3.8997840">
        <ele>424.8</ele>
        <time>2018-04-28T08:05:46Z</time>
      </trkpt>
      <trkpt lat="38.1308120" lon="-3.8997800">
        <ele>424.8</ele>
        <time>2018-04-28T08:05:47Z</time>
      </trkpt>
      <trkpt lat="38.1307870" lon="-3.8997800">
        <ele>425.0</ele>
        <time>2018-04-28T08:05:48Z</time>
      </trkpt>
      <trkpt lat="38.1307620" lon="-3.8997810">
        <ele>425.2</ele>
        <time>2018-04-28T08:05:49Z</time>
      </trkpt>
      <trkpt lat="38.1307360" lon="-3.8997830">
        <ele>425.2</ele>
        <time>2018-04-28T08:05:50Z</time>
      </trkpt>
      <trkpt lat="38.1307090" lon="-3.8997820">
        <ele>425.4</ele>
        <time>2018-04-28T08:05:51Z</time>
      </trkpt>
      <trkpt lat="38.1306840" lon="-3.8997820">
        <ele>425.6</ele>
        <time>2018-04-28T08:05:52Z</time>
      </trkpt>
      <trkpt lat="38.1306590" lon="-3.8997820">
        <ele>425.8</ele>
        <time>2018-04-28T08:05:53Z</time>
      </trkpt>
      <trkpt lat="38.1306320" lon="-3.8997810">
        <ele>426.0</ele>
        <time>2018-04-28T08:05:54Z</time>
      </trkpt>
      <trkpt lat="38.1306060" lon="-3.8997810">
        <ele>426.0</ele>
        <time>2018-04-28T08:05:55Z</time>
      </trkpt>
      <trkpt lat="38.1305810" lon="-3.8997830">
        <ele>426.2</ele>
        <time>2018-04-28T08:05:56Z</time>
      </trkpt>
      <trkpt lat="38.1305550" lon="-3.8997820">
        <ele>426.6</ele>
        <time>2018-04-28T08:05:57Z</time>
      </trkpt>
      <trkpt lat="38.1305300" lon="-3.8997830">
        <ele>426.8</ele>
        <time>2018-04-28T08:05:58Z</time>
      </trkpt>
      <trkpt lat="38.1305030" lon="-3.8997820">
        <ele>426.8</ele>
        <time>2018-04-28T08:05:59Z</time>
      </trkpt>
      <trkpt lat="38.1304760" lon="-3.8997810">
        <ele>427.0</ele>
        <time>2018-04-28T08:06:00Z</time>
      </trkpt>
      <trkpt lat="38.1304510" lon="-3.8997840">
        <ele>427.0</ele>
        <time>2018-04-28T08:06:01Z</time>
      </trkpt>
      <trkpt lat="38.1304250" lon="-3.8997890">
        <ele>427.2</ele>
        <time>2018-04-28T08:06:02Z</time>
      </trkpt>
      <trkpt lat="38.1303990" lon="-3.8997940">
        <ele>427.2</ele>
        <time>2018-04-28T08:06:03Z</time>
      </trkpt>
      <trkpt lat="38.1303710" lon="-3.8997970">
        <ele>427.4</ele>
        <time>2018-04-28T08:06:04Z</time>
      </trkpt>
      <trkpt lat="38.1303440" lon="-3.8998020">
        <ele>427.4</ele>
        <time>2018-04-28T08:06:05Z</time>
      </trkpt>
      <trkpt lat="38.1303190" lon="-3.8998060">
        <ele>427.4</ele>
        <time>2018-04-28T08:06:06Z</time>
      </trkpt>
      <trkpt lat="38.1302930" lon="-3.8998110">
        <ele>427.4</ele>
        <time>2018-04-28T08:06:07Z</time>
      </trkpt>
      <trkpt lat="38.1302660" lon="-3.8998170">
        <ele>427.8</ele>
        <time>2018-04-28T08:06:08Z</time>
      </trkpt>
      <trkpt lat="38.1302390" lon="-3.8998170">
        <ele>427.6</ele>
        <time>2018-04-28T08:06:09Z</time>
      </trkpt>
      <trkpt lat="38.1302130" lon="-3.8998180">
        <ele>427.6</ele>
        <time>2018-04-28T08:06:10Z</time>
      </trkpt>
      <trkpt lat="38.1301860" lon="-3.8998190">
        <ele>427.6</ele>
        <time>2018-04-28T08:06:11Z</time>
      </trkpt>
      <trkpt lat="38.1301550" lon="-3.8998150">
        <ele>427.8</ele>
        <time>2018-04-28T08:06:12Z</time>
      </trkpt>
      <trkpt lat="38.1301240" lon="-3.8998130">
        <ele>427.8</ele>
        <time>2018-04-28T08:06:13Z</time>
      </trkpt>
      <trkpt lat="38.1300920" lon="-3.8998080">
        <ele>428.0</ele>
        <time>2018-04-28T08:06:14Z</time>
      </trkpt>
      <trkpt lat="38.1300600" lon="-3.8997990">
        <ele>428.0</ele>
        <time>2018-04-28T08:06:15Z</time>
      </trkpt>
      <trkpt lat="38.1300280" lon="-3.8997870">
        <ele>428.0</ele>
        <time>2018-04-28T08:06:16Z</time>
      </trkpt>
      <trkpt lat="38.1299970" lon="-3.8997770">
        <ele>428.2</ele>
        <time>2018-04-28T08:06:17Z</time>
      </trkpt>
      <trkpt lat="38.1299670" lon="-3.8997650">
        <ele>428.2</ele>
        <time>2018-04-28T08:06:18Z</time>
      </trkpt>
      <trkpt lat="38.1299370" lon="-3.8997450">
        <ele>428.4</ele>
        <time>2018-04-28T08:06:19Z</time>
      </trkpt>
      <trkpt lat="38.1299080" lon="-3.8997270">
        <ele>428.8</ele>
        <time>2018-04-28T08:06:20Z</time>
      </trkpt>
      <trkpt lat="38.1298790" lon="-3.8997090">
        <ele>428.8</ele>
        <time>2018-04-28T08:06:21Z</time>
      </trkpt>
      <trkpt lat="38.1298510" lon="-3.8996870">
        <ele>428.8</ele>
        <time>2018-04-28T08:06:22Z</time>
      </trkpt>
      <trkpt lat="38.1298240" lon="-3.8996720">
        <ele>429.0</ele>
        <time>2018-04-28T08:06:23Z</time>
      </trkpt>
      <trkpt lat="38.1297960" lon="-3.8996550">
        <ele>429.0</ele>
        <time>2018-04-28T08:06:24Z</time>
      </trkpt>
      <trkpt lat="38.1297650" lon="-3.8996360">
        <ele>428.8</ele>
        <time>2018-04-28T08:06:25Z</time>
      </trkpt>
      <trkpt lat="38.1297330" lon="-3.8996180">
        <ele>428.8</ele>
        <time>2018-04-28T08:06:26Z</time>
      </trkpt>
      <trkpt lat="38.1297000" lon="-3.8996010">
        <ele>428.8</ele>
        <time>2018-04-28T08:06:27Z</time>
      </trkpt>
      <trkpt lat="38.1296630" lon="-3.8995850">
        <ele>428.8</ele>
        <time>2018-04-28T08:06:28Z</time>
      </trkpt>
      <trkpt lat="38.1296220" lon="-3.8995660">
        <ele>428.4</ele>
        <time>2018-04-28T08:06:29Z</time>
      </trkpt>
      <trkpt lat="38.1295790" lon="-3.8995500">
        <ele>428.2</ele>
        <time>2018-04-28T08:06:30Z</time>
      </trkpt>
      <trkpt lat="38.1295330" lon="-3.8995320">
        <ele>428.0</ele>
        <time>2018-04-28T08:06:31Z</time>
      </trkpt>
      <trkpt lat="38.1294830" lon="-3.8995130">
        <ele>428.0</ele>
        <time>2018-04-28T08:06:32Z</time>
      </trkpt>
      <trkpt lat="38.1294300" lon="-3.8994850">
        <ele>427.8</ele>
        <time>2018-04-28T08:06:33Z</time>
      </trkpt>
      <trkpt lat="38.1293800" lon="-3.8994630">
        <ele>428.0</ele>
        <time>2018-04-28T08:06:34Z</time>
      </trkpt>
      <trkpt lat="38.1293330" lon="-3.8994450">
        <ele>428.2</ele>
        <time>2018-04-28T08:06:35Z</time>
      </trkpt>
      <trkpt lat="38.1292840" lon="-3.8994240">
        <ele>428.4</ele>
        <time>2018-04-28T08:06:36Z</time>
      </trkpt>
      <trkpt lat="38.1292400" lon="-3.8994110">
        <ele>428.4</ele>
        <time>2018-04-28T08:06:37Z</time>
      </trkpt>
      <trkpt lat="38.1292000" lon="-3.8993990">
        <ele>429.0</ele>
        <time>2018-04-28T08:06:38Z</time>
      </trkpt>
      <trkpt lat="38.1291630" lon="-3.8993870">
        <ele>429.2</ele>
        <time>2018-04-28T08:06:39Z</time>
      </trkpt>
      <trkpt lat="38.1291300" lon="-3.8993760">
        <ele>429.4</ele>
        <time>2018-04-28T08:06:40Z</time>
      </trkpt>
      <trkpt lat="38.1290990" lon="-3.8993660">
        <ele>429.8</ele>
        <time>2018-04-28T08:06:41Z</time>
      </trkpt>
      <trkpt lat="38.1290720" lon="-3.8993540">
        <ele>429.8</ele>
        <time>2018-04-28T08:06:42Z</time>
      </trkpt>
      <trkpt lat="38.1290430" lon="-3.8993450">
        <ele>430.0</ele>
        <time>2018-04-28T08:06:43Z</time>
      </trkpt>
      <trkpt lat="38.1290140" lon="-3.8993400">
        <ele>430.2</ele>
        <time>2018-04-28T08:06:44Z</time>
      </trkpt>
      <trkpt lat="38.1289830" lon="-3.8993310">
        <ele>430.4</ele>
        <time>2018-04-28T08:06:45Z</time>
      </trkpt>
      <trkpt lat="38.1289520" lon="-3.8993220">
        <ele>430.8</ele>
        <time>2018-04-28T08:06:46Z</time>
      </trkpt>
      <trkpt lat="38.1289210" lon="-3.8993130">
        <ele>431.4</ele>
        <time>2018-04-28T08:06:47Z</time>
      </trkpt>
      <trkpt lat="38.1288930" lon="-3.8993140">
        <ele>431.4</ele>
        <time>2018-04-28T08:06:48Z</time>
      </trkpt>
      <trkpt lat="38.1288660" lon="-3.8993180">
        <ele>431.8</ele>
        <time>2018-04-28T08:06:49Z</time>
      </trkpt>
      <trkpt lat="38.1288450" lon="-3.8993320">
        <ele>432.2</ele>
        <time>2018-04-28T08:06:50Z</time>
      </trkpt>
      <trkpt lat="38.1288250" lon="-3.8993470">
        <ele>432.2</ele>
        <time>2018-04-28T08:06:51Z</time>
      </trkpt>
      <trkpt lat="38.1288070" lon="-3.8993570">
        <ele>432.4</ele>
        <time>2018-04-28T08:06:52Z</time>
      </trkpt>
      <trkpt lat="38.1287910" lon="-3.8993710">
        <ele>432.4</ele>
        <time>2018-04-28T08:06:53Z</time>
      </trkpt>
      <trkpt lat="38.1287770" lon="-3.8993830">
        <ele>432.6</ele>
        <time>2018-04-28T08:06:54Z</time>
      </trkpt>
      <trkpt lat="38.1287650" lon="-3.8993950">
        <ele>432.6</ele>
        <time>2018-04-28T08:06:55Z</time>
      </trkpt>
      <trkpt lat="38.1287520" lon="-3.8994050">
        <ele>432.6</ele>
        <time>2018-04-28T08:06:56Z</time>
      </trkpt>
      <trkpt lat="38.1287390" lon="-3.8994140">
        <ele>432.8</ele>
        <time>2018-04-28T08:06:57Z</time>
      </trkpt>
      <trkpt lat="38.1287250" lon="-3.8994270">
        <ele>432.8</ele>
        <time>2018-04-28T08:06:58Z</time>
      </trkpt>
      <trkpt lat="38.1287090" lon="-3.8994460">
        <ele>432.8</ele>
        <time>2018-04-28T08:06:59Z</time>
      </trkpt>
      <trkpt lat="38.1286980" lon="-3.8994720">
        <ele>432.8</ele>
        <time>2018-04-28T08:07:00Z</time>
      </trkpt>
      <trkpt lat="38.1286850" lon="-3.8995000">
        <ele>432.8</ele>
        <time>2018-04-28T08:07:01Z</time>
      </trkpt>
      <trkpt lat="38.1286730" lon="-3.8995290">
        <ele>432.8</ele>
        <time>2018-04-28T08:07:02Z</time>
      </trkpt>
      <trkpt lat="38.1286610" lon="-3.8995630">
        <ele>433.0</ele>
        <time>2018-04-28T08:07:03Z</time>
      </trkpt>
      <trkpt lat="38.1286490" lon="-3.8995970">
        <ele>432.8</ele>
        <time>2018-04-28T08:07:04Z</time>
      </trkpt>
      <trkpt lat="38.1286380" lon="-3.8996300">
        <ele>433.0</ele>
        <time>2018-04-28T08:07:05Z</time>
      </trkpt>
      <trkpt lat="38.1286260" lon="-3.8996640">
        <ele>433.4</ele>
        <time>2018-04-28T08:07:06Z</time>
      </trkpt>
      <trkpt lat="38.1286140" lon="-3.8996990">
        <ele>433.8</ele>
        <time>2018-04-28T08:07:07Z</time>
      </trkpt>
      <trkpt lat="38.1286030" lon="-3.8997320">
        <ele>433.4</ele>
        <time>2018-04-28T08:07:08Z</time>
      </trkpt>
      <trkpt lat="38.1285930" lon="-3.8997650">
        <ele>433.6</ele>
        <time>2018-04-28T08:07:09Z</time>
      </trkpt>
      <trkpt lat="38.1285820" lon="-3.8997990">
        <ele>433.6</ele>
        <time>2018-04-28T08:07:10Z</time>
      </trkpt>
      <trkpt lat="38.1285720" lon="-3.8998330">
        <ele>433.6</ele>
        <time>2018-04-28T08:07:11Z</time>
      </trkpt>
      <trkpt lat="38.1285620" lon="-3.8998670">
        <ele>433.8</ele>
        <time>2018-04-28T08:07:12Z</time>
      </trkpt>
      <trkpt lat="38.1285530" lon="-3.8999010">
        <ele>434.0</ele>
        <time>2018-04-28T08:07:13Z</time>
      </trkpt>
      <trkpt lat="38.1285430" lon="-3.8999350">
        <ele>434.0</ele>
        <time>2018-04-28T08:07:14Z</time>
      </trkpt>
      <trkpt lat="38.1285310" lon="-3.8999680">
        <ele>434.2</ele>
        <time>2018-04-28T08:07:15Z</time>
      </trkpt>
      <trkpt lat="38.1285210" lon="-3.9000010">
        <ele>434.4</ele>
        <time>2018-04-28T08:07:16Z</time>
      </trkpt>
      <trkpt lat="38.1285120" lon="-3.9000360">
        <ele>434.2</ele>
        <time>2018-04-28T08:07:17Z</time>
      </trkpt>
      <trkpt lat="38.1285020" lon="-3.9000700">
        <ele>434.2</ele>
        <time>2018-04-28T08:07:18Z</time>
      </trkpt>
      <trkpt lat="38.1284920" lon="-3.9001050">
        <ele>434.2</ele>
        <time>2018-04-28T08:07:19Z</time>
      </trkpt>
      <trkpt lat="38.1284810" lon="-3.9001410">
        <ele>434.2</ele>
        <time>2018-04-28T08:07:20Z</time>
      </trkpt>
      <trkpt lat="38.1284700" lon="-3.9001790">
        <ele>434.0</ele>
        <time>2018-04-28T08:07:21Z</time>
      </trkpt>
      <trkpt lat="38.1284590" lon="-3.9002190">
        <ele>434.0</ele>
        <time>2018-04-28T08:07:22Z</time>
      </trkpt>
      <trkpt lat="38.1284360" lon="-3.9003020">
        <ele>434.0</ele>
        <time>2018-04-28T08:07:23Z</time>
      </trkpt>
      <trkpt lat="38.1284360" lon="-3.9003020">
        <ele>433.8</ele>
        <time>2018-04-28T08:07:24Z</time>
      </trkpt>
      <trkpt lat="38.1284280" lon="-3.9003460">
        <ele>433.8</ele>
        <time>2018-04-28T08:07:25Z</time>
      </trkpt>
      <trkpt lat="38.1284200" lon="-3.9003920">
        <ele>433.6</ele>
        <time>2018-04-28T08:07:26Z</time>
      </trkpt>
      <trkpt lat="38.1284160" lon="-3.9004430">
        <ele>433.6</ele>
        <time>2018-04-28T08:07:27Z</time>
      </trkpt>
      <trkpt lat="38.1284140" lon="-3.9004930">
        <ele>433.6</ele>
        <time>2018-04-28T08:07:28Z</time>
      </trkpt>
      <trkpt lat="38.1284150" lon="-3.9005470">
        <ele>433.4</ele>
        <time>2018-04-28T08:07:29Z</time>
      </trkpt>
      <trkpt lat="38.1284200" lon="-3.9006020">
        <ele>433.2</ele>
        <time>2018-04-28T08:07:30Z</time>
      </trkpt>
      <trkpt lat="38.1284290" lon="-3.9006570">
        <ele>433.2</ele>
        <time>2018-04-28T08:07:31Z</time>
      </trkpt>
      <trkpt lat="38.1284420" lon="-3.9007090">
        <ele>433.2</ele>
        <time>2018-04-28T08:07:32Z</time>
      </trkpt>
      <trkpt lat="38.1284640" lon="-3.9007590">
        <ele>433.0</ele>
        <time>2018-04-28T08:07:33Z</time>
      </trkpt>
      <trkpt lat="38.1284870" lon="-3.9008060">
        <ele>433.0</ele>
        <time>2018-04-28T08:07:34Z</time>
      </trkpt>
      <trkpt lat="38.1285140" lon="-3.9008490">
        <ele>433.2</ele>
        <time>2018-04-28T08:07:35Z</time>
      </trkpt>
      <trkpt lat="38.1285440" lon="-3.9008890">
        <ele>433.0</ele>
        <time>2018-04-28T08:07:36Z</time>
      </trkpt>
      <trkpt lat="38.1285760" lon="-3.9009280">
        <ele>432.8</ele>
        <time>2018-04-28T08:07:37Z</time>
      </trkpt>
      <trkpt lat="38.1286110" lon="-3.9009640">
        <ele>432.8</ele>
        <time>2018-04-28T08:07:38Z</time>
      </trkpt>
      <trkpt lat="38.1286470" lon="-3.9009980">
        <ele>432.8</ele>
        <time>2018-04-28T08:07:39Z</time>
      </trkpt>
      <trkpt lat="38.1286830" lon="-3.9010310">
        <ele>432.8</ele>
        <time>2018-04-28T08:07:40Z</time>
      </trkpt>
      <trkpt lat="38.1287190" lon="-3.9010640">
        <ele>432.8</ele>
        <time>2018-04-28T08:07:41Z</time>
      </trkpt>
      <trkpt lat="38.1287550" lon="-3.9010950">
        <ele>432.6</ele>
        <time>2018-04-28T08:07:42Z</time>
      </trkpt>
      <trkpt lat="38.1287930" lon="-3.9011220">
        <ele>432.8</ele>
        <time>2018-04-28T08:07:43Z</time>
      </trkpt>
      <trkpt lat="38.1288320" lon="-3.9011480">
        <ele>432.8</ele>
        <time>2018-04-28T08:07:44Z</time>
      </trkpt>
      <trkpt lat="38.1288700" lon="-3.9011730">
        <ele>432.8</ele>
        <time>2018-04-28T08:07:45Z</time>
      </trkpt>
      <trkpt lat="38.1289070" lon="-3.9011980">
        <ele>432.4</ele>
        <time>2018-04-28T08:07:46Z</time>
      </trkpt>
      <trkpt lat="38.1289450" lon="-3.9012200">
        <ele>432.4</ele>
        <time>2018-04-28T08:07:47Z</time>
      </trkpt>
      <trkpt lat="38.1289850" lon="-3.9012410">
        <ele>432.2</ele>
        <time>2018-04-28T08:07:48Z</time>
      </trkpt>
      <trkpt lat="38.1290240" lon="-3.9012710">
        <ele>432.2</ele>
        <time>2018-04-28T08:07:49Z</time>
      </trkpt>
      <trkpt lat="38.1290620" lon="-3.9013020">
        <ele>432.0</ele>
        <time>2018-04-28T08:07:50Z</time>
      </trkpt>
      <trkpt lat="38.1291020" lon="-3.9013320">
        <ele>431.8</ele>
        <time>2018-04-28T08:07:51Z</time>
      </trkpt>
      <trkpt lat="38.1291440" lon="-3.9013680">
        <ele>431.8</ele>
        <time>2018-04-28T08:07:52Z</time>
      </trkpt>
      <trkpt lat="38.1291810" lon="-3.9014080">
        <ele>431.4</ele>
        <time>2018-04-28T08:07:53Z</time>
      </trkpt>
      <trkpt lat="38.1292160" lon="-3.9014590">
        <ele>431.2</ele>
        <time>2018-04-28T08:07:54Z</time>
      </trkpt>
      <trkpt lat="38.1292420" lon="-3.9015190">
        <ele>431.0</ele>
        <time>2018-04-28T08:07:55Z</time>
      </trkpt>
      <trkpt lat="38.1292570" lon="-3.9015870">
        <ele>430.8</ele>
        <time>2018-04-28T08:07:56Z</time>
      </trkpt>
      <trkpt lat="38.1292600" lon="-3.9016570">
        <ele>430.6</ele>
        <time>2018-04-28T08:07:57Z</time>
      </trkpt>
      <trkpt lat="38.1292510" lon="-3.9017280">
        <ele>430.4</ele>
        <time>2018-04-28T08:07:58Z</time>
      </trkpt>
      <trkpt lat="38.1292190" lon="-3.9017920">
        <ele>429.8</ele>
        <time>2018-04-28T08:07:59Z</time>
      </trkpt>
      <trkpt lat="38.1291710" lon="-3.9018450">
        <ele>429.4</ele>
        <time>2018-04-28T08:08:00Z</time>
      </trkpt>
      <trkpt lat="38.1291150" lon="-3.9018870">
        <ele>429.2</ele>
        <time>2018-04-28T08:08:01Z</time>
      </trkpt>
      <trkpt lat="38.1290490" lon="-3.9019240">
        <ele>429.2</ele>
        <time>2018-04-28T08:08:02Z</time>
      </trkpt>
      <trkpt lat="38.1289880" lon="-3.9019540">
        <ele>429.0</ele>
        <time>2018-04-28T08:08:03Z</time>
      </trkpt>
      <trkpt lat="38.1289230" lon="-3.9019790">
        <ele>428.8</ele>
        <time>2018-04-28T08:08:04Z</time>
      </trkpt>
      <trkpt lat="38.1288580" lon="-3.9020000">
        <ele>428.8</ele>
        <time>2018-04-28T08:08:05Z</time>
      </trkpt>
      <trkpt lat="38.1287920" lon="-3.9020180">
        <ele>428.6</ele>
        <time>2018-04-28T08:08:06Z</time>
      </trkpt>
      <trkpt lat="38.1287280" lon="-3.9020360">
        <ele>428.8</ele>
        <time>2018-04-28T08:08:07Z</time>
      </trkpt>
      <trkpt lat="38.1286650" lon="-3.9020530">
        <ele>428.8</ele>
        <time>2018-04-28T08:08:08Z</time>
      </trkpt>
      <trkpt lat="38.1286010" lon="-3.9020720">
        <ele>428.6</ele>
        <time>2018-04-28T08:08:09Z</time>
      </trkpt>
      <trkpt lat="38.1285390" lon="-3.9020910">
        <ele>428.8</ele>
        <time>2018-04-28T08:08:10Z</time>
      </trkpt>
      <trkpt lat="38.1284760" lon="-3.9021100">
        <ele>428.6</ele>
        <time>2018-04-28T08:08:11Z</time>
      </trkpt>
      <trkpt lat="38.1284140" lon="-3.9021280">
        <ele>428.6</ele>
        <time>2018-04-28T08:08:12Z</time>
      </trkpt>
      <trkpt lat="38.1283550" lon="-3.9021470">
        <ele>428.8</ele>
        <time>2018-04-28T08:08:13Z</time>
      </trkpt>
      <trkpt lat="38.1282930" lon="-3.9021670">
        <ele>428.8</ele>
        <time>2018-04-28T08:08:14Z</time>
      </trkpt>
      <trkpt lat="38.1282310" lon="-3.9021850">
        <ele>428.8</ele>
        <time>2018-04-28T08:08:15Z</time>
      </trkpt>
      <trkpt lat="38.1281700" lon="-3.9022030">
        <ele>428.6</ele>
        <time>2018-04-28T08:08:16Z</time>
      </trkpt>
      <trkpt lat="38.1281100" lon="-3.9022240">
        <ele>428.8</ele>
        <time>2018-04-28T08:08:17Z</time>
      </trkpt>
      <trkpt lat="38.1280510" lon="-3.9022440">
        <ele>428.8</ele>
        <time>2018-04-28T08:08:18Z</time>
      </trkpt>
      <trkpt lat="38.1279900" lon="-3.9022610">
        <ele>429.0</ele>
        <time>2018-04-28T08:08:19Z</time>
      </trkpt>
      <trkpt lat="38.1279340" lon="-3.9022800">
        <ele>429.0</ele>
        <time>2018-04-28T08:08:20Z</time>
      </trkpt>
      <trkpt lat="38.1278770" lon="-3.9022960">
        <ele>429.0</ele>
        <time>2018-04-28T08:08:21Z</time>
      </trkpt>
      <trkpt lat="38.1278220" lon="-3.9023090">
        <ele>429.2</ele>
        <time>2018-04-28T08:08:22Z</time>
      </trkpt>
      <trkpt lat="38.1277680" lon="-3.9023170">
        <ele>429.2</ele>
        <time>2018-04-28T08:08:23Z</time>
      </trkpt>
      <trkpt lat="38.1277160" lon="-3.9023190">
        <ele>429.2</ele>
        <time>2018-04-28T08:08:24Z</time>
      </trkpt>
      <trkpt lat="38.1276670" lon="-3.9023130">
        <ele>429.2</ele>
        <time>2018-04-28T08:08:25Z</time>
      </trkpt>
      <trkpt lat="38.1276240" lon="-3.9023070">
        <ele>429.4</ele>
        <time>2018-04-28T08:08:26Z</time>
      </trkpt>
      <trkpt lat="38.1275810" lon="-3.9023000">
        <ele>429.4</ele>
        <time>2018-04-28T08:08:27Z</time>
      </trkpt>
      <trkpt lat="38.1275350" lon="-3.9022850">
        <ele>429.4</ele>
        <time>2018-04-28T08:08:28Z</time>
      </trkpt>
      <trkpt lat="38.1274450" lon="-3.9022470">
        <ele>429.4</ele>
        <time>2018-04-28T08:08:29Z</time>
      </trkpt>
      <trkpt lat="38.1274050" lon="-3.9022300">
        <ele>429.4</ele>
        <time>2018-04-28T08:08:30Z</time>
      </trkpt>
      <trkpt lat="38.1273650" lon="-3.9022140">
        <ele>429.6</ele>
        <time>2018-04-28T08:08:31Z</time>
      </trkpt>
      <trkpt lat="38.1273450" lon="-3.9022060">
        <ele>429.6</ele>
        <time>2018-04-28T08:08:32Z</time>
      </trkpt>
      <trkpt lat="38.1273250" lon="-3.9021980">
        <ele>429.6</ele>
        <time>2018-04-28T08:08:33Z</time>
      </trkpt>
      <trkpt lat="38.1272810" lon="-3.9021770">
        <ele>429.8</ele>
        <time>2018-04-28T08:08:34Z</time>
      </trkpt>
      <trkpt lat="38.1272400" lon="-3.9021590">
        <ele>429.8</ele>
        <time>2018-04-28T08:08:35Z</time>
      </trkpt>
      <trkpt lat="38.1271970" lon="-3.9021400">
        <ele>429.8</ele>
        <time>2018-04-28T08:08:36Z</time>
      </trkpt>
      <trkpt lat="38.1271570" lon="-3.9021260">
        <ele>430.2</ele>
        <time>2018-04-28T08:08:37Z</time>
      </trkpt>
      <trkpt lat="38.1271220" lon="-3.9021180">
        <ele>430.0</ele>
        <time>2018-04-28T08:08:38Z</time>
      </trkpt>
      <trkpt lat="38.1270820" lon="-3.9021140">
        <ele>430.0</ele>
        <time>2018-04-28T08:08:39Z</time>
      </trkpt>
      <trkpt lat="38.1270410" lon="-3.9021060">
        <ele>429.8</ele>
        <time>2018-04-28T08:08:40Z</time>
      </trkpt>
      <trkpt lat="38.1269980" lon="-3.9020980">
        <ele>429.8</ele>
        <time>2018-04-28T08:08:41Z</time>
      </trkpt>
      <trkpt lat="38.1269580" lon="-3.9020970">
        <ele>429.6</ele>
        <time>2018-04-28T08:08:42Z</time>
      </trkpt>
      <trkpt lat="38.1269170" lon="-3.9020930">
        <ele>429.6</ele>
        <time>2018-04-28T08:08:43Z</time>
      </trkpt>
      <trkpt lat="38.1268780" lon="-3.9020930">
        <ele>429.6</ele>
        <time>2018-04-28T08:08:44Z</time>
      </trkpt>
      <trkpt lat="38.1268440" lon="-3.9020980">
        <ele>429.4</ele>
        <time>2018-04-28T08:08:45Z</time>
      </trkpt>
      <trkpt lat="38.1268160" lon="-3.9021040">
        <ele>429.2</ele>
        <time>2018-04-28T08:08:46Z</time>
      </trkpt>
      <trkpt lat="38.1267670" lon="-3.9021380">
        <ele>429.2</ele>
        <time>2018-04-28T08:08:47Z</time>
      </trkpt>
      <trkpt lat="38.1267350" lon="-3.9021650">
        <ele>429.2</ele>
        <time>2018-04-28T08:08:48Z</time>
      </trkpt>
      <trkpt lat="38.1267030" lon="-3.9021930">
        <ele>429.2</ele>
        <time>2018-04-28T08:08:49Z</time>
      </trkpt>
      <trkpt lat="38.1266710" lon="-3.9022200">
        <ele>429.2</ele>
        <time>2018-04-28T08:08:50Z</time>
      </trkpt>
      <trkpt lat="38.1266390" lon="-3.9022470">
        <ele>429.2</ele>
        <time>2018-04-28T08:08:51Z</time>
      </trkpt>
      <trkpt lat="38.1266080" lon="-3.9022740">
        <ele>429.2</ele>
        <time>2018-04-28T08:08:52Z</time>
      </trkpt>
      <trkpt lat="38.1265760" lon="-3.9023010">
        <ele>429.0</ele>
        <time>2018-04-28T08:08:53Z</time>
      </trkpt>
      <trkpt lat="38.1265440" lon="-3.9023280">
        <ele>429.2</ele>
        <time>2018-04-28T08:08:54Z</time>
      </trkpt>
      <trkpt lat="38.1265120" lon="-3.9023560">
        <ele>429.2</ele>
        <time>2018-04-28T08:08:55Z</time>
      </trkpt>
      <trkpt lat="38.1264800" lon="-3.9023830">
        <ele>427.4</ele>
        <time>2018-04-28T08:09:57Z</time>
      </trkpt>
      <trkpt lat="38.1264480" lon="-3.9024100">
        <ele>427.2</ele>
        <time>2018-04-28T08:09:58Z</time>
      </trkpt>
      <trkpt lat="38.1264260" lon="-3.9024230">
        <ele>427.2</ele>
        <time>2018-04-28T08:09:59Z</time>
      </trkpt>
      <trkpt lat="38.1264030" lon="-3.9024350">
        <ele>427.0</ele>
        <time>2018-04-28T08:10:00Z</time>
      </trkpt>
      <trkpt lat="38.1263040" lon="-3.9024710">
        <ele>426.8</ele>
        <time>2018-04-28T08:10:01Z</time>
      </trkpt>
      <trkpt lat="38.1262490" lon="-3.9024810">
        <ele>426.4</ele>
        <time>2018-04-28T08:10:02Z</time>
      </trkpt>
      <trkpt lat="38.1262200" lon="-3.9024810">
        <ele>426.2</ele>
        <time>2018-04-28T08:10:03Z</time>
      </trkpt>
      <trkpt lat="38.1261910" lon="-3.9024810">
        <ele>425.6</ele>
        <time>2018-04-28T08:10:04Z</time>
      </trkpt>
      <trkpt lat="38.1261260" lon="-3.9024730">
        <ele>425.2</ele>
        <time>2018-04-28T08:10:05Z</time>
      </trkpt>
      <trkpt lat="38.1260620" lon="-3.9024630">
        <ele>424.8</ele>
        <time>2018-04-28T08:10:06Z</time>
      </trkpt>
      <trkpt lat="38.1259950" lon="-3.9024420">
        <ele>424.4</ele>
        <time>2018-04-28T08:10:07Z</time>
      </trkpt>
      <trkpt lat="38.1259250" lon="-3.9024140">
        <ele>424.4</ele>
        <time>2018-04-28T08:10:08Z</time>
      </trkpt>
      <trkpt lat="38.1258540" lon="-3.9023860">
        <ele>423.6</ele>
        <time>2018-04-28T08:10:09Z</time>
      </trkpt>
      <trkpt lat="38.1257800" lon="-3.9023550">
        <ele>423.4</ele>
        <time>2018-04-28T08:10:10Z</time>
      </trkpt>
      <trkpt lat="38.1257060" lon="-3.9023240">
        <ele>423.4</ele>
        <time>2018-04-28T08:10:11Z</time>
      </trkpt>
      <trkpt lat="38.1256350" lon="-3.9022890">
        <ele>423.4</ele>
        <time>2018-04-28T08:10:12Z</time>
      </trkpt>
      <trkpt lat="38.1255600" lon="-3.9022550">
        <ele>423.4</ele>
        <time>2018-04-28T08:10:13Z</time>
      </trkpt>
      <trkpt lat="38.1254830" lon="-3.9022180">
        <ele>423.2</ele>
        <time>2018-04-28T08:10:14Z</time>
      </trkpt>
      <trkpt lat="38.1254080" lon="-3.9021860">
        <ele>423.2</ele>
        <time>2018-04-28T08:10:15Z</time>
      </trkpt>
      <trkpt lat="38.1253300" lon="-3.9021480">
        <ele>423.2</ele>
        <time>2018-04-28T08:10:16Z</time>
      </trkpt>
      <trkpt lat="38.1252590" lon="-3.9021180">
        <ele>423.2</ele>
        <time>2018-04-28T08:10:17Z</time>
      </trkpt>
      <trkpt lat="38.1251880" lon="-3.9020860">
        <ele>423.0</ele>
        <time>2018-04-28T08:10:18Z</time>
      </trkpt>
      <trkpt lat="38.1251180" lon="-3.9020550">
        <ele>423.0</ele>
        <time>2018-04-28T08:10:19Z</time>
      </trkpt>
      <trkpt lat="38.1249710" lon="-3.9019950">
        <ele>422.8</ele>
        <time>2018-04-28T08:10:20Z</time>
      </trkpt>
      <trkpt lat="38.1249360" lon="-3.9019790">
        <ele>422.8</ele>
        <time>2018-04-28T08:10:21Z</time>
      </trkpt>
      <trkpt lat="38.1249000" lon="-3.9019630">
        <ele>423.0</ele>
        <time>2018-04-28T08:10:22Z</time>
      </trkpt>
      <trkpt lat="38.1247600" lon="-3.9019000">
        <ele>422.6</ele>
        <time>2018-04-28T08:10:23Z</time>
      </trkpt>
      <trkpt lat="38.1247230" lon="-3.9018810">
        <ele>422.2</ele>
        <time>2018-04-28T08:10:24Z</time>
      </trkpt>
      <trkpt lat="38.1246850" lon="-3.9018620">
        <ele>422.0</ele>
        <time>2018-04-28T08:10:25Z</time>
      </trkpt>
      <trkpt lat="38.1245420" lon="-3.9018070">
        <ele>421.8</ele>
        <time>2018-04-28T08:10:26Z</time>
      </trkpt>
      <trkpt lat="38.1245090" lon="-3.9017990">
        <ele>421.6</ele>
        <time>2018-04-28T08:10:27Z</time>
      </trkpt>
      <trkpt lat="38.1244750" lon="-3.9017910">
        <ele>421.6</ele>
        <time>2018-04-28T08:10:28Z</time>
      </trkpt>
      <trkpt lat="38.1243600" lon="-3.9017780">
        <ele>421.4</ele>
        <time>2018-04-28T08:10:29Z</time>
      </trkpt>
      <trkpt lat="38.1243070" lon="-3.9017840">
        <ele>421.4</ele>
        <time>2018-04-28T08:10:30Z</time>
      </trkpt>
      <trkpt lat="38.1242660" lon="-3.9017900">
        <ele>421.4</ele>
        <time>2018-04-28T08:10:31Z</time>
      </trkpt>
      <trkpt lat="38.1242250" lon="-3.9017960">
        <ele>421.4</ele>
        <time>2018-04-28T08:10:32Z</time>
      </trkpt>
      <trkpt lat="38.1241420" lon="-3.9018080">
        <ele>421.2</ele>
        <time>2018-04-28T08:10:33Z</time>
      </trkpt>
      <trkpt lat="38.1241150" lon="-3.9018200">
        <ele>421.2</ele>
        <time>2018-04-28T08:10:34Z</time>
      </trkpt>
      <trkpt lat="38.1240880" lon="-3.9018310">
        <ele>421.0</ele>
        <time>2018-04-28T08:10:35Z</time>
      </trkpt>
      <trkpt lat="38.1240310" lon="-3.9018450">
        <ele>421.0</ele>
        <time>2018-04-28T08:10:36Z</time>
      </trkpt>
      <trkpt lat="38.1239750" lon="-3.9018590">
        <ele>420.6</ele>
        <time>2018-04-28T08:10:37Z</time>
      </trkpt>
      <trkpt lat="38.1239180" lon="-3.9018770">
        <ele>420.6</ele>
        <time>2018-04-28T08:10:38Z</time>
      </trkpt>
      <trkpt lat="38.1238590" lon="-3.9018950">
        <ele>420.4</ele>
        <time>2018-04-28T08:10:39Z</time>
      </trkpt>
      <trkpt lat="38.1238000" lon="-3.9019080">
        <ele>420.8</ele>
        <time>2018-04-28T08:10:40Z</time>
      </trkpt>
      <trkpt lat="38.1237410" lon="-3.9019130">
        <ele>421.0</ele>
        <time>2018-04-28T08:10:41Z</time>
      </trkpt>
      <trkpt lat="38.1236250" lon="-3.9018990">
        <ele>421.0</ele>
        <time>2018-04-28T08:10:42Z</time>
      </trkpt>
      <trkpt lat="38.1235710" lon="-3.9018810">
        <ele>421.2</ele>
        <time>2018-04-28T08:10:43Z</time>
      </trkpt>
      <trkpt lat="38.1235340" lon="-3.9018520">
        <ele>421.6</ele>
        <time>2018-04-28T08:10:44Z</time>
      </trkpt>
      <trkpt lat="38.1234960" lon="-3.9018230">
        <ele>421.8</ele>
        <time>2018-04-28T08:10:45Z</time>
      </trkpt>
      <trkpt lat="38.1234200" lon="-3.9017660">
        <ele>422.0</ele>
        <time>2018-04-28T08:10:46Z</time>
      </trkpt>
      <trkpt lat="38.1233900" lon="-3.9017340">
        <ele>422.0</ele>
        <time>2018-04-28T08:10:47Z</time>
      </trkpt>
      <trkpt lat="38.1233600" lon="-3.9017020">
        <ele>422.2</ele>
        <time>2018-04-28T08:10:48Z</time>
      </trkpt>
      <trkpt lat="38.1233000" lon="-3.9016380">
        <ele>422.2</ele>
        <time>2018-04-28T08:10:49Z</time>
      </trkpt>
      <trkpt lat="38.1232560" lon="-3.9016050">
        <ele>422.2</ele>
        <time>2018-04-28T08:10:50Z</time>
      </trkpt>
      <trkpt lat="38.1232080" lon="-3.9015840">
        <ele>422.2</ele>
        <time>2018-04-28T08:10:51Z</time>
      </trkpt>
      <trkpt lat="38.1231560" lon="-3.9015790">
        <ele>422.0</ele>
        <time>2018-04-28T08:10:52Z</time>
      </trkpt>
      <trkpt lat="38.1231060" lon="-3.9015970">
        <ele>421.8</ele>
        <time>2018-04-28T08:10:53Z</time>
      </trkpt>
      <trkpt lat="38.1230820" lon="-3.9016140">
        <ele>421.6</ele>
        <time>2018-04-28T08:10:54Z</time>
      </trkpt>
      <trkpt lat="38.1230570" lon="-3.9016310">
        <ele>421.4</ele>
        <time>2018-04-28T08:10:55Z</time>
      </trkpt>
      <trkpt lat="38.1230070" lon="-3.9016740">
        <ele>421.0</ele>
        <time>2018-04-28T08:10:56Z</time>
      </trkpt>
      <trkpt lat="38.1229530" lon="-3.9017150">
        <ele>420.6</ele>
        <time>2018-04-28T08:10:57Z</time>
      </trkpt>
      <trkpt lat="38.1228910" lon="-3.9017500">
        <ele>420.0</ele>
        <time>2018-04-28T08:10:58Z</time>
      </trkpt>
      <trkpt lat="38.1228220" lon="-3.9017710">
        <ele>419.4</ele>
        <time>2018-04-28T08:10:59Z</time>
      </trkpt>
      <trkpt lat="38.1227450" lon="-3.9017770">
        <ele>418.6</ele>
        <time>2018-04-28T08:11:00Z</time>
      </trkpt>
      <trkpt lat="38.1226680" lon="-3.9017580">
        <ele>418.0</ele>
        <time>2018-04-28T08:11:01Z</time>
      </trkpt>
      <trkpt lat="38.1225890" lon="-3.9017230">
        <ele>417.4</ele>
        <time>2018-04-28T08:11:02Z</time>
      </trkpt>
      <trkpt lat="38.1225090" lon="-3.9016790">
        <ele>416.6</ele>
        <time>2018-04-28T08:11:03Z</time>
      </trkpt>
      <trkpt lat="38.1224290" lon="-3.9016320">
        <ele>416.0</ele>
        <time>2018-04-28T08:11:04Z</time>
      </trkpt>
      <trkpt lat="38.1223440" lon="-3.9015840">
        <ele>415.4</ele>
        <time>2018-04-28T08:11:05Z</time>
      </trkpt>
      <trkpt lat="38.1222560" lon="-3.9015430">
        <ele>415.0</ele>
        <time>2018-04-28T08:11:06Z</time>
      </trkpt>
      <trkpt lat="38.1221610" lon="-3.9015110">
        <ele>415.0</ele>
        <time>2018-04-28T08:11:07Z</time>
      </trkpt>
      <trkpt lat="38.1219710" lon="-3.9014970">
        <ele>414.2</ele>
        <time>2018-04-28T08:11:08Z</time>
      </trkpt>
      <trkpt lat="38.1219230" lon="-3.9014940">
        <ele>413.8</ele>
        <time>2018-04-28T08:11:09Z</time>
      </trkpt>
      <trkpt lat="38.1218750" lon="-3.9014920">
        <ele>413.0</ele>
        <time>2018-04-28T08:11:10Z</time>
      </trkpt>
      <trkpt lat="38.1217040" lon="-3.9014660">
        <ele>412.6</ele>
        <time>2018-04-28T08:11:11Z</time>
      </trkpt>
      <trkpt lat="38.1216450" lon="-3.9014610">
        <ele>412.0</ele>
        <time>2018-04-28T08:11:12Z</time>
      </trkpt>
      <trkpt lat="38.1215850" lon="-3.9014560">
        <ele>411.4</ele>
        <time>2018-04-28T08:11:13Z</time>
      </trkpt>
      <trkpt lat="38.1214650" lon="-3.9014470">
        <ele>410.6</ele>
        <time>2018-04-28T08:11:14Z</time>
      </trkpt>
      <trkpt lat="38.1213960" lon="-3.9014770">
        <ele>410.2</ele>
        <time>2018-04-28T08:11:15Z</time>
      </trkpt>
      <trkpt lat="38.1213260" lon="-3.9015160">
        <ele>410.0</ele>
        <time>2018-04-28T08:11:16Z</time>
      </trkpt>
      <trkpt lat="38.1212490" lon="-3.9015450">
        <ele>409.2</ele>
        <time>2018-04-28T08:11:17Z</time>
      </trkpt>
      <trkpt lat="38.1211680" lon="-3.9015630">
        <ele>408.8</ele>
        <time>2018-04-28T08:11:18Z</time>
      </trkpt>
      <trkpt lat="38.1211250" lon="-3.9015700">
        <ele>408.8</ele>
        <time>2018-04-28T08:11:19Z</time>
      </trkpt>
      <trkpt lat="38.1210820" lon="-3.9015760">
        <ele>408.2</ele>
        <time>2018-04-28T08:11:20Z</time>
      </trkpt>
      <trkpt lat="38.1209960" lon="-3.9015980">
        <ele>407.4</ele>
        <time>2018-04-28T08:11:21Z</time>
      </trkpt>
      <trkpt lat="38.1209030" lon="-3.9016140">
        <ele>406.8</ele>
        <time>2018-04-28T08:11:22Z</time>
      </trkpt>
      <trkpt lat="38.1208070" lon="-3.9016250">
        <ele>406.2</ele>
        <time>2018-04-28T08:11:23Z</time>
      </trkpt>
      <trkpt lat="38.1207110" lon="-3.9016380">
        <ele>405.6</ele>
        <time>2018-04-28T08:11:24Z</time>
      </trkpt>
      <trkpt lat="38.1206160" lon="-3.9016520">
        <ele>405.6</ele>
        <time>2018-04-28T08:11:25Z</time>
      </trkpt>
      <trkpt lat="38.1205190" lon="-3.9016650">
        <ele>405.4</ele>
        <time>2018-04-28T08:11:26Z</time>
      </trkpt>
      <trkpt lat="38.1204180" lon="-3.9016740">
        <ele>405.2</ele>
        <time>2018-04-28T08:11:27Z</time>
      </trkpt>
      <trkpt lat="38.1203180" lon="-3.9016870">
        <ele>405.2</ele>
        <time>2018-04-28T08:11:28Z</time>
      </trkpt>
      <trkpt lat="38.1202170" lon="-3.9016970">
        <ele>405.2</ele>
        <time>2018-04-28T08:11:29Z</time>
      </trkpt>
      <trkpt lat="38.1200170" lon="-3.9017180">
        <ele>405.2</ele>
        <time>2018-04-28T08:11:30Z</time>
      </trkpt>
      <trkpt lat="38.1199700" lon="-3.9017230">
        <ele>405.4</ele>
        <time>2018-04-28T08:11:31Z</time>
      </trkpt>
      <trkpt lat="38.1199220" lon="-3.9017270">
        <ele>405.8</ele>
        <time>2018-04-28T08:11:32Z</time>
      </trkpt>
      <trkpt lat="38.1197480" lon="-3.9017470">
        <ele>406.4</ele>
        <time>2018-04-28T08:11:33Z</time>
      </trkpt>
      <trkpt lat="38.1196670" lon="-3.9017620">
        <ele>406.6</ele>
        <time>2018-04-28T08:11:34Z</time>
      </trkpt>
      <trkpt lat="38.1195860" lon="-3.9017720">
        <ele>406.6</ele>
        <time>2018-04-28T08:11:35Z</time>
      </trkpt>
      <trkpt lat="38.1195050" lon="-3.9017780">
        <ele>406.4</ele>
        <time>2018-04-28T08:11:36Z</time>
      </trkpt>
      <trkpt lat="38.1194270" lon="-3.9017910">
        <ele>406.4</ele>
        <time>2018-04-28T08:11:37Z</time>
      </trkpt>
      <trkpt lat="38.1193490" lon="-3.9018020">
        <ele>406.2</ele>
        <time>2018-04-28T08:11:38Z</time>
      </trkpt>
      <trkpt lat="38.1192710" lon="-3.9018130">
        <ele>406.2</ele>
        <time>2018-04-28T08:11:39Z</time>
      </trkpt>
      <trkpt lat="38.1191910" lon="-3.9018250">
        <ele>405.8</ele>
        <time>2018-04-28T08:11:40Z</time>
      </trkpt>
      <trkpt lat="38.1191080" lon="-3.9018350">
        <ele>405.6</ele>
        <time>2018-04-28T08:11:41Z</time>
      </trkpt>
      <trkpt lat="38.1190210" lon="-3.9018470">
        <ele>405.0</ele>
        <time>2018-04-28T08:11:42Z</time>
      </trkpt>
      <trkpt lat="38.1189320" lon="-3.9018620">
        <ele>404.4</ele>
        <time>2018-04-28T08:11:43Z</time>
      </trkpt>
      <trkpt lat="38.1188860" lon="-3.9018680">
        <ele>403.6</ele>
        <time>2018-04-28T08:11:44Z</time>
      </trkpt>
      <trkpt lat="38.1188390" lon="-3.9018730">
        <ele>402.8</ele>
        <time>2018-04-28T08:11:45Z</time>
      </trkpt>
      <trkpt lat="38.1187420" lon="-3.9018880">
        <ele>402.2</ele>
        <time>2018-04-28T08:11:46Z</time>
      </trkpt>
      <trkpt lat="38.1186460" lon="-3.9019010">
        <ele>402.0</ele>
        <time>2018-04-28T08:11:47Z</time>
      </trkpt>
      <trkpt lat="38.1185490" lon="-3.9019130">
        <ele>401.6</ele>
        <time>2018-04-28T08:11:48Z</time>
      </trkpt>
      <trkpt lat="38.1184490" lon="-3.9019180">
        <ele>401.4</ele>
        <time>2018-04-28T08:11:49Z</time>
      </trkpt>
      <trkpt lat="38.1183470" lon="-3.9019160">
        <ele>401.0</ele>
        <time>2018-04-28T08:11:50Z</time>
      </trkpt>
      <trkpt lat="38.1182480" lon="-3.9019080">
        <ele>401.0</ele>
        <time>2018-04-28T08:11:51Z</time>
      </trkpt>
      <trkpt lat="38.1181500" lon="-3.9019030">
        <ele>401.2</ele>
        <time>2018-04-28T08:11:52Z</time>
      </trkpt>
      <trkpt lat="38.1180530" lon="-3.9018940">
        <ele>401.6</ele>
        <time>2018-04-28T08:11:53Z</time>
      </trkpt>
      <trkpt lat="38.1179570" lon="-3.9018810">
        <ele>401.8</ele>
        <time>2018-04-28T08:11:54Z</time>
      </trkpt>
      <trkpt lat="38.1178650" lon="-3.9018660">
        <ele>402.0</ele>
        <time>2018-04-28T08:11:55Z</time>
      </trkpt>
      <trkpt lat="38.1177760" lon="-3.9018440">
        <ele>402.0</ele>
        <time>2018-04-28T08:11:56Z</time>
      </trkpt>
      <trkpt lat="38.1176910" lon="-3.9018110">
        <ele>401.8</ele>
        <time>2018-04-28T08:11:57Z</time>
      </trkpt>
      <trkpt lat="38.1175440" lon="-3.9016900">
        <ele>402.0</ele>
        <time>2018-04-28T08:11:58Z</time>
      </trkpt>
      <trkpt lat="38.1174730" lon="-3.9016220">
        <ele>402.0</ele>
        <time>2018-04-28T08:11:59Z</time>
      </trkpt>
      <trkpt lat="38.1174160" lon="-3.9015400">
        <ele>401.8</ele>
        <time>2018-04-28T08:12:00Z</time>
      </trkpt>
      <trkpt lat="38.1173680" lon="-3.9014550">
        <ele>402.2</ele>
        <time>2018-04-28T08:12:01Z</time>
      </trkpt>
      <trkpt lat="38.1173310" lon="-3.9013800">
        <ele>402.2</ele>
        <time>2018-04-28T08:12:02Z</time>
      </trkpt>
      <trkpt lat="38.1172940" lon="-3.9012970">
        <ele>402.6</ele>
        <time>2018-04-28T08:12:03Z</time>
      </trkpt>
      <trkpt lat="38.1172590" lon="-3.9012250">
        <ele>403.0</ele>
        <time>2018-04-28T08:12:04Z</time>
      </trkpt>
      <trkpt lat="38.1172190" lon="-3.9011520">
        <ele>403.2</ele>
        <time>2018-04-28T08:12:05Z</time>
      </trkpt>
      <trkpt lat="38.1171790" lon="-3.9010780">
        <ele>403.4</ele>
        <time>2018-04-28T08:12:06Z</time>
      </trkpt>
      <trkpt lat="38.1171340" lon="-3.9009990">
        <ele>403.4</ele>
        <time>2018-04-28T08:12:07Z</time>
      </trkpt>
      <trkpt lat="38.1170900" lon="-3.9009220">
        <ele>403.2</ele>
        <time>2018-04-28T08:12:08Z</time>
      </trkpt>
      <trkpt lat="38.1170440" lon="-3.9008430">
        <ele>403.2</ele>
        <time>2018-04-28T08:12:09Z</time>
      </trkpt>
      <trkpt lat="38.1169970" lon="-3.9007640">
        <ele>403.0</ele>
        <time>2018-04-28T08:12:10Z</time>
      </trkpt>
      <trkpt lat="38.1169450" lon="-3.9006870">
        <ele>402.4</ele>
        <time>2018-04-28T08:12:11Z</time>
      </trkpt>
      <trkpt lat="38.1168900" lon="-3.9006140">
        <ele>402.2</ele>
        <time>2018-04-28T08:12:12Z</time>
      </trkpt>
      <trkpt lat="38.1168320" lon="-3.9005470">
        <ele>402.0</ele>
        <time>2018-04-28T08:12:13Z</time>
      </trkpt>
      <trkpt lat="38.1167710" lon="-3.9004830">
        <ele>402.0</ele>
        <time>2018-04-28T08:12:14Z</time>
      </trkpt>
      <trkpt lat="38.1167090" lon="-3.9004270">
        <ele>401.8</ele>
        <time>2018-04-28T08:12:15Z</time>
      </trkpt>
      <trkpt lat="38.1166750" lon="-3.9004030">
        <ele>401.8</ele>
        <time>2018-04-28T08:12:16Z</time>
      </trkpt>
      <trkpt lat="38.1166400" lon="-3.9003800">
        <ele>401.4</ele>
        <time>2018-04-28T08:12:17Z</time>
      </trkpt>
      <trkpt lat="38.1165700" lon="-3.9003420">
        <ele>401.0</ele>
        <time>2018-04-28T08:12:18Z</time>
      </trkpt>
      <trkpt lat="38.1164920" lon="-3.9003210">
        <ele>400.4</ele>
        <time>2018-04-28T08:12:19Z</time>
      </trkpt>
      <trkpt lat="38.1164130" lon="-3.9003200">
        <ele>400.0</ele>
        <time>2018-04-28T08:12:20Z</time>
      </trkpt>
      <trkpt lat="38.1163270" lon="-3.9003280">
        <ele>399.6</ele>
        <time>2018-04-28T08:12:21Z</time>
      </trkpt>
      <trkpt lat="38.1161690" lon="-3.9003580">
        <ele>399.0</ele>
        <time>2018-04-28T08:12:22Z</time>
      </trkpt>
      <trkpt lat="38.1161390" lon="-3.9003680">
        <ele>398.8</ele>
        <time>2018-04-28T08:12:23Z</time>
      </trkpt>
      <trkpt lat="38.1161080" lon="-3.9003780">
        <ele>398.4</ele>
        <time>2018-04-28T08:12:24Z</time>
      </trkpt>
      <trkpt lat="38.1160110" lon="-3.9004670">
        <ele>398.2</ele>
        <time>2018-04-28T08:12:25Z</time>
      </trkpt>
      <trkpt lat="38.1160070" lon="-3.9005260">
        <ele>397.6</ele>
        <time>2018-04-28T08:12:26Z</time>
      </trkpt>
      <trkpt lat="38.1160020" lon="-3.9005840">
        <ele>397.0</ele>
        <time>2018-04-28T08:12:27Z</time>
      </trkpt>
      <trkpt lat="38.1159930" lon="-3.9007000">
        <ele>396.4</ele>
        <time>2018-04-28T08:12:28Z</time>
      </trkpt>
      <trkpt lat="38.1160120" lon="-3.9007800">
        <ele>396.0</ele>
        <time>2018-04-28T08:12:29Z</time>
      </trkpt>
      <trkpt lat="38.1160360" lon="-3.9008620">
        <ele>395.6</ele>
        <time>2018-04-28T08:12:30Z</time>
      </trkpt>
      <trkpt lat="38.1160630" lon="-3.9009460">
        <ele>395.2</ele>
        <time>2018-04-28T08:12:31Z</time>
      </trkpt>
      <trkpt lat="38.1160870" lon="-3.9010150">
        <ele>394.2</ele>
        <time>2018-04-28T08:12:32Z</time>
      </trkpt>
      <trkpt lat="38.1161100" lon="-3.9010840">
        <ele>393.6</ele>
        <time>2018-04-28T08:12:33Z</time>
      </trkpt>
      <trkpt lat="38.1161560" lon="-3.9012220">
        <ele>392.8</ele>
        <time>2018-04-28T08:12:34Z</time>
      </trkpt>
      <trkpt lat="38.1161870" lon="-3.9013180">
        <ele>392.2</ele>
        <time>2018-04-28T08:12:35Z</time>
      </trkpt>
      <trkpt lat="38.1162090" lon="-3.9014090">
        <ele>391.2</ele>
        <time>2018-04-28T08:12:36Z</time>
      </trkpt>
      <trkpt lat="38.1162140" lon="-3.9014950">
        <ele>390.8</ele>
        <time>2018-04-28T08:12:37Z</time>
      </trkpt>
      <trkpt lat="38.1161980" lon="-3.9015760">
        <ele>390.6</ele>
        <time>2018-04-28T08:12:38Z</time>
      </trkpt>
      <trkpt lat="38.1161620" lon="-3.9016470">
        <ele>390.2</ele>
        <time>2018-04-28T08:12:39Z</time>
      </trkpt>
      <trkpt lat="38.1161090" lon="-3.9017040">
        <ele>390.2</ele>
        <time>2018-04-28T08:12:40Z</time>
      </trkpt>
      <trkpt lat="38.1160510" lon="-3.9017400">
        <ele>390.0</ele>
        <time>2018-04-28T08:12:41Z</time>
      </trkpt>
      <trkpt lat="38.1159870" lon="-3.9017690">
        <ele>389.6</ele>
        <time>2018-04-28T08:12:42Z</time>
      </trkpt>
      <trkpt lat="38.1159230" lon="-3.9017950">
        <ele>389.0</ele>
        <time>2018-04-28T08:12:43Z</time>
      </trkpt>
      <trkpt lat="38.1158560" lon="-3.9018230">
        <ele>388.4</ele>
        <time>2018-04-28T08:12:44Z</time>
      </trkpt>
      <trkpt lat="38.1157920" lon="-3.9018570">
        <ele>387.8</ele>
        <time>2018-04-28T08:12:45Z</time>
      </trkpt>
      <trkpt lat="38.1157320" lon="-3.9018950">
        <ele>387.2</ele>
        <time>2018-04-28T08:12:46Z</time>
      </trkpt>
      <trkpt lat="38.1156770" lon="-3.9019360">
        <ele>386.4</ele>
        <time>2018-04-28T08:12:47Z</time>
      </trkpt>
      <trkpt lat="38.1156180" lon="-3.9019830">
        <ele>385.4</ele>
        <time>2018-04-28T08:12:48Z</time>
      </trkpt>
      <trkpt lat="38.1155510" lon="-3.9020360">
        <ele>384.4</ele>
        <time>2018-04-28T08:12:49Z</time>
      </trkpt>
      <trkpt lat="38.1155170" lon="-3.9020650">
        <ele>383.2</ele>
        <time>2018-04-28T08:12:50Z</time>
      </trkpt>
      <trkpt lat="38.1154820" lon="-3.9020940">
        <ele>382.4</ele>
        <time>2018-04-28T08:12:51Z</time>
      </trkpt>
      <trkpt lat="38.1154030" lon="-3.9021480">
        <ele>381.4</ele>
        <time>2018-04-28T08:12:52Z</time>
      </trkpt>
      <trkpt lat="38.1153160" lon="-3.9021940">
        <ele>380.8</ele>
        <time>2018-04-28T08:12:53Z</time>
      </trkpt>
      <trkpt lat="38.1151310" lon="-3.9022490">
        <ele>380.2</ele>
        <time>2018-04-28T08:12:54Z</time>
      </trkpt>
      <trkpt lat="38.1150840" lon="-3.9022580">
        <ele>380.0</ele>
        <time>2018-04-28T08:12:55Z</time>
      </trkpt>
      <trkpt lat="38.1150360" lon="-3.9022660">
        <ele>379.8</ele>
        <time>2018-04-28T08:12:56Z</time>
      </trkpt>
      <trkpt lat="38.1149420" lon="-3.9022790">
        <ele>379.6</ele>
        <time>2018-04-28T08:12:57Z</time>
      </trkpt>
      <trkpt lat="38.1147600" lon="-3.9023050">
        <ele>379.4</ele>
        <time>2018-04-28T08:12:58Z</time>
      </trkpt>
      <trkpt lat="38.1146720" lon="-3.9023050">
        <ele>379.6</ele>
        <time>2018-04-28T08:12:59Z</time>
      </trkpt>
      <trkpt lat="38.1145870" lon="-3.9022980">
        <ele>379.6</ele>
        <time>2018-04-28T08:13:00Z</time>
      </trkpt>
      <trkpt lat="38.1145090" lon="-3.9023020">
        <ele>380.0</ele>
        <time>2018-04-28T08:13:01Z</time>
      </trkpt>
      <trkpt lat="38.1144350" lon="-3.9023050">
        <ele>380.0</ele>
        <time>2018-04-28T08:13:02Z</time>
      </trkpt>
      <trkpt lat="38.1143630" lon="-3.9022980">
        <ele>380.2</ele>
        <time>2018-04-28T08:13:03Z</time>
      </trkpt>
      <trkpt lat="38.1142950" lon="-3.9022800">
        <ele>380.2</ele>
        <time>2018-04-28T08:13:04Z</time>
      </trkpt>
      <trkpt lat="38.1142280" lon="-3.9022590">
        <ele>379.8</ele>
        <time>2018-04-28T08:13:05Z</time>
      </trkpt>
      <trkpt lat="38.1141600" lon="-3.9022400">
        <ele>379.8</ele>
        <time>2018-04-28T08:13:06Z</time>
      </trkpt>
      <trkpt lat="38.1140890" lon="-3.9022210">
        <ele>379.4</ele>
        <time>2018-04-28T08:13:07Z</time>
      </trkpt>
      <trkpt lat="38.1140220" lon="-3.9022220">
        <ele>379.4</ele>
        <time>2018-04-28T08:13:08Z</time>
      </trkpt>
      <trkpt lat="38.1139510" lon="-3.9022350">
        <ele>378.8</ele>
        <time>2018-04-28T08:13:09Z</time>
      </trkpt>
      <trkpt lat="38.1138780" lon="-3.9022550">
        <ele>378.6</ele>
        <time>2018-04-28T08:13:10Z</time>
      </trkpt>
      <trkpt lat="38.1138010" lon="-3.9022830">
        <ele>377.8</ele>
        <time>2018-04-28T08:13:11Z</time>
      </trkpt>
      <trkpt lat="38.1137610" lon="-3.9023000">
        <ele>377.2</ele>
        <time>2018-04-28T08:13:12Z</time>
      </trkpt>
      <trkpt lat="38.1137210" lon="-3.9023160">
        <ele>376.6</ele>
        <time>2018-04-28T08:13:13Z</time>
      </trkpt>
      <trkpt lat="38.1136380" lon="-3.9023490">
        <ele>376.0</ele>
        <time>2018-04-28T08:13:14Z</time>
      </trkpt>
      <trkpt lat="38.1135540" lon="-3.9023800">
        <ele>375.8</ele>
        <time>2018-04-28T08:13:15Z</time>
      </trkpt>
      <trkpt lat="38.1134710" lon="-3.9024100">
        <ele>375.4</ele>
        <time>2018-04-28T08:13:16Z</time>
      </trkpt>
      <trkpt lat="38.1133880" lon="-3.9024400">
        <ele>375.4</ele>
        <time>2018-04-28T08:13:17Z</time>
      </trkpt>
      <trkpt lat="38.1133050" lon="-3.9024700">
        <ele>375.2</ele>
        <time>2018-04-28T08:13:18Z</time>
      </trkpt>
      <trkpt lat="38.1132230" lon="-3.9024980">
        <ele>374.8</ele>
        <time>2018-04-28T08:13:19Z</time>
      </trkpt>
      <trkpt lat="38.1130650" lon="-3.9025570">
        <ele>374.8</ele>
        <time>2018-04-28T08:13:20Z</time>
      </trkpt>
      <trkpt lat="38.1129890" lon="-3.9025930">
        <ele>374.6</ele>
        <time>2018-04-28T08:13:21Z</time>
      </trkpt>
      <trkpt lat="38.1129480" lon="-3.9026420">
        <ele>374.8</ele>
        <time>2018-04-28T08:13:22Z</time>
      </trkpt>
      <trkpt lat="38.1129060" lon="-3.9026910">
        <ele>374.8</ele>
        <time>2018-04-28T08:13:23Z</time>
      </trkpt>
      <trkpt lat="38.1128230" lon="-3.9027880">
        <ele>374.8</ele>
        <time>2018-04-28T08:13:24Z</time>
      </trkpt>
      <trkpt lat="38.1127930" lon="-3.9028680">
        <ele>375.4</ele>
        <time>2018-04-28T08:13:25Z</time>
      </trkpt>
      <trkpt lat="38.1127720" lon="-3.9029470">
        <ele>375.8</ele>
        <time>2018-04-28T08:13:26Z</time>
      </trkpt>
      <trkpt lat="38.1127560" lon="-3.9030280">
        <ele>376.0</ele>
        <time>2018-04-28T08:13:27Z</time>
      </trkpt>
      <trkpt lat="38.1127430" lon="-3.9031060">
        <ele>376.4</ele>
        <time>2018-04-28T08:13:28Z</time>
      </trkpt>
      <trkpt lat="38.1127310" lon="-3.9031870">
        <ele>376.6</ele>
        <time>2018-04-28T08:13:29Z</time>
      </trkpt>
      <trkpt lat="38.1127230" lon="-3.9032690">
        <ele>376.8</ele>
        <time>2018-04-28T08:13:30Z</time>
      </trkpt>
      <trkpt lat="38.1127210" lon="-3.9033560">
        <ele>376.6</ele>
        <time>2018-04-28T08:13:31Z</time>
      </trkpt>
      <trkpt lat="38.1127250" lon="-3.9034440">
        <ele>376.4</ele>
        <time>2018-04-28T08:13:32Z</time>
      </trkpt>
      <trkpt lat="38.1127290" lon="-3.9035310">
        <ele>376.4</ele>
        <time>2018-04-28T08:13:33Z</time>
      </trkpt>
      <trkpt lat="38.1127290" lon="-3.9036190">
        <ele>376.0</ele>
        <time>2018-04-28T08:13:34Z</time>
      </trkpt>
      <trkpt lat="38.1127360" lon="-3.9037050">
        <ele>376.2</ele>
        <time>2018-04-28T08:13:35Z</time>
      </trkpt>
      <trkpt lat="38.1127450" lon="-3.9037930">
        <ele>376.2</ele>
        <time>2018-04-28T08:13:36Z</time>
      </trkpt>
      <trkpt lat="38.1127500" lon="-3.9038790">
        <ele>376.0</ele>
        <time>2018-04-28T08:13:37Z</time>
      </trkpt>
      <trkpt lat="38.1127590" lon="-3.9039630">
        <ele>376.2</ele>
        <time>2018-04-28T08:13:38Z</time>
      </trkpt>
      <trkpt lat="38.1127640" lon="-3.9040050">
        <ele>376.6</ele>
        <time>2018-04-28T08:13:39Z</time>
      </trkpt>
      <trkpt lat="38.1127680" lon="-3.9040480">
        <ele>376.2</ele>
        <time>2018-04-28T08:13:40Z</time>
      </trkpt>
      <trkpt lat="38.1127780" lon="-3.9041320">
        <ele>376.4</ele>
        <time>2018-04-28T08:13:41Z</time>
      </trkpt>
      <trkpt lat="38.1127880" lon="-3.9042130">
        <ele>376.8</ele>
        <time>2018-04-28T08:13:42Z</time>
      </trkpt>
      <trkpt lat="38.1127970" lon="-3.9042920">
        <ele>377.0</ele>
        <time>2018-04-28T08:13:43Z</time>
      </trkpt>
      <trkpt lat="38.1128060" lon="-3.9043690">
        <ele>377.2</ele>
        <time>2018-04-28T08:13:44Z</time>
      </trkpt>
      <trkpt lat="38.1128120" lon="-3.9044420">
        <ele>377.2</ele>
        <time>2018-04-28T08:13:45Z</time>
      </trkpt>
      <trkpt lat="38.1128160" lon="-3.9045170">
        <ele>377.0</ele>
        <time>2018-04-28T08:13:46Z</time>
      </trkpt>
      <trkpt lat="38.1128220" lon="-3.9045910">
        <ele>377.0</ele>
        <time>2018-04-28T08:13:47Z</time>
      </trkpt>
      <trkpt lat="38.1128360" lon="-3.9047370">
        <ele>377.0</ele>
        <time>2018-04-28T08:13:48Z</time>
      </trkpt>
      <trkpt lat="38.1128460" lon="-3.9047900">
        <ele>376.8</ele>
        <time>2018-04-28T08:13:49Z</time>
      </trkpt>
      <trkpt lat="38.1128550" lon="-3.9048440">
        <ele>376.8</ele>
        <time>2018-04-28T08:13:50Z</time>
      </trkpt>
      <trkpt lat="38.1128740" lon="-3.9049520">
        <ele>376.8</ele>
        <time>2018-04-28T08:13:51Z</time>
      </trkpt>
      <trkpt lat="38.1128850" lon="-3.9050220">
        <ele>376.8</ele>
        <time>2018-04-28T08:13:52Z</time>
      </trkpt>
      <trkpt lat="38.1128950" lon="-3.9050940">
        <ele>376.6</ele>
        <time>2018-04-28T08:13:53Z</time>
      </trkpt>
      <trkpt lat="38.1129030" lon="-3.9051670">
        <ele>376.8</ele>
        <time>2018-04-28T08:13:54Z</time>
      </trkpt>
      <trkpt lat="38.1129070" lon="-3.9052390">
        <ele>376.4</ele>
        <time>2018-04-28T08:13:55Z</time>
      </trkpt>
      <trkpt lat="38.1129060" lon="-3.9053110">
        <ele>376.2</ele>
        <time>2018-04-28T08:13:56Z</time>
      </trkpt>
      <trkpt lat="38.1129000" lon="-3.9053850">
        <ele>376.2</ele>
        <time>2018-04-28T08:13:57Z</time>
      </trkpt>
      <trkpt lat="38.1128830" lon="-3.9054580">
        <ele>376.0</ele>
        <time>2018-04-28T08:13:58Z</time>
      </trkpt>
      <trkpt lat="38.1128610" lon="-3.9055300">
        <ele>375.8</ele>
        <time>2018-04-28T08:13:59Z</time>
      </trkpt>
      <trkpt lat="38.1128330" lon="-3.9055990">
        <ele>375.8</ele>
        <time>2018-04-28T08:14:00Z</time>
      </trkpt>
      <trkpt lat="38.1128000" lon="-3.9056660">
        <ele>375.4</ele>
        <time>2018-04-28T08:14:01Z</time>
      </trkpt>
      <trkpt lat="38.1127640" lon="-3.9057330">
        <ele>375.2</ele>
        <time>2018-04-28T08:14:02Z</time>
      </trkpt>
      <trkpt lat="38.1127240" lon="-3.9057990">
        <ele>374.8</ele>
        <time>2018-04-28T08:14:03Z</time>
      </trkpt>
      <trkpt lat="38.1126820" lon="-3.9058640">
        <ele>374.8</ele>
        <time>2018-04-28T08:14:04Z</time>
      </trkpt>
      <trkpt lat="38.1126390" lon="-3.9059290">
        <ele>374.4</ele>
        <time>2018-04-28T08:14:05Z</time>
      </trkpt>
      <trkpt lat="38.1125930" lon="-3.9059910">
        <ele>374.2</ele>
        <time>2018-04-28T08:14:06Z</time>
      </trkpt>
      <trkpt lat="38.1125470" lon="-3.9060540">
        <ele>373.8</ele>
        <time>2018-04-28T08:14:07Z</time>
      </trkpt>
      <trkpt lat="38.1125030" lon="-3.9061220">
        <ele>373.8</ele>
        <time>2018-04-28T08:14:08Z</time>
      </trkpt>
      <trkpt lat="38.1124580" lon="-3.9061890">
        <ele>373.8</ele>
        <time>2018-04-28T08:14:09Z</time>
      </trkpt>
      <trkpt lat="38.1124140" lon="-3.9062570">
        <ele>373.4</ele>
        <time>2018-04-28T08:14:10Z</time>
      </trkpt>
      <trkpt lat="38.1123920" lon="-3.9062920">
        <ele>373.4</ele>
        <time>2018-04-28T08:14:11Z</time>
      </trkpt>
      <trkpt lat="38.1123700" lon="-3.9063260">
        <ele>373.2</ele>
        <time>2018-04-28T08:14:12Z</time>
      </trkpt>
      <trkpt lat="38.1123260" lon="-3.9063960">
        <ele>373.0</ele>
        <time>2018-04-28T08:14:13Z</time>
      </trkpt>
      <trkpt lat="38.1122840" lon="-3.9064680">
        <ele>372.8</ele>
        <time>2018-04-28T08:14:14Z</time>
      </trkpt>
      <trkpt lat="38.1121980" lon="-3.9066140">
        <ele>372.6</ele>
        <time>2018-04-28T08:14:15Z</time>
      </trkpt>
      <trkpt lat="38.1121630" lon="-3.9066680">
        <ele>372.4</ele>
        <time>2018-04-28T08:14:16Z</time>
      </trkpt>
      <trkpt lat="38.1121270" lon="-3.9067220">
        <ele>372.0</ele>
        <time>2018-04-28T08:14:17Z</time>
      </trkpt>
      <trkpt lat="38.1120550" lon="-3.9068290">
        <ele>371.6</ele>
        <time>2018-04-28T08:14:18Z</time>
      </trkpt>
      <trkpt lat="38.1120120" lon="-3.9068790">
        <ele>371.4</ele>
        <time>2018-04-28T08:14:19Z</time>
      </trkpt>
      <trkpt lat="38.1119690" lon="-3.9069280">
        <ele>370.8</ele>
        <time>2018-04-28T08:14:20Z</time>
      </trkpt>
      <trkpt lat="38.1118830" lon="-3.9070270">
        <ele>370.0</ele>
        <time>2018-04-28T08:14:21Z</time>
      </trkpt>
      <trkpt lat="38.1118420" lon="-3.9070890">
        <ele>369.4</ele>
        <time>2018-04-28T08:14:22Z</time>
      </trkpt>
      <trkpt lat="38.1118010" lon="-3.9071500">
        <ele>368.8</ele>
        <time>2018-04-28T08:14:23Z</time>
      </trkpt>
      <trkpt lat="38.1117190" lon="-3.9072720">
        <ele>368.4</ele>
        <time>2018-04-28T08:14:24Z</time>
      </trkpt>
      <trkpt lat="38.1116640" lon="-3.9073650">
        <ele>367.8</ele>
        <time>2018-04-28T08:14:25Z</time>
      </trkpt>
      <trkpt lat="38.1116110" lon="-3.9074570">
        <ele>366.8</ele>
        <time>2018-04-28T08:14:26Z</time>
      </trkpt>
      <trkpt lat="38.1115600" lon="-3.9075510">
        <ele>366.0</ele>
        <time>2018-04-28T08:14:27Z</time>
      </trkpt>
      <trkpt lat="38.1115120" lon="-3.9076490">
        <ele>365.4</ele>
        <time>2018-04-28T08:14:28Z</time>
      </trkpt>
      <trkpt lat="38.1114660" lon="-3.9077510">
        <ele>364.6</ele>
        <time>2018-04-28T08:14:29Z</time>
      </trkpt>
      <trkpt lat="38.1114230" lon="-3.9078570">
        <ele>364.2</ele>
        <time>2018-04-28T08:14:30Z</time>
      </trkpt>
      <trkpt lat="38.1113830" lon="-3.9079640">
        <ele>363.6</ele>
        <time>2018-04-28T08:14:31Z</time>
      </trkpt>
      <trkpt lat="38.1113400" lon="-3.9080680">
        <ele>363.2</ele>
        <time>2018-04-28T08:14:32Z</time>
      </trkpt>
      <trkpt lat="38.1112930" lon="-3.9081700">
        <ele>362.4</ele>
        <time>2018-04-28T08:14:33Z</time>
      </trkpt>
      <trkpt lat="38.1112370" lon="-3.9082640">
        <ele>361.8</ele>
        <time>2018-04-28T08:14:34Z</time>
      </trkpt>
      <trkpt lat="38.1111750" lon="-3.9083540">
        <ele>361.2</ele>
        <time>2018-04-28T08:14:35Z</time>
      </trkpt>
      <trkpt lat="38.1111100" lon="-3.9084370">
        <ele>360.4</ele>
        <time>2018-04-28T08:14:36Z</time>
      </trkpt>
      <trkpt lat="38.1110430" lon="-3.9085130">
        <ele>360.4</ele>
        <time>2018-04-28T08:14:37Z</time>
      </trkpt>
      <trkpt lat="38.1109700" lon="-3.9085760">
        <ele>360.0</ele>
        <time>2018-04-28T08:14:38Z</time>
      </trkpt>
      <trkpt lat="38.1108880" lon="-3.9086280">
        <ele>359.2</ele>
        <time>2018-04-28T08:14:39Z</time>
      </trkpt>
      <trkpt lat="38.1108080" lon="-3.9086650">
        <ele>358.8</ele>
        <time>2018-04-28T08:14:40Z</time>
      </trkpt>
      <trkpt lat="38.1107200" lon="-3.9087020">
        <ele>357.8</ele>
        <time>2018-04-28T08:14:41Z</time>
      </trkpt>
      <trkpt lat="38.1106380" lon="-3.9087340">
        <ele>356.6</ele>
        <time>2018-04-28T08:14:42Z</time>
      </trkpt>
      <trkpt lat="38.1105610" lon="-3.9087820">
        <ele>355.6</ele>
        <time>2018-04-28T08:14:43Z</time>
      </trkpt>
      <trkpt lat="38.1104870" lon="-3.9088470">
        <ele>354.8</ele>
        <time>2018-04-28T08:14:44Z</time>
      </trkpt>
      <trkpt lat="38.1104230" lon="-3.9089230">
        <ele>354.0</ele>
        <time>2018-04-28T08:14:45Z</time>
      </trkpt>
      <trkpt lat="38.1103590" lon="-3.9090070">
        <ele>353.4</ele>
        <time>2018-04-28T08:14:46Z</time>
      </trkpt>
      <trkpt lat="38.1102960" lon="-3.9090960">
        <ele>352.4</ele>
        <time>2018-04-28T08:14:47Z</time>
      </trkpt>
      <trkpt lat="38.1102240" lon="-3.9091840">
        <ele>351.6</ele>
        <time>2018-04-28T08:14:48Z</time>
      </trkpt>
      <trkpt lat="38.1101510" lon="-3.9092630">
        <ele>350.6</ele>
        <time>2018-04-28T08:14:49Z</time>
      </trkpt>
      <trkpt lat="38.1100730" lon="-3.9093320">
        <ele>349.4</ele>
        <time>2018-04-28T08:14:50Z</time>
      </trkpt>
      <trkpt lat="38.1099920" lon="-3.9093880">
        <ele>348.0</ele>
        <time>2018-04-28T08:14:51Z</time>
      </trkpt>
      <trkpt lat="38.1099430" lon="-3.9094350">
        <ele>346.8</ele>
        <time>2018-04-28T08:14:52Z</time>
      </trkpt>
      <trkpt lat="38.1098930" lon="-3.9094820">
        <ele>345.6</ele>
        <time>2018-04-28T08:14:53Z</time>
      </trkpt>
      <trkpt lat="38.1097940" lon="-3.9095760">
        <ele>344.8</ele>
        <time>2018-04-28T08:14:54Z</time>
      </trkpt>
      <trkpt lat="38.1097620" lon="-3.9096450">
        <ele>344.0</ele>
        <time>2018-04-28T08:14:55Z</time>
      </trkpt>
      <trkpt lat="38.1097290" lon="-3.9097130">
        <ele>344.0</ele>
        <time>2018-04-28T08:14:56Z</time>
      </trkpt>
      <trkpt lat="38.1096630" lon="-3.9098490">
        <ele>343.4</ele>
        <time>2018-04-28T08:14:57Z</time>
      </trkpt>
      <trkpt lat="38.1096240" lon="-3.9099440">
        <ele>343.2</ele>
        <time>2018-04-28T08:14:58Z</time>
      </trkpt>
      <trkpt lat="38.1095910" lon="-3.9100340">
        <ele>343.2</ele>
        <time>2018-04-28T08:14:59Z</time>
      </trkpt>
      <trkpt lat="38.1095640" lon="-3.9101230">
        <ele>343.6</ele>
        <time>2018-04-28T08:15:00Z</time>
      </trkpt>
      <trkpt lat="38.1095410" lon="-3.9102100">
        <ele>343.4</ele>
        <time>2018-04-28T08:15:01Z</time>
      </trkpt>
      <trkpt lat="38.1095190" lon="-3.9102950">
        <ele>343.6</ele>
        <time>2018-04-28T08:15:02Z</time>
      </trkpt>
      <trkpt lat="38.1095020" lon="-3.9103760">
        <ele>344.2</ele>
        <time>2018-04-28T08:15:03Z</time>
      </trkpt>
      <trkpt lat="38.1094880" lon="-3.9104540">
        <ele>344.4</ele>
        <time>2018-04-28T08:15:04Z</time>
      </trkpt>
      <trkpt lat="38.1094750" lon="-3.9105250">
        <ele>344.8</ele>
        <time>2018-04-28T08:15:05Z</time>
      </trkpt>
      <trkpt lat="38.1094600" lon="-3.9105940">
        <ele>345.2</ele>
        <time>2018-04-28T08:15:06Z</time>
      </trkpt>
      <trkpt lat="38.1094420" lon="-3.9106580">
        <ele>345.6</ele>
        <time>2018-04-28T08:15:07Z</time>
      </trkpt>
      <trkpt lat="38.1094210" lon="-3.9107200">
        <ele>345.8</ele>
        <time>2018-04-28T08:15:08Z</time>
      </trkpt>
      <trkpt lat="38.1093950" lon="-3.9107800">
        <ele>346.2</ele>
        <time>2018-04-28T08:15:09Z</time>
      </trkpt>
      <trkpt lat="38.1093620" lon="-3.9108350">
        <ele>346.0</ele>
        <time>2018-04-28T08:15:10Z</time>
      </trkpt>
      <trkpt lat="38.1093220" lon="-3.9108870">
        <ele>346.2</ele>
        <time>2018-04-28T08:15:11Z</time>
      </trkpt>
      <trkpt lat="38.1092790" lon="-3.9109380">
        <ele>346.0</ele>
        <time>2018-04-28T08:15:12Z</time>
      </trkpt>
      <trkpt lat="38.1092330" lon="-3.9109890">
        <ele>346.0</ele>
        <time>2018-04-28T08:15:13Z</time>
      </trkpt>
      <trkpt lat="38.1091830" lon="-3.9110410">
        <ele>345.8</ele>
        <time>2018-04-28T08:15:14Z</time>
      </trkpt>
      <trkpt lat="38.1091360" lon="-3.9110960">
        <ele>345.6</ele>
        <time>2018-04-28T08:15:15Z</time>
      </trkpt>
      <trkpt lat="38.1090870" lon="-3.9111480">
        <ele>345.4</ele>
        <time>2018-04-28T08:15:16Z</time>
      </trkpt>
      <trkpt lat="38.1090360" lon="-3.9112010">
        <ele>345.2</ele>
        <time>2018-04-28T08:15:17Z</time>
      </trkpt>
      <trkpt lat="38.1089850" lon="-3.9112600">
        <ele>345.0</ele>
        <time>2018-04-28T08:15:18Z</time>
      </trkpt>
      <trkpt lat="38.1089310" lon="-3.9113220">
        <ele>344.6</ele>
        <time>2018-04-28T08:15:19Z</time>
      </trkpt>
      <trkpt lat="38.1088780" lon="-3.9113870">
        <ele>344.4</ele>
        <time>2018-04-28T08:15:20Z</time>
      </trkpt>
      <trkpt lat="38.1088230" lon="-3.9114540">
        <ele>343.8</ele>
        <time>2018-04-28T08:15:21Z</time>
      </trkpt>
      <trkpt lat="38.1087680" lon="-3.9115250">
        <ele>343.2</ele>
        <time>2018-04-28T08:15:22Z</time>
      </trkpt>
      <trkpt lat="38.1087120" lon="-3.9116020">
        <ele>342.6</ele>
        <time>2018-04-28T08:15:23Z</time>
      </trkpt>
      <trkpt lat="38.1086570" lon="-3.9116810">
        <ele>341.8</ele>
        <time>2018-04-28T08:15:24Z</time>
      </trkpt>
      <trkpt lat="38.1085980" lon="-3.9117610">
        <ele>341.0</ele>
        <time>2018-04-28T08:15:25Z</time>
      </trkpt>
      <trkpt lat="38.1085380" lon="-3.9118420">
        <ele>340.4</ele>
        <time>2018-04-28T08:15:26Z</time>
      </trkpt>
      <trkpt lat="38.1084760" lon="-3.9119230">
        <ele>339.6</ele>
        <time>2018-04-28T08:15:27Z</time>
      </trkpt>
      <trkpt lat="38.1084120" lon="-3.9120060">
        <ele>339.0</ele>
        <time>2018-04-28T08:15:28Z</time>
      </trkpt>
      <trkpt lat="38.1083470" lon="-3.9120880">
        <ele>338.2</ele>
        <time>2018-04-28T08:15:29Z</time>
      </trkpt>
      <trkpt lat="38.1082810" lon="-3.9121690">
        <ele>337.4</ele>
        <time>2018-04-28T08:15:30Z</time>
      </trkpt>
      <trkpt lat="38.1082160" lon="-3.9122450">
        <ele>336.8</ele>
        <time>2018-04-28T08:15:31Z</time>
      </trkpt>
      <trkpt lat="38.1081510" lon="-3.9123150">
        <ele>336.4</ele>
        <time>2018-04-28T08:15:32Z</time>
      </trkpt>
      <trkpt lat="38.1080850" lon="-3.9123840">
        <ele>336.2</ele>
        <time>2018-04-28T08:15:33Z</time>
      </trkpt>
      <trkpt lat="38.1080200" lon="-3.9124510">
        <ele>336.0</ele>
        <time>2018-04-28T08:15:34Z</time>
      </trkpt>
      <trkpt lat="38.1079570" lon="-3.9125190">
        <ele>335.2</ele>
        <time>2018-04-28T08:15:35Z</time>
      </trkpt>
      <trkpt lat="38.1078940" lon="-3.9125820">
        <ele>334.8</ele>
        <time>2018-04-28T08:15:36Z</time>
      </trkpt>
      <trkpt lat="38.1078330" lon="-3.9126310">
        <ele>334.8</ele>
        <time>2018-04-28T08:15:37Z</time>
      </trkpt>
      <trkpt lat="38.1077680" lon="-3.9126710">
        <ele>334.6</ele>
        <time>2018-04-28T08:15:38Z</time>
      </trkpt>
      <trkpt lat="38.1076970" lon="-3.9127010">
        <ele>334.2</ele>
        <time>2018-04-28T08:15:39Z</time>
      </trkpt>
      <trkpt lat="38.1076230" lon="-3.9127110">
        <ele>333.8</ele>
        <time>2018-04-28T08:15:40Z</time>
      </trkpt>
      <trkpt lat="38.1075500" lon="-3.9127130">
        <ele>333.6</ele>
        <time>2018-04-28T08:15:41Z</time>
      </trkpt>
      <trkpt lat="38.1074740" lon="-3.9127120">
        <ele>333.2</ele>
        <time>2018-04-28T08:15:42Z</time>
      </trkpt>
      <trkpt lat="38.1073970" lon="-3.9127130">
        <ele>333.0</ele>
        <time>2018-04-28T08:15:43Z</time>
      </trkpt>
      <trkpt lat="38.1073210" lon="-3.9127180">
        <ele>332.6</ele>
        <time>2018-04-28T08:15:44Z</time>
      </trkpt>
      <trkpt lat="38.1072430" lon="-3.9127270">
        <ele>332.4</ele>
        <time>2018-04-28T08:15:45Z</time>
      </trkpt>
      <trkpt lat="38.1071660" lon="-3.9127420">
        <ele>332.0</ele>
        <time>2018-04-28T08:15:46Z</time>
      </trkpt>
      <trkpt lat="38.1070900" lon="-3.9127690">
        <ele>331.4</ele>
        <time>2018-04-28T08:15:47Z</time>
      </trkpt>
      <trkpt lat="38.1070160" lon="-3.9128060">
        <ele>331.2</ele>
        <time>2018-04-28T08:15:48Z</time>
      </trkpt>
      <trkpt lat="38.1069420" lon="-3.9128490">
        <ele>331.2</ele>
        <time>2018-04-28T08:15:49Z</time>
      </trkpt>
      <trkpt lat="38.1068680" lon="-3.9128940">
        <ele>330.8</ele>
        <time>2018-04-28T08:15:50Z</time>
      </trkpt>
      <trkpt lat="38.1067960" lon="-3.9129370">
        <ele>330.8</ele>
        <time>2018-04-28T08:15:51Z</time>
      </trkpt>
      <trkpt lat="38.1067240" lon="-3.9129840">
        <ele>330.8</ele>
        <time>2018-04-28T08:15:52Z</time>
      </trkpt>
      <trkpt lat="38.1066520" lon="-3.9130350">
        <ele>330.4</ele>
        <time>2018-04-28T08:15:53Z</time>
      </trkpt>
      <trkpt lat="38.1065810" lon="-3.9130870">
        <ele>330.4</ele>
        <time>2018-04-28T08:15:54Z</time>
      </trkpt>
      <trkpt lat="38.1065080" lon="-3.9131350">
        <ele>329.8</ele>
        <time>2018-04-28T08:15:55Z</time>
      </trkpt>
      <trkpt lat="38.1064310" lon="-3.9131830">
        <ele>329.4</ele>
        <time>2018-04-28T08:15:56Z</time>
      </trkpt>
      <trkpt lat="38.1063550" lon="-3.9132350">
        <ele>328.6</ele>
        <time>2018-04-28T08:15:57Z</time>
      </trkpt>
      <trkpt lat="38.1062820" lon="-3.9132870">
        <ele>327.8</ele>
        <time>2018-04-28T08:15:58Z</time>
      </trkpt>
      <trkpt lat="38.1062020" lon="-3.9133360">
        <ele>327.0</ele>
        <time>2018-04-28T08:15:59Z</time>
      </trkpt>
      <trkpt lat="38.1061200" lon="-3.9133700">
        <ele>326.6</ele>
        <time>2018-04-28T08:16:00Z</time>
      </trkpt>
      <trkpt lat="38.1060360" lon="-3.9133820">
        <ele>326.0</ele>
        <time>2018-04-28T08:16:01Z</time>
      </trkpt>
      <trkpt lat="38.1059510" lon="-3.9133790">
        <ele>325.8</ele>
        <time>2018-04-28T08:16:02Z</time>
      </trkpt>
      <trkpt lat="38.1058650" lon="-3.9133780">
        <ele>325.2</ele>
        <time>2018-04-28T08:16:03Z</time>
      </trkpt>
      <trkpt lat="38.1057780" lon="-3.9133780">
        <ele>324.6</ele>
        <time>2018-04-28T08:16:04Z</time>
      </trkpt>
      <trkpt lat="38.1056920" lon="-3.9133790">
        <ele>324.4</ele>
        <time>2018-04-28T08:16:05Z</time>
      </trkpt>
      <trkpt lat="38.1056050" lon="-3.9133840">
        <ele>323.8</ele>
        <time>2018-04-28T08:16:06Z</time>
      </trkpt>
      <trkpt lat="38.1055200" lon="-3.9134010">
        <ele>323.4</ele>
        <time>2018-04-28T08:16:07Z</time>
      </trkpt>
      <trkpt lat="38.1054380" lon="-3.9134320">
        <ele>323.0</ele>
        <time>2018-04-28T08:16:08Z</time>
      </trkpt>
      <trkpt lat="38.1053580" lon="-3.9134680">
        <ele>323.0</ele>
        <time>2018-04-28T08:16:09Z</time>
      </trkpt>
      <trkpt lat="38.1052800" lon="-3.9135040">
        <ele>322.6</ele>
        <time>2018-04-28T08:16:10Z</time>
      </trkpt>
      <trkpt lat="38.1052010" lon="-3.9135360">
        <ele>322.6</ele>
        <time>2018-04-28T08:16:11Z</time>
      </trkpt>
      <trkpt lat="38.1051250" lon="-3.9135740">
        <ele>322.4</ele>
        <time>2018-04-28T08:16:12Z</time>
      </trkpt>
      <trkpt lat="38.1050580" lon="-3.9136060">
        <ele>322.4</ele>
        <time>2018-04-28T08:16:13Z</time>
      </trkpt>
      <trkpt lat="38.1049850" lon="-3.9136400">
        <ele>322.4</ele>
        <time>2018-04-28T08:16:14Z</time>
      </trkpt>
      <trkpt lat="38.1049160" lon="-3.9136780">
        <ele>322.2</ele>
        <time>2018-04-28T08:16:15Z</time>
      </trkpt>
      <trkpt lat="38.1048460" lon="-3.9137160">
        <ele>322.2</ele>
        <time>2018-04-28T08:16:16Z</time>
      </trkpt>
      <trkpt lat="38.1047750" lon="-3.9137520">
        <ele>322.0</ele>
        <time>2018-04-28T08:16:17Z</time>
      </trkpt>
      <trkpt lat="38.1047030" lon="-3.9137870">
        <ele>321.6</ele>
        <time>2018-04-28T08:16:18Z</time>
      </trkpt>
      <trkpt lat="38.1046330" lon="-3.9138180">
        <ele>321.8</ele>
        <time>2018-04-28T08:16:19Z</time>
      </trkpt>
      <trkpt lat="38.1045570" lon="-3.9138470">
        <ele>321.4</ele>
        <time>2018-04-28T08:16:20Z</time>
      </trkpt>
      <trkpt lat="38.1044830" lon="-3.9138740">
        <ele>321.2</ele>
        <time>2018-04-28T08:16:21Z</time>
      </trkpt>
      <trkpt lat="38.1044070" lon="-3.9138990">
        <ele>321.0</ele>
        <time>2018-04-28T08:16:22Z</time>
      </trkpt>
      <trkpt lat="38.1043330" lon="-3.9139200">
        <ele>321.0</ele>
        <time>2018-04-28T08:16:23Z</time>
      </trkpt>
      <trkpt lat="38.1042580" lon="-3.9139440">
        <ele>321.0</ele>
        <time>2018-04-28T08:16:24Z</time>
      </trkpt>
      <trkpt lat="38.1041830" lon="-3.9139710">
        <ele>321.0</ele>
        <time>2018-04-28T08:16:25Z</time>
      </trkpt>
      <trkpt lat="38.1041100" lon="-3.9140000">
        <ele>320.8</ele>
        <time>2018-04-28T08:16:26Z</time>
      </trkpt>
      <trkpt lat="38.1040460" lon="-3.9140420">
        <ele>320.8</ele>
        <time>2018-04-28T08:16:27Z</time>
      </trkpt>
      <trkpt lat="38.1039830" lon="-3.9140910">
        <ele>320.8</ele>
        <time>2018-04-28T08:16:28Z</time>
      </trkpt>
      <trkpt lat="38.1039250" lon="-3.9141450">
        <ele>320.6</ele>
        <time>2018-04-28T08:16:29Z</time>
      </trkpt>
      <trkpt lat="38.1038700" lon="-3.9142050">
        <ele>320.6</ele>
        <time>2018-04-28T08:16:30Z</time>
      </trkpt>
      <trkpt lat="38.1038070" lon="-3.9142580">
        <ele>320.2</ele>
        <time>2018-04-28T08:16:31Z</time>
      </trkpt>
      <trkpt lat="38.1037400" lon="-3.9143020">
        <ele>319.8</ele>
        <time>2018-04-28T08:16:32Z</time>
      </trkpt>
      <trkpt lat="38.1036710" lon="-3.9143420">
        <ele>319.8</ele>
        <time>2018-04-28T08:16:33Z</time>
      </trkpt>
      <trkpt lat="38.1036040" lon="-3.9143840">
        <ele>319.8</ele>
        <time>2018-04-28T08:16:34Z</time>
      </trkpt>
      <trkpt lat="38.1035370" lon="-3.9144250">
        <ele>319.6</ele>
        <time>2018-04-28T08:16:35Z</time>
      </trkpt>
      <trkpt lat="38.1034680" lon="-3.9144650">
        <ele>319.4</ele>
        <time>2018-04-28T08:16:36Z</time>
      </trkpt>
      <trkpt lat="38.1034020" lon="-3.9145060">
        <ele>319.2</ele>
        <time>2018-04-28T08:16:37Z</time>
      </trkpt>
      <trkpt lat="38.1033350" lon="-3.9145480">
        <ele>319.4</ele>
        <time>2018-04-28T08:16:38Z</time>
      </trkpt>
      <trkpt lat="38.1032680" lon="-3.9145880">
        <ele>319.4</ele>
        <time>2018-04-28T08:16:39Z</time>
      </trkpt>
      <trkpt lat="38.1032000" lon="-3.9146230">
        <ele>319.6</ele>
        <time>2018-04-28T08:16:40Z</time>
      </trkpt>
      <trkpt lat="38.1031360" lon="-3.9146600">
        <ele>319.6</ele>
        <time>2018-04-28T08:16:41Z</time>
      </trkpt>
      <trkpt lat="38.1030760" lon="-3.9146980">
        <ele>319.8</ele>
        <time>2018-04-28T08:16:42Z</time>
      </trkpt>
      <trkpt lat="38.1030150" lon="-3.9147370">
        <ele>320.2</ele>
        <time>2018-04-28T08:16:43Z</time>
      </trkpt>
      <trkpt lat="38.1029550" lon="-3.9147780">
        <ele>320.0</ele>
        <time>2018-04-28T08:16:44Z</time>
      </trkpt>
      <trkpt lat="38.1029070" lon="-3.9148290">
        <ele>320.4</ele>
        <time>2018-04-28T08:16:45Z</time>
      </trkpt>
      <trkpt lat="38.1028640" lon="-3.9148900">
        <ele>320.2</ele>
        <time>2018-04-28T08:16:46Z</time>
      </trkpt>
      <trkpt lat="38.1028280" lon="-3.9149630">
        <ele>320.2</ele>
        <time>2018-04-28T08:16:47Z</time>
      </trkpt>
      <trkpt lat="38.1027980" lon="-3.9150420">
        <ele>320.0</ele>
        <time>2018-04-28T08:16:48Z</time>
      </trkpt>
      <trkpt lat="38.1027700" lon="-3.9151250">
        <ele>319.4</ele>
        <time>2018-04-28T08:16:49Z</time>
      </trkpt>
      <trkpt lat="38.1027420" lon="-3.9152080">
        <ele>319.2</ele>
        <time>2018-04-28T08:16:50Z</time>
      </trkpt>
      <trkpt lat="38.1027090" lon="-3.9152910">
        <ele>319.0</ele>
        <time>2018-04-28T08:16:51Z</time>
      </trkpt>
      <trkpt lat="38.1026780" lon="-3.9153770">
        <ele>318.6</ele>
        <time>2018-04-28T08:16:52Z</time>
      </trkpt>
      <trkpt lat="38.1026520" lon="-3.9154640">
        <ele>318.0</ele>
        <time>2018-04-28T08:16:53Z</time>
      </trkpt>
      <trkpt lat="38.1026220" lon="-3.9155520">
        <ele>317.8</ele>
        <time>2018-04-28T08:16:54Z</time>
      </trkpt>
      <trkpt lat="38.1025930" lon="-3.9156390">
        <ele>317.6</ele>
        <time>2018-04-28T08:16:55Z</time>
      </trkpt>
      <trkpt lat="38.1025560" lon="-3.9157250">
        <ele>317.2</ele>
        <time>2018-04-28T08:16:56Z</time>
      </trkpt>
      <trkpt lat="38.1025180" lon="-3.9158100">
        <ele>317.0</ele>
        <time>2018-04-28T08:16:57Z</time>
      </trkpt>
      <trkpt lat="38.1024780" lon="-3.9158950">
        <ele>316.8</ele>
        <time>2018-04-28T08:16:58Z</time>
      </trkpt>
      <trkpt lat="38.1024450" lon="-3.9159770">
        <ele>316.8</ele>
        <time>2018-04-28T08:16:59Z</time>
      </trkpt>
      <trkpt lat="38.1024150" lon="-3.9160620">
        <ele>316.6</ele>
        <time>2018-04-28T08:17:00Z</time>
      </trkpt>
      <trkpt lat="38.1023910" lon="-3.9161490">
        <ele>316.8</ele>
        <time>2018-04-28T08:17:01Z</time>
      </trkpt>
      <trkpt lat="38.1023740" lon="-3.9162390">
        <ele>316.6</ele>
        <time>2018-04-28T08:17:02Z</time>
      </trkpt>
      <trkpt lat="38.1023590" lon="-3.9163250">
        <ele>316.8</ele>
        <time>2018-04-28T08:17:03Z</time>
      </trkpt>
      <trkpt lat="38.1023390" lon="-3.9164080">
        <ele>317.0</ele>
        <time>2018-04-28T08:17:04Z</time>
      </trkpt>
      <trkpt lat="38.1023170" lon="-3.9164870">
        <ele>317.0</ele>
        <time>2018-04-28T08:17:05Z</time>
      </trkpt>
      <trkpt lat="38.1022900" lon="-3.9165640">
        <ele>317.0</ele>
        <time>2018-04-28T08:17:06Z</time>
      </trkpt>
      <trkpt lat="38.1022640" lon="-3.9166390">
        <ele>317.0</ele>
        <time>2018-04-28T08:17:07Z</time>
      </trkpt>
      <trkpt lat="38.1022400" lon="-3.9167160">
        <ele>317.2</ele>
        <time>2018-04-28T08:17:08Z</time>
      </trkpt>
      <trkpt lat="38.1022110" lon="-3.9167920">
        <ele>317.0</ele>
        <time>2018-04-28T08:17:09Z</time>
      </trkpt>
      <trkpt lat="38.1021800" lon="-3.9168670">
        <ele>317.0</ele>
        <time>2018-04-28T08:17:10Z</time>
      </trkpt>
      <trkpt lat="38.1021460" lon="-3.9169380">
        <ele>316.8</ele>
        <time>2018-04-28T08:17:11Z</time>
      </trkpt>
      <trkpt lat="38.1021040" lon="-3.9170010">
        <ele>316.6</ele>
        <time>2018-04-28T08:17:12Z</time>
      </trkpt>
      <trkpt lat="38.1020570" lon="-3.9170590">
        <ele>316.6</ele>
        <time>2018-04-28T08:17:13Z</time>
      </trkpt>
      <trkpt lat="38.1020040" lon="-3.9171130">
        <ele>316.2</ele>
        <time>2018-04-28T08:17:14Z</time>
      </trkpt>
      <trkpt lat="38.1019490" lon="-3.9171680">
        <ele>315.6</ele>
        <time>2018-04-28T08:17:15Z</time>
      </trkpt>
      <trkpt lat="38.1018880" lon="-3.9172230">
        <ele>315.2</ele>
        <time>2018-04-28T08:17:16Z</time>
      </trkpt>
      <trkpt lat="38.1018330" lon="-3.9172780">
        <ele>315.0</ele>
        <time>2018-04-28T08:17:17Z</time>
      </trkpt>
      <trkpt lat="38.1017740" lon="-3.9173400">
        <ele>314.6</ele>
        <time>2018-04-28T08:17:18Z</time>
      </trkpt>
      <trkpt lat="38.1017180" lon="-3.9174080">
        <ele>314.4</ele>
        <time>2018-04-28T08:17:19Z</time>
      </trkpt>
      <trkpt lat="38.1016620" lon="-3.9174770">
        <ele>314.0</ele>
        <time>2018-04-28T08:17:20Z</time>
      </trkpt>
      <trkpt lat="38.1016050" lon="-3.9175480">
        <ele>313.6</ele>
        <time>2018-04-28T08:17:21Z</time>
      </trkpt>
      <trkpt lat="38.1015490" lon="-3.9176130">
        <ele>313.4</ele>
        <time>2018-04-28T08:17:22Z</time>
      </trkpt>
      <trkpt lat="38.1014850" lon="-3.9176720">
        <ele>313.2</ele>
        <time>2018-04-28T08:17:23Z</time>
      </trkpt>
      <trkpt lat="38.1014200" lon="-3.9177260">
        <ele>312.8</ele>
        <time>2018-04-28T08:17:24Z</time>
      </trkpt>
      <trkpt lat="38.1013480" lon="-3.9177800">
        <ele>312.2</ele>
        <time>2018-04-28T08:17:25Z</time>
      </trkpt>
      <trkpt lat="38.1012760" lon="-3.9178340">
        <ele>311.8</ele>
        <time>2018-04-28T08:17:26Z</time>
      </trkpt>
      <trkpt lat="38.1012010" lon="-3.9178880">
        <ele>310.8</ele>
        <time>2018-04-28T08:17:27Z</time>
      </trkpt>
      <trkpt lat="38.1011250" lon="-3.9179460">
        <ele>310.2</ele>
        <time>2018-04-28T08:17:28Z</time>
      </trkpt>
      <trkpt lat="38.1010530" lon="-3.9180130">
        <ele>309.6</ele>
        <time>2018-04-28T08:17:29Z</time>
      </trkpt>
      <trkpt lat="38.1009790" lon="-3.9180790">
        <ele>309.4</ele>
        <time>2018-04-28T08:17:30Z</time>
      </trkpt>
      <trkpt lat="38.1009060" lon="-3.9181410">
        <ele>309.0</ele>
        <time>2018-04-28T08:17:31Z</time>
      </trkpt>
      <trkpt lat="38.1008340" lon="-3.9182050">
        <ele>308.4</ele>
        <time>2018-04-28T08:17:32Z</time>
      </trkpt>
      <trkpt lat="38.1007640" lon="-3.9182720">
        <ele>308.2</ele>
        <time>2018-04-28T08:17:33Z</time>
      </trkpt>
      <trkpt lat="38.1007030" lon="-3.9183500">
        <ele>307.8</ele>
        <time>2018-04-28T08:17:34Z</time>
      </trkpt>
      <trkpt lat="38.1006550" lon="-3.9184400">
        <ele>307.6</ele>
        <time>2018-04-28T08:17:35Z</time>
      </trkpt>
      <trkpt lat="38.1006180" lon="-3.9185350">
        <ele>307.4</ele>
        <time>2018-04-28T08:17:36Z</time>
      </trkpt>
      <trkpt lat="38.1005850" lon="-3.9186330">
        <ele>307.4</ele>
        <time>2018-04-28T08:17:37Z</time>
      </trkpt>
      <trkpt lat="38.1005520" lon="-3.9187290">
        <ele>307.2</ele>
        <time>2018-04-28T08:17:38Z</time>
      </trkpt>
      <trkpt lat="38.1005210" lon="-3.9188230">
        <ele>307.0</ele>
        <time>2018-04-28T08:17:39Z</time>
      </trkpt>
      <trkpt lat="38.1004890" lon="-3.9189180">
        <ele>306.6</ele>
        <time>2018-04-28T08:17:40Z</time>
      </trkpt>
      <trkpt lat="38.1004590" lon="-3.9190140">
        <ele>306.4</ele>
        <time>2018-04-28T08:17:41Z</time>
      </trkpt>
      <trkpt lat="38.1004300" lon="-3.9191100">
        <ele>306.2</ele>
        <time>2018-04-28T08:17:42Z</time>
      </trkpt>
      <trkpt lat="38.1004010" lon="-3.9192060">
        <ele>306.2</ele>
        <time>2018-04-28T08:17:43Z</time>
      </trkpt>
      <trkpt lat="38.1003720" lon="-3.9193000">
        <ele>305.8</ele>
        <time>2018-04-28T08:17:44Z</time>
      </trkpt>
      <trkpt lat="38.1003470" lon="-3.9193960">
        <ele>305.4</ele>
        <time>2018-04-28T08:17:45Z</time>
      </trkpt>
      <trkpt lat="38.1003200" lon="-3.9194910">
        <ele>305.4</ele>
        <time>2018-04-28T08:17:46Z</time>
      </trkpt>
      <trkpt lat="38.1002930" lon="-3.9195850">
        <ele>305.4</ele>
        <time>2018-04-28T08:17:47Z</time>
      </trkpt>
      <trkpt lat="38.1002650" lon="-3.9196770">
        <ele>305.2</ele>
        <time>2018-04-28T08:17:48Z</time>
      </trkpt>
      <trkpt lat="38.1002370" lon="-3.9197700">
        <ele>304.6</ele>
        <time>2018-04-28T08:17:49Z</time>
      </trkpt>
      <trkpt lat="38.1002100" lon="-3.9198630">
        <ele>304.6</ele>
        <time>2018-04-28T08:17:50Z</time>
      </trkpt>
      <trkpt lat="38.1001830" lon="-3.9199570">
        <ele>304.4</ele>
        <time>2018-04-28T08:17:51Z</time>
      </trkpt>
      <trkpt lat="38.1001580" lon="-3.9200490">
        <ele>304.4</ele>
        <time>2018-04-28T08:17:52Z</time>
      </trkpt>
      <trkpt lat="38.1001360" lon="-3.9201430">
        <ele>304.2</ele>
        <time>2018-04-28T08:17:53Z</time>
      </trkpt>
      <trkpt lat="38.1001140" lon="-3.9202370">
        <ele>304.0</ele>
        <time>2018-04-28T08:17:54Z</time>
      </trkpt>
      <trkpt lat="38.1000920" lon="-3.9203290">
        <ele>303.8</ele>
        <time>2018-04-28T08:17:55Z</time>
      </trkpt>
      <trkpt lat="38.1000630" lon="-3.9204160">
        <ele>303.8</ele>
        <time>2018-04-28T08:17:56Z</time>
      </trkpt>
      <trkpt lat="38.1000250" lon="-3.9204960">
        <ele>303.4</ele>
        <time>2018-04-28T08:17:57Z</time>
      </trkpt>
      <trkpt lat="38.0999800" lon="-3.9205680">
        <ele>303.2</ele>
        <time>2018-04-28T08:17:58Z</time>
      </trkpt>
      <trkpt lat="38.0999280" lon="-3.9206300">
        <ele>303.2</ele>
        <time>2018-04-28T08:17:59Z</time>
      </trkpt>
      <trkpt lat="38.0998740" lon="-3.9206870">
        <ele>303.0</ele>
        <time>2018-04-28T08:18:00Z</time>
      </trkpt>
      <trkpt lat="38.0998190" lon="-3.9207400">
        <ele>303.0</ele>
        <time>2018-04-28T08:18:01Z</time>
      </trkpt>
      <trkpt lat="38.0997600" lon="-3.9207850">
        <ele>302.8</ele>
        <time>2018-04-28T08:18:02Z</time>
      </trkpt>
      <trkpt lat="38.0996940" lon="-3.9208250">
        <ele>302.6</ele>
        <time>2018-04-28T08:18:03Z</time>
      </trkpt>
      <trkpt lat="38.0996280" lon="-3.9208580">
        <ele>302.4</ele>
        <time>2018-04-28T08:18:04Z</time>
      </trkpt>
      <trkpt lat="38.0995600" lon="-3.9208840">
        <ele>302.4</ele>
        <time>2018-04-28T08:18:05Z</time>
      </trkpt>
      <trkpt lat="38.0994890" lon="-3.9209050">
        <ele>302.2</ele>
        <time>2018-04-28T08:18:06Z</time>
      </trkpt>
      <trkpt lat="38.0994180" lon="-3.9209240">
        <ele>302.2</ele>
        <time>2018-04-28T08:18:07Z</time>
      </trkpt>
      <trkpt lat="38.0993440" lon="-3.9209340">
        <ele>301.8</ele>
        <time>2018-04-28T08:18:08Z</time>
      </trkpt>
      <trkpt lat="38.0992700" lon="-3.9209430">
        <ele>301.6</ele>
        <time>2018-04-28T08:18:09Z</time>
      </trkpt>
      <trkpt lat="38.0991990" lon="-3.9209480">
        <ele>301.4</ele>
        <time>2018-04-28T08:18:10Z</time>
      </trkpt>
      <trkpt lat="38.0991270" lon="-3.9209480">
        <ele>301.0</ele>
        <time>2018-04-28T08:18:11Z</time>
      </trkpt>
      <trkpt lat="38.0990550" lon="-3.9209450">
        <ele>301.6</ele>
        <time>2018-04-28T08:18:12Z</time>
      </trkpt>
      <trkpt lat="38.0989830" lon="-3.9209400">
        <ele>300.6</ele>
        <time>2018-04-28T08:18:13Z</time>
      </trkpt>
      <trkpt lat="38.0989100" lon="-3.9209370">
        <ele>300.0</ele>
        <time>2018-04-28T08:18:14Z</time>
      </trkpt>
      <trkpt lat="38.0988370" lon="-3.9209330">
        <ele>299.8</ele>
        <time>2018-04-28T08:18:15Z</time>
      </trkpt>
      <trkpt lat="38.0987640" lon="-3.9209270">
        <ele>299.4</ele>
        <time>2018-04-28T08:18:16Z</time>
      </trkpt>
      <trkpt lat="38.0986920" lon="-3.9209220">
        <ele>299.2</ele>
        <time>2018-04-28T08:18:17Z</time>
      </trkpt>
      <trkpt lat="38.0986210" lon="-3.9209150">
        <ele>298.8</ele>
        <time>2018-04-28T08:18:18Z</time>
      </trkpt>
      <trkpt lat="38.0985530" lon="-3.9209070">
        <ele>298.6</ele>
        <time>2018-04-28T08:18:19Z</time>
      </trkpt>
      <trkpt lat="38.0984920" lon="-3.9208950">
        <ele>298.2</ele>
        <time>2018-04-28T08:18:20Z</time>
      </trkpt>
      <trkpt lat="38.0984370" lon="-3.9208860">
        <ele>298.2</ele>
        <time>2018-04-28T08:18:21Z</time>
      </trkpt>
      <trkpt lat="38.0983880" lon="-3.9208760">
        <ele>297.8</ele>
        <time>2018-04-28T08:18:22Z</time>
      </trkpt>
      <trkpt lat="38.0983430" lon="-3.9208650">
        <ele>297.8</ele>
        <time>2018-04-28T08:18:23Z</time>
      </trkpt>
      <trkpt lat="38.0983060" lon="-3.9208630">
        <ele>297.6</ele>
        <time>2018-04-28T08:18:24Z</time>
      </trkpt>
      <trkpt lat="38.0982770" lon="-3.9208660">
        <ele>297.6</ele>
        <time>2018-04-28T08:18:25Z</time>
      </trkpt>
      <trkpt lat="38.0982530" lon="-3.9208700">
        <ele>297.6</ele>
        <time>2018-04-28T08:18:26Z</time>
      </trkpt>
      <trkpt lat="38.0982330" lon="-3.9208780">
        <ele>297.4</ele>
        <time>2018-04-28T08:18:27Z</time>
      </trkpt>
      <trkpt lat="38.0982140" lon="-3.9208840">
        <ele>297.6</ele>
        <time>2018-04-28T08:18:28Z</time>
      </trkpt>
      <trkpt lat="38.0982010" lon="-3.9208850">
        <ele>297.6</ele>
        <time>2018-04-28T08:18:29Z</time>
      </trkpt>
      <trkpt lat="38.0982010" lon="-3.9208830">
        <ele>297.2</ele>
        <time>2018-04-28T08:18:30Z</time>
      </trkpt>
      <trkpt lat="38.0982020" lon="-3.9208840">
        <ele>297.4</ele>
        <time>2018-04-28T08:18:31Z</time>
      </trkpt>
      <trkpt lat="38.0982010" lon="-3.9208780">
        <ele>297.4</ele>
        <time>2018-04-28T08:18:32Z</time>
      </trkpt>
      <trkpt lat="38.0982070" lon="-3.9208850">
        <ele>297.4</ele>
        <time>2018-04-28T08:18:33Z</time>
      </trkpt>
      <trkpt lat="38.0982080" lon="-3.9208880">
        <ele>297.6</ele>
        <time>2018-04-28T08:18:34Z</time>
      </trkpt>
      <trkpt lat="38.0982080" lon="-3.9208890">
        <ele>297.6</ele>
        <time>2018-04-28T08:18:35Z</time>
      </trkpt>
      <trkpt lat="38.0982080" lon="-3.9208910">
        <ele>297.6</ele>
        <time>2018-04-28T08:18:36Z</time>
      </trkpt>
      <trkpt lat="38.0982080" lon="-3.9208950">
        <ele>297.6</ele>
        <time>2018-04-28T08:18:37Z</time>
      </trkpt>
      <trkpt lat="38.0981400" lon="-3.9206610">
        <ele>296.0</ele>
        <time>2018-04-28T08:22:16Z</time>
      </trkpt>
      <trkpt lat="38.0981410" lon="-3.9206300">
        <ele>295.8</ele>
        <time>2018-04-28T08:22:17Z</time>
      </trkpt>
      <trkpt lat="38.0981440" lon="-3.9205950">
        <ele>295.8</ele>
        <time>2018-04-28T08:22:18Z</time>
      </trkpt>
      <trkpt lat="38.0981400" lon="-3.9205600">
        <ele>295.6</ele>
        <time>2018-04-28T08:22:19Z</time>
      </trkpt>
      <trkpt lat="38.0981420" lon="-3.9205240">
        <ele>295.4</ele>
        <time>2018-04-28T08:22:20Z</time>
      </trkpt>
      <trkpt lat="38.0981340" lon="-3.9204870">
        <ele>295.2</ele>
        <time>2018-04-28T08:22:21Z</time>
      </trkpt>
      <trkpt lat="38.0981180" lon="-3.9204400">
        <ele>295.2</ele>
        <time>2018-04-28T08:22:22Z</time>
      </trkpt>
      <trkpt lat="38.0981040" lon="-3.9204010">
        <ele>295.0</ele>
        <time>2018-04-28T08:22:23Z</time>
      </trkpt>
      <trkpt lat="38.0980830" lon="-3.9203660">
        <ele>295.0</ele>
        <time>2018-04-28T08:22:24Z</time>
      </trkpt>
      <trkpt lat="38.0980730" lon="-3.9203280">
        <ele>295.0</ele>
        <time>2018-04-28T08:22:25Z</time>
      </trkpt>
      <trkpt lat="38.0980610" lon="-3.9202870">
        <ele>295.0</ele>
        <time>2018-04-28T08:22:26Z</time>
      </trkpt>
      <trkpt lat="38.0980470" lon="-3.9202380">
        <ele>294.8</ele>
        <time>2018-04-28T08:22:27Z</time>
      </trkpt>
      <trkpt lat="38.0980450" lon="-3.9201880">
        <ele>294.8</ele>
        <time>2018-04-28T08:22:28Z</time>
      </trkpt>
      <trkpt lat="38.0980410" lon="-3.9201360">
        <ele>294.6</ele>
        <time>2018-04-28T08:22:29Z</time>
      </trkpt>
      <trkpt lat="38.0980370" lon="-3.9200840">
        <ele>294.6</ele>
        <time>2018-04-28T08:22:30Z</time>
      </trkpt>
      <trkpt lat="38.0980390" lon="-3.9200340">
        <ele>294.8</ele>
        <time>2018-04-28T08:22:31Z</time>
      </trkpt>
      <trkpt lat="38.0980420" lon="-3.9199860">
        <ele>295.0</ele>
        <time>2018-04-28T08:22:32Z</time>
      </trkpt>
      <trkpt lat="38.0980500" lon="-3.9199370">
        <ele>295.2</ele>
        <time>2018-04-28T08:22:33Z</time>
      </trkpt>
      <trkpt lat="38.0980610" lon="-3.9198870">
        <ele>295.2</ele>
        <time>2018-04-28T08:22:34Z</time>
      </trkpt>
      <trkpt lat="38.0980710" lon="-3.9198340">
        <ele>295.4</ele>
        <time>2018-04-28T08:22:35Z</time>
      </trkpt>
      <trkpt lat="38.0980800" lon="-3.9197800">
        <ele>295.4</ele>
        <time>2018-04-28T08:22:36Z</time>
      </trkpt>
      <trkpt lat="38.0980910" lon="-3.9197290">
        <ele>295.6</ele>
        <time>2018-04-28T08:22:37Z</time>
      </trkpt>
      <trkpt lat="38.0981050" lon="-3.9196800">
        <ele>295.8</ele>
        <time>2018-04-28T08:22:38Z</time>
      </trkpt>
      <trkpt lat="38.0981170" lon="-3.9196300">
        <ele>296.0</ele>
        <time>2018-04-28T08:22:39Z</time>
      </trkpt>
      <trkpt lat="38.0981340" lon="-3.9195790">
        <ele>296.4</ele>
        <time>2018-04-28T08:22:40Z</time>
      </trkpt>
      <trkpt lat="38.0981500" lon="-3.9195330">
        <ele>296.6</ele>
        <time>2018-04-28T08:22:41Z</time>
      </trkpt>
      <trkpt lat="38.0981650" lon="-3.9194870">
        <ele>296.8</ele>
        <time>2018-04-28T08:22:42Z</time>
      </trkpt>
      <trkpt lat="38.0981820" lon="-3.9194430">
        <ele>296.8</ele>
        <time>2018-04-28T08:22:43Z</time>
      </trkpt>
      <trkpt lat="38.0981980" lon="-3.9193990">
        <ele>296.8</ele>
        <time>2018-04-28T08:22:44Z</time>
      </trkpt>
      <trkpt lat="38.0982160" lon="-3.9193550">
        <ele>297.0</ele>
        <time>2018-04-28T08:22:45Z</time>
      </trkpt>
      <trkpt lat="38.0982310" lon="-3.9193100">
        <ele>297.0</ele>
        <time>2018-04-28T08:22:46Z</time>
      </trkpt>
      <trkpt lat="38.0982480" lon="-3.9192640">
        <ele>297.0</ele>
        <time>2018-04-28T08:22:47Z</time>
      </trkpt>
      <trkpt lat="38.0982650" lon="-3.9192160">
        <ele>297.2</ele>
        <time>2018-04-28T08:22:48Z</time>
      </trkpt>
      <trkpt lat="38.0982850" lon="-3.9191670">
        <ele>297.2</ele>
        <time>2018-04-28T08:22:49Z</time>
      </trkpt>
      <trkpt lat="38.0983050" lon="-3.9191200">
        <ele>297.2</ele>
        <time>2018-04-28T08:22:50Z</time>
      </trkpt>
      <trkpt lat="38.0983260" lon="-3.9190720">
        <ele>297.4</ele>
        <time>2018-04-28T08:22:51Z</time>
      </trkpt>
      <trkpt lat="38.0983440" lon="-3.9190240">
        <ele>297.6</ele>
        <time>2018-04-28T08:22:52Z</time>
      </trkpt>
      <trkpt lat="38.0983610" lon="-3.9189750">
        <ele>297.6</ele>
        <time>2018-04-28T08:22:53Z</time>
      </trkpt>
      <trkpt lat="38.0983780" lon="-3.9189260">
        <ele>297.6</ele>
        <time>2018-04-28T08:22:54Z</time>
      </trkpt>
      <trkpt lat="38.0983980" lon="-3.9188770">
        <ele>297.6</ele>
        <time>2018-04-28T08:22:55Z</time>
      </trkpt>
      <trkpt lat="38.0984120" lon="-3.9188310">
        <ele>297.8</ele>
        <time>2018-04-28T08:22:56Z</time>
      </trkpt>
      <trkpt lat="38.0984280" lon="-3.9187850">
        <ele>298.0</ele>
        <time>2018-04-28T08:22:57Z</time>
      </trkpt>
      <trkpt lat="38.0984450" lon="-3.9187380">
        <ele>297.8</ele>
        <time>2018-04-28T08:22:58Z</time>
      </trkpt>
      <trkpt lat="38.0984640" lon="-3.9186930">
        <ele>298.0</ele>
        <time>2018-04-28T08:22:59Z</time>
      </trkpt>
      <trkpt lat="38.0984810" lon="-3.9186480">
        <ele>298.2</ele>
        <time>2018-04-28T08:23:00Z</time>
      </trkpt>
      <trkpt lat="38.0985000" lon="-3.9186020">
        <ele>298.2</ele>
        <time>2018-04-28T08:23:01Z</time>
      </trkpt>
      <trkpt lat="38.0985200" lon="-3.9185560">
        <ele>298.4</ele>
        <time>2018-04-28T08:23:02Z</time>
      </trkpt>
      <trkpt lat="38.0985400" lon="-3.9185110">
        <ele>298.6</ele>
        <time>2018-04-28T08:23:03Z</time>
      </trkpt>
      <trkpt lat="38.0985600" lon="-3.9184640">
        <ele>298.4</ele>
        <time>2018-04-28T08:23:04Z</time>
      </trkpt>
      <trkpt lat="38.0985810" lon="-3.9184140">
        <ele>298.4</ele>
        <time>2018-04-28T08:23:05Z</time>
      </trkpt>
      <trkpt lat="38.0986020" lon="-3.9183630">
        <ele>298.4</ele>
        <time>2018-04-28T08:23:06Z</time>
      </trkpt>
      <trkpt lat="38.0986220" lon="-3.9183100">
        <ele>298.4</ele>
        <time>2018-04-28T08:23:07Z</time>
      </trkpt>
      <trkpt lat="38.0986450" lon="-3.9182560">
        <ele>298.0</ele>
        <time>2018-04-28T08:23:08Z</time>
      </trkpt>
      <trkpt lat="38.0986670" lon="-3.9182030">
        <ele>298.2</ele>
        <time>2018-04-28T08:23:09Z</time>
      </trkpt>
      <trkpt lat="38.0986900" lon="-3.9181490">
        <ele>298.0</ele>
        <time>2018-04-28T08:23:10Z</time>
      </trkpt>
      <trkpt lat="38.0987160" lon="-3.9180940">
        <ele>297.8</ele>
        <time>2018-04-28T08:23:11Z</time>
      </trkpt>
      <trkpt lat="38.0987460" lon="-3.9180430">
        <ele>297.8</ele>
        <time>2018-04-28T08:23:12Z</time>
      </trkpt>
      <trkpt lat="38.0987740" lon="-3.9179950">
        <ele>297.6</ele>
        <time>2018-04-28T08:23:13Z</time>
      </trkpt>
      <trkpt lat="38.0988010" lon="-3.9179480">
        <ele>297.8</ele>
        <time>2018-04-28T08:23:14Z</time>
      </trkpt>
      <trkpt lat="38.0988280" lon="-3.9179010">
        <ele>297.8</ele>
        <time>2018-04-28T08:23:15Z</time>
      </trkpt>
      <trkpt lat="38.0988520" lon="-3.9178500">
        <ele>298.0</ele>
        <time>2018-04-28T08:23:16Z</time>
      </trkpt>
      <trkpt lat="38.0988700" lon="-3.9177990">
        <ele>298.2</ele>
        <time>2018-04-28T08:23:17Z</time>
      </trkpt>
      <trkpt lat="38.0988860" lon="-3.9177470">
        <ele>298.2</ele>
        <time>2018-04-28T08:23:18Z</time>
      </trkpt>
      <trkpt lat="38.0988990" lon="-3.9176950">
        <ele>298.4</ele>
        <time>2018-04-28T08:23:19Z</time>
      </trkpt>
      <trkpt lat="38.0989130" lon="-3.9176430">
        <ele>298.6</ele>
        <time>2018-04-28T08:23:20Z</time>
      </trkpt>
      <trkpt lat="38.0989280" lon="-3.9175940">
        <ele>298.8</ele>
        <time>2018-04-28T08:23:21Z</time>
      </trkpt>
      <trkpt lat="38.0989490" lon="-3.9175460">
        <ele>299.0</ele>
        <time>2018-04-28T08:23:22Z</time>
      </trkpt>
      <trkpt lat="38.0989730" lon="-3.9175030">
        <ele>299.2</ele>
        <time>2018-04-28T08:23:23Z</time>
      </trkpt>
      <trkpt lat="38.0989950" lon="-3.9174620">
        <ele>299.4</ele>
        <time>2018-04-28T08:23:24Z</time>
      </trkpt>
      <trkpt lat="38.0990180" lon="-3.9174220">
        <ele>299.6</ele>
        <time>2018-04-28T08:23:25Z</time>
      </trkpt>
      <trkpt lat="38.0990380" lon="-3.9173820">
        <ele>300.0</ele>
        <time>2018-04-28T08:23:26Z</time>
      </trkpt>
      <trkpt lat="38.0990560" lon="-3.9173400">
        <ele>300.2</ele>
        <time>2018-04-28T08:23:27Z</time>
      </trkpt>
      <trkpt lat="38.0990740" lon="-3.9172970">
        <ele>300.4</ele>
        <time>2018-04-28T08:23:28Z</time>
      </trkpt>
      <trkpt lat="38.0990900" lon="-3.9172550">
        <ele>300.8</ele>
        <time>2018-04-28T08:23:29Z</time>
      </trkpt>
      <trkpt lat="38.0991060" lon="-3.9172130">
        <ele>301.2</ele>
        <time>2018-04-28T08:23:30Z</time>
      </trkpt>
      <trkpt lat="38.0991210" lon="-3.9171710">
        <ele>301.6</ele>
        <time>2018-04-28T08:23:31Z</time>
      </trkpt>
      <trkpt lat="38.0991360" lon="-3.9171300">
        <ele>301.8</ele>
        <time>2018-04-28T08:23:32Z</time>
      </trkpt>
      <trkpt lat="38.0991520" lon="-3.9170880">
        <ele>302.0</ele>
        <time>2018-04-28T08:23:33Z</time>
      </trkpt>
      <trkpt lat="38.0991670" lon="-3.9170460">
        <ele>302.2</ele>
        <time>2018-04-28T08:23:34Z</time>
      </trkpt>
      <trkpt lat="38.0991810" lon="-3.9170010">
        <ele>302.6</ele>
        <time>2018-04-28T08:23:35Z</time>
      </trkpt>
      <trkpt lat="38.0991970" lon="-3.9169580">
        <ele>302.6</ele>
        <time>2018-04-28T08:23:36Z</time>
      </trkpt>
      <trkpt lat="38.0992140" lon="-3.9169130">
        <ele>302.8</ele>
        <time>2018-04-28T08:23:37Z</time>
      </trkpt>
      <trkpt lat="38.0992310" lon="-3.9168670">
        <ele>303.0</ele>
        <time>2018-04-28T08:23:38Z</time>
      </trkpt>
      <trkpt lat="38.0992510" lon="-3.9168260">
        <ele>303.0</ele>
        <time>2018-04-28T08:23:39Z</time>
      </trkpt>
      <trkpt lat="38.0992720" lon="-3.9167850">
        <ele>303.2</ele>
        <time>2018-04-28T08:23:40Z</time>
      </trkpt>
      <trkpt lat="38.0992910" lon="-3.9167430">
        <ele>303.2</ele>
        <time>2018-04-28T08:23:41Z</time>
      </trkpt>
      <trkpt lat="38.0993110" lon="-3.9167000">
        <ele>303.4</ele>
        <time>2018-04-28T08:23:42Z</time>
      </trkpt>
      <trkpt lat="38.0993310" lon="-3.9166580">
        <ele>303.4</ele>
        <time>2018-04-28T08:23:43Z</time>
      </trkpt>
      <trkpt lat="38.0993520" lon="-3.9166150">
        <ele>303.4</ele>
        <time>2018-04-28T08:23:44Z</time>
      </trkpt>
      <trkpt lat="38.0993720" lon="-3.9165700">
        <ele>303.4</ele>
        <time>2018-04-28T08:23:45Z</time>
      </trkpt>
      <trkpt lat="38.0993930" lon="-3.9165240">
        <ele>303.4</ele>
        <time>2018-04-28T08:23:46Z</time>
      </trkpt>
      <trkpt lat="38.0994140" lon="-3.9164770">
        <ele>303.4</ele>
        <time>2018-04-28T08:23:47Z</time>
      </trkpt>
      <trkpt lat="38.0994320" lon="-3.9164260">
        <ele>303.4</ele>
        <time>2018-04-28T08:23:48Z</time>
      </trkpt>
      <trkpt lat="38.0994480" lon="-3.9163740">
        <ele>303.6</ele>
        <time>2018-04-28T08:23:49Z</time>
      </trkpt>
      <trkpt lat="38.0994640" lon="-3.9163210">
        <ele>303.6</ele>
        <time>2018-04-28T08:23:50Z</time>
      </trkpt>
      <trkpt lat="38.0994820" lon="-3.9162690">
        <ele>303.6</ele>
        <time>2018-04-28T08:23:51Z</time>
      </trkpt>
      <trkpt lat="38.0995010" lon="-3.9162160">
        <ele>303.6</ele>
        <time>2018-04-28T08:23:52Z</time>
      </trkpt>
      <trkpt lat="38.0995220" lon="-3.9161620">
        <ele>303.4</ele>
        <time>2018-04-28T08:23:53Z</time>
      </trkpt>
      <trkpt lat="38.0995480" lon="-3.9161110">
        <ele>303.6</ele>
        <time>2018-04-28T08:23:54Z</time>
      </trkpt>
      <trkpt lat="38.0995750" lon="-3.9160650">
        <ele>304.0</ele>
        <time>2018-04-28T08:23:55Z</time>
      </trkpt>
      <trkpt lat="38.0996010" lon="-3.9160190">
        <ele>304.2</ele>
        <time>2018-04-28T08:23:56Z</time>
      </trkpt>
      <trkpt lat="38.0996230" lon="-3.9159720">
        <ele>304.2</ele>
        <time>2018-04-28T08:23:57Z</time>
      </trkpt>
      <trkpt lat="38.0996430" lon="-3.9159210">
        <ele>304.2</ele>
        <time>2018-04-28T08:23:58Z</time>
      </trkpt>
      <trkpt lat="38.0996570" lon="-3.9158680">
        <ele>304.2</ele>
        <time>2018-04-28T08:23:59Z</time>
      </trkpt>
      <trkpt lat="38.0996650" lon="-3.9158140">
        <ele>304.2</ele>
        <time>2018-04-28T08:24:00Z</time>
      </trkpt>
      <trkpt lat="38.0996700" lon="-3.9157560">
        <ele>304.0</ele>
        <time>2018-04-28T08:24:01Z</time>
      </trkpt>
      <trkpt lat="38.0996700" lon="-3.9156920">
        <ele>303.8</ele>
        <time>2018-04-28T08:24:02Z</time>
      </trkpt>
      <trkpt lat="38.0996610" lon="-3.9156230">
        <ele>303.6</ele>
        <time>2018-04-28T08:24:03Z</time>
      </trkpt>
      <trkpt lat="38.0996410" lon="-3.9155560">
        <ele>303.2</ele>
        <time>2018-04-28T08:24:04Z</time>
      </trkpt>
      <trkpt lat="38.0996110" lon="-3.9154870">
        <ele>302.8</ele>
        <time>2018-04-28T08:24:05Z</time>
      </trkpt>
      <trkpt lat="38.0995780" lon="-3.9154150">
        <ele>302.4</ele>
        <time>2018-04-28T08:24:06Z</time>
      </trkpt>
      <trkpt lat="38.0995460" lon="-3.9153440">
        <ele>302.4</ele>
        <time>2018-04-28T08:24:07Z</time>
      </trkpt>
      <trkpt lat="38.0995160" lon="-3.9152700">
        <ele>302.2</ele>
        <time>2018-04-28T08:24:08Z</time>
      </trkpt>
      <trkpt lat="38.0994910" lon="-3.9151900">
        <ele>301.8</ele>
        <time>2018-04-28T08:24:09Z</time>
      </trkpt>
      <trkpt lat="38.0994720" lon="-3.9151130">
        <ele>301.8</ele>
        <time>2018-04-28T08:24:10Z</time>
      </trkpt>
      <trkpt lat="38.0994480" lon="-3.9150420">
        <ele>301.8</ele>
        <time>2018-04-28T08:24:11Z</time>
      </trkpt>
      <trkpt lat="38.0994130" lon="-3.9149810">
        <ele>302.0</ele>
        <time>2018-04-28T08:24:12Z</time>
      </trkpt>
      <trkpt lat="38.0993700" lon="-3.9149300">
        <ele>302.2</ele>
        <time>2018-04-28T08:24:13Z</time>
      </trkpt>
      <trkpt lat="38.0993140" lon="-3.9148820">
        <ele>302.2</ele>
        <time>2018-04-28T08:24:14Z</time>
      </trkpt>
      <trkpt lat="38.0992670" lon="-3.9148440">
        <ele>302.2</ele>
        <time>2018-04-28T08:24:15Z</time>
      </trkpt>
      <trkpt lat="38.0992190" lon="-3.9148020">
        <ele>302.4</ele>
        <time>2018-04-28T08:24:16Z</time>
      </trkpt>
      <trkpt lat="38.0991740" lon="-3.9147620">
        <ele>302.4</ele>
        <time>2018-04-28T08:24:17Z</time>
      </trkpt>
      <trkpt lat="38.0991320" lon="-3.9147180">
        <ele>302.6</ele>
        <time>2018-04-28T08:24:18Z</time>
      </trkpt>
      <trkpt lat="38.0990900" lon="-3.9146720">
        <ele>302.8</ele>
        <time>2018-04-28T08:24:19Z</time>
      </trkpt>
      <trkpt lat="38.0990510" lon="-3.9146240">
        <ele>302.8</ele>
        <time>2018-04-28T08:24:20Z</time>
      </trkpt>
      <trkpt lat="38.0990140" lon="-3.9145770">
        <ele>303.2</ele>
        <time>2018-04-28T08:24:21Z</time>
      </trkpt>
      <trkpt lat="38.0989810" lon="-3.9145290">
        <ele>303.0</ele>
        <time>2018-04-28T08:24:22Z</time>
      </trkpt>
      <trkpt lat="38.0989490" lon="-3.9144770">
        <ele>303.2</ele>
        <time>2018-04-28T08:24:23Z</time>
      </trkpt>
      <trkpt lat="38.0989200" lon="-3.9144240">
        <ele>303.2</ele>
        <time>2018-04-28T08:24:24Z</time>
      </trkpt>
      <trkpt lat="38.0988870" lon="-3.9143720">
        <ele>303.0</ele>
        <time>2018-04-28T08:24:25Z</time>
      </trkpt>
      <trkpt lat="38.0988600" lon="-3.9143160">
        <ele>303.4</ele>
        <time>2018-04-28T08:24:26Z</time>
      </trkpt>
      <trkpt lat="38.0988380" lon="-3.9142570">
        <ele>303.4</ele>
        <time>2018-04-28T08:24:27Z</time>
      </trkpt>
      <trkpt lat="38.0988180" lon="-3.9141950">
        <ele>303.4</ele>
        <time>2018-04-28T08:24:28Z</time>
      </trkpt>
      <trkpt lat="38.0988030" lon="-3.9141330">
        <ele>303.4</ele>
        <time>2018-04-28T08:24:29Z</time>
      </trkpt>
      <trkpt lat="38.0987880" lon="-3.9140740">
        <ele>303.6</ele>
        <time>2018-04-28T08:24:30Z</time>
      </trkpt>
      <trkpt lat="38.0987730" lon="-3.9140140">
        <ele>303.6</ele>
        <time>2018-04-28T08:24:31Z</time>
      </trkpt>
      <trkpt lat="38.0987580" lon="-3.9139530">
        <ele>303.6</ele>
        <time>2018-04-28T08:24:32Z</time>
      </trkpt>
      <trkpt lat="38.0987410" lon="-3.9138950">
        <ele>303.6</ele>
        <time>2018-04-28T08:24:33Z</time>
      </trkpt>
      <trkpt lat="38.0987350" lon="-3.9138470">
        <ele>303.8</ele>
        <time>2018-04-28T08:24:34Z</time>
      </trkpt>
      <trkpt lat="38.0987260" lon="-3.9137890">
        <ele>303.8</ele>
        <time>2018-04-28T08:24:35Z</time>
      </trkpt>
      <trkpt lat="38.0987160" lon="-3.9137260">
        <ele>303.8</ele>
        <time>2018-04-28T08:24:36Z</time>
      </trkpt>
      <trkpt lat="38.0986970" lon="-3.9136640">
        <ele>303.8</ele>
        <time>2018-04-28T08:24:37Z</time>
      </trkpt>
      <trkpt lat="38.0986760" lon="-3.9136080">
        <ele>303.8</ele>
        <time>2018-04-28T08:24:38Z</time>
      </trkpt>
      <trkpt lat="38.0986530" lon="-3.9135560">
        <ele>303.8</ele>
        <time>2018-04-28T08:24:39Z</time>
      </trkpt>
      <trkpt lat="38.0986350" lon="-3.9135060">
        <ele>304.0</ele>
        <time>2018-04-28T08:24:40Z</time>
      </trkpt>
      <trkpt lat="38.0986210" lon="-3.9134510">
        <ele>304.0</ele>
        <time>2018-04-28T08:24:41Z</time>
      </trkpt>
      <trkpt lat="38.0986080" lon="-3.9133890">
        <ele>304.4</ele>
        <time>2018-04-28T08:24:42Z</time>
      </trkpt>
      <trkpt lat="38.0985980" lon="-3.9133290">
        <ele>304.4</ele>
        <time>2018-04-28T08:24:43Z</time>
      </trkpt>
      <trkpt lat="38.0985880" lon="-3.9132700">
        <ele>304.6</ele>
        <time>2018-04-28T08:24:44Z</time>
      </trkpt>
      <trkpt lat="38.0985730" lon="-3.9132110">
        <ele>304.8</ele>
        <time>2018-04-28T08:24:45Z</time>
      </trkpt>
      <trkpt lat="38.0985490" lon="-3.9131570">
        <ele>304.8</ele>
        <time>2018-04-28T08:24:46Z</time>
      </trkpt>
      <trkpt lat="38.0985280" lon="-3.9131020">
        <ele>304.8</ele>
        <time>2018-04-28T08:24:47Z</time>
      </trkpt>
      <trkpt lat="38.0984970" lon="-3.9130480">
        <ele>305.0</ele>
        <time>2018-04-28T08:24:48Z</time>
      </trkpt>
      <trkpt lat="38.0984710" lon="-3.9130000">
        <ele>305.0</ele>
        <time>2018-04-28T08:24:49Z</time>
      </trkpt>
      <trkpt lat="38.0984490" lon="-3.9129500">
        <ele>305.2</ele>
        <time>2018-04-28T08:24:50Z</time>
      </trkpt>
      <trkpt lat="38.0984290" lon="-3.9128950">
        <ele>305.4</ele>
        <time>2018-04-28T08:24:51Z</time>
      </trkpt>
      <trkpt lat="38.0984100" lon="-3.9128410">
        <ele>305.4</ele>
        <time>2018-04-28T08:24:52Z</time>
      </trkpt>
      <trkpt lat="38.0983920" lon="-3.9127850">
        <ele>305.6</ele>
        <time>2018-04-28T08:24:53Z</time>
      </trkpt>
      <trkpt lat="38.0983720" lon="-3.9127250">
        <ele>305.8</ele>
        <time>2018-04-28T08:24:54Z</time>
      </trkpt>
      <trkpt lat="38.0983620" lon="-3.9126740">
        <ele>306.0</ele>
        <time>2018-04-28T08:24:55Z</time>
      </trkpt>
      <trkpt lat="38.0983470" lon="-3.9126290">
        <ele>306.0</ele>
        <time>2018-04-28T08:24:56Z</time>
      </trkpt>
      <trkpt lat="38.0983340" lon="-3.9125780">
        <ele>306.4</ele>
        <time>2018-04-28T08:24:57Z</time>
      </trkpt>
      <trkpt lat="38.0983220" lon="-3.9125210">
        <ele>306.4</ele>
        <time>2018-04-28T08:24:58Z</time>
      </trkpt>
      <trkpt lat="38.0983120" lon="-3.9124660">
        <ele>306.6</ele>
        <time>2018-04-28T08:24:59Z</time>
      </trkpt>
      <trkpt lat="38.0983080" lon="-3.9124180">
        <ele>306.8</ele>
        <time>2018-04-28T08:25:00Z</time>
      </trkpt>
      <trkpt lat="38.0982960" lon="-3.9123750">
        <ele>307.0</ele>
        <time>2018-04-28T08:25:01Z</time>
      </trkpt>
      <trkpt lat="38.0982820" lon="-3.9123360">
        <ele>307.0</ele>
        <time>2018-04-28T08:25:02Z</time>
      </trkpt>
      <trkpt lat="38.0982710" lon="-3.9123050">
        <ele>307.2</ele>
        <time>2018-04-28T08:25:03Z</time>
      </trkpt>
      <trkpt lat="38.0982610" lon="-3.9122830">
        <ele>307.2</ele>
        <time>2018-04-28T08:25:04Z</time>
      </trkpt>
      <trkpt lat="38.0982550" lon="-3.9122670">
        <ele>307.2</ele>
        <time>2018-04-28T08:25:05Z</time>
      </trkpt>
      <trkpt lat="38.0982480" lon="-3.9122460">
        <ele>307.2</ele>
        <time>2018-04-28T08:25:06Z</time>
      </trkpt>
      <trkpt lat="38.0982430" lon="-3.9122330">
        <ele>307.2</ele>
        <time>2018-04-28T08:25:07Z</time>
      </trkpt>
      <trkpt lat="38.0982310" lon="-3.9122160">
        <ele>307.0</ele>
        <time>2018-04-28T08:25:08Z</time>
      </trkpt>
      <trkpt lat="38.0982160" lon="-3.9122040">
        <ele>307.2</ele>
        <time>2018-04-28T08:25:09Z</time>
      </trkpt>
      <trkpt lat="38.0982050" lon="-3.9121870">
        <ele>307.2</ele>
        <time>2018-04-28T08:25:10Z</time>
      </trkpt>
      <trkpt lat="38.0981930" lon="-3.9121720">
        <ele>307.2</ele>
        <time>2018-04-28T08:25:11Z</time>
      </trkpt>
      <trkpt lat="38.0981840" lon="-3.9121630">
        <ele>307.4</ele>
        <time>2018-04-28T08:25:12Z</time>
      </trkpt>
      <trkpt lat="38.0981710" lon="-3.9121530">
        <ele>307.4</ele>
        <time>2018-04-28T08:25:13Z</time>
      </trkpt>
      <trkpt lat="38.0981620" lon="-3.9121360">
        <ele>307.4</ele>
        <time>2018-04-28T08:25:14Z</time>
      </trkpt>
      <trkpt lat="38.0981520" lon="-3.9121220">
        <ele>307.4</ele>
        <time>2018-04-28T08:25:15Z</time>
      </trkpt>
      <trkpt lat="38.0981440" lon="-3.9121100">
        <ele>307.4</ele>
        <time>2018-04-28T08:25:16Z</time>
      </trkpt>
      <trkpt lat="38.0981370" lon="-3.9120960">
        <ele>307.4</ele>
        <time>2018-04-28T08:25:17Z</time>
      </trkpt>
      <trkpt lat="38.0981280" lon="-3.9120830">
        <ele>307.6</ele>
        <time>2018-04-28T08:25:18Z</time>
      </trkpt>
      <trkpt lat="38.0981220" lon="-3.9120740">
        <ele>307.6</ele>
        <time>2018-04-28T08:25:19Z</time>
      </trkpt>
      <trkpt lat="38.0981230" lon="-3.9120670">
        <ele>307.6</ele>
        <time>2018-04-28T08:25:20Z</time>
      </trkpt>
      <trkpt lat="38.0981240" lon="-3.9120670">
        <ele>307.4</ele>
        <time>2018-04-28T08:25:21Z</time>
      </trkpt>
      <trkpt lat="38.0981230" lon="-3.9120680">
        <ele>307.4</ele>
        <time>2018-04-28T08:25:22Z</time>
      </trkpt>
      <trkpt lat="38.0981250" lon="-3.9120760">
        <ele>307.6</ele>
        <time>2018-04-28T08:25:23Z</time>
      </trkpt>
      <trkpt lat="38.0981220" lon="-3.9120700">
        <ele>307.6</ele>
        <time>2018-04-28T08:25:24Z</time>
      </trkpt>
      <trkpt lat="38.0981210" lon="-3.9120680">
        <ele>307.6</ele>
        <time>2018-04-28T08:25:25Z</time>
      </trkpt>
      <trkpt lat="38.0981210" lon="-3.9120660">
        <ele>307.6</ele>
        <time>2018-04-28T08:25:26Z</time>
      </trkpt>
      <trkpt lat="38.0979540" lon="-3.9118040">
        <ele>308.0</ele>
        <time>2018-04-28T08:25:54Z</time>
      </trkpt>
      <trkpt lat="38.0979330" lon="-3.9117700">
        <ele>308.2</ele>
        <time>2018-04-28T08:25:55Z</time>
      </trkpt>
      <trkpt lat="38.0979080" lon="-3.9117300">
        <ele>308.2</ele>
        <time>2018-04-28T08:25:56Z</time>
      </trkpt>
      <trkpt lat="38.0978880" lon="-3.9116840">
        <ele>308.2</ele>
        <time>2018-04-28T08:25:57Z</time>
      </trkpt>
      <trkpt lat="38.0978700" lon="-3.9116400">
        <ele>308.4</ele>
        <time>2018-04-28T08:25:58Z</time>
      </trkpt>
      <trkpt lat="38.0978530" lon="-3.9115960">
        <ele>308.6</ele>
        <time>2018-04-28T08:25:59Z</time>
      </trkpt>
      <trkpt lat="38.0978370" lon="-3.9115510">
        <ele>308.6</ele>
        <time>2018-04-28T08:26:00Z</time>
      </trkpt>
      <trkpt lat="38.0978200" lon="-3.9115050">
        <ele>308.8</ele>
        <time>2018-04-28T08:26:01Z</time>
      </trkpt>
      <trkpt lat="38.0978070" lon="-3.9114580">
        <ele>309.0</ele>
        <time>2018-04-28T08:26:02Z</time>
      </trkpt>
      <trkpt lat="38.0977940" lon="-3.9114110">
        <ele>309.0</ele>
        <time>2018-04-28T08:26:03Z</time>
      </trkpt>
      <trkpt lat="38.0977780" lon="-3.9113670">
        <ele>309.2</ele>
        <time>2018-04-28T08:26:04Z</time>
      </trkpt>
      <trkpt lat="38.0977590" lon="-3.9113210">
        <ele>309.4</ele>
        <time>2018-04-28T08:26:05Z</time>
      </trkpt>
      <trkpt lat="38.0977340" lon="-3.9112830">
        <ele>309.6</ele>
        <time>2018-04-28T08:26:06Z</time>
      </trkpt>
      <trkpt lat="38.0977090" lon="-3.9112420">
        <ele>309.6</ele>
        <time>2018-04-28T08:26:07Z</time>
      </trkpt>
      <trkpt lat="38.0976860" lon="-3.9111990">
        <ele>309.8</ele>
        <time>2018-04-28T08:26:08Z</time>
      </trkpt>
      <trkpt lat="38.0976640" lon="-3.9111550">
        <ele>310.0</ele>
        <time>2018-04-28T08:26:09Z</time>
      </trkpt>
      <trkpt lat="38.0976450" lon="-3.9111130">
        <ele>310.2</ele>
        <time>2018-04-28T08:26:10Z</time>
      </trkpt>
      <trkpt lat="38.0976240" lon="-3.9110720">
        <ele>310.2</ele>
        <time>2018-04-28T08:26:11Z</time>
      </trkpt>
      <trkpt lat="38.0975990" lon="-3.9110300">
        <ele>310.4</ele>
        <time>2018-04-28T08:26:12Z</time>
      </trkpt>
      <trkpt lat="38.0975720" lon="-3.9109880">
        <ele>310.4</ele>
        <time>2018-04-28T08:26:13Z</time>
      </trkpt>
      <trkpt lat="38.0975490" lon="-3.9109460">
        <ele>310.6</ele>
        <time>2018-04-28T08:26:14Z</time>
      </trkpt>
      <trkpt lat="38.0975210" lon="-3.9109030">
        <ele>310.6</ele>
        <time>2018-04-28T08:26:15Z</time>
      </trkpt>
      <trkpt lat="38.0975030" lon="-3.9108580">
        <ele>310.6</ele>
        <time>2018-04-28T08:26:16Z</time>
      </trkpt>
      <trkpt lat="38.0974900" lon="-3.9108220">
        <ele>310.6</ele>
        <time>2018-04-28T08:26:17Z</time>
      </trkpt>
      <trkpt lat="38.0974740" lon="-3.9107760">
        <ele>310.6</ele>
        <time>2018-04-28T08:26:18Z</time>
      </trkpt>
      <trkpt lat="38.0974550" lon="-3.9107270">
        <ele>310.8</ele>
        <time>2018-04-28T08:26:19Z</time>
      </trkpt>
      <trkpt lat="38.0974420" lon="-3.9106800">
        <ele>311.0</ele>
        <time>2018-04-28T08:26:20Z</time>
      </trkpt>
      <trkpt lat="38.0974270" lon="-3.9106290">
        <ele>311.2</ele>
        <time>2018-04-28T08:26:21Z</time>
      </trkpt>
      <trkpt lat="38.0974130" lon="-3.9105760">
        <ele>311.2</ele>
        <time>2018-04-28T08:26:22Z</time>
      </trkpt>
      <trkpt lat="38.0974030" lon="-3.9105280">
        <ele>311.4</ele>
        <time>2018-04-28T08:26:23Z</time>
      </trkpt>
      <trkpt lat="38.0973980" lon="-3.9104780">
        <ele>311.6</ele>
        <time>2018-04-28T08:26:24Z</time>
      </trkpt>
      <trkpt lat="38.0973830" lon="-3.9104310">
        <ele>311.8</ele>
        <time>2018-04-28T08:26:25Z</time>
      </trkpt>
      <trkpt lat="38.0973670" lon="-3.9103830">
        <ele>312.0</ele>
        <time>2018-04-28T08:26:26Z</time>
      </trkpt>
      <trkpt lat="38.0973560" lon="-3.9103360">
        <ele>312.4</ele>
        <time>2018-04-28T08:26:27Z</time>
      </trkpt>
      <trkpt lat="38.0973340" lon="-3.9102930">
        <ele>312.6</ele>
        <time>2018-04-28T08:26:28Z</time>
      </trkpt>
      <trkpt lat="38.0973100" lon="-3.9102480">
        <ele>312.6</ele>
        <time>2018-04-28T08:26:29Z</time>
      </trkpt>
      <trkpt lat="38.0972840" lon="-3.9102080">
        <ele>313.0</ele>
        <time>2018-04-28T08:26:30Z</time>
      </trkpt>
      <trkpt lat="38.0972550" lon="-3.9101680">
        <ele>313.0</ele>
        <time>2018-04-28T08:26:31Z</time>
      </trkpt>
      <trkpt lat="38.0972260" lon="-3.9101330">
        <ele>313.0</ele>
        <time>2018-04-28T08:26:32Z</time>
      </trkpt>
      <trkpt lat="38.0972000" lon="-3.9101000">
        <ele>313.0</ele>
        <time>2018-04-28T08:26:33Z</time>
      </trkpt>
      <trkpt lat="38.0971740" lon="-3.9100620">
        <ele>313.0</ele>
        <time>2018-04-28T08:26:34Z</time>
      </trkpt>
      <trkpt lat="38.0971490" lon="-3.9100190">
        <ele>313.2</ele>
        <time>2018-04-28T08:26:35Z</time>
      </trkpt>
      <trkpt lat="38.0971220" lon="-3.9099740">
        <ele>313.4</ele>
        <time>2018-04-28T08:26:36Z</time>
      </trkpt>
      <trkpt lat="38.0970990" lon="-3.9099320">
        <ele>313.4</ele>
        <time>2018-04-28T08:26:37Z</time>
      </trkpt>
      <trkpt lat="38.0970820" lon="-3.9098910">
        <ele>313.6</ele>
        <time>2018-04-28T08:26:38Z</time>
      </trkpt>
      <trkpt lat="38.0970600" lon="-3.9098460">
        <ele>313.8</ele>
        <time>2018-04-28T08:26:39Z</time>
      </trkpt>
      <trkpt lat="38.0970360" lon="-3.9098020">
        <ele>314.0</ele>
        <time>2018-04-28T08:26:40Z</time>
      </trkpt>
      <trkpt lat="38.0970100" lon="-3.9097600">
        <ele>314.2</ele>
        <time>2018-04-28T08:26:41Z</time>
      </trkpt>
      <trkpt lat="38.0969830" lon="-3.9097180">
        <ele>314.4</ele>
        <time>2018-04-28T08:26:42Z</time>
      </trkpt>
      <trkpt lat="38.0969610" lon="-3.9096730">
        <ele>314.4</ele>
        <time>2018-04-28T08:26:43Z</time>
      </trkpt>
      <trkpt lat="38.0969440" lon="-3.9096270">
        <ele>314.6</ele>
        <time>2018-04-28T08:26:44Z</time>
      </trkpt>
      <trkpt lat="38.0969300" lon="-3.9095770">
        <ele>314.8</ele>
        <time>2018-04-28T08:26:45Z</time>
      </trkpt>
      <trkpt lat="38.0969200" lon="-3.9095270">
        <ele>315.0</ele>
        <time>2018-04-28T08:26:46Z</time>
      </trkpt>
      <trkpt lat="38.0969040" lon="-3.9094810">
        <ele>315.0</ele>
        <time>2018-04-28T08:26:47Z</time>
      </trkpt>
      <trkpt lat="38.0968900" lon="-3.9094330">
        <ele>315.0</ele>
        <time>2018-04-28T08:26:48Z</time>
      </trkpt>
      <trkpt lat="38.0968750" lon="-3.9093800">
        <ele>315.2</ele>
        <time>2018-04-28T08:26:49Z</time>
      </trkpt>
      <trkpt lat="38.0968590" lon="-3.9093280">
        <ele>315.2</ele>
        <time>2018-04-28T08:26:50Z</time>
      </trkpt>
      <trkpt lat="38.0968430" lon="-3.9092770">
        <ele>315.2</ele>
        <time>2018-04-28T08:26:51Z</time>
      </trkpt>
      <trkpt lat="38.0968280" lon="-3.9092240">
        <ele>315.2</ele>
        <time>2018-04-28T08:26:52Z</time>
      </trkpt>
      <trkpt lat="38.0968140" lon="-3.9091720">
        <ele>315.2</ele>
        <time>2018-04-28T08:26:53Z</time>
      </trkpt>
      <trkpt lat="38.0968020" lon="-3.9091200">
        <ele>315.2</ele>
        <time>2018-04-28T08:26:54Z</time>
      </trkpt>
      <trkpt lat="38.0967920" lon="-3.9090670">
        <ele>315.2</ele>
        <time>2018-04-28T08:26:55Z</time>
      </trkpt>
      <trkpt lat="38.0967820" lon="-3.9090130">
        <ele>315.4</ele>
        <time>2018-04-28T08:26:56Z</time>
      </trkpt>
      <trkpt lat="38.0967730" lon="-3.9089610">
        <ele>315.2</ele>
        <time>2018-04-28T08:26:57Z</time>
      </trkpt>
      <trkpt lat="38.0967680" lon="-3.9089040">
        <ele>315.4</ele>
        <time>2018-04-28T08:26:58Z</time>
      </trkpt>
      <trkpt lat="38.0967590" lon="-3.9088500">
        <ele>315.4</ele>
        <time>2018-04-28T08:26:59Z</time>
      </trkpt>
      <trkpt lat="38.0967460" lon="-3.9087960">
        <ele>315.2</ele>
        <time>2018-04-28T08:27:00Z</time>
      </trkpt>
      <trkpt lat="38.0967370" lon="-3.9087410">
        <ele>315.2</ele>
        <time>2018-04-28T08:27:01Z</time>
      </trkpt>
      <trkpt lat="38.0967230" lon="-3.9086820">
        <ele>315.2</ele>
        <time>2018-04-28T08:27:02Z</time>
      </trkpt>
      <trkpt lat="38.0967070" lon="-3.9086250">
        <ele>315.2</ele>
        <time>2018-04-28T08:27:03Z</time>
      </trkpt>
      <trkpt lat="38.0966890" lon="-3.9085710">
        <ele>315.2</ele>
        <time>2018-04-28T08:27:04Z</time>
      </trkpt>
      <trkpt lat="38.0966700" lon="-3.9085120">
        <ele>315.0</ele>
        <time>2018-04-28T08:27:05Z</time>
      </trkpt>
      <trkpt lat="38.0966590" lon="-3.9084520">
        <ele>315.0</ele>
        <time>2018-04-28T08:27:06Z</time>
      </trkpt>
      <trkpt lat="38.0966480" lon="-3.9083890">
        <ele>315.0</ele>
        <time>2018-04-28T08:27:07Z</time>
      </trkpt>
      <trkpt lat="38.0966400" lon="-3.9083260">
        <ele>315.0</ele>
        <time>2018-04-28T08:27:08Z</time>
      </trkpt>
      <trkpt lat="38.0966300" lon="-3.9082610">
        <ele>315.2</ele>
        <time>2018-04-28T08:27:09Z</time>
      </trkpt>
      <trkpt lat="38.0966230" lon="-3.9081970">
        <ele>315.0</ele>
        <time>2018-04-28T08:27:10Z</time>
      </trkpt>
      <trkpt lat="38.0966210" lon="-3.9081330">
        <ele>315.2</ele>
        <time>2018-04-28T08:27:11Z</time>
      </trkpt>
      <trkpt lat="38.0966190" lon="-3.9080700">
        <ele>315.2</ele>
        <time>2018-04-28T08:27:12Z</time>
      </trkpt>
      <trkpt lat="38.0966190" lon="-3.9080070">
        <ele>315.2</ele>
        <time>2018-04-28T08:27:13Z</time>
      </trkpt>
      <trkpt lat="38.0966170" lon="-3.9079420">
        <ele>315.2</ele>
        <time>2018-04-28T08:27:14Z</time>
      </trkpt>
      <trkpt lat="38.0966160" lon="-3.9078790">
        <ele>315.2</ele>
        <time>2018-04-28T08:27:15Z</time>
      </trkpt>
      <trkpt lat="38.0966090" lon="-3.9078160">
        <ele>315.4</ele>
        <time>2018-04-28T08:27:16Z</time>
      </trkpt>
      <trkpt lat="38.0966030" lon="-3.9077530">
        <ele>315.4</ele>
        <time>2018-04-28T08:27:17Z</time>
      </trkpt>
      <trkpt lat="38.0965990" lon="-3.9076870">
        <ele>315.6</ele>
        <time>2018-04-28T08:27:18Z</time>
      </trkpt>
      <trkpt lat="38.0965980" lon="-3.9076320">
        <ele>315.6</ele>
        <time>2018-04-28T08:27:19Z</time>
      </trkpt>
      <trkpt lat="38.0965970" lon="-3.9075750">
        <ele>315.6</ele>
        <time>2018-04-28T08:27:20Z</time>
      </trkpt>
      <trkpt lat="38.0965990" lon="-3.9075120">
        <ele>315.8</ele>
        <time>2018-04-28T08:27:21Z</time>
      </trkpt>
      <trkpt lat="38.0966020" lon="-3.9074500">
        <ele>315.8</ele>
        <time>2018-04-28T08:27:22Z</time>
      </trkpt>
      <trkpt lat="38.0966010" lon="-3.9073860">
        <ele>315.8</ele>
        <time>2018-04-28T08:27:23Z</time>
      </trkpt>
      <trkpt lat="38.0966010" lon="-3.9073220">
        <ele>316.0</ele>
        <time>2018-04-28T08:27:24Z</time>
      </trkpt>
      <trkpt lat="38.0965960" lon="-3.9072640">
        <ele>316.2</ele>
        <time>2018-04-28T08:27:25Z</time>
      </trkpt>
      <trkpt lat="38.0965900" lon="-3.9072080">
        <ele>316.4</ele>
        <time>2018-04-28T08:27:26Z</time>
      </trkpt>
      <trkpt lat="38.0965850" lon="-3.9071570">
        <ele>316.6</ele>
        <time>2018-04-28T08:27:27Z</time>
      </trkpt>
      <trkpt lat="38.0965820" lon="-3.9071050">
        <ele>316.8</ele>
        <time>2018-04-28T08:27:28Z</time>
      </trkpt>
      <trkpt lat="38.0965810" lon="-3.9070510">
        <ele>317.0</ele>
        <time>2018-04-28T08:27:29Z</time>
      </trkpt>
      <trkpt lat="38.0965800" lon="-3.9069980">
        <ele>317.2</ele>
        <time>2018-04-28T08:27:30Z</time>
      </trkpt>
      <trkpt lat="38.0965790" lon="-3.9069440">
        <ele>317.4</ele>
        <time>2018-04-28T08:27:31Z</time>
      </trkpt>
      <trkpt lat="38.0965750" lon="-3.9068880">
        <ele>317.4</ele>
        <time>2018-04-28T08:27:32Z</time>
      </trkpt>
      <trkpt lat="38.0965690" lon="-3.9068310">
        <ele>317.0</ele>
        <time>2018-04-28T08:27:33Z</time>
      </trkpt>
      <trkpt lat="38.0965570" lon="-3.9067710">
        <ele>317.2</ele>
        <time>2018-04-28T08:27:34Z</time>
      </trkpt>
      <trkpt lat="38.0965440" lon="-3.9067080">
        <ele>317.0</ele>
        <time>2018-04-28T08:27:35Z</time>
      </trkpt>
      <trkpt lat="38.0965330" lon="-3.9066490">
        <ele>317.2</ele>
        <time>2018-04-28T08:27:36Z</time>
      </trkpt>
      <trkpt lat="38.0965240" lon="-3.9065880">
        <ele>317.2</ele>
        <time>2018-04-28T08:27:37Z</time>
      </trkpt>
      <trkpt lat="38.0965170" lon="-3.9065310">
        <ele>317.2</ele>
        <time>2018-04-28T08:27:38Z</time>
      </trkpt>
      <trkpt lat="38.0965140" lon="-3.9064720">
        <ele>317.4</ele>
        <time>2018-04-28T08:27:39Z</time>
      </trkpt>
      <trkpt lat="38.0965120" lon="-3.9064130">
        <ele>317.4</ele>
        <time>2018-04-28T08:27:40Z</time>
      </trkpt>
      <trkpt lat="38.0965100" lon="-3.9063560">
        <ele>317.6</ele>
        <time>2018-04-28T08:27:41Z</time>
      </trkpt>
      <trkpt lat="38.0965060" lon="-3.9063020">
        <ele>317.6</ele>
        <time>2018-04-28T08:27:42Z</time>
      </trkpt>
      <trkpt lat="38.0965020" lon="-3.9062480">
        <ele>317.8</ele>
        <time>2018-04-28T08:27:43Z</time>
      </trkpt>
      <trkpt lat="38.0964920" lon="-3.9061970">
        <ele>317.8</ele>
        <time>2018-04-28T08:27:44Z</time>
      </trkpt>
      <trkpt lat="38.0964790" lon="-3.9061480">
        <ele>318.0</ele>
        <time>2018-04-28T08:27:45Z</time>
      </trkpt>
      <trkpt lat="38.0964640" lon="-3.9060970">
        <ele>318.2</ele>
        <time>2018-04-28T08:27:46Z</time>
      </trkpt>
      <trkpt lat="38.0964480" lon="-3.9060500">
        <ele>318.2</ele>
        <time>2018-04-28T08:27:47Z</time>
      </trkpt>
      <trkpt lat="38.0964300" lon="-3.9060050">
        <ele>318.4</ele>
        <time>2018-04-28T08:27:48Z</time>
      </trkpt>
      <trkpt lat="38.0964110" lon="-3.9059640">
        <ele>318.8</ele>
        <time>2018-04-28T08:27:49Z</time>
      </trkpt>
      <trkpt lat="38.0963950" lon="-3.9059230">
        <ele>319.0</ele>
        <time>2018-04-28T08:27:50Z</time>
      </trkpt>
      <trkpt lat="38.0963800" lon="-3.9058830">
        <ele>319.4</ele>
        <time>2018-04-28T08:27:51Z</time>
      </trkpt>
      <trkpt lat="38.0963660" lon="-3.9058450">
        <ele>319.6</ele>
        <time>2018-04-28T08:27:52Z</time>
      </trkpt>
      <trkpt lat="38.0963540" lon="-3.9058110">
        <ele>319.6</ele>
        <time>2018-04-28T08:27:53Z</time>
      </trkpt>
      <trkpt lat="38.0963440" lon="-3.9057720">
        <ele>320.0</ele>
        <time>2018-04-28T08:27:54Z</time>
      </trkpt>
      <trkpt lat="38.0963330" lon="-3.9057330">
        <ele>320.2</ele>
        <time>2018-04-28T08:27:55Z</time>
      </trkpt>
      <trkpt lat="38.0963240" lon="-3.9056920">
        <ele>320.4</ele>
        <time>2018-04-28T08:27:56Z</time>
      </trkpt>
      <trkpt lat="38.0963160" lon="-3.9056510">
        <ele>320.6</ele>
        <time>2018-04-28T08:27:57Z</time>
      </trkpt>
      <trkpt lat="38.0963100" lon="-3.9056080">
        <ele>321.0</ele>
        <time>2018-04-28T08:27:58Z</time>
      </trkpt>
      <trkpt lat="38.0963070" lon="-3.9055650">
        <ele>321.2</ele>
        <time>2018-04-28T08:27:59Z</time>
      </trkpt>
      <trkpt lat="38.0963070" lon="-3.9055240">
        <ele>321.6</ele>
        <time>2018-04-28T08:28:00Z</time>
      </trkpt>
      <trkpt lat="38.0963070" lon="-3.9054810">
        <ele>321.8</ele>
        <time>2018-04-28T08:28:01Z</time>
      </trkpt>
      <trkpt lat="38.0963100" lon="-3.9054380">
        <ele>322.0</ele>
        <time>2018-04-28T08:28:02Z</time>
      </trkpt>
      <trkpt lat="38.0963150" lon="-3.9053980">
        <ele>322.2</ele>
        <time>2018-04-28T08:28:03Z</time>
      </trkpt>
      <trkpt lat="38.0963180" lon="-3.9053560">
        <ele>322.4</ele>
        <time>2018-04-28T08:28:04Z</time>
      </trkpt>
      <trkpt lat="38.0963260" lon="-3.9053110">
        <ele>322.8</ele>
        <time>2018-04-28T08:28:05Z</time>
      </trkpt>
      <trkpt lat="38.0963340" lon="-3.9052670">
        <ele>323.0</ele>
        <time>2018-04-28T08:28:06Z</time>
      </trkpt>
      <trkpt lat="38.0963430" lon="-3.9052270">
        <ele>323.2</ele>
        <time>2018-04-28T08:28:07Z</time>
      </trkpt>
      <trkpt lat="38.0963520" lon="-3.9051850">
        <ele>323.4</ele>
        <time>2018-04-28T08:28:08Z</time>
      </trkpt>
      <trkpt lat="38.0963610" lon="-3.9051440">
        <ele>323.6</ele>
        <time>2018-04-28T08:28:09Z</time>
      </trkpt>
      <trkpt lat="38.0963700" lon="-3.9051000">
        <ele>323.8</ele>
        <time>2018-04-28T08:28:10Z</time>
      </trkpt>
      <trkpt lat="38.0963780" lon="-3.9050560">
        <ele>324.0</ele>
        <time>2018-04-28T08:28:11Z</time>
      </trkpt>
      <trkpt lat="38.0963840" lon="-3.9050100">
        <ele>324.2</ele>
        <time>2018-04-28T08:28:12Z</time>
      </trkpt>
      <trkpt lat="38.0963840" lon="-3.9049650">
        <ele>324.2</ele>
        <time>2018-04-28T08:28:13Z</time>
      </trkpt>
      <trkpt lat="38.0963850" lon="-3.9049180">
        <ele>324.4</ele>
        <time>2018-04-28T08:28:14Z</time>
      </trkpt>
      <trkpt lat="38.0963830" lon="-3.9048720">
        <ele>324.4</ele>
        <time>2018-04-28T08:28:15Z</time>
      </trkpt>
      <trkpt lat="38.0963820" lon="-3.9048270">
        <ele>324.6</ele>
        <time>2018-04-28T08:28:16Z</time>
      </trkpt>
      <trkpt lat="38.0963800" lon="-3.9047800">
        <ele>324.6</ele>
        <time>2018-04-28T08:28:17Z</time>
      </trkpt>
      <trkpt lat="38.0963780" lon="-3.9047320">
        <ele>324.8</ele>
        <time>2018-04-28T08:28:18Z</time>
      </trkpt>
      <trkpt lat="38.0963750" lon="-3.9046910">
        <ele>325.0</ele>
        <time>2018-04-28T08:28:19Z</time>
      </trkpt>
      <trkpt lat="38.0963710" lon="-3.9046450">
        <ele>325.0</ele>
        <time>2018-04-28T08:28:20Z</time>
      </trkpt>
      <trkpt lat="38.0963690" lon="-3.9045960">
        <ele>325.0</ele>
        <time>2018-04-28T08:28:21Z</time>
      </trkpt>
      <trkpt lat="38.0963690" lon="-3.9045480">
        <ele>325.2</ele>
        <time>2018-04-28T08:28:22Z</time>
      </trkpt>
      <trkpt lat="38.0963760" lon="-3.9044970">
        <ele>325.4</ele>
        <time>2018-04-28T08:28:23Z</time>
      </trkpt>
      <trkpt lat="38.0963810" lon="-3.9044480">
        <ele>325.6</ele>
        <time>2018-04-28T08:28:24Z</time>
      </trkpt>
      <trkpt lat="38.0963770" lon="-3.9044010">
        <ele>325.6</ele>
        <time>2018-04-28T08:28:25Z</time>
      </trkpt>
      <trkpt lat="38.0963680" lon="-3.9043540">
        <ele>325.4</ele>
        <time>2018-04-28T08:28:26Z</time>
      </trkpt>
      <trkpt lat="38.0963610" lon="-3.9043000">
        <ele>325.4</ele>
        <time>2018-04-28T08:28:27Z</time>
      </trkpt>
      <trkpt lat="38.0963590" lon="-3.9042460">
        <ele>325.0</ele>
        <time>2018-04-28T08:28:28Z</time>
      </trkpt>
      <trkpt lat="38.0963580" lon="-3.9041870">
        <ele>324.8</ele>
        <time>2018-04-28T08:28:29Z</time>
      </trkpt>
      <trkpt lat="38.0963540" lon="-3.9041240">
        <ele>324.8</ele>
        <time>2018-04-28T08:28:30Z</time>
      </trkpt>
      <trkpt lat="38.0963460" lon="-3.9040580">
        <ele>324.6</ele>
        <time>2018-04-28T08:28:31Z</time>
      </trkpt>
      <trkpt lat="38.0963310" lon="-3.9039960">
        <ele>324.4</ele>
        <time>2018-04-28T08:28:32Z</time>
      </trkpt>
      <trkpt lat="38.0963110" lon="-3.9039350">
        <ele>324.4</ele>
        <time>2018-04-28T08:28:33Z</time>
      </trkpt>
      <trkpt lat="38.0962940" lon="-3.9038700">
        <ele>324.2</ele>
        <time>2018-04-28T08:28:34Z</time>
      </trkpt>
      <trkpt lat="38.0962790" lon="-3.9038010">
        <ele>324.0</ele>
        <time>2018-04-28T08:28:35Z</time>
      </trkpt>
      <trkpt lat="38.0962700" lon="-3.9037310">
        <ele>323.8</ele>
        <time>2018-04-28T08:28:36Z</time>
      </trkpt>
      <trkpt lat="38.0962600" lon="-3.9036560">
        <ele>323.8</ele>
        <time>2018-04-28T08:28:37Z</time>
      </trkpt>
      <trkpt lat="38.0962440" lon="-3.9035850">
        <ele>323.8</ele>
        <time>2018-04-28T08:28:38Z</time>
      </trkpt>
      <trkpt lat="38.0962210" lon="-3.9035110">
        <ele>323.6</ele>
        <time>2018-04-28T08:28:39Z</time>
      </trkpt>
      <trkpt lat="38.0962050" lon="-3.9034400">
        <ele>323.2</ele>
        <time>2018-04-28T08:28:40Z</time>
      </trkpt>
      <trkpt lat="38.0961890" lon="-3.9033660">
        <ele>323.0</ele>
        <time>2018-04-28T08:28:41Z</time>
      </trkpt>
      <trkpt lat="38.0961670" lon="-3.9032930">
        <ele>323.0</ele>
        <time>2018-04-28T08:28:42Z</time>
      </trkpt>
      <trkpt lat="38.0961490" lon="-3.9032180">
        <ele>322.8</ele>
        <time>2018-04-28T08:28:43Z</time>
      </trkpt>
      <trkpt lat="38.0961420" lon="-3.9031440">
        <ele>322.8</ele>
        <time>2018-04-28T08:28:44Z</time>
      </trkpt>
      <trkpt lat="38.0961440" lon="-3.9030630">
        <ele>322.4</ele>
        <time>2018-04-28T08:28:45Z</time>
      </trkpt>
      <trkpt lat="38.0961630" lon="-3.9029870">
        <ele>322.6</ele>
        <time>2018-04-28T08:28:46Z</time>
      </trkpt>
      <trkpt lat="38.0961920" lon="-3.9029110">
        <ele>322.6</ele>
        <time>2018-04-28T08:28:47Z</time>
      </trkpt>
      <trkpt lat="38.0962170" lon="-3.9028350">
        <ele>322.6</ele>
        <time>2018-04-28T08:28:48Z</time>
      </trkpt>
      <trkpt lat="38.0962370" lon="-3.9027600">
        <ele>322.8</ele>
        <time>2018-04-28T08:28:49Z</time>
      </trkpt>
      <trkpt lat="38.0962660" lon="-3.9026940">
        <ele>323.0</ele>
        <time>2018-04-28T08:28:50Z</time>
      </trkpt>
      <trkpt lat="38.0962960" lon="-3.9026300">
        <ele>323.0</ele>
        <time>2018-04-28T08:28:51Z</time>
      </trkpt>
      <trkpt lat="38.0963250" lon="-3.9025660">
        <ele>323.2</ele>
        <time>2018-04-28T08:28:52Z</time>
      </trkpt>
      <trkpt lat="38.0963520" lon="-3.9025010">
        <ele>323.2</ele>
        <time>2018-04-28T08:28:53Z</time>
      </trkpt>
      <trkpt lat="38.0963790" lon="-3.9024370">
        <ele>323.4</ele>
        <time>2018-04-28T08:28:54Z</time>
      </trkpt>
      <trkpt lat="38.0964090" lon="-3.9023750">
        <ele>323.2</ele>
        <time>2018-04-28T08:28:55Z</time>
      </trkpt>
      <trkpt lat="38.0964400" lon="-3.9023130">
        <ele>323.4</ele>
        <time>2018-04-28T08:28:56Z</time>
      </trkpt>
      <trkpt lat="38.0964650" lon="-3.9022480">
        <ele>323.4</ele>
        <time>2018-04-28T08:28:57Z</time>
      </trkpt>
      <trkpt lat="38.0964780" lon="-3.9021770">
        <ele>323.4</ele>
        <time>2018-04-28T08:28:58Z</time>
      </trkpt>
      <trkpt lat="38.0964750" lon="-3.9021040">
        <ele>323.4</ele>
        <time>2018-04-28T08:28:59Z</time>
      </trkpt>
      <trkpt lat="38.0964600" lon="-3.9020280">
        <ele>323.0</ele>
        <time>2018-04-28T08:29:00Z</time>
      </trkpt>
      <trkpt lat="38.0964370" lon="-3.9019560">
        <ele>323.4</ele>
        <time>2018-04-28T08:29:01Z</time>
      </trkpt>
      <trkpt lat="38.0964060" lon="-3.9018940">
        <ele>323.8</ele>
        <time>2018-04-28T08:29:02Z</time>
      </trkpt>
      <trkpt lat="38.0963710" lon="-3.9018500">
        <ele>324.2</ele>
        <time>2018-04-28T08:29:03Z</time>
      </trkpt>
      <trkpt lat="38.0963350" lon="-3.9018160">
        <ele>324.6</ele>
        <time>2018-04-28T08:29:04Z</time>
      </trkpt>
      <trkpt lat="38.0963020" lon="-3.9017870">
        <ele>324.8</ele>
        <time>2018-04-28T08:29:05Z</time>
      </trkpt>
      <trkpt lat="38.0962720" lon="-3.9017600">
        <ele>325.2</ele>
        <time>2018-04-28T08:29:06Z</time>
      </trkpt>
      <trkpt lat="38.0962490" lon="-3.9017260">
        <ele>325.4</ele>
        <time>2018-04-28T08:29:07Z</time>
      </trkpt>
      <trkpt lat="38.0962210" lon="-3.9016950">
        <ele>325.8</ele>
        <time>2018-04-28T08:29:08Z</time>
      </trkpt>
      <trkpt lat="38.0961910" lon="-3.9016710">
        <ele>326.2</ele>
        <time>2018-04-28T08:29:09Z</time>
      </trkpt>
      <trkpt lat="38.0961580" lon="-3.9016500">
        <ele>326.6</ele>
        <time>2018-04-28T08:29:10Z</time>
      </trkpt>
      <trkpt lat="38.0961270" lon="-3.9016290">
        <ele>327.0</ele>
        <time>2018-04-28T08:29:11Z</time>
      </trkpt>
      <trkpt lat="38.0961000" lon="-3.9016050">
        <ele>327.4</ele>
        <time>2018-04-28T08:29:12Z</time>
      </trkpt>
      <trkpt lat="38.0960730" lon="-3.9015800">
        <ele>327.6</ele>
        <time>2018-04-28T08:29:13Z</time>
      </trkpt>
      <trkpt lat="38.0960630" lon="-3.9015490">
        <ele>327.8</ele>
        <time>2018-04-28T08:29:14Z</time>
      </trkpt>
      <trkpt lat="38.0960480" lon="-3.9015130">
        <ele>328.2</ele>
        <time>2018-04-28T08:29:15Z</time>
      </trkpt>
      <trkpt lat="38.0960330" lon="-3.9014790">
        <ele>328.4</ele>
        <time>2018-04-28T08:29:16Z</time>
      </trkpt>
      <trkpt lat="38.0960250" lon="-3.9014470">
        <ele>328.6</ele>
        <time>2018-04-28T08:29:17Z</time>
      </trkpt>
      <trkpt lat="38.0960170" lon="-3.9014110">
        <ele>328.8</ele>
        <time>2018-04-28T08:29:18Z</time>
      </trkpt>
      <trkpt lat="38.0960080" lon="-3.9013710">
        <ele>329.0</ele>
        <time>2018-04-28T08:29:19Z</time>
      </trkpt>
      <trkpt lat="38.0959980" lon="-3.9013320">
        <ele>329.2</ele>
        <time>2018-04-28T08:29:20Z</time>
      </trkpt>
      <trkpt lat="38.0959920" lon="-3.9012910">
        <ele>329.2</ele>
        <time>2018-04-28T08:29:21Z</time>
      </trkpt>
      <trkpt lat="38.0959940" lon="-3.9012580">
        <ele>329.2</ele>
        <time>2018-04-28T08:29:22Z</time>
      </trkpt>
      <trkpt lat="38.0959840" lon="-3.9012210">
        <ele>329.4</ele>
        <time>2018-04-28T08:29:23Z</time>
      </trkpt>
      <trkpt lat="38.0959810" lon="-3.9011860">
        <ele>329.4</ele>
        <time>2018-04-28T08:29:24Z</time>
      </trkpt>
      <trkpt lat="38.0959780" lon="-3.9011480">
        <ele>329.6</ele>
        <time>2018-04-28T08:29:25Z</time>
      </trkpt>
      <trkpt lat="38.0959700" lon="-3.9011060">
        <ele>329.6</ele>
        <time>2018-04-28T08:29:26Z</time>
      </trkpt>
      <trkpt lat="38.0959640" lon="-3.9010650">
        <ele>329.8</ele>
        <time>2018-04-28T08:29:27Z</time>
      </trkpt>
      <trkpt lat="38.0959560" lon="-3.9010190">
        <ele>329.8</ele>
        <time>2018-04-28T08:29:28Z</time>
      </trkpt>
      <trkpt lat="38.0959490" lon="-3.9009790">
        <ele>329.8</ele>
        <time>2018-04-28T08:29:29Z</time>
      </trkpt>
      <trkpt lat="38.0959420" lon="-3.9009360">
        <ele>329.8</ele>
        <time>2018-04-28T08:29:30Z</time>
      </trkpt>
      <trkpt lat="38.0959280" lon="-3.9008920">
        <ele>329.8</ele>
        <time>2018-04-28T08:29:31Z</time>
      </trkpt>
      <trkpt lat="38.0959140" lon="-3.9008510">
        <ele>329.8</ele>
        <time>2018-04-28T08:29:32Z</time>
      </trkpt>
      <trkpt lat="38.0959030" lon="-3.9008040">
        <ele>329.4</ele>
        <time>2018-04-28T08:29:33Z</time>
      </trkpt>
      <trkpt lat="38.0959030" lon="-3.9007620">
        <ele>329.4</ele>
        <time>2018-04-28T08:29:34Z</time>
      </trkpt>
      <trkpt lat="38.0958940" lon="-3.9007180">
        <ele>329.8</ele>
        <time>2018-04-28T08:29:35Z</time>
      </trkpt>
      <trkpt lat="38.0958820" lon="-3.9006680">
        <ele>329.8</ele>
        <time>2018-04-28T08:29:36Z</time>
      </trkpt>
      <trkpt lat="38.0958670" lon="-3.9006160">
        <ele>329.8</ele>
        <time>2018-04-28T08:29:37Z</time>
      </trkpt>
      <trkpt lat="38.0958260" lon="-3.9005660">
        <ele>330.0</ele>
        <time>2018-04-28T08:29:38Z</time>
      </trkpt>
      <trkpt lat="38.0957940" lon="-3.9005170">
        <ele>330.0</ele>
        <time>2018-04-28T08:29:39Z</time>
      </trkpt>
      <trkpt lat="38.0957660" lon="-3.9004740">
        <ele>330.2</ele>
        <time>2018-04-28T08:29:40Z</time>
      </trkpt>
      <trkpt lat="38.0957320" lon="-3.9004380">
        <ele>330.4</ele>
        <time>2018-04-28T08:29:41Z</time>
      </trkpt>
      <trkpt lat="38.0956950" lon="-3.9004020">
        <ele>330.4</ele>
        <time>2018-04-28T08:29:42Z</time>
      </trkpt>
      <trkpt lat="38.0956610" lon="-3.9003650">
        <ele>330.6</ele>
        <time>2018-04-28T08:29:43Z</time>
      </trkpt>
      <trkpt lat="38.0956250" lon="-3.9003310">
        <ele>330.6</ele>
        <time>2018-04-28T08:29:44Z</time>
      </trkpt>
      <trkpt lat="38.0956020" lon="-3.9002890">
        <ele>330.8</ele>
        <time>2018-04-28T08:29:45Z</time>
      </trkpt>
      <trkpt lat="38.0955780" lon="-3.9002460">
        <ele>331.2</ele>
        <time>2018-04-28T08:29:46Z</time>
      </trkpt>
      <trkpt lat="38.0955570" lon="-3.9002000">
        <ele>331.4</ele>
        <time>2018-04-28T08:29:47Z</time>
      </trkpt>
      <trkpt lat="38.0955410" lon="-3.9001540">
        <ele>331.4</ele>
        <time>2018-04-28T08:29:48Z</time>
      </trkpt>
      <trkpt lat="38.0955260" lon="-3.9001060">
        <ele>331.6</ele>
        <time>2018-04-28T08:29:49Z</time>
      </trkpt>
      <trkpt lat="38.0955150" lon="-3.9000580">
        <ele>331.8</ele>
        <time>2018-04-28T08:29:50Z</time>
      </trkpt>
      <trkpt lat="38.0955070" lon="-3.9000080">
        <ele>332.0</ele>
        <time>2018-04-28T08:29:51Z</time>
      </trkpt>
      <trkpt lat="38.0954990" lon="-3.8999600">
        <ele>332.0</ele>
        <time>2018-04-28T08:29:52Z</time>
      </trkpt>
      <trkpt lat="38.0954950" lon="-3.8999100">
        <ele>332.2</ele>
        <time>2018-04-28T08:29:53Z</time>
      </trkpt>
      <trkpt lat="38.0954900" lon="-3.8998570">
        <ele>332.2</ele>
        <time>2018-04-28T08:29:54Z</time>
      </trkpt>
      <trkpt lat="38.0954720" lon="-3.8998060">
        <ele>332.2</ele>
        <time>2018-04-28T08:29:55Z</time>
      </trkpt>
      <trkpt lat="38.0954550" lon="-3.8997510">
        <ele>332.2</ele>
        <time>2018-04-28T08:29:56Z</time>
      </trkpt>
      <trkpt lat="38.0954470" lon="-3.8996970">
        <ele>332.0</ele>
        <time>2018-04-28T08:29:57Z</time>
      </trkpt>
      <trkpt lat="38.0954310" lon="-3.8996430">
        <ele>331.8</ele>
        <time>2018-04-28T08:29:58Z</time>
      </trkpt>
      <trkpt lat="38.0954170" lon="-3.8995800">
        <ele>331.6</ele>
        <time>2018-04-28T08:29:59Z</time>
      </trkpt>
      <trkpt lat="38.0954020" lon="-3.8995150">
        <ele>331.4</ele>
        <time>2018-04-28T08:30:00Z</time>
      </trkpt>
      <trkpt lat="38.0953890" lon="-3.8994470">
        <ele>331.2</ele>
        <time>2018-04-28T08:30:01Z</time>
      </trkpt>
      <trkpt lat="38.0953750" lon="-3.8993800">
        <ele>331.0</ele>
        <time>2018-04-28T08:30:02Z</time>
      </trkpt>
      <trkpt lat="38.0953640" lon="-3.8993100">
        <ele>330.8</ele>
        <time>2018-04-28T08:30:03Z</time>
      </trkpt>
      <trkpt lat="38.0953540" lon="-3.8992370">
        <ele>330.8</ele>
        <time>2018-04-28T08:30:04Z</time>
      </trkpt>
      <trkpt lat="38.0953440" lon="-3.8991600">
        <ele>330.6</ele>
        <time>2018-04-28T08:30:05Z</time>
      </trkpt>
      <trkpt lat="38.0953310" lon="-3.8990830">
        <ele>330.4</ele>
        <time>2018-04-28T08:30:06Z</time>
      </trkpt>
      <trkpt lat="38.0953200" lon="-3.8990100">
        <ele>330.4</ele>
        <time>2018-04-28T08:30:07Z</time>
      </trkpt>
      <trkpt lat="38.0953070" lon="-3.8989380">
        <ele>330.4</ele>
        <time>2018-04-28T08:30:08Z</time>
      </trkpt>
      <trkpt lat="38.0952960" lon="-3.8988650">
        <ele>330.4</ele>
        <time>2018-04-28T08:30:09Z</time>
      </trkpt>
      <trkpt lat="38.0952850" lon="-3.8987910">
        <ele>330.4</ele>
        <time>2018-04-28T08:30:10Z</time>
      </trkpt>
      <trkpt lat="38.0952710" lon="-3.8987180">
        <ele>330.6</ele>
        <time>2018-04-28T08:30:11Z</time>
      </trkpt>
      <trkpt lat="38.0952540" lon="-3.8986490">
        <ele>330.6</ele>
        <time>2018-04-28T08:30:12Z</time>
      </trkpt>
      <trkpt lat="38.0952370" lon="-3.8985750">
        <ele>330.6</ele>
        <time>2018-04-28T08:30:13Z</time>
      </trkpt>
      <trkpt lat="38.0952190" lon="-3.8985060">
        <ele>330.4</ele>
        <time>2018-04-28T08:30:14Z</time>
      </trkpt>
      <trkpt lat="38.0952000" lon="-3.8984390">
        <ele>330.2</ele>
        <time>2018-04-28T08:30:15Z</time>
      </trkpt>
      <trkpt lat="38.0951820" lon="-3.8983680">
        <ele>330.2</ele>
        <time>2018-04-28T08:30:16Z</time>
      </trkpt>
      <trkpt lat="38.0951640" lon="-3.8982940">
        <ele>330.0</ele>
        <time>2018-04-28T08:30:17Z</time>
      </trkpt>
      <trkpt lat="38.0951500" lon="-3.8982170">
        <ele>330.0</ele>
        <time>2018-04-28T08:30:18Z</time>
      </trkpt>
      <trkpt lat="38.0951390" lon="-3.8981360">
        <ele>329.8</ele>
        <time>2018-04-28T08:30:19Z</time>
      </trkpt>
      <trkpt lat="38.0951320" lon="-3.8980570">
        <ele>329.6</ele>
        <time>2018-04-28T08:30:20Z</time>
      </trkpt>
      <trkpt lat="38.0951280" lon="-3.8979770">
        <ele>329.4</ele>
        <time>2018-04-28T08:30:21Z</time>
      </trkpt>
      <trkpt lat="38.0951270" lon="-3.8978980">
        <ele>329.2</ele>
        <time>2018-04-28T08:30:22Z</time>
      </trkpt>
      <trkpt lat="38.0951330" lon="-3.8978240">
        <ele>329.0</ele>
        <time>2018-04-28T08:30:23Z</time>
      </trkpt>
      <trkpt lat="38.0951500" lon="-3.8977500">
        <ele>329.2</ele>
        <time>2018-04-28T08:30:24Z</time>
      </trkpt>
      <trkpt lat="38.0951710" lon="-3.8976810">
        <ele>329.2</ele>
        <time>2018-04-28T08:30:25Z</time>
      </trkpt>
      <trkpt lat="38.0951940" lon="-3.8976130">
        <ele>328.8</ele>
        <time>2018-04-28T08:30:26Z</time>
      </trkpt>
      <trkpt lat="38.0952170" lon="-3.8975490">
        <ele>328.6</ele>
        <time>2018-04-28T08:30:27Z</time>
      </trkpt>
      <trkpt lat="38.0952410" lon="-3.8974810">
        <ele>328.4</ele>
        <time>2018-04-28T08:30:28Z</time>
      </trkpt>
      <trkpt lat="38.0952640" lon="-3.8974130">
        <ele>328.4</ele>
        <time>2018-04-28T08:30:29Z</time>
      </trkpt>
      <trkpt lat="38.0952830" lon="-3.8973440">
        <ele>328.4</ele>
        <time>2018-04-28T08:30:30Z</time>
      </trkpt>
      <trkpt lat="38.0953000" lon="-3.8972760">
        <ele>328.4</ele>
        <time>2018-04-28T08:30:31Z</time>
      </trkpt>
      <trkpt lat="38.0953130" lon="-3.8972100">
        <ele>328.6</ele>
        <time>2018-04-28T08:30:32Z</time>
      </trkpt>
      <trkpt lat="38.0953180" lon="-3.8971430">
        <ele>328.4</ele>
        <time>2018-04-28T08:30:33Z</time>
      </trkpt>
      <trkpt lat="38.0953200" lon="-3.8970780">
        <ele>328.4</ele>
        <time>2018-04-28T08:30:34Z</time>
      </trkpt>
      <trkpt lat="38.0953270" lon="-3.8970140">
        <ele>328.4</ele>
        <time>2018-04-28T08:30:35Z</time>
      </trkpt>
      <trkpt lat="38.0953410" lon="-3.8969510">
        <ele>328.2</ele>
        <time>2018-04-28T08:30:36Z</time>
      </trkpt>
      <trkpt lat="38.0953600" lon="-3.8968900">
        <ele>328.2</ele>
        <time>2018-04-28T08:30:37Z</time>
      </trkpt>
      <trkpt lat="38.0953820" lon="-3.8968290">
        <ele>328.4</ele>
        <time>2018-04-28T08:30:38Z</time>
      </trkpt>
      <trkpt lat="38.0954030" lon="-3.8967680">
        <ele>328.2</ele>
        <time>2018-04-28T08:30:39Z</time>
      </trkpt>
      <trkpt lat="38.0954240" lon="-3.8967070">
        <ele>328.0</ele>
        <time>2018-04-28T08:30:40Z</time>
      </trkpt>
      <trkpt lat="38.0954330" lon="-3.8966350">
        <ele>327.8</ele>
        <time>2018-04-28T08:30:41Z</time>
      </trkpt>
      <trkpt lat="38.0954330" lon="-3.8965660">
        <ele>328.0</ele>
        <time>2018-04-28T08:30:42Z</time>
      </trkpt>
      <trkpt lat="38.0954250" lon="-3.8965020">
        <ele>328.0</ele>
        <time>2018-04-28T08:30:43Z</time>
      </trkpt>
      <trkpt lat="38.0954260" lon="-3.8964350">
        <ele>328.0</ele>
        <time>2018-04-28T08:30:44Z</time>
      </trkpt>
      <trkpt lat="38.0954300" lon="-3.8963740">
        <ele>328.0</ele>
        <time>2018-04-28T08:30:45Z</time>
      </trkpt>
      <trkpt lat="38.0954350" lon="-3.8963130">
        <ele>328.0</ele>
        <time>2018-04-28T08:30:46Z</time>
      </trkpt>
      <trkpt lat="38.0954360" lon="-3.8962470">
        <ele>328.0</ele>
        <time>2018-04-28T08:30:47Z</time>
      </trkpt>
      <trkpt lat="38.0954380" lon="-3.8961810">
        <ele>328.2</ele>
        <time>2018-04-28T08:30:48Z</time>
      </trkpt>
      <trkpt lat="38.0954440" lon="-3.8961130">
        <ele>328.2</ele>
        <time>2018-04-28T08:30:49Z</time>
      </trkpt>
      <trkpt lat="38.0954580" lon="-3.8960470">
        <ele>328.2</ele>
        <time>2018-04-28T08:30:50Z</time>
      </trkpt>
      <trkpt lat="38.0954800" lon="-3.8959870">
        <ele>328.4</ele>
        <time>2018-04-28T08:30:51Z</time>
      </trkpt>
      <trkpt lat="38.0955030" lon="-3.8959280">
        <ele>328.4</ele>
        <time>2018-04-28T08:30:52Z</time>
      </trkpt>
      <trkpt lat="38.0955260" lon="-3.8958660">
        <ele>328.6</ele>
        <time>2018-04-28T08:30:53Z</time>
      </trkpt>
      <trkpt lat="38.0955470" lon="-3.8958030">
        <ele>328.6</ele>
        <time>2018-04-28T08:30:54Z</time>
      </trkpt>
      <trkpt lat="38.0955690" lon="-3.8957390">
        <ele>328.8</ele>
        <time>2018-04-28T08:30:55Z</time>
      </trkpt>
      <trkpt lat="38.0955920" lon="-3.8956760">
        <ele>329.0</ele>
        <time>2018-04-28T08:30:56Z</time>
      </trkpt>
      <trkpt lat="38.0956150" lon="-3.8956120">
        <ele>329.0</ele>
        <time>2018-04-28T08:30:57Z</time>
      </trkpt>
      <trkpt lat="38.0956400" lon="-3.8955490">
        <ele>329.2</ele>
        <time>2018-04-28T08:30:58Z</time>
      </trkpt>
      <trkpt lat="38.0956630" lon="-3.8954850">
        <ele>329.2</ele>
        <time>2018-04-28T08:30:59Z</time>
      </trkpt>
      <trkpt lat="38.0956860" lon="-3.8954220">
        <ele>329.4</ele>
        <time>2018-04-28T08:31:00Z</time>
      </trkpt>
      <trkpt lat="38.0957100" lon="-3.8953590">
        <ele>329.6</ele>
        <time>2018-04-28T08:31:01Z</time>
      </trkpt>
      <trkpt lat="38.0957300" lon="-3.8952960">
        <ele>329.6</ele>
        <time>2018-04-28T08:31:02Z</time>
      </trkpt>
      <trkpt lat="38.0957420" lon="-3.8952290">
        <ele>330.0</ele>
        <time>2018-04-28T08:31:03Z</time>
      </trkpt>
      <trkpt lat="38.0957490" lon="-3.8951600">
        <ele>330.0</ele>
        <time>2018-04-28T08:31:04Z</time>
      </trkpt>
      <trkpt lat="38.0957380" lon="-3.8950940">
        <ele>330.2</ele>
        <time>2018-04-28T08:31:05Z</time>
      </trkpt>
      <trkpt lat="38.0957090" lon="-3.8950420">
        <ele>330.4</ele>
        <time>2018-04-28T08:31:06Z</time>
      </trkpt>
      <trkpt lat="38.0956720" lon="-3.8950030">
        <ele>330.6</ele>
        <time>2018-04-28T08:31:07Z</time>
      </trkpt>
      <trkpt lat="38.0956390" lon="-3.8949620">
        <ele>330.8</ele>
        <time>2018-04-28T08:31:08Z</time>
      </trkpt>
      <trkpt lat="38.0956160" lon="-3.8949150">
        <ele>331.0</ele>
        <time>2018-04-28T08:31:09Z</time>
      </trkpt>
      <trkpt lat="38.0956140" lon="-3.8948610">
        <ele>331.2</ele>
        <time>2018-04-28T08:31:10Z</time>
      </trkpt>
      <trkpt lat="38.0956250" lon="-3.8948070">
        <ele>331.4</ele>
        <time>2018-04-28T08:31:11Z</time>
      </trkpt>
      <trkpt lat="38.0956380" lon="-3.8947550">
        <ele>331.4</ele>
        <time>2018-04-28T08:31:12Z</time>
      </trkpt>
      <trkpt lat="38.0956530" lon="-3.8947100">
        <ele>331.4</ele>
        <time>2018-04-28T08:31:13Z</time>
      </trkpt>
      <trkpt lat="38.0956650" lon="-3.8946650">
        <ele>331.8</ele>
        <time>2018-04-28T08:31:14Z</time>
      </trkpt>
      <trkpt lat="38.0956760" lon="-3.8946180">
        <ele>331.8</ele>
        <time>2018-04-28T08:31:15Z</time>
      </trkpt>
      <trkpt lat="38.0956830" lon="-3.8945780">
        <ele>332.0</ele>
        <time>2018-04-28T08:31:16Z</time>
      </trkpt>
      <trkpt lat="38.0956830" lon="-3.8945480">
        <ele>332.2</ele>
        <time>2018-04-28T08:31:17Z</time>
      </trkpt>
      <trkpt lat="38.0956770" lon="-3.8945260">
        <ele>332.0</ele>
        <time>2018-04-28T08:31:18Z</time>
      </trkpt>
      <trkpt lat="38.0956670" lon="-3.8945120">
        <ele>331.8</ele>
        <time>2018-04-28T08:31:19Z</time>
      </trkpt>
      <trkpt lat="38.0956590" lon="-3.8944990">
        <ele>331.8</ele>
        <time>2018-04-28T08:31:20Z</time>
      </trkpt>
      <trkpt lat="38.0956530" lon="-3.8944820">
        <ele>331.8</ele>
        <time>2018-04-28T08:31:21Z</time>
      </trkpt>
      <trkpt lat="38.0956540" lon="-3.8944750">
        <ele>331.8</ele>
        <time>2018-04-28T08:31:22Z</time>
      </trkpt>
      <trkpt lat="38.0956500" lon="-3.8944750">
        <ele>331.8</ele>
        <time>2018-04-28T08:31:23Z</time>
      </trkpt>
      <trkpt lat="38.0956490" lon="-3.8944760">
        <ele>331.8</ele>
        <time>2018-04-28T08:31:24Z</time>
      </trkpt>
      <trkpt lat="38.0956480" lon="-3.8944720">
        <ele>331.8</ele>
        <time>2018-04-28T08:31:25Z</time>
      </trkpt>
      <trkpt lat="38.0956480" lon="-3.8944710">
        <ele>331.8</ele>
        <time>2018-04-28T08:31:26Z</time>
      </trkpt>
      <trkpt lat="38.0956480" lon="-3.8944690">
        <ele>331.8</ele>
        <time>2018-04-28T08:31:27Z</time>
      </trkpt>
      <trkpt lat="38.0956480" lon="-3.8944680">
        <ele>331.8</ele>
        <time>2018-04-28T08:31:28Z</time>
      </trkpt>
      <trkpt lat="38.0956470" lon="-3.8944680">
        <ele>331.8</ele>
        <time>2018-04-28T08:31:29Z</time>
      </trkpt>
      <trkpt lat="38.0954140" lon="-3.8943890">
        <ele>331.4</ele>
        <time>2018-04-28T08:34:17Z</time>
      </trkpt>
      <trkpt lat="38.0953810" lon="-3.8943760">
        <ele>331.2</ele>
        <time>2018-04-28T08:34:18Z</time>
      </trkpt>
      <trkpt lat="38.0953480" lon="-3.8943620">
        <ele>331.2</ele>
        <time>2018-04-28T08:34:19Z</time>
      </trkpt>
      <trkpt lat="38.0953150" lon="-3.8943460">
        <ele>331.2</ele>
        <time>2018-04-28T08:34:20Z</time>
      </trkpt>
      <trkpt lat="38.0952820" lon="-3.8943310">
        <ele>331.4</ele>
        <time>2018-04-28T08:34:21Z</time>
      </trkpt>
      <trkpt lat="38.0952480" lon="-3.8943210">
        <ele>331.4</ele>
        <time>2018-04-28T08:34:22Z</time>
      </trkpt>
      <trkpt lat="38.0952120" lon="-3.8943120">
        <ele>331.4</ele>
        <time>2018-04-28T08:34:23Z</time>
      </trkpt>
      <trkpt lat="38.0951750" lon="-3.8943010">
        <ele>331.2</ele>
        <time>2018-04-28T08:34:24Z</time>
      </trkpt>
      <trkpt lat="38.0951400" lon="-3.8942860">
        <ele>331.2</ele>
        <time>2018-04-28T08:34:25Z</time>
      </trkpt>
      <trkpt lat="38.0951070" lon="-3.8942680">
        <ele>331.2</ele>
        <time>2018-04-28T08:34:26Z</time>
      </trkpt>
      <trkpt lat="38.0950730" lon="-3.8942490">
        <ele>331.2</ele>
        <time>2018-04-28T08:34:27Z</time>
      </trkpt>
      <trkpt lat="38.0950380" lon="-3.8942320">
        <ele>331.2</ele>
        <time>2018-04-28T08:34:28Z</time>
      </trkpt>
      <trkpt lat="38.0950030" lon="-3.8942180">
        <ele>331.0</ele>
        <time>2018-04-28T08:34:29Z</time>
      </trkpt>
      <trkpt lat="38.0949670" lon="-3.8942050">
        <ele>331.0</ele>
        <time>2018-04-28T08:34:30Z</time>
      </trkpt>
      <trkpt lat="38.0949340" lon="-3.8941950">
        <ele>331.0</ele>
        <time>2018-04-28T08:34:31Z</time>
      </trkpt>
      <trkpt lat="38.0948970" lon="-3.8941790">
        <ele>331.2</ele>
        <time>2018-04-28T08:34:32Z</time>
      </trkpt>
      <trkpt lat="38.0948620" lon="-3.8941620">
        <ele>331.4</ele>
        <time>2018-04-28T08:34:33Z</time>
      </trkpt>
      <trkpt lat="38.0948300" lon="-3.8941450">
        <ele>331.2</ele>
        <time>2018-04-28T08:34:34Z</time>
      </trkpt>
      <trkpt lat="38.0947960" lon="-3.8941240">
        <ele>331.2</ele>
        <time>2018-04-28T08:34:35Z</time>
      </trkpt>
      <trkpt lat="38.0947620" lon="-3.8940990">
        <ele>331.2</ele>
        <time>2018-04-28T08:34:36Z</time>
      </trkpt>
      <trkpt lat="38.0947270" lon="-3.8940740">
        <ele>331.2</ele>
        <time>2018-04-28T08:34:37Z</time>
      </trkpt>
      <trkpt lat="38.0946950" lon="-3.8940500">
        <ele>331.0</ele>
        <time>2018-04-28T08:34:38Z</time>
      </trkpt>
      <trkpt lat="38.0946640" lon="-3.8940130">
        <ele>330.8</ele>
        <time>2018-04-28T08:34:39Z</time>
      </trkpt>
      <trkpt lat="38.0946320" lon="-3.8939840">
        <ele>331.0</ele>
        <time>2018-04-28T08:34:40Z</time>
      </trkpt>
      <trkpt lat="38.0946000" lon="-3.8939670">
        <ele>330.8</ele>
        <time>2018-04-28T08:34:41Z</time>
      </trkpt>
      <trkpt lat="38.0945760" lon="-3.8939580">
        <ele>330.8</ele>
        <time>2018-04-28T08:34:42Z</time>
      </trkpt>
      <trkpt lat="38.0945470" lon="-3.8939390">
        <ele>330.8</ele>
        <time>2018-04-28T08:34:43Z</time>
      </trkpt>
      <trkpt lat="38.0945120" lon="-3.8939110">
        <ele>330.8</ele>
        <time>2018-04-28T08:34:44Z</time>
      </trkpt>
      <trkpt lat="38.0944800" lon="-3.8938830">
        <ele>331.0</ele>
        <time>2018-04-28T08:34:45Z</time>
      </trkpt>
      <trkpt lat="38.0944520" lon="-3.8938550">
        <ele>331.0</ele>
        <time>2018-04-28T08:34:46Z</time>
      </trkpt>
      <trkpt lat="38.0944240" lon="-3.8938330">
        <ele>330.8</ele>
        <time>2018-04-28T08:34:47Z</time>
      </trkpt>
      <trkpt lat="38.0944020" lon="-3.8938090">
        <ele>330.8</ele>
        <time>2018-04-28T08:34:48Z</time>
      </trkpt>
      <trkpt lat="38.0943770" lon="-3.8937830">
        <ele>330.8</ele>
        <time>2018-04-28T08:34:49Z</time>
      </trkpt>
      <trkpt lat="38.0943500" lon="-3.8937500">
        <ele>331.0</ele>
        <time>2018-04-28T08:34:50Z</time>
      </trkpt>
      <trkpt lat="38.0943190" lon="-3.8937240">
        <ele>330.8</ele>
        <time>2018-04-28T08:34:51Z</time>
      </trkpt>
      <trkpt lat="38.0942880" lon="-3.8937130">
        <ele>330.8</ele>
        <time>2018-04-28T08:34:52Z</time>
      </trkpt>
      <trkpt lat="38.0942470" lon="-3.8936790">
        <ele>330.6</ele>
        <time>2018-04-28T08:34:53Z</time>
      </trkpt>
      <trkpt lat="38.0942080" lon="-3.8936400">
        <ele>330.8</ele>
        <time>2018-04-28T08:34:54Z</time>
      </trkpt>
      <trkpt lat="38.0941740" lon="-3.8936110">
        <ele>330.6</ele>
        <time>2018-04-28T08:34:55Z</time>
      </trkpt>
      <trkpt lat="38.0941380" lon="-3.8935780">
        <ele>330.6</ele>
        <time>2018-04-28T08:34:56Z</time>
      </trkpt>
      <trkpt lat="38.0941030" lon="-3.8935490">
        <ele>330.6</ele>
        <time>2018-04-28T08:34:57Z</time>
      </trkpt>
      <trkpt lat="38.0940640" lon="-3.8935060">
        <ele>330.6</ele>
        <time>2018-04-28T08:34:58Z</time>
      </trkpt>
      <trkpt lat="38.0940200" lon="-3.8934660">
        <ele>330.4</ele>
        <time>2018-04-28T08:34:59Z</time>
      </trkpt>
      <trkpt lat="38.0939800" lon="-3.8934070">
        <ele>330.2</ele>
        <time>2018-04-28T08:35:00Z</time>
      </trkpt>
      <trkpt lat="38.0939390" lon="-3.8933690">
        <ele>330.4</ele>
        <time>2018-04-28T08:35:01Z</time>
      </trkpt>
      <trkpt lat="38.0939200" lon="-3.8933440">
        <ele>330.4</ele>
        <time>2018-04-28T08:35:02Z</time>
      </trkpt>
      <trkpt lat="38.0939010" lon="-3.8933270">
        <ele>330.2</ele>
        <time>2018-04-28T08:35:03Z</time>
      </trkpt>
      <trkpt lat="38.0938970" lon="-3.8932950">
        <ele>330.0</ele>
        <time>2018-04-28T08:35:04Z</time>
      </trkpt>
      <trkpt lat="38.0938760" lon="-3.8932580">
        <ele>329.6</ele>
        <time>2018-04-28T08:35:05Z</time>
      </trkpt>
      <trkpt lat="38.0938560" lon="-3.8932250">
        <ele>329.4</ele>
        <time>2018-04-28T08:35:06Z</time>
      </trkpt>
      <trkpt lat="38.0938430" lon="-3.8931890">
        <ele>329.4</ele>
        <time>2018-04-28T08:35:07Z</time>
      </trkpt>
      <trkpt lat="38.0938400" lon="-3.8931620">
        <ele>329.4</ele>
        <time>2018-04-28T08:35:08Z</time>
      </trkpt>
      <trkpt lat="38.0938410" lon="-3.8931310">
        <ele>329.4</ele>
        <time>2018-04-28T08:35:09Z</time>
      </trkpt>
      <trkpt lat="38.0938410" lon="-3.8930990">
        <ele>329.4</ele>
        <time>2018-04-28T08:35:10Z</time>
      </trkpt>
      <trkpt lat="38.0938430" lon="-3.8930790">
        <ele>329.4</ele>
        <time>2018-04-28T08:35:11Z</time>
      </trkpt>
      <trkpt lat="38.0938520" lon="-3.8930710">
        <ele>329.4</ele>
        <time>2018-04-28T08:35:12Z</time>
      </trkpt>
      <trkpt lat="38.0938630" lon="-3.8930630">
        <ele>329.6</ele>
        <time>2018-04-28T08:35:13Z</time>
      </trkpt>
      <trkpt lat="38.0938750" lon="-3.8930500">
        <ele>329.4</ele>
        <time>2018-04-28T08:35:14Z</time>
      </trkpt>
      <trkpt lat="38.0938850" lon="-3.8930350">
        <ele>329.4</ele>
        <time>2018-04-28T08:35:15Z</time>
      </trkpt>
      <trkpt lat="38.0938990" lon="-3.8930230">
        <ele>329.4</ele>
        <time>2018-04-28T08:35:16Z</time>
      </trkpt>
      <trkpt lat="38.0939140" lon="-3.8930110">
        <ele>329.4</ele>
        <time>2018-04-28T08:35:17Z</time>
      </trkpt>
      <trkpt lat="38.0939330" lon="-3.8930000">
        <ele>329.4</ele>
        <time>2018-04-28T08:35:18Z</time>
      </trkpt>
      <trkpt lat="38.0939560" lon="-3.8929820">
        <ele>329.2</ele>
        <time>2018-04-28T08:35:19Z</time>
      </trkpt>
      <trkpt lat="38.0939790" lon="-3.8929620">
        <ele>329.2</ele>
        <time>2018-04-28T08:35:20Z</time>
      </trkpt>
      <trkpt lat="38.0940070" lon="-3.8929410">
        <ele>329.2</ele>
        <time>2018-04-28T08:35:21Z</time>
      </trkpt>
      <trkpt lat="38.0940400" lon="-3.8929190">
        <ele>329.0</ele>
        <time>2018-04-28T08:35:22Z</time>
      </trkpt>
      <trkpt lat="38.0940760" lon="-3.8928950">
        <ele>328.8</ele>
        <time>2018-04-28T08:35:23Z</time>
      </trkpt>
      <trkpt lat="38.0941140" lon="-3.8928660">
        <ele>328.6</ele>
        <time>2018-04-28T08:35:24Z</time>
      </trkpt>
      <trkpt lat="38.0941550" lon="-3.8928320">
        <ele>328.4</ele>
        <time>2018-04-28T08:35:25Z</time>
      </trkpt>
      <trkpt lat="38.0941960" lon="-3.8927910">
        <ele>328.4</ele>
        <time>2018-04-28T08:35:26Z</time>
      </trkpt>
      <trkpt lat="38.0942390" lon="-3.8927460">
        <ele>328.0</ele>
        <time>2018-04-28T08:35:27Z</time>
      </trkpt>
      <trkpt lat="38.0942840" lon="-3.8926970">
        <ele>327.8</ele>
        <time>2018-04-28T08:35:28Z</time>
      </trkpt>
      <trkpt lat="38.0943290" lon="-3.8926430">
        <ele>327.4</ele>
        <time>2018-04-28T08:35:29Z</time>
      </trkpt>
      <trkpt lat="38.0943740" lon="-3.8925850">
        <ele>327.4</ele>
        <time>2018-04-28T08:35:30Z</time>
      </trkpt>
      <trkpt lat="38.0944190" lon="-3.8925250">
        <ele>327.0</ele>
        <time>2018-04-28T08:35:31Z</time>
      </trkpt>
      <trkpt lat="38.0944650" lon="-3.8924620">
        <ele>326.6</ele>
        <time>2018-04-28T08:35:32Z</time>
      </trkpt>
      <trkpt lat="38.0945140" lon="-3.8923960">
        <ele>326.6</ele>
        <time>2018-04-28T08:35:33Z</time>
      </trkpt>
      <trkpt lat="38.0945620" lon="-3.8923270">
        <ele>326.4</ele>
        <time>2018-04-28T08:35:34Z</time>
      </trkpt>
      <trkpt lat="38.0946120" lon="-3.8922560">
        <ele>326.2</ele>
        <time>2018-04-28T08:35:35Z</time>
      </trkpt>
      <trkpt lat="38.0946620" lon="-3.8921820">
        <ele>326.0</ele>
        <time>2018-04-28T08:35:36Z</time>
      </trkpt>
      <trkpt lat="38.0947090" lon="-3.8921050">
        <ele>325.8</ele>
        <time>2018-04-28T08:35:37Z</time>
      </trkpt>
      <trkpt lat="38.0947540" lon="-3.8920270">
        <ele>325.6</ele>
        <time>2018-04-28T08:35:38Z</time>
      </trkpt>
      <trkpt lat="38.0947970" lon="-3.8919440">
        <ele>325.6</ele>
        <time>2018-04-28T08:35:39Z</time>
      </trkpt>
      <trkpt lat="38.0948380" lon="-3.8918580">
        <ele>325.4</ele>
        <time>2018-04-28T08:35:40Z</time>
      </trkpt>
      <trkpt lat="38.0948790" lon="-3.8917730">
        <ele>325.0</ele>
        <time>2018-04-28T08:35:41Z</time>
      </trkpt>
      <trkpt lat="38.0949230" lon="-3.8916880">
        <ele>324.8</ele>
        <time>2018-04-28T08:35:42Z</time>
      </trkpt>
      <trkpt lat="38.0949690" lon="-3.8916040">
        <ele>324.8</ele>
        <time>2018-04-28T08:35:43Z</time>
      </trkpt>
      <trkpt lat="38.0950170" lon="-3.8915240">
        <ele>324.8</ele>
        <time>2018-04-28T08:35:44Z</time>
      </trkpt>
      <trkpt lat="38.0950680" lon="-3.8914480">
        <ele>324.4</ele>
        <time>2018-04-28T08:35:45Z</time>
      </trkpt>
      <trkpt lat="38.0951220" lon="-3.8913720">
        <ele>324.4</ele>
        <time>2018-04-28T08:35:46Z</time>
      </trkpt>
      <trkpt lat="38.0951760" lon="-3.8912970">
        <ele>324.4</ele>
        <time>2018-04-28T08:35:47Z</time>
      </trkpt>
      <trkpt lat="38.0952300" lon="-3.8912220">
        <ele>324.0</ele>
        <time>2018-04-28T08:35:48Z</time>
      </trkpt>
      <trkpt lat="38.0952840" lon="-3.8911460">
        <ele>323.8</ele>
        <time>2018-04-28T08:35:49Z</time>
      </trkpt>
      <trkpt lat="38.0953380" lon="-3.8910700">
        <ele>323.8</ele>
        <time>2018-04-28T08:35:50Z</time>
      </trkpt>
      <trkpt lat="38.0953920" lon="-3.8909930">
        <ele>323.6</ele>
        <time>2018-04-28T08:35:51Z</time>
      </trkpt>
      <trkpt lat="38.0954440" lon="-3.8909140">
        <ele>323.4</ele>
        <time>2018-04-28T08:35:52Z</time>
      </trkpt>
      <trkpt lat="38.0954940" lon="-3.8908350">
        <ele>323.2</ele>
        <time>2018-04-28T08:35:53Z</time>
      </trkpt>
      <trkpt lat="38.0955430" lon="-3.8907550">
        <ele>323.2</ele>
        <time>2018-04-28T08:35:54Z</time>
      </trkpt>
      <trkpt lat="38.0955910" lon="-3.8906760">
        <ele>323.0</ele>
        <time>2018-04-28T08:35:55Z</time>
      </trkpt>
      <trkpt lat="38.0956390" lon="-3.8905980">
        <ele>323.0</ele>
        <time>2018-04-28T08:35:56Z</time>
      </trkpt>
      <trkpt lat="38.0956840" lon="-3.8905190">
        <ele>322.6</ele>
        <time>2018-04-28T08:35:57Z</time>
      </trkpt>
      <trkpt lat="38.0957290" lon="-3.8904420">
        <ele>322.6</ele>
        <time>2018-04-28T08:35:58Z</time>
      </trkpt>
      <trkpt lat="38.0957750" lon="-3.8903670">
        <ele>322.6</ele>
        <time>2018-04-28T08:35:59Z</time>
      </trkpt>
      <trkpt lat="38.0958230" lon="-3.8902970">
        <ele>322.6</ele>
        <time>2018-04-28T08:36:00Z</time>
      </trkpt>
      <trkpt lat="38.0958740" lon="-3.8902290">
        <ele>322.4</ele>
        <time>2018-04-28T08:36:01Z</time>
      </trkpt>
      <trkpt lat="38.0959260" lon="-3.8901610">
        <ele>322.4</ele>
        <time>2018-04-28T08:36:02Z</time>
      </trkpt>
      <trkpt lat="38.0959780" lon="-3.8900940">
        <ele>322.2</ele>
        <time>2018-04-28T08:36:03Z</time>
      </trkpt>
      <trkpt lat="38.0960280" lon="-3.8900270">
        <ele>322.2</ele>
        <time>2018-04-28T08:36:04Z</time>
      </trkpt>
      <trkpt lat="38.0960790" lon="-3.8899590">
        <ele>322.0</ele>
        <time>2018-04-28T08:36:05Z</time>
      </trkpt>
      <trkpt lat="38.0961310" lon="-3.8898910">
        <ele>321.8</ele>
        <time>2018-04-28T08:36:06Z</time>
      </trkpt>
      <trkpt lat="38.0961820" lon="-3.8898230">
        <ele>322.0</ele>
        <time>2018-04-28T08:36:07Z</time>
      </trkpt>
      <trkpt lat="38.0962340" lon="-3.8897550">
        <ele>322.0</ele>
        <time>2018-04-28T08:36:08Z</time>
      </trkpt>
      <trkpt lat="38.0962850" lon="-3.8896900">
        <ele>321.8</ele>
        <time>2018-04-28T08:36:09Z</time>
      </trkpt>
      <trkpt lat="38.0963350" lon="-3.8896240">
        <ele>322.0</ele>
        <time>2018-04-28T08:36:10Z</time>
      </trkpt>
      <trkpt lat="38.0963840" lon="-3.8895580">
        <ele>322.0</ele>
        <time>2018-04-28T08:36:11Z</time>
      </trkpt>
      <trkpt lat="38.0964340" lon="-3.8894930">
        <ele>321.8</ele>
        <time>2018-04-28T08:36:12Z</time>
      </trkpt>
      <trkpt lat="38.0964810" lon="-3.8894290">
        <ele>321.8</ele>
        <time>2018-04-28T08:36:13Z</time>
      </trkpt>
      <trkpt lat="38.0965280" lon="-3.8893620">
        <ele>321.6</ele>
        <time>2018-04-28T08:36:14Z</time>
      </trkpt>
      <trkpt lat="38.0965740" lon="-3.8892950">
        <ele>321.4</ele>
        <time>2018-04-28T08:36:15Z</time>
      </trkpt>
      <trkpt lat="38.0966200" lon="-3.8892290">
        <ele>321.8</ele>
        <time>2018-04-28T08:36:16Z</time>
      </trkpt>
      <trkpt lat="38.0966670" lon="-3.8891660">
        <ele>321.6</ele>
        <time>2018-04-28T08:36:17Z</time>
      </trkpt>
      <trkpt lat="38.0967130" lon="-3.8891010">
        <ele>321.6</ele>
        <time>2018-04-28T08:36:18Z</time>
      </trkpt>
      <trkpt lat="38.0967560" lon="-3.8890320">
        <ele>321.6</ele>
        <time>2018-04-28T08:36:19Z</time>
      </trkpt>
      <trkpt lat="38.0967940" lon="-3.8889590">
        <ele>321.6</ele>
        <time>2018-04-28T08:36:20Z</time>
      </trkpt>
      <trkpt lat="38.0968330" lon="-3.8888860">
        <ele>321.6</ele>
        <time>2018-04-28T08:36:21Z</time>
      </trkpt>
      <trkpt lat="38.0968730" lon="-3.8888150">
        <ele>321.8</ele>
        <time>2018-04-28T08:36:22Z</time>
      </trkpt>
      <trkpt lat="38.0969160" lon="-3.8887450">
        <ele>321.8</ele>
        <time>2018-04-28T08:36:23Z</time>
      </trkpt>
      <trkpt lat="38.0969610" lon="-3.8886760">
        <ele>321.6</ele>
        <time>2018-04-28T08:36:24Z</time>
      </trkpt>
      <trkpt lat="38.0970070" lon="-3.8886080">
        <ele>321.4</ele>
        <time>2018-04-28T08:36:25Z</time>
      </trkpt>
      <trkpt lat="38.0970520" lon="-3.8885400">
        <ele>321.4</ele>
        <time>2018-04-28T08:36:26Z</time>
      </trkpt>
      <trkpt lat="38.0971000" lon="-3.8884720">
        <ele>321.4</ele>
        <time>2018-04-28T08:36:27Z</time>
      </trkpt>
      <trkpt lat="38.0971470" lon="-3.8884060">
        <ele>321.2</ele>
        <time>2018-04-28T08:36:28Z</time>
      </trkpt>
      <trkpt lat="38.0971900" lon="-3.8883400">
        <ele>321.0</ele>
        <time>2018-04-28T08:36:29Z</time>
      </trkpt>
      <trkpt lat="38.0972340" lon="-3.8882730">
        <ele>321.2</ele>
        <time>2018-04-28T08:36:30Z</time>
      </trkpt>
      <trkpt lat="38.0972800" lon="-3.8882080">
        <ele>321.2</ele>
        <time>2018-04-28T08:36:31Z</time>
      </trkpt>
      <trkpt lat="38.0973230" lon="-3.8881390">
        <ele>321.0</ele>
        <time>2018-04-28T08:36:32Z</time>
      </trkpt>
      <trkpt lat="38.0973610" lon="-3.8880650">
        <ele>321.0</ele>
        <time>2018-04-28T08:36:33Z</time>
      </trkpt>
      <trkpt lat="38.0973980" lon="-3.8879900">
        <ele>321.0</ele>
        <time>2018-04-28T08:36:34Z</time>
      </trkpt>
      <trkpt lat="38.0974340" lon="-3.8879150">
        <ele>320.8</ele>
        <time>2018-04-28T08:36:35Z</time>
      </trkpt>
      <trkpt lat="38.0974700" lon="-3.8878380">
        <ele>320.8</ele>
        <time>2018-04-28T08:36:36Z</time>
      </trkpt>
      <trkpt lat="38.0975050" lon="-3.8877590">
        <ele>320.6</ele>
        <time>2018-04-28T08:36:37Z</time>
      </trkpt>
      <trkpt lat="38.0975390" lon="-3.8876780">
        <ele>320.4</ele>
        <time>2018-04-28T08:36:38Z</time>
      </trkpt>
      <trkpt lat="38.0975750" lon="-3.8875970">
        <ele>320.2</ele>
        <time>2018-04-28T08:36:39Z</time>
      </trkpt>
      <trkpt lat="38.0976130" lon="-3.8875200">
        <ele>320.0</ele>
        <time>2018-04-28T08:36:40Z</time>
      </trkpt>
      <trkpt lat="38.0976480" lon="-3.8874360">
        <ele>320.0</ele>
        <time>2018-04-28T08:36:41Z</time>
      </trkpt>
      <trkpt lat="38.0976830" lon="-3.8873530">
        <ele>319.8</ele>
        <time>2018-04-28T08:36:42Z</time>
      </trkpt>
      <trkpt lat="38.0977190" lon="-3.8872700">
        <ele>319.8</ele>
        <time>2018-04-28T08:36:43Z</time>
      </trkpt>
      <trkpt lat="38.0977560" lon="-3.8871880">
        <ele>319.8</ele>
        <time>2018-04-28T08:36:44Z</time>
      </trkpt>
      <trkpt lat="38.0977950" lon="-3.8871090">
        <ele>319.6</ele>
        <time>2018-04-28T08:36:45Z</time>
      </trkpt>
      <trkpt lat="38.0978330" lon="-3.8870320">
        <ele>319.8</ele>
        <time>2018-04-28T08:36:46Z</time>
      </trkpt>
      <trkpt lat="38.0978700" lon="-3.8869560">
        <ele>318.2</ele>
        <time>2018-04-28T08:36:47Z</time>
      </trkpt>
      <trkpt lat="38.0979050" lon="-3.8868790">
        <ele>319.6</ele>
        <time>2018-04-28T08:36:48Z</time>
      </trkpt>
      <trkpt lat="38.0979390" lon="-3.8868000">
        <ele>319.4</ele>
        <time>2018-04-28T08:36:49Z</time>
      </trkpt>
      <trkpt lat="38.0979750" lon="-3.8867230">
        <ele>320.4</ele>
        <time>2018-04-28T08:36:50Z</time>
      </trkpt>
      <trkpt lat="38.0980180" lon="-3.8866480">
        <ele>319.0</ele>
        <time>2018-04-28T08:36:51Z</time>
      </trkpt>
      <trkpt lat="38.0980690" lon="-3.8865790">
        <ele>318.6</ele>
        <time>2018-04-28T08:36:52Z</time>
      </trkpt>
      <trkpt lat="38.0981250" lon="-3.8865100">
        <ele>317.6</ele>
        <time>2018-04-28T08:36:53Z</time>
      </trkpt>
      <trkpt lat="38.0981820" lon="-3.8864410">
        <ele>317.4</ele>
        <time>2018-04-28T08:36:55Z</time>
      </trkpt>
      <trkpt lat="38.0982350" lon="-3.8863720">
        <ele>317.4</ele>
        <time>2018-04-28T08:36:56Z</time>
      </trkpt>
      <trkpt lat="38.0982890" lon="-3.8863000">
        <ele>317.0</ele>
        <time>2018-04-28T08:36:57Z</time>
      </trkpt>
      <trkpt lat="38.0983410" lon="-3.8862270">
        <ele>317.0</ele>
        <time>2018-04-28T08:36:58Z</time>
      </trkpt>
      <trkpt lat="38.0983950" lon="-3.8861570">
        <ele>317.0</ele>
        <time>2018-04-28T08:36:59Z</time>
      </trkpt>
      <trkpt lat="38.0984500" lon="-3.8860890">
        <ele>317.0</ele>
        <time>2018-04-28T08:37:00Z</time>
      </trkpt>
      <trkpt lat="38.0985090" lon="-3.8860240">
        <ele>316.8</ele>
        <time>2018-04-28T08:37:01Z</time>
      </trkpt>
      <trkpt lat="38.0985690" lon="-3.8859600">
        <ele>316.8</ele>
        <time>2018-04-28T08:37:02Z</time>
      </trkpt>
      <trkpt lat="38.0986270" lon="-3.8858930">
        <ele>316.8</ele>
        <time>2018-04-28T08:37:03Z</time>
      </trkpt>
      <trkpt lat="38.0986830" lon="-3.8858260">
        <ele>316.8</ele>
        <time>2018-04-28T08:37:04Z</time>
      </trkpt>
      <trkpt lat="38.0987390" lon="-3.8857570">
        <ele>316.8</ele>
        <time>2018-04-28T08:37:05Z</time>
      </trkpt>
      <trkpt lat="38.0987950" lon="-3.8856890">
        <ele>316.6</ele>
        <time>2018-04-28T08:37:06Z</time>
      </trkpt>
      <trkpt lat="38.0988510" lon="-3.8856240">
        <ele>316.6</ele>
        <time>2018-04-28T08:37:07Z</time>
      </trkpt>
      <trkpt lat="38.0989070" lon="-3.8855580">
        <ele>316.6</ele>
        <time>2018-04-28T08:37:08Z</time>
      </trkpt>
      <trkpt lat="38.0989620" lon="-3.8854940">
        <ele>316.6</ele>
        <time>2018-04-28T08:37:09Z</time>
      </trkpt>
      <trkpt lat="38.0990180" lon="-3.8854300">
        <ele>316.6</ele>
        <time>2018-04-28T08:37:10Z</time>
      </trkpt>
      <trkpt lat="38.0990730" lon="-3.8853660">
        <ele>316.4</ele>
        <time>2018-04-28T08:37:11Z</time>
      </trkpt>
      <trkpt lat="38.0991240" lon="-3.8853010">
        <ele>316.4</ele>
        <time>2018-04-28T08:37:12Z</time>
      </trkpt>
      <trkpt lat="38.0991750" lon="-3.8852340">
        <ele>316.6</ele>
        <time>2018-04-28T08:37:13Z</time>
      </trkpt>
      <trkpt lat="38.0992260" lon="-3.8851670">
        <ele>316.6</ele>
        <time>2018-04-28T08:37:14Z</time>
      </trkpt>
      <trkpt lat="38.0992800" lon="-3.8851010">
        <ele>316.4</ele>
        <time>2018-04-28T08:37:15Z</time>
      </trkpt>
      <trkpt lat="38.0993340" lon="-3.8850340">
        <ele>316.4</ele>
        <time>2018-04-28T08:37:16Z</time>
      </trkpt>
      <trkpt lat="38.0993950" lon="-3.8849700">
        <ele>316.2</ele>
        <time>2018-04-28T08:37:17Z</time>
      </trkpt>
      <trkpt lat="38.0994550" lon="-3.8849070">
        <ele>316.0</ele>
        <time>2018-04-28T08:37:18Z</time>
      </trkpt>
      <trkpt lat="38.0995150" lon="-3.8848370">
        <ele>315.6</ele>
        <time>2018-04-28T08:37:19Z</time>
      </trkpt>
      <trkpt lat="38.0995720" lon="-3.8847610">
        <ele>315.0</ele>
        <time>2018-04-28T08:37:20Z</time>
      </trkpt>
      <trkpt lat="38.0996310" lon="-3.8846840">
        <ele>314.6</ele>
        <time>2018-04-28T08:37:21Z</time>
      </trkpt>
      <trkpt lat="38.0996980" lon="-3.8846130">
        <ele>314.2</ele>
        <time>2018-04-28T08:37:22Z</time>
      </trkpt>
      <trkpt lat="38.0997710" lon="-3.8845550">
        <ele>314.2</ele>
        <time>2018-04-28T08:37:23Z</time>
      </trkpt>
      <trkpt lat="38.0998450" lon="-3.8845010">
        <ele>314.0</ele>
        <time>2018-04-28T08:37:24Z</time>
      </trkpt>
      <trkpt lat="38.0999140" lon="-3.8844420">
        <ele>313.8</ele>
        <time>2018-04-28T08:37:25Z</time>
      </trkpt>
      <trkpt lat="38.0999720" lon="-3.8843680">
        <ele>313.8</ele>
        <time>2018-04-28T08:37:26Z</time>
      </trkpt>
      <trkpt lat="38.1000210" lon="-3.8842810">
        <ele>313.6</ele>
        <time>2018-04-28T08:37:27Z</time>
      </trkpt>
      <trkpt lat="38.1000590" lon="-3.8841870">
        <ele>313.4</ele>
        <time>2018-04-28T08:37:28Z</time>
      </trkpt>
      <trkpt lat="38.1000880" lon="-3.8840880">
        <ele>313.2</ele>
        <time>2018-04-28T08:37:29Z</time>
      </trkpt>
      <trkpt lat="38.1001140" lon="-3.8839860">
        <ele>313.2</ele>
        <time>2018-04-28T08:37:30Z</time>
      </trkpt>
      <trkpt lat="38.1001370" lon="-3.8838830">
        <ele>313.0</ele>
        <time>2018-04-28T08:37:31Z</time>
      </trkpt>
      <trkpt lat="38.1001600" lon="-3.8837810">
        <ele>313.0</ele>
        <time>2018-04-28T08:37:32Z</time>
      </trkpt>
      <trkpt lat="38.1001860" lon="-3.8836800">
        <ele>312.8</ele>
        <time>2018-04-28T08:37:33Z</time>
      </trkpt>
      <trkpt lat="38.1002150" lon="-3.8835780">
        <ele>312.6</ele>
        <time>2018-04-28T08:37:34Z</time>
      </trkpt>
      <trkpt lat="38.1002470" lon="-3.8834790">
        <ele>312.6</ele>
        <time>2018-04-28T08:37:35Z</time>
      </trkpt>
      <trkpt lat="38.1002840" lon="-3.8833810">
        <ele>312.4</ele>
        <time>2018-04-28T08:37:36Z</time>
      </trkpt>
      <trkpt lat="38.1003280" lon="-3.8832860">
        <ele>312.2</ele>
        <time>2018-04-28T08:37:37Z</time>
      </trkpt>
      <trkpt lat="38.1003760" lon="-3.8831970">
        <ele>312.2</ele>
        <time>2018-04-28T08:37:38Z</time>
      </trkpt>
      <trkpt lat="38.1004290" lon="-3.8831120">
        <ele>312.0</ele>
        <time>2018-04-28T08:37:39Z</time>
      </trkpt>
      <trkpt lat="38.1004870" lon="-3.8830350">
        <ele>312.4</ele>
        <time>2018-04-28T08:37:40Z</time>
      </trkpt>
      <trkpt lat="38.1005450" lon="-3.8829630">
        <ele>312.4</ele>
        <time>2018-04-28T08:37:41Z</time>
      </trkpt>
      <trkpt lat="38.1006040" lon="-3.8828960">
        <ele>312.2</ele>
        <time>2018-04-28T08:37:42Z</time>
      </trkpt>
      <trkpt lat="38.1006640" lon="-3.8828370">
        <ele>312.6</ele>
        <time>2018-04-28T08:37:43Z</time>
      </trkpt>
      <trkpt lat="38.1007220" lon="-3.8827870">
        <ele>312.4</ele>
        <time>2018-04-28T08:37:44Z</time>
      </trkpt>
      <trkpt lat="38.1007870" lon="-3.8827300">
        <ele>312.4</ele>
        <time>2018-04-28T08:37:45Z</time>
      </trkpt>
      <trkpt lat="38.1008300" lon="-3.8826690">
        <ele>312.2</ele>
        <time>2018-04-28T08:37:46Z</time>
      </trkpt>
      <trkpt lat="38.1008610" lon="-3.8826050">
        <ele>312.8</ele>
        <time>2018-04-28T08:37:47Z</time>
      </trkpt>
      <trkpt lat="38.1008770" lon="-3.8825440">
        <ele>313.2</ele>
        <time>2018-04-28T08:37:48Z</time>
      </trkpt>
      <trkpt lat="38.1008840" lon="-3.8824870">
        <ele>313.6</ele>
        <time>2018-04-28T08:37:49Z</time>
      </trkpt>
      <trkpt lat="38.1008960" lon="-3.8824340">
        <ele>314.2</ele>
        <time>2018-04-28T08:37:50Z</time>
      </trkpt>
      <trkpt lat="38.1009170" lon="-3.8823860">
        <ele>313.8</ele>
        <time>2018-04-28T08:37:51Z</time>
      </trkpt>
      <trkpt lat="38.1009350" lon="-3.8823410">
        <ele>313.6</ele>
        <time>2018-04-28T08:37:52Z</time>
      </trkpt>
      <trkpt lat="38.1009530" lon="-3.8822970">
        <ele>313.8</ele>
        <time>2018-04-28T08:37:53Z</time>
      </trkpt>
      <trkpt lat="38.1009720" lon="-3.8822530">
        <ele>313.8</ele>
        <time>2018-04-28T08:37:54Z</time>
      </trkpt>
      <trkpt lat="38.1009940" lon="-3.8822050">
        <ele>313.8</ele>
        <time>2018-04-28T08:37:55Z</time>
      </trkpt>
      <trkpt lat="38.1010140" lon="-3.8821570">
        <ele>313.6</ele>
        <time>2018-04-28T08:37:56Z</time>
      </trkpt>
      <trkpt lat="38.1010390" lon="-3.8821100">
        <ele>313.2</ele>
        <time>2018-04-28T08:37:57Z</time>
      </trkpt>
      <trkpt lat="38.1010740" lon="-3.8820650">
        <ele>312.8</ele>
        <time>2018-04-28T08:37:58Z</time>
      </trkpt>
      <trkpt lat="38.1011070" lon="-3.8820170">
        <ele>312.6</ele>
        <time>2018-04-28T08:37:59Z</time>
      </trkpt>
      <trkpt lat="38.1011340" lon="-3.8819620">
        <ele>312.4</ele>
        <time>2018-04-28T08:38:00Z</time>
      </trkpt>
      <trkpt lat="38.1011450" lon="-3.8819010">
        <ele>312.0</ele>
        <time>2018-04-28T08:38:01Z</time>
      </trkpt>
      <trkpt lat="38.1011560" lon="-3.8818330">
        <ele>312.0</ele>
        <time>2018-04-28T08:38:02Z</time>
      </trkpt>
      <trkpt lat="38.1011700" lon="-3.8817600">
        <ele>311.8</ele>
        <time>2018-04-28T08:38:03Z</time>
      </trkpt>
      <trkpt lat="38.1011820" lon="-3.8816840">
        <ele>311.8</ele>
        <time>2018-04-28T08:38:04Z</time>
      </trkpt>
      <trkpt lat="38.1012030" lon="-3.8816110">
        <ele>311.8</ele>
        <time>2018-04-28T08:38:05Z</time>
      </trkpt>
      <trkpt lat="38.1012170" lon="-3.8815370">
        <ele>311.8</ele>
        <time>2018-04-28T08:38:06Z</time>
      </trkpt>
      <trkpt lat="38.1012260" lon="-3.8814620">
        <ele>312.0</ele>
        <time>2018-04-28T08:38:07Z</time>
      </trkpt>
      <trkpt lat="38.1012330" lon="-3.8813870">
        <ele>312.4</ele>
        <time>2018-04-28T08:38:08Z</time>
      </trkpt>
      <trkpt lat="38.1012340" lon="-3.8813140">
        <ele>312.6</ele>
        <time>2018-04-28T08:38:09Z</time>
      </trkpt>
      <trkpt lat="38.1012320" lon="-3.8812450">
        <ele>312.8</ele>
        <time>2018-04-28T08:38:10Z</time>
      </trkpt>
      <trkpt lat="38.1012300" lon="-3.8811760">
        <ele>313.2</ele>
        <time>2018-04-28T08:38:11Z</time>
      </trkpt>
      <trkpt lat="38.1012280" lon="-3.8811090">
        <ele>313.4</ele>
        <time>2018-04-28T08:38:12Z</time>
      </trkpt>
      <trkpt lat="38.1012200" lon="-3.8810500">
        <ele>313.4</ele>
        <time>2018-04-28T08:38:13Z</time>
      </trkpt>
      <trkpt lat="38.1012220" lon="-3.8809850">
        <ele>313.6</ele>
        <time>2018-04-28T08:38:14Z</time>
      </trkpt>
      <trkpt lat="38.1012250" lon="-3.8809190">
        <ele>313.6</ele>
        <time>2018-04-28T08:38:15Z</time>
      </trkpt>
      <trkpt lat="38.1012280" lon="-3.8808570">
        <ele>313.8</ele>
        <time>2018-04-28T08:38:16Z</time>
      </trkpt>
      <trkpt lat="38.1012330" lon="-3.8807950">
        <ele>313.8</ele>
        <time>2018-04-28T08:38:17Z</time>
      </trkpt>
      <trkpt lat="38.1012440" lon="-3.8807330">
        <ele>314.0</ele>
        <time>2018-04-28T08:38:18Z</time>
      </trkpt>
      <trkpt lat="38.1012570" lon="-3.8806700">
        <ele>314.0</ele>
        <time>2018-04-28T08:38:19Z</time>
      </trkpt>
      <trkpt lat="38.1012700" lon="-3.8806080">
        <ele>314.2</ele>
        <time>2018-04-28T08:38:20Z</time>
      </trkpt>
      <trkpt lat="38.1012870" lon="-3.8805460">
        <ele>314.2</ele>
        <time>2018-04-28T08:38:21Z</time>
      </trkpt>
      <trkpt lat="38.1013090" lon="-3.8804880">
        <ele>314.2</ele>
        <time>2018-04-28T08:38:22Z</time>
      </trkpt>
      <trkpt lat="38.1013360" lon="-3.8804350">
        <ele>314.2</ele>
        <time>2018-04-28T08:38:23Z</time>
      </trkpt>
      <trkpt lat="38.1013740" lon="-3.8803900">
        <ele>314.4</ele>
        <time>2018-04-28T08:38:24Z</time>
      </trkpt>
      <trkpt lat="38.1014140" lon="-3.8803530">
        <ele>314.4</ele>
        <time>2018-04-28T08:38:25Z</time>
      </trkpt>
      <trkpt lat="38.1014640" lon="-3.8803200">
        <ele>314.4</ele>
        <time>2018-04-28T08:38:26Z</time>
      </trkpt>
      <trkpt lat="38.1015100" lon="-3.8802850">
        <ele>314.4</ele>
        <time>2018-04-28T08:38:27Z</time>
      </trkpt>
      <trkpt lat="38.1015510" lon="-3.8802510">
        <ele>314.2</ele>
        <time>2018-04-28T08:38:28Z</time>
      </trkpt>
      <trkpt lat="38.1015960" lon="-3.8802170">
        <ele>314.0</ele>
        <time>2018-04-28T08:38:29Z</time>
      </trkpt>
      <trkpt lat="38.1016420" lon="-3.8801800">
        <ele>313.8</ele>
        <time>2018-04-28T08:38:30Z</time>
      </trkpt>
      <trkpt lat="38.1016920" lon="-3.8801420">
        <ele>313.6</ele>
        <time>2018-04-28T08:38:31Z</time>
      </trkpt>
      <trkpt lat="38.1017440" lon="-3.8801030">
        <ele>313.6</ele>
        <time>2018-04-28T08:38:32Z</time>
      </trkpt>
      <trkpt lat="38.1017970" lon="-3.8800590">
        <ele>313.2</ele>
        <time>2018-04-28T08:38:33Z</time>
      </trkpt>
      <trkpt lat="38.1018460" lon="-3.8800030">
        <ele>313.0</ele>
        <time>2018-04-28T08:38:34Z</time>
      </trkpt>
      <trkpt lat="38.1018930" lon="-3.8799420">
        <ele>312.6</ele>
        <time>2018-04-28T08:38:35Z</time>
      </trkpt>
      <trkpt lat="38.1019380" lon="-3.8798810">
        <ele>312.6</ele>
        <time>2018-04-28T08:38:36Z</time>
      </trkpt>
      <trkpt lat="38.1019830" lon="-3.8798170">
        <ele>312.4</ele>
        <time>2018-04-28T08:38:37Z</time>
      </trkpt>
      <trkpt lat="38.1020270" lon="-3.8797560">
        <ele>312.6</ele>
        <time>2018-04-28T08:38:38Z</time>
      </trkpt>
      <trkpt lat="38.1020740" lon="-3.8796970">
        <ele>312.6</ele>
        <time>2018-04-28T08:38:39Z</time>
      </trkpt>
      <trkpt lat="38.1021140" lon="-3.8796380">
        <ele>312.6</ele>
        <time>2018-04-28T08:38:40Z</time>
      </trkpt>
      <trkpt lat="38.1021480" lon="-3.8795780">
        <ele>312.6</ele>
        <time>2018-04-28T08:38:41Z</time>
      </trkpt>
      <trkpt lat="38.1021770" lon="-3.8795140">
        <ele>312.8</ele>
        <time>2018-04-28T08:38:42Z</time>
      </trkpt>
      <trkpt lat="38.1021990" lon="-3.8794470">
        <ele>312.8</ele>
        <time>2018-04-28T08:38:43Z</time>
      </trkpt>
      <trkpt lat="38.1022120" lon="-3.8793760">
        <ele>312.8</ele>
        <time>2018-04-28T08:38:44Z</time>
      </trkpt>
      <trkpt lat="38.1022200" lon="-3.8793020">
        <ele>312.6</ele>
        <time>2018-04-28T08:38:45Z</time>
      </trkpt>
      <trkpt lat="38.1022280" lon="-3.8792260">
        <ele>312.4</ele>
        <time>2018-04-28T08:38:46Z</time>
      </trkpt>
      <trkpt lat="38.1022350" lon="-3.8791460">
        <ele>312.2</ele>
        <time>2018-04-28T08:38:47Z</time>
      </trkpt>
      <trkpt lat="38.1022420" lon="-3.8790630">
        <ele>312.2</ele>
        <time>2018-04-28T08:38:48Z</time>
      </trkpt>
      <trkpt lat="38.1022480" lon="-3.8789770">
        <ele>311.6</ele>
        <time>2018-04-28T08:38:49Z</time>
      </trkpt>
      <trkpt lat="38.1022590" lon="-3.8788870">
        <ele>311.6</ele>
        <time>2018-04-28T08:38:50Z</time>
      </trkpt>
      <trkpt lat="38.1022700" lon="-3.8787970">
        <ele>311.2</ele>
        <time>2018-04-28T08:38:51Z</time>
      </trkpt>
      <trkpt lat="38.1022810" lon="-3.8787030">
        <ele>311.2</ele>
        <time>2018-04-28T08:38:52Z</time>
      </trkpt>
      <trkpt lat="38.1022990" lon="-3.8785190">
        <ele>311.0</ele>
        <time>2018-04-28T08:38:53Z</time>
      </trkpt>
      <trkpt lat="38.1023090" lon="-3.8784300">
        <ele>310.4</ele>
        <time>2018-04-28T08:38:54Z</time>
      </trkpt>
      <trkpt lat="38.1023170" lon="-3.8783350">
        <ele>310.2</ele>
        <time>2018-04-28T08:38:55Z</time>
      </trkpt>
      <trkpt lat="38.1023240" lon="-3.8782390">
        <ele>310.0</ele>
        <time>2018-04-28T08:38:56Z</time>
      </trkpt>
      <trkpt lat="38.1023300" lon="-3.8781440">
        <ele>310.0</ele>
        <time>2018-04-28T08:38:57Z</time>
      </trkpt>
      <trkpt lat="38.1023330" lon="-3.8780500">
        <ele>309.4</ele>
        <time>2018-04-28T08:38:58Z</time>
      </trkpt>
      <trkpt lat="38.1023360" lon="-3.8779570">
        <ele>309.4</ele>
        <time>2018-04-28T08:38:59Z</time>
      </trkpt>
      <trkpt lat="38.1023440" lon="-3.8778640">
        <ele>309.2</ele>
        <time>2018-04-28T08:39:00Z</time>
      </trkpt>
      <trkpt lat="38.1023560" lon="-3.8777720">
        <ele>308.8</ele>
        <time>2018-04-28T08:39:01Z</time>
      </trkpt>
      <trkpt lat="38.1023700" lon="-3.8776840">
        <ele>309.0</ele>
        <time>2018-04-28T08:39:02Z</time>
      </trkpt>
      <trkpt lat="38.1023850" lon="-3.8775990">
        <ele>308.8</ele>
        <time>2018-04-28T08:39:03Z</time>
      </trkpt>
      <trkpt lat="38.1023970" lon="-3.8775150">
        <ele>308.6</ele>
        <time>2018-04-28T08:39:04Z</time>
      </trkpt>
      <trkpt lat="38.1024030" lon="-3.8774310">
        <ele>308.8</ele>
        <time>2018-04-28T08:39:05Z</time>
      </trkpt>
      <trkpt lat="38.1024060" lon="-3.8773470">
        <ele>308.6</ele>
        <time>2018-04-28T08:39:06Z</time>
      </trkpt>
      <trkpt lat="38.1024120" lon="-3.8772610">
        <ele>308.6</ele>
        <time>2018-04-28T08:39:07Z</time>
      </trkpt>
      <trkpt lat="38.1024240" lon="-3.8771750">
        <ele>308.4</ele>
        <time>2018-04-28T08:39:08Z</time>
      </trkpt>
      <trkpt lat="38.1024360" lon="-3.8770860">
        <ele>308.2</ele>
        <time>2018-04-28T08:39:09Z</time>
      </trkpt>
      <trkpt lat="38.1024530" lon="-3.8769960">
        <ele>307.8</ele>
        <time>2018-04-28T08:39:10Z</time>
      </trkpt>
      <trkpt lat="38.1024730" lon="-3.8769010">
        <ele>307.4</ele>
        <time>2018-04-28T08:39:11Z</time>
      </trkpt>
      <trkpt lat="38.1024930" lon="-3.8768040">
        <ele>307.0</ele>
        <time>2018-04-28T08:39:12Z</time>
      </trkpt>
      <trkpt lat="38.1025110" lon="-3.8767020">
        <ele>306.8</ele>
        <time>2018-04-28T08:39:13Z</time>
      </trkpt>
      <trkpt lat="38.1025260" lon="-3.8766030">
        <ele>306.6</ele>
        <time>2018-04-28T08:39:14Z</time>
      </trkpt>
      <trkpt lat="38.1025410" lon="-3.8765030">
        <ele>306.2</ele>
        <time>2018-04-28T08:39:15Z</time>
      </trkpt>
      <trkpt lat="38.1025550" lon="-3.8764010">
        <ele>305.8</ele>
        <time>2018-04-28T08:39:16Z</time>
      </trkpt>
      <trkpt lat="38.1025690" lon="-3.8762960">
        <ele>305.6</ele>
        <time>2018-04-28T08:39:17Z</time>
      </trkpt>
      <trkpt lat="38.1025840" lon="-3.8761900">
        <ele>305.0</ele>
        <time>2018-04-28T08:39:18Z</time>
      </trkpt>
      <trkpt lat="38.1026010" lon="-3.8760800">
        <ele>304.6</ele>
        <time>2018-04-28T08:39:19Z</time>
      </trkpt>
      <trkpt lat="38.1026120" lon="-3.8759690">
        <ele>304.2</ele>
        <time>2018-04-28T08:39:20Z</time>
      </trkpt>
      <trkpt lat="38.1026110" lon="-3.8758520">
        <ele>303.4</ele>
        <time>2018-04-28T08:39:21Z</time>
      </trkpt>
      <trkpt lat="38.1025990" lon="-3.8757320">
        <ele>302.6</ele>
        <time>2018-04-28T08:39:22Z</time>
      </trkpt>
      <trkpt lat="38.1025810" lon="-3.8756100">
        <ele>302.0</ele>
        <time>2018-04-28T08:39:23Z</time>
      </trkpt>
      <trkpt lat="38.1025670" lon="-3.8754840">
        <ele>301.4</ele>
        <time>2018-04-28T08:39:24Z</time>
      </trkpt>
      <trkpt lat="38.1025540" lon="-3.8753550">
        <ele>300.4</ele>
        <time>2018-04-28T08:39:25Z</time>
      </trkpt>
      <trkpt lat="38.1025400" lon="-3.8752240">
        <ele>299.8</ele>
        <time>2018-04-28T08:39:26Z</time>
      </trkpt>
      <trkpt lat="38.1025240" lon="-3.8750920">
        <ele>299.2</ele>
        <time>2018-04-28T08:39:27Z</time>
      </trkpt>
      <trkpt lat="38.1025050" lon="-3.8749610">
        <ele>298.4</ele>
        <time>2018-04-28T08:39:28Z</time>
      </trkpt>
      <trkpt lat="38.1024900" lon="-3.8748380">
        <ele>298.2</ele>
        <time>2018-04-28T08:39:29Z</time>
      </trkpt>
      <trkpt lat="38.1024810" lon="-3.8747260">
        <ele>297.8</ele>
        <time>2018-04-28T08:39:30Z</time>
      </trkpt>
      <trkpt lat="38.1024850" lon="-3.8746190">
        <ele>297.2</ele>
        <time>2018-04-28T08:39:31Z</time>
      </trkpt>
      <trkpt lat="38.1025080" lon="-3.8745190">
        <ele>297.0</ele>
        <time>2018-04-28T08:39:32Z</time>
      </trkpt>
      <trkpt lat="38.1025450" lon="-3.8744290">
        <ele>296.8</ele>
        <time>2018-04-28T08:39:33Z</time>
      </trkpt>
      <trkpt lat="38.1025860" lon="-3.8743390">
        <ele>296.8</ele>
        <time>2018-04-28T08:39:34Z</time>
      </trkpt>
      <trkpt lat="38.1026310" lon="-3.8742540">
        <ele>296.8</ele>
        <time>2018-04-28T08:39:35Z</time>
      </trkpt>
      <trkpt lat="38.1026790" lon="-3.8741710">
        <ele>296.6</ele>
        <time>2018-04-28T08:39:36Z</time>
      </trkpt>
      <trkpt lat="38.1027310" lon="-3.8740930">
        <ele>296.6</ele>
        <time>2018-04-28T08:39:37Z</time>
      </trkpt>
      <trkpt lat="38.1027830" lon="-3.8740150">
        <ele>296.0</ele>
        <time>2018-04-28T08:39:38Z</time>
      </trkpt>
      <trkpt lat="38.1028280" lon="-3.8739340">
        <ele>296.0</ele>
        <time>2018-04-28T08:39:39Z</time>
      </trkpt>
      <trkpt lat="38.1028630" lon="-3.8738440">
        <ele>296.0</ele>
        <time>2018-04-28T08:39:40Z</time>
      </trkpt>
      <trkpt lat="38.1028870" lon="-3.8737510">
        <ele>296.2</ele>
        <time>2018-04-28T08:39:41Z</time>
      </trkpt>
      <trkpt lat="38.1029010" lon="-3.8736550">
        <ele>296.2</ele>
        <time>2018-04-28T08:39:42Z</time>
      </trkpt>
      <trkpt lat="38.1029040" lon="-3.8735580">
        <ele>296.0</ele>
        <time>2018-04-28T08:39:43Z</time>
      </trkpt>
      <trkpt lat="38.1028970" lon="-3.8734600">
        <ele>295.8</ele>
        <time>2018-04-28T08:39:44Z</time>
      </trkpt>
      <trkpt lat="38.1028870" lon="-3.8733630">
        <ele>295.8</ele>
        <time>2018-04-28T08:39:45Z</time>
      </trkpt>
      <trkpt lat="38.1028770" lon="-3.8732670">
        <ele>295.6</ele>
        <time>2018-04-28T08:39:46Z</time>
      </trkpt>
      <trkpt lat="38.1028670" lon="-3.8731750">
        <ele>295.8</ele>
        <time>2018-04-28T08:39:47Z</time>
      </trkpt>
      <trkpt lat="38.1028610" lon="-3.8730840">
        <ele>295.6</ele>
        <time>2018-04-28T08:39:48Z</time>
      </trkpt>
      <trkpt lat="38.1028510" lon="-3.8729920">
        <ele>295.6</ele>
        <time>2018-04-28T08:39:49Z</time>
      </trkpt>
      <trkpt lat="38.1028420" lon="-3.8729000">
        <ele>295.6</ele>
        <time>2018-04-28T08:39:50Z</time>
      </trkpt>
      <trkpt lat="38.1028280" lon="-3.8728090">
        <ele>295.6</ele>
        <time>2018-04-28T08:39:51Z</time>
      </trkpt>
      <trkpt lat="38.1028090" lon="-3.8727200">
        <ele>295.6</ele>
        <time>2018-04-28T08:39:52Z</time>
      </trkpt>
      <trkpt lat="38.1027810" lon="-3.8726340">
        <ele>295.6</ele>
        <time>2018-04-28T08:39:53Z</time>
      </trkpt>
      <trkpt lat="38.1027530" lon="-3.8725500">
        <ele>295.6</ele>
        <time>2018-04-28T08:39:54Z</time>
      </trkpt>
      <trkpt lat="38.1027270" lon="-3.8724640">
        <ele>295.6</ele>
        <time>2018-04-28T08:39:55Z</time>
      </trkpt>
      <trkpt lat="38.1027120" lon="-3.8723740">
        <ele>295.6</ele>
        <time>2018-04-28T08:39:56Z</time>
      </trkpt>
      <trkpt lat="38.1027030" lon="-3.8722850">
        <ele>295.6</ele>
        <time>2018-04-28T08:39:57Z</time>
      </trkpt>
      <trkpt lat="38.1026940" lon="-3.8721970">
        <ele>295.6</ele>
        <time>2018-04-28T08:39:58Z</time>
      </trkpt>
      <trkpt lat="38.1026840" lon="-3.8721080">
        <ele>295.6</ele>
        <time>2018-04-28T08:39:59Z</time>
      </trkpt>
      <trkpt lat="38.1026700" lon="-3.8720200">
        <ele>295.6</ele>
        <time>2018-04-28T08:40:00Z</time>
      </trkpt>
      <trkpt lat="38.1026610" lon="-3.8719280">
        <ele>295.2</ele>
        <time>2018-04-28T08:40:01Z</time>
      </trkpt>
      <trkpt lat="38.1026520" lon="-3.8718320">
        <ele>295.2</ele>
        <time>2018-04-28T08:40:02Z</time>
      </trkpt>
      <trkpt lat="38.1026480" lon="-3.8717310">
        <ele>294.8</ele>
        <time>2018-04-28T08:40:03Z</time>
      </trkpt>
      <trkpt lat="38.1026470" lon="-3.8716280">
        <ele>294.2</ele>
        <time>2018-04-28T08:40:04Z</time>
      </trkpt>
      <trkpt lat="38.1026460" lon="-3.8715210">
        <ele>293.8</ele>
        <time>2018-04-28T08:40:05Z</time>
      </trkpt>
      <trkpt lat="38.1026440" lon="-3.8714150">
        <ele>293.6</ele>
        <time>2018-04-28T08:40:06Z</time>
      </trkpt>
      <trkpt lat="38.1026410" lon="-3.8713100">
        <ele>293.6</ele>
        <time>2018-04-28T08:40:07Z</time>
      </trkpt>
      <trkpt lat="38.1026410" lon="-3.8712050">
        <ele>293.2</ele>
        <time>2018-04-28T08:40:08Z</time>
      </trkpt>
      <trkpt lat="38.1026370" lon="-3.8711020">
        <ele>293.2</ele>
        <time>2018-04-28T08:40:09Z</time>
      </trkpt>
      <trkpt lat="38.1026350" lon="-3.8709980">
        <ele>293.0</ele>
        <time>2018-04-28T08:40:10Z</time>
      </trkpt>
      <trkpt lat="38.1026340" lon="-3.8708950">
        <ele>292.8</ele>
        <time>2018-04-28T08:40:11Z</time>
      </trkpt>
      <trkpt lat="38.1026290" lon="-3.8707910">
        <ele>292.8</ele>
        <time>2018-04-28T08:40:12Z</time>
      </trkpt>
      <trkpt lat="38.1026260" lon="-3.8706900">
        <ele>292.6</ele>
        <time>2018-04-28T08:40:13Z</time>
      </trkpt>
      <trkpt lat="38.1026230" lon="-3.8705910">
        <ele>292.6</ele>
        <time>2018-04-28T08:40:14Z</time>
      </trkpt>
      <trkpt lat="38.1026230" lon="-3.8704930">
        <ele>292.6</ele>
        <time>2018-04-28T08:40:15Z</time>
      </trkpt>
      <trkpt lat="38.1026190" lon="-3.8703940">
        <ele>292.6</ele>
        <time>2018-04-28T08:40:16Z</time>
      </trkpt>
      <trkpt lat="38.1026170" lon="-3.8702950">
        <ele>292.4</ele>
        <time>2018-04-28T08:40:17Z</time>
      </trkpt>
      <trkpt lat="38.1026110" lon="-3.8701990">
        <ele>292.4</ele>
        <time>2018-04-28T08:40:18Z</time>
      </trkpt>
      <trkpt lat="38.1026010" lon="-3.8701040">
        <ele>292.4</ele>
        <time>2018-04-28T08:40:19Z</time>
      </trkpt>
      <trkpt lat="38.1025900" lon="-3.8700110">
        <ele>292.6</ele>
        <time>2018-04-28T08:40:20Z</time>
      </trkpt>
      <trkpt lat="38.1025830" lon="-3.8699190">
        <ele>292.6</ele>
        <time>2018-04-28T08:40:21Z</time>
      </trkpt>
      <trkpt lat="38.1025800" lon="-3.8698290">
        <ele>292.4</ele>
        <time>2018-04-28T08:40:22Z</time>
      </trkpt>
      <trkpt lat="38.1025800" lon="-3.8697480">
        <ele>292.2</ele>
        <time>2018-04-28T08:40:23Z</time>
      </trkpt>
      <trkpt lat="38.1025920" lon="-3.8696640">
        <ele>292.2</ele>
        <time>2018-04-28T08:40:24Z</time>
      </trkpt>
      <trkpt lat="38.1026060" lon="-3.8695720">
        <ele>291.8</ele>
        <time>2018-04-28T08:40:25Z</time>
      </trkpt>
      <trkpt lat="38.1026230" lon="-3.8694780">
        <ele>291.6</ele>
        <time>2018-04-28T08:40:26Z</time>
      </trkpt>
      <trkpt lat="38.1026420" lon="-3.8693830">
        <ele>291.4</ele>
        <time>2018-04-28T08:40:27Z</time>
      </trkpt>
      <trkpt lat="38.1026610" lon="-3.8692900">
        <ele>291.4</ele>
        <time>2018-04-28T08:40:28Z</time>
      </trkpt>
      <trkpt lat="38.1026800" lon="-3.8692020">
        <ele>291.2</ele>
        <time>2018-04-28T08:40:29Z</time>
      </trkpt>
      <trkpt lat="38.1026950" lon="-3.8691130">
        <ele>291.4</ele>
        <time>2018-04-28T08:40:30Z</time>
      </trkpt>
      <trkpt lat="38.1027000" lon="-3.8690230">
        <ele>291.4</ele>
        <time>2018-04-28T08:40:31Z</time>
      </trkpt>
      <trkpt lat="38.1027070" lon="-3.8689330">
        <ele>291.8</ele>
        <time>2018-04-28T08:40:32Z</time>
      </trkpt>
      <trkpt lat="38.1027070" lon="-3.8688470">
        <ele>291.6</ele>
        <time>2018-04-28T08:40:33Z</time>
      </trkpt>
      <trkpt lat="38.1027130" lon="-3.8687600">
        <ele>291.8</ele>
        <time>2018-04-28T08:40:34Z</time>
      </trkpt>
      <trkpt lat="38.1027150" lon="-3.8686720">
        <ele>291.6</ele>
        <time>2018-04-28T08:40:35Z</time>
      </trkpt>
      <trkpt lat="38.1027130" lon="-3.8685820">
        <ele>291.6</ele>
        <time>2018-04-28T08:40:36Z</time>
      </trkpt>
      <trkpt lat="38.1027090" lon="-3.8684930">
        <ele>291.2</ele>
        <time>2018-04-28T08:40:37Z</time>
      </trkpt>
      <trkpt lat="38.1026990" lon="-3.8683990">
        <ele>291.0</ele>
        <time>2018-04-28T08:40:38Z</time>
      </trkpt>
      <trkpt lat="38.1026960" lon="-3.8683050">
        <ele>291.0</ele>
        <time>2018-04-28T08:40:39Z</time>
      </trkpt>
      <trkpt lat="38.1026960" lon="-3.8682120">
        <ele>290.8</ele>
        <time>2018-04-28T08:40:40Z</time>
      </trkpt>
      <trkpt lat="38.1026960" lon="-3.8681190">
        <ele>290.8</ele>
        <time>2018-04-28T08:40:41Z</time>
      </trkpt>
      <trkpt lat="38.1027030" lon="-3.8680240">
        <ele>290.6</ele>
        <time>2018-04-28T08:40:42Z</time>
      </trkpt>
      <trkpt lat="38.1027150" lon="-3.8679250">
        <ele>290.6</ele>
        <time>2018-04-28T08:40:43Z</time>
      </trkpt>
      <trkpt lat="38.1027210" lon="-3.8678310">
        <ele>290.4</ele>
        <time>2018-04-28T08:40:44Z</time>
      </trkpt>
      <trkpt lat="38.1027230" lon="-3.8677370">
        <ele>290.2</ele>
        <time>2018-04-28T08:40:45Z</time>
      </trkpt>
      <trkpt lat="38.1027260" lon="-3.8676420">
        <ele>290.0</ele>
        <time>2018-04-28T08:40:46Z</time>
      </trkpt>
      <trkpt lat="38.1027280" lon="-3.8675480">
        <ele>289.8</ele>
        <time>2018-04-28T08:40:47Z</time>
      </trkpt>
      <trkpt lat="38.1027370" lon="-3.8674530">
        <ele>289.8</ele>
        <time>2018-04-28T08:40:48Z</time>
      </trkpt>
      <trkpt lat="38.1027460" lon="-3.8673600">
        <ele>290.0</ele>
        <time>2018-04-28T08:40:49Z</time>
      </trkpt>
      <trkpt lat="38.1027500" lon="-3.8672650">
        <ele>289.4</ele>
        <time>2018-04-28T08:40:50Z</time>
      </trkpt>
      <trkpt lat="38.1027550" lon="-3.8671700">
        <ele>289.2</ele>
        <time>2018-04-28T08:40:51Z</time>
      </trkpt>
      <trkpt lat="38.1027610" lon="-3.8670760">
        <ele>289.0</ele>
        <time>2018-04-28T08:40:52Z</time>
      </trkpt>
      <trkpt lat="38.1027690" lon="-3.8669710">
        <ele>289.0</ele>
        <time>2018-04-28T08:40:53Z</time>
      </trkpt>
      <trkpt lat="38.1027820" lon="-3.8668800">
        <ele>288.8</ele>
        <time>2018-04-28T08:40:54Z</time>
      </trkpt>
      <trkpt lat="38.1027950" lon="-3.8667840">
        <ele>288.8</ele>
        <time>2018-04-28T08:40:55Z</time>
      </trkpt>
      <trkpt lat="38.1028040" lon="-3.8666920">
        <ele>288.4</ele>
        <time>2018-04-28T08:40:56Z</time>
      </trkpt>
      <trkpt lat="38.1028180" lon="-3.8665970">
        <ele>288.4</ele>
        <time>2018-04-28T08:40:57Z</time>
      </trkpt>
      <trkpt lat="38.1028400" lon="-3.8664990">
        <ele>288.2</ele>
        <time>2018-04-28T08:40:58Z</time>
      </trkpt>
      <trkpt lat="38.1028610" lon="-3.8664060">
        <ele>288.0</ele>
        <time>2018-04-28T08:40:59Z</time>
      </trkpt>
      <trkpt lat="38.1028870" lon="-3.8663090">
        <ele>287.8</ele>
        <time>2018-04-28T08:41:00Z</time>
      </trkpt>
      <trkpt lat="38.1029110" lon="-3.8662110">
        <ele>287.6</ele>
        <time>2018-04-28T08:41:01Z</time>
      </trkpt>
      <trkpt lat="38.1029310" lon="-3.8661140">
        <ele>287.2</ele>
        <time>2018-04-28T08:41:02Z</time>
      </trkpt>
      <trkpt lat="38.1029510" lon="-3.8660150">
        <ele>287.4</ele>
        <time>2018-04-28T08:41:03Z</time>
      </trkpt>
      <trkpt lat="38.1029720" lon="-3.8659150">
        <ele>287.0</ele>
        <time>2018-04-28T08:41:04Z</time>
      </trkpt>
      <trkpt lat="38.1029900" lon="-3.8658140">
        <ele>287.0</ele>
        <time>2018-04-28T08:41:05Z</time>
      </trkpt>
      <trkpt lat="38.1030110" lon="-3.8657150">
        <ele>287.0</ele>
        <time>2018-04-28T08:41:06Z</time>
      </trkpt>
      <trkpt lat="38.1030330" lon="-3.8656180">
        <ele>287.0</ele>
        <time>2018-04-28T08:41:07Z</time>
      </trkpt>
      <trkpt lat="38.1030550" lon="-3.8655210">
        <ele>286.4</ele>
        <time>2018-04-28T08:41:08Z</time>
      </trkpt>
      <trkpt lat="38.1030770" lon="-3.8654260">
        <ele>286.4</ele>
        <time>2018-04-28T08:41:09Z</time>
      </trkpt>
      <trkpt lat="38.1031050" lon="-3.8653350">
        <ele>286.4</ele>
        <time>2018-04-28T08:41:10Z</time>
      </trkpt>
      <trkpt lat="38.1031400" lon="-3.8652500">
        <ele>286.4</ele>
        <time>2018-04-28T08:41:11Z</time>
      </trkpt>
      <trkpt lat="38.1031790" lon="-3.8651700">
        <ele>286.4</ele>
        <time>2018-04-28T08:41:12Z</time>
      </trkpt>
      <trkpt lat="38.1032200" lon="-3.8650930">
        <ele>286.2</ele>
        <time>2018-04-28T08:41:13Z</time>
      </trkpt>
      <trkpt lat="38.1032640" lon="-3.8650170">
        <ele>286.2</ele>
        <time>2018-04-28T08:41:14Z</time>
      </trkpt>
      <trkpt lat="38.1033090" lon="-3.8649400">
        <ele>285.8</ele>
        <time>2018-04-28T08:41:15Z</time>
      </trkpt>
      <trkpt lat="38.1033580" lon="-3.8648660">
        <ele>285.8</ele>
        <time>2018-04-28T08:41:16Z</time>
      </trkpt>
      <trkpt lat="38.1034050" lon="-3.8647920">
        <ele>285.6</ele>
        <time>2018-04-28T08:41:17Z</time>
      </trkpt>
      <trkpt lat="38.1034510" lon="-3.8647150">
        <ele>285.6</ele>
        <time>2018-04-28T08:41:18Z</time>
      </trkpt>
      <trkpt lat="38.1034930" lon="-3.8646350">
        <ele>285.6</ele>
        <time>2018-04-28T08:41:19Z</time>
      </trkpt>
      <trkpt lat="38.1035330" lon="-3.8645550">
        <ele>285.4</ele>
        <time>2018-04-28T08:41:20Z</time>
      </trkpt>
      <trkpt lat="38.1035750" lon="-3.8644770">
        <ele>285.4</ele>
        <time>2018-04-28T08:41:21Z</time>
      </trkpt>
      <trkpt lat="38.1036220" lon="-3.8644000">
        <ele>285.2</ele>
        <time>2018-04-28T08:41:22Z</time>
      </trkpt>
      <trkpt lat="38.1036700" lon="-3.8643250">
        <ele>285.2</ele>
        <time>2018-04-28T08:41:23Z</time>
      </trkpt>
      <trkpt lat="38.1037210" lon="-3.8642520">
        <ele>284.8</ele>
        <time>2018-04-28T08:41:24Z</time>
      </trkpt>
      <trkpt lat="38.1037750" lon="-3.8641790">
        <ele>284.8</ele>
        <time>2018-04-28T08:41:25Z</time>
      </trkpt>
      <trkpt lat="38.1038260" lon="-3.8641070">
        <ele>284.8</ele>
        <time>2018-04-28T08:41:26Z</time>
      </trkpt>
      <trkpt lat="38.1038800" lon="-3.8640360">
        <ele>284.6</ele>
        <time>2018-04-28T08:41:27Z</time>
      </trkpt>
      <trkpt lat="38.1039330" lon="-3.8639650">
        <ele>284.8</ele>
        <time>2018-04-28T08:41:28Z</time>
      </trkpt>
      <trkpt lat="38.1039810" lon="-3.8638910">
        <ele>284.4</ele>
        <time>2018-04-28T08:41:29Z</time>
      </trkpt>
      <trkpt lat="38.1040200" lon="-3.8638120">
        <ele>284.4</ele>
        <time>2018-04-28T08:41:30Z</time>
      </trkpt>
      <trkpt lat="38.1040480" lon="-3.8637270">
        <ele>284.6</ele>
        <time>2018-04-28T08:41:31Z</time>
      </trkpt>
      <trkpt lat="38.1040710" lon="-3.8636370">
        <ele>284.4</ele>
        <time>2018-04-28T08:41:32Z</time>
      </trkpt>
      <trkpt lat="38.1040930" lon="-3.8635460">
        <ele>284.2</ele>
        <time>2018-04-28T08:41:33Z</time>
      </trkpt>
      <trkpt lat="38.1041130" lon="-3.8634550">
        <ele>283.8</ele>
        <time>2018-04-28T08:41:34Z</time>
      </trkpt>
      <trkpt lat="38.1041330" lon="-3.8633630">
        <ele>283.6</ele>
        <time>2018-04-28T08:41:35Z</time>
      </trkpt>
      <trkpt lat="38.1041560" lon="-3.8632720">
        <ele>283.6</ele>
        <time>2018-04-28T08:41:36Z</time>
      </trkpt>
      <trkpt lat="38.1041760" lon="-3.8631830">
        <ele>283.4</ele>
        <time>2018-04-28T08:41:37Z</time>
      </trkpt>
      <trkpt lat="38.1041950" lon="-3.8631040">
        <ele>283.2</ele>
        <time>2018-04-28T08:41:38Z</time>
      </trkpt>
      <trkpt lat="38.1042050" lon="-3.8630530">
        <ele>283.2</ele>
        <time>2018-04-28T08:41:39Z</time>
      </trkpt>
      <trkpt lat="38.1042100" lon="-3.8630180">
        <ele>283.2</ele>
        <time>2018-04-28T08:41:40Z</time>
      </trkpt>
      <trkpt lat="38.1042090" lon="-3.8629860">
        <ele>283.2</ele>
        <time>2018-04-28T08:41:41Z</time>
      </trkpt>
      <trkpt lat="38.1042060" lon="-3.8629530">
        <ele>283.2</ele>
        <time>2018-04-28T08:41:42Z</time>
      </trkpt>
      <trkpt lat="38.1042010" lon="-3.8629230">
        <ele>283.2</ele>
        <time>2018-04-28T08:41:43Z</time>
      </trkpt>
      <trkpt lat="38.1041990" lon="-3.8628950">
        <ele>283.2</ele>
        <time>2018-04-28T08:41:44Z</time>
      </trkpt>
      <trkpt lat="38.1041970" lon="-3.8628670">
        <ele>283.2</ele>
        <time>2018-04-28T08:41:45Z</time>
      </trkpt>
      <trkpt lat="38.1041940" lon="-3.8628430">
        <ele>283.2</ele>
        <time>2018-04-28T08:41:46Z</time>
      </trkpt>
      <trkpt lat="38.1041910" lon="-3.8628180">
        <ele>283.2</ele>
        <time>2018-04-28T08:41:47Z</time>
      </trkpt>
      <trkpt lat="38.1041870" lon="-3.8627960">
        <ele>283.2</ele>
        <time>2018-04-28T08:41:48Z</time>
      </trkpt>
      <trkpt lat="38.1041850" lon="-3.8627770">
        <ele>283.2</ele>
        <time>2018-04-28T08:41:49Z</time>
      </trkpt>
      <trkpt lat="38.1041820" lon="-3.8627630">
        <ele>283.2</ele>
        <time>2018-04-28T08:41:50Z</time>
      </trkpt>
      <trkpt lat="38.1041780" lon="-3.8627480">
        <ele>283.2</ele>
        <time>2018-04-28T08:41:51Z</time>
      </trkpt>
      <trkpt lat="38.1041760" lon="-3.8627240">
        <ele>283.0</ele>
        <time>2018-04-28T08:41:52Z</time>
      </trkpt>
      <trkpt lat="38.1041760" lon="-3.8626940">
        <ele>282.6</ele>
        <time>2018-04-28T08:41:53Z</time>
      </trkpt>
      <trkpt lat="38.1041830" lon="-3.8626540">
        <ele>282.2</ele>
        <time>2018-04-28T08:41:54Z</time>
      </trkpt>
      <trkpt lat="38.1041920" lon="-3.8626180">
        <ele>282.2</ele>
        <time>2018-04-28T08:41:55Z</time>
      </trkpt>
      <trkpt lat="38.1042050" lon="-3.8625860">
        <ele>282.2</ele>
        <time>2018-04-28T08:41:56Z</time>
      </trkpt>
      <trkpt lat="38.1042170" lon="-3.8625610">
        <ele>282.2</ele>
        <time>2018-04-28T08:41:57Z</time>
      </trkpt>
      <trkpt lat="38.1042300" lon="-3.8625380">
        <ele>282.2</ele>
        <time>2018-04-28T08:41:58Z</time>
      </trkpt>
      <trkpt lat="38.1042400" lon="-3.8625150">
        <ele>282.2</ele>
        <time>2018-04-28T08:41:59Z</time>
      </trkpt>
      <trkpt lat="38.1042480" lon="-3.8624930">
        <ele>282.2</ele>
        <time>2018-04-28T08:42:00Z</time>
      </trkpt>
      <trkpt lat="38.1042570" lon="-3.8624710">
        <ele>282.2</ele>
        <time>2018-04-28T08:42:01Z</time>
      </trkpt>
      <trkpt lat="38.1042670" lon="-3.8624500">
        <ele>282.2</ele>
        <time>2018-04-28T08:42:02Z</time>
      </trkpt>
      <trkpt lat="38.1042740" lon="-3.8624310">
        <ele>282.2</ele>
        <time>2018-04-28T08:42:03Z</time>
      </trkpt>
      <trkpt lat="38.1042830" lon="-3.8624120">
        <ele>282.2</ele>
        <time>2018-04-28T08:42:04Z</time>
      </trkpt>
      <trkpt lat="38.1042900" lon="-3.8623940">
        <ele>282.0</ele>
        <time>2018-04-28T08:42:05Z</time>
      </trkpt>
      <trkpt lat="38.1042960" lon="-3.8623790">
        <ele>282.0</ele>
        <time>2018-04-28T08:42:06Z</time>
      </trkpt>
      <trkpt lat="38.1043020" lon="-3.8623610">
        <ele>282.0</ele>
        <time>2018-04-28T08:42:07Z</time>
      </trkpt>
      <trkpt lat="38.1043100" lon="-3.8623400">
        <ele>282.0</ele>
        <time>2018-04-28T08:42:08Z</time>
      </trkpt>
      <trkpt lat="38.1043160" lon="-3.8623150">
        <ele>281.8</ele>
        <time>2018-04-28T08:42:09Z</time>
      </trkpt>
      <trkpt lat="38.1043230" lon="-3.8622860">
        <ele>281.8</ele>
        <time>2018-04-28T08:42:10Z</time>
      </trkpt>
      <trkpt lat="38.1043300" lon="-3.8622570">
        <ele>281.6</ele>
        <time>2018-04-28T08:42:11Z</time>
      </trkpt>
      <trkpt lat="38.1043350" lon="-3.8622300">
        <ele>281.6</ele>
        <time>2018-04-28T08:42:12Z</time>
      </trkpt>
      <trkpt lat="38.1043370" lon="-3.8622040">
        <ele>281.6</ele>
        <time>2018-04-28T08:42:13Z</time>
      </trkpt>
      <trkpt lat="38.1043360" lon="-3.8621830">
        <ele>281.6</ele>
        <time>2018-04-28T08:42:14Z</time>
      </trkpt>
      <trkpt lat="38.1043350" lon="-3.8621610">
        <ele>281.8</ele>
        <time>2018-04-28T08:42:15Z</time>
      </trkpt>
      <trkpt lat="38.1043360" lon="-3.8621400">
        <ele>281.6</ele>
        <time>2018-04-28T08:42:16Z</time>
      </trkpt>
      <trkpt lat="38.1043360" lon="-3.8621180">
        <ele>281.6</ele>
        <time>2018-04-28T08:42:17Z</time>
      </trkpt>
      <trkpt lat="38.1043390" lon="-3.8620980">
        <ele>281.6</ele>
        <time>2018-04-28T08:42:18Z</time>
      </trkpt>
      <trkpt lat="38.1043420" lon="-3.8620860">
        <ele>281.6</ele>
        <time>2018-04-28T08:42:19Z</time>
      </trkpt>
      <trkpt lat="38.1043450" lon="-3.8620730">
        <ele>281.6</ele>
        <time>2018-04-28T08:42:20Z</time>
      </trkpt>
      <trkpt lat="38.1043460" lon="-3.8620620">
        <ele>281.6</ele>
        <time>2018-04-28T08:42:21Z</time>
      </trkpt>
      <trkpt lat="38.1043430" lon="-3.8620410">
        <ele>281.6</ele>
        <time>2018-04-28T08:42:22Z</time>
      </trkpt>
      <trkpt lat="38.1043400" lon="-3.8620160">
        <ele>282.0</ele>
        <time>2018-04-28T08:42:23Z</time>
      </trkpt>
      <trkpt lat="38.1043360" lon="-3.8619780">
        <ele>282.2</ele>
        <time>2018-04-28T08:42:24Z</time>
      </trkpt>
      <trkpt lat="38.1043340" lon="-3.8619600">
        <ele>282.4</ele>
        <time>2018-04-28T08:42:25Z</time>
      </trkpt>
      <trkpt lat="38.1043310" lon="-3.8619420">
        <ele>282.6</ele>
        <time>2018-04-28T08:42:26Z</time>
      </trkpt>
      <trkpt lat="38.1043290" lon="-3.8619240">
        <ele>282.6</ele>
        <time>2018-04-28T08:42:27Z</time>
      </trkpt>
      <trkpt lat="38.1043270" lon="-3.8619060">
        <ele>282.6</ele>
        <time>2018-04-28T08:42:28Z</time>
      </trkpt>
      <trkpt lat="38.1043250" lon="-3.8618880">
        <ele>282.6</ele>
        <time>2018-04-28T08:42:29Z</time>
      </trkpt>
      <trkpt lat="38.1043220" lon="-3.8618700">
        <ele>282.8</ele>
        <time>2018-04-28T08:42:30Z</time>
      </trkpt>
      <trkpt lat="38.1043200" lon="-3.8618520">
        <ele>282.8</ele>
        <time>2018-04-28T08:42:31Z</time>
      </trkpt>
      <trkpt lat="38.1043180" lon="-3.8618340">
        <ele>282.8</ele>
        <time>2018-04-28T08:42:32Z</time>
      </trkpt>
      <trkpt lat="38.1043160" lon="-3.8618160">
        <ele>282.8</ele>
        <time>2018-04-28T08:42:33Z</time>
      </trkpt>
      <trkpt lat="38.1043130" lon="-3.8617980">
        <ele>282.6</ele>
        <time>2018-04-28T08:42:34Z</time>
      </trkpt>
      <trkpt lat="38.1043110" lon="-3.8617800">
        <ele>282.2</ele>
        <time>2018-04-28T08:42:35Z</time>
      </trkpt>
      <trkpt lat="38.1043090" lon="-3.8617620">
        <ele>282.2</ele>
        <time>2018-04-28T08:42:36Z</time>
      </trkpt>
      <trkpt lat="38.1043070" lon="-3.8617440">
        <ele>282.0</ele>
        <time>2018-04-28T08:42:37Z</time>
      </trkpt>
      <trkpt lat="38.1043040" lon="-3.8617260">
        <ele>282.0</ele>
        <time>2018-04-28T08:42:38Z</time>
      </trkpt>
      <trkpt lat="38.1043020" lon="-3.8617080">
        <ele>282.0</ele>
        <time>2018-04-28T08:42:39Z</time>
      </trkpt>
      <trkpt lat="38.1043000" lon="-3.8616900">
        <ele>282.0</ele>
        <time>2018-04-28T08:42:40Z</time>
      </trkpt>
      <trkpt lat="38.1042980" lon="-3.8616720">
        <ele>282.0</ele>
        <time>2018-04-28T08:42:41Z</time>
      </trkpt>
      <trkpt lat="38.1042950" lon="-3.8616540">
        <ele>282.0</ele>
        <time>2018-04-28T08:42:42Z</time>
      </trkpt>
      <trkpt lat="38.1042930" lon="-3.8616360">
        <ele>282.6</ele>
        <time>2018-04-28T08:44:21Z</time>
      </trkpt>
      <trkpt lat="38.1042910" lon="-3.8616180">
        <ele>282.4</ele>
        <time>2018-04-28T08:44:22Z</time>
      </trkpt>
      <trkpt lat="38.1042880" lon="-3.8615690">
        <ele>282.4</ele>
        <time>2018-04-28T08:44:23Z</time>
      </trkpt>
      <trkpt lat="38.1042950" lon="-3.8615170">
        <ele>282.2</ele>
        <time>2018-04-28T08:44:24Z</time>
      </trkpt>
      <trkpt lat="38.1043090" lon="-3.8614670">
        <ele>282.2</ele>
        <time>2018-04-28T08:44:25Z</time>
      </trkpt>
      <trkpt lat="38.1043220" lon="-3.8614160">
        <ele>282.2</ele>
        <time>2018-04-28T08:44:26Z</time>
      </trkpt>
      <trkpt lat="38.1043380" lon="-3.8613640">
        <ele>282.2</ele>
        <time>2018-04-28T08:44:27Z</time>
      </trkpt>
      <trkpt lat="38.1043510" lon="-3.8613100">
        <ele>282.2</ele>
        <time>2018-04-28T08:44:28Z</time>
      </trkpt>
      <trkpt lat="38.1043600" lon="-3.8612540">
        <ele>282.2</ele>
        <time>2018-04-28T08:44:29Z</time>
      </trkpt>
      <trkpt lat="38.1043650" lon="-3.8611980">
        <ele>282.0</ele>
        <time>2018-04-28T08:44:30Z</time>
      </trkpt>
      <trkpt lat="38.1043680" lon="-3.8611420">
        <ele>282.0</ele>
        <time>2018-04-28T08:44:31Z</time>
      </trkpt>
      <trkpt lat="38.1043660" lon="-3.8610850">
        <ele>282.2</ele>
        <time>2018-04-28T08:44:32Z</time>
      </trkpt>
      <trkpt lat="38.1043650" lon="-3.8610250">
        <ele>282.0</ele>
        <time>2018-04-28T08:44:33Z</time>
      </trkpt>
      <trkpt lat="38.1043650" lon="-3.8609630">
        <ele>282.0</ele>
        <time>2018-04-28T08:44:34Z</time>
      </trkpt>
      <trkpt lat="38.1043630" lon="-3.8609000">
        <ele>282.0</ele>
        <time>2018-04-28T08:44:35Z</time>
      </trkpt>
      <trkpt lat="38.1043630" lon="-3.8608350">
        <ele>281.6</ele>
        <time>2018-04-28T08:44:36Z</time>
      </trkpt>
      <trkpt lat="38.1043600" lon="-3.8607680">
        <ele>281.6</ele>
        <time>2018-04-28T08:44:37Z</time>
      </trkpt>
      <trkpt lat="38.1043590" lon="-3.8607000">
        <ele>281.8</ele>
        <time>2018-04-28T08:44:38Z</time>
      </trkpt>
      <trkpt lat="38.1043540" lon="-3.8606330">
        <ele>281.8</ele>
        <time>2018-04-28T08:44:39Z</time>
      </trkpt>
      <trkpt lat="38.1043480" lon="-3.8605640">
        <ele>281.6</ele>
        <time>2018-04-28T08:44:40Z</time>
      </trkpt>
      <trkpt lat="38.1043440" lon="-3.8604930">
        <ele>281.8</ele>
        <time>2018-04-28T08:44:41Z</time>
      </trkpt>
      <trkpt lat="38.1043450" lon="-3.8604240">
        <ele>281.6</ele>
        <time>2018-04-28T08:44:42Z</time>
      </trkpt>
      <trkpt lat="38.1043460" lon="-3.8603540">
        <ele>281.4</ele>
        <time>2018-04-28T08:44:43Z</time>
      </trkpt>
      <trkpt lat="38.1043480" lon="-3.8602800">
        <ele>281.2</ele>
        <time>2018-04-28T08:44:44Z</time>
      </trkpt>
      <trkpt lat="38.1043490" lon="-3.8602060">
        <ele>281.0</ele>
        <time>2018-04-28T08:44:45Z</time>
      </trkpt>
      <trkpt lat="38.1043460" lon="-3.8601280">
        <ele>281.0</ele>
        <time>2018-04-28T08:44:46Z</time>
      </trkpt>
      <trkpt lat="38.1043490" lon="-3.8600490">
        <ele>281.0</ele>
        <time>2018-04-28T08:44:47Z</time>
      </trkpt>
      <trkpt lat="38.1043560" lon="-3.8599720">
        <ele>280.8</ele>
        <time>2018-04-28T08:44:48Z</time>
      </trkpt>
      <trkpt lat="38.1043640" lon="-3.8598980">
        <ele>281.0</ele>
        <time>2018-04-28T08:44:49Z</time>
      </trkpt>
      <trkpt lat="38.1043580" lon="-3.8598270">
        <ele>281.0</ele>
        <time>2018-04-28T08:44:50Z</time>
      </trkpt>
      <trkpt lat="38.1043630" lon="-3.8597670">
        <ele>281.2</ele>
        <time>2018-04-28T08:44:51Z</time>
      </trkpt>
      <trkpt lat="38.1043750" lon="-3.8596970">
        <ele>281.4</ele>
        <time>2018-04-28T08:44:52Z</time>
      </trkpt>
      <trkpt lat="38.1043770" lon="-3.8596270">
        <ele>281.8</ele>
        <time>2018-04-28T08:44:53Z</time>
      </trkpt>
      <trkpt lat="38.1043660" lon="-3.8595610">
        <ele>282.0</ele>
        <time>2018-04-28T08:44:54Z</time>
      </trkpt>
      <trkpt lat="38.1043440" lon="-3.8594940">
        <ele>282.2</ele>
        <time>2018-04-28T08:44:55Z</time>
      </trkpt>
      <trkpt lat="38.1043210" lon="-3.8594300">
        <ele>282.2</ele>
        <time>2018-04-28T08:44:56Z</time>
      </trkpt>
      <trkpt lat="38.1042960" lon="-3.8593680">
        <ele>282.2</ele>
        <time>2018-04-28T08:44:57Z</time>
      </trkpt>
      <trkpt lat="38.1042670" lon="-3.8593080">
        <ele>282.2</ele>
        <time>2018-04-28T08:44:58Z</time>
      </trkpt>
      <trkpt lat="38.1042390" lon="-3.8592430">
        <ele>282.0</ele>
        <time>2018-04-28T08:44:59Z</time>
      </trkpt>
      <trkpt lat="38.1042120" lon="-3.8591790">
        <ele>281.8</ele>
        <time>2018-04-28T08:45:00Z</time>
      </trkpt>
      <trkpt lat="38.1041850" lon="-3.8591150">
        <ele>281.6</ele>
        <time>2018-04-28T08:45:01Z</time>
      </trkpt>
      <trkpt lat="38.1041480" lon="-3.8590500">
        <ele>281.4</ele>
        <time>2018-04-28T08:45:02Z</time>
      </trkpt>
      <trkpt lat="38.1041140" lon="-3.8589860">
        <ele>281.0</ele>
        <time>2018-04-28T08:45:03Z</time>
      </trkpt>
      <trkpt lat="38.1040670" lon="-3.8589290">
        <ele>281.0</ele>
        <time>2018-04-28T08:45:04Z</time>
      </trkpt>
      <trkpt lat="38.1040110" lon="-3.8588760">
        <ele>280.6</ele>
        <time>2018-04-28T08:45:05Z</time>
      </trkpt>
      <trkpt lat="38.1039590" lon="-3.8588250">
        <ele>280.6</ele>
        <time>2018-04-28T08:45:06Z</time>
      </trkpt>
      <trkpt lat="38.1039010" lon="-3.8587720">
        <ele>280.6</ele>
        <time>2018-04-28T08:45:07Z</time>
      </trkpt>
      <trkpt lat="38.1038480" lon="-3.8587140">
        <ele>280.6</ele>
        <time>2018-04-28T08:45:08Z</time>
      </trkpt>
      <trkpt lat="38.1037950" lon="-3.8586550">
        <ele>280.6</ele>
        <time>2018-04-28T08:45:09Z</time>
      </trkpt>
      <trkpt lat="38.1037420" lon="-3.8585970">
        <ele>280.6</ele>
        <time>2018-04-28T08:45:10Z</time>
      </trkpt>
      <trkpt lat="38.1036940" lon="-3.8585360">
        <ele>280.6</ele>
        <time>2018-04-28T08:45:11Z</time>
      </trkpt>
      <trkpt lat="38.1036440" lon="-3.8584780">
        <ele>280.4</ele>
        <time>2018-04-28T08:45:12Z</time>
      </trkpt>
      <trkpt lat="38.1035970" lon="-3.8584190">
        <ele>280.4</ele>
        <time>2018-04-28T08:45:13Z</time>
      </trkpt>
      <trkpt lat="38.1035490" lon="-3.8583610">
        <ele>280.6</ele>
        <time>2018-04-28T08:45:14Z</time>
      </trkpt>
      <trkpt lat="38.1035000" lon="-3.8583030">
        <ele>280.4</ele>
        <time>2018-04-28T08:45:15Z</time>
      </trkpt>
      <trkpt lat="38.1034560" lon="-3.8582420">
        <ele>280.4</ele>
        <time>2018-04-28T08:45:16Z</time>
      </trkpt>
      <trkpt lat="38.1034150" lon="-3.8581740">
        <ele>280.4</ele>
        <time>2018-04-28T08:45:17Z</time>
      </trkpt>
      <trkpt lat="38.1033820" lon="-3.8581000">
        <ele>280.2</ele>
        <time>2018-04-28T08:45:18Z</time>
      </trkpt>
      <trkpt lat="38.1033620" lon="-3.8580230">
        <ele>280.0</ele>
        <time>2018-04-28T08:45:19Z</time>
      </trkpt>
      <trkpt lat="38.1033510" lon="-3.8579440">
        <ele>280.0</ele>
        <time>2018-04-28T08:45:20Z</time>
      </trkpt>
      <trkpt lat="38.1033510" lon="-3.8578670">
        <ele>279.8</ele>
        <time>2018-04-28T08:45:21Z</time>
      </trkpt>
      <trkpt lat="38.1033560" lon="-3.8577950">
        <ele>279.8</ele>
        <time>2018-04-28T08:45:22Z</time>
      </trkpt>
      <trkpt lat="38.1033690" lon="-3.8577310">
        <ele>279.6</ele>
        <time>2018-04-28T08:45:23Z</time>
      </trkpt>
      <trkpt lat="38.1033830" lon="-3.8576730">
        <ele>279.4</ele>
        <time>2018-04-28T08:45:24Z</time>
      </trkpt>
      <trkpt lat="38.1033960" lon="-3.8576180">
        <ele>279.2</ele>
        <time>2018-04-28T08:45:25Z</time>
      </trkpt>
      <trkpt lat="38.1034150" lon="-3.8575590">
        <ele>279.0</ele>
        <time>2018-04-28T08:45:26Z</time>
      </trkpt>
      <trkpt lat="38.1034360" lon="-3.8575020">
        <ele>279.0</ele>
        <time>2018-04-28T08:45:27Z</time>
      </trkpt>
      <trkpt lat="38.1034610" lon="-3.8574470">
        <ele>279.2</ele>
        <time>2018-04-28T08:45:28Z</time>
      </trkpt>
      <trkpt lat="38.1034850" lon="-3.8573920">
        <ele>279.0</ele>
        <time>2018-04-28T08:45:29Z</time>
      </trkpt>
      <trkpt lat="38.1035060" lon="-3.8573330">
        <ele>278.8</ele>
        <time>2018-04-28T08:45:30Z</time>
      </trkpt>
      <trkpt lat="38.1035250" lon="-3.8572750">
        <ele>278.8</ele>
        <time>2018-04-28T08:45:31Z</time>
      </trkpt>
      <trkpt lat="38.1035440" lon="-3.8572160">
        <ele>278.2</ele>
        <time>2018-04-28T08:45:32Z</time>
      </trkpt>
      <trkpt lat="38.1035560" lon="-3.8571550">
        <ele>278.2</ele>
        <time>2018-04-28T08:45:33Z</time>
      </trkpt>
      <trkpt lat="38.1035580" lon="-3.8570940">
        <ele>278.0</ele>
        <time>2018-04-28T08:45:34Z</time>
      </trkpt>
      <trkpt lat="38.1035560" lon="-3.8570270">
        <ele>277.8</ele>
        <time>2018-04-28T08:45:35Z</time>
      </trkpt>
      <trkpt lat="38.1035510" lon="-3.8569650">
        <ele>277.4</ele>
        <time>2018-04-28T08:45:36Z</time>
      </trkpt>
      <trkpt lat="38.1035410" lon="-3.8569150">
        <ele>277.2</ele>
        <time>2018-04-28T08:45:37Z</time>
      </trkpt>
      <trkpt lat="38.1035300" lon="-3.8568780">
        <ele>277.0</ele>
        <time>2018-04-28T08:45:38Z</time>
      </trkpt>
      <trkpt lat="38.1035170" lon="-3.8568420">
        <ele>276.6</ele>
        <time>2018-04-28T08:45:39Z</time>
      </trkpt>
      <trkpt lat="38.1035020" lon="-3.8567970">
        <ele>276.2</ele>
        <time>2018-04-28T08:45:40Z</time>
      </trkpt>
      <trkpt lat="38.1034900" lon="-3.8567420">
        <ele>275.6</ele>
        <time>2018-04-28T08:45:41Z</time>
      </trkpt>
      <trkpt lat="38.1034780" lon="-3.8566740">
        <ele>275.4</ele>
        <time>2018-04-28T08:45:42Z</time>
      </trkpt>
      <trkpt lat="38.1034640" lon="-3.8566010">
        <ele>275.2</ele>
        <time>2018-04-28T08:45:43Z</time>
      </trkpt>
      <trkpt lat="38.1034510" lon="-3.8565240">
        <ele>275.0</ele>
        <time>2018-04-28T08:45:44Z</time>
      </trkpt>
      <trkpt lat="38.1034410" lon="-3.8564370">
        <ele>275.0</ele>
        <time>2018-04-28T08:45:45Z</time>
      </trkpt>
      <trkpt lat="38.1034350" lon="-3.8563540">
        <ele>275.0</ele>
        <time>2018-04-28T08:45:46Z</time>
      </trkpt>
      <trkpt lat="38.1034420" lon="-3.8562760">
        <ele>275.0</ele>
        <time>2018-04-28T08:45:47Z</time>
      </trkpt>
      <trkpt lat="38.1034540" lon="-3.8562010">
        <ele>275.0</ele>
        <time>2018-04-28T08:45:48Z</time>
      </trkpt>
      <trkpt lat="38.1034740" lon="-3.8561360">
        <ele>275.0</ele>
        <time>2018-04-28T08:45:49Z</time>
      </trkpt>
      <trkpt lat="38.1035000" lon="-3.8560770">
        <ele>275.0</ele>
        <time>2018-04-28T08:45:50Z</time>
      </trkpt>
      <trkpt lat="38.1035270" lon="-3.8560210">
        <ele>275.0</ele>
        <time>2018-04-28T08:45:51Z</time>
      </trkpt>
      <trkpt lat="38.1035500" lon="-3.8559610">
        <ele>275.0</ele>
        <time>2018-04-28T08:45:52Z</time>
      </trkpt>
      <trkpt lat="38.1035720" lon="-3.8559000">
        <ele>275.0</ele>
        <time>2018-04-28T08:45:53Z</time>
      </trkpt>
      <trkpt lat="38.1035840" lon="-3.8558340">
        <ele>275.0</ele>
        <time>2018-04-28T08:45:54Z</time>
      </trkpt>
      <trkpt lat="38.1035870" lon="-3.8557700">
        <ele>275.2</ele>
        <time>2018-04-28T08:45:55Z</time>
      </trkpt>
      <trkpt lat="38.1035880" lon="-3.8557040">
        <ele>275.0</ele>
        <time>2018-04-28T08:45:56Z</time>
      </trkpt>
      <trkpt lat="38.1035860" lon="-3.8556400">
        <ele>275.2</ele>
        <time>2018-04-28T08:45:57Z</time>
      </trkpt>
      <trkpt lat="38.1035820" lon="-3.8555760">
        <ele>275.4</ele>
        <time>2018-04-28T08:45:58Z</time>
      </trkpt>
      <trkpt lat="38.1035800" lon="-3.8555110">
        <ele>275.4</ele>
        <time>2018-04-28T08:45:59Z</time>
      </trkpt>
      <trkpt lat="38.1035850" lon="-3.8554430">
        <ele>275.4</ele>
        <time>2018-04-28T08:46:00Z</time>
      </trkpt>
      <trkpt lat="38.1036010" lon="-3.8553770">
        <ele>275.4</ele>
        <time>2018-04-28T08:46:01Z</time>
      </trkpt>
      <trkpt lat="38.1036200" lon="-3.8553110">
        <ele>275.2</ele>
        <time>2018-04-28T08:46:02Z</time>
      </trkpt>
      <trkpt lat="38.1036400" lon="-3.8552450">
        <ele>275.2</ele>
        <time>2018-04-28T08:46:03Z</time>
      </trkpt>
      <trkpt lat="38.1036640" lon="-3.8551740">
        <ele>275.0</ele>
        <time>2018-04-28T08:46:04Z</time>
      </trkpt>
      <trkpt lat="38.1036790" lon="-3.8551000">
        <ele>275.2</ele>
        <time>2018-04-28T08:46:05Z</time>
      </trkpt>
      <trkpt lat="38.1036860" lon="-3.8550270">
        <ele>275.2</ele>
        <time>2018-04-28T08:46:06Z</time>
      </trkpt>
      <trkpt lat="38.1036940" lon="-3.8549590">
        <ele>275.2</ele>
        <time>2018-04-28T08:46:07Z</time>
      </trkpt>
      <trkpt lat="38.1036940" lon="-3.8548910">
        <ele>275.4</ele>
        <time>2018-04-28T08:46:08Z</time>
      </trkpt>
      <trkpt lat="38.1036950" lon="-3.8548200">
        <ele>275.6</ele>
        <time>2018-04-28T08:46:09Z</time>
      </trkpt>
      <trkpt lat="38.1036870" lon="-3.8547530">
        <ele>275.8</ele>
        <time>2018-04-28T08:46:10Z</time>
      </trkpt>
      <trkpt lat="38.1036810" lon="-3.8546870">
        <ele>276.0</ele>
        <time>2018-04-28T08:46:11Z</time>
      </trkpt>
      <trkpt lat="38.1036630" lon="-3.8546240">
        <ele>276.0</ele>
        <time>2018-04-28T08:46:12Z</time>
      </trkpt>
      <trkpt lat="38.1036450" lon="-3.8545600">
        <ele>276.0</ele>
        <time>2018-04-28T08:46:13Z</time>
      </trkpt>
      <trkpt lat="38.1036320" lon="-3.8544920">
        <ele>276.0</ele>
        <time>2018-04-28T08:46:14Z</time>
      </trkpt>
      <trkpt lat="38.1036260" lon="-3.8544210">
        <ele>276.0</ele>
        <time>2018-04-28T08:46:15Z</time>
      </trkpt>
      <trkpt lat="38.1036270" lon="-3.8543470">
        <ele>276.2</ele>
        <time>2018-04-28T08:46:16Z</time>
      </trkpt>
      <trkpt lat="38.1036200" lon="-3.8542760">
        <ele>276.2</ele>
        <time>2018-04-28T08:46:17Z</time>
      </trkpt>
      <trkpt lat="38.1036110" lon="-3.8542070">
        <ele>276.2</ele>
        <time>2018-04-28T08:46:18Z</time>
      </trkpt>
      <trkpt lat="38.1035980" lon="-3.8541380">
        <ele>276.2</ele>
        <time>2018-04-28T08:46:19Z</time>
      </trkpt>
      <trkpt lat="38.1035830" lon="-3.8540700">
        <ele>276.2</ele>
        <time>2018-04-28T08:46:20Z</time>
      </trkpt>
      <trkpt lat="38.1035700" lon="-3.8539990">
        <ele>276.0</ele>
        <time>2018-04-28T08:46:21Z</time>
      </trkpt>
      <trkpt lat="38.1035580" lon="-3.8539290">
        <ele>276.2</ele>
        <time>2018-04-28T08:46:22Z</time>
      </trkpt>
      <trkpt lat="38.1035410" lon="-3.8538590">
        <ele>276.2</ele>
        <time>2018-04-28T08:46:23Z</time>
      </trkpt>
      <trkpt lat="38.1035190" lon="-3.8537960">
        <ele>276.4</ele>
        <time>2018-04-28T08:46:24Z</time>
      </trkpt>
      <trkpt lat="38.1034910" lon="-3.8537360">
        <ele>276.2</ele>
        <time>2018-04-28T08:46:25Z</time>
      </trkpt>
      <trkpt lat="38.1034560" lon="-3.8536800">
        <ele>276.4</ele>
        <time>2018-04-28T08:46:26Z</time>
      </trkpt>
      <trkpt lat="38.1034230" lon="-3.8536230">
        <ele>276.4</ele>
        <time>2018-04-28T08:46:27Z</time>
      </trkpt>
      <trkpt lat="38.1033920" lon="-3.8535610">
        <ele>276.0</ele>
        <time>2018-04-28T08:46:28Z</time>
      </trkpt>
      <trkpt lat="38.1033610" lon="-3.8534940">
        <ele>276.0</ele>
        <time>2018-04-28T08:46:29Z</time>
      </trkpt>
      <trkpt lat="38.1033380" lon="-3.8534230">
        <ele>275.8</ele>
        <time>2018-04-28T08:46:30Z</time>
      </trkpt>
      <trkpt lat="38.1033120" lon="-3.8533500">
        <ele>275.4</ele>
        <time>2018-04-28T08:46:31Z</time>
      </trkpt>
      <trkpt lat="38.1032840" lon="-3.8532830">
        <ele>275.6</ele>
        <time>2018-04-28T08:46:32Z</time>
      </trkpt>
      <trkpt lat="38.1032590" lon="-3.8532190">
        <ele>275.6</ele>
        <time>2018-04-28T08:46:33Z</time>
      </trkpt>
      <trkpt lat="38.1032350" lon="-3.8531510">
        <ele>275.8</ele>
        <time>2018-04-28T08:46:34Z</time>
      </trkpt>
      <trkpt lat="38.1032150" lon="-3.8530810">
        <ele>276.0</ele>
        <time>2018-04-28T08:46:35Z</time>
      </trkpt>
      <trkpt lat="38.1031940" lon="-3.8530110">
        <ele>276.0</ele>
        <time>2018-04-28T08:46:36Z</time>
      </trkpt>
      <trkpt lat="38.1031700" lon="-3.8529460">
        <ele>276.0</ele>
        <time>2018-04-28T08:46:37Z</time>
      </trkpt>
      <trkpt lat="38.1031490" lon="-3.8528760">
        <ele>276.0</ele>
        <time>2018-04-28T08:46:38Z</time>
      </trkpt>
      <trkpt lat="38.1031350" lon="-3.8528060">
        <ele>276.0</ele>
        <time>2018-04-28T08:46:39Z</time>
      </trkpt>
      <trkpt lat="38.1031260" lon="-3.8527380">
        <ele>276.4</ele>
        <time>2018-04-28T08:46:40Z</time>
      </trkpt>
      <trkpt lat="38.1031160" lon="-3.8526730">
        <ele>276.4</ele>
        <time>2018-04-28T08:46:41Z</time>
      </trkpt>
      <trkpt lat="38.1031050" lon="-3.8526050">
        <ele>276.4</ele>
        <time>2018-04-28T08:46:42Z</time>
      </trkpt>
      <trkpt lat="38.1031010" lon="-3.8525340">
        <ele>276.4</ele>
        <time>2018-04-28T08:46:43Z</time>
      </trkpt>
      <trkpt lat="38.1031060" lon="-3.8524620">
        <ele>276.4</ele>
        <time>2018-04-28T08:46:44Z</time>
      </trkpt>
      <trkpt lat="38.1031150" lon="-3.8523880">
        <ele>276.6</ele>
        <time>2018-04-28T08:46:45Z</time>
      </trkpt>
      <trkpt lat="38.1031270" lon="-3.8523150">
        <ele>276.6</ele>
        <time>2018-04-28T08:46:46Z</time>
      </trkpt>
      <trkpt lat="38.1031470" lon="-3.8522380">
        <ele>276.4</ele>
        <time>2018-04-28T08:46:47Z</time>
      </trkpt>
      <trkpt lat="38.1031640" lon="-3.8521690">
        <ele>276.2</ele>
        <time>2018-04-28T08:46:48Z</time>
      </trkpt>
      <trkpt lat="38.1031910" lon="-3.8520980">
        <ele>276.2</ele>
        <time>2018-04-28T08:46:49Z</time>
      </trkpt>
      <trkpt lat="38.1032180" lon="-3.8520300">
        <ele>276.2</ele>
        <time>2018-04-28T08:46:50Z</time>
      </trkpt>
      <trkpt lat="38.1032450" lon="-3.8519640">
        <ele>276.2</ele>
        <time>2018-04-28T08:46:51Z</time>
      </trkpt>
      <trkpt lat="38.1032740" lon="-3.8519010">
        <ele>276.4</ele>
        <time>2018-04-28T08:46:52Z</time>
      </trkpt>
      <trkpt lat="38.1033030" lon="-3.8518380">
        <ele>276.4</ele>
        <time>2018-04-28T08:46:53Z</time>
      </trkpt>
      <trkpt lat="38.1033280" lon="-3.8517690">
        <ele>276.4</ele>
        <time>2018-04-28T08:46:54Z</time>
      </trkpt>
      <trkpt lat="38.1033510" lon="-3.8516990">
        <ele>276.2</ele>
        <time>2018-04-28T08:46:55Z</time>
      </trkpt>
      <trkpt lat="38.1033700" lon="-3.8516260">
        <ele>276.2</ele>
        <time>2018-04-28T08:46:56Z</time>
      </trkpt>
      <trkpt lat="38.1033930" lon="-3.8515510">
        <ele>276.0</ele>
        <time>2018-04-28T08:46:57Z</time>
      </trkpt>
      <trkpt lat="38.1034190" lon="-3.8514800">
        <ele>276.0</ele>
        <time>2018-04-28T08:46:58Z</time>
      </trkpt>
      <trkpt lat="38.1034460" lon="-3.8514110">
        <ele>276.2</ele>
        <time>2018-04-28T08:46:59Z</time>
      </trkpt>
      <trkpt lat="38.1034750" lon="-3.8513440">
        <ele>276.2</ele>
        <time>2018-04-28T08:47:00Z</time>
      </trkpt>
      <trkpt lat="38.1035030" lon="-3.8512800">
        <ele>276.4</ele>
        <time>2018-04-28T08:47:01Z</time>
      </trkpt>
      <trkpt lat="38.1035340" lon="-3.8512180">
        <ele>276.2</ele>
        <time>2018-04-28T08:47:02Z</time>
      </trkpt>
      <trkpt lat="38.1035650" lon="-3.8511560">
        <ele>276.2</ele>
        <time>2018-04-28T08:47:03Z</time>
      </trkpt>
      <trkpt lat="38.1035980" lon="-3.8510950">
        <ele>276.2</ele>
        <time>2018-04-28T08:47:04Z</time>
      </trkpt>
      <trkpt lat="38.1036320" lon="-3.8510350">
        <ele>276.4</ele>
        <time>2018-04-28T08:47:05Z</time>
      </trkpt>
      <trkpt lat="38.1036630" lon="-3.8509740">
        <ele>276.4</ele>
        <time>2018-04-28T08:47:06Z</time>
      </trkpt>
      <trkpt lat="38.1036870" lon="-3.8509130">
        <ele>276.6</ele>
        <time>2018-04-28T08:47:07Z</time>
      </trkpt>
      <trkpt lat="38.1037110" lon="-3.8508530">
        <ele>277.0</ele>
        <time>2018-04-28T08:47:08Z</time>
      </trkpt>
      <trkpt lat="38.1037270" lon="-3.8507920">
        <ele>276.8</ele>
        <time>2018-04-28T08:47:09Z</time>
      </trkpt>
      <trkpt lat="38.1037390" lon="-3.8507240">
        <ele>276.4</ele>
        <time>2018-04-28T08:47:10Z</time>
      </trkpt>
      <trkpt lat="38.1037450" lon="-3.8506550">
        <ele>276.0</ele>
        <time>2018-04-28T08:47:11Z</time>
      </trkpt>
      <trkpt lat="38.1037350" lon="-3.8505880">
        <ele>275.6</ele>
        <time>2018-04-28T08:47:12Z</time>
      </trkpt>
      <trkpt lat="38.1037120" lon="-3.8505190">
        <ele>275.2</ele>
        <time>2018-04-28T08:47:13Z</time>
      </trkpt>
      <trkpt lat="38.1036810" lon="-3.8504510">
        <ele>275.0</ele>
        <time>2018-04-28T08:47:14Z</time>
      </trkpt>
      <trkpt lat="38.1036440" lon="-3.8503810">
        <ele>274.6</ele>
        <time>2018-04-28T08:47:15Z</time>
      </trkpt>
      <trkpt lat="38.1036050" lon="-3.8503100">
        <ele>274.4</ele>
        <time>2018-04-28T08:47:16Z</time>
      </trkpt>
      <trkpt lat="38.1035630" lon="-3.8502390">
        <ele>274.2</ele>
        <time>2018-04-28T08:47:17Z</time>
      </trkpt>
      <trkpt lat="38.1035200" lon="-3.8501700">
        <ele>274.2</ele>
        <time>2018-04-28T08:47:18Z</time>
      </trkpt>
      <trkpt lat="38.1034710" lon="-3.8501050">
        <ele>274.2</ele>
        <time>2018-04-28T08:47:19Z</time>
      </trkpt>
      <trkpt lat="38.1034240" lon="-3.8500380">
        <ele>274.2</ele>
        <time>2018-04-28T08:47:20Z</time>
      </trkpt>
      <trkpt lat="38.1033780" lon="-3.8499700">
        <ele>274.0</ele>
        <time>2018-04-28T08:47:21Z</time>
      </trkpt>
      <trkpt lat="38.1033320" lon="-3.8499010">
        <ele>274.0</ele>
        <time>2018-04-28T08:47:22Z</time>
      </trkpt>
      <trkpt lat="38.1032940" lon="-3.8498250">
        <ele>273.6</ele>
        <time>2018-04-28T08:47:23Z</time>
      </trkpt>
      <trkpt lat="38.1032560" lon="-3.8497510">
        <ele>273.6</ele>
        <time>2018-04-28T08:47:24Z</time>
      </trkpt>
      <trkpt lat="38.1032110" lon="-3.8496830">
        <ele>273.4</ele>
        <time>2018-04-28T08:47:25Z</time>
      </trkpt>
      <trkpt lat="38.1031650" lon="-3.8496170">
        <ele>273.4</ele>
        <time>2018-04-28T08:47:26Z</time>
      </trkpt>
      <trkpt lat="38.1031280" lon="-3.8495470">
        <ele>273.4</ele>
        <time>2018-04-28T08:47:27Z</time>
      </trkpt>
      <trkpt lat="38.1030940" lon="-3.8494750">
        <ele>273.2</ele>
        <time>2018-04-28T08:47:28Z</time>
      </trkpt>
      <trkpt lat="38.1030660" lon="-3.8493940">
        <ele>273.0</ele>
        <time>2018-04-28T08:47:29Z</time>
      </trkpt>
      <trkpt lat="38.1030330" lon="-3.8493100">
        <ele>272.8</ele>
        <time>2018-04-28T08:47:30Z</time>
      </trkpt>
      <trkpt lat="38.1029900" lon="-3.8492320">
        <ele>272.4</ele>
        <time>2018-04-28T08:47:31Z</time>
      </trkpt>
      <trkpt lat="38.1029390" lon="-3.8491520">
        <ele>271.8</ele>
        <time>2018-04-28T08:47:32Z</time>
      </trkpt>
      <trkpt lat="38.1028880" lon="-3.8490690">
        <ele>271.2</ele>
        <time>2018-04-28T08:47:33Z</time>
      </trkpt>
      <trkpt lat="38.1028270" lon="-3.8489870">
        <ele>270.6</ele>
        <time>2018-04-28T08:47:34Z</time>
      </trkpt>
      <trkpt lat="38.1027590" lon="-3.8489080">
        <ele>270.2</ele>
        <time>2018-04-28T08:47:35Z</time>
      </trkpt>
      <trkpt lat="38.1026830" lon="-3.8488440">
        <ele>269.4</ele>
        <time>2018-04-28T08:47:36Z</time>
      </trkpt>
      <trkpt lat="38.1026010" lon="-3.8487960">
        <ele>269.0</ele>
        <time>2018-04-28T08:47:37Z</time>
      </trkpt>
      <trkpt lat="38.1025200" lon="-3.8487560">
        <ele>268.4</ele>
        <time>2018-04-28T08:47:38Z</time>
      </trkpt>
      <trkpt lat="38.1024410" lon="-3.8487150">
        <ele>268.2</ele>
        <time>2018-04-28T08:47:39Z</time>
      </trkpt>
      <trkpt lat="38.1023640" lon="-3.8486720">
        <ele>268.2</ele>
        <time>2018-04-28T08:47:40Z</time>
      </trkpt>
      <trkpt lat="38.1022900" lon="-3.8486380">
        <ele>268.0</ele>
        <time>2018-04-28T08:47:41Z</time>
      </trkpt>
      <trkpt lat="38.1022180" lon="-3.8486010">
        <ele>267.8</ele>
        <time>2018-04-28T08:47:42Z</time>
      </trkpt>
      <trkpt lat="38.1021480" lon="-3.8485610">
        <ele>267.8</ele>
        <time>2018-04-28T08:47:43Z</time>
      </trkpt>
      <trkpt lat="38.1020790" lon="-3.8485260">
        <ele>267.6</ele>
        <time>2018-04-28T08:47:44Z</time>
      </trkpt>
      <trkpt lat="38.1020120" lon="-3.8484940">
        <ele>267.6</ele>
        <time>2018-04-28T08:47:45Z</time>
      </trkpt>
      <trkpt lat="38.1019490" lon="-3.8484650">
        <ele>267.6</ele>
        <time>2018-04-28T08:47:46Z</time>
      </trkpt>
      <trkpt lat="38.1018870" lon="-3.8484350">
        <ele>267.6</ele>
        <time>2018-04-28T08:47:47Z</time>
      </trkpt>
      <trkpt lat="38.1018280" lon="-3.8484050">
        <ele>267.4</ele>
        <time>2018-04-28T08:47:48Z</time>
      </trkpt>
      <trkpt lat="38.1017720" lon="-3.8483700">
        <ele>267.6</ele>
        <time>2018-04-28T08:47:49Z</time>
      </trkpt>
      <trkpt lat="38.1017190" lon="-3.8483360">
        <ele>267.6</ele>
        <time>2018-04-28T08:47:50Z</time>
      </trkpt>
      <trkpt lat="38.1016660" lon="-3.8483040">
        <ele>267.8</ele>
        <time>2018-04-28T08:47:51Z</time>
      </trkpt>
      <trkpt lat="38.1016140" lon="-3.8482780">
        <ele>267.8</ele>
        <time>2018-04-28T08:47:52Z</time>
      </trkpt>
      <trkpt lat="38.1015620" lon="-3.8482580">
        <ele>268.0</ele>
        <time>2018-04-28T08:47:53Z</time>
      </trkpt>
      <trkpt lat="38.1015100" lon="-3.8482400">
        <ele>268.0</ele>
        <time>2018-04-28T08:47:54Z</time>
      </trkpt>
      <trkpt lat="38.1014550" lon="-3.8482250">
        <ele>268.0</ele>
        <time>2018-04-28T08:47:55Z</time>
      </trkpt>
      <trkpt lat="38.1014010" lon="-3.8482090">
        <ele>268.2</ele>
        <time>2018-04-28T08:47:56Z</time>
      </trkpt>
      <trkpt lat="38.1013480" lon="-3.8482000">
        <ele>268.2</ele>
        <time>2018-04-28T08:47:57Z</time>
      </trkpt>
      <trkpt lat="38.1012940" lon="-3.8481920">
        <ele>268.2</ele>
        <time>2018-04-28T08:47:58Z</time>
      </trkpt>
      <trkpt lat="38.1012400" lon="-3.8481820">
        <ele>268.2</ele>
        <time>2018-04-28T08:47:59Z</time>
      </trkpt>
      <trkpt lat="38.1011860" lon="-3.8481630">
        <ele>268.4</ele>
        <time>2018-04-28T08:48:00Z</time>
      </trkpt>
      <trkpt lat="38.1011310" lon="-3.8481440">
        <ele>268.2</ele>
        <time>2018-04-28T08:48:01Z</time>
      </trkpt>
      <trkpt lat="38.1010760" lon="-3.8481240">
        <ele>268.2</ele>
        <time>2018-04-28T08:48:02Z</time>
      </trkpt>
      <trkpt lat="38.1010220" lon="-3.8481090">
        <ele>268.2</ele>
        <time>2018-04-28T08:48:03Z</time>
      </trkpt>
      <trkpt lat="38.1009640" lon="-3.8480970">
        <ele>268.0</ele>
        <time>2018-04-28T08:48:04Z</time>
      </trkpt>
      <trkpt lat="38.1009040" lon="-3.8480870">
        <ele>268.0</ele>
        <time>2018-04-28T08:48:05Z</time>
      </trkpt>
      <trkpt lat="38.1008420" lon="-3.8480770">
        <ele>267.8</ele>
        <time>2018-04-28T08:48:06Z</time>
      </trkpt>
      <trkpt lat="38.1007780" lon="-3.8480630">
        <ele>267.6</ele>
        <time>2018-04-28T08:48:07Z</time>
      </trkpt>
      <trkpt lat="38.1007150" lon="-3.8480470">
        <ele>267.6</ele>
        <time>2018-04-28T08:48:08Z</time>
      </trkpt>
      <trkpt lat="38.1006550" lon="-3.8480270">
        <ele>267.6</ele>
        <time>2018-04-28T08:48:09Z</time>
      </trkpt>
      <trkpt lat="38.1005950" lon="-3.8480110">
        <ele>267.4</ele>
        <time>2018-04-28T08:48:10Z</time>
      </trkpt>
      <trkpt lat="38.1005380" lon="-3.8479830">
        <ele>267.4</ele>
        <time>2018-04-28T08:48:11Z</time>
      </trkpt>
      <trkpt lat="38.1004790" lon="-3.8479540">
        <ele>267.4</ele>
        <time>2018-04-28T08:48:12Z</time>
      </trkpt>
      <trkpt lat="38.1004170" lon="-3.8479270">
        <ele>267.2</ele>
        <time>2018-04-28T08:48:13Z</time>
      </trkpt>
      <trkpt lat="38.1003540" lon="-3.8478990">
        <ele>267.2</ele>
        <time>2018-04-28T08:48:14Z</time>
      </trkpt>
      <trkpt lat="38.1002890" lon="-3.8478730">
        <ele>267.2</ele>
        <time>2018-04-28T08:48:15Z</time>
      </trkpt>
      <trkpt lat="38.1002250" lon="-3.8478410">
        <ele>266.8</ele>
        <time>2018-04-28T08:48:16Z</time>
      </trkpt>
      <trkpt lat="38.1001590" lon="-3.8478110">
        <ele>266.4</ele>
        <time>2018-04-28T08:48:17Z</time>
      </trkpt>
      <trkpt lat="38.1000880" lon="-3.8477880">
        <ele>266.6</ele>
        <time>2018-04-28T08:48:18Z</time>
      </trkpt>
      <trkpt lat="38.1000190" lon="-3.8477570">
        <ele>265.6</ele>
        <time>2018-04-28T08:48:19Z</time>
      </trkpt>
      <trkpt lat="38.0999540" lon="-3.8477120">
        <ele>265.4</ele>
        <time>2018-04-28T08:48:20Z</time>
      </trkpt>
      <trkpt lat="38.0998930" lon="-3.8476590">
        <ele>265.2</ele>
        <time>2018-04-28T08:48:21Z</time>
      </trkpt>
      <trkpt lat="38.0998380" lon="-3.8475950">
        <ele>265.0</ele>
        <time>2018-04-28T08:48:22Z</time>
      </trkpt>
      <trkpt lat="38.0997850" lon="-3.8475270">
        <ele>264.8</ele>
        <time>2018-04-28T08:48:23Z</time>
      </trkpt>
      <trkpt lat="38.0997310" lon="-3.8474720">
        <ele>264.8</ele>
        <time>2018-04-28T08:48:24Z</time>
      </trkpt>
      <trkpt lat="38.0996940" lon="-3.8474450">
        <ele>264.6</ele>
        <time>2018-04-28T08:48:25Z</time>
      </trkpt>
      <trkpt lat="38.0996550" lon="-3.8473960">
        <ele>264.6</ele>
        <time>2018-04-28T08:48:27Z</time>
      </trkpt>
      <trkpt lat="38.0995870" lon="-3.8473120">
        <ele>264.6</ele>
        <time>2018-04-28T08:48:28Z</time>
      </trkpt>
      <trkpt lat="38.0995180" lon="-3.8472280">
        <ele>264.4</ele>
        <time>2018-04-28T08:48:29Z</time>
      </trkpt>
      <trkpt lat="38.0994740" lon="-3.8471900">
        <ele>264.2</ele>
        <time>2018-04-28T08:48:30Z</time>
      </trkpt>
      <trkpt lat="38.0994250" lon="-3.8471440">
        <ele>264.6</ele>
        <time>2018-04-28T08:48:31Z</time>
      </trkpt>
      <trkpt lat="38.0993820" lon="-3.8470870">
        <ele>264.8</ele>
        <time>2018-04-28T08:48:32Z</time>
      </trkpt>
      <trkpt lat="38.0993370" lon="-3.8470260">
        <ele>264.8</ele>
        <time>2018-04-28T08:48:33Z</time>
      </trkpt>
      <trkpt lat="38.0992960" lon="-3.8469630">
        <ele>264.6</ele>
        <time>2018-04-28T08:48:34Z</time>
      </trkpt>
      <trkpt lat="38.0992630" lon="-3.8468860">
        <ele>264.4</ele>
        <time>2018-04-28T08:48:35Z</time>
      </trkpt>
      <trkpt lat="38.0992220" lon="-3.8468180">
        <ele>264.4</ele>
        <time>2018-04-28T08:48:36Z</time>
      </trkpt>
      <trkpt lat="38.0991860" lon="-3.8467480">
        <ele>264.4</ele>
        <time>2018-04-28T08:48:37Z</time>
      </trkpt>
      <trkpt lat="38.0991450" lon="-3.8466820">
        <ele>264.6</ele>
        <time>2018-04-28T08:48:38Z</time>
      </trkpt>
      <trkpt lat="38.0991010" lon="-3.8466220">
        <ele>264.2</ele>
        <time>2018-04-28T08:48:39Z</time>
      </trkpt>
      <trkpt lat="38.0990580" lon="-3.8465650">
        <ele>264.2</ele>
        <time>2018-04-28T08:48:40Z</time>
      </trkpt>
      <trkpt lat="38.0990160" lon="-3.8465160">
        <ele>264.2</ele>
        <time>2018-04-28T08:48:41Z</time>
      </trkpt>
      <trkpt lat="38.0989740" lon="-3.8464720">
        <ele>264.0</ele>
        <time>2018-04-28T08:48:43Z</time>
      </trkpt>
      <trkpt lat="38.0988950" lon="-3.8463850">
        <ele>263.8</ele>
        <time>2018-04-28T08:48:44Z</time>
      </trkpt>
      <trkpt lat="38.0988510" lon="-3.8463390">
        <ele>264.0</ele>
        <time>2018-04-28T08:48:45Z</time>
      </trkpt>
      <trkpt lat="38.0988190" lon="-3.8462890">
        <ele>263.8</ele>
        <time>2018-04-28T08:48:46Z</time>
      </trkpt>
      <trkpt lat="38.0987930" lon="-3.8462390">
        <ele>263.6</ele>
        <time>2018-04-28T08:48:47Z</time>
      </trkpt>
      <trkpt lat="38.0987720" lon="-3.8461960">
        <ele>263.6</ele>
        <time>2018-04-28T08:48:48Z</time>
      </trkpt>
      <trkpt lat="38.0987580" lon="-3.8461530">
        <ele>263.6</ele>
        <time>2018-04-28T08:48:49Z</time>
      </trkpt>
      <trkpt lat="38.0987360" lon="-3.8461070">
        <ele>263.6</ele>
        <time>2018-04-28T08:48:50Z</time>
      </trkpt>
      <trkpt lat="38.0987100" lon="-3.8460570">
        <ele>263.6</ele>
        <time>2018-04-28T08:48:51Z</time>
      </trkpt>
      <trkpt lat="38.0986810" lon="-3.8460080">
        <ele>263.4</ele>
        <time>2018-04-28T08:48:52Z</time>
      </trkpt>
      <trkpt lat="38.0986540" lon="-3.8459550">
        <ele>263.0</ele>
        <time>2018-04-28T08:48:53Z</time>
      </trkpt>
      <trkpt lat="38.0986260" lon="-3.8458980">
        <ele>263.0</ele>
        <time>2018-04-28T08:48:54Z</time>
      </trkpt>
      <trkpt lat="38.0985920" lon="-3.8458460">
        <ele>263.0</ele>
        <time>2018-04-28T08:48:55Z</time>
      </trkpt>
      <trkpt lat="38.0985650" lon="-3.8457910">
        <ele>263.0</ele>
        <time>2018-04-28T08:48:56Z</time>
      </trkpt>
      <trkpt lat="38.0985390" lon="-3.8457450">
        <ele>262.8</ele>
        <time>2018-04-28T08:48:57Z</time>
      </trkpt>
      <trkpt lat="38.0985170" lon="-3.8457040">
        <ele>263.0</ele>
        <time>2018-04-28T08:48:58Z</time>
      </trkpt>
      <trkpt lat="38.0984950" lon="-3.8456640">
        <ele>263.0</ele>
        <time>2018-04-28T08:48:59Z</time>
      </trkpt>
      <trkpt lat="38.0984750" lon="-3.8456220">
        <ele>263.0</ele>
        <time>2018-04-28T08:49:00Z</time>
      </trkpt>
      <trkpt lat="38.0984580" lon="-3.8455740">
        <ele>263.0</ele>
        <time>2018-04-28T08:49:01Z</time>
      </trkpt>
      <trkpt lat="38.0984370" lon="-3.8455280">
        <ele>263.2</ele>
        <time>2018-04-28T08:49:02Z</time>
      </trkpt>
      <trkpt lat="38.0984180" lon="-3.8454810">
        <ele>263.2</ele>
        <time>2018-04-28T08:49:03Z</time>
      </trkpt>
      <trkpt lat="38.0983950" lon="-3.8454280">
        <ele>263.2</ele>
        <time>2018-04-28T08:49:04Z</time>
      </trkpt>
      <trkpt lat="38.0983730" lon="-3.8453740">
        <ele>263.2</ele>
        <time>2018-04-28T08:49:05Z</time>
      </trkpt>
      <trkpt lat="38.0983540" lon="-3.8453210">
        <ele>263.4</ele>
        <time>2018-04-28T08:49:06Z</time>
      </trkpt>
      <trkpt lat="38.0983280" lon="-3.8452670">
        <ele>263.4</ele>
        <time>2018-04-28T08:49:07Z</time>
      </trkpt>
      <trkpt lat="38.0982950" lon="-3.8452070">
        <ele>263.2</ele>
        <time>2018-04-28T08:49:08Z</time>
      </trkpt>
      <trkpt lat="38.0982630" lon="-3.8451460">
        <ele>263.4</ele>
        <time>2018-04-28T08:49:09Z</time>
      </trkpt>
      <trkpt lat="38.0982360" lon="-3.8450810">
        <ele>263.0</ele>
        <time>2018-04-28T08:49:10Z</time>
      </trkpt>
      <trkpt lat="38.0982120" lon="-3.8450080">
        <ele>263.4</ele>
        <time>2018-04-28T08:49:11Z</time>
      </trkpt>
      <trkpt lat="38.0981840" lon="-3.8449430">
        <ele>263.4</ele>
        <time>2018-04-28T08:49:12Z</time>
      </trkpt>
      <trkpt lat="38.0981640" lon="-3.8448730">
        <ele>263.2</ele>
        <time>2018-04-28T08:49:13Z</time>
      </trkpt>
      <trkpt lat="38.0981380" lon="-3.8448060">
        <ele>263.2</ele>
        <time>2018-04-28T08:49:14Z</time>
      </trkpt>
      <trkpt lat="38.0981270" lon="-3.8447270">
        <ele>263.0</ele>
        <time>2018-04-28T08:49:16Z</time>
      </trkpt>
      <trkpt lat="38.0981090" lon="-3.8445670">
        <ele>263.0</ele>
        <time>2018-04-28T08:49:17Z</time>
      </trkpt>
      <trkpt lat="38.0981040" lon="-3.8444870">
        <ele>263.0</ele>
        <time>2018-04-28T08:49:18Z</time>
      </trkpt>
      <trkpt lat="38.0981000" lon="-3.8444070">
        <ele>263.0</ele>
        <time>2018-04-28T08:49:19Z</time>
      </trkpt>
      <trkpt lat="38.0980990" lon="-3.8443270">
        <ele>262.8</ele>
        <time>2018-04-28T08:49:20Z</time>
      </trkpt>
      <trkpt lat="38.0980930" lon="-3.8442510">
        <ele>262.8</ele>
        <time>2018-04-28T08:49:21Z</time>
      </trkpt>
      <trkpt lat="38.0980860" lon="-3.8441700">
        <ele>262.6</ele>
        <time>2018-04-28T08:49:22Z</time>
      </trkpt>
      <trkpt lat="38.0980750" lon="-3.8440910">
        <ele>262.8</ele>
        <time>2018-04-28T08:49:23Z</time>
      </trkpt>
      <trkpt lat="38.0980610" lon="-3.8440130">
        <ele>262.8</ele>
        <time>2018-04-28T08:49:24Z</time>
      </trkpt>
      <trkpt lat="38.0980480" lon="-3.8439360">
        <ele>262.6</ele>
        <time>2018-04-28T08:49:25Z</time>
      </trkpt>
      <trkpt lat="38.0980260" lon="-3.8438630">
        <ele>262.6</ele>
        <time>2018-04-28T08:49:26Z</time>
      </trkpt>
      <trkpt lat="38.0979990" lon="-3.8437940">
        <ele>262.6</ele>
        <time>2018-04-28T08:49:27Z</time>
      </trkpt>
      <trkpt lat="38.0979700" lon="-3.8437230">
        <ele>262.6</ele>
        <time>2018-04-28T08:49:28Z</time>
      </trkpt>
      <trkpt lat="38.0979390" lon="-3.8436580">
        <ele>262.6</ele>
        <time>2018-04-28T08:49:29Z</time>
      </trkpt>
      <trkpt lat="38.0979100" lon="-3.8435940">
        <ele>263.0</ele>
        <time>2018-04-28T08:49:30Z</time>
      </trkpt>
      <trkpt lat="38.0978790" lon="-3.8435340">
        <ele>263.4</ele>
        <time>2018-04-28T08:49:31Z</time>
      </trkpt>
      <trkpt lat="38.0978450" lon="-3.8434820">
        <ele>263.8</ele>
        <time>2018-04-28T08:49:33Z</time>
      </trkpt>
      <trkpt lat="38.0977720" lon="-3.8433820">
        <ele>264.4</ele>
        <time>2018-04-28T08:49:34Z</time>
      </trkpt>
      <trkpt lat="38.0977430" lon="-3.8433260">
        <ele>264.6</ele>
        <time>2018-04-28T08:49:35Z</time>
      </trkpt>
      <trkpt lat="38.0977140" lon="-3.8432700">
        <ele>264.6</ele>
        <time>2018-04-28T08:49:36Z</time>
      </trkpt>
      <trkpt lat="38.0976870" lon="-3.8432140">
        <ele>264.6</ele>
        <time>2018-04-28T08:49:37Z</time>
      </trkpt>
      <trkpt lat="38.0976600" lon="-3.8431560">
        <ele>264.6</ele>
        <time>2018-04-28T08:49:38Z</time>
      </trkpt>
      <trkpt lat="38.0976390" lon="-3.8431000">
        <ele>264.6</ele>
        <time>2018-04-28T08:49:39Z</time>
      </trkpt>
      <trkpt lat="38.0976250" lon="-3.8430390">
        <ele>264.8</ele>
        <time>2018-04-28T08:49:40Z</time>
      </trkpt>
      <trkpt lat="38.0976060" lon="-3.8429810">
        <ele>265.2</ele>
        <time>2018-04-28T08:49:41Z</time>
      </trkpt>
      <trkpt lat="38.0975800" lon="-3.8429270">
        <ele>265.2</ele>
        <time>2018-04-28T08:49:42Z</time>
      </trkpt>
      <trkpt lat="38.0975520" lon="-3.8428730">
        <ele>265.6</ele>
        <time>2018-04-28T08:49:43Z</time>
      </trkpt>
      <trkpt lat="38.0975230" lon="-3.8428230">
        <ele>266.0</ele>
        <time>2018-04-28T08:49:44Z</time>
      </trkpt>
      <trkpt lat="38.0974910" lon="-3.8427780">
        <ele>266.2</ele>
        <time>2018-04-28T08:49:45Z</time>
      </trkpt>
      <trkpt lat="38.0974580" lon="-3.8427370">
        <ele>266.6</ele>
        <time>2018-04-28T08:49:46Z</time>
      </trkpt>
      <trkpt lat="38.0974250" lon="-3.8426980">
        <ele>267.0</ele>
        <time>2018-04-28T08:49:47Z</time>
      </trkpt>
      <trkpt lat="38.0973870" lon="-3.8426630">
        <ele>267.4</ele>
        <time>2018-04-28T08:49:48Z</time>
      </trkpt>
      <trkpt lat="38.0973530" lon="-3.8426240">
        <ele>267.6</ele>
        <time>2018-04-28T08:49:49Z</time>
      </trkpt>
      <trkpt lat="38.0973260" lon="-3.8425840">
        <ele>267.8</ele>
        <time>2018-04-28T08:49:50Z</time>
      </trkpt>
      <trkpt lat="38.0972950" lon="-3.8425420">
        <ele>267.8</ele>
        <time>2018-04-28T08:49:51Z</time>
      </trkpt>
      <trkpt lat="38.0972640" lon="-3.8424990">
        <ele>268.0</ele>
        <time>2018-04-28T08:49:52Z</time>
      </trkpt>
      <trkpt lat="38.0972310" lon="-3.8424580">
        <ele>268.4</ele>
        <time>2018-04-28T08:49:53Z</time>
      </trkpt>
      <trkpt lat="38.0971990" lon="-3.8424170">
        <ele>268.4</ele>
        <time>2018-04-28T08:49:54Z</time>
      </trkpt>
      <trkpt lat="38.0971710" lon="-3.8423690">
        <ele>268.6</ele>
        <time>2018-04-28T08:49:55Z</time>
      </trkpt>
      <trkpt lat="38.0971490" lon="-3.8423170">
        <ele>268.4</ele>
        <time>2018-04-28T08:49:56Z</time>
      </trkpt>
      <trkpt lat="38.0971240" lon="-3.8422640">
        <ele>268.2</ele>
        <time>2018-04-28T08:49:57Z</time>
      </trkpt>
      <trkpt lat="38.0970960" lon="-3.8422050">
        <ele>268.0</ele>
        <time>2018-04-28T08:49:59Z</time>
      </trkpt>
      <trkpt lat="38.0970670" lon="-3.8421450">
        <ele>267.8</ele>
        <time>2018-04-28T08:50:00Z</time>
      </trkpt>
      <trkpt lat="38.0970400" lon="-3.8420830">
        <ele>267.8</ele>
        <time>2018-04-28T08:50:01Z</time>
      </trkpt>
      <trkpt lat="38.0970130" lon="-3.8420180">
        <ele>267.6</ele>
        <time>2018-04-28T08:50:02Z</time>
      </trkpt>
      <trkpt lat="38.0969870" lon="-3.8419510">
        <ele>267.6</ele>
        <time>2018-04-28T08:50:03Z</time>
      </trkpt>
      <trkpt lat="38.0969630" lon="-3.8418830">
        <ele>267.6</ele>
        <time>2018-04-28T08:50:04Z</time>
      </trkpt>
      <trkpt lat="38.0969380" lon="-3.8418160">
        <ele>267.8</ele>
        <time>2018-04-28T08:50:05Z</time>
      </trkpt>
      <trkpt lat="38.0969080" lon="-3.8417510">
        <ele>267.6</ele>
        <time>2018-04-28T08:50:06Z</time>
      </trkpt>
      <trkpt lat="38.0968840" lon="-3.8416850">
        <ele>267.8</ele>
        <time>2018-04-28T08:50:07Z</time>
      </trkpt>
      <trkpt lat="38.0968690" lon="-3.8416130">
        <ele>267.8</ele>
        <time>2018-04-28T08:50:08Z</time>
      </trkpt>
      <trkpt lat="38.0968560" lon="-3.8415390">
        <ele>267.6</ele>
        <time>2018-04-28T08:50:09Z</time>
      </trkpt>
      <trkpt lat="38.0968340" lon="-3.8414680">
        <ele>267.0</ele>
        <time>2018-04-28T08:50:10Z</time>
      </trkpt>
      <trkpt lat="38.0968080" lon="-3.8413950">
        <ele>266.6</ele>
        <time>2018-04-28T08:50:11Z</time>
      </trkpt>
      <trkpt lat="38.0967790" lon="-3.8413170">
        <ele>266.0</ele>
        <time>2018-04-28T08:50:12Z</time>
      </trkpt>
      <trkpt lat="38.0967480" lon="-3.8412330">
        <ele>265.4</ele>
        <time>2018-04-28T08:50:13Z</time>
      </trkpt>
      <trkpt lat="38.0967120" lon="-3.8411450">
        <ele>265.2</ele>
        <time>2018-04-28T08:50:14Z</time>
      </trkpt>
      <trkpt lat="38.0966660" lon="-3.8410560">
        <ele>264.6</ele>
        <time>2018-04-28T08:50:15Z</time>
      </trkpt>
      <trkpt lat="38.0966190" lon="-3.8409660">
        <ele>263.8</ele>
        <time>2018-04-28T08:50:16Z</time>
      </trkpt>
      <trkpt lat="38.0965680" lon="-3.8408740">
        <ele>263.4</ele>
        <time>2018-04-28T08:50:17Z</time>
      </trkpt>
      <trkpt lat="38.0965260" lon="-3.8407740">
        <ele>263.6</ele>
        <time>2018-04-28T08:50:18Z</time>
      </trkpt>
      <trkpt lat="38.0964570" lon="-3.8405820">
        <ele>263.0</ele>
        <time>2018-04-28T08:50:19Z</time>
      </trkpt>
      <trkpt lat="38.0964310" lon="-3.8404840">
        <ele>262.8</ele>
        <time>2018-04-28T08:50:20Z</time>
      </trkpt>
      <trkpt lat="38.0963960" lon="-3.8403920">
        <ele>262.4</ele>
        <time>2018-04-28T08:50:21Z</time>
      </trkpt>
      <trkpt lat="38.0963540" lon="-3.8403080">
        <ele>262.0</ele>
        <time>2018-04-28T08:50:22Z</time>
      </trkpt>
      <trkpt lat="38.0963060" lon="-3.8402260">
        <ele>261.2</ele>
        <time>2018-04-28T08:50:23Z</time>
      </trkpt>
      <trkpt lat="38.0962520" lon="-3.8401460">
        <ele>260.6</ele>
        <time>2018-04-28T08:50:24Z</time>
      </trkpt>
      <trkpt lat="38.0961990" lon="-3.8400640">
        <ele>260.4</ele>
        <time>2018-04-28T08:50:25Z</time>
      </trkpt>
      <trkpt lat="38.0961470" lon="-3.8399810">
        <ele>259.8</ele>
        <time>2018-04-28T08:50:26Z</time>
      </trkpt>
      <trkpt lat="38.0960990" lon="-3.8398980">
        <ele>260.2</ele>
        <time>2018-04-28T08:50:27Z</time>
      </trkpt>
      <trkpt lat="38.0960470" lon="-3.8398190">
        <ele>260.0</ele>
        <time>2018-04-28T08:50:28Z</time>
      </trkpt>
      <trkpt lat="38.0960020" lon="-3.8397420">
        <ele>260.0</ele>
        <time>2018-04-28T08:50:29Z</time>
      </trkpt>
      <trkpt lat="38.0959610" lon="-3.8396680">
        <ele>260.2</ele>
        <time>2018-04-28T08:50:30Z</time>
      </trkpt>
      <trkpt lat="38.0959180" lon="-3.8396020">
        <ele>260.0</ele>
        <time>2018-04-28T08:50:31Z</time>
      </trkpt>
      <trkpt lat="38.0958700" lon="-3.8395440">
        <ele>260.0</ele>
        <time>2018-04-28T08:50:32Z</time>
      </trkpt>
      <trkpt lat="38.0958260" lon="-3.8394870">
        <ele>260.0</ele>
        <time>2018-04-28T08:50:33Z</time>
      </trkpt>
      <trkpt lat="38.0957820" lon="-3.8394310">
        <ele>260.0</ele>
        <time>2018-04-28T08:50:34Z</time>
      </trkpt>
      <trkpt lat="38.0957340" lon="-3.8393830">
        <ele>260.2</ele>
        <time>2018-04-28T08:50:35Z</time>
      </trkpt>
      <trkpt lat="38.0956840" lon="-3.8393460">
        <ele>260.4</ele>
        <time>2018-04-28T08:50:36Z</time>
      </trkpt>
      <trkpt lat="38.0956310" lon="-3.8393150">
        <ele>260.8</ele>
        <time>2018-04-28T08:50:37Z</time>
      </trkpt>
      <trkpt lat="38.0955820" lon="-3.8392860">
        <ele>261.2</ele>
        <time>2018-04-28T08:50:38Z</time>
      </trkpt>
      <trkpt lat="38.0955320" lon="-3.8392580">
        <ele>261.4</ele>
        <time>2018-04-28T08:50:39Z</time>
      </trkpt>
      <trkpt lat="38.0954830" lon="-3.8392300">
        <ele>261.8</ele>
        <time>2018-04-28T08:50:40Z</time>
      </trkpt>
      <trkpt lat="38.0954360" lon="-3.8392010">
        <ele>262.0</ele>
        <time>2018-04-28T08:50:41Z</time>
      </trkpt>
      <trkpt lat="38.0953870" lon="-3.8391700">
        <ele>262.4</ele>
        <time>2018-04-28T08:50:42Z</time>
      </trkpt>
      <trkpt lat="38.0953400" lon="-3.8391410">
        <ele>262.6</ele>
        <time>2018-04-28T08:50:43Z</time>
      </trkpt>
      <trkpt lat="38.0952980" lon="-3.8391080">
        <ele>262.4</ele>
        <time>2018-04-28T08:50:44Z</time>
      </trkpt>
      <trkpt lat="38.0952570" lon="-3.8390760">
        <ele>262.6</ele>
        <time>2018-04-28T08:50:45Z</time>
      </trkpt>
      <trkpt lat="38.0952160" lon="-3.8390450">
        <ele>263.2</ele>
        <time>2018-04-28T08:50:46Z</time>
      </trkpt>
      <trkpt lat="38.0951730" lon="-3.8390170">
        <ele>263.2</ele>
        <time>2018-04-28T08:50:47Z</time>
      </trkpt>
      <trkpt lat="38.0951330" lon="-3.8389880">
        <ele>263.2</ele>
        <time>2018-04-28T08:50:48Z</time>
      </trkpt>
      <trkpt lat="38.0950930" lon="-3.8389620">
        <ele>263.2</ele>
        <time>2018-04-28T08:50:49Z</time>
      </trkpt>
      <trkpt lat="38.0950550" lon="-3.8389310">
        <ele>263.6</ele>
        <time>2018-04-28T08:50:51Z</time>
      </trkpt>
      <trkpt lat="38.0950160" lon="-3.8389020">
        <ele>263.6</ele>
        <time>2018-04-28T08:50:52Z</time>
      </trkpt>
      <trkpt lat="38.0949410" lon="-3.8388400">
        <ele>263.8</ele>
        <time>2018-04-28T08:50:53Z</time>
      </trkpt>
      <trkpt lat="38.0949060" lon="-3.8388060">
        <ele>264.0</ele>
        <time>2018-04-28T08:50:54Z</time>
      </trkpt>
      <trkpt lat="38.0948700" lon="-3.8387740">
        <ele>264.0</ele>
        <time>2018-04-28T08:50:55Z</time>
      </trkpt>
      <trkpt lat="38.0948380" lon="-3.8387370">
        <ele>264.2</ele>
        <time>2018-04-28T08:50:56Z</time>
      </trkpt>
      <trkpt lat="38.0948110" lon="-3.8386920">
        <ele>264.2</ele>
        <time>2018-04-28T08:50:57Z</time>
      </trkpt>
      <trkpt lat="38.0947820" lon="-3.8386500">
        <ele>264.4</ele>
        <time>2018-04-28T08:50:58Z</time>
      </trkpt>
      <trkpt lat="38.0947520" lon="-3.8386130">
        <ele>264.4</ele>
        <time>2018-04-28T08:50:59Z</time>
      </trkpt>
      <trkpt lat="38.0947220" lon="-3.8385790">
        <ele>264.4</ele>
        <time>2018-04-28T08:51:00Z</time>
      </trkpt>
      <trkpt lat="38.0946950" lon="-3.8385420">
        <ele>264.6</ele>
        <time>2018-04-28T08:51:01Z</time>
      </trkpt>
      <trkpt lat="38.0946690" lon="-3.8385040">
        <ele>264.6</ele>
        <time>2018-04-28T08:51:02Z</time>
      </trkpt>
      <trkpt lat="38.0946370" lon="-3.8384670">
        <ele>264.8</ele>
        <time>2018-04-28T08:51:03Z</time>
      </trkpt>
      <trkpt lat="38.0946050" lon="-3.8384290">
        <ele>264.8</ele>
        <time>2018-04-28T08:51:04Z</time>
      </trkpt>
      <trkpt lat="38.0945710" lon="-3.8383940">
        <ele>264.6</ele>
        <time>2018-04-28T08:51:05Z</time>
      </trkpt>
      <trkpt lat="38.0945350" lon="-3.8383610">
        <ele>264.4</ele>
        <time>2018-04-28T08:51:06Z</time>
      </trkpt>
      <trkpt lat="38.0944960" lon="-3.8383320">
        <ele>264.2</ele>
        <time>2018-04-28T08:51:07Z</time>
      </trkpt>
      <trkpt lat="38.0944570" lon="-3.8383030">
        <ele>264.4</ele>
        <time>2018-04-28T08:51:09Z</time>
      </trkpt>
      <trkpt lat="38.0944170" lon="-3.8382760">
        <ele>264.6</ele>
        <time>2018-04-28T08:51:10Z</time>
      </trkpt>
      <trkpt lat="38.0943740" lon="-3.8382530">
        <ele>264.4</ele>
        <time>2018-04-28T08:51:11Z</time>
      </trkpt>
      <trkpt lat="38.0942850" lon="-3.8382070">
        <ele>264.2</ele>
        <time>2018-04-28T08:51:12Z</time>
      </trkpt>
      <trkpt lat="38.0942360" lon="-3.8381870">
        <ele>264.4</ele>
        <time>2018-04-28T08:51:13Z</time>
      </trkpt>
      <trkpt lat="38.0941910" lon="-3.8381610">
        <ele>264.6</ele>
        <time>2018-04-28T08:51:14Z</time>
      </trkpt>
      <trkpt lat="38.0941470" lon="-3.8381310">
        <ele>265.0</ele>
        <time>2018-04-28T08:51:15Z</time>
      </trkpt>
      <trkpt lat="38.0941020" lon="-3.8381000">
        <ele>265.0</ele>
        <time>2018-04-28T08:51:16Z</time>
      </trkpt>
      <trkpt lat="38.0940580" lon="-3.8380700">
        <ele>265.2</ele>
        <time>2018-04-28T08:51:17Z</time>
      </trkpt>
      <trkpt lat="38.0940120" lon="-3.8380410">
        <ele>265.0</ele>
        <time>2018-04-28T08:51:18Z</time>
      </trkpt>
      <trkpt lat="38.0939660" lon="-3.8380120">
        <ele>265.2</ele>
        <time>2018-04-28T08:51:19Z</time>
      </trkpt>
      <trkpt lat="38.0939190" lon="-3.8379840">
        <ele>265.4</ele>
        <time>2018-04-28T08:51:20Z</time>
      </trkpt>
      <trkpt lat="38.0938710" lon="-3.8379550">
        <ele>265.4</ele>
        <time>2018-04-28T08:51:21Z</time>
      </trkpt>
      <trkpt lat="38.0938230" lon="-3.8379300">
        <ele>265.4</ele>
        <time>2018-04-28T08:51:22Z</time>
      </trkpt>
      <trkpt lat="38.0937770" lon="-3.8379020">
        <ele>265.8</ele>
        <time>2018-04-28T08:51:23Z</time>
      </trkpt>
      <trkpt lat="38.0937340" lon="-3.8378700">
        <ele>265.8</ele>
        <time>2018-04-28T08:51:24Z</time>
      </trkpt>
      <trkpt lat="38.0936900" lon="-3.8378390">
        <ele>265.8</ele>
        <time>2018-04-28T08:51:25Z</time>
      </trkpt>
      <trkpt lat="38.0936520" lon="-3.8378030">
        <ele>265.8</ele>
        <time>2018-04-28T08:51:26Z</time>
      </trkpt>
      <trkpt lat="38.0936110" lon="-3.8377710">
        <ele>266.0</ele>
        <time>2018-04-28T08:51:27Z</time>
      </trkpt>
      <trkpt lat="38.0935640" lon="-3.8377460">
        <ele>266.2</ele>
        <time>2018-04-28T08:51:28Z</time>
      </trkpt>
      <trkpt lat="38.0935180" lon="-3.8377250">
        <ele>266.0</ele>
        <time>2018-04-28T08:51:29Z</time>
      </trkpt>
      <trkpt lat="38.0934750" lon="-3.8376990">
        <ele>266.0</ele>
        <time>2018-04-28T08:51:30Z</time>
      </trkpt>
      <trkpt lat="38.0934310" lon="-3.8376650">
        <ele>266.2</ele>
        <time>2018-04-28T08:51:31Z</time>
      </trkpt>
      <trkpt lat="38.0933860" lon="-3.8376440">
        <ele>266.2</ele>
        <time>2018-04-28T08:51:32Z</time>
      </trkpt>
      <trkpt lat="38.0933410" lon="-3.8376270">
        <ele>266.0</ele>
        <time>2018-04-28T08:51:33Z</time>
      </trkpt>
      <trkpt lat="38.0932940" lon="-3.8376130">
        <ele>266.2</ele>
        <time>2018-04-28T08:51:34Z</time>
      </trkpt>
      <trkpt lat="38.0932470" lon="-3.8375960">
        <ele>266.0</ele>
        <time>2018-04-28T08:51:35Z</time>
      </trkpt>
      <trkpt lat="38.0931990" lon="-3.8375810">
        <ele>266.2</ele>
        <time>2018-04-28T08:51:36Z</time>
      </trkpt>
      <trkpt lat="38.0931520" lon="-3.8375640">
        <ele>266.4</ele>
        <time>2018-04-28T08:51:37Z</time>
      </trkpt>
      <trkpt lat="38.0931060" lon="-3.8375410">
        <ele>266.2</ele>
        <time>2018-04-28T08:51:38Z</time>
      </trkpt>
      <trkpt lat="38.0930600" lon="-3.8375140">
        <ele>266.2</ele>
        <time>2018-04-28T08:51:39Z</time>
      </trkpt>
      <trkpt lat="38.0930170" lon="-3.8374920">
        <ele>266.4</ele>
        <time>2018-04-28T08:51:41Z</time>
      </trkpt>
      <trkpt lat="38.0929770" lon="-3.8374650">
        <ele>266.4</ele>
        <time>2018-04-28T08:51:42Z</time>
      </trkpt>
      <trkpt lat="38.0929360" lon="-3.8374450">
        <ele>266.6</ele>
        <time>2018-04-28T08:51:43Z</time>
      </trkpt>
      <trkpt lat="38.0928940" lon="-3.8374260">
        <ele>266.6</ele>
        <time>2018-04-28T08:51:44Z</time>
      </trkpt>
      <trkpt lat="38.0928540" lon="-3.8374080">
        <ele>266.8</ele>
        <time>2018-04-28T08:51:45Z</time>
      </trkpt>
      <trkpt lat="38.0928110" lon="-3.8373960">
        <ele>267.2</ele>
        <time>2018-04-28T08:51:46Z</time>
      </trkpt>
      <trkpt lat="38.0927680" lon="-3.8373860">
        <ele>267.2</ele>
        <time>2018-04-28T08:51:47Z</time>
      </trkpt>
      <trkpt lat="38.0927250" lon="-3.8373740">
        <ele>267.2</ele>
        <time>2018-04-28T08:51:48Z</time>
      </trkpt>
      <trkpt lat="38.0926810" lon="-3.8373620">
        <ele>267.2</ele>
        <time>2018-04-28T08:51:49Z</time>
      </trkpt>
      <trkpt lat="38.0926330" lon="-3.8373510">
        <ele>267.0</ele>
        <time>2018-04-28T08:51:50Z</time>
      </trkpt>
      <trkpt lat="38.0925850" lon="-3.8373390">
        <ele>266.8</ele>
        <time>2018-04-28T08:51:51Z</time>
      </trkpt>
      <trkpt lat="38.0925330" lon="-3.8373220">
        <ele>266.8</ele>
        <time>2018-04-28T08:51:52Z</time>
      </trkpt>
      <trkpt lat="38.0924810" lon="-3.8373110">
        <ele>266.8</ele>
        <time>2018-04-28T08:51:53Z</time>
      </trkpt>
      <trkpt lat="38.0924340" lon="-3.8372910">
        <ele>266.8</ele>
        <time>2018-04-28T08:51:54Z</time>
      </trkpt>
      <trkpt lat="38.0923920" lon="-3.8372610">
        <ele>266.8</ele>
        <time>2018-04-28T08:51:55Z</time>
      </trkpt>
      <trkpt lat="38.0923540" lon="-3.8372250">
        <ele>266.8</ele>
        <time>2018-04-28T08:51:56Z</time>
      </trkpt>
      <trkpt lat="38.0923180" lon="-3.8371870">
        <ele>266.8</ele>
        <time>2018-04-28T08:51:57Z</time>
      </trkpt>
      <trkpt lat="38.0922570" lon="-3.8371130">
        <ele>267.0</ele>
        <time>2018-04-28T08:51:58Z</time>
      </trkpt>
      <trkpt lat="38.0922300" lon="-3.8370780">
        <ele>267.2</ele>
        <time>2018-04-28T08:51:59Z</time>
      </trkpt>
      <trkpt lat="38.0922050" lon="-3.8370500">
        <ele>267.4</ele>
        <time>2018-04-28T08:52:00Z</time>
      </trkpt>
      <trkpt lat="38.0921840" lon="-3.8370250">
        <ele>267.6</ele>
        <time>2018-04-28T08:52:01Z</time>
      </trkpt>
      <trkpt lat="38.0921650" lon="-3.8370020">
        <ele>267.8</ele>
        <time>2018-04-28T08:52:02Z</time>
      </trkpt>
      <trkpt lat="38.0921450" lon="-3.8369800">
        <ele>268.0</ele>
        <time>2018-04-28T08:52:03Z</time>
      </trkpt>
      <trkpt lat="38.0921250" lon="-3.8369620">
        <ele>268.2</ele>
        <time>2018-04-28T08:52:04Z</time>
      </trkpt>
      <trkpt lat="38.0921050" lon="-3.8369470">
        <ele>268.0</ele>
        <time>2018-04-28T08:52:05Z</time>
      </trkpt>
      <trkpt lat="38.0920890" lon="-3.8369270">
        <ele>268.2</ele>
        <time>2018-04-28T08:52:06Z</time>
      </trkpt>
      <trkpt lat="38.0920760" lon="-3.8369030">
        <ele>267.8</ele>
        <time>2018-04-28T08:52:07Z</time>
      </trkpt>
      <trkpt lat="38.0920630" lon="-3.8368750">
        <ele>268.0</ele>
        <time>2018-04-28T08:52:08Z</time>
      </trkpt>
      <trkpt lat="38.0920490" lon="-3.8368480">
        <ele>267.8</ele>
        <time>2018-04-28T08:52:09Z</time>
      </trkpt>
      <trkpt lat="38.0920350" lon="-3.8368170">
        <ele>267.8</ele>
        <time>2018-04-28T08:52:10Z</time>
      </trkpt>
      <trkpt lat="38.0920180" lon="-3.8367840">
        <ele>267.8</ele>
        <time>2018-04-28T08:52:11Z</time>
      </trkpt>
      <trkpt lat="38.0920030" lon="-3.8367510">
        <ele>267.8</ele>
        <time>2018-04-28T08:52:12Z</time>
      </trkpt>
      <trkpt lat="38.0919860" lon="-3.8367160">
        <ele>267.8</ele>
        <time>2018-04-28T08:52:13Z</time>
      </trkpt>
      <trkpt lat="38.0919720" lon="-3.8366840">
        <ele>267.6</ele>
        <time>2018-04-28T08:52:14Z</time>
      </trkpt>
      <trkpt lat="38.0919590" lon="-3.8366510">
        <ele>267.6</ele>
        <time>2018-04-28T08:52:16Z</time>
      </trkpt>
      <trkpt lat="38.0919480" lon="-3.8366210">
        <ele>267.4</ele>
        <time>2018-04-28T08:52:17Z</time>
      </trkpt>
      <trkpt lat="38.0919430" lon="-3.8365960">
        <ele>267.2</ele>
        <time>2018-04-28T08:52:18Z</time>
      </trkpt>
      <trkpt lat="38.0919400" lon="-3.8365800">
        <ele>267.2</ele>
        <time>2018-04-28T08:52:19Z</time>
      </trkpt>
      <trkpt lat="38.0919370" lon="-3.8365750">
        <ele>267.2</ele>
        <time>2018-04-28T08:52:20Z</time>
      </trkpt>
      <trkpt lat="38.0919380" lon="-3.8365750">
        <ele>267.4</ele>
        <time>2018-04-28T08:52:21Z</time>
      </trkpt>
      <trkpt lat="38.0919420" lon="-3.8365750">
        <ele>267.2</ele>
        <time>2018-04-28T08:52:22Z</time>
      </trkpt>
      <trkpt lat="38.0919380" lon="-3.8365740">
        <ele>267.2</ele>
        <time>2018-04-28T08:52:23Z</time>
      </trkpt>
      <trkpt lat="38.0919350" lon="-3.8365770">
        <ele>267.2</ele>
        <time>2018-04-28T08:52:24Z</time>
      </trkpt>
      <trkpt lat="38.0919350" lon="-3.8365780">
        <ele>267.2</ele>
        <time>2018-04-28T08:52:25Z</time>
      </trkpt>
      <trkpt lat="38.0919370" lon="-3.8365810">
        <ele>267.2</ele>
        <time>2018-04-28T08:52:26Z</time>
      </trkpt>
      <trkpt lat="38.0918260" lon="-3.8363410">
        <ele>266.8</ele>
        <time>2018-04-28T08:54:30Z</time>
      </trkpt>
      <trkpt lat="38.0918130" lon="-3.8363020">
        <ele>266.6</ele>
        <time>2018-04-28T08:54:31Z</time>
      </trkpt>
      <trkpt lat="38.0918040" lon="-3.8362610">
        <ele>266.6</ele>
        <time>2018-04-28T08:54:32Z</time>
      </trkpt>
      <trkpt lat="38.0917980" lon="-3.8362160">
        <ele>266.6</ele>
        <time>2018-04-28T08:54:33Z</time>
      </trkpt>
      <trkpt lat="38.0917990" lon="-3.8361670">
        <ele>266.6</ele>
        <time>2018-04-28T08:54:34Z</time>
      </trkpt>
      <trkpt lat="38.0918050" lon="-3.8361170">
        <ele>266.6</ele>
        <time>2018-04-28T08:54:35Z</time>
      </trkpt>
      <trkpt lat="38.0918160" lon="-3.8360660">
        <ele>266.4</ele>
        <time>2018-04-28T08:54:36Z</time>
      </trkpt>
      <trkpt lat="38.0918280" lon="-3.8360130">
        <ele>266.2</ele>
        <time>2018-04-28T08:54:37Z</time>
      </trkpt>
      <trkpt lat="38.0918420" lon="-3.8359560">
        <ele>266.0</ele>
        <time>2018-04-28T08:54:38Z</time>
      </trkpt>
      <trkpt lat="38.0918470" lon="-3.8359000">
        <ele>266.0</ele>
        <time>2018-04-28T08:54:39Z</time>
      </trkpt>
      <trkpt lat="38.0918570" lon="-3.8358470">
        <ele>266.0</ele>
        <time>2018-04-28T08:54:40Z</time>
      </trkpt>
      <trkpt lat="38.0918630" lon="-3.8357890">
        <ele>265.8</ele>
        <time>2018-04-28T08:54:41Z</time>
      </trkpt>
      <trkpt lat="38.0918620" lon="-3.8357320">
        <ele>265.8</ele>
        <time>2018-04-28T08:54:42Z</time>
      </trkpt>
      <trkpt lat="38.0918540" lon="-3.8356760">
        <ele>265.8</ele>
        <time>2018-04-28T08:54:43Z</time>
      </trkpt>
      <trkpt lat="38.0918500" lon="-3.8356240">
        <ele>265.8</ele>
        <time>2018-04-28T08:54:44Z</time>
      </trkpt>
      <trkpt lat="38.0918270" lon="-3.8355850">
        <ele>265.8</ele>
        <time>2018-04-28T08:54:45Z</time>
      </trkpt>
      <trkpt lat="38.0918060" lon="-3.8355480">
        <ele>265.6</ele>
        <time>2018-04-28T08:54:46Z</time>
      </trkpt>
      <trkpt lat="38.0917840" lon="-3.8355070">
        <ele>265.8</ele>
        <time>2018-04-28T08:54:47Z</time>
      </trkpt>
      <trkpt lat="38.0917650" lon="-3.8354640">
        <ele>265.8</ele>
        <time>2018-04-28T08:54:48Z</time>
      </trkpt>
      <trkpt lat="38.0917490" lon="-3.8354180">
        <ele>266.0</ele>
        <time>2018-04-28T08:54:49Z</time>
      </trkpt>
      <trkpt lat="38.0917310" lon="-3.8353730">
        <ele>265.8</ele>
        <time>2018-04-28T08:54:50Z</time>
      </trkpt>
      <trkpt lat="38.0917160" lon="-3.8353300">
        <ele>265.6</ele>
        <time>2018-04-28T08:54:51Z</time>
      </trkpt>
      <trkpt lat="38.0917030" lon="-3.8352920">
        <ele>265.6</ele>
        <time>2018-04-28T08:54:52Z</time>
      </trkpt>
      <trkpt lat="38.0916870" lon="-3.8352560">
        <ele>265.4</ele>
        <time>2018-04-28T08:54:53Z</time>
      </trkpt>
      <trkpt lat="38.0916780" lon="-3.8352200">
        <ele>265.2</ele>
        <time>2018-04-28T08:54:54Z</time>
      </trkpt>
      <trkpt lat="38.0916680" lon="-3.8351850">
        <ele>265.0</ele>
        <time>2018-04-28T08:54:55Z</time>
      </trkpt>
      <trkpt lat="38.0916590" lon="-3.8351520">
        <ele>265.0</ele>
        <time>2018-04-28T08:54:56Z</time>
      </trkpt>
      <trkpt lat="38.0916530" lon="-3.8351180">
        <ele>264.6</ele>
        <time>2018-04-28T08:54:57Z</time>
      </trkpt>
      <trkpt lat="38.0916550" lon="-3.8350790">
        <ele>264.6</ele>
        <time>2018-04-28T08:54:58Z</time>
      </trkpt>
      <trkpt lat="38.0916540" lon="-3.8350430">
        <ele>264.2</ele>
        <time>2018-04-28T08:54:59Z</time>
      </trkpt>
      <trkpt lat="38.0916550" lon="-3.8350070">
        <ele>264.0</ele>
        <time>2018-04-28T08:55:00Z</time>
      </trkpt>
      <trkpt lat="38.0916570" lon="-3.8349680">
        <ele>263.8</ele>
        <time>2018-04-28T08:55:01Z</time>
      </trkpt>
      <trkpt lat="38.0916610" lon="-3.8349390">
        <ele>263.6</ele>
        <time>2018-04-28T08:55:02Z</time>
      </trkpt>
      <trkpt lat="38.0916660" lon="-3.8349180">
        <ele>263.6</ele>
        <time>2018-04-28T08:55:03Z</time>
      </trkpt>
      <trkpt lat="38.0916670" lon="-3.8349000">
        <ele>263.4</ele>
        <time>2018-04-28T08:55:04Z</time>
      </trkpt>
      <trkpt lat="38.0916620" lon="-3.8348870">
        <ele>263.4</ele>
        <time>2018-04-28T08:55:05Z</time>
      </trkpt>
      <trkpt lat="38.0916690" lon="-3.8348730">
        <ele>263.2</ele>
        <time>2018-04-28T08:55:06Z</time>
      </trkpt>
      <trkpt lat="38.0916700" lon="-3.8348710">
        <ele>263.2</ele>
        <time>2018-04-28T08:55:07Z</time>
      </trkpt>
      <trkpt lat="38.0916700" lon="-3.8348720">
        <ele>263.2</ele>
        <time>2018-04-28T08:55:08Z</time>
      </trkpt>
      <trkpt lat="38.0916710" lon="-3.8348710">
        <ele>263.2</ele>
        <time>2018-04-28T08:55:09Z</time>
      </trkpt>
      <trkpt lat="38.0916770" lon="-3.8348650">
        <ele>263.2</ele>
        <time>2018-04-28T08:55:10Z</time>
      </trkpt>
      <trkpt lat="38.0916790" lon="-3.8348580">
        <ele>263.2</ele>
        <time>2018-04-28T08:55:11Z</time>
      </trkpt>
      <trkpt lat="38.0916790" lon="-3.8348470">
        <ele>263.2</ele>
        <time>2018-04-28T08:55:12Z</time>
      </trkpt>
      <trkpt lat="38.0916820" lon="-3.8348440">
        <ele>263.2</ele>
        <time>2018-04-28T08:55:13Z</time>
      </trkpt>
      <trkpt lat="38.0915690" lon="-3.8346610">
        <ele>261.4</ele>
        <time>2018-04-28T09:09:22Z</time>
      </trkpt>
      <trkpt lat="38.0915410" lon="-3.8346690">
        <ele>261.6</ele>
        <time>2018-04-28T09:09:23Z</time>
      </trkpt>
      <trkpt lat="38.0915130" lon="-3.8346840">
        <ele>261.4</ele>
        <time>2018-04-28T09:09:24Z</time>
      </trkpt>
      <trkpt lat="38.0914890" lon="-3.8347100">
        <ele>261.6</ele>
        <time>2018-04-28T09:09:25Z</time>
      </trkpt>
      <trkpt lat="38.0914690" lon="-3.8347440">
        <ele>261.4</ele>
        <time>2018-04-28T09:09:26Z</time>
      </trkpt>
      <trkpt lat="38.0914530" lon="-3.8347830">
        <ele>261.4</ele>
        <time>2018-04-28T09:09:27Z</time>
      </trkpt>
      <trkpt lat="38.0914400" lon="-3.8348230">
        <ele>261.4</ele>
        <time>2018-04-28T09:09:28Z</time>
      </trkpt>
      <trkpt lat="38.0914240" lon="-3.8348630">
        <ele>261.6</ele>
        <time>2018-04-28T09:09:29Z</time>
      </trkpt>
      <trkpt lat="38.0914070" lon="-3.8349020">
        <ele>261.4</ele>
        <time>2018-04-28T09:09:30Z</time>
      </trkpt>
      <trkpt lat="38.0913930" lon="-3.8349410">
        <ele>261.4</ele>
        <time>2018-04-28T09:09:31Z</time>
      </trkpt>
      <trkpt lat="38.0913760" lon="-3.8349810">
        <ele>261.2</ele>
        <time>2018-04-28T09:09:32Z</time>
      </trkpt>
      <trkpt lat="38.0913530" lon="-3.8350170">
        <ele>261.0</ele>
        <time>2018-04-28T09:09:33Z</time>
      </trkpt>
      <trkpt lat="38.0913270" lon="-3.8350500">
        <ele>260.8</ele>
        <time>2018-04-28T09:09:34Z</time>
      </trkpt>
      <trkpt lat="38.0912980" lon="-3.8350860">
        <ele>260.6</ele>
        <time>2018-04-28T09:09:35Z</time>
      </trkpt>
      <trkpt lat="38.0912700" lon="-3.8351220">
        <ele>260.4</ele>
        <time>2018-04-28T09:09:36Z</time>
      </trkpt>
      <trkpt lat="38.0912430" lon="-3.8351590">
        <ele>260.0</ele>
        <time>2018-04-28T09:09:37Z</time>
      </trkpt>
      <trkpt lat="38.0912100" lon="-3.8351980">
        <ele>259.8</ele>
        <time>2018-04-28T09:09:38Z</time>
      </trkpt>
      <trkpt lat="38.0911730" lon="-3.8352400">
        <ele>259.4</ele>
        <time>2018-04-28T09:09:39Z</time>
      </trkpt>
      <trkpt lat="38.0911290" lon="-3.8352820">
        <ele>258.8</ele>
        <time>2018-04-28T09:09:40Z</time>
      </trkpt>
      <trkpt lat="38.0910840" lon="-3.8353270">
        <ele>258.6</ele>
        <time>2018-04-28T09:09:41Z</time>
      </trkpt>
      <trkpt lat="38.0910380" lon="-3.8353710">
        <ele>258.0</ele>
        <time>2018-04-28T09:09:42Z</time>
      </trkpt>
      <trkpt lat="38.0909900" lon="-3.8354140">
        <ele>258.0</ele>
        <time>2018-04-28T09:09:43Z</time>
      </trkpt>
      <trkpt lat="38.0909430" lon="-3.8354540">
        <ele>257.4</ele>
        <time>2018-04-28T09:09:44Z</time>
      </trkpt>
      <trkpt lat="38.0908960" lon="-3.8354960">
        <ele>256.8</ele>
        <time>2018-04-28T09:09:45Z</time>
      </trkpt>
      <trkpt lat="38.0908470" lon="-3.8355350">
        <ele>256.0</ele>
        <time>2018-04-28T09:09:46Z</time>
      </trkpt>
      <trkpt lat="38.0907990" lon="-3.8355730">
        <ele>255.2</ele>
        <time>2018-04-28T09:09:47Z</time>
      </trkpt>
      <trkpt lat="38.0907530" lon="-3.8356110">
        <ele>255.0</ele>
        <time>2018-04-28T09:09:48Z</time>
      </trkpt>
      <trkpt lat="38.0907070" lon="-3.8356470">
        <ele>254.4</ele>
        <time>2018-04-28T09:09:49Z</time>
      </trkpt>
      <trkpt lat="38.0906590" lon="-3.8356830">
        <ele>254.0</ele>
        <time>2018-04-28T09:09:50Z</time>
      </trkpt>
      <trkpt lat="38.0906100" lon="-3.8357170">
        <ele>253.6</ele>
        <time>2018-04-28T09:09:51Z</time>
      </trkpt>
      <trkpt lat="38.0905610" lon="-3.8357460">
        <ele>253.4</ele>
        <time>2018-04-28T09:09:52Z</time>
      </trkpt>
      <trkpt lat="38.0905110" lon="-3.8357710">
        <ele>252.8</ele>
        <time>2018-04-28T09:09:53Z</time>
      </trkpt>
      <trkpt lat="38.0904610" lon="-3.8357890">
        <ele>252.6</ele>
        <time>2018-04-28T09:09:54Z</time>
      </trkpt>
      <trkpt lat="38.0904090" lon="-3.8358010">
        <ele>252.2</ele>
        <time>2018-04-28T09:09:55Z</time>
      </trkpt>
      <trkpt lat="38.0903570" lon="-3.8358130">
        <ele>251.8</ele>
        <time>2018-04-28T09:09:56Z</time>
      </trkpt>
      <trkpt lat="38.0903030" lon="-3.8358290">
        <ele>251.4</ele>
        <time>2018-04-28T09:09:57Z</time>
      </trkpt>
      <trkpt lat="38.0902480" lon="-3.8358530">
        <ele>251.0</ele>
        <time>2018-04-28T09:09:58Z</time>
      </trkpt>
      <trkpt lat="38.0901940" lon="-3.8358870">
        <ele>250.8</ele>
        <time>2018-04-28T09:09:59Z</time>
      </trkpt>
      <trkpt lat="38.0901390" lon="-3.8359270">
        <ele>250.4</ele>
        <time>2018-04-28T09:10:00Z</time>
      </trkpt>
      <trkpt lat="38.0900800" lon="-3.8359640">
        <ele>250.0</ele>
        <time>2018-04-28T09:10:01Z</time>
      </trkpt>
      <trkpt lat="38.0900180" lon="-3.8359940">
        <ele>249.4</ele>
        <time>2018-04-28T09:10:02Z</time>
      </trkpt>
      <trkpt lat="38.0899520" lon="-3.8360170">
        <ele>249.2</ele>
        <time>2018-04-28T09:10:03Z</time>
      </trkpt>
      <trkpt lat="38.0898870" lon="-3.8360380">
        <ele>248.8</ele>
        <time>2018-04-28T09:10:04Z</time>
      </trkpt>
      <trkpt lat="38.0898190" lon="-3.8360550">
        <ele>248.6</ele>
        <time>2018-04-28T09:10:05Z</time>
      </trkpt>
      <trkpt lat="38.0897530" lon="-3.8360680">
        <ele>248.4</ele>
        <time>2018-04-28T09:10:06Z</time>
      </trkpt>
      <trkpt lat="38.0896890" lon="-3.8360820">
        <ele>248.4</ele>
        <time>2018-04-28T09:10:07Z</time>
      </trkpt>
      <trkpt lat="38.0896280" lon="-3.8360980">
        <ele>248.4</ele>
        <time>2018-04-28T09:10:08Z</time>
      </trkpt>
      <trkpt lat="38.0895680" lon="-3.8361120">
        <ele>248.4</ele>
        <time>2018-04-28T09:10:09Z</time>
      </trkpt>
      <trkpt lat="38.0895100" lon="-3.8361220">
        <ele>248.4</ele>
        <time>2018-04-28T09:10:10Z</time>
      </trkpt>
      <trkpt lat="38.0894550" lon="-3.8361300">
        <ele>248.6</ele>
        <time>2018-04-28T09:10:11Z</time>
      </trkpt>
      <trkpt lat="38.0894040" lon="-3.8361370">
        <ele>248.8</ele>
        <time>2018-04-28T09:10:12Z</time>
      </trkpt>
      <trkpt lat="38.0893580" lon="-3.8361480">
        <ele>249.0</ele>
        <time>2018-04-28T09:10:13Z</time>
      </trkpt>
      <trkpt lat="38.0893140" lon="-3.8361570">
        <ele>248.8</ele>
        <time>2018-04-28T09:10:14Z</time>
      </trkpt>
      <trkpt lat="38.0892720" lon="-3.8361670">
        <ele>248.8</ele>
        <time>2018-04-28T09:10:15Z</time>
      </trkpt>
      <trkpt lat="38.0892310" lon="-3.8361790">
        <ele>248.8</ele>
        <time>2018-04-28T09:10:16Z</time>
      </trkpt>
      <trkpt lat="38.0891890" lon="-3.8361910">
        <ele>248.6</ele>
        <time>2018-04-28T09:10:17Z</time>
      </trkpt>
      <trkpt lat="38.0891450" lon="-3.8362040">
        <ele>248.6</ele>
        <time>2018-04-28T09:10:18Z</time>
      </trkpt>
      <trkpt lat="38.0891010" lon="-3.8362210">
        <ele>248.6</ele>
        <time>2018-04-28T09:10:19Z</time>
      </trkpt>
      <trkpt lat="38.0890540" lon="-3.8362360">
        <ele>248.6</ele>
        <time>2018-04-28T09:10:20Z</time>
      </trkpt>
      <trkpt lat="38.0890070" lon="-3.8362510">
        <ele>248.4</ele>
        <time>2018-04-28T09:10:21Z</time>
      </trkpt>
      <trkpt lat="38.0889550" lon="-3.8362610">
        <ele>245.8</ele>
        <time>2018-04-28T09:10:22Z</time>
      </trkpt>
      <trkpt lat="38.0889050" lon="-3.8362740">
        <ele>245.8</ele>
        <time>2018-04-28T09:10:23Z</time>
      </trkpt>
      <trkpt lat="38.0888560" lon="-3.8362920">
        <ele>248.0</ele>
        <time>2018-04-28T09:10:24Z</time>
      </trkpt>
      <trkpt lat="38.0888070" lon="-3.8363150">
        <ele>248.0</ele>
        <time>2018-04-28T09:10:25Z</time>
      </trkpt>
      <trkpt lat="38.0887570" lon="-3.8363370">
        <ele>247.8</ele>
        <time>2018-04-28T09:10:26Z</time>
      </trkpt>
      <trkpt lat="38.0887060" lon="-3.8363580">
        <ele>247.6</ele>
        <time>2018-04-28T09:10:27Z</time>
      </trkpt>
      <trkpt lat="38.0886540" lon="-3.8363750">
        <ele>247.6</ele>
        <time>2018-04-28T09:10:28Z</time>
      </trkpt>
      <trkpt lat="38.0886010" lon="-3.8363920">
        <ele>247.6</ele>
        <time>2018-04-28T09:10:29Z</time>
      </trkpt>
      <trkpt lat="38.0885490" lon="-3.8364080">
        <ele>247.6</ele>
        <time>2018-04-28T09:10:30Z</time>
      </trkpt>
      <trkpt lat="38.0884980" lon="-3.8364260">
        <ele>247.2</ele>
        <time>2018-04-28T09:10:31Z</time>
      </trkpt>
      <trkpt lat="38.0884480" lon="-3.8364460">
        <ele>247.0</ele>
        <time>2018-04-28T09:10:32Z</time>
      </trkpt>
      <trkpt lat="38.0883960" lon="-3.8364650">
        <ele>247.0</ele>
        <time>2018-04-28T09:10:33Z</time>
      </trkpt>
      <trkpt lat="38.0883430" lon="-3.8364830">
        <ele>246.8</ele>
        <time>2018-04-28T09:10:34Z</time>
      </trkpt>
      <trkpt lat="38.0882910" lon="-3.8364980">
        <ele>246.6</ele>
        <time>2018-04-28T09:10:35Z</time>
      </trkpt>
      <trkpt lat="38.0882380" lon="-3.8365090">
        <ele>246.6</ele>
        <time>2018-04-28T09:10:36Z</time>
      </trkpt>
      <trkpt lat="38.0881840" lon="-3.8365170">
        <ele>246.2</ele>
        <time>2018-04-28T09:10:37Z</time>
      </trkpt>
      <trkpt lat="38.0881290" lon="-3.8365230">
        <ele>246.0</ele>
        <time>2018-04-28T09:10:38Z</time>
      </trkpt>
      <trkpt lat="38.0880700" lon="-3.8365280">
        <ele>245.6</ele>
        <time>2018-04-28T09:10:39Z</time>
      </trkpt>
      <trkpt lat="38.0880110" lon="-3.8365330">
        <ele>245.4</ele>
        <time>2018-04-28T09:10:40Z</time>
      </trkpt>
      <trkpt lat="38.0879510" lon="-3.8365430">
        <ele>245.4</ele>
        <time>2018-04-28T09:10:41Z</time>
      </trkpt>
      <trkpt lat="38.0878900" lon="-3.8365440">
        <ele>244.8</ele>
        <time>2018-04-28T09:10:42Z</time>
      </trkpt>
      <trkpt lat="38.0878280" lon="-3.8365480">
        <ele>245.0</ele>
        <time>2018-04-28T09:10:43Z</time>
      </trkpt>
      <trkpt lat="38.0877650" lon="-3.8365450">
        <ele>244.6</ele>
        <time>2018-04-28T09:10:44Z</time>
      </trkpt>
      <trkpt lat="38.0877010" lon="-3.8365440">
        <ele>244.2</ele>
        <time>2018-04-28T09:10:45Z</time>
      </trkpt>
      <trkpt lat="38.0876350" lon="-3.8365390">
        <ele>244.0</ele>
        <time>2018-04-28T09:10:46Z</time>
      </trkpt>
      <trkpt lat="38.0875670" lon="-3.8365290">
        <ele>243.6</ele>
        <time>2018-04-28T09:10:47Z</time>
      </trkpt>
      <trkpt lat="38.0875000" lon="-3.8365220">
        <ele>243.6</ele>
        <time>2018-04-28T09:10:48Z</time>
      </trkpt>
      <trkpt lat="38.0874320" lon="-3.8365120">
        <ele>243.2</ele>
        <time>2018-04-28T09:10:49Z</time>
      </trkpt>
      <trkpt lat="38.0873640" lon="-3.8365010">
        <ele>243.2</ele>
        <time>2018-04-28T09:10:50Z</time>
      </trkpt>
      <trkpt lat="38.0872960" lon="-3.8364810">
        <ele>243.0</ele>
        <time>2018-04-28T09:10:51Z</time>
      </trkpt>
      <trkpt lat="38.0872280" lon="-3.8364670">
        <ele>242.8</ele>
        <time>2018-04-28T09:10:52Z</time>
      </trkpt>
      <trkpt lat="38.0871650" lon="-3.8364460">
        <ele>242.2</ele>
        <time>2018-04-28T09:10:53Z</time>
      </trkpt>
      <trkpt lat="38.0871050" lon="-3.8364220">
        <ele>242.2</ele>
        <time>2018-04-28T09:10:54Z</time>
      </trkpt>
      <trkpt lat="38.0870460" lon="-3.8363990">
        <ele>242.0</ele>
        <time>2018-04-28T09:10:55Z</time>
      </trkpt>
      <trkpt lat="38.0869860" lon="-3.8363730">
        <ele>242.0</ele>
        <time>2018-04-28T09:10:56Z</time>
      </trkpt>
      <trkpt lat="38.0869270" lon="-3.8363450">
        <ele>242.0</ele>
        <time>2018-04-28T09:10:57Z</time>
      </trkpt>
      <trkpt lat="38.0868670" lon="-3.8363250">
        <ele>242.0</ele>
        <time>2018-04-28T09:10:58Z</time>
      </trkpt>
      <trkpt lat="38.0868080" lon="-3.8363160">
        <ele>241.8</ele>
        <time>2018-04-28T09:10:59Z</time>
      </trkpt>
      <trkpt lat="38.0867500" lon="-3.8363170">
        <ele>241.8</ele>
        <time>2018-04-28T09:11:00Z</time>
      </trkpt>
      <trkpt lat="38.0866950" lon="-3.8363280">
        <ele>242.0</ele>
        <time>2018-04-28T09:11:01Z</time>
      </trkpt>
      <trkpt lat="38.0866450" lon="-3.8363430">
        <ele>242.4</ele>
        <time>2018-04-28T09:11:02Z</time>
      </trkpt>
      <trkpt lat="38.0865980" lon="-3.8363590">
        <ele>242.6</ele>
        <time>2018-04-28T09:11:03Z</time>
      </trkpt>
      <trkpt lat="38.0865540" lon="-3.8363770">
        <ele>243.0</ele>
        <time>2018-04-28T09:11:04Z</time>
      </trkpt>
      <trkpt lat="38.0865120" lon="-3.8363980">
        <ele>243.2</ele>
        <time>2018-04-28T09:11:05Z</time>
      </trkpt>
      <trkpt lat="38.0864740" lon="-3.8364240">
        <ele>243.4</ele>
        <time>2018-04-28T09:11:06Z</time>
      </trkpt>
      <trkpt lat="38.0864380" lon="-3.8364560">
        <ele>243.4</ele>
        <time>2018-04-28T09:11:07Z</time>
      </trkpt>
      <trkpt lat="38.0864030" lon="-3.8364920">
        <ele>243.4</ele>
        <time>2018-04-28T09:11:08Z</time>
      </trkpt>
      <trkpt lat="38.0863720" lon="-3.8365330">
        <ele>243.6</ele>
        <time>2018-04-28T09:11:09Z</time>
      </trkpt>
      <trkpt lat="38.0863440" lon="-3.8365760">
        <ele>243.8</ele>
        <time>2018-04-28T09:11:10Z</time>
      </trkpt>
      <trkpt lat="38.0863150" lon="-3.8366210">
        <ele>243.8</ele>
        <time>2018-04-28T09:11:11Z</time>
      </trkpt>
      <trkpt lat="38.0862890" lon="-3.8366660">
        <ele>243.8</ele>
        <time>2018-04-28T09:11:12Z</time>
      </trkpt>
      <trkpt lat="38.0862630" lon="-3.8367130">
        <ele>243.8</ele>
        <time>2018-04-28T09:11:13Z</time>
      </trkpt>
      <trkpt lat="38.0862430" lon="-3.8367610">
        <ele>244.0</ele>
        <time>2018-04-28T09:11:14Z</time>
      </trkpt>
      <trkpt lat="38.0862220" lon="-3.8368110">
        <ele>244.0</ele>
        <time>2018-04-28T09:11:15Z</time>
      </trkpt>
      <trkpt lat="38.0862020" lon="-3.8368590">
        <ele>244.2</ele>
        <time>2018-04-28T09:11:16Z</time>
      </trkpt>
      <trkpt lat="38.0861830" lon="-3.8369070">
        <ele>244.2</ele>
        <time>2018-04-28T09:11:17Z</time>
      </trkpt>
      <trkpt lat="38.0861660" lon="-3.8369530">
        <ele>244.2</ele>
        <time>2018-04-28T09:11:18Z</time>
      </trkpt>
      <trkpt lat="38.0861480" lon="-3.8370000">
        <ele>244.2</ele>
        <time>2018-04-28T09:11:19Z</time>
      </trkpt>
      <trkpt lat="38.0861300" lon="-3.8370460">
        <ele>244.4</ele>
        <time>2018-04-28T09:11:20Z</time>
      </trkpt>
      <trkpt lat="38.0861130" lon="-3.8370920">
        <ele>244.4</ele>
        <time>2018-04-28T09:11:21Z</time>
      </trkpt>
      <trkpt lat="38.0860960" lon="-3.8371390">
        <ele>244.4</ele>
        <time>2018-04-28T09:11:22Z</time>
      </trkpt>
      <trkpt lat="38.0860770" lon="-3.8371880">
        <ele>244.6</ele>
        <time>2018-04-28T09:11:23Z</time>
      </trkpt>
      <trkpt lat="38.0860580" lon="-3.8372360">
        <ele>244.4</ele>
        <time>2018-04-28T09:11:24Z</time>
      </trkpt>
      <trkpt lat="38.0860420" lon="-3.8372830">
        <ele>244.6</ele>
        <time>2018-04-28T09:11:25Z</time>
      </trkpt>
      <trkpt lat="38.0860230" lon="-3.8373280">
        <ele>244.6</ele>
        <time>2018-04-28T09:11:26Z</time>
      </trkpt>
      <trkpt lat="38.0860050" lon="-3.8373730">
        <ele>244.8</ele>
        <time>2018-04-28T09:11:27Z</time>
      </trkpt>
      <trkpt lat="38.0859850" lon="-3.8374160">
        <ele>244.6</ele>
        <time>2018-04-28T09:11:28Z</time>
      </trkpt>
      <trkpt lat="38.0859670" lon="-3.8374580">
        <ele>244.6</ele>
        <time>2018-04-28T09:11:29Z</time>
      </trkpt>
      <trkpt lat="38.0859480" lon="-3.8375000">
        <ele>244.4</ele>
        <time>2018-04-28T09:11:30Z</time>
      </trkpt>
      <trkpt lat="38.0859280" lon="-3.8375420">
        <ele>244.4</ele>
        <time>2018-04-28T09:11:31Z</time>
      </trkpt>
      <trkpt lat="38.0859010" lon="-3.8375740">
        <ele>244.8</ele>
        <time>2018-04-28T09:11:32Z</time>
      </trkpt>
      <trkpt lat="38.0858650" lon="-3.8375920">
        <ele>244.8</ele>
        <time>2018-04-28T09:11:33Z</time>
      </trkpt>
      <trkpt lat="38.0858260" lon="-3.8375890">
        <ele>244.8</ele>
        <time>2018-04-28T09:11:34Z</time>
      </trkpt>
      <trkpt lat="38.0857900" lon="-3.8375670">
        <ele>244.6</ele>
        <time>2018-04-28T09:11:35Z</time>
      </trkpt>
      <trkpt lat="38.0857560" lon="-3.8375350">
        <ele>244.6</ele>
        <time>2018-04-28T09:11:36Z</time>
      </trkpt>
      <trkpt lat="38.0857220" lon="-3.8375010">
        <ele>244.6</ele>
        <time>2018-04-28T09:11:37Z</time>
      </trkpt>
      <trkpt lat="38.0856890" lon="-3.8374680">
        <ele>244.6</ele>
        <time>2018-04-28T09:11:38Z</time>
      </trkpt>
      <trkpt lat="38.0856550" lon="-3.8374370">
        <ele>244.6</ele>
        <time>2018-04-28T09:11:39Z</time>
      </trkpt>
      <trkpt lat="38.0856200" lon="-3.8374070">
        <ele>244.6</ele>
        <time>2018-04-28T09:11:40Z</time>
      </trkpt>
      <trkpt lat="38.0855840" lon="-3.8373780">
        <ele>244.8</ele>
        <time>2018-04-28T09:11:41Z</time>
      </trkpt>
      <trkpt lat="38.0855470" lon="-3.8373490">
        <ele>244.8</ele>
        <time>2018-04-28T09:11:42Z</time>
      </trkpt>
      <trkpt lat="38.0855110" lon="-3.8373190">
        <ele>244.6</ele>
        <time>2018-04-28T09:11:43Z</time>
      </trkpt>
      <trkpt lat="38.0854740" lon="-3.8372870">
        <ele>244.6</ele>
        <time>2018-04-28T09:11:44Z</time>
      </trkpt>
      <trkpt lat="38.0854370" lon="-3.8372540">
        <ele>244.8</ele>
        <time>2018-04-28T09:11:45Z</time>
      </trkpt>
      <trkpt lat="38.0854000" lon="-3.8372230">
        <ele>244.8</ele>
        <time>2018-04-28T09:11:46Z</time>
      </trkpt>
      <trkpt lat="38.0853620" lon="-3.8371930">
        <ele>244.6</ele>
        <time>2018-04-28T09:11:47Z</time>
      </trkpt>
      <trkpt lat="38.0853240" lon="-3.8371630">
        <ele>244.6</ele>
        <time>2018-04-28T09:11:48Z</time>
      </trkpt>
      <trkpt lat="38.0852870" lon="-3.8371310">
        <ele>244.6</ele>
        <time>2018-04-28T09:11:49Z</time>
      </trkpt>
      <trkpt lat="38.0852490" lon="-3.8370960">
        <ele>244.6</ele>
        <time>2018-04-28T09:11:50Z</time>
      </trkpt>
      <trkpt lat="38.0852120" lon="-3.8370620">
        <ele>244.4</ele>
        <time>2018-04-28T09:11:51Z</time>
      </trkpt>
      <trkpt lat="38.0851790" lon="-3.8370240">
        <ele>244.4</ele>
        <time>2018-04-28T09:11:52Z</time>
      </trkpt>
      <trkpt lat="38.0851540" lon="-3.8369750">
        <ele>244.4</ele>
        <time>2018-04-28T09:11:53Z</time>
      </trkpt>
      <trkpt lat="38.0851430" lon="-3.8369210">
        <ele>244.4</ele>
        <time>2018-04-28T09:11:54Z</time>
      </trkpt>
      <trkpt lat="38.0851490" lon="-3.8368690">
        <ele>244.4</ele>
        <time>2018-04-28T09:11:55Z</time>
      </trkpt>
      <trkpt lat="38.0851680" lon="-3.8368170">
        <ele>244.4</ele>
        <time>2018-04-28T09:11:56Z</time>
      </trkpt>
      <trkpt lat="38.0851930" lon="-3.8367660">
        <ele>244.2</ele>
        <time>2018-04-28T09:11:57Z</time>
      </trkpt>
      <trkpt lat="38.0852260" lon="-3.8367130">
        <ele>244.0</ele>
        <time>2018-04-28T09:11:58Z</time>
      </trkpt>
      <trkpt lat="38.0852630" lon="-3.8366610">
        <ele>243.8</ele>
        <time>2018-04-28T09:11:59Z</time>
      </trkpt>
      <trkpt lat="38.0853020" lon="-3.8366060">
        <ele>243.4</ele>
        <time>2018-04-28T09:12:00Z</time>
      </trkpt>
      <trkpt lat="38.0853410" lon="-3.8365490">
        <ele>243.2</ele>
        <time>2018-04-28T09:12:01Z</time>
      </trkpt>
      <trkpt lat="38.0853830" lon="-3.8364870">
        <ele>243.2</ele>
        <time>2018-04-28T09:12:02Z</time>
      </trkpt>
      <trkpt lat="38.0854230" lon="-3.8364280">
        <ele>243.0</ele>
        <time>2018-04-28T09:12:03Z</time>
      </trkpt>
      <trkpt lat="38.0854650" lon="-3.8363670">
        <ele>242.8</ele>
        <time>2018-04-28T09:12:04Z</time>
      </trkpt>
      <trkpt lat="38.0855080" lon="-3.8363040">
        <ele>242.6</ele>
        <time>2018-04-28T09:12:05Z</time>
      </trkpt>
      <trkpt lat="38.0855500" lon="-3.8362390">
        <ele>242.4</ele>
        <time>2018-04-28T09:12:06Z</time>
      </trkpt>
      <trkpt lat="38.0855910" lon="-3.8361780">
        <ele>242.2</ele>
        <time>2018-04-28T09:12:07Z</time>
      </trkpt>
      <trkpt lat="38.0856340" lon="-3.8361180">
        <ele>242.2</ele>
        <time>2018-04-28T09:12:08Z</time>
      </trkpt>
      <trkpt lat="38.0856740" lon="-3.8360570">
        <ele>242.0</ele>
        <time>2018-04-28T09:12:09Z</time>
      </trkpt>
      <trkpt lat="38.0857140" lon="-3.8360000">
        <ele>242.2</ele>
        <time>2018-04-28T09:12:10Z</time>
      </trkpt>
      <trkpt lat="38.0857500" lon="-3.8359450">
        <ele>242.2</ele>
        <time>2018-04-28T09:12:11Z</time>
      </trkpt>
      <trkpt lat="38.0857850" lon="-3.8358930">
        <ele>242.2</ele>
        <time>2018-04-28T09:12:12Z</time>
      </trkpt>
      <trkpt lat="38.0858160" lon="-3.8358360">
        <ele>242.2</ele>
        <time>2018-04-28T09:12:13Z</time>
      </trkpt>
      <trkpt lat="38.0858510" lon="-3.8357800">
        <ele>242.2</ele>
        <time>2018-04-28T09:12:14Z</time>
      </trkpt>
      <trkpt lat="38.0858890" lon="-3.8357260">
        <ele>242.4</ele>
        <time>2018-04-28T09:12:15Z</time>
      </trkpt>
      <trkpt lat="38.0859260" lon="-3.8356730">
        <ele>242.4</ele>
        <time>2018-04-28T09:12:16Z</time>
      </trkpt>
      <trkpt lat="38.0859650" lon="-3.8356200">
        <ele>242.4</ele>
        <time>2018-04-28T09:12:17Z</time>
      </trkpt>
      <trkpt lat="38.0860040" lon="-3.8355710">
        <ele>242.6</ele>
        <time>2018-04-28T09:12:18Z</time>
      </trkpt>
      <trkpt lat="38.0860450" lon="-3.8355240">
        <ele>242.8</ele>
        <time>2018-04-28T09:12:19Z</time>
      </trkpt>
      <trkpt lat="38.0860850" lon="-3.8354800">
        <ele>242.8</ele>
        <time>2018-04-28T09:12:20Z</time>
      </trkpt>
      <trkpt lat="38.0861260" lon="-3.8354380">
        <ele>243.0</ele>
        <time>2018-04-28T09:12:21Z</time>
      </trkpt>
      <trkpt lat="38.0861660" lon="-3.8353960">
        <ele>243.2</ele>
        <time>2018-04-28T09:12:22Z</time>
      </trkpt>
      <trkpt lat="38.0862050" lon="-3.8353570">
        <ele>243.2</ele>
        <time>2018-04-28T09:12:23Z</time>
      </trkpt>
      <trkpt lat="38.0862470" lon="-3.8353190">
        <ele>243.2</ele>
        <time>2018-04-28T09:12:24Z</time>
      </trkpt>
      <trkpt lat="38.0862890" lon="-3.8352820">
        <ele>243.6</ele>
        <time>2018-04-28T09:12:25Z</time>
      </trkpt>
      <trkpt lat="38.0863330" lon="-3.8352510">
        <ele>243.6</ele>
        <time>2018-04-28T09:12:26Z</time>
      </trkpt>
      <trkpt lat="38.0863730" lon="-3.8352230">
        <ele>243.8</ele>
        <time>2018-04-28T09:12:27Z</time>
      </trkpt>
      <trkpt lat="38.0864130" lon="-3.8351970">
        <ele>243.8</ele>
        <time>2018-04-28T09:12:28Z</time>
      </trkpt>
      <trkpt lat="38.0864570" lon="-3.8351730">
        <ele>244.0</ele>
        <time>2018-04-28T09:12:29Z</time>
      </trkpt>
      <trkpt lat="38.0865000" lon="-3.8351510">
        <ele>244.0</ele>
        <time>2018-04-28T09:12:30Z</time>
      </trkpt>
      <trkpt lat="38.0865460" lon="-3.8351270">
        <ele>244.0</ele>
        <time>2018-04-28T09:12:31Z</time>
      </trkpt>
      <trkpt lat="38.0865930" lon="-3.8351000">
        <ele>244.0</ele>
        <time>2018-04-28T09:12:32Z</time>
      </trkpt>
      <trkpt lat="38.0866380" lon="-3.8350800">
        <ele>243.8</ele>
        <time>2018-04-28T09:12:33Z</time>
      </trkpt>
      <trkpt lat="38.0866880" lon="-3.8350590">
        <ele>243.8</ele>
        <time>2018-04-28T09:12:34Z</time>
      </trkpt>
      <trkpt lat="38.0867380" lon="-3.8350370">
        <ele>243.8</ele>
        <time>2018-04-28T09:12:35Z</time>
      </trkpt>
      <trkpt lat="38.0867880" lon="-3.8350160">
        <ele>243.8</ele>
        <time>2018-04-28T09:12:36Z</time>
      </trkpt>
      <trkpt lat="38.0868400" lon="-3.8349940">
        <ele>243.8</ele>
        <time>2018-04-28T09:12:37Z</time>
      </trkpt>
      <trkpt lat="38.0868920" lon="-3.8349730">
        <ele>243.8</ele>
        <time>2018-04-28T09:12:38Z</time>
      </trkpt>
      <trkpt lat="38.0869430" lon="-3.8349540">
        <ele>243.8</ele>
        <time>2018-04-28T09:12:39Z</time>
      </trkpt>
      <trkpt lat="38.0869940" lon="-3.8349320">
        <ele>243.8</ele>
        <time>2018-04-28T09:12:40Z</time>
      </trkpt>
      <trkpt lat="38.0870450" lon="-3.8349110">
        <ele>243.8</ele>
        <time>2018-04-28T09:12:41Z</time>
      </trkpt>
      <trkpt lat="38.0870940" lon="-3.8348910">
        <ele>243.8</ele>
        <time>2018-04-28T09:12:42Z</time>
      </trkpt>
      <trkpt lat="38.0871420" lon="-3.8348720">
        <ele>244.0</ele>
        <time>2018-04-28T09:12:43Z</time>
      </trkpt>
      <trkpt lat="38.0871870" lon="-3.8348540">
        <ele>243.8</ele>
        <time>2018-04-28T09:12:44Z</time>
      </trkpt>
      <trkpt lat="38.0872310" lon="-3.8348370">
        <ele>244.0</ele>
        <time>2018-04-28T09:12:45Z</time>
      </trkpt>
      <trkpt lat="38.0872730" lon="-3.8348180">
        <ele>244.2</ele>
        <time>2018-04-28T09:12:46Z</time>
      </trkpt>
      <trkpt lat="38.0873150" lon="-3.8348010">
        <ele>244.4</ele>
        <time>2018-04-28T09:12:47Z</time>
      </trkpt>
      <trkpt lat="38.0873570" lon="-3.8347820">
        <ele>244.4</ele>
        <time>2018-04-28T09:12:48Z</time>
      </trkpt>
      <trkpt lat="38.0873970" lon="-3.8347620">
        <ele>244.6</ele>
        <time>2018-04-28T09:12:49Z</time>
      </trkpt>
      <trkpt lat="38.0874390" lon="-3.8347420">
        <ele>244.8</ele>
        <time>2018-04-28T09:12:50Z</time>
      </trkpt>
      <trkpt lat="38.0874800" lon="-3.8347240">
        <ele>245.0</ele>
        <time>2018-04-28T09:12:51Z</time>
      </trkpt>
      <trkpt lat="38.0875210" lon="-3.8347070">
        <ele>245.0</ele>
        <time>2018-04-28T09:12:52Z</time>
      </trkpt>
      <trkpt lat="38.0875590" lon="-3.8346890">
        <ele>245.2</ele>
        <time>2018-04-28T09:12:53Z</time>
      </trkpt>
      <trkpt lat="38.0875970" lon="-3.8346700">
        <ele>245.4</ele>
        <time>2018-04-28T09:12:54Z</time>
      </trkpt>
      <trkpt lat="38.0876340" lon="-3.8346530">
        <ele>245.6</ele>
        <time>2018-04-28T09:12:55Z</time>
      </trkpt>
      <trkpt lat="38.0876720" lon="-3.8346340">
        <ele>245.8</ele>
        <time>2018-04-28T09:12:56Z</time>
      </trkpt>
      <trkpt lat="38.0877080" lon="-3.8346170">
        <ele>246.0</ele>
        <time>2018-04-28T09:12:57Z</time>
      </trkpt>
      <trkpt lat="38.0877430" lon="-3.8345980">
        <ele>246.4</ele>
        <time>2018-04-28T09:12:58Z</time>
      </trkpt>
      <trkpt lat="38.0877780" lon="-3.8345790">
        <ele>246.6</ele>
        <time>2018-04-28T09:12:59Z</time>
      </trkpt>
      <trkpt lat="38.0878080" lon="-3.8345600">
        <ele>246.8</ele>
        <time>2018-04-28T09:13:00Z</time>
      </trkpt>
      <trkpt lat="38.0878370" lon="-3.8345400">
        <ele>247.0</ele>
        <time>2018-04-28T09:13:01Z</time>
      </trkpt>
      <trkpt lat="38.0878650" lon="-3.8345200">
        <ele>247.2</ele>
        <time>2018-04-28T09:13:02Z</time>
      </trkpt>
      <trkpt lat="38.0878930" lon="-3.8344980">
        <ele>247.6</ele>
        <time>2018-04-28T09:13:03Z</time>
      </trkpt>
      <trkpt lat="38.0879200" lon="-3.8344770">
        <ele>247.8</ele>
        <time>2018-04-28T09:13:04Z</time>
      </trkpt>
      <trkpt lat="38.0879450" lon="-3.8344560">
        <ele>248.0</ele>
        <time>2018-04-28T09:13:05Z</time>
      </trkpt>
      <trkpt lat="38.0879710" lon="-3.8344360">
        <ele>248.4</ele>
        <time>2018-04-28T09:13:06Z</time>
      </trkpt>
      <trkpt lat="38.0879970" lon="-3.8344160">
        <ele>248.6</ele>
        <time>2018-04-28T09:13:07Z</time>
      </trkpt>
      <trkpt lat="38.0880230" lon="-3.8343950">
        <ele>248.8</ele>
        <time>2018-04-28T09:13:08Z</time>
      </trkpt>
      <trkpt lat="38.0880470" lon="-3.8343730">
        <ele>249.2</ele>
        <time>2018-04-28T09:13:09Z</time>
      </trkpt>
      <trkpt lat="38.0880700" lon="-3.8343510">
        <ele>249.4</ele>
        <time>2018-04-28T09:13:10Z</time>
      </trkpt>
      <trkpt lat="38.0880940" lon="-3.8343290">
        <ele>249.6</ele>
        <time>2018-04-28T09:13:11Z</time>
      </trkpt>
      <trkpt lat="38.0881170" lon="-3.8343070">
        <ele>250.0</ele>
        <time>2018-04-28T09:13:12Z</time>
      </trkpt>
      <trkpt lat="38.0881400" lon="-3.8342860">
        <ele>250.2</ele>
        <time>2018-04-28T09:13:13Z</time>
      </trkpt>
      <trkpt lat="38.0881640" lon="-3.8342660">
        <ele>250.4</ele>
        <time>2018-04-28T09:13:14Z</time>
      </trkpt>
      <trkpt lat="38.0881860" lon="-3.8342460">
        <ele>251.0</ele>
        <time>2018-04-28T09:13:15Z</time>
      </trkpt>
      <trkpt lat="38.0882090" lon="-3.8342260">
        <ele>251.2</ele>
        <time>2018-04-28T09:13:16Z</time>
      </trkpt>
      <trkpt lat="38.0882320" lon="-3.8342090">
        <ele>251.4</ele>
        <time>2018-04-28T09:13:17Z</time>
      </trkpt>
      <trkpt lat="38.0882550" lon="-3.8341940">
        <ele>251.6</ele>
        <time>2018-04-28T09:13:18Z</time>
      </trkpt>
      <trkpt lat="38.0882770" lon="-3.8341800">
        <ele>251.8</ele>
        <time>2018-04-28T09:13:19Z</time>
      </trkpt>
      <trkpt lat="38.0882960" lon="-3.8341640">
        <ele>252.0</ele>
        <time>2018-04-28T09:13:20Z</time>
      </trkpt>
      <trkpt lat="38.0883140" lon="-3.8341490">
        <ele>252.4</ele>
        <time>2018-04-28T09:13:21Z</time>
      </trkpt>
      <trkpt lat="38.0883320" lon="-3.8341350">
        <ele>252.6</ele>
        <time>2018-04-28T09:13:22Z</time>
      </trkpt>
      <trkpt lat="38.0883510" lon="-3.8341200">
        <ele>253.0</ele>
        <time>2018-04-28T09:13:23Z</time>
      </trkpt>
      <trkpt lat="38.0883700" lon="-3.8341050">
        <ele>253.4</ele>
        <time>2018-04-28T09:13:24Z</time>
      </trkpt>
      <trkpt lat="38.0883880" lon="-3.8340880">
        <ele>253.6</ele>
        <time>2018-04-28T09:13:25Z</time>
      </trkpt>
      <trkpt lat="38.0884070" lon="-3.8340690">
        <ele>254.0</ele>
        <time>2018-04-28T09:13:26Z</time>
      </trkpt>
      <trkpt lat="38.0884240" lon="-3.8340490">
        <ele>254.2</ele>
        <time>2018-04-28T09:13:27Z</time>
      </trkpt>
      <trkpt lat="38.0884380" lon="-3.8340270">
        <ele>254.6</ele>
        <time>2018-04-28T09:13:28Z</time>
      </trkpt>
      <trkpt lat="38.0884540" lon="-3.8340060">
        <ele>254.8</ele>
        <time>2018-04-28T09:13:29Z</time>
      </trkpt>
      <trkpt lat="38.0884720" lon="-3.8339890">
        <ele>255.0</ele>
        <time>2018-04-28T09:13:30Z</time>
      </trkpt>
      <trkpt lat="38.0884930" lon="-3.8339740">
        <ele>255.4</ele>
        <time>2018-04-28T09:13:31Z</time>
      </trkpt>
      <trkpt lat="38.0885120" lon="-3.8339580">
        <ele>255.6</ele>
        <time>2018-04-28T09:13:32Z</time>
      </trkpt>
      <trkpt lat="38.0885300" lon="-3.8339460">
        <ele>255.6</ele>
        <time>2018-04-28T09:13:33Z</time>
      </trkpt>
      <trkpt lat="38.0885490" lon="-3.8339330">
        <ele>255.8</ele>
        <time>2018-04-28T09:13:34Z</time>
      </trkpt>
      <trkpt lat="38.0885660" lon="-3.8339150">
        <ele>256.0</ele>
        <time>2018-04-28T09:13:35Z</time>
      </trkpt>
      <trkpt lat="38.0885770" lon="-3.8338970">
        <ele>256.6</ele>
        <time>2018-04-28T09:13:36Z</time>
      </trkpt>
      <trkpt lat="38.0885900" lon="-3.8338770">
        <ele>256.8</ele>
        <time>2018-04-28T09:13:37Z</time>
      </trkpt>
      <trkpt lat="38.0886080" lon="-3.8338570">
        <ele>257.0</ele>
        <time>2018-04-28T09:13:38Z</time>
      </trkpt>
      <trkpt lat="38.0886260" lon="-3.8338390">
        <ele>257.2</ele>
        <time>2018-04-28T09:13:39Z</time>
      </trkpt>
      <trkpt lat="38.0886370" lon="-3.8338290">
        <ele>257.4</ele>
        <time>2018-04-28T09:13:40Z</time>
      </trkpt>
      <trkpt lat="38.0886500" lon="-3.8338130">
        <ele>257.8</ele>
        <time>2018-04-28T09:13:41Z</time>
      </trkpt>
      <trkpt lat="38.0886640" lon="-3.8337890">
        <ele>257.8</ele>
        <time>2018-04-28T09:13:42Z</time>
      </trkpt>
      <trkpt lat="38.0886730" lon="-3.8337680">
        <ele>258.4</ele>
        <time>2018-04-28T09:13:43Z</time>
      </trkpt>
      <trkpt lat="38.0886820" lon="-3.8337430">
        <ele>258.4</ele>
        <time>2018-04-28T09:13:44Z</time>
      </trkpt>
      <trkpt lat="38.0886940" lon="-3.8337170">
        <ele>258.8</ele>
        <time>2018-04-28T09:13:45Z</time>
      </trkpt>
      <trkpt lat="38.0887070" lon="-3.8336940">
        <ele>259.2</ele>
        <time>2018-04-28T09:13:46Z</time>
      </trkpt>
      <trkpt lat="38.0887180" lon="-3.8336710">
        <ele>259.6</ele>
        <time>2018-04-28T09:13:47Z</time>
      </trkpt>
      <trkpt lat="38.0887260" lon="-3.8336460">
        <ele>259.6</ele>
        <time>2018-04-28T09:13:48Z</time>
      </trkpt>
      <trkpt lat="38.0887310" lon="-3.8336200">
        <ele>260.2</ele>
        <time>2018-04-28T09:13:49Z</time>
      </trkpt>
      <trkpt lat="38.0887340" lon="-3.8335930">
        <ele>260.6</ele>
        <time>2018-04-28T09:13:50Z</time>
      </trkpt>
      <trkpt lat="38.0887360" lon="-3.8335640">
        <ele>260.6</ele>
        <time>2018-04-28T09:13:51Z</time>
      </trkpt>
      <trkpt lat="38.0887410" lon="-3.8335330">
        <ele>260.6</ele>
        <time>2018-04-28T09:13:52Z</time>
      </trkpt>
      <trkpt lat="38.0887470" lon="-3.8335040">
        <ele>260.8</ele>
        <time>2018-04-28T09:13:53Z</time>
      </trkpt>
      <trkpt lat="38.0887530" lon="-3.8334770">
        <ele>261.2</ele>
        <time>2018-04-28T09:13:54Z</time>
      </trkpt>
      <trkpt lat="38.0887560" lon="-3.8334510">
        <ele>261.4</ele>
        <time>2018-04-28T09:13:55Z</time>
      </trkpt>
      <trkpt lat="38.0887550" lon="-3.8334210">
        <ele>261.6</ele>
        <time>2018-04-28T09:13:56Z</time>
      </trkpt>
      <trkpt lat="38.0887500" lon="-3.8333910">
        <ele>261.6</ele>
        <time>2018-04-28T09:13:57Z</time>
      </trkpt>
      <trkpt lat="38.0887450" lon="-3.8333640">
        <ele>262.0</ele>
        <time>2018-04-28T09:13:58Z</time>
      </trkpt>
      <trkpt lat="38.0887410" lon="-3.8333360">
        <ele>262.2</ele>
        <time>2018-04-28T09:13:59Z</time>
      </trkpt>
      <trkpt lat="38.0887380" lon="-3.8333090">
        <ele>262.4</ele>
        <time>2018-04-28T09:14:00Z</time>
      </trkpt>
      <trkpt lat="38.0887340" lon="-3.8332840">
        <ele>262.6</ele>
        <time>2018-04-28T09:14:01Z</time>
      </trkpt>
      <trkpt lat="38.0887300" lon="-3.8332590">
        <ele>263.0</ele>
        <time>2018-04-28T09:14:02Z</time>
      </trkpt>
      <trkpt lat="38.0887220" lon="-3.8332330">
        <ele>263.0</ele>
        <time>2018-04-28T09:14:03Z</time>
      </trkpt>
      <trkpt lat="38.0887120" lon="-3.8332100">
        <ele>263.4</ele>
        <time>2018-04-28T09:14:04Z</time>
      </trkpt>
      <trkpt lat="38.0887030" lon="-3.8331850">
        <ele>263.6</ele>
        <time>2018-04-28T09:14:05Z</time>
      </trkpt>
      <trkpt lat="38.0886990" lon="-3.8331590">
        <ele>263.8</ele>
        <time>2018-04-28T09:14:06Z</time>
      </trkpt>
      <trkpt lat="38.0886950" lon="-3.8331340">
        <ele>264.0</ele>
        <time>2018-04-28T09:14:07Z</time>
      </trkpt>
      <trkpt lat="38.0886860" lon="-3.8331090">
        <ele>264.2</ele>
        <time>2018-04-28T09:14:08Z</time>
      </trkpt>
      <trkpt lat="38.0886720" lon="-3.8330860">
        <ele>264.4</ele>
        <time>2018-04-28T09:14:09Z</time>
      </trkpt>
      <trkpt lat="38.0886580" lon="-3.8330650">
        <ele>264.6</ele>
        <time>2018-04-28T09:14:10Z</time>
      </trkpt>
      <trkpt lat="38.0886510" lon="-3.8330400">
        <ele>264.8</ele>
        <time>2018-04-28T09:14:11Z</time>
      </trkpt>
      <trkpt lat="38.0886480" lon="-3.8330120">
        <ele>264.8</ele>
        <time>2018-04-28T09:14:12Z</time>
      </trkpt>
      <trkpt lat="38.0886430" lon="-3.8329850">
        <ele>265.2</ele>
        <time>2018-04-28T09:14:13Z</time>
      </trkpt>
      <trkpt lat="38.0886330" lon="-3.8329600">
        <ele>265.4</ele>
        <time>2018-04-28T09:14:14Z</time>
      </trkpt>
      <trkpt lat="38.0886220" lon="-3.8329360">
        <ele>265.6</ele>
        <time>2018-04-28T09:14:15Z</time>
      </trkpt>
      <trkpt lat="38.0886100" lon="-3.8329140">
        <ele>265.6</ele>
        <time>2018-04-28T09:14:16Z</time>
      </trkpt>
      <trkpt lat="38.0885980" lon="-3.8328900">
        <ele>266.0</ele>
        <time>2018-04-28T09:14:17Z</time>
      </trkpt>
      <trkpt lat="38.0885880" lon="-3.8328650">
        <ele>266.4</ele>
        <time>2018-04-28T09:14:18Z</time>
      </trkpt>
      <trkpt lat="38.0885800" lon="-3.8328410">
        <ele>266.6</ele>
        <time>2018-04-28T09:14:19Z</time>
      </trkpt>
      <trkpt lat="38.0885720" lon="-3.8328150">
        <ele>266.6</ele>
        <time>2018-04-28T09:14:20Z</time>
      </trkpt>
      <trkpt lat="38.0885600" lon="-3.8327910">
        <ele>266.8</ele>
        <time>2018-04-28T09:14:21Z</time>
      </trkpt>
      <trkpt lat="38.0885470" lon="-3.8327700">
        <ele>267.0</ele>
        <time>2018-04-28T09:14:22Z</time>
      </trkpt>
      <trkpt lat="38.0885330" lon="-3.8327500">
        <ele>267.0</ele>
        <time>2018-04-28T09:14:23Z</time>
      </trkpt>
      <trkpt lat="38.0885220" lon="-3.8327210">
        <ele>267.2</ele>
        <time>2018-04-28T09:14:24Z</time>
      </trkpt>
      <trkpt lat="38.0885090" lon="-3.8326940">
        <ele>267.4</ele>
        <time>2018-04-28T09:14:25Z</time>
      </trkpt>
      <trkpt lat="38.0884960" lon="-3.8326690">
        <ele>267.6</ele>
        <time>2018-04-28T09:14:26Z</time>
      </trkpt>
      <trkpt lat="38.0884840" lon="-3.8326430">
        <ele>267.8</ele>
        <time>2018-04-28T09:14:27Z</time>
      </trkpt>
      <trkpt lat="38.0884740" lon="-3.8326140">
        <ele>268.0</ele>
        <time>2018-04-28T09:14:28Z</time>
      </trkpt>
      <trkpt lat="38.0884640" lon="-3.8325850">
        <ele>268.2</ele>
        <time>2018-04-28T09:14:29Z</time>
      </trkpt>
      <trkpt lat="38.0884520" lon="-3.8325590">
        <ele>268.6</ele>
        <time>2018-04-28T09:14:30Z</time>
      </trkpt>
      <trkpt lat="38.0884400" lon="-3.8325330">
        <ele>268.8</ele>
        <time>2018-04-28T09:14:31Z</time>
      </trkpt>
      <trkpt lat="38.0884260" lon="-3.8325090">
        <ele>269.0</ele>
        <time>2018-04-28T09:14:32Z</time>
      </trkpt>
      <trkpt lat="38.0884140" lon="-3.8324840">
        <ele>269.2</ele>
        <time>2018-04-28T09:14:33Z</time>
      </trkpt>
      <trkpt lat="38.0884040" lon="-3.8324590">
        <ele>269.2</ele>
        <time>2018-04-28T09:14:34Z</time>
      </trkpt>
      <trkpt lat="38.0883950" lon="-3.8324310">
        <ele>269.4</ele>
        <time>2018-04-28T09:14:35Z</time>
      </trkpt>
      <trkpt lat="38.0883840" lon="-3.8324040">
        <ele>269.6</ele>
        <time>2018-04-28T09:14:36Z</time>
      </trkpt>
      <trkpt lat="38.0883710" lon="-3.8323770">
        <ele>270.0</ele>
        <time>2018-04-28T09:14:37Z</time>
      </trkpt>
      <trkpt lat="38.0883590" lon="-3.8323510">
        <ele>270.0</ele>
        <time>2018-04-28T09:14:38Z</time>
      </trkpt>
      <trkpt lat="38.0883450" lon="-3.8323250">
        <ele>270.2</ele>
        <time>2018-04-28T09:14:39Z</time>
      </trkpt>
      <trkpt lat="38.0883340" lon="-3.8322970">
        <ele>270.4</ele>
        <time>2018-04-28T09:14:40Z</time>
      </trkpt>
      <trkpt lat="38.0883240" lon="-3.8322690">
        <ele>270.6</ele>
        <time>2018-04-28T09:14:41Z</time>
      </trkpt>
      <trkpt lat="38.0883130" lon="-3.8322420">
        <ele>270.6</ele>
        <time>2018-04-28T09:14:42Z</time>
      </trkpt>
      <trkpt lat="38.0883030" lon="-3.8322150">
        <ele>270.6</ele>
        <time>2018-04-28T09:14:43Z</time>
      </trkpt>
      <trkpt lat="38.0882910" lon="-3.8321880">
        <ele>270.8</ele>
        <time>2018-04-28T09:14:44Z</time>
      </trkpt>
      <trkpt lat="38.0882780" lon="-3.8321620">
        <ele>271.0</ele>
        <time>2018-04-28T09:14:45Z</time>
      </trkpt>
      <trkpt lat="38.0882660" lon="-3.8321350">
        <ele>271.0</ele>
        <time>2018-04-28T09:14:46Z</time>
      </trkpt>
      <trkpt lat="38.0882540" lon="-3.8321070">
        <ele>271.2</ele>
        <time>2018-04-28T09:14:47Z</time>
      </trkpt>
      <trkpt lat="38.0882440" lon="-3.8320780">
        <ele>271.2</ele>
        <time>2018-04-28T09:14:48Z</time>
      </trkpt>
      <trkpt lat="38.0882360" lon="-3.8320490">
        <ele>271.4</ele>
        <time>2018-04-28T09:14:49Z</time>
      </trkpt>
      <trkpt lat="38.0882280" lon="-3.8320210">
        <ele>268.6</ele>
        <time>2018-04-28T09:14:50Z</time>
      </trkpt>
      <trkpt lat="38.0879530" lon="-3.8312120">
        <ele>275.0</ele>
        <time>2018-04-28T09:15:20Z</time>
      </trkpt>
      <trkpt lat="38.0879380" lon="-3.8311710">
        <ele>277.4</ele>
        <time>2018-04-28T09:15:21Z</time>
      </trkpt>
      <trkpt lat="38.0879330" lon="-3.8311580">
        <ele>277.0</ele>
        <time>2018-04-28T09:15:22Z</time>
      </trkpt>
      <trkpt lat="38.0879200" lon="-3.8311330">
        <ele>277.2</ele>
        <time>2018-04-28T09:15:23Z</time>
      </trkpt>
      <trkpt lat="38.0879090" lon="-3.8311060">
        <ele>277.4</ele>
        <time>2018-04-28T09:15:24Z</time>
      </trkpt>
      <trkpt lat="38.0879010" lon="-3.8310780">
        <ele>277.6</ele>
        <time>2018-04-28T09:15:25Z</time>
      </trkpt>
      <trkpt lat="38.0878930" lon="-3.8310500">
        <ele>277.8</ele>
        <time>2018-04-28T09:15:26Z</time>
      </trkpt>
      <trkpt lat="38.0878850" lon="-3.8310230">
        <ele>278.0</ele>
        <time>2018-04-28T09:15:27Z</time>
      </trkpt>
      <trkpt lat="38.0878770" lon="-3.8309960">
        <ele>278.2</ele>
        <time>2018-04-28T09:15:28Z</time>
      </trkpt>
      <trkpt lat="38.0878670" lon="-3.8309700">
        <ele>278.4</ele>
        <time>2018-04-28T09:15:29Z</time>
      </trkpt>
      <trkpt lat="38.0878620" lon="-3.8309400">
        <ele>278.6</ele>
        <time>2018-04-28T09:15:30Z</time>
      </trkpt>
      <trkpt lat="38.0878510" lon="-3.8309130">
        <ele>278.8</ele>
        <time>2018-04-28T09:15:31Z</time>
      </trkpt>
      <trkpt lat="38.0878390" lon="-3.8308860">
        <ele>279.0</ele>
        <time>2018-04-28T09:15:32Z</time>
      </trkpt>
      <trkpt lat="38.0878230" lon="-3.8308640">
        <ele>279.2</ele>
        <time>2018-04-28T09:15:33Z</time>
      </trkpt>
      <trkpt lat="38.0878120" lon="-3.8308380">
        <ele>279.4</ele>
        <time>2018-04-28T09:15:34Z</time>
      </trkpt>
      <trkpt lat="38.0878010" lon="-3.8308110">
        <ele>279.6</ele>
        <time>2018-04-28T09:15:35Z</time>
      </trkpt>
      <trkpt lat="38.0877850" lon="-3.8307870">
        <ele>280.0</ele>
        <time>2018-04-28T09:15:36Z</time>
      </trkpt>
      <trkpt lat="38.0877730" lon="-3.8307620">
        <ele>280.0</ele>
        <time>2018-04-28T09:15:37Z</time>
      </trkpt>
      <trkpt lat="38.0877580" lon="-3.8307380">
        <ele>280.2</ele>
        <time>2018-04-28T09:15:38Z</time>
      </trkpt>
      <trkpt lat="38.0877440" lon="-3.8307130">
        <ele>280.4</ele>
        <time>2018-04-28T09:15:39Z</time>
      </trkpt>
      <trkpt lat="38.0877300" lon="-3.8306870">
        <ele>280.6</ele>
        <time>2018-04-28T09:15:40Z</time>
      </trkpt>
      <trkpt lat="38.0877160" lon="-3.8306620">
        <ele>280.8</ele>
        <time>2018-04-28T09:15:41Z</time>
      </trkpt>
      <trkpt lat="38.0877010" lon="-3.8306380">
        <ele>268.4</ele>
        <time>2018-04-28T09:15:42Z</time>
      </trkpt>
      <trkpt lat="38.0876860" lon="-3.8306140">
        <ele>281.6</ele>
        <time>2018-04-28T09:15:43Z</time>
      </trkpt>
      <trkpt lat="38.0876720" lon="-3.8305900">
        <ele>281.4</ele>
        <time>2018-04-28T09:15:44Z</time>
      </trkpt>
      <trkpt lat="38.0876600" lon="-3.8305660">
        <ele>281.6</ele>
        <time>2018-04-28T09:15:45Z</time>
      </trkpt>
      <trkpt lat="38.0876410" lon="-3.8305480">
        <ele>280.6</ele>
        <time>2018-04-28T09:15:46Z</time>
      </trkpt>
      <trkpt lat="38.0876230" lon="-3.8305260">
        <ele>282.6</ele>
        <time>2018-04-28T09:15:47Z</time>
      </trkpt>
      <trkpt lat="38.0876090" lon="-3.8305010">
        <ele>282.0</ele>
        <time>2018-04-28T09:15:48Z</time>
      </trkpt>
      <trkpt lat="38.0875910" lon="-3.8304770">
        <ele>282.2</ele>
        <time>2018-04-28T09:15:49Z</time>
      </trkpt>
      <trkpt lat="38.0875740" lon="-3.8304530">
        <ele>282.4</ele>
        <time>2018-04-28T09:15:50Z</time>
      </trkpt>
      <trkpt lat="38.0875570" lon="-3.8304290">
        <ele>282.6</ele>
        <time>2018-04-28T09:15:51Z</time>
      </trkpt>
      <trkpt lat="38.0875410" lon="-3.8304050">
        <ele>282.8</ele>
        <time>2018-04-28T09:15:52Z</time>
      </trkpt>
      <trkpt lat="38.0875240" lon="-3.8303820">
        <ele>283.0</ele>
        <time>2018-04-28T09:15:53Z</time>
      </trkpt>
      <trkpt lat="38.0875090" lon="-3.8303580">
        <ele>283.2</ele>
        <time>2018-04-28T09:15:54Z</time>
      </trkpt>
      <trkpt lat="38.0874930" lon="-3.8303340">
        <ele>283.4</ele>
        <time>2018-04-28T09:15:55Z</time>
      </trkpt>
      <trkpt lat="38.0874780" lon="-3.8303090">
        <ele>283.4</ele>
        <time>2018-04-28T09:15:56Z</time>
      </trkpt>
      <trkpt lat="38.0874620" lon="-3.8302860">
        <ele>283.6</ele>
        <time>2018-04-28T09:15:57Z</time>
      </trkpt>
      <trkpt lat="38.0874470" lon="-3.8302610">
        <ele>283.8</ele>
        <time>2018-04-28T09:15:58Z</time>
      </trkpt>
      <trkpt lat="38.0874320" lon="-3.8302370">
        <ele>284.0</ele>
        <time>2018-04-28T09:15:59Z</time>
      </trkpt>
      <trkpt lat="38.0874170" lon="-3.8302120">
        <ele>284.2</ele>
        <time>2018-04-28T09:16:00Z</time>
      </trkpt>
      <trkpt lat="38.0874010" lon="-3.8301880">
        <ele>284.2</ele>
        <time>2018-04-28T09:16:01Z</time>
      </trkpt>
      <trkpt lat="38.0873840" lon="-3.8301650">
        <ele>284.4</ele>
        <time>2018-04-28T09:16:02Z</time>
      </trkpt>
      <trkpt lat="38.0873680" lon="-3.8301400">
        <ele>284.6</ele>
        <time>2018-04-28T09:16:03Z</time>
      </trkpt>
      <trkpt lat="38.0873530" lon="-3.8301150">
        <ele>284.8</ele>
        <time>2018-04-28T09:16:04Z</time>
      </trkpt>
      <trkpt lat="38.0873360" lon="-3.8300920">
        <ele>284.8</ele>
        <time>2018-04-28T09:16:05Z</time>
      </trkpt>
      <trkpt lat="38.0873200" lon="-3.8300670">
        <ele>285.0</ele>
        <time>2018-04-28T09:16:06Z</time>
      </trkpt>
      <trkpt lat="38.0873040" lon="-3.8300410">
        <ele>285.2</ele>
        <time>2018-04-28T09:16:07Z</time>
      </trkpt>
      <trkpt lat="38.0872880" lon="-3.8300140">
        <ele>285.4</ele>
        <time>2018-04-28T09:16:08Z</time>
      </trkpt>
      <trkpt lat="38.0872790" lon="-3.8299850">
        <ele>285.4</ele>
        <time>2018-04-28T09:16:09Z</time>
      </trkpt>
      <trkpt lat="38.0872740" lon="-3.8299520">
        <ele>285.4</ele>
        <time>2018-04-28T09:16:10Z</time>
      </trkpt>
      <trkpt lat="38.0872760" lon="-3.8299210">
        <ele>285.6</ele>
        <time>2018-04-28T09:16:11Z</time>
      </trkpt>
      <trkpt lat="38.0872890" lon="-3.8298930">
        <ele>285.6</ele>
        <time>2018-04-28T09:16:12Z</time>
      </trkpt>
      <trkpt lat="38.0873060" lon="-3.8298670">
        <ele>285.8</ele>
        <time>2018-04-28T09:16:13Z</time>
      </trkpt>
      <trkpt lat="38.0873250" lon="-3.8298430">
        <ele>286.0</ele>
        <time>2018-04-28T09:16:14Z</time>
      </trkpt>
      <trkpt lat="38.0873440" lon="-3.8298200">
        <ele>286.2</ele>
        <time>2018-04-28T09:16:15Z</time>
      </trkpt>
      <trkpt lat="38.0873640" lon="-3.8297950">
        <ele>286.2</ele>
        <time>2018-04-28T09:16:16Z</time>
      </trkpt>
      <trkpt lat="38.0873840" lon="-3.8297700">
        <ele>286.4</ele>
        <time>2018-04-28T09:16:17Z</time>
      </trkpt>
      <trkpt lat="38.0874030" lon="-3.8297430">
        <ele>286.4</ele>
        <time>2018-04-28T09:16:18Z</time>
      </trkpt>
      <trkpt lat="38.0874210" lon="-3.8297170">
        <ele>286.6</ele>
        <time>2018-04-28T09:16:19Z</time>
      </trkpt>
      <trkpt lat="38.0874410" lon="-3.8296880">
        <ele>286.6</ele>
        <time>2018-04-28T09:16:20Z</time>
      </trkpt>
      <trkpt lat="38.0874570" lon="-3.8296590">
        <ele>286.6</ele>
        <time>2018-04-28T09:16:21Z</time>
      </trkpt>
      <trkpt lat="38.0874720" lon="-3.8296290">
        <ele>286.8</ele>
        <time>2018-04-28T09:16:22Z</time>
      </trkpt>
      <trkpt lat="38.0874880" lon="-3.8295980">
        <ele>286.8</ele>
        <time>2018-04-28T09:16:23Z</time>
      </trkpt>
      <trkpt lat="38.0875010" lon="-3.8295660">
        <ele>287.0</ele>
        <time>2018-04-28T09:16:24Z</time>
      </trkpt>
      <trkpt lat="38.0875120" lon="-3.8295330">
        <ele>287.0</ele>
        <time>2018-04-28T09:16:25Z</time>
      </trkpt>
      <trkpt lat="38.0875200" lon="-3.8295000">
        <ele>287.2</ele>
        <time>2018-04-28T09:16:26Z</time>
      </trkpt>
      <trkpt lat="38.0875300" lon="-3.8294670">
        <ele>287.2</ele>
        <time>2018-04-28T09:16:27Z</time>
      </trkpt>
      <trkpt lat="38.0875400" lon="-3.8294330">
        <ele>287.4</ele>
        <time>2018-04-28T09:16:28Z</time>
      </trkpt>
      <trkpt lat="38.0875480" lon="-3.8293980">
        <ele>287.6</ele>
        <time>2018-04-28T09:16:29Z</time>
      </trkpt>
      <trkpt lat="38.0875550" lon="-3.8293630">
        <ele>287.6</ele>
        <time>2018-04-28T09:16:30Z</time>
      </trkpt>
      <trkpt lat="38.0875610" lon="-3.8293280">
        <ele>287.8</ele>
        <time>2018-04-28T09:16:31Z</time>
      </trkpt>
      <trkpt lat="38.0875700" lon="-3.8292920">
        <ele>287.8</ele>
        <time>2018-04-28T09:16:32Z</time>
      </trkpt>
      <trkpt lat="38.0875790" lon="-3.8292560">
        <ele>288.0</ele>
        <time>2018-04-28T09:16:33Z</time>
      </trkpt>
      <trkpt lat="38.0875860" lon="-3.8292200">
        <ele>288.2</ele>
        <time>2018-04-28T09:16:34Z</time>
      </trkpt>
      <trkpt lat="38.0875920" lon="-3.8291830">
        <ele>288.4</ele>
        <time>2018-04-28T09:16:35Z</time>
      </trkpt>
      <trkpt lat="38.0875960" lon="-3.8291460">
        <ele>288.4</ele>
        <time>2018-04-28T09:16:36Z</time>
      </trkpt>
      <trkpt lat="38.0876000" lon="-3.8291090">
        <ele>288.4</ele>
        <time>2018-04-28T09:16:37Z</time>
      </trkpt>
      <trkpt lat="38.0876030" lon="-3.8290710">
        <ele>288.6</ele>
        <time>2018-04-28T09:16:38Z</time>
      </trkpt>
      <trkpt lat="38.0876050" lon="-3.8290330">
        <ele>288.6</ele>
        <time>2018-04-28T09:16:39Z</time>
      </trkpt>
      <trkpt lat="38.0876060" lon="-3.8289960">
        <ele>288.6</ele>
        <time>2018-04-28T09:16:40Z</time>
      </trkpt>
      <trkpt lat="38.0876070" lon="-3.8289600">
        <ele>288.6</ele>
        <time>2018-04-28T09:16:41Z</time>
      </trkpt>
      <trkpt lat="38.0876090" lon="-3.8289270">
        <ele>288.6</ele>
        <time>2018-04-28T09:16:42Z</time>
      </trkpt>
      <trkpt lat="38.0876110" lon="-3.8288950">
        <ele>288.8</ele>
        <time>2018-04-28T09:16:43Z</time>
      </trkpt>
      <trkpt lat="38.0876110" lon="-3.8288660">
        <ele>288.8</ele>
        <time>2018-04-28T09:16:44Z</time>
      </trkpt>
      <trkpt lat="38.0876120" lon="-3.8288340">
        <ele>288.8</ele>
        <time>2018-04-28T09:16:45Z</time>
      </trkpt>
      <trkpt lat="38.0876090" lon="-3.8288010">
        <ele>288.8</ele>
        <time>2018-04-28T09:16:46Z</time>
      </trkpt>
      <trkpt lat="38.0876020" lon="-3.8287700">
        <ele>288.8</ele>
        <time>2018-04-28T09:16:47Z</time>
      </trkpt>
      <trkpt lat="38.0875950" lon="-3.8287400">
        <ele>288.8</ele>
        <time>2018-04-28T09:16:48Z</time>
      </trkpt>
      <trkpt lat="38.0875910" lon="-3.8287090">
        <ele>288.6</ele>
        <time>2018-04-28T09:16:49Z</time>
      </trkpt>
      <trkpt lat="38.0875900" lon="-3.8286780">
        <ele>288.8</ele>
        <time>2018-04-28T09:16:50Z</time>
      </trkpt>
      <trkpt lat="38.0875870" lon="-3.8286490">
        <ele>288.8</ele>
        <time>2018-04-28T09:16:51Z</time>
      </trkpt>
      <trkpt lat="38.0875820" lon="-3.8286200">
        <ele>288.8</ele>
        <time>2018-04-28T09:16:52Z</time>
      </trkpt>
      <trkpt lat="38.0875760" lon="-3.8285920">
        <ele>288.6</ele>
        <time>2018-04-28T09:16:53Z</time>
      </trkpt>
      <trkpt lat="38.0875700" lon="-3.8285630">
        <ele>288.6</ele>
        <time>2018-04-28T09:16:54Z</time>
      </trkpt>
      <trkpt lat="38.0875640" lon="-3.8285350">
        <ele>288.6</ele>
        <time>2018-04-28T09:16:55Z</time>
      </trkpt>
      <trkpt lat="38.0875600" lon="-3.8285060">
        <ele>288.4</ele>
        <time>2018-04-28T09:16:56Z</time>
      </trkpt>
      <trkpt lat="38.0875570" lon="-3.8284780">
        <ele>288.4</ele>
        <time>2018-04-28T09:16:57Z</time>
      </trkpt>
      <trkpt lat="38.0875530" lon="-3.8284530">
        <ele>288.2</ele>
        <time>2018-04-28T09:16:58Z</time>
      </trkpt>
      <trkpt lat="38.0875510" lon="-3.8284300">
        <ele>288.2</ele>
        <time>2018-04-28T09:16:59Z</time>
      </trkpt>
      <trkpt lat="38.0875490" lon="-3.8284110">
        <ele>288.2</ele>
        <time>2018-04-28T09:17:00Z</time>
      </trkpt>
      <trkpt lat="38.0875470" lon="-3.8283960">
        <ele>288.0</ele>
        <time>2018-04-28T09:17:01Z</time>
      </trkpt>
      <trkpt lat="38.0875470" lon="-3.8283920">
        <ele>288.0</ele>
        <time>2018-04-28T09:17:02Z</time>
      </trkpt>
      <trkpt lat="38.0875480" lon="-3.8283910">
        <ele>288.0</ele>
        <time>2018-04-28T09:17:03Z</time>
      </trkpt>
      <trkpt lat="38.0875480" lon="-3.8283910">
        <ele>287.8</ele>
        <time>2018-04-28T09:17:04Z</time>
      </trkpt>
      <trkpt lat="38.0875490" lon="-3.8283910">
        <ele>287.8</ele>
        <time>2018-04-28T09:17:05Z</time>
      </trkpt>
      <trkpt lat="38.0875470" lon="-3.8283920">
        <ele>288.0</ele>
        <time>2018-04-28T09:17:06Z</time>
      </trkpt>
      <trkpt lat="38.0875470" lon="-3.8283880">
        <ele>288.2</ele>
        <time>2018-04-28T09:17:07Z</time>
      </trkpt>
      <trkpt lat="38.0875450" lon="-3.8283710">
        <ele>288.2</ele>
        <time>2018-04-28T09:17:08Z</time>
      </trkpt>
      <trkpt lat="38.0875440" lon="-3.8283490">
        <ele>288.2</ele>
        <time>2018-04-28T09:17:09Z</time>
      </trkpt>
      <trkpt lat="38.0875220" lon="-3.8280580">
        <ele>286.4</ele>
        <time>2018-04-28T09:17:16Z</time>
      </trkpt>
      <trkpt lat="38.0875050" lon="-3.8279870">
        <ele>285.8</ele>
        <time>2018-04-28T09:17:17Z</time>
      </trkpt>
      <trkpt lat="38.0874820" lon="-3.8279100">
        <ele>285.2</ele>
        <time>2018-04-28T09:17:18Z</time>
      </trkpt>
      <trkpt lat="38.0874540" lon="-3.8278250">
        <ele>284.4</ele>
        <time>2018-04-28T09:17:19Z</time>
      </trkpt>
      <trkpt lat="38.0874200" lon="-3.8277320">
        <ele>283.2</ele>
        <time>2018-04-28T09:17:20Z</time>
      </trkpt>
      <trkpt lat="38.0873870" lon="-3.8276270">
        <ele>281.8</ele>
        <time>2018-04-28T09:17:21Z</time>
      </trkpt>
      <trkpt lat="38.0873550" lon="-3.8275160">
        <ele>280.8</ele>
        <time>2018-04-28T09:17:22Z</time>
      </trkpt>
      <trkpt lat="38.0873290" lon="-3.8274020">
        <ele>279.4</ele>
        <time>2018-04-28T09:17:23Z</time>
      </trkpt>
      <trkpt lat="38.0873210" lon="-3.8272800">
        <ele>278.6</ele>
        <time>2018-04-28T09:17:24Z</time>
      </trkpt>
      <trkpt lat="38.0873330" lon="-3.8271520">
        <ele>277.8</ele>
        <time>2018-04-28T09:17:25Z</time>
      </trkpt>
      <trkpt lat="38.0873520" lon="-3.8270220">
        <ele>277.2</ele>
        <time>2018-04-28T09:17:26Z</time>
      </trkpt>
      <trkpt lat="38.0873770" lon="-3.8268870">
        <ele>276.0</ele>
        <time>2018-04-28T09:17:27Z</time>
      </trkpt>
      <trkpt lat="38.0874030" lon="-3.8267490">
        <ele>275.0</ele>
        <time>2018-04-28T09:17:28Z</time>
      </trkpt>
      <trkpt lat="38.0874320" lon="-3.8266140">
        <ele>275.0</ele>
        <time>2018-04-28T09:17:29Z</time>
      </trkpt>
      <trkpt lat="38.0874650" lon="-3.8264840">
        <ele>274.6</ele>
        <time>2018-04-28T09:17:30Z</time>
      </trkpt>
      <trkpt lat="38.0874960" lon="-3.8263560">
        <ele>274.2</ele>
        <time>2018-04-28T09:17:31Z</time>
      </trkpt>
      <trkpt lat="38.0875270" lon="-3.8262300">
        <ele>273.6</ele>
        <time>2018-04-28T09:17:32Z</time>
      </trkpt>
      <trkpt lat="38.0875670" lon="-3.8261060">
        <ele>273.2</ele>
        <time>2018-04-28T09:17:33Z</time>
      </trkpt>
      <trkpt lat="38.0876240" lon="-3.8259930">
        <ele>272.8</ele>
        <time>2018-04-28T09:17:34Z</time>
      </trkpt>
      <trkpt lat="38.0876970" lon="-3.8258900">
        <ele>272.8</ele>
        <time>2018-04-28T09:17:35Z</time>
      </trkpt>
      <trkpt lat="38.0877620" lon="-3.8257860">
        <ele>272.6</ele>
        <time>2018-04-28T09:17:36Z</time>
      </trkpt>
      <trkpt lat="38.0878060" lon="-3.8256760">
        <ele>273.0</ele>
        <time>2018-04-28T09:17:37Z</time>
      </trkpt>
      <trkpt lat="38.0878310" lon="-3.8255600">
        <ele>273.2</ele>
        <time>2018-04-28T09:17:38Z</time>
      </trkpt>
      <trkpt lat="38.0878440" lon="-3.8254460">
        <ele>273.4</ele>
        <time>2018-04-28T09:17:39Z</time>
      </trkpt>
      <trkpt lat="38.0878520" lon="-3.8253400">
        <ele>274.0</ele>
        <time>2018-04-28T09:17:40Z</time>
      </trkpt>
      <trkpt lat="38.0878610" lon="-3.8252430">
        <ele>274.4</ele>
        <time>2018-04-28T09:17:41Z</time>
      </trkpt>
      <trkpt lat="38.0878700" lon="-3.8251550">
        <ele>275.0</ele>
        <time>2018-04-28T09:17:42Z</time>
      </trkpt>
      <trkpt lat="38.0878820" lon="-3.8250780">
        <ele>275.4</ele>
        <time>2018-04-28T09:17:43Z</time>
      </trkpt>
      <trkpt lat="38.0878870" lon="-3.8250090">
        <ele>276.0</ele>
        <time>2018-04-28T09:17:44Z</time>
      </trkpt>
      <trkpt lat="38.0878950" lon="-3.8249450">
        <ele>276.4</ele>
        <time>2018-04-28T09:17:45Z</time>
      </trkpt>
      <trkpt lat="38.0879030" lon="-3.8248820">
        <ele>276.8</ele>
        <time>2018-04-28T09:17:46Z</time>
      </trkpt>
      <trkpt lat="38.0879130" lon="-3.8248200">
        <ele>277.2</ele>
        <time>2018-04-28T09:17:47Z</time>
      </trkpt>
      <trkpt lat="38.0879220" lon="-3.8247590">
        <ele>277.6</ele>
        <time>2018-04-28T09:17:48Z</time>
      </trkpt>
      <trkpt lat="38.0879330" lon="-3.8247000">
        <ele>277.8</ele>
        <time>2018-04-28T09:17:49Z</time>
      </trkpt>
      <trkpt lat="38.0879480" lon="-3.8246420">
        <ele>278.4</ele>
        <time>2018-04-28T09:17:50Z</time>
      </trkpt>
      <trkpt lat="38.0879600" lon="-3.8245900">
        <ele>278.8</ele>
        <time>2018-04-28T09:17:51Z</time>
      </trkpt>
      <trkpt lat="38.0879750" lon="-3.8245410">
        <ele>279.2</ele>
        <time>2018-04-28T09:17:52Z</time>
      </trkpt>
      <trkpt lat="38.0879880" lon="-3.8245010">
        <ele>279.6</ele>
        <time>2018-04-28T09:17:53Z</time>
      </trkpt>
      <trkpt lat="38.0880030" lon="-3.8244610">
        <ele>279.8</ele>
        <time>2018-04-28T09:17:54Z</time>
      </trkpt>
      <trkpt lat="38.0880180" lon="-3.8244210">
        <ele>280.0</ele>
        <time>2018-04-28T09:17:55Z</time>
      </trkpt>
      <trkpt lat="38.0880350" lon="-3.8243810">
        <ele>280.4</ele>
        <time>2018-04-28T09:17:56Z</time>
      </trkpt>
      <trkpt lat="38.0880520" lon="-3.8243420">
        <ele>280.6</ele>
        <time>2018-04-28T09:17:57Z</time>
      </trkpt>
      <trkpt lat="38.0880680" lon="-3.8243030">
        <ele>280.8</ele>
        <time>2018-04-28T09:17:58Z</time>
      </trkpt>
      <trkpt lat="38.0880810" lon="-3.8242650">
        <ele>281.0</ele>
        <time>2018-04-28T09:17:59Z</time>
      </trkpt>
      <trkpt lat="38.0880940" lon="-3.8242270">
        <ele>281.2</ele>
        <time>2018-04-28T09:18:00Z</time>
      </trkpt>
      <trkpt lat="38.0881090" lon="-3.8241890">
        <ele>281.4</ele>
        <time>2018-04-28T09:18:01Z</time>
      </trkpt>
      <trkpt lat="38.0881260" lon="-3.8241500">
        <ele>281.6</ele>
        <time>2018-04-28T09:18:02Z</time>
      </trkpt>
      <trkpt lat="38.0881520" lon="-3.8241100">
        <ele>281.6</ele>
        <time>2018-04-28T09:18:03Z</time>
      </trkpt>
      <trkpt lat="38.0881690" lon="-3.8240740">
        <ele>281.8</ele>
        <time>2018-04-28T09:18:04Z</time>
      </trkpt>
      <trkpt lat="38.0881870" lon="-3.8240400">
        <ele>282.0</ele>
        <time>2018-04-28T09:18:05Z</time>
      </trkpt>
      <trkpt lat="38.0882070" lon="-3.8240040">
        <ele>282.4</ele>
        <time>2018-04-28T09:18:06Z</time>
      </trkpt>
      <trkpt lat="38.0882260" lon="-3.8239710">
        <ele>282.6</ele>
        <time>2018-04-28T09:18:07Z</time>
      </trkpt>
      <trkpt lat="38.0882440" lon="-3.8239390">
        <ele>282.8</ele>
        <time>2018-04-28T09:18:08Z</time>
      </trkpt>
      <trkpt lat="38.0882620" lon="-3.8239080">
        <ele>283.0</ele>
        <time>2018-04-28T09:18:09Z</time>
      </trkpt>
      <trkpt lat="38.0882790" lon="-3.8238770">
        <ele>283.2</ele>
        <time>2018-04-28T09:18:10Z</time>
      </trkpt>
      <trkpt lat="38.0882930" lon="-3.8238470">
        <ele>283.6</ele>
        <time>2018-04-28T09:18:11Z</time>
      </trkpt>
      <trkpt lat="38.0883060" lon="-3.8238200">
        <ele>283.8</ele>
        <time>2018-04-28T09:18:12Z</time>
      </trkpt>
      <trkpt lat="38.0883200" lon="-3.8237940">
        <ele>284.0</ele>
        <time>2018-04-28T09:18:13Z</time>
      </trkpt>
      <trkpt lat="38.0883340" lon="-3.8237690">
        <ele>284.4</ele>
        <time>2018-04-28T09:18:14Z</time>
      </trkpt>
      <trkpt lat="38.0883470" lon="-3.8237420">
        <ele>284.6</ele>
        <time>2018-04-28T09:18:15Z</time>
      </trkpt>
      <trkpt lat="38.0883600" lon="-3.8237140">
        <ele>285.0</ele>
        <time>2018-04-28T09:18:16Z</time>
      </trkpt>
      <trkpt lat="38.0883740" lon="-3.8236850">
        <ele>285.0</ele>
        <time>2018-04-28T09:18:17Z</time>
      </trkpt>
      <trkpt lat="38.0883890" lon="-3.8236570">
        <ele>285.4</ele>
        <time>2018-04-28T09:18:18Z</time>
      </trkpt>
      <trkpt lat="38.0884040" lon="-3.8236300">
        <ele>285.6</ele>
        <time>2018-04-28T09:18:19Z</time>
      </trkpt>
      <trkpt lat="38.0884170" lon="-3.8236010">
        <ele>285.8</ele>
        <time>2018-04-28T09:18:20Z</time>
      </trkpt>
      <trkpt lat="38.0884290" lon="-3.8235720">
        <ele>286.0</ele>
        <time>2018-04-28T09:18:21Z</time>
      </trkpt>
      <trkpt lat="38.0884420" lon="-3.8235440">
        <ele>286.4</ele>
        <time>2018-04-28T09:18:22Z</time>
      </trkpt>
      <trkpt lat="38.0884550" lon="-3.8235150">
        <ele>286.6</ele>
        <time>2018-04-28T09:18:23Z</time>
      </trkpt>
      <trkpt lat="38.0884680" lon="-3.8234880">
        <ele>286.8</ele>
        <time>2018-04-28T09:18:24Z</time>
      </trkpt>
      <trkpt lat="38.0884830" lon="-3.8234590">
        <ele>287.0</ele>
        <time>2018-04-28T09:18:25Z</time>
      </trkpt>
      <trkpt lat="38.0884980" lon="-3.8234310">
        <ele>287.0</ele>
        <time>2018-04-28T09:18:26Z</time>
      </trkpt>
      <trkpt lat="38.0885140" lon="-3.8234020">
        <ele>287.4</ele>
        <time>2018-04-28T09:18:27Z</time>
      </trkpt>
      <trkpt lat="38.0885270" lon="-3.8233740">
        <ele>287.6</ele>
        <time>2018-04-28T09:18:28Z</time>
      </trkpt>
      <trkpt lat="38.0885390" lon="-3.8233460">
        <ele>287.8</ele>
        <time>2018-04-28T09:18:29Z</time>
      </trkpt>
      <trkpt lat="38.0885480" lon="-3.8233230">
        <ele>288.0</ele>
        <time>2018-04-28T09:18:30Z</time>
      </trkpt>
      <trkpt lat="38.0885610" lon="-3.8232950">
        <ele>288.2</ele>
        <time>2018-04-28T09:18:31Z</time>
      </trkpt>
      <trkpt lat="38.0885760" lon="-3.8232660">
        <ele>288.6</ele>
        <time>2018-04-28T09:18:32Z</time>
      </trkpt>
      <trkpt lat="38.0885910" lon="-3.8232400">
        <ele>288.8</ele>
        <time>2018-04-28T09:18:33Z</time>
      </trkpt>
      <trkpt lat="38.0886040" lon="-3.8232130">
        <ele>289.0</ele>
        <time>2018-04-28T09:18:34Z</time>
      </trkpt>
      <trkpt lat="38.0886180" lon="-3.8231860">
        <ele>289.0</ele>
        <time>2018-04-28T09:18:35Z</time>
      </trkpt>
      <trkpt lat="38.0886320" lon="-3.8231570">
        <ele>289.2</ele>
        <time>2018-04-28T09:18:36Z</time>
      </trkpt>
      <trkpt lat="38.0886470" lon="-3.8231280">
        <ele>289.6</ele>
        <time>2018-04-28T09:18:37Z</time>
      </trkpt>
      <trkpt lat="38.0886630" lon="-3.8230990">
        <ele>289.6</ele>
        <time>2018-04-28T09:18:38Z</time>
      </trkpt>
      <trkpt lat="38.0886770" lon="-3.8230700">
        <ele>289.8</ele>
        <time>2018-04-28T09:18:39Z</time>
      </trkpt>
      <trkpt lat="38.0886890" lon="-3.8230400">
        <ele>290.0</ele>
        <time>2018-04-28T09:18:40Z</time>
      </trkpt>
      <trkpt lat="38.0887010" lon="-3.8230100">
        <ele>290.2</ele>
        <time>2018-04-28T09:18:41Z</time>
      </trkpt>
      <trkpt lat="38.0887140" lon="-3.8229800">
        <ele>290.6</ele>
        <time>2018-04-28T09:18:42Z</time>
      </trkpt>
      <trkpt lat="38.0887280" lon="-3.8229520">
        <ele>290.6</ele>
        <time>2018-04-28T09:18:43Z</time>
      </trkpt>
      <trkpt lat="38.0887420" lon="-3.8229220">
        <ele>290.8</ele>
        <time>2018-04-28T09:18:44Z</time>
      </trkpt>
      <trkpt lat="38.0887560" lon="-3.8228920">
        <ele>290.8</ele>
        <time>2018-04-28T09:18:45Z</time>
      </trkpt>
      <trkpt lat="38.0887690" lon="-3.8228620">
        <ele>291.0</ele>
        <time>2018-04-28T09:18:46Z</time>
      </trkpt>
      <trkpt lat="38.0887830" lon="-3.8228320">
        <ele>291.0</ele>
        <time>2018-04-28T09:18:47Z</time>
      </trkpt>
      <trkpt lat="38.0887960" lon="-3.8228020">
        <ele>291.2</ele>
        <time>2018-04-28T09:18:48Z</time>
      </trkpt>
      <trkpt lat="38.0888100" lon="-3.8227720">
        <ele>291.2</ele>
        <time>2018-04-28T09:18:49Z</time>
      </trkpt>
      <trkpt lat="38.0888210" lon="-3.8227420">
        <ele>291.2</ele>
        <time>2018-04-28T09:18:50Z</time>
      </trkpt>
      <trkpt lat="38.0888320" lon="-3.8227110">
        <ele>291.4</ele>
        <time>2018-04-28T09:18:51Z</time>
      </trkpt>
      <trkpt lat="38.0888430" lon="-3.8226800">
        <ele>291.4</ele>
        <time>2018-04-28T09:18:52Z</time>
      </trkpt>
      <trkpt lat="38.0888570" lon="-3.8226480">
        <ele>291.4</ele>
        <time>2018-04-28T09:18:53Z</time>
      </trkpt>
      <trkpt lat="38.0888700" lon="-3.8226150">
        <ele>291.4</ele>
        <time>2018-04-28T09:18:54Z</time>
      </trkpt>
      <trkpt lat="38.0888820" lon="-3.8225830">
        <ele>291.8</ele>
        <time>2018-04-28T09:18:55Z</time>
      </trkpt>
      <trkpt lat="38.0888940" lon="-3.8225500">
        <ele>292.0</ele>
        <time>2018-04-28T09:18:56Z</time>
      </trkpt>
      <trkpt lat="38.0889070" lon="-3.8225180">
        <ele>292.2</ele>
        <time>2018-04-28T09:18:57Z</time>
      </trkpt>
      <trkpt lat="38.0889200" lon="-3.8224860">
        <ele>292.2</ele>
        <time>2018-04-28T09:18:58Z</time>
      </trkpt>
      <trkpt lat="38.0889350" lon="-3.8224520">
        <ele>292.0</ele>
        <time>2018-04-28T09:18:59Z</time>
      </trkpt>
      <trkpt lat="38.0889480" lon="-3.8224160">
        <ele>292.0</ele>
        <time>2018-04-28T09:19:00Z</time>
      </trkpt>
      <trkpt lat="38.0889610" lon="-3.8223800">
        <ele>292.0</ele>
        <time>2018-04-28T09:19:01Z</time>
      </trkpt>
      <trkpt lat="38.0889740" lon="-3.8223420">
        <ele>292.0</ele>
        <time>2018-04-28T09:19:02Z</time>
      </trkpt>
      <trkpt lat="38.0889870" lon="-3.8223020">
        <ele>292.2</ele>
        <time>2018-04-28T09:19:03Z</time>
      </trkpt>
      <trkpt lat="38.0890020" lon="-3.8222620">
        <ele>292.2</ele>
        <time>2018-04-28T09:19:04Z</time>
      </trkpt>
      <trkpt lat="38.0890180" lon="-3.8222210">
        <ele>292.2</ele>
        <time>2018-04-28T09:19:05Z</time>
      </trkpt>
      <trkpt lat="38.0890340" lon="-3.8221790">
        <ele>292.2</ele>
        <time>2018-04-28T09:19:06Z</time>
      </trkpt>
      <trkpt lat="38.0890510" lon="-3.8221330">
        <ele>292.2</ele>
        <time>2018-04-28T09:19:07Z</time>
      </trkpt>
      <trkpt lat="38.0890670" lon="-3.8220870">
        <ele>292.4</ele>
        <time>2018-04-28T09:19:08Z</time>
      </trkpt>
      <trkpt lat="38.0890740" lon="-3.8220450">
        <ele>292.2</ele>
        <time>2018-04-28T09:19:09Z</time>
      </trkpt>
      <trkpt lat="38.0890900" lon="-3.8219980">
        <ele>292.2</ele>
        <time>2018-04-28T09:19:10Z</time>
      </trkpt>
      <trkpt lat="38.0891100" lon="-3.8219500">
        <ele>292.2</ele>
        <time>2018-04-28T09:19:11Z</time>
      </trkpt>
      <trkpt lat="38.0891300" lon="-3.8219020">
        <ele>292.0</ele>
        <time>2018-04-28T09:19:12Z</time>
      </trkpt>
      <trkpt lat="38.0891520" lon="-3.8218540">
        <ele>292.2</ele>
        <time>2018-04-28T09:19:13Z</time>
      </trkpt>
      <trkpt lat="38.0891750" lon="-3.8218080">
        <ele>292.4</ele>
        <time>2018-04-28T09:19:14Z</time>
      </trkpt>
      <trkpt lat="38.0891970" lon="-3.8217620">
        <ele>292.4</ele>
        <time>2018-04-28T09:19:15Z</time>
      </trkpt>
      <trkpt lat="38.0892210" lon="-3.8217170">
        <ele>292.4</ele>
        <time>2018-04-28T09:19:16Z</time>
      </trkpt>
      <trkpt lat="38.0892460" lon="-3.8216740">
        <ele>292.6</ele>
        <time>2018-04-28T09:19:17Z</time>
      </trkpt>
      <trkpt lat="38.0892720" lon="-3.8216330">
        <ele>292.8</ele>
        <time>2018-04-28T09:19:18Z</time>
      </trkpt>
      <trkpt lat="38.0892990" lon="-3.8215910">
        <ele>293.0</ele>
        <time>2018-04-28T09:19:19Z</time>
      </trkpt>
      <trkpt lat="38.0893220" lon="-3.8215500">
        <ele>293.0</ele>
        <time>2018-04-28T09:19:20Z</time>
      </trkpt>
      <trkpt lat="38.0893460" lon="-3.8215090">
        <ele>293.0</ele>
        <time>2018-04-28T09:19:21Z</time>
      </trkpt>
      <trkpt lat="38.0893710" lon="-3.8214670">
        <ele>293.2</ele>
        <time>2018-04-28T09:19:22Z</time>
      </trkpt>
      <trkpt lat="38.0893990" lon="-3.8214260">
        <ele>293.4</ele>
        <time>2018-04-28T09:19:23Z</time>
      </trkpt>
      <trkpt lat="38.0894270" lon="-3.8213850">
        <ele>293.2</ele>
        <time>2018-04-28T09:19:24Z</time>
      </trkpt>
      <trkpt lat="38.0894550" lon="-3.8213450">
        <ele>293.2</ele>
        <time>2018-04-28T09:19:25Z</time>
      </trkpt>
      <trkpt lat="38.0894840" lon="-3.8213040">
        <ele>293.2</ele>
        <time>2018-04-28T09:19:26Z</time>
      </trkpt>
      <trkpt lat="38.0895120" lon="-3.8212650">
        <ele>293.2</ele>
        <time>2018-04-28T09:19:27Z</time>
      </trkpt>
      <trkpt lat="38.0895440" lon="-3.8212250">
        <ele>293.2</ele>
        <time>2018-04-28T09:19:28Z</time>
      </trkpt>
      <trkpt lat="38.0895780" lon="-3.8211840">
        <ele>293.4</ele>
        <time>2018-04-28T09:19:29Z</time>
      </trkpt>
      <trkpt lat="38.0896100" lon="-3.8211460">
        <ele>293.4</ele>
        <time>2018-04-28T09:19:30Z</time>
      </trkpt>
      <trkpt lat="38.0896410" lon="-3.8211040">
        <ele>293.4</ele>
        <time>2018-04-28T09:19:31Z</time>
      </trkpt>
      <trkpt lat="38.0896720" lon="-3.8210680">
        <ele>293.6</ele>
        <time>2018-04-28T09:19:32Z</time>
      </trkpt>
      <trkpt lat="38.0897020" lon="-3.8210320">
        <ele>293.8</ele>
        <time>2018-04-28T09:19:33Z</time>
      </trkpt>
      <trkpt lat="38.0897330" lon="-3.8209980">
        <ele>294.0</ele>
        <time>2018-04-28T09:19:34Z</time>
      </trkpt>
      <trkpt lat="38.0897610" lon="-3.8209640">
        <ele>294.2</ele>
        <time>2018-04-28T09:19:35Z</time>
      </trkpt>
      <trkpt lat="38.0897860" lon="-3.8209320">
        <ele>294.2</ele>
        <time>2018-04-28T09:19:36Z</time>
      </trkpt>
      <trkpt lat="38.0898120" lon="-3.8209020">
        <ele>294.4</ele>
        <time>2018-04-28T09:19:37Z</time>
      </trkpt>
      <trkpt lat="38.0898400" lon="-3.8208710">
        <ele>294.4</ele>
        <time>2018-04-28T09:19:38Z</time>
      </trkpt>
      <trkpt lat="38.0898650" lon="-3.8208370">
        <ele>294.2</ele>
        <time>2018-04-28T09:19:39Z</time>
      </trkpt>
      <trkpt lat="38.0898920" lon="-3.8208030">
        <ele>294.2</ele>
        <time>2018-04-28T09:19:40Z</time>
      </trkpt>
      <trkpt lat="38.0899190" lon="-3.8207660">
        <ele>287.8</ele>
        <time>2018-04-28T09:19:41Z</time>
      </trkpt>
      <trkpt lat="38.0899460" lon="-3.8207290">
        <ele>294.6</ele>
        <time>2018-04-28T09:19:42Z</time>
      </trkpt>
      <trkpt lat="38.0899730" lon="-3.8206930">
        <ele>294.2</ele>
        <time>2018-04-28T09:19:43Z</time>
      </trkpt>
      <trkpt lat="38.0900010" lon="-3.8206570">
        <ele>284.8</ele>
        <time>2018-04-28T09:19:44Z</time>
      </trkpt>
      <trkpt lat="38.0900280" lon="-3.8206240">
        <ele>294.6</ele>
        <time>2018-04-28T09:19:45Z</time>
      </trkpt>
      <trkpt lat="38.0900520" lon="-3.8205910">
        <ele>294.0</ele>
        <time>2018-04-28T09:19:46Z</time>
      </trkpt>
      <trkpt lat="38.0900740" lon="-3.8205580">
        <ele>294.2</ele>
        <time>2018-04-28T09:19:47Z</time>
      </trkpt>
      <trkpt lat="38.0901000" lon="-3.8205260">
        <ele>294.2</ele>
        <time>2018-04-28T09:19:48Z</time>
      </trkpt>
      <trkpt lat="38.0901260" lon="-3.8204990">
        <ele>294.2</ele>
        <time>2018-04-28T09:19:49Z</time>
      </trkpt>
      <trkpt lat="38.0901540" lon="-3.8204660">
        <ele>294.4</ele>
        <time>2018-04-28T09:19:50Z</time>
      </trkpt>
      <trkpt lat="38.0901790" lon="-3.8204320">
        <ele>294.4</ele>
        <time>2018-04-28T09:19:51Z</time>
      </trkpt>
      <trkpt lat="38.0902080" lon="-3.8204000">
        <ele>297.0</ele>
        <time>2018-04-28T09:19:52Z</time>
      </trkpt>
      <trkpt lat="38.0902360" lon="-3.8203680">
        <ele>294.0</ele>
        <time>2018-04-28T09:19:53Z</time>
      </trkpt>
      <trkpt lat="38.0902630" lon="-3.8203330">
        <ele>284.2</ele>
        <time>2018-04-28T09:19:54Z</time>
      </trkpt>
      <trkpt lat="38.0902910" lon="-3.8202970">
        <ele>294.2</ele>
        <time>2018-04-28T09:19:55Z</time>
      </trkpt>
      <trkpt lat="38.0903160" lon="-3.8202630">
        <ele>294.2</ele>
        <time>2018-04-28T09:19:56Z</time>
      </trkpt>
      <trkpt lat="38.0903410" lon="-3.8202290">
        <ele>295.2</ele>
        <time>2018-04-28T09:19:57Z</time>
      </trkpt>
      <trkpt lat="38.0903640" lon="-3.8201950">
        <ele>296.8</ele>
        <time>2018-04-28T09:19:58Z</time>
      </trkpt>
      <trkpt lat="38.0903840" lon="-3.8201630">
        <ele>285.4</ele>
        <time>2018-04-28T09:19:59Z</time>
      </trkpt>
      <trkpt lat="38.0904060" lon="-3.8201330">
        <ele>295.4</ele>
        <time>2018-04-28T09:20:00Z</time>
      </trkpt>
      <trkpt lat="38.0904280" lon="-3.8201070">
        <ele>295.2</ele>
        <time>2018-04-28T09:20:01Z</time>
      </trkpt>
      <trkpt lat="38.0904470" lon="-3.8200880">
        <ele>297.2</ele>
        <time>2018-04-28T09:20:02Z</time>
      </trkpt>
      <trkpt lat="38.0904660" lon="-3.8200650">
        <ele>295.8</ele>
        <time>2018-04-28T09:20:03Z</time>
      </trkpt>
      <trkpt lat="38.0904820" lon="-3.8200390">
        <ele>296.2</ele>
        <time>2018-04-28T09:20:04Z</time>
      </trkpt>
      <trkpt lat="38.0904980" lon="-3.8200110">
        <ele>296.4</ele>
        <time>2018-04-28T09:20:05Z</time>
      </trkpt>
      <trkpt lat="38.0905120" lon="-3.8199850">
        <ele>296.6</ele>
        <time>2018-04-28T09:20:06Z</time>
      </trkpt>
      <trkpt lat="38.0905250" lon="-3.8199570">
        <ele>296.8</ele>
        <time>2018-04-28T09:20:07Z</time>
      </trkpt>
      <trkpt lat="38.0905390" lon="-3.8199280">
        <ele>297.0</ele>
        <time>2018-04-28T09:20:08Z</time>
      </trkpt>
      <trkpt lat="38.0905540" lon="-3.8199010">
        <ele>297.2</ele>
        <time>2018-04-28T09:20:09Z</time>
      </trkpt>
      <trkpt lat="38.0905700" lon="-3.8198730">
        <ele>297.4</ele>
        <time>2018-04-28T09:20:10Z</time>
      </trkpt>
      <trkpt lat="38.0905870" lon="-3.8198450">
        <ele>297.8</ele>
        <time>2018-04-28T09:20:11Z</time>
      </trkpt>
      <trkpt lat="38.0906010" lon="-3.8198160">
        <ele>298.0</ele>
        <time>2018-04-28T09:20:12Z</time>
      </trkpt>
      <trkpt lat="38.0906170" lon="-3.8197860">
        <ele>298.4</ele>
        <time>2018-04-28T09:20:13Z</time>
      </trkpt>
      <trkpt lat="38.0906330" lon="-3.8197590">
        <ele>298.6</ele>
        <time>2018-04-28T09:20:14Z</time>
      </trkpt>
      <trkpt lat="38.0906500" lon="-3.8197340">
        <ele>288.6</ele>
        <time>2018-04-28T09:20:15Z</time>
      </trkpt>
      <trkpt lat="38.0906660" lon="-3.8197080">
        <ele>288.6</ele>
        <time>2018-04-28T09:20:16Z</time>
      </trkpt>
      <trkpt lat="38.0906810" lon="-3.8196810">
        <ele>300.8</ele>
        <time>2018-04-28T09:20:17Z</time>
      </trkpt>
      <trkpt lat="38.0906960" lon="-3.8196560">
        <ele>299.8</ele>
        <time>2018-04-28T09:20:18Z</time>
      </trkpt>
      <trkpt lat="38.0907110" lon="-3.8196300">
        <ele>301.6</ele>
        <time>2018-04-28T09:20:19Z</time>
      </trkpt>
      <trkpt lat="38.0907250" lon="-3.8196040">
        <ele>299.8</ele>
        <time>2018-04-28T09:20:20Z</time>
      </trkpt>
      <trkpt lat="38.0907410" lon="-3.8195780">
        <ele>299.8</ele>
        <time>2018-04-28T09:20:21Z</time>
      </trkpt>
      <trkpt lat="38.0907550" lon="-3.8195520">
        <ele>304.8</ele>
        <time>2018-04-28T09:20:22Z</time>
      </trkpt>
      <trkpt lat="38.0907710" lon="-3.8195250">
        <ele>300.0</ele>
        <time>2018-04-28T09:20:23Z</time>
      </trkpt>
      <trkpt lat="38.0907850" lon="-3.8194980">
        <ele>300.0</ele>
        <time>2018-04-28T09:20:24Z</time>
      </trkpt>
      <trkpt lat="38.0907980" lon="-3.8194720">
        <ele>301.6</ele>
        <time>2018-04-28T09:20:25Z</time>
      </trkpt>
      <trkpt lat="38.0908140" lon="-3.8194460">
        <ele>300.2</ele>
        <time>2018-04-28T09:20:26Z</time>
      </trkpt>
      <trkpt lat="38.0908320" lon="-3.8194210">
        <ele>300.4</ele>
        <time>2018-04-28T09:20:27Z</time>
      </trkpt>
      <trkpt lat="38.0908490" lon="-3.8193960">
        <ele>300.6</ele>
        <time>2018-04-28T09:20:28Z</time>
      </trkpt>
      <trkpt lat="38.0908670" lon="-3.8193700">
        <ele>300.8</ele>
        <time>2018-04-28T09:20:29Z</time>
      </trkpt>
      <trkpt lat="38.0908840" lon="-3.8193440">
        <ele>300.8</ele>
        <time>2018-04-28T09:20:30Z</time>
      </trkpt>
      <trkpt lat="38.0909010" lon="-3.8193180">
        <ele>301.2</ele>
        <time>2018-04-28T09:20:31Z</time>
      </trkpt>
      <trkpt lat="38.0909180" lon="-3.8192910">
        <ele>301.2</ele>
        <time>2018-04-28T09:20:32Z</time>
      </trkpt>
      <trkpt lat="38.0909350" lon="-3.8192670">
        <ele>301.4</ele>
        <time>2018-04-28T09:20:33Z</time>
      </trkpt>
      <trkpt lat="38.0909550" lon="-3.8192450">
        <ele>301.6</ele>
        <time>2018-04-28T09:20:34Z</time>
      </trkpt>
      <trkpt lat="38.0909750" lon="-3.8192250">
        <ele>301.8</ele>
        <time>2018-04-28T09:20:35Z</time>
      </trkpt>
      <trkpt lat="38.0909960" lon="-3.8192040">
        <ele>302.2</ele>
        <time>2018-04-28T09:20:36Z</time>
      </trkpt>
      <trkpt lat="38.0910180" lon="-3.8191870">
        <ele>302.4</ele>
        <time>2018-04-28T09:20:37Z</time>
      </trkpt>
      <trkpt lat="38.0910420" lon="-3.8191700">
        <ele>302.4</ele>
        <time>2018-04-28T09:20:38Z</time>
      </trkpt>
      <trkpt lat="38.0910670" lon="-3.8191570">
        <ele>302.6</ele>
        <time>2018-04-28T09:20:39Z</time>
      </trkpt>
      <trkpt lat="38.0910910" lon="-3.8191460">
        <ele>302.8</ele>
        <time>2018-04-28T09:20:40Z</time>
      </trkpt>
      <trkpt lat="38.0911150" lon="-3.8191390">
        <ele>303.0</ele>
        <time>2018-04-28T09:20:41Z</time>
      </trkpt>
      <trkpt lat="38.0911450" lon="-3.8191310">
        <ele>303.0</ele>
        <time>2018-04-28T09:20:42Z</time>
      </trkpt>
      <trkpt lat="38.0911750" lon="-3.8191250">
        <ele>303.2</ele>
        <time>2018-04-28T09:20:43Z</time>
      </trkpt>
      <trkpt lat="38.0912010" lon="-3.8191200">
        <ele>303.4</ele>
        <time>2018-04-28T09:20:44Z</time>
      </trkpt>
      <trkpt lat="38.0912280" lon="-3.8191150">
        <ele>303.4</ele>
        <time>2018-04-28T09:20:45Z</time>
      </trkpt>
      <trkpt lat="38.0912520" lon="-3.8191140">
        <ele>303.4</ele>
        <time>2018-04-28T09:20:46Z</time>
      </trkpt>
      <trkpt lat="38.0912680" lon="-3.8191200">
        <ele>303.8</ele>
        <time>2018-04-28T09:20:47Z</time>
      </trkpt>
      <trkpt lat="38.0912930" lon="-3.8191200">
        <ele>303.8</ele>
        <time>2018-04-28T09:20:48Z</time>
      </trkpt>
      <trkpt lat="38.0913230" lon="-3.8191210">
        <ele>303.6</ele>
        <time>2018-04-28T09:20:49Z</time>
      </trkpt>
      <trkpt lat="38.0913510" lon="-3.8191200">
        <ele>303.6</ele>
        <time>2018-04-28T09:20:50Z</time>
      </trkpt>
      <trkpt lat="38.0913800" lon="-3.8191160">
        <ele>303.8</ele>
        <time>2018-04-28T09:20:51Z</time>
      </trkpt>
      <trkpt lat="38.0914080" lon="-3.8191120">
        <ele>304.0</ele>
        <time>2018-04-28T09:20:52Z</time>
      </trkpt>
      <trkpt lat="38.0914360" lon="-3.8191090">
        <ele>304.0</ele>
        <time>2018-04-28T09:20:53Z</time>
      </trkpt>
      <trkpt lat="38.0914650" lon="-3.8191070">
        <ele>304.0</ele>
        <time>2018-04-28T09:20:54Z</time>
      </trkpt>
      <trkpt lat="38.0914920" lon="-3.8191030">
        <ele>304.0</ele>
        <time>2018-04-28T09:20:55Z</time>
      </trkpt>
      <trkpt lat="38.0915200" lon="-3.8190980">
        <ele>304.0</ele>
        <time>2018-04-28T09:20:56Z</time>
      </trkpt>
      <trkpt lat="38.0915490" lon="-3.8190900">
        <ele>304.0</ele>
        <time>2018-04-28T09:20:57Z</time>
      </trkpt>
      <trkpt lat="38.0915780" lon="-3.8190830">
        <ele>304.2</ele>
        <time>2018-04-28T09:20:58Z</time>
      </trkpt>
      <trkpt lat="38.0916040" lon="-3.8190740">
        <ele>304.2</ele>
        <time>2018-04-28T09:20:59Z</time>
      </trkpt>
      <trkpt lat="38.0916310" lon="-3.8190640">
        <ele>304.4</ele>
        <time>2018-04-28T09:21:00Z</time>
      </trkpt>
      <trkpt lat="38.0916560" lon="-3.8190510">
        <ele>304.4</ele>
        <time>2018-04-28T09:21:01Z</time>
      </trkpt>
      <trkpt lat="38.0916820" lon="-3.8190350">
        <ele>304.8</ele>
        <time>2018-04-28T09:21:02Z</time>
      </trkpt>
      <trkpt lat="38.0917070" lon="-3.8190190">
        <ele>304.8</ele>
        <time>2018-04-28T09:21:03Z</time>
      </trkpt>
      <trkpt lat="38.0917310" lon="-3.8190020">
        <ele>305.0</ele>
        <time>2018-04-28T09:21:04Z</time>
      </trkpt>
      <trkpt lat="38.0917560" lon="-3.8189850">
        <ele>305.2</ele>
        <time>2018-04-28T09:21:05Z</time>
      </trkpt>
      <trkpt lat="38.0917800" lon="-3.8189690">
        <ele>305.2</ele>
        <time>2018-04-28T09:21:06Z</time>
      </trkpt>
      <trkpt lat="38.0918060" lon="-3.8189520">
        <ele>305.4</ele>
        <time>2018-04-28T09:21:07Z</time>
      </trkpt>
      <trkpt lat="38.0918330" lon="-3.8189340">
        <ele>305.6</ele>
        <time>2018-04-28T09:21:08Z</time>
      </trkpt>
      <trkpt lat="38.0918570" lon="-3.8189180">
        <ele>305.8</ele>
        <time>2018-04-28T09:21:09Z</time>
      </trkpt>
      <trkpt lat="38.0918810" lon="-3.8189030">
        <ele>306.0</ele>
        <time>2018-04-28T09:21:10Z</time>
      </trkpt>
      <trkpt lat="38.0919050" lon="-3.8188870">
        <ele>306.0</ele>
        <time>2018-04-28T09:21:11Z</time>
      </trkpt>
      <trkpt lat="38.0919290" lon="-3.8188710">
        <ele>306.2</ele>
        <time>2018-04-28T09:21:12Z</time>
      </trkpt>
      <trkpt lat="38.0919540" lon="-3.8188570">
        <ele>306.4</ele>
        <time>2018-04-28T09:21:13Z</time>
      </trkpt>
      <trkpt lat="38.0919790" lon="-3.8188430">
        <ele>306.4</ele>
        <time>2018-04-28T09:21:14Z</time>
      </trkpt>
      <trkpt lat="38.0920050" lon="-3.8188300">
        <ele>306.6</ele>
        <time>2018-04-28T09:21:15Z</time>
      </trkpt>
      <trkpt lat="38.0920290" lon="-3.8188180">
        <ele>306.6</ele>
        <time>2018-04-28T09:21:16Z</time>
      </trkpt>
      <trkpt lat="38.0920530" lon="-3.8188080">
        <ele>306.8</ele>
        <time>2018-04-28T09:21:17Z</time>
      </trkpt>
      <trkpt lat="38.0920780" lon="-3.8188000">
        <ele>306.8</ele>
        <time>2018-04-28T09:21:18Z</time>
      </trkpt>
      <trkpt lat="38.0921040" lon="-3.8187930">
        <ele>307.0</ele>
        <time>2018-04-28T09:21:19Z</time>
      </trkpt>
      <trkpt lat="38.0921270" lon="-3.8187860">
        <ele>307.0</ele>
        <time>2018-04-28T09:21:20Z</time>
      </trkpt>
      <trkpt lat="38.0921470" lon="-3.8187780">
        <ele>307.0</ele>
        <time>2018-04-28T09:21:21Z</time>
      </trkpt>
      <trkpt lat="38.0921680" lon="-3.8187460">
        <ele>307.0</ele>
        <time>2018-04-28T09:21:22Z</time>
      </trkpt>
      <trkpt lat="38.0921760" lon="-3.8187220">
        <ele>307.0</ele>
        <time>2018-04-28T09:21:23Z</time>
      </trkpt>
      <trkpt lat="38.0921830" lon="-3.8186970">
        <ele>307.0</ele>
        <time>2018-04-28T09:21:24Z</time>
      </trkpt>
      <trkpt lat="38.0921900" lon="-3.8186720">
        <ele>307.0</ele>
        <time>2018-04-28T09:21:25Z</time>
      </trkpt>
      <trkpt lat="38.0921970" lon="-3.8186480">
        <ele>307.0</ele>
        <time>2018-04-28T09:21:26Z</time>
      </trkpt>
      <trkpt lat="38.0922050" lon="-3.8186230">
        <ele>307.0</ele>
        <time>2018-04-28T09:21:27Z</time>
      </trkpt>
      <trkpt lat="38.0922120" lon="-3.8185990">
        <ele>307.0</ele>
        <time>2018-04-28T09:21:28Z</time>
      </trkpt>
      <trkpt lat="38.0922190" lon="-3.8185740">
        <ele>307.0</ele>
        <time>2018-04-28T09:21:29Z</time>
      </trkpt>
      <trkpt lat="38.0922260" lon="-3.8185490">
        <ele>307.0</ele>
        <time>2018-04-28T09:21:30Z</time>
      </trkpt>
      <trkpt lat="38.0922340" lon="-3.8185250">
        <ele>307.4</ele>
        <time>2018-04-28T09:24:02Z</time>
      </trkpt>
      <trkpt lat="38.0922410" lon="-3.8185000">
        <ele>307.6</ele>
        <time>2018-04-28T09:24:03Z</time>
      </trkpt>
      <trkpt lat="38.0922600" lon="-3.8184750">
        <ele>307.8</ele>
        <time>2018-04-28T09:24:04Z</time>
      </trkpt>
      <trkpt lat="38.0922600" lon="-3.8184750">
        <ele>307.8</ele>
        <time>2018-04-28T09:24:05Z</time>
      </trkpt>
      <trkpt lat="38.0922790" lon="-3.8184500">
        <ele>308.0</ele>
        <time>2018-04-28T09:24:06Z</time>
      </trkpt>
      <trkpt lat="38.0923030" lon="-3.8184280">
        <ele>308.2</ele>
        <time>2018-04-28T09:24:07Z</time>
      </trkpt>
      <trkpt lat="38.0923280" lon="-3.8184070">
        <ele>308.4</ele>
        <time>2018-04-28T09:24:08Z</time>
      </trkpt>
      <trkpt lat="38.0923530" lon="-3.8183850">
        <ele>308.4</ele>
        <time>2018-04-28T09:24:09Z</time>
      </trkpt>
      <trkpt lat="38.0923770" lon="-3.8183620">
        <ele>308.4</ele>
        <time>2018-04-28T09:24:10Z</time>
      </trkpt>
      <trkpt lat="38.0923990" lon="-3.8183400">
        <ele>308.6</ele>
        <time>2018-04-28T09:24:11Z</time>
      </trkpt>
      <trkpt lat="38.0924230" lon="-3.8183180">
        <ele>308.6</ele>
        <time>2018-04-28T09:24:12Z</time>
      </trkpt>
      <trkpt lat="38.0924480" lon="-3.8183000">
        <ele>308.8</ele>
        <time>2018-04-28T09:24:13Z</time>
      </trkpt>
      <trkpt lat="38.0924740" lon="-3.8182800">
        <ele>308.8</ele>
        <time>2018-04-28T09:24:14Z</time>
      </trkpt>
      <trkpt lat="38.0925040" lon="-3.8182610">
        <ele>308.8</ele>
        <time>2018-04-28T09:24:15Z</time>
      </trkpt>
      <trkpt lat="38.0925330" lon="-3.8182400">
        <ele>308.8</ele>
        <time>2018-04-28T09:24:16Z</time>
      </trkpt>
      <trkpt lat="38.0925620" lon="-3.8182210">
        <ele>308.8</ele>
        <time>2018-04-28T09:24:17Z</time>
      </trkpt>
      <trkpt lat="38.0925920" lon="-3.8182020">
        <ele>308.8</ele>
        <time>2018-04-28T09:24:18Z</time>
      </trkpt>
      <trkpt lat="38.0926210" lon="-3.8181810">
        <ele>308.8</ele>
        <time>2018-04-28T09:24:19Z</time>
      </trkpt>
      <trkpt lat="38.0926500" lon="-3.8181600">
        <ele>309.0</ele>
        <time>2018-04-28T09:24:20Z</time>
      </trkpt>
      <trkpt lat="38.0926800" lon="-3.8181360">
        <ele>307.0</ele>
        <time>2018-04-28T09:24:21Z</time>
      </trkpt>
      <trkpt lat="38.0927100" lon="-3.8181130">
        <ele>309.2</ele>
        <time>2018-04-28T09:24:22Z</time>
      </trkpt>
      <trkpt lat="38.0927430" lon="-3.8180890">
        <ele>309.0</ele>
        <time>2018-04-28T09:24:23Z</time>
      </trkpt>
      <trkpt lat="38.0927770" lon="-3.8180640">
        <ele>309.2</ele>
        <time>2018-04-28T09:24:24Z</time>
      </trkpt>
      <trkpt lat="38.0928090" lon="-3.8180370">
        <ele>309.2</ele>
        <time>2018-04-28T09:24:25Z</time>
      </trkpt>
      <trkpt lat="38.0928430" lon="-3.8180130">
        <ele>309.2</ele>
        <time>2018-04-28T09:24:26Z</time>
      </trkpt>
      <trkpt lat="38.0928780" lon="-3.8179910">
        <ele>309.2</ele>
        <time>2018-04-28T09:24:27Z</time>
      </trkpt>
      <trkpt lat="38.0929130" lon="-3.8179690">
        <ele>309.2</ele>
        <time>2018-04-28T09:24:28Z</time>
      </trkpt>
      <trkpt lat="38.0929490" lon="-3.8179460">
        <ele>309.2</ele>
        <time>2018-04-28T09:24:29Z</time>
      </trkpt>
      <trkpt lat="38.0929850" lon="-3.8179240">
        <ele>309.2</ele>
        <time>2018-04-28T09:24:30Z</time>
      </trkpt>
      <trkpt lat="38.0930230" lon="-3.8179020">
        <ele>309.2</ele>
        <time>2018-04-28T09:24:31Z</time>
      </trkpt>
      <trkpt lat="38.0930590" lon="-3.8178760">
        <ele>309.2</ele>
        <time>2018-04-28T09:24:32Z</time>
      </trkpt>
      <trkpt lat="38.0930960" lon="-3.8178490">
        <ele>309.2</ele>
        <time>2018-04-28T09:24:33Z</time>
      </trkpt>
      <trkpt lat="38.0931330" lon="-3.8178200">
        <ele>309.2</ele>
        <time>2018-04-28T09:24:34Z</time>
      </trkpt>
      <trkpt lat="38.0931700" lon="-3.8177930">
        <ele>309.2</ele>
        <time>2018-04-28T09:24:35Z</time>
      </trkpt>
      <trkpt lat="38.0932090" lon="-3.8177670">
        <ele>309.0</ele>
        <time>2018-04-28T09:24:36Z</time>
      </trkpt>
      <trkpt lat="38.0932480" lon="-3.8177380">
        <ele>309.0</ele>
        <time>2018-04-28T09:24:37Z</time>
      </trkpt>
      <trkpt lat="38.0932880" lon="-3.8177100">
        <ele>309.0</ele>
        <time>2018-04-28T09:24:38Z</time>
      </trkpt>
      <trkpt lat="38.0933290" lon="-3.8176810">
        <ele>308.8</ele>
        <time>2018-04-28T09:24:39Z</time>
      </trkpt>
      <trkpt lat="38.0933720" lon="-3.8176520">
        <ele>308.6</ele>
        <time>2018-04-28T09:24:40Z</time>
      </trkpt>
      <trkpt lat="38.0934160" lon="-3.8176200">
        <ele>308.4</ele>
        <time>2018-04-28T09:24:41Z</time>
      </trkpt>
      <trkpt lat="38.0934610" lon="-3.8175860">
        <ele>308.2</ele>
        <time>2018-04-28T09:24:42Z</time>
      </trkpt>
      <trkpt lat="38.0935070" lon="-3.8175490">
        <ele>308.0</ele>
        <time>2018-04-28T09:24:43Z</time>
      </trkpt>
      <trkpt lat="38.0935590" lon="-3.8175080">
        <ele>307.6</ele>
        <time>2018-04-28T09:24:44Z</time>
      </trkpt>
      <trkpt lat="38.0936110" lon="-3.8174650">
        <ele>307.2</ele>
        <time>2018-04-28T09:24:45Z</time>
      </trkpt>
      <trkpt lat="38.0936680" lon="-3.8174230">
        <ele>306.4</ele>
        <time>2018-04-28T09:24:46Z</time>
      </trkpt>
      <trkpt lat="38.0937260" lon="-3.8173780">
        <ele>306.2</ele>
        <time>2018-04-28T09:24:47Z</time>
      </trkpt>
      <trkpt lat="38.0937860" lon="-3.8173300">
        <ele>306.0</ele>
        <time>2018-04-28T09:24:48Z</time>
      </trkpt>
      <trkpt lat="38.0938460" lon="-3.8172830">
        <ele>305.6</ele>
        <time>2018-04-28T09:24:49Z</time>
      </trkpt>
      <trkpt lat="38.0939080" lon="-3.8172370">
        <ele>305.4</ele>
        <time>2018-04-28T09:24:50Z</time>
      </trkpt>
      <trkpt lat="38.0939700" lon="-3.8171920">
        <ele>305.4</ele>
        <time>2018-04-28T09:24:51Z</time>
      </trkpt>
      <trkpt lat="38.0940310" lon="-3.8171490">
        <ele>305.2</ele>
        <time>2018-04-28T09:24:52Z</time>
      </trkpt>
      <trkpt lat="38.0940890" lon="-3.8171010">
        <ele>305.2</ele>
        <time>2018-04-28T09:24:53Z</time>
      </trkpt>
      <trkpt lat="38.0941470" lon="-3.8170540">
        <ele>305.0</ele>
        <time>2018-04-28T09:24:54Z</time>
      </trkpt>
      <trkpt lat="38.0942050" lon="-3.8170080">
        <ele>305.2</ele>
        <time>2018-04-28T09:24:55Z</time>
      </trkpt>
      <trkpt lat="38.0942570" lon="-3.8169700">
        <ele>305.0</ele>
        <time>2018-04-28T09:24:56Z</time>
      </trkpt>
      <trkpt lat="38.0943140" lon="-3.8169310">
        <ele>305.0</ele>
        <time>2018-04-28T09:24:57Z</time>
      </trkpt>
      <trkpt lat="38.0943710" lon="-3.8168950">
        <ele>305.0</ele>
        <time>2018-04-28T09:24:58Z</time>
      </trkpt>
      <trkpt lat="38.0944240" lon="-3.8168630">
        <ele>305.0</ele>
        <time>2018-04-28T09:24:59Z</time>
      </trkpt>
      <trkpt lat="38.0944770" lon="-3.8168310">
        <ele>305.0</ele>
        <time>2018-04-28T09:25:00Z</time>
      </trkpt>
      <trkpt lat="38.0945290" lon="-3.8168020">
        <ele>305.0</ele>
        <time>2018-04-28T09:25:01Z</time>
      </trkpt>
      <trkpt lat="38.0945770" lon="-3.8167740">
        <ele>305.0</ele>
        <time>2018-04-28T09:25:02Z</time>
      </trkpt>
      <trkpt lat="38.0946270" lon="-3.8167480">
        <ele>305.2</ele>
        <time>2018-04-28T09:25:03Z</time>
      </trkpt>
      <trkpt lat="38.0946790" lon="-3.8167200">
        <ele>305.2</ele>
        <time>2018-04-28T09:25:04Z</time>
      </trkpt>
      <trkpt lat="38.0947310" lon="-3.8166920">
        <ele>305.2</ele>
        <time>2018-04-28T09:25:05Z</time>
      </trkpt>
      <trkpt lat="38.0947820" lon="-3.8166640">
        <ele>305.2</ele>
        <time>2018-04-28T09:25:06Z</time>
      </trkpt>
      <trkpt lat="38.0948340" lon="-3.8166360">
        <ele>305.4</ele>
        <time>2018-04-28T09:25:07Z</time>
      </trkpt>
      <trkpt lat="38.0948840" lon="-3.8166100">
        <ele>305.4</ele>
        <time>2018-04-28T09:25:08Z</time>
      </trkpt>
      <trkpt lat="38.0949320" lon="-3.8165850">
        <ele>305.4</ele>
        <time>2018-04-28T09:25:09Z</time>
      </trkpt>
      <trkpt lat="38.0949830" lon="-3.8165560">
        <ele>305.2</ele>
        <time>2018-04-28T09:25:10Z</time>
      </trkpt>
      <trkpt lat="38.0950330" lon="-3.8165270">
        <ele>305.2</ele>
        <time>2018-04-28T09:25:11Z</time>
      </trkpt>
      <trkpt lat="38.0950840" lon="-3.8164980">
        <ele>305.2</ele>
        <time>2018-04-28T09:25:12Z</time>
      </trkpt>
      <trkpt lat="38.0951340" lon="-3.8164670">
        <ele>305.4</ele>
        <time>2018-04-28T09:25:13Z</time>
      </trkpt>
      <trkpt lat="38.0951870" lon="-3.8164410">
        <ele>305.4</ele>
        <time>2018-04-28T09:25:14Z</time>
      </trkpt>
      <trkpt lat="38.0952400" lon="-3.8164140">
        <ele>305.4</ele>
        <time>2018-04-28T09:25:15Z</time>
      </trkpt>
      <trkpt lat="38.0952910" lon="-3.8163830">
        <ele>305.4</ele>
        <time>2018-04-28T09:25:16Z</time>
      </trkpt>
      <trkpt lat="38.0953410" lon="-3.8163500">
        <ele>305.6</ele>
        <time>2018-04-28T09:25:17Z</time>
      </trkpt>
      <trkpt lat="38.0953900" lon="-3.8163190">
        <ele>305.8</ele>
        <time>2018-04-28T09:25:18Z</time>
      </trkpt>
      <trkpt lat="38.0954400" lon="-3.8162890">
        <ele>305.8</ele>
        <time>2018-04-28T09:25:19Z</time>
      </trkpt>
      <trkpt lat="38.0954900" lon="-3.8162590">
        <ele>305.8</ele>
        <time>2018-04-28T09:25:20Z</time>
      </trkpt>
      <trkpt lat="38.0955380" lon="-3.8162280">
        <ele>305.8</ele>
        <time>2018-04-28T09:25:21Z</time>
      </trkpt>
      <trkpt lat="38.0955890" lon="-3.8161990">
        <ele>305.8</ele>
        <time>2018-04-28T09:25:22Z</time>
      </trkpt>
      <trkpt lat="38.0956390" lon="-3.8161690">
        <ele>305.8</ele>
        <time>2018-04-28T09:25:23Z</time>
      </trkpt>
      <trkpt lat="38.0956880" lon="-3.8161350">
        <ele>306.0</ele>
        <time>2018-04-28T09:25:24Z</time>
      </trkpt>
      <trkpt lat="38.0957340" lon="-3.8161020">
        <ele>306.0</ele>
        <time>2018-04-28T09:25:25Z</time>
      </trkpt>
      <trkpt lat="38.0957840" lon="-3.8160690">
        <ele>306.2</ele>
        <time>2018-04-28T09:25:26Z</time>
      </trkpt>
      <trkpt lat="38.0958340" lon="-3.8160370">
        <ele>306.4</ele>
        <time>2018-04-28T09:25:27Z</time>
      </trkpt>
      <trkpt lat="38.0958840" lon="-3.8160070">
        <ele>306.4</ele>
        <time>2018-04-28T09:25:28Z</time>
      </trkpt>
      <trkpt lat="38.0959330" lon="-3.8159800">
        <ele>306.6</ele>
        <time>2018-04-28T09:25:29Z</time>
      </trkpt>
      <trkpt lat="38.0959850" lon="-3.8159550">
        <ele>306.6</ele>
        <time>2018-04-28T09:25:30Z</time>
      </trkpt>
      <trkpt lat="38.0960360" lon="-3.8159320">
        <ele>306.8</ele>
        <time>2018-04-28T09:25:31Z</time>
      </trkpt>
      <trkpt lat="38.0960880" lon="-3.8159100">
        <ele>306.6</ele>
        <time>2018-04-28T09:25:32Z</time>
      </trkpt>
      <trkpt lat="38.0961430" lon="-3.8158880">
        <ele>306.8</ele>
        <time>2018-04-28T09:25:33Z</time>
      </trkpt>
      <trkpt lat="38.0961960" lon="-3.8158720">
        <ele>306.6</ele>
        <time>2018-04-28T09:25:34Z</time>
      </trkpt>
      <trkpt lat="38.0962500" lon="-3.8158590">
        <ele>306.8</ele>
        <time>2018-04-28T09:25:35Z</time>
      </trkpt>
      <trkpt lat="38.0963040" lon="-3.8158500">
        <ele>306.8</ele>
        <time>2018-04-28T09:25:36Z</time>
      </trkpt>
      <trkpt lat="38.0963590" lon="-3.8158440">
        <ele>306.8</ele>
        <time>2018-04-28T09:25:37Z</time>
      </trkpt>
      <trkpt lat="38.0964130" lon="-3.8158450">
        <ele>307.0</ele>
        <time>2018-04-28T09:25:38Z</time>
      </trkpt>
      <trkpt lat="38.0964680" lon="-3.8158510">
        <ele>307.0</ele>
        <time>2018-04-28T09:25:39Z</time>
      </trkpt>
      <trkpt lat="38.0965210" lon="-3.8158520">
        <ele>307.2</ele>
        <time>2018-04-28T09:25:40Z</time>
      </trkpt>
      <trkpt lat="38.0965750" lon="-3.8158490">
        <ele>307.6</ele>
        <time>2018-04-28T09:25:41Z</time>
      </trkpt>
      <trkpt lat="38.0966280" lon="-3.8158460">
        <ele>307.6</ele>
        <time>2018-04-28T09:25:42Z</time>
      </trkpt>
      <trkpt lat="38.0966800" lon="-3.8158440">
        <ele>307.6</ele>
        <time>2018-04-28T09:25:43Z</time>
      </trkpt>
      <trkpt lat="38.0967330" lon="-3.8158410">
        <ele>307.6</ele>
        <time>2018-04-28T09:25:44Z</time>
      </trkpt>
      <trkpt lat="38.0967850" lon="-3.8158350">
        <ele>307.8</ele>
        <time>2018-04-28T09:25:45Z</time>
      </trkpt>
      <trkpt lat="38.0968370" lon="-3.8158300">
        <ele>308.0</ele>
        <time>2018-04-28T09:25:46Z</time>
      </trkpt>
      <trkpt lat="38.0968850" lon="-3.8158260">
        <ele>308.2</ele>
        <time>2018-04-28T09:25:47Z</time>
      </trkpt>
      <trkpt lat="38.0969310" lon="-3.8158200">
        <ele>308.4</ele>
        <time>2018-04-28T09:25:48Z</time>
      </trkpt>
      <trkpt lat="38.0969750" lon="-3.8158140">
        <ele>308.8</ele>
        <time>2018-04-28T09:25:49Z</time>
      </trkpt>
      <trkpt lat="38.0970160" lon="-3.8158060">
        <ele>309.0</ele>
        <time>2018-04-28T09:25:50Z</time>
      </trkpt>
      <trkpt lat="38.0970550" lon="-3.8157980">
        <ele>309.6</ele>
        <time>2018-04-28T09:25:51Z</time>
      </trkpt>
      <trkpt lat="38.0970920" lon="-3.8157910">
        <ele>309.8</ele>
        <time>2018-04-28T09:25:52Z</time>
      </trkpt>
      <trkpt lat="38.0971270" lon="-3.8157820">
        <ele>310.2</ele>
        <time>2018-04-28T09:25:53Z</time>
      </trkpt>
      <trkpt lat="38.0971600" lon="-3.8157720">
        <ele>310.2</ele>
        <time>2018-04-28T09:25:54Z</time>
      </trkpt>
      <trkpt lat="38.0971920" lon="-3.8157620">
        <ele>310.4</ele>
        <time>2018-04-28T09:25:55Z</time>
      </trkpt>
      <trkpt lat="38.0972240" lon="-3.8157550">
        <ele>310.6</ele>
        <time>2018-04-28T09:25:56Z</time>
      </trkpt>
      <trkpt lat="38.0972550" lon="-3.8157460">
        <ele>311.0</ele>
        <time>2018-04-28T09:25:57Z</time>
      </trkpt>
      <trkpt lat="38.0972870" lon="-3.8157370">
        <ele>311.2</ele>
        <time>2018-04-28T09:25:58Z</time>
      </trkpt>
      <trkpt lat="38.0973180" lon="-3.8157270">
        <ele>311.6</ele>
        <time>2018-04-28T09:25:59Z</time>
      </trkpt>
      <trkpt lat="38.0973480" lon="-3.8157190">
        <ele>311.6</ele>
        <time>2018-04-28T09:26:00Z</time>
      </trkpt>
      <trkpt lat="38.0973780" lon="-3.8157100">
        <ele>311.8</ele>
        <time>2018-04-28T09:26:01Z</time>
      </trkpt>
      <trkpt lat="38.0974060" lon="-3.8157000">
        <ele>312.0</ele>
        <time>2018-04-28T09:26:02Z</time>
      </trkpt>
      <trkpt lat="38.0974320" lon="-3.8156940">
        <ele>312.4</ele>
        <time>2018-04-28T09:26:03Z</time>
      </trkpt>
      <trkpt lat="38.0974600" lon="-3.8156860">
        <ele>312.6</ele>
        <time>2018-04-28T09:26:04Z</time>
      </trkpt>
      <trkpt lat="38.0974860" lon="-3.8156780">
        <ele>313.0</ele>
        <time>2018-04-28T09:26:05Z</time>
      </trkpt>
      <trkpt lat="38.0975140" lon="-3.8156700">
        <ele>313.2</ele>
        <time>2018-04-28T09:26:06Z</time>
      </trkpt>
      <trkpt lat="38.0975430" lon="-3.8156630">
        <ele>313.4</ele>
        <time>2018-04-28T09:26:07Z</time>
      </trkpt>
      <trkpt lat="38.0975690" lon="-3.8156560">
        <ele>313.8</ele>
        <time>2018-04-28T09:26:08Z</time>
      </trkpt>
      <trkpt lat="38.0975930" lon="-3.8156500">
        <ele>314.0</ele>
        <time>2018-04-28T09:26:09Z</time>
      </trkpt>
      <trkpt lat="38.0976170" lon="-3.8156460">
        <ele>314.2</ele>
        <time>2018-04-28T09:26:10Z</time>
      </trkpt>
      <trkpt lat="38.0976420" lon="-3.8156420">
        <ele>314.4</ele>
        <time>2018-04-28T09:26:11Z</time>
      </trkpt>
      <trkpt lat="38.0976650" lon="-3.8156360">
        <ele>314.8</ele>
        <time>2018-04-28T09:26:12Z</time>
      </trkpt>
      <trkpt lat="38.0976880" lon="-3.8156320">
        <ele>315.0</ele>
        <time>2018-04-28T09:26:13Z</time>
      </trkpt>
      <trkpt lat="38.0977120" lon="-3.8156280">
        <ele>315.2</ele>
        <time>2018-04-28T09:26:14Z</time>
      </trkpt>
      <trkpt lat="38.0977340" lon="-3.8156260">
        <ele>315.4</ele>
        <time>2018-04-28T09:26:15Z</time>
      </trkpt>
      <trkpt lat="38.0977590" lon="-3.8156220">
        <ele>315.6</ele>
        <time>2018-04-28T09:26:16Z</time>
      </trkpt>
      <trkpt lat="38.0977830" lon="-3.8156180">
        <ele>316.0</ele>
        <time>2018-04-28T09:26:17Z</time>
      </trkpt>
      <trkpt lat="38.0978040" lon="-3.8156150">
        <ele>316.2</ele>
        <time>2018-04-28T09:26:18Z</time>
      </trkpt>
      <trkpt lat="38.0978270" lon="-3.8156140">
        <ele>316.4</ele>
        <time>2018-04-28T09:26:19Z</time>
      </trkpt>
      <trkpt lat="38.0978480" lon="-3.8156170">
        <ele>316.8</ele>
        <time>2018-04-28T09:26:20Z</time>
      </trkpt>
      <trkpt lat="38.0978690" lon="-3.8156190">
        <ele>317.0</ele>
        <time>2018-04-28T09:26:21Z</time>
      </trkpt>
      <trkpt lat="38.0978900" lon="-3.8156200">
        <ele>317.2</ele>
        <time>2018-04-28T09:26:22Z</time>
      </trkpt>
      <trkpt lat="38.0979100" lon="-3.8156190">
        <ele>317.6</ele>
        <time>2018-04-28T09:26:23Z</time>
      </trkpt>
      <trkpt lat="38.0979300" lon="-3.8156200">
        <ele>317.8</ele>
        <time>2018-04-28T09:26:24Z</time>
      </trkpt>
      <trkpt lat="38.0979500" lon="-3.8156210">
        <ele>317.8</ele>
        <time>2018-04-28T09:26:25Z</time>
      </trkpt>
      <trkpt lat="38.0979720" lon="-3.8156220">
        <ele>318.0</ele>
        <time>2018-04-28T09:26:26Z</time>
      </trkpt>
      <trkpt lat="38.0979930" lon="-3.8156220">
        <ele>318.2</ele>
        <time>2018-04-28T09:26:27Z</time>
      </trkpt>
      <trkpt lat="38.0980140" lon="-3.8156230">
        <ele>318.6</ele>
        <time>2018-04-28T09:26:28Z</time>
      </trkpt>
      <trkpt lat="38.0980340" lon="-3.8156220">
        <ele>319.0</ele>
        <time>2018-04-28T09:26:29Z</time>
      </trkpt>
      <trkpt lat="38.0980540" lon="-3.8156220">
        <ele>319.2</ele>
        <time>2018-04-28T09:26:30Z</time>
      </trkpt>
      <trkpt lat="38.0980750" lon="-3.8156210">
        <ele>319.2</ele>
        <time>2018-04-28T09:26:31Z</time>
      </trkpt>
      <trkpt lat="38.0980940" lon="-3.8156210">
        <ele>319.4</ele>
        <time>2018-04-28T09:26:32Z</time>
      </trkpt>
      <trkpt lat="38.0981130" lon="-3.8156170">
        <ele>319.6</ele>
        <time>2018-04-28T09:26:33Z</time>
      </trkpt>
      <trkpt lat="38.0981310" lon="-3.8156150">
        <ele>319.8</ele>
        <time>2018-04-28T09:26:34Z</time>
      </trkpt>
      <trkpt lat="38.0981500" lon="-3.8156150">
        <ele>320.0</ele>
        <time>2018-04-28T09:26:35Z</time>
      </trkpt>
      <trkpt lat="38.0981680" lon="-3.8156130">
        <ele>320.4</ele>
        <time>2018-04-28T09:26:36Z</time>
      </trkpt>
      <trkpt lat="38.0981860" lon="-3.8156130">
        <ele>320.4</ele>
        <time>2018-04-28T09:26:37Z</time>
      </trkpt>
      <trkpt lat="38.0982050" lon="-3.8156090">
        <ele>320.6</ele>
        <time>2018-04-28T09:26:38Z</time>
      </trkpt>
      <trkpt lat="38.0982250" lon="-3.8156070">
        <ele>320.6</ele>
        <time>2018-04-28T09:26:39Z</time>
      </trkpt>
      <trkpt lat="38.0982430" lon="-3.8156040">
        <ele>321.0</ele>
        <time>2018-04-28T09:26:40Z</time>
      </trkpt>
      <trkpt lat="38.0982630" lon="-3.8156030">
        <ele>321.0</ele>
        <time>2018-04-28T09:26:41Z</time>
      </trkpt>
      <trkpt lat="38.0982820" lon="-3.8156010">
        <ele>321.2</ele>
        <time>2018-04-28T09:26:42Z</time>
      </trkpt>
      <trkpt lat="38.0983010" lon="-3.8155990">
        <ele>321.4</ele>
        <time>2018-04-28T09:26:43Z</time>
      </trkpt>
      <trkpt lat="38.0983190" lon="-3.8155970">
        <ele>321.6</ele>
        <time>2018-04-28T09:26:44Z</time>
      </trkpt>
      <trkpt lat="38.0983380" lon="-3.8155950">
        <ele>322.0</ele>
        <time>2018-04-28T09:26:45Z</time>
      </trkpt>
      <trkpt lat="38.0983570" lon="-3.8155920">
        <ele>322.2</ele>
        <time>2018-04-28T09:26:46Z</time>
      </trkpt>
      <trkpt lat="38.0983760" lon="-3.8155890">
        <ele>322.4</ele>
        <time>2018-04-28T09:26:47Z</time>
      </trkpt>
      <trkpt lat="38.0983940" lon="-3.8155860">
        <ele>322.6</ele>
        <time>2018-04-28T09:26:48Z</time>
      </trkpt>
      <trkpt lat="38.0984130" lon="-3.8155820">
        <ele>322.6</ele>
        <time>2018-04-28T09:26:49Z</time>
      </trkpt>
      <trkpt lat="38.0984330" lon="-3.8155780">
        <ele>322.8</ele>
        <time>2018-04-28T09:26:50Z</time>
      </trkpt>
      <trkpt lat="38.0984520" lon="-3.8155730">
        <ele>323.2</ele>
        <time>2018-04-28T09:26:51Z</time>
      </trkpt>
      <trkpt lat="38.0984710" lon="-3.8155700">
        <ele>323.2</ele>
        <time>2018-04-28T09:26:52Z</time>
      </trkpt>
      <trkpt lat="38.0984890" lon="-3.8155680">
        <ele>323.4</ele>
        <time>2018-04-28T09:26:53Z</time>
      </trkpt>
      <trkpt lat="38.0985080" lon="-3.8155640">
        <ele>323.6</ele>
        <time>2018-04-28T09:26:54Z</time>
      </trkpt>
      <trkpt lat="38.0985270" lon="-3.8155590">
        <ele>323.8</ele>
        <time>2018-04-28T09:26:55Z</time>
      </trkpt>
      <trkpt lat="38.0985470" lon="-3.8155530">
        <ele>323.8</ele>
        <time>2018-04-28T09:26:56Z</time>
      </trkpt>
      <trkpt lat="38.0985660" lon="-3.8155480">
        <ele>324.0</ele>
        <time>2018-04-28T09:26:57Z</time>
      </trkpt>
      <trkpt lat="38.0985840" lon="-3.8155430">
        <ele>324.2</ele>
        <time>2018-04-28T09:26:58Z</time>
      </trkpt>
      <trkpt lat="38.0986030" lon="-3.8155380">
        <ele>324.4</ele>
        <time>2018-04-28T09:26:59Z</time>
      </trkpt>
      <trkpt lat="38.0986220" lon="-3.8155340">
        <ele>324.4</ele>
        <time>2018-04-28T09:27:00Z</time>
      </trkpt>
      <trkpt lat="38.0986410" lon="-3.8155310">
        <ele>324.6</ele>
        <time>2018-04-28T09:27:01Z</time>
      </trkpt>
      <trkpt lat="38.0986600" lon="-3.8155250">
        <ele>324.8</ele>
        <time>2018-04-28T09:27:02Z</time>
      </trkpt>
      <trkpt lat="38.0986800" lon="-3.8155230">
        <ele>325.0</ele>
        <time>2018-04-28T09:27:03Z</time>
      </trkpt>
      <trkpt lat="38.0986990" lon="-3.8155220">
        <ele>325.0</ele>
        <time>2018-04-28T09:27:04Z</time>
      </trkpt>
      <trkpt lat="38.0987180" lon="-3.8155180">
        <ele>325.0</ele>
        <time>2018-04-28T09:27:05Z</time>
      </trkpt>
      <trkpt lat="38.0987380" lon="-3.8155130">
        <ele>325.4</ele>
        <time>2018-04-28T09:27:06Z</time>
      </trkpt>
      <trkpt lat="38.0987580" lon="-3.8155060">
        <ele>325.6</ele>
        <time>2018-04-28T09:27:07Z</time>
      </trkpt>
      <trkpt lat="38.0987790" lon="-3.8155010">
        <ele>325.8</ele>
        <time>2018-04-28T09:27:08Z</time>
      </trkpt>
      <trkpt lat="38.0987990" lon="-3.8154970">
        <ele>326.2</ele>
        <time>2018-04-28T09:27:09Z</time>
      </trkpt>
      <trkpt lat="38.0988190" lon="-3.8154950">
        <ele>326.0</ele>
        <time>2018-04-28T09:27:10Z</time>
      </trkpt>
      <trkpt lat="38.0988390" lon="-3.8154920">
        <ele>326.2</ele>
        <time>2018-04-28T09:27:11Z</time>
      </trkpt>
      <trkpt lat="38.0988610" lon="-3.8154890">
        <ele>326.4</ele>
        <time>2018-04-28T09:27:12Z</time>
      </trkpt>
      <trkpt lat="38.0988810" lon="-3.8154870">
        <ele>326.6</ele>
        <time>2018-04-28T09:27:13Z</time>
      </trkpt>
      <trkpt lat="38.0989010" lon="-3.8154830">
        <ele>326.8</ele>
        <time>2018-04-28T09:27:14Z</time>
      </trkpt>
      <trkpt lat="38.0989200" lon="-3.8154810">
        <ele>327.0</ele>
        <time>2018-04-28T09:27:15Z</time>
      </trkpt>
      <trkpt lat="38.0989400" lon="-3.8154790">
        <ele>327.6</ele>
        <time>2018-04-28T09:27:16Z</time>
      </trkpt>
      <trkpt lat="38.0989620" lon="-3.8154750">
        <ele>327.6</ele>
        <time>2018-04-28T09:27:17Z</time>
      </trkpt>
      <trkpt lat="38.0989830" lon="-3.8154690">
        <ele>327.6</ele>
        <time>2018-04-28T09:27:18Z</time>
      </trkpt>
      <trkpt lat="38.0990030" lon="-3.8154650">
        <ele>327.6</ele>
        <time>2018-04-28T09:27:19Z</time>
      </trkpt>
      <trkpt lat="38.0990230" lon="-3.8154580">
        <ele>327.8</ele>
        <time>2018-04-28T09:27:20Z</time>
      </trkpt>
      <trkpt lat="38.0990420" lon="-3.8154530">
        <ele>327.6</ele>
        <time>2018-04-28T09:27:21Z</time>
      </trkpt>
      <trkpt lat="38.0990630" lon="-3.8154500">
        <ele>327.8</ele>
        <time>2018-04-28T09:27:22Z</time>
      </trkpt>
      <trkpt lat="38.0990830" lon="-3.8154450">
        <ele>327.8</ele>
        <time>2018-04-28T09:27:23Z</time>
      </trkpt>
      <trkpt lat="38.0991060" lon="-3.8154360">
        <ele>328.0</ele>
        <time>2018-04-28T09:27:24Z</time>
      </trkpt>
      <trkpt lat="38.0991290" lon="-3.8154310">
        <ele>328.0</ele>
        <time>2018-04-28T09:27:25Z</time>
      </trkpt>
      <trkpt lat="38.0991510" lon="-3.8154300">
        <ele>328.2</ele>
        <time>2018-04-28T09:27:26Z</time>
      </trkpt>
      <trkpt lat="38.0991730" lon="-3.8154300">
        <ele>328.8</ele>
        <time>2018-04-28T09:27:27Z</time>
      </trkpt>
      <trkpt lat="38.0991970" lon="-3.8154310">
        <ele>329.0</ele>
        <time>2018-04-28T09:27:28Z</time>
      </trkpt>
      <trkpt lat="38.0992220" lon="-3.8154280">
        <ele>328.8</ele>
        <time>2018-04-28T09:27:29Z</time>
      </trkpt>
      <trkpt lat="38.0992470" lon="-3.8154250">
        <ele>329.0</ele>
        <time>2018-04-28T09:27:30Z</time>
      </trkpt>
      <trkpt lat="38.0992730" lon="-3.8154220">
        <ele>329.2</ele>
        <time>2018-04-28T09:27:31Z</time>
      </trkpt>
      <trkpt lat="38.0992980" lon="-3.8154190">
        <ele>329.2</ele>
        <time>2018-04-28T09:27:32Z</time>
      </trkpt>
      <trkpt lat="38.0993240" lon="-3.8154200">
        <ele>329.2</ele>
        <time>2018-04-28T09:27:33Z</time>
      </trkpt>
      <trkpt lat="38.0993520" lon="-3.8154200">
        <ele>329.2</ele>
        <time>2018-04-28T09:27:34Z</time>
      </trkpt>
      <trkpt lat="38.0993810" lon="-3.8154210">
        <ele>329.0</ele>
        <time>2018-04-28T09:27:35Z</time>
      </trkpt>
      <trkpt lat="38.0994100" lon="-3.8154180">
        <ele>329.2</ele>
        <time>2018-04-28T09:27:36Z</time>
      </trkpt>
      <trkpt lat="38.0994390" lon="-3.8154150">
        <ele>329.0</ele>
        <time>2018-04-28T09:27:37Z</time>
      </trkpt>
      <trkpt lat="38.0994720" lon="-3.8154100">
        <ele>329.0</ele>
        <time>2018-04-28T09:27:38Z</time>
      </trkpt>
      <trkpt lat="38.0995060" lon="-3.8154060">
        <ele>328.8</ele>
        <time>2018-04-28T09:27:39Z</time>
      </trkpt>
      <trkpt lat="38.0995410" lon="-3.8154000">
        <ele>328.8</ele>
        <time>2018-04-28T09:27:40Z</time>
      </trkpt>
      <trkpt lat="38.0995780" lon="-3.8153910">
        <ele>328.8</ele>
        <time>2018-04-28T09:27:41Z</time>
      </trkpt>
      <trkpt lat="38.0996180" lon="-3.8153790">
        <ele>328.6</ele>
        <time>2018-04-28T09:27:42Z</time>
      </trkpt>
      <trkpt lat="38.0996610" lon="-3.8153630">
        <ele>328.6</ele>
        <time>2018-04-28T09:27:43Z</time>
      </trkpt>
      <trkpt lat="38.0997070" lon="-3.8153410">
        <ele>328.0</ele>
        <time>2018-04-28T09:27:44Z</time>
      </trkpt>
      <trkpt lat="38.0997550" lon="-3.8153120">
        <ele>327.6</ele>
        <time>2018-04-28T09:27:45Z</time>
      </trkpt>
      <trkpt lat="38.0998040" lon="-3.8152720">
        <ele>327.0</ele>
        <time>2018-04-28T09:27:46Z</time>
      </trkpt>
      <trkpt lat="38.0998510" lon="-3.8152230">
        <ele>326.2</ele>
        <time>2018-04-28T09:27:47Z</time>
      </trkpt>
      <trkpt lat="38.0999010" lon="-3.8151630">
        <ele>325.6</ele>
        <time>2018-04-28T09:27:48Z</time>
      </trkpt>
      <trkpt lat="38.0999540" lon="-3.8150910">
        <ele>324.6</ele>
        <time>2018-04-28T09:27:49Z</time>
      </trkpt>
      <trkpt lat="38.1000070" lon="-3.8150090">
        <ele>323.4</ele>
        <time>2018-04-28T09:27:50Z</time>
      </trkpt>
      <trkpt lat="38.1000620" lon="-3.8149190">
        <ele>322.8</ele>
        <time>2018-04-28T09:27:51Z</time>
      </trkpt>
      <trkpt lat="38.1001210" lon="-3.8148190">
        <ele>322.8</ele>
        <time>2018-04-28T09:27:52Z</time>
      </trkpt>
      <trkpt lat="38.1001850" lon="-3.8147150">
        <ele>322.2</ele>
        <time>2018-04-28T09:27:53Z</time>
      </trkpt>
      <trkpt lat="38.1002510" lon="-3.8146120">
        <ele>321.4</ele>
        <time>2018-04-28T09:27:54Z</time>
      </trkpt>
      <trkpt lat="38.1003190" lon="-3.8145100">
        <ele>321.0</ele>
        <time>2018-04-28T09:27:55Z</time>
      </trkpt>
      <trkpt lat="38.1003900" lon="-3.8144090">
        <ele>320.8</ele>
        <time>2018-04-28T09:27:56Z</time>
      </trkpt>
      <trkpt lat="38.1004590" lon="-3.8143080">
        <ele>320.8</ele>
        <time>2018-04-28T09:27:57Z</time>
      </trkpt>
      <trkpt lat="38.1005310" lon="-3.8142110">
        <ele>321.2</ele>
        <time>2018-04-28T09:27:58Z</time>
      </trkpt>
      <trkpt lat="38.1006060" lon="-3.8141220">
        <ele>320.6</ele>
        <time>2018-04-28T09:27:59Z</time>
      </trkpt>
      <trkpt lat="38.1006820" lon="-3.8140390">
        <ele>320.6</ele>
        <time>2018-04-28T09:28:00Z</time>
      </trkpt>
      <trkpt lat="38.1007580" lon="-3.8139600">
        <ele>320.6</ele>
        <time>2018-04-28T09:28:01Z</time>
      </trkpt>
      <trkpt lat="38.1008350" lon="-3.8138890">
        <ele>320.6</ele>
        <time>2018-04-28T09:28:02Z</time>
      </trkpt>
      <trkpt lat="38.1009110" lon="-3.8138200">
        <ele>320.8</ele>
        <time>2018-04-28T09:28:03Z</time>
      </trkpt>
      <trkpt lat="38.1009880" lon="-3.8137580">
        <ele>320.8</ele>
        <time>2018-04-28T09:28:04Z</time>
      </trkpt>
      <trkpt lat="38.1010660" lon="-3.8137010">
        <ele>320.8</ele>
        <time>2018-04-28T09:28:05Z</time>
      </trkpt>
      <trkpt lat="38.1011400" lon="-3.8136490">
        <ele>320.8</ele>
        <time>2018-04-28T09:28:06Z</time>
      </trkpt>
      <trkpt lat="38.1012130" lon="-3.8136010">
        <ele>321.0</ele>
        <time>2018-04-28T09:28:07Z</time>
      </trkpt>
      <trkpt lat="38.1012860" lon="-3.8135560">
        <ele>321.2</ele>
        <time>2018-04-28T09:28:08Z</time>
      </trkpt>
      <trkpt lat="38.1013550" lon="-3.8135150">
        <ele>321.2</ele>
        <time>2018-04-28T09:28:09Z</time>
      </trkpt>
      <trkpt lat="38.1014240" lon="-3.8134770">
        <ele>321.4</ele>
        <time>2018-04-28T09:28:10Z</time>
      </trkpt>
      <trkpt lat="38.1014940" lon="-3.8134370">
        <ele>321.4</ele>
        <time>2018-04-28T09:28:11Z</time>
      </trkpt>
      <trkpt lat="38.1015640" lon="-3.8134010">
        <ele>321.2</ele>
        <time>2018-04-28T09:28:12Z</time>
      </trkpt>
      <trkpt lat="38.1016330" lon="-3.8133630">
        <ele>321.4</ele>
        <time>2018-04-28T09:28:13Z</time>
      </trkpt>
      <trkpt lat="38.1017030" lon="-3.8133240">
        <ele>321.2</ele>
        <time>2018-04-28T09:28:14Z</time>
      </trkpt>
      <trkpt lat="38.1017710" lon="-3.8132820">
        <ele>320.6</ele>
        <time>2018-04-28T09:28:15Z</time>
      </trkpt>
      <trkpt lat="38.1018430" lon="-3.8132390">
        <ele>320.4</ele>
        <time>2018-04-28T09:28:16Z</time>
      </trkpt>
      <trkpt lat="38.1019180" lon="-3.8131940">
        <ele>319.6</ele>
        <time>2018-04-28T09:28:17Z</time>
      </trkpt>
      <trkpt lat="38.1019940" lon="-3.8131480">
        <ele>319.4</ele>
        <time>2018-04-28T09:28:18Z</time>
      </trkpt>
      <trkpt lat="38.1020730" lon="-3.8130990">
        <ele>319.2</ele>
        <time>2018-04-28T09:28:19Z</time>
      </trkpt>
      <trkpt lat="38.1021530" lon="-3.8130460">
        <ele>318.8</ele>
        <time>2018-04-28T09:28:20Z</time>
      </trkpt>
      <trkpt lat="38.1022350" lon="-3.8129930">
        <ele>318.2</ele>
        <time>2018-04-28T09:28:21Z</time>
      </trkpt>
      <trkpt lat="38.1023170" lon="-3.8129360">
        <ele>317.8</ele>
        <time>2018-04-28T09:28:22Z</time>
      </trkpt>
      <trkpt lat="38.1024000" lon="-3.8128800">
        <ele>317.6</ele>
        <time>2018-04-28T09:28:23Z</time>
      </trkpt>
      <trkpt lat="38.1024810" lon="-3.8128220">
        <ele>317.4</ele>
        <time>2018-04-28T09:28:24Z</time>
      </trkpt>
      <trkpt lat="38.1025610" lon="-3.8127640">
        <ele>317.4</ele>
        <time>2018-04-28T09:28:25Z</time>
      </trkpt>
      <trkpt lat="38.1026390" lon="-3.8127060">
        <ele>317.0</ele>
        <time>2018-04-28T09:28:26Z</time>
      </trkpt>
      <trkpt lat="38.1027160" lon="-3.8126480">
        <ele>317.2</ele>
        <time>2018-04-28T09:28:27Z</time>
      </trkpt>
      <trkpt lat="38.1027930" lon="-3.8125910">
        <ele>317.2</ele>
        <time>2018-04-28T09:28:28Z</time>
      </trkpt>
      <trkpt lat="38.1028660" lon="-3.8125290">
        <ele>317.2</ele>
        <time>2018-04-28T09:28:29Z</time>
      </trkpt>
      <trkpt lat="38.1029320" lon="-3.8124570">
        <ele>317.2</ele>
        <time>2018-04-28T09:28:30Z</time>
      </trkpt>
      <trkpt lat="38.1029930" lon="-3.8123800">
        <ele>317.2</ele>
        <time>2018-04-28T09:28:31Z</time>
      </trkpt>
      <trkpt lat="38.1030430" lon="-3.8122920">
        <ele>317.4</ele>
        <time>2018-04-28T09:28:32Z</time>
      </trkpt>
      <trkpt lat="38.1030790" lon="-3.8121940">
        <ele>317.2</ele>
        <time>2018-04-28T09:28:33Z</time>
      </trkpt>
      <trkpt lat="38.1031130" lon="-3.8120950">
        <ele>317.4</ele>
        <time>2018-04-28T09:28:34Z</time>
      </trkpt>
      <trkpt lat="38.1031510" lon="-3.8119980">
        <ele>317.6</ele>
        <time>2018-04-28T09:28:35Z</time>
      </trkpt>
      <trkpt lat="38.1032010" lon="-3.8119140">
        <ele>317.6</ele>
        <time>2018-04-28T09:28:36Z</time>
      </trkpt>
      <trkpt lat="38.1032660" lon="-3.8118550">
        <ele>317.6</ele>
        <time>2018-04-28T09:28:37Z</time>
      </trkpt>
      <trkpt lat="38.1033400" lon="-3.8118160">
        <ele>317.6</ele>
        <time>2018-04-28T09:28:38Z</time>
      </trkpt>
      <trkpt lat="38.1034130" lon="-3.8117800">
        <ele>317.6</ele>
        <time>2018-04-28T09:28:39Z</time>
      </trkpt>
      <trkpt lat="38.1034870" lon="-3.8117450">
        <ele>317.8</ele>
        <time>2018-04-28T09:28:40Z</time>
      </trkpt>
      <trkpt lat="38.1035630" lon="-3.8117120">
        <ele>317.6</ele>
        <time>2018-04-28T09:28:41Z</time>
      </trkpt>
      <trkpt lat="38.1036370" lon="-3.8116810">
        <ele>317.6</ele>
        <time>2018-04-28T09:28:42Z</time>
      </trkpt>
      <trkpt lat="38.1037110" lon="-3.8116500">
        <ele>317.8</ele>
        <time>2018-04-28T09:28:43Z</time>
      </trkpt>
      <trkpt lat="38.1037850" lon="-3.8116190">
        <ele>318.0</ele>
        <time>2018-04-28T09:28:44Z</time>
      </trkpt>
      <trkpt lat="38.1038590" lon="-3.8115900">
        <ele>318.0</ele>
        <time>2018-04-28T09:28:45Z</time>
      </trkpt>
      <trkpt lat="38.1039320" lon="-3.8115590">
        <ele>317.8</ele>
        <time>2018-04-28T09:28:46Z</time>
      </trkpt>
      <trkpt lat="38.1040050" lon="-3.8115280">
        <ele>317.8</ele>
        <time>2018-04-28T09:28:47Z</time>
      </trkpt>
      <trkpt lat="38.1040770" lon="-3.8114970">
        <ele>317.8</ele>
        <time>2018-04-28T09:28:48Z</time>
      </trkpt>
      <trkpt lat="38.1041480" lon="-3.8114680">
        <ele>318.0</ele>
        <time>2018-04-28T09:28:49Z</time>
      </trkpt>
      <trkpt lat="38.1042170" lon="-3.8114410">
        <ele>317.8</ele>
        <time>2018-04-28T09:28:50Z</time>
      </trkpt>
      <trkpt lat="38.1042840" lon="-3.8114120">
        <ele>318.0</ele>
        <time>2018-04-28T09:28:51Z</time>
      </trkpt>
      <trkpt lat="38.1043520" lon="-3.8113840">
        <ele>318.0</ele>
        <time>2018-04-28T09:28:52Z</time>
      </trkpt>
      <trkpt lat="38.1044190" lon="-3.8113550">
        <ele>317.8</ele>
        <time>2018-04-28T09:28:53Z</time>
      </trkpt>
      <trkpt lat="38.1044830" lon="-3.8113280">
        <ele>317.8</ele>
        <time>2018-04-28T09:28:54Z</time>
      </trkpt>
      <trkpt lat="38.1045490" lon="-3.8113010">
        <ele>318.0</ele>
        <time>2018-04-28T09:28:55Z</time>
      </trkpt>
      <trkpt lat="38.1046170" lon="-3.8112740">
        <ele>317.8</ele>
        <time>2018-04-28T09:28:56Z</time>
      </trkpt>
      <trkpt lat="38.1046840" lon="-3.8112490">
        <ele>317.8</ele>
        <time>2018-04-28T09:28:57Z</time>
      </trkpt>
      <trkpt lat="38.1047510" lon="-3.8112230">
        <ele>317.8</ele>
        <time>2018-04-28T09:28:58Z</time>
      </trkpt>
      <trkpt lat="38.1048190" lon="-3.8111960">
        <ele>317.8</ele>
        <time>2018-04-28T09:28:59Z</time>
      </trkpt>
      <trkpt lat="38.1048860" lon="-3.8111690">
        <ele>317.8</ele>
        <time>2018-04-28T09:29:00Z</time>
      </trkpt>
      <trkpt lat="38.1049530" lon="-3.8111400">
        <ele>317.8</ele>
        <time>2018-04-28T09:29:01Z</time>
      </trkpt>
      <trkpt lat="38.1050200" lon="-3.8111090">
        <ele>318.0</ele>
        <time>2018-04-28T09:29:02Z</time>
      </trkpt>
      <trkpt lat="38.1050840" lon="-3.8110790">
        <ele>317.8</ele>
        <time>2018-04-28T09:29:03Z</time>
      </trkpt>
      <trkpt lat="38.1051490" lon="-3.8110480">
        <ele>317.8</ele>
        <time>2018-04-28T09:29:04Z</time>
      </trkpt>
      <trkpt lat="38.1052140" lon="-3.8110180">
        <ele>317.8</ele>
        <time>2018-04-28T09:29:05Z</time>
      </trkpt>
      <trkpt lat="38.1052790" lon="-3.8109900">
        <ele>318.0</ele>
        <time>2018-04-28T09:29:06Z</time>
      </trkpt>
      <trkpt lat="38.1053450" lon="-3.8109630">
        <ele>318.0</ele>
        <time>2018-04-28T09:29:07Z</time>
      </trkpt>
      <trkpt lat="38.1054090" lon="-3.8109350">
        <ele>318.0</ele>
        <time>2018-04-28T09:29:08Z</time>
      </trkpt>
      <trkpt lat="38.1054730" lon="-3.8109050">
        <ele>318.2</ele>
        <time>2018-04-28T09:29:09Z</time>
      </trkpt>
      <trkpt lat="38.1055370" lon="-3.8108780">
        <ele>318.2</ele>
        <time>2018-04-28T09:29:10Z</time>
      </trkpt>
      <trkpt lat="38.1056010" lon="-3.8108520">
        <ele>318.4</ele>
        <time>2018-04-28T09:29:11Z</time>
      </trkpt>
      <trkpt lat="38.1056650" lon="-3.8108260">
        <ele>318.2</ele>
        <time>2018-04-28T09:29:12Z</time>
      </trkpt>
      <trkpt lat="38.1057270" lon="-3.8108010">
        <ele>318.4</ele>
        <time>2018-04-28T09:29:13Z</time>
      </trkpt>
      <trkpt lat="38.1057890" lon="-3.8107770">
        <ele>318.4</ele>
        <time>2018-04-28T09:29:14Z</time>
      </trkpt>
      <trkpt lat="38.1058510" lon="-3.8107510">
        <ele>318.4</ele>
        <time>2018-04-28T09:29:15Z</time>
      </trkpt>
      <trkpt lat="38.1059120" lon="-3.8107220">
        <ele>318.4</ele>
        <time>2018-04-28T09:29:16Z</time>
      </trkpt>
      <trkpt lat="38.1059730" lon="-3.8106950">
        <ele>318.4</ele>
        <time>2018-04-28T09:29:17Z</time>
      </trkpt>
      <trkpt lat="38.1060330" lon="-3.8106680">
        <ele>318.6</ele>
        <time>2018-04-28T09:29:18Z</time>
      </trkpt>
      <trkpt lat="38.1060930" lon="-3.8106420">
        <ele>318.6</ele>
        <time>2018-04-28T09:29:19Z</time>
      </trkpt>
      <trkpt lat="38.1061530" lon="-3.8106130">
        <ele>318.6</ele>
        <time>2018-04-28T09:29:20Z</time>
      </trkpt>
      <trkpt lat="38.1062130" lon="-3.8105850">
        <ele>318.6</ele>
        <time>2018-04-28T09:29:21Z</time>
      </trkpt>
      <trkpt lat="38.1062720" lon="-3.8105590">
        <ele>318.8</ele>
        <time>2018-04-28T09:29:22Z</time>
      </trkpt>
      <trkpt lat="38.1063300" lon="-3.8105330">
        <ele>318.6</ele>
        <time>2018-04-28T09:29:23Z</time>
      </trkpt>
      <trkpt lat="38.1063890" lon="-3.8105070">
        <ele>318.8</ele>
        <time>2018-04-28T09:29:24Z</time>
      </trkpt>
      <trkpt lat="38.1064470" lon="-3.8104830">
        <ele>318.8</ele>
        <time>2018-04-28T09:29:25Z</time>
      </trkpt>
      <trkpt lat="38.1065070" lon="-3.8104570">
        <ele>318.8</ele>
        <time>2018-04-28T09:29:26Z</time>
      </trkpt>
      <trkpt lat="38.1065650" lon="-3.8104330">
        <ele>319.0</ele>
        <time>2018-04-28T09:29:27Z</time>
      </trkpt>
      <trkpt lat="38.1066230" lon="-3.8104100">
        <ele>319.4</ele>
        <time>2018-04-28T09:29:28Z</time>
      </trkpt>
      <trkpt lat="38.1066810" lon="-3.8103870">
        <ele>319.6</ele>
        <time>2018-04-28T09:29:29Z</time>
      </trkpt>
      <trkpt lat="38.1067370" lon="-3.8103620">
        <ele>319.6</ele>
        <time>2018-04-28T09:29:30Z</time>
      </trkpt>
      <trkpt lat="38.1067930" lon="-3.8103380">
        <ele>320.0</ele>
        <time>2018-04-28T09:29:31Z</time>
      </trkpt>
      <trkpt lat="38.1068490" lon="-3.8103160">
        <ele>320.4</ele>
        <time>2018-04-28T09:29:32Z</time>
      </trkpt>
      <trkpt lat="38.1069060" lon="-3.8102940">
        <ele>320.8</ele>
        <time>2018-04-28T09:29:33Z</time>
      </trkpt>
      <trkpt lat="38.1069630" lon="-3.8102730">
        <ele>321.0</ele>
        <time>2018-04-28T09:29:34Z</time>
      </trkpt>
      <trkpt lat="38.1070180" lon="-3.8102510">
        <ele>321.2</ele>
        <time>2018-04-28T09:29:35Z</time>
      </trkpt>
      <trkpt lat="38.1070730" lon="-3.8102300">
        <ele>321.0</ele>
        <time>2018-04-28T09:29:36Z</time>
      </trkpt>
      <trkpt lat="38.1071280" lon="-3.8102080">
        <ele>321.0</ele>
        <time>2018-04-28T09:29:37Z</time>
      </trkpt>
      <trkpt lat="38.1071820" lon="-3.8101850">
        <ele>321.0</ele>
        <time>2018-04-28T09:29:38Z</time>
      </trkpt>
      <trkpt lat="38.1072370" lon="-3.8101630">
        <ele>320.8</ele>
        <time>2018-04-28T09:29:39Z</time>
      </trkpt>
      <trkpt lat="38.1072930" lon="-3.8101410">
        <ele>321.0</ele>
        <time>2018-04-28T09:29:40Z</time>
      </trkpt>
      <trkpt lat="38.1073500" lon="-3.8101190">
        <ele>321.2</ele>
        <time>2018-04-28T09:29:41Z</time>
      </trkpt>
      <trkpt lat="38.1074060" lon="-3.8100960">
        <ele>321.2</ele>
        <time>2018-04-28T09:29:42Z</time>
      </trkpt>
      <trkpt lat="38.1074630" lon="-3.8100710">
        <ele>321.4</ele>
        <time>2018-04-28T09:29:43Z</time>
      </trkpt>
      <trkpt lat="38.1075200" lon="-3.8100480">
        <ele>321.6</ele>
        <time>2018-04-28T09:29:44Z</time>
      </trkpt>
      <trkpt lat="38.1075790" lon="-3.8100240">
        <ele>321.6</ele>
        <time>2018-04-28T09:29:45Z</time>
      </trkpt>
      <trkpt lat="38.1076360" lon="-3.8099980">
        <ele>321.6</ele>
        <time>2018-04-28T09:29:46Z</time>
      </trkpt>
      <trkpt lat="38.1076950" lon="-3.8099730">
        <ele>321.6</ele>
        <time>2018-04-28T09:29:47Z</time>
      </trkpt>
      <trkpt lat="38.1077540" lon="-3.8099470">
        <ele>321.6</ele>
        <time>2018-04-28T09:29:48Z</time>
      </trkpt>
      <trkpt lat="38.1078120" lon="-3.8099230">
        <ele>321.6</ele>
        <time>2018-04-28T09:29:49Z</time>
      </trkpt>
      <trkpt lat="38.1078720" lon="-3.8098980">
        <ele>321.6</ele>
        <time>2018-04-28T09:29:50Z</time>
      </trkpt>
      <trkpt lat="38.1079320" lon="-3.8098720">
        <ele>321.6</ele>
        <time>2018-04-28T09:29:51Z</time>
      </trkpt>
      <trkpt lat="38.1079920" lon="-3.8098450">
        <ele>321.6</ele>
        <time>2018-04-28T09:29:52Z</time>
      </trkpt>
      <trkpt lat="38.1080530" lon="-3.8098200">
        <ele>321.4</ele>
        <time>2018-04-28T09:29:53Z</time>
      </trkpt>
      <trkpt lat="38.1081150" lon="-3.8097950">
        <ele>321.6</ele>
        <time>2018-04-28T09:29:54Z</time>
      </trkpt>
      <trkpt lat="38.1081770" lon="-3.8097710">
        <ele>321.6</ele>
        <time>2018-04-28T09:29:55Z</time>
      </trkpt>
      <trkpt lat="38.1082380" lon="-3.8097480">
        <ele>321.6</ele>
        <time>2018-04-28T09:29:56Z</time>
      </trkpt>
      <trkpt lat="38.1082990" lon="-3.8097250">
        <ele>321.6</ele>
        <time>2018-04-28T09:29:57Z</time>
      </trkpt>
      <trkpt lat="38.1083590" lon="-3.8097040">
        <ele>321.8</ele>
        <time>2018-04-28T09:29:58Z</time>
      </trkpt>
      <trkpt lat="38.1084200" lon="-3.8096810">
        <ele>321.6</ele>
        <time>2018-04-28T09:29:59Z</time>
      </trkpt>
      <trkpt lat="38.1084790" lon="-3.8096550">
        <ele>321.6</ele>
        <time>2018-04-28T09:30:00Z</time>
      </trkpt>
      <trkpt lat="38.1085390" lon="-3.8096280">
        <ele>321.6</ele>
        <time>2018-04-28T09:30:01Z</time>
      </trkpt>
      <trkpt lat="38.1086000" lon="-3.8096000">
        <ele>321.8</ele>
        <time>2018-04-28T09:30:02Z</time>
      </trkpt>
      <trkpt lat="38.1086590" lon="-3.8095720">
        <ele>321.6</ele>
        <time>2018-04-28T09:30:03Z</time>
      </trkpt>
      <trkpt lat="38.1087160" lon="-3.8095430">
        <ele>321.8</ele>
        <time>2018-04-28T09:30:04Z</time>
      </trkpt>
      <trkpt lat="38.1087750" lon="-3.8095150">
        <ele>321.8</ele>
        <time>2018-04-28T09:30:05Z</time>
      </trkpt>
      <trkpt lat="38.1088330" lon="-3.8094890">
        <ele>321.8</ele>
        <time>2018-04-28T09:30:06Z</time>
      </trkpt>
      <trkpt lat="38.1088930" lon="-3.8094630">
        <ele>321.8</ele>
        <time>2018-04-28T09:30:07Z</time>
      </trkpt>
      <trkpt lat="38.1089530" lon="-3.8094390">
        <ele>321.8</ele>
        <time>2018-04-28T09:30:08Z</time>
      </trkpt>
      <trkpt lat="38.1090130" lon="-3.8094150">
        <ele>321.8</ele>
        <time>2018-04-28T09:30:09Z</time>
      </trkpt>
      <trkpt lat="38.1090720" lon="-3.8093910">
        <ele>321.8</ele>
        <time>2018-04-28T09:30:10Z</time>
      </trkpt>
      <trkpt lat="38.1091320" lon="-3.8093660">
        <ele>321.8</ele>
        <time>2018-04-28T09:30:11Z</time>
      </trkpt>
      <trkpt lat="38.1091920" lon="-3.8093410">
        <ele>322.0</ele>
        <time>2018-04-28T09:30:12Z</time>
      </trkpt>
      <trkpt lat="38.1092490" lon="-3.8093190">
        <ele>322.2</ele>
        <time>2018-04-28T09:30:13Z</time>
      </trkpt>
      <trkpt lat="38.1093080" lon="-3.8092970">
        <ele>322.4</ele>
        <time>2018-04-28T09:30:14Z</time>
      </trkpt>
      <trkpt lat="38.1093650" lon="-3.8092740">
        <ele>322.4</ele>
        <time>2018-04-28T09:30:15Z</time>
      </trkpt>
      <trkpt lat="38.1094220" lon="-3.8092490">
        <ele>322.6</ele>
        <time>2018-04-28T09:30:16Z</time>
      </trkpt>
      <trkpt lat="38.1094800" lon="-3.8092270">
        <ele>322.6</ele>
        <time>2018-04-28T09:30:17Z</time>
      </trkpt>
      <trkpt lat="38.1095380" lon="-3.8092050">
        <ele>322.8</ele>
        <time>2018-04-28T09:30:18Z</time>
      </trkpt>
      <trkpt lat="38.1095960" lon="-3.8091810">
        <ele>322.8</ele>
        <time>2018-04-28T09:30:19Z</time>
      </trkpt>
      <trkpt lat="38.1096530" lon="-3.8091600">
        <ele>323.0</ele>
        <time>2018-04-28T09:30:20Z</time>
      </trkpt>
      <trkpt lat="38.1097090" lon="-3.8091390">
        <ele>323.2</ele>
        <time>2018-04-28T09:30:21Z</time>
      </trkpt>
      <trkpt lat="38.1097630" lon="-3.8091160">
        <ele>323.4</ele>
        <time>2018-04-28T09:30:22Z</time>
      </trkpt>
      <trkpt lat="38.1098170" lon="-3.8090940">
        <ele>323.4</ele>
        <time>2018-04-28T09:30:23Z</time>
      </trkpt>
      <trkpt lat="38.1098720" lon="-3.8090710">
        <ele>323.6</ele>
        <time>2018-04-28T09:30:24Z</time>
      </trkpt>
      <trkpt lat="38.1099260" lon="-3.8090490">
        <ele>323.4</ele>
        <time>2018-04-28T09:30:25Z</time>
      </trkpt>
      <trkpt lat="38.1099810" lon="-3.8090260">
        <ele>323.6</ele>
        <time>2018-04-28T09:30:26Z</time>
      </trkpt>
      <trkpt lat="38.1100360" lon="-3.8090040">
        <ele>323.6</ele>
        <time>2018-04-28T09:30:27Z</time>
      </trkpt>
      <trkpt lat="38.1100910" lon="-3.8089830">
        <ele>323.4</ele>
        <time>2018-04-28T09:30:28Z</time>
      </trkpt>
      <trkpt lat="38.1101450" lon="-3.8089620">
        <ele>323.6</ele>
        <time>2018-04-28T09:30:29Z</time>
      </trkpt>
      <trkpt lat="38.1102000" lon="-3.8089410">
        <ele>323.6</ele>
        <time>2018-04-28T09:30:30Z</time>
      </trkpt>
      <trkpt lat="38.1102550" lon="-3.8089270">
        <ele>323.6</ele>
        <time>2018-04-28T09:30:31Z</time>
      </trkpt>
      <trkpt lat="38.1103080" lon="-3.8089050">
        <ele>323.8</ele>
        <time>2018-04-28T09:30:32Z</time>
      </trkpt>
      <trkpt lat="38.1103580" lon="-3.8088820">
        <ele>323.8</ele>
        <time>2018-04-28T09:30:33Z</time>
      </trkpt>
      <trkpt lat="38.1104070" lon="-3.8088630">
        <ele>323.8</ele>
        <time>2018-04-28T09:30:34Z</time>
      </trkpt>
      <trkpt lat="38.1104560" lon="-3.8088440">
        <ele>323.8</ele>
        <time>2018-04-28T09:30:35Z</time>
      </trkpt>
      <trkpt lat="38.1105050" lon="-3.8088250">
        <ele>323.8</ele>
        <time>2018-04-28T09:30:36Z</time>
      </trkpt>
      <trkpt lat="38.1105550" lon="-3.8088030">
        <ele>323.8</ele>
        <time>2018-04-28T09:30:37Z</time>
      </trkpt>
      <trkpt lat="38.1106050" lon="-3.8087800">
        <ele>323.8</ele>
        <time>2018-04-28T09:30:38Z</time>
      </trkpt>
      <trkpt lat="38.1106560" lon="-3.8087580">
        <ele>323.8</ele>
        <time>2018-04-28T09:30:39Z</time>
      </trkpt>
      <trkpt lat="38.1107060" lon="-3.8087380">
        <ele>324.0</ele>
        <time>2018-04-28T09:30:40Z</time>
      </trkpt>
      <trkpt lat="38.1107560" lon="-3.8087160">
        <ele>324.0</ele>
        <time>2018-04-28T09:30:41Z</time>
      </trkpt>
      <trkpt lat="38.1108050" lon="-3.8086940">
        <ele>324.2</ele>
        <time>2018-04-28T09:30:42Z</time>
      </trkpt>
      <trkpt lat="38.1108520" lon="-3.8086750">
        <ele>324.0</ele>
        <time>2018-04-28T09:30:43Z</time>
      </trkpt>
      <trkpt lat="38.1109000" lon="-3.8086560">
        <ele>324.0</ele>
        <time>2018-04-28T09:30:44Z</time>
      </trkpt>
      <trkpt lat="38.1109520" lon="-3.8086380">
        <ele>324.2</ele>
        <time>2018-04-28T09:30:45Z</time>
      </trkpt>
      <trkpt lat="38.1110040" lon="-3.8086170">
        <ele>324.2</ele>
        <time>2018-04-28T09:30:46Z</time>
      </trkpt>
      <trkpt lat="38.1110620" lon="-3.8085970">
        <ele>324.4</ele>
        <time>2018-04-28T09:30:47Z</time>
      </trkpt>
      <trkpt lat="38.1111230" lon="-3.8085750">
        <ele>324.4</ele>
        <time>2018-04-28T09:30:48Z</time>
      </trkpt>
      <trkpt lat="38.1111860" lon="-3.8085530">
        <ele>324.4</ele>
        <time>2018-04-28T09:30:49Z</time>
      </trkpt>
      <trkpt lat="38.1112500" lon="-3.8085250">
        <ele>324.8</ele>
        <time>2018-04-28T09:30:50Z</time>
      </trkpt>
      <trkpt lat="38.1113150" lon="-3.8084900">
        <ele>324.8</ele>
        <time>2018-04-28T09:30:51Z</time>
      </trkpt>
      <trkpt lat="38.1113800" lon="-3.8084560">
        <ele>324.8</ele>
        <time>2018-04-28T09:30:52Z</time>
      </trkpt>
      <trkpt lat="38.1114460" lon="-3.8084220">
        <ele>324.8</ele>
        <time>2018-04-28T09:30:53Z</time>
      </trkpt>
      <trkpt lat="38.1115130" lon="-3.8083900">
        <ele>325.0</ele>
        <time>2018-04-28T09:30:54Z</time>
      </trkpt>
      <trkpt lat="38.1115800" lon="-3.8083570">
        <ele>325.2</ele>
        <time>2018-04-28T09:30:55Z</time>
      </trkpt>
      <trkpt lat="38.1116440" lon="-3.8083210">
        <ele>325.4</ele>
        <time>2018-04-28T09:30:56Z</time>
      </trkpt>
      <trkpt lat="38.1117050" lon="-3.8082810">
        <ele>325.4</ele>
        <time>2018-04-28T09:30:57Z</time>
      </trkpt>
      <trkpt lat="38.1117640" lon="-3.8082400">
        <ele>325.2</ele>
        <time>2018-04-28T09:30:58Z</time>
      </trkpt>
      <trkpt lat="38.1118190" lon="-3.8081980">
        <ele>325.4</ele>
        <time>2018-04-28T09:30:59Z</time>
      </trkpt>
      <trkpt lat="38.1118710" lon="-3.8081560">
        <ele>325.4</ele>
        <time>2018-04-28T09:31:00Z</time>
      </trkpt>
      <trkpt lat="38.1119230" lon="-3.8081110">
        <ele>325.6</ele>
        <time>2018-04-28T09:31:01Z</time>
      </trkpt>
      <trkpt lat="38.1119780" lon="-3.8080720">
        <ele>325.6</ele>
        <time>2018-04-28T09:31:02Z</time>
      </trkpt>
      <trkpt lat="38.1120330" lon="-3.8080350">
        <ele>325.6</ele>
        <time>2018-04-28T09:31:03Z</time>
      </trkpt>
      <trkpt lat="38.1120880" lon="-3.8079970">
        <ele>326.0</ele>
        <time>2018-04-28T09:31:04Z</time>
      </trkpt>
      <trkpt lat="38.1121430" lon="-3.8079570">
        <ele>326.0</ele>
        <time>2018-04-28T09:31:05Z</time>
      </trkpt>
      <trkpt lat="38.1122010" lon="-3.8079170">
        <ele>326.0</ele>
        <time>2018-04-28T09:31:06Z</time>
      </trkpt>
      <trkpt lat="38.1122580" lon="-3.8078760">
        <ele>326.2</ele>
        <time>2018-04-28T09:31:07Z</time>
      </trkpt>
      <trkpt lat="38.1123150" lon="-3.8078340">
        <ele>326.2</ele>
        <time>2018-04-28T09:31:08Z</time>
      </trkpt>
      <trkpt lat="38.1123740" lon="-3.8077940">
        <ele>326.2</ele>
        <time>2018-04-28T09:31:09Z</time>
      </trkpt>
      <trkpt lat="38.1124330" lon="-3.8077570">
        <ele>326.4</ele>
        <time>2018-04-28T09:31:10Z</time>
      </trkpt>
      <trkpt lat="38.1124910" lon="-3.8077170">
        <ele>326.4</ele>
        <time>2018-04-28T09:31:11Z</time>
      </trkpt>
      <trkpt lat="38.1125500" lon="-3.8076780">
        <ele>326.4</ele>
        <time>2018-04-28T09:31:12Z</time>
      </trkpt>
      <trkpt lat="38.1126080" lon="-3.8076380">
        <ele>326.4</ele>
        <time>2018-04-28T09:31:13Z</time>
      </trkpt>
      <trkpt lat="38.1126680" lon="-3.8076010">
        <ele>326.8</ele>
        <time>2018-04-28T09:31:14Z</time>
      </trkpt>
      <trkpt lat="38.1127310" lon="-3.8075660">
        <ele>326.6</ele>
        <time>2018-04-28T09:31:15Z</time>
      </trkpt>
      <trkpt lat="38.1127930" lon="-3.8075340">
        <ele>326.8</ele>
        <time>2018-04-28T09:31:16Z</time>
      </trkpt>
      <trkpt lat="38.1128540" lon="-3.8075060">
        <ele>326.6</ele>
        <time>2018-04-28T09:31:17Z</time>
      </trkpt>
      <trkpt lat="38.1129150" lon="-3.8074790">
        <ele>326.8</ele>
        <time>2018-04-28T09:31:18Z</time>
      </trkpt>
      <trkpt lat="38.1129750" lon="-3.8074560">
        <ele>326.6</ele>
        <time>2018-04-28T09:31:19Z</time>
      </trkpt>
      <trkpt lat="38.1130350" lon="-3.8074330">
        <ele>326.6</ele>
        <time>2018-04-28T09:31:20Z</time>
      </trkpt>
      <trkpt lat="38.1130970" lon="-3.8074090">
        <ele>326.8</ele>
        <time>2018-04-28T09:31:21Z</time>
      </trkpt>
      <trkpt lat="38.1131590" lon="-3.8073900">
        <ele>327.0</ele>
        <time>2018-04-28T09:31:22Z</time>
      </trkpt>
      <trkpt lat="38.1132210" lon="-3.8073730">
        <ele>327.0</ele>
        <time>2018-04-28T09:31:23Z</time>
      </trkpt>
      <trkpt lat="38.1132830" lon="-3.8073590">
        <ele>326.8</ele>
        <time>2018-04-28T09:31:24Z</time>
      </trkpt>
      <trkpt lat="38.1133450" lon="-3.8073480">
        <ele>327.0</ele>
        <time>2018-04-28T09:31:25Z</time>
      </trkpt>
      <trkpt lat="38.1134070" lon="-3.8073380">
        <ele>327.0</ele>
        <time>2018-04-28T09:31:26Z</time>
      </trkpt>
      <trkpt lat="38.1134680" lon="-3.8073280">
        <ele>327.2</ele>
        <time>2018-04-28T09:31:27Z</time>
      </trkpt>
      <trkpt lat="38.1135300" lon="-3.8073170">
        <ele>327.0</ele>
        <time>2018-04-28T09:31:28Z</time>
      </trkpt>
      <trkpt lat="38.1135910" lon="-3.8073050">
        <ele>327.0</ele>
        <time>2018-04-28T09:31:29Z</time>
      </trkpt>
      <trkpt lat="38.1136530" lon="-3.8072940">
        <ele>327.4</ele>
        <time>2018-04-28T09:31:30Z</time>
      </trkpt>
      <trkpt lat="38.1137140" lon="-3.8072840">
        <ele>327.4</ele>
        <time>2018-04-28T09:31:31Z</time>
      </trkpt>
      <trkpt lat="38.1137740" lon="-3.8072720">
        <ele>327.4</ele>
        <time>2018-04-28T09:31:32Z</time>
      </trkpt>
      <trkpt lat="38.1138340" lon="-3.8072530">
        <ele>327.4</ele>
        <time>2018-04-28T09:31:33Z</time>
      </trkpt>
      <trkpt lat="38.1138930" lon="-3.8072310">
        <ele>327.4</ele>
        <time>2018-04-28T09:31:34Z</time>
      </trkpt>
      <trkpt lat="38.1139530" lon="-3.8072050">
        <ele>327.6</ele>
        <time>2018-04-28T09:31:35Z</time>
      </trkpt>
      <trkpt lat="38.1140100" lon="-3.8071810">
        <ele>327.8</ele>
        <time>2018-04-28T09:31:36Z</time>
      </trkpt>
      <trkpt lat="38.1140670" lon="-3.8071560">
        <ele>327.8</ele>
        <time>2018-04-28T09:31:37Z</time>
      </trkpt>
      <trkpt lat="38.1141220" lon="-3.8071300">
        <ele>327.8</ele>
        <time>2018-04-28T09:31:38Z</time>
      </trkpt>
      <trkpt lat="38.1141770" lon="-3.8071070">
        <ele>328.0</ele>
        <time>2018-04-28T09:31:39Z</time>
      </trkpt>
      <trkpt lat="38.1142310" lon="-3.8070830">
        <ele>328.4</ele>
        <time>2018-04-28T09:31:40Z</time>
      </trkpt>
      <trkpt lat="38.1142830" lon="-3.8070590">
        <ele>328.6</ele>
        <time>2018-04-28T09:31:41Z</time>
      </trkpt>
      <trkpt lat="38.1143330" lon="-3.8070360">
        <ele>328.6</ele>
        <time>2018-04-28T09:31:42Z</time>
      </trkpt>
      <trkpt lat="38.1143830" lon="-3.8070140">
        <ele>328.8</ele>
        <time>2018-04-28T09:31:43Z</time>
      </trkpt>
      <trkpt lat="38.1144330" lon="-3.8069910">
        <ele>328.8</ele>
        <time>2018-04-28T09:31:44Z</time>
      </trkpt>
      <trkpt lat="38.1144830" lon="-3.8069670">
        <ele>329.0</ele>
        <time>2018-04-28T09:31:45Z</time>
      </trkpt>
      <trkpt lat="38.1145340" lon="-3.8069440">
        <ele>329.0</ele>
        <time>2018-04-28T09:31:46Z</time>
      </trkpt>
      <trkpt lat="38.1145840" lon="-3.8069200">
        <ele>329.0</ele>
        <time>2018-04-28T09:31:47Z</time>
      </trkpt>
      <trkpt lat="38.1146340" lon="-3.8068930">
        <ele>329.0</ele>
        <time>2018-04-28T09:31:48Z</time>
      </trkpt>
      <trkpt lat="38.1146850" lon="-3.8068640">
        <ele>329.2</ele>
        <time>2018-04-28T09:31:49Z</time>
      </trkpt>
      <trkpt lat="38.1147350" lon="-3.8068340">
        <ele>329.2</ele>
        <time>2018-04-28T09:31:50Z</time>
      </trkpt>
      <trkpt lat="38.1147850" lon="-3.8068020">
        <ele>329.4</ele>
        <time>2018-04-28T09:31:51Z</time>
      </trkpt>
      <trkpt lat="38.1148340" lon="-3.8067700">
        <ele>329.4</ele>
        <time>2018-04-28T09:31:52Z</time>
      </trkpt>
      <trkpt lat="38.1148840" lon="-3.8067380">
        <ele>329.6</ele>
        <time>2018-04-28T09:31:53Z</time>
      </trkpt>
      <trkpt lat="38.1149340" lon="-3.8067040">
        <ele>329.4</ele>
        <time>2018-04-28T09:31:54Z</time>
      </trkpt>
      <trkpt lat="38.1150360" lon="-3.8066340">
        <ele>329.6</ele>
        <time>2018-04-28T09:31:55Z</time>
      </trkpt>
      <trkpt lat="38.1150620" lon="-3.8066160">
        <ele>329.8</ele>
        <time>2018-04-28T09:31:56Z</time>
      </trkpt>
      <trkpt lat="38.1150870" lon="-3.8065980">
        <ele>329.8</ele>
        <time>2018-04-28T09:31:57Z</time>
      </trkpt>
      <trkpt lat="38.1151380" lon="-3.8065620">
        <ele>329.8</ele>
        <time>2018-04-28T09:31:58Z</time>
      </trkpt>
      <trkpt lat="38.1151890" lon="-3.8065250">
        <ele>329.8</ele>
        <time>2018-04-28T09:31:59Z</time>
      </trkpt>
      <trkpt lat="38.1152420" lon="-3.8064870">
        <ele>330.0</ele>
        <time>2018-04-28T09:32:00Z</time>
      </trkpt>
      <trkpt lat="38.1152960" lon="-3.8064510">
        <ele>330.0</ele>
        <time>2018-04-28T09:32:01Z</time>
      </trkpt>
      <trkpt lat="38.1153510" lon="-3.8064120">
        <ele>330.2</ele>
        <time>2018-04-28T09:32:02Z</time>
      </trkpt>
      <trkpt lat="38.1154070" lon="-3.8063710">
        <ele>330.0</ele>
        <time>2018-04-28T09:32:03Z</time>
      </trkpt>
      <trkpt lat="38.1154640" lon="-3.8063280">
        <ele>329.8</ele>
        <time>2018-04-28T09:32:04Z</time>
      </trkpt>
      <trkpt lat="38.1155240" lon="-3.8062860">
        <ele>329.8</ele>
        <time>2018-04-28T09:32:05Z</time>
      </trkpt>
      <trkpt lat="38.1155860" lon="-3.8062440">
        <ele>329.8</ele>
        <time>2018-04-28T09:32:06Z</time>
      </trkpt>
      <trkpt lat="38.1156500" lon="-3.8062030">
        <ele>329.6</ele>
        <time>2018-04-28T09:32:07Z</time>
      </trkpt>
      <trkpt lat="38.1157140" lon="-3.8061620">
        <ele>329.4</ele>
        <time>2018-04-28T09:32:08Z</time>
      </trkpt>
      <trkpt lat="38.1157790" lon="-3.8061200">
        <ele>329.6</ele>
        <time>2018-04-28T09:32:09Z</time>
      </trkpt>
      <trkpt lat="38.1158410" lon="-3.8060790">
        <ele>329.2</ele>
        <time>2018-04-28T09:32:10Z</time>
      </trkpt>
      <trkpt lat="38.1159020" lon="-3.8060360">
        <ele>329.6</ele>
        <time>2018-04-28T09:32:11Z</time>
      </trkpt>
      <trkpt lat="38.1159610" lon="-3.8059920">
        <ele>329.4</ele>
        <time>2018-04-28T09:32:12Z</time>
      </trkpt>
      <trkpt lat="38.1160190" lon="-3.8059470">
        <ele>329.4</ele>
        <time>2018-04-28T09:32:13Z</time>
      </trkpt>
      <trkpt lat="38.1160780" lon="-3.8059040">
        <ele>329.6</ele>
        <time>2018-04-28T09:32:14Z</time>
      </trkpt>
      <trkpt lat="38.1161370" lon="-3.8058640">
        <ele>329.6</ele>
        <time>2018-04-28T09:32:15Z</time>
      </trkpt>
      <trkpt lat="38.1162550" lon="-3.8057990">
        <ele>329.6</ele>
        <time>2018-04-28T09:32:16Z</time>
      </trkpt>
      <trkpt lat="38.1163160" lon="-3.8057720">
        <ele>329.4</ele>
        <time>2018-04-28T09:32:17Z</time>
      </trkpt>
      <trkpt lat="38.1163770" lon="-3.8057490">
        <ele>329.6</ele>
        <time>2018-04-28T09:32:18Z</time>
      </trkpt>
      <trkpt lat="38.1164090" lon="-3.8057370">
        <ele>329.8</ele>
        <time>2018-04-28T09:32:19Z</time>
      </trkpt>
      <trkpt lat="38.1164400" lon="-3.8057250">
        <ele>330.0</ele>
        <time>2018-04-28T09:32:20Z</time>
      </trkpt>
      <trkpt lat="38.1165030" lon="-3.8057000">
        <ele>329.8</ele>
        <time>2018-04-28T09:32:21Z</time>
      </trkpt>
      <trkpt lat="38.1165680" lon="-3.8056780">
        <ele>329.8</ele>
        <time>2018-04-28T09:32:22Z</time>
      </trkpt>
      <trkpt lat="38.1166350" lon="-3.8056600">
        <ele>329.8</ele>
        <time>2018-04-28T09:32:23Z</time>
      </trkpt>
      <trkpt lat="38.1167020" lon="-3.8056430">
        <ele>329.8</ele>
        <time>2018-04-28T09:32:24Z</time>
      </trkpt>
      <trkpt lat="38.1167710" lon="-3.8056240">
        <ele>329.8</ele>
        <time>2018-04-28T09:32:25Z</time>
      </trkpt>
      <trkpt lat="38.1168400" lon="-3.8056050">
        <ele>329.8</ele>
        <time>2018-04-28T09:32:26Z</time>
      </trkpt>
      <trkpt lat="38.1169100" lon="-3.8055840">
        <ele>329.8</ele>
        <time>2018-04-28T09:32:27Z</time>
      </trkpt>
      <trkpt lat="38.1169800" lon="-3.8055660">
        <ele>329.4</ele>
        <time>2018-04-28T09:32:28Z</time>
      </trkpt>
      <trkpt lat="38.1170490" lon="-3.8055470">
        <ele>329.4</ele>
        <time>2018-04-28T09:32:29Z</time>
      </trkpt>
      <trkpt lat="38.1171170" lon="-3.8055300">
        <ele>329.4</ele>
        <time>2018-04-28T09:32:30Z</time>
      </trkpt>
      <trkpt lat="38.1171860" lon="-3.8055130">
        <ele>329.0</ele>
        <time>2018-04-28T09:32:31Z</time>
      </trkpt>
      <trkpt lat="38.1172530" lon="-3.8054920">
        <ele>329.0</ele>
        <time>2018-04-28T09:32:32Z</time>
      </trkpt>
      <trkpt lat="38.1173210" lon="-3.8054720">
        <ele>329.0</ele>
        <time>2018-04-28T09:32:33Z</time>
      </trkpt>
      <trkpt lat="38.1173890" lon="-3.8054460">
        <ele>328.8</ele>
        <time>2018-04-28T09:32:34Z</time>
      </trkpt>
      <trkpt lat="38.1174580" lon="-3.8054160">
        <ele>328.8</ele>
        <time>2018-04-28T09:32:35Z</time>
      </trkpt>
      <trkpt lat="38.1175260" lon="-3.8053850">
        <ele>328.6</ele>
        <time>2018-04-28T09:32:36Z</time>
      </trkpt>
      <trkpt lat="38.1176660" lon="-3.8053300">
        <ele>328.6</ele>
        <time>2018-04-28T09:32:37Z</time>
      </trkpt>
      <trkpt lat="38.1177360" lon="-3.8053020">
        <ele>328.4</ele>
        <time>2018-04-28T09:32:38Z</time>
      </trkpt>
      <trkpt lat="38.1177720" lon="-3.8052880">
        <ele>328.2</ele>
        <time>2018-04-28T09:32:39Z</time>
      </trkpt>
      <trkpt lat="38.1178070" lon="-3.8052730">
        <ele>328.2</ele>
        <time>2018-04-28T09:32:40Z</time>
      </trkpt>
      <trkpt lat="38.1178780" lon="-3.8052460">
        <ele>328.0</ele>
        <time>2018-04-28T09:32:41Z</time>
      </trkpt>
      <trkpt lat="38.1179500" lon="-3.8052220">
        <ele>328.0</ele>
        <time>2018-04-28T09:32:42Z</time>
      </trkpt>
      <trkpt lat="38.1180220" lon="-3.8051990">
        <ele>327.8</ele>
        <time>2018-04-28T09:32:43Z</time>
      </trkpt>
      <trkpt lat="38.1181670" lon="-3.8051590">
        <ele>327.8</ele>
        <time>2018-04-28T09:32:44Z</time>
      </trkpt>
      <trkpt lat="38.1182400" lon="-3.8051400">
        <ele>327.8</ele>
        <time>2018-04-28T09:32:45Z</time>
      </trkpt>
      <trkpt lat="38.1183150" lon="-3.8051210">
        <ele>327.4</ele>
        <time>2018-04-28T09:32:46Z</time>
      </trkpt>
      <trkpt lat="38.1183910" lon="-3.8051000">
        <ele>327.2</ele>
        <time>2018-04-28T09:32:47Z</time>
      </trkpt>
      <trkpt lat="38.1184690" lon="-3.8050780">
        <ele>327.0</ele>
        <time>2018-04-28T09:32:48Z</time>
      </trkpt>
      <trkpt lat="38.1185090" lon="-3.8050680">
        <ele>326.6</ele>
        <time>2018-04-28T09:32:49Z</time>
      </trkpt>
      <trkpt lat="38.1185480" lon="-3.8050570">
        <ele>326.4</ele>
        <time>2018-04-28T09:32:50Z</time>
      </trkpt>
      <trkpt lat="38.1186280" lon="-3.8050340">
        <ele>326.2</ele>
        <time>2018-04-28T09:32:51Z</time>
      </trkpt>
      <trkpt lat="38.1187100" lon="-3.8050070">
        <ele>325.8</ele>
        <time>2018-04-28T09:32:52Z</time>
      </trkpt>
      <trkpt lat="38.1187940" lon="-3.8049790">
        <ele>325.8</ele>
        <time>2018-04-28T09:32:53Z</time>
      </trkpt>
      <trkpt lat="38.1188780" lon="-3.8049510">
        <ele>325.6</ele>
        <time>2018-04-28T09:32:54Z</time>
      </trkpt>
      <trkpt lat="38.1189630" lon="-3.8049240">
        <ele>325.8</ele>
        <time>2018-04-28T09:32:55Z</time>
      </trkpt>
      <trkpt lat="38.1190470" lon="-3.8048930">
        <ele>325.8</ele>
        <time>2018-04-28T09:32:56Z</time>
      </trkpt>
      <trkpt lat="38.1191300" lon="-3.8048580">
        <ele>325.2</ele>
        <time>2018-04-28T09:32:57Z</time>
      </trkpt>
      <trkpt lat="38.1192130" lon="-3.8048250">
        <ele>325.0</ele>
        <time>2018-04-28T09:32:58Z</time>
      </trkpt>
      <trkpt lat="38.1192950" lon="-3.8047950">
        <ele>324.8</ele>
        <time>2018-04-28T09:32:59Z</time>
      </trkpt>
      <trkpt lat="38.1193780" lon="-3.8047680">
        <ele>324.6</ele>
        <time>2018-04-28T09:33:00Z</time>
      </trkpt>
      <trkpt lat="38.1194610" lon="-3.8047430">
        <ele>324.6</ele>
        <time>2018-04-28T09:33:01Z</time>
      </trkpt>
      <trkpt lat="38.1195440" lon="-3.8047170">
        <ele>324.4</ele>
        <time>2018-04-28T09:33:02Z</time>
      </trkpt>
      <trkpt lat="38.1196260" lon="-3.8046930">
        <ele>324.0</ele>
        <time>2018-04-28T09:33:03Z</time>
      </trkpt>
      <trkpt lat="38.1197080" lon="-3.8046730">
        <ele>323.6</ele>
        <time>2018-04-28T09:33:04Z</time>
      </trkpt>
      <trkpt lat="38.1197900" lon="-3.8046550">
        <ele>323.4</ele>
        <time>2018-04-28T09:33:05Z</time>
      </trkpt>
      <trkpt lat="38.1199520" lon="-3.8046170">
        <ele>323.4</ele>
        <time>2018-04-28T09:33:06Z</time>
      </trkpt>
      <trkpt lat="38.1200330" lon="-3.8046050">
        <ele>323.2</ele>
        <time>2018-04-28T09:33:07Z</time>
      </trkpt>
      <trkpt lat="38.1201140" lon="-3.8046000">
        <ele>323.2</ele>
        <time>2018-04-28T09:33:08Z</time>
      </trkpt>
      <trkpt lat="38.1201940" lon="-3.8045950">
        <ele>323.0</ele>
        <time>2018-04-28T09:33:09Z</time>
      </trkpt>
      <trkpt lat="38.1202730" lon="-3.8045890">
        <ele>322.6</ele>
        <time>2018-04-28T09:33:10Z</time>
      </trkpt>
      <trkpt lat="38.1203130" lon="-3.8045870">
        <ele>322.4</ele>
        <time>2018-04-28T09:33:11Z</time>
      </trkpt>
      <trkpt lat="38.1203530" lon="-3.8045840">
        <ele>322.6</ele>
        <time>2018-04-28T09:33:12Z</time>
      </trkpt>
      <trkpt lat="38.1204330" lon="-3.8045810">
        <ele>322.8</ele>
        <time>2018-04-28T09:33:13Z</time>
      </trkpt>
      <trkpt lat="38.1205120" lon="-3.8045780">
        <ele>322.4</ele>
        <time>2018-04-28T09:33:14Z</time>
      </trkpt>
      <trkpt lat="38.1205920" lon="-3.8045710">
        <ele>322.4</ele>
        <time>2018-04-28T09:33:15Z</time>
      </trkpt>
      <trkpt lat="38.1206720" lon="-3.8045600">
        <ele>322.2</ele>
        <time>2018-04-28T09:33:16Z</time>
      </trkpt>
      <trkpt lat="38.1207520" lon="-3.8045440">
        <ele>322.6</ele>
        <time>2018-04-28T09:33:17Z</time>
      </trkpt>
      <trkpt lat="38.1208290" lon="-3.8045220">
        <ele>322.4</ele>
        <time>2018-04-28T09:33:18Z</time>
      </trkpt>
      <trkpt lat="38.1209060" lon="-3.8044950">
        <ele>322.4</ele>
        <time>2018-04-28T09:33:19Z</time>
      </trkpt>
      <trkpt lat="38.1209810" lon="-3.8044620">
        <ele>322.6</ele>
        <time>2018-04-28T09:33:20Z</time>
      </trkpt>
      <trkpt lat="38.1210540" lon="-3.8044290">
        <ele>322.6</ele>
        <time>2018-04-28T09:33:21Z</time>
      </trkpt>
      <trkpt lat="38.1211260" lon="-3.8043960">
        <ele>322.4</ele>
        <time>2018-04-28T09:33:22Z</time>
      </trkpt>
      <trkpt lat="38.1211980" lon="-3.8043650">
        <ele>322.6</ele>
        <time>2018-04-28T09:33:23Z</time>
      </trkpt>
      <trkpt lat="38.1212700" lon="-3.8043360">
        <ele>322.6</ele>
        <time>2018-04-28T09:33:24Z</time>
      </trkpt>
      <trkpt lat="38.1213400" lon="-3.8043070">
        <ele>323.0</ele>
        <time>2018-04-28T09:33:25Z</time>
      </trkpt>
      <trkpt lat="38.1214090" lon="-3.8042810">
        <ele>323.0</ele>
        <time>2018-04-28T09:33:26Z</time>
      </trkpt>
      <trkpt lat="38.1214760" lon="-3.8042580">
        <ele>323.2</ele>
        <time>2018-04-28T09:33:27Z</time>
      </trkpt>
      <trkpt lat="38.1215400" lon="-3.8042360">
        <ele>323.8</ele>
        <time>2018-04-28T09:33:28Z</time>
      </trkpt>
      <trkpt lat="38.1216010" lon="-3.8042170">
        <ele>324.0</ele>
        <time>2018-04-28T09:33:29Z</time>
      </trkpt>
      <trkpt lat="38.1216570" lon="-3.8042020">
        <ele>324.2</ele>
        <time>2018-04-28T09:33:30Z</time>
      </trkpt>
      <trkpt lat="38.1217140" lon="-3.8041920">
        <ele>324.8</ele>
        <time>2018-04-28T09:33:31Z</time>
      </trkpt>
      <trkpt lat="38.1218200" lon="-3.8041710">
        <ele>325.2</ele>
        <time>2018-04-28T09:33:32Z</time>
      </trkpt>
      <trkpt lat="38.1218710" lon="-3.8041610">
        <ele>325.4</ele>
        <time>2018-04-28T09:33:33Z</time>
      </trkpt>
      <trkpt lat="38.1218970" lon="-3.8041560">
        <ele>325.8</ele>
        <time>2018-04-28T09:33:34Z</time>
      </trkpt>
      <trkpt lat="38.1219220" lon="-3.8041500">
        <ele>326.0</ele>
        <time>2018-04-28T09:33:35Z</time>
      </trkpt>
      <trkpt lat="38.1219730" lon="-3.8041430">
        <ele>326.2</ele>
        <time>2018-04-28T09:33:36Z</time>
      </trkpt>
      <trkpt lat="38.1220760" lon="-3.8041280">
        <ele>326.4</ele>
        <time>2018-04-28T09:33:37Z</time>
      </trkpt>
      <trkpt lat="38.1221280" lon="-3.8041190">
        <ele>326.6</ele>
        <time>2018-04-28T09:33:38Z</time>
      </trkpt>
      <trkpt lat="38.1221790" lon="-3.8041100">
        <ele>326.8</ele>
        <time>2018-04-28T09:33:39Z</time>
      </trkpt>
      <trkpt lat="38.1222310" lon="-3.8041030">
        <ele>327.0</ele>
        <time>2018-04-28T09:33:40Z</time>
      </trkpt>
      <trkpt lat="38.1222840" lon="-3.8040990">
        <ele>327.2</ele>
        <time>2018-04-28T09:33:41Z</time>
      </trkpt>
      <trkpt lat="38.1223100" lon="-3.8040980">
        <ele>327.0</ele>
        <time>2018-04-28T09:33:42Z</time>
      </trkpt>
      <trkpt lat="38.1223360" lon="-3.8040960">
        <ele>327.0</ele>
        <time>2018-04-28T09:33:43Z</time>
      </trkpt>
      <trkpt lat="38.1223880" lon="-3.8040990">
        <ele>327.0</ele>
        <time>2018-04-28T09:33:44Z</time>
      </trkpt>
      <trkpt lat="38.1224400" lon="-3.8041000">
        <ele>327.0</ele>
        <time>2018-04-28T09:33:45Z</time>
      </trkpt>
      <trkpt lat="38.1224960" lon="-3.8041000">
        <ele>326.8</ele>
        <time>2018-04-28T09:33:46Z</time>
      </trkpt>
      <trkpt lat="38.1225530" lon="-3.8041010">
        <ele>326.4</ele>
        <time>2018-04-28T09:33:47Z</time>
      </trkpt>
      <trkpt lat="38.1226110" lon="-3.8041030">
        <ele>326.6</ele>
        <time>2018-04-28T09:33:48Z</time>
      </trkpt>
      <trkpt lat="38.1226710" lon="-3.8041090">
        <ele>326.6</ele>
        <time>2018-04-28T09:33:49Z</time>
      </trkpt>
      <trkpt lat="38.1227310" lon="-3.8041130">
        <ele>326.4</ele>
        <time>2018-04-28T09:33:50Z</time>
      </trkpt>
      <trkpt lat="38.1227930" lon="-3.8041180">
        <ele>326.4</ele>
        <time>2018-04-28T09:33:51Z</time>
      </trkpt>
      <trkpt lat="38.1228550" lon="-3.8041250">
        <ele>326.4</ele>
        <time>2018-04-28T09:33:52Z</time>
      </trkpt>
      <trkpt lat="38.1229150" lon="-3.8041350">
        <ele>326.4</ele>
        <time>2018-04-28T09:33:53Z</time>
      </trkpt>
      <trkpt lat="38.1229750" lon="-3.8041440">
        <ele>326.6</ele>
        <time>2018-04-28T09:33:54Z</time>
      </trkpt>
      <trkpt lat="38.1230340" lon="-3.8041550">
        <ele>326.6</ele>
        <time>2018-04-28T09:33:55Z</time>
      </trkpt>
      <trkpt lat="38.1230920" lon="-3.8041640">
        <ele>326.6</ele>
        <time>2018-04-28T09:33:56Z</time>
      </trkpt>
      <trkpt lat="38.1231500" lon="-3.8041720">
        <ele>327.2</ele>
        <time>2018-04-28T09:33:57Z</time>
      </trkpt>
      <trkpt lat="38.1232050" lon="-3.8041830">
        <ele>327.0</ele>
        <time>2018-04-28T09:33:58Z</time>
      </trkpt>
      <trkpt lat="38.1232610" lon="-3.8041930">
        <ele>327.4</ele>
        <time>2018-04-28T09:33:59Z</time>
      </trkpt>
      <trkpt lat="38.1233140" lon="-3.8042050">
        <ele>327.6</ele>
        <time>2018-04-28T09:34:00Z</time>
      </trkpt>
      <trkpt lat="38.1233650" lon="-3.8042140">
        <ele>327.6</ele>
        <time>2018-04-28T09:34:01Z</time>
      </trkpt>
      <trkpt lat="38.1234150" lon="-3.8042250">
        <ele>327.8</ele>
        <time>2018-04-28T09:34:02Z</time>
      </trkpt>
      <trkpt lat="38.1234670" lon="-3.8042340">
        <ele>327.8</ele>
        <time>2018-04-28T09:34:03Z</time>
      </trkpt>
      <trkpt lat="38.1235180" lon="-3.8042430">
        <ele>328.4</ele>
        <time>2018-04-28T09:34:04Z</time>
      </trkpt>
      <trkpt lat="38.1235680" lon="-3.8042550">
        <ele>328.4</ele>
        <time>2018-04-28T09:34:05Z</time>
      </trkpt>
      <trkpt lat="38.1236180" lon="-3.8042630">
        <ele>328.6</ele>
        <time>2018-04-28T09:34:06Z</time>
      </trkpt>
      <trkpt lat="38.1237180" lon="-3.8042810">
        <ele>328.4</ele>
        <time>2018-04-28T09:34:07Z</time>
      </trkpt>
      <trkpt lat="38.1237680" lon="-3.8042900">
        <ele>328.4</ele>
        <time>2018-04-28T09:34:08Z</time>
      </trkpt>
      <trkpt lat="38.1238180" lon="-3.8042970">
        <ele>328.6</ele>
        <time>2018-04-28T09:34:09Z</time>
      </trkpt>
      <trkpt lat="38.1238450" lon="-3.8043000">
        <ele>328.6</ele>
        <time>2018-04-28T09:34:10Z</time>
      </trkpt>
      <trkpt lat="38.1238720" lon="-3.8043030">
        <ele>328.4</ele>
        <time>2018-04-28T09:34:11Z</time>
      </trkpt>
      <trkpt lat="38.1239270" lon="-3.8043080">
        <ele>328.4</ele>
        <time>2018-04-28T09:34:12Z</time>
      </trkpt>
      <trkpt lat="38.1239850" lon="-3.8043110">
        <ele>328.2</ele>
        <time>2018-04-28T09:34:13Z</time>
      </trkpt>
      <trkpt lat="38.1240430" lon="-3.8043080">
        <ele>328.0</ele>
        <time>2018-04-28T09:34:14Z</time>
      </trkpt>
      <trkpt lat="38.1241010" lon="-3.8043020">
        <ele>327.8</ele>
        <time>2018-04-28T09:34:15Z</time>
      </trkpt>
      <trkpt lat="38.1241600" lon="-3.8042940">
        <ele>327.6</ele>
        <time>2018-04-28T09:34:16Z</time>
      </trkpt>
      <trkpt lat="38.1242200" lon="-3.8042790">
        <ele>327.4</ele>
        <time>2018-04-28T09:34:17Z</time>
      </trkpt>
      <trkpt lat="38.1242790" lon="-3.8042560">
        <ele>327.0</ele>
        <time>2018-04-28T09:34:18Z</time>
      </trkpt>
      <trkpt lat="38.1243390" lon="-3.8042290">
        <ele>326.8</ele>
        <time>2018-04-28T09:34:19Z</time>
      </trkpt>
      <trkpt lat="38.1243980" lon="-3.8041980">
        <ele>326.6</ele>
        <time>2018-04-28T09:34:20Z</time>
      </trkpt>
      <trkpt lat="38.1244570" lon="-3.8041620">
        <ele>326.4</ele>
        <time>2018-04-28T09:34:21Z</time>
      </trkpt>
      <trkpt lat="38.1245750" lon="-3.8040920">
        <ele>326.4</ele>
        <time>2018-04-28T09:34:22Z</time>
      </trkpt>
      <trkpt lat="38.1246350" lon="-3.8040560">
        <ele>326.2</ele>
        <time>2018-04-28T09:34:23Z</time>
      </trkpt>
      <trkpt lat="38.1246950" lon="-3.8040180">
        <ele>326.0</ele>
        <time>2018-04-28T09:34:24Z</time>
      </trkpt>
      <trkpt lat="38.1247420" lon="-3.8039900">
        <ele>326.0</ele>
        <time>2018-04-28T09:34:25Z</time>
      </trkpt>
      <trkpt lat="38.1247890" lon="-3.8039610">
        <ele>325.8</ele>
        <time>2018-04-28T09:34:26Z</time>
      </trkpt>
      <trkpt lat="38.1248830" lon="-3.8039030">
        <ele>325.6</ele>
        <time>2018-04-28T09:34:27Z</time>
      </trkpt>
      <trkpt lat="38.1249480" lon="-3.8038620">
        <ele>325.2</ele>
        <time>2018-04-28T09:34:28Z</time>
      </trkpt>
      <trkpt lat="38.1249800" lon="-3.8038400">
        <ele>325.2</ele>
        <time>2018-04-28T09:34:29Z</time>
      </trkpt>
      <trkpt lat="38.1250110" lon="-3.8038180">
        <ele>325.0</ele>
        <time>2018-04-28T09:34:30Z</time>
      </trkpt>
      <trkpt lat="38.1251390" lon="-3.8037220">
        <ele>325.0</ele>
        <time>2018-04-28T09:34:31Z</time>
      </trkpt>
      <trkpt lat="38.1252020" lon="-3.8036730">
        <ele>325.0</ele>
        <time>2018-04-28T09:34:32Z</time>
      </trkpt>
      <trkpt lat="38.1252650" lon="-3.8036240">
        <ele>324.8</ele>
        <time>2018-04-28T09:34:33Z</time>
      </trkpt>
      <trkpt lat="38.1253300" lon="-3.8035780">
        <ele>324.8</ele>
        <time>2018-04-28T09:34:34Z</time>
      </trkpt>
      <trkpt lat="38.1253990" lon="-3.8035380">
        <ele>324.6</ele>
        <time>2018-04-28T09:34:35Z</time>
      </trkpt>
      <trkpt lat="38.1254700" lon="-3.8035020">
        <ele>324.4</ele>
        <time>2018-04-28T09:34:36Z</time>
      </trkpt>
      <trkpt lat="38.1255430" lon="-3.8034680">
        <ele>324.4</ele>
        <time>2018-04-28T09:34:37Z</time>
      </trkpt>
      <trkpt lat="38.1256130" lon="-3.8034340">
        <ele>324.2</ele>
        <time>2018-04-28T09:34:38Z</time>
      </trkpt>
      <trkpt lat="38.1256490" lon="-3.8034180">
        <ele>324.0</ele>
        <time>2018-04-28T09:34:39Z</time>
      </trkpt>
      <trkpt lat="38.1256840" lon="-3.8034010">
        <ele>324.0</ele>
        <time>2018-04-28T09:34:40Z</time>
      </trkpt>
      <trkpt lat="38.1257550" lon="-3.8033670">
        <ele>323.8</ele>
        <time>2018-04-28T09:34:41Z</time>
      </trkpt>
      <trkpt lat="38.1258260" lon="-3.8033320">
        <ele>323.8</ele>
        <time>2018-04-28T09:34:42Z</time>
      </trkpt>
      <trkpt lat="38.1258980" lon="-3.8032960">
        <ele>323.4</ele>
        <time>2018-04-28T09:34:43Z</time>
      </trkpt>
      <trkpt lat="38.1259720" lon="-3.8032610">
        <ele>323.4</ele>
        <time>2018-04-28T09:34:44Z</time>
      </trkpt>
      <trkpt lat="38.1260470" lon="-3.8032250">
        <ele>323.4</ele>
        <time>2018-04-28T09:34:45Z</time>
      </trkpt>
      <trkpt lat="38.1261980" lon="-3.8031530">
        <ele>322.8</ele>
        <time>2018-04-28T09:34:46Z</time>
      </trkpt>
      <trkpt lat="38.1262360" lon="-3.8031340">
        <ele>322.8</ele>
        <time>2018-04-28T09:34:47Z</time>
      </trkpt>
      <trkpt lat="38.1262730" lon="-3.8031150">
        <ele>322.6</ele>
        <time>2018-04-28T09:34:48Z</time>
      </trkpt>
      <trkpt lat="38.1263500" lon="-3.8030780">
        <ele>322.2</ele>
        <time>2018-04-28T09:34:49Z</time>
      </trkpt>
      <trkpt lat="38.1265060" lon="-3.8030090">
        <ele>322.2</ele>
        <time>2018-04-28T09:34:50Z</time>
      </trkpt>
      <trkpt lat="38.1265850" lon="-3.8029730">
        <ele>322.0</ele>
        <time>2018-04-28T09:34:51Z</time>
      </trkpt>
      <trkpt lat="38.1266650" lon="-3.8029390">
        <ele>322.0</ele>
        <time>2018-04-28T09:34:52Z</time>
      </trkpt>
      <trkpt lat="38.1267440" lon="-3.8029060">
        <ele>321.8</ele>
        <time>2018-04-28T09:34:53Z</time>
      </trkpt>
      <trkpt lat="38.1268210" lon="-3.8028720">
        <ele>321.6</ele>
        <time>2018-04-28T09:34:54Z</time>
      </trkpt>
      <trkpt lat="38.1268970" lon="-3.8028350">
        <ele>321.4</ele>
        <time>2018-04-28T09:34:55Z</time>
      </trkpt>
      <trkpt lat="38.1269710" lon="-3.8027980">
        <ele>321.2</ele>
        <time>2018-04-28T09:34:56Z</time>
      </trkpt>
      <trkpt lat="38.1270070" lon="-3.8027790">
        <ele>321.2</ele>
        <time>2018-04-28T09:34:57Z</time>
      </trkpt>
      <trkpt lat="38.1270430" lon="-3.8027590">
        <ele>321.2</ele>
        <time>2018-04-28T09:34:58Z</time>
      </trkpt>
      <trkpt lat="38.1271870" lon="-3.8026670">
        <ele>321.2</ele>
        <time>2018-04-28T09:34:59Z</time>
      </trkpt>
      <trkpt lat="38.1272530" lon="-3.8026090">
        <ele>321.2</ele>
        <time>2018-04-28T09:35:00Z</time>
      </trkpt>
      <trkpt lat="38.1273150" lon="-3.8025480">
        <ele>321.0</ele>
        <time>2018-04-28T09:35:01Z</time>
      </trkpt>
      <trkpt lat="38.1273770" lon="-3.8024850">
        <ele>321.0</ele>
        <time>2018-04-28T09:35:02Z</time>
      </trkpt>
      <trkpt lat="38.1274370" lon="-3.8024200">
        <ele>320.8</ele>
        <time>2018-04-28T09:35:03Z</time>
      </trkpt>
      <trkpt lat="38.1274980" lon="-3.8023550">
        <ele>320.8</ele>
        <time>2018-04-28T09:35:04Z</time>
      </trkpt>
      <trkpt lat="38.1275560" lon="-3.8022870">
        <ele>320.8</ele>
        <time>2018-04-28T09:35:05Z</time>
      </trkpt>
      <trkpt lat="38.1276130" lon="-3.8022190">
        <ele>320.8</ele>
        <time>2018-04-28T09:35:06Z</time>
      </trkpt>
      <trkpt lat="38.1276400" lon="-3.8021850">
        <ele>320.8</ele>
        <time>2018-04-28T09:35:07Z</time>
      </trkpt>
      <trkpt lat="38.1276670" lon="-3.8021500">
        <ele>321.0</ele>
        <time>2018-04-28T09:35:08Z</time>
      </trkpt>
      <trkpt lat="38.1277200" lon="-3.8020830">
        <ele>321.0</ele>
        <time>2018-04-28T09:35:09Z</time>
      </trkpt>
      <trkpt lat="38.1277700" lon="-3.8020160">
        <ele>321.0</ele>
        <time>2018-04-28T09:35:10Z</time>
      </trkpt>
      <trkpt lat="38.1278200" lon="-3.8019490">
        <ele>321.2</ele>
        <time>2018-04-28T09:35:11Z</time>
      </trkpt>
      <trkpt lat="38.1279190" lon="-3.8018180">
        <ele>321.4</ele>
        <time>2018-04-28T09:35:12Z</time>
      </trkpt>
      <trkpt lat="38.1279680" lon="-3.8017550">
        <ele>321.6</ele>
        <time>2018-04-28T09:35:13Z</time>
      </trkpt>
      <trkpt lat="38.1280140" lon="-3.8016910">
        <ele>321.4</ele>
        <time>2018-04-28T09:35:14Z</time>
      </trkpt>
      <trkpt lat="38.1280610" lon="-3.8016280">
        <ele>321.6</ele>
        <time>2018-04-28T09:35:15Z</time>
      </trkpt>
      <trkpt lat="38.1281100" lon="-3.8015700">
        <ele>321.8</ele>
        <time>2018-04-28T09:35:16Z</time>
      </trkpt>
      <trkpt lat="38.1281570" lon="-3.8015080">
        <ele>322.0</ele>
        <time>2018-04-28T09:35:17Z</time>
      </trkpt>
      <trkpt lat="38.1282010" lon="-3.8014450">
        <ele>322.0</ele>
        <time>2018-04-28T09:35:18Z</time>
      </trkpt>
      <trkpt lat="38.1282460" lon="-3.8013840">
        <ele>322.2</ele>
        <time>2018-04-28T09:35:19Z</time>
      </trkpt>
      <trkpt lat="38.1282890" lon="-3.8013230">
        <ele>322.2</ele>
        <time>2018-04-28T09:35:20Z</time>
      </trkpt>
      <trkpt lat="38.1283300" lon="-3.8012610">
        <ele>322.4</ele>
        <time>2018-04-28T09:35:21Z</time>
      </trkpt>
      <trkpt lat="38.1283730" lon="-3.8012020">
        <ele>322.6</ele>
        <time>2018-04-28T09:35:22Z</time>
      </trkpt>
      <trkpt lat="38.1284160" lon="-3.8011420">
        <ele>322.6</ele>
        <time>2018-04-28T09:35:23Z</time>
      </trkpt>
      <trkpt lat="38.1284570" lon="-3.8010850">
        <ele>322.6</ele>
        <time>2018-04-28T09:35:24Z</time>
      </trkpt>
      <trkpt lat="38.1285010" lon="-3.8010280">
        <ele>322.6</ele>
        <time>2018-04-28T09:35:25Z</time>
      </trkpt>
      <trkpt lat="38.1285460" lon="-3.8009690">
        <ele>322.8</ele>
        <time>2018-04-28T09:35:26Z</time>
      </trkpt>
      <trkpt lat="38.1285880" lon="-3.8009110">
        <ele>322.8</ele>
        <time>2018-04-28T09:35:27Z</time>
      </trkpt>
      <trkpt lat="38.1286100" lon="-3.8008820">
        <ele>323.0</ele>
        <time>2018-04-28T09:35:28Z</time>
      </trkpt>
      <trkpt lat="38.1286320" lon="-3.8008530">
        <ele>323.0</ele>
        <time>2018-04-28T09:35:29Z</time>
      </trkpt>
      <trkpt lat="38.1286740" lon="-3.8007970">
        <ele>323.0</ele>
        <time>2018-04-28T09:35:30Z</time>
      </trkpt>
      <trkpt lat="38.1287180" lon="-3.8007450">
        <ele>323.0</ele>
        <time>2018-04-28T09:35:31Z</time>
      </trkpt>
      <trkpt lat="38.1287650" lon="-3.8006950">
        <ele>323.0</ele>
        <time>2018-04-28T09:35:32Z</time>
      </trkpt>
      <trkpt lat="38.1288110" lon="-3.8006470">
        <ele>323.0</ele>
        <time>2018-04-28T09:35:33Z</time>
      </trkpt>
      <trkpt lat="38.1288600" lon="-3.8006010">
        <ele>323.0</ele>
        <time>2018-04-28T09:35:34Z</time>
      </trkpt>
      <trkpt lat="38.1289090" lon="-3.8005600">
        <ele>323.0</ele>
        <time>2018-04-28T09:35:35Z</time>
      </trkpt>
      <trkpt lat="38.1289610" lon="-3.8005220">
        <ele>323.0</ele>
        <time>2018-04-28T09:35:36Z</time>
      </trkpt>
      <trkpt lat="38.1290150" lon="-3.8004860">
        <ele>322.8</ele>
        <time>2018-04-28T09:35:37Z</time>
      </trkpt>
      <trkpt lat="38.1290670" lon="-3.8004510">
        <ele>323.0</ele>
        <time>2018-04-28T09:35:38Z</time>
      </trkpt>
      <trkpt lat="38.1291210" lon="-3.8004170">
        <ele>323.0</ele>
        <time>2018-04-28T09:35:39Z</time>
      </trkpt>
      <trkpt lat="38.1291720" lon="-3.8003830">
        <ele>323.0</ele>
        <time>2018-04-28T09:35:40Z</time>
      </trkpt>
      <trkpt lat="38.1292200" lon="-3.8003500">
        <ele>322.8</ele>
        <time>2018-04-28T09:35:41Z</time>
      </trkpt>
      <trkpt lat="38.1292650" lon="-3.8003140">
        <ele>322.4</ele>
        <time>2018-04-28T09:35:42Z</time>
      </trkpt>
      <trkpt lat="38.1293090" lon="-3.8002820">
        <ele>322.6</ele>
        <time>2018-04-28T09:35:43Z</time>
      </trkpt>
      <trkpt lat="38.1293960" lon="-3.8002210">
        <ele>322.6</ele>
        <time>2018-04-28T09:35:44Z</time>
      </trkpt>
      <trkpt lat="38.1294380" lon="-3.8001930">
        <ele>322.6</ele>
        <time>2018-04-28T09:35:45Z</time>
      </trkpt>
      <trkpt lat="38.1294780" lon="-3.8001680">
        <ele>322.4</ele>
        <time>2018-04-28T09:35:46Z</time>
      </trkpt>
      <trkpt lat="38.1295180" lon="-3.8001410">
        <ele>322.8</ele>
        <time>2018-04-28T09:35:47Z</time>
      </trkpt>
      <trkpt lat="38.1295540" lon="-3.8001160">
        <ele>322.8</ele>
        <time>2018-04-28T09:35:48Z</time>
      </trkpt>
      <trkpt lat="38.1295910" lon="-3.8000920">
        <ele>322.6</ele>
        <time>2018-04-28T09:35:49Z</time>
      </trkpt>
      <trkpt lat="38.1296240" lon="-3.8000660">
        <ele>322.6</ele>
        <time>2018-04-28T09:35:50Z</time>
      </trkpt>
      <trkpt lat="38.1296540" lon="-3.8000380">
        <ele>322.8</ele>
        <time>2018-04-28T09:35:51Z</time>
      </trkpt>
      <trkpt lat="38.1296840" lon="-3.8000120">
        <ele>322.8</ele>
        <time>2018-04-28T09:35:52Z</time>
      </trkpt>
      <trkpt lat="38.1297130" lon="-3.7999950">
        <ele>322.8</ele>
        <time>2018-04-28T09:35:53Z</time>
      </trkpt>
      <trkpt lat="38.1297390" lon="-3.7999850">
        <ele>322.8</ele>
        <time>2018-04-28T09:35:54Z</time>
      </trkpt>
      <trkpt lat="38.1297620" lon="-3.7999770">
        <ele>322.6</ele>
        <time>2018-04-28T09:35:55Z</time>
      </trkpt>
      <trkpt lat="38.1297800" lon="-3.7999710">
        <ele>322.6</ele>
        <time>2018-04-28T09:35:56Z</time>
      </trkpt>
      <trkpt lat="38.1297960" lon="-3.7999630">
        <ele>322.8</ele>
        <time>2018-04-28T09:35:57Z</time>
      </trkpt>
      <trkpt lat="38.1298100" lon="-3.7999570">
        <ele>322.8</ele>
        <time>2018-04-28T09:35:58Z</time>
      </trkpt>
      <trkpt lat="38.1298100" lon="-3.7999570">
        <ele>323.0</ele>
        <time>2018-04-28T09:35:59Z</time>
      </trkpt>
      <trkpt lat="38.1298240" lon="-3.7999490">
        <ele>322.8</ele>
        <time>2018-04-28T09:36:00Z</time>
      </trkpt>
      <trkpt lat="38.1298370" lon="-3.7999370">
        <ele>322.8</ele>
        <time>2018-04-28T09:36:01Z</time>
      </trkpt>
      <trkpt lat="38.1298480" lon="-3.7999220">
        <ele>322.6</ele>
        <time>2018-04-28T09:36:02Z</time>
      </trkpt>
      <trkpt lat="38.1298570" lon="-3.7999130">
        <ele>322.6</ele>
        <time>2018-04-28T09:36:03Z</time>
      </trkpt>
      <trkpt lat="38.1298620" lon="-3.7999150">
        <ele>322.6</ele>
        <time>2018-04-28T09:36:04Z</time>
      </trkpt>
      <trkpt lat="38.1298610" lon="-3.7999150">
        <ele>322.8</ele>
        <time>2018-04-28T09:36:05Z</time>
      </trkpt>
      <trkpt lat="38.1298620" lon="-3.7999140">
        <ele>322.6</ele>
        <time>2018-04-28T09:36:06Z</time>
      </trkpt>
      <trkpt lat="38.1298610" lon="-3.7999150">
        <ele>322.8</ele>
        <time>2018-04-28T09:36:07Z</time>
      </trkpt>
      <trkpt lat="38.1298580" lon="-3.7999160">
        <ele>322.6</ele>
        <time>2018-04-28T09:36:08Z</time>
      </trkpt>
      <trkpt lat="38.1298580" lon="-3.7999150">
        <ele>322.8</ele>
        <time>2018-04-28T09:36:09Z</time>
      </trkpt>
      <trkpt lat="38.1298580" lon="-3.7999150">
        <ele>322.8</ele>
        <time>2018-04-28T09:36:10Z</time>
      </trkpt>
      <trkpt lat="38.1298580" lon="-3.7999150">
        <ele>322.6</ele>
        <time>2018-04-28T09:36:11Z</time>
      </trkpt>
      <trkpt lat="38.1300660" lon="-3.7998070">
        <ele>322.4</ele>
        <time>2018-04-28T09:38:10Z</time>
      </trkpt>
      <trkpt lat="38.1300960" lon="-3.7997960">
        <ele>322.6</ele>
        <time>2018-04-28T09:38:11Z</time>
      </trkpt>
      <trkpt lat="38.1301270" lon="-3.7997830">
        <ele>322.6</ele>
        <time>2018-04-28T09:38:12Z</time>
      </trkpt>
      <trkpt lat="38.1301580" lon="-3.7997700">
        <ele>322.6</ele>
        <time>2018-04-28T09:38:13Z</time>
      </trkpt>
      <trkpt lat="38.1301890" lon="-3.7997560">
        <ele>322.8</ele>
        <time>2018-04-28T09:38:14Z</time>
      </trkpt>
      <trkpt lat="38.1302210" lon="-3.7997410">
        <ele>322.8</ele>
        <time>2018-04-28T09:38:15Z</time>
      </trkpt>
      <trkpt lat="38.1302530" lon="-3.7997270">
        <ele>323.0</ele>
        <time>2018-04-28T09:38:16Z</time>
      </trkpt>
      <trkpt lat="38.1302870" lon="-3.7997140">
        <ele>323.0</ele>
        <time>2018-04-28T09:38:17Z</time>
      </trkpt>
      <trkpt lat="38.1303210" lon="-3.7996990">
        <ele>323.0</ele>
        <time>2018-04-28T09:38:18Z</time>
      </trkpt>
      <trkpt lat="38.1303560" lon="-3.7996830">
        <ele>323.0</ele>
        <time>2018-04-28T09:38:19Z</time>
      </trkpt>
      <trkpt lat="38.1303930" lon="-3.7996680">
        <ele>323.0</ele>
        <time>2018-04-28T09:38:20Z</time>
      </trkpt>
      <trkpt lat="38.1304300" lon="-3.7996520">
        <ele>323.0</ele>
        <time>2018-04-28T09:38:21Z</time>
      </trkpt>
      <trkpt lat="38.1304660" lon="-3.7996340">
        <ele>323.0</ele>
        <time>2018-04-28T09:38:22Z</time>
      </trkpt>
      <trkpt lat="38.1305020" lon="-3.7996120">
        <ele>323.2</ele>
        <time>2018-04-28T09:38:23Z</time>
      </trkpt>
      <trkpt lat="38.1305400" lon="-3.7995910">
        <ele>323.4</ele>
        <time>2018-04-28T09:38:24Z</time>
      </trkpt>
      <trkpt lat="38.1305790" lon="-3.7995720">
        <ele>323.4</ele>
        <time>2018-04-28T09:38:25Z</time>
      </trkpt>
      <trkpt lat="38.1306170" lon="-3.7995530">
        <ele>323.6</ele>
        <time>2018-04-28T09:38:26Z</time>
      </trkpt>
      <trkpt lat="38.1306570" lon="-3.7995350">
        <ele>323.6</ele>
        <time>2018-04-28T09:38:27Z</time>
      </trkpt>
      <trkpt lat="38.1306970" lon="-3.7995190">
        <ele>323.8</ele>
        <time>2018-04-28T09:38:28Z</time>
      </trkpt>
      <trkpt lat="38.1307370" lon="-3.7995020">
        <ele>323.8</ele>
        <time>2018-04-28T09:38:29Z</time>
      </trkpt>
      <trkpt lat="38.1307800" lon="-3.7994870">
        <ele>323.8</ele>
        <time>2018-04-28T09:38:30Z</time>
      </trkpt>
      <trkpt lat="38.1308000" lon="-3.7994810">
        <ele>324.0</ele>
        <time>2018-04-28T09:38:31Z</time>
      </trkpt>
      <trkpt lat="38.1308200" lon="-3.7994740">
        <ele>324.0</ele>
        <time>2018-04-28T09:38:32Z</time>
      </trkpt>
      <trkpt lat="38.1309020" lon="-3.7994500">
        <ele>324.2</ele>
        <time>2018-04-28T09:38:33Z</time>
      </trkpt>
      <trkpt lat="38.1309430" lon="-3.7994380">
        <ele>324.4</ele>
        <time>2018-04-28T09:38:34Z</time>
      </trkpt>
      <trkpt lat="38.1309860" lon="-3.7994270">
        <ele>324.4</ele>
        <time>2018-04-28T09:38:35Z</time>
      </trkpt>
      <trkpt lat="38.1310270" lon="-3.7994150">
        <ele>324.6</ele>
        <time>2018-04-28T09:38:36Z</time>
      </trkpt>
      <trkpt lat="38.1310690" lon="-3.7994040">
        <ele>324.4</ele>
        <time>2018-04-28T09:38:37Z</time>
      </trkpt>
      <trkpt lat="38.1311110" lon="-3.7993930">
        <ele>324.6</ele>
        <time>2018-04-28T09:38:38Z</time>
      </trkpt>
      <trkpt lat="38.1311540" lon="-3.7993810">
        <ele>324.8</ele>
        <time>2018-04-28T09:38:39Z</time>
      </trkpt>
      <trkpt lat="38.1311970" lon="-3.7993690">
        <ele>325.0</ele>
        <time>2018-04-28T09:38:40Z</time>
      </trkpt>
      <trkpt lat="38.1312400" lon="-3.7993570">
        <ele>325.2</ele>
        <time>2018-04-28T09:38:41Z</time>
      </trkpt>
      <trkpt lat="38.1312820" lon="-3.7993450">
        <ele>325.0</ele>
        <time>2018-04-28T09:38:42Z</time>
      </trkpt>
      <trkpt lat="38.1313250" lon="-3.7993330">
        <ele>325.2</ele>
        <time>2018-04-28T09:38:43Z</time>
      </trkpt>
      <trkpt lat="38.1313680" lon="-3.7993230">
        <ele>325.4</ele>
        <time>2018-04-28T09:38:44Z</time>
      </trkpt>
      <trkpt lat="38.1314100" lon="-3.7993120">
        <ele>325.4</ele>
        <time>2018-04-28T09:38:45Z</time>
      </trkpt>
      <trkpt lat="38.1314520" lon="-3.7993000">
        <ele>325.6</ele>
        <time>2018-04-28T09:38:46Z</time>
      </trkpt>
      <trkpt lat="38.1314930" lon="-3.7992860">
        <ele>326.0</ele>
        <time>2018-04-28T09:38:47Z</time>
      </trkpt>
      <trkpt lat="38.1315340" lon="-3.7992730">
        <ele>326.0</ele>
        <time>2018-04-28T09:38:48Z</time>
      </trkpt>
      <trkpt lat="38.1315740" lon="-3.7992600">
        <ele>326.2</ele>
        <time>2018-04-28T09:38:49Z</time>
      </trkpt>
      <trkpt lat="38.1316150" lon="-3.7992470">
        <ele>326.2</ele>
        <time>2018-04-28T09:38:50Z</time>
      </trkpt>
      <trkpt lat="38.1316550" lon="-3.7992330">
        <ele>326.2</ele>
        <time>2018-04-28T09:38:51Z</time>
      </trkpt>
      <trkpt lat="38.1316970" lon="-3.7992190">
        <ele>326.4</ele>
        <time>2018-04-28T09:38:52Z</time>
      </trkpt>
      <trkpt lat="38.1317380" lon="-3.7992040">
        <ele>327.2</ele>
        <time>2018-04-28T09:38:53Z</time>
      </trkpt>
      <trkpt lat="38.1317780" lon="-3.7991880">
        <ele>326.8</ele>
        <time>2018-04-28T09:38:54Z</time>
      </trkpt>
      <trkpt lat="38.1318190" lon="-3.7991740">
        <ele>327.0</ele>
        <time>2018-04-28T09:38:55Z</time>
      </trkpt>
      <trkpt lat="38.1318600" lon="-3.7991590">
        <ele>327.2</ele>
        <time>2018-04-28T09:38:56Z</time>
      </trkpt>
      <trkpt lat="38.1319020" lon="-3.7991440">
        <ele>327.0</ele>
        <time>2018-04-28T09:38:57Z</time>
      </trkpt>
      <trkpt lat="38.1319430" lon="-3.7991280">
        <ele>327.0</ele>
        <time>2018-04-28T09:38:58Z</time>
      </trkpt>
      <trkpt lat="38.1319860" lon="-3.7991140">
        <ele>327.0</ele>
        <time>2018-04-28T09:38:59Z</time>
      </trkpt>
      <trkpt lat="38.1320290" lon="-3.7990980">
        <ele>327.2</ele>
        <time>2018-04-28T09:39:00Z</time>
      </trkpt>
      <trkpt lat="38.1320710" lon="-3.7990830">
        <ele>327.2</ele>
        <time>2018-04-28T09:39:01Z</time>
      </trkpt>
      <trkpt lat="38.1321140" lon="-3.7990680">
        <ele>327.4</ele>
        <time>2018-04-28T09:39:02Z</time>
      </trkpt>
      <trkpt lat="38.1321560" lon="-3.7990550">
        <ele>327.4</ele>
        <time>2018-04-28T09:39:03Z</time>
      </trkpt>
      <trkpt lat="38.1322000" lon="-3.7990390">
        <ele>327.4</ele>
        <time>2018-04-28T09:39:04Z</time>
      </trkpt>
      <trkpt lat="38.1322430" lon="-3.7990240">
        <ele>327.4</ele>
        <time>2018-04-28T09:39:05Z</time>
      </trkpt>
      <trkpt lat="38.1322860" lon="-3.7990070">
        <ele>327.6</ele>
        <time>2018-04-28T09:39:06Z</time>
      </trkpt>
      <trkpt lat="38.1323300" lon="-3.7989890">
        <ele>327.8</ele>
        <time>2018-04-28T09:39:07Z</time>
      </trkpt>
      <trkpt lat="38.1323730" lon="-3.7989720">
        <ele>327.8</ele>
        <time>2018-04-28T09:39:08Z</time>
      </trkpt>
      <trkpt lat="38.1324170" lon="-3.7989540">
        <ele>327.8</ele>
        <time>2018-04-28T09:39:09Z</time>
      </trkpt>
      <trkpt lat="38.1324600" lon="-3.7989370">
        <ele>327.8</ele>
        <time>2018-04-28T09:39:10Z</time>
      </trkpt>
      <trkpt lat="38.1325040" lon="-3.7989190">
        <ele>328.0</ele>
        <time>2018-04-28T09:39:11Z</time>
      </trkpt>
      <trkpt lat="38.1325480" lon="-3.7989010">
        <ele>328.0</ele>
        <time>2018-04-28T09:39:12Z</time>
      </trkpt>
      <trkpt lat="38.1325920" lon="-3.7988840">
        <ele>328.0</ele>
        <time>2018-04-28T09:39:13Z</time>
      </trkpt>
      <trkpt lat="38.1326340" lon="-3.7988650">
        <ele>328.0</ele>
        <time>2018-04-28T09:39:14Z</time>
      </trkpt>
      <trkpt lat="38.1326770" lon="-3.7988450">
        <ele>328.2</ele>
        <time>2018-04-28T09:39:15Z</time>
      </trkpt>
      <trkpt lat="38.1327190" lon="-3.7988240">
        <ele>328.2</ele>
        <time>2018-04-28T09:39:16Z</time>
      </trkpt>
      <trkpt lat="38.1327620" lon="-3.7988050">
        <ele>328.2</ele>
        <time>2018-04-28T09:39:17Z</time>
      </trkpt>
      <trkpt lat="38.1328050" lon="-3.7987860">
        <ele>328.4</ele>
        <time>2018-04-28T09:39:18Z</time>
      </trkpt>
      <trkpt lat="38.1328470" lon="-3.7987660">
        <ele>328.6</ele>
        <time>2018-04-28T09:39:19Z</time>
      </trkpt>
      <trkpt lat="38.1328900" lon="-3.7987460">
        <ele>328.8</ele>
        <time>2018-04-28T09:39:20Z</time>
      </trkpt>
      <trkpt lat="38.1329310" lon="-3.7987250">
        <ele>328.8</ele>
        <time>2018-04-28T09:39:21Z</time>
      </trkpt>
      <trkpt lat="38.1329710" lon="-3.7987040">
        <ele>329.0</ele>
        <time>2018-04-28T09:39:22Z</time>
      </trkpt>
      <trkpt lat="38.1330110" lon="-3.7986830">
        <ele>329.0</ele>
        <time>2018-04-28T09:39:23Z</time>
      </trkpt>
      <trkpt lat="38.1330520" lon="-3.7986630">
        <ele>329.2</ele>
        <time>2018-04-28T09:39:24Z</time>
      </trkpt>
      <trkpt lat="38.1330890" lon="-3.7986410">
        <ele>329.4</ele>
        <time>2018-04-28T09:39:25Z</time>
      </trkpt>
      <trkpt lat="38.1331270" lon="-3.7986190">
        <ele>329.6</ele>
        <time>2018-04-28T09:39:26Z</time>
      </trkpt>
      <trkpt lat="38.1331650" lon="-3.7985970">
        <ele>329.8</ele>
        <time>2018-04-28T09:39:27Z</time>
      </trkpt>
      <trkpt lat="38.1332040" lon="-3.7985730">
        <ele>330.0</ele>
        <time>2018-04-28T09:39:28Z</time>
      </trkpt>
      <trkpt lat="38.1332420" lon="-3.7985450">
        <ele>330.2</ele>
        <time>2018-04-28T09:39:29Z</time>
      </trkpt>
      <trkpt lat="38.1332770" lon="-3.7985090">
        <ele>330.4</ele>
        <time>2018-04-28T09:39:30Z</time>
      </trkpt>
      <trkpt lat="38.1333050" lon="-3.7984650">
        <ele>330.6</ele>
        <time>2018-04-28T09:39:31Z</time>
      </trkpt>
      <trkpt lat="38.1333260" lon="-3.7984140">
        <ele>330.8</ele>
        <time>2018-04-28T09:39:32Z</time>
      </trkpt>
      <trkpt lat="38.1333430" lon="-3.7983580">
        <ele>330.8</ele>
        <time>2018-04-28T09:39:33Z</time>
      </trkpt>
      <trkpt lat="38.1333560" lon="-3.7983000">
        <ele>330.8</ele>
        <time>2018-04-28T09:39:34Z</time>
      </trkpt>
      <trkpt lat="38.1333690" lon="-3.7982400">
        <ele>330.8</ele>
        <time>2018-04-28T09:39:35Z</time>
      </trkpt>
      <trkpt lat="38.1333810" lon="-3.7981780">
        <ele>330.8</ele>
        <time>2018-04-28T09:39:36Z</time>
      </trkpt>
      <trkpt lat="38.1333930" lon="-3.7981140">
        <ele>330.8</ele>
        <time>2018-04-28T09:39:37Z</time>
      </trkpt>
      <trkpt lat="38.1334060" lon="-3.7980480">
        <ele>330.8</ele>
        <time>2018-04-28T09:39:38Z</time>
      </trkpt>
      <trkpt lat="38.1334210" lon="-3.7979800">
        <ele>330.8</ele>
        <time>2018-04-28T09:39:39Z</time>
      </trkpt>
      <trkpt lat="38.1334370" lon="-3.7979110">
        <ele>330.8</ele>
        <time>2018-04-28T09:39:40Z</time>
      </trkpt>
      <trkpt lat="38.1334540" lon="-3.7978410">
        <ele>330.8</ele>
        <time>2018-04-28T09:39:41Z</time>
      </trkpt>
      <trkpt lat="38.1334710" lon="-3.7977690">
        <ele>330.8</ele>
        <time>2018-04-28T09:39:42Z</time>
      </trkpt>
      <trkpt lat="38.1334910" lon="-3.7976960">
        <ele>330.6</ele>
        <time>2018-04-28T09:39:43Z</time>
      </trkpt>
      <trkpt lat="38.1335130" lon="-3.7976220">
        <ele>330.4</ele>
        <time>2018-04-28T09:39:44Z</time>
      </trkpt>
      <trkpt lat="38.1335400" lon="-3.7975510">
        <ele>330.4</ele>
        <time>2018-04-28T09:39:45Z</time>
      </trkpt>
      <trkpt lat="38.1335710" lon="-3.7974820">
        <ele>330.6</ele>
        <time>2018-04-28T09:39:46Z</time>
      </trkpt>
      <trkpt lat="38.1336080" lon="-3.7974160">
        <ele>330.6</ele>
        <time>2018-04-28T09:39:47Z</time>
      </trkpt>
      <trkpt lat="38.1336480" lon="-3.7973540">
        <ele>330.6</ele>
        <time>2018-04-28T09:39:48Z</time>
      </trkpt>
      <trkpt lat="38.1336880" lon="-3.7972920">
        <ele>330.8</ele>
        <time>2018-04-28T09:39:49Z</time>
      </trkpt>
      <trkpt lat="38.1337310" lon="-3.7972330">
        <ele>330.6</ele>
        <time>2018-04-28T09:39:50Z</time>
      </trkpt>
      <trkpt lat="38.1337780" lon="-3.7971790">
        <ele>330.6</ele>
        <time>2018-04-28T09:39:51Z</time>
      </trkpt>
      <trkpt lat="38.1338290" lon="-3.7971300">
        <ele>330.6</ele>
        <time>2018-04-28T09:39:52Z</time>
      </trkpt>
      <trkpt lat="38.1338870" lon="-3.7970950">
        <ele>330.6</ele>
        <time>2018-04-28T09:39:53Z</time>
      </trkpt>
      <trkpt lat="38.1339480" lon="-3.7970720">
        <ele>330.2</ele>
        <time>2018-04-28T09:39:54Z</time>
      </trkpt>
      <trkpt lat="38.1340120" lon="-3.7970610">
        <ele>330.2</ele>
        <time>2018-04-28T09:39:55Z</time>
      </trkpt>
      <trkpt lat="38.1340790" lon="-3.7970580">
        <ele>330.0</ele>
        <time>2018-04-28T09:39:56Z</time>
      </trkpt>
      <trkpt lat="38.1341510" lon="-3.7970640">
        <ele>329.4</ele>
        <time>2018-04-28T09:39:57Z</time>
      </trkpt>
      <trkpt lat="38.1342230" lon="-3.7970740">
        <ele>329.2</ele>
        <time>2018-04-28T09:39:58Z</time>
      </trkpt>
      <trkpt lat="38.1342850" lon="-3.7970850">
        <ele>329.4</ele>
        <time>2018-04-28T09:39:59Z</time>
      </trkpt>
      <trkpt lat="38.1343430" lon="-3.7970980">
        <ele>329.8</ele>
        <time>2018-04-28T09:40:00Z</time>
      </trkpt>
      <trkpt lat="38.1343970" lon="-3.7971080">
        <ele>329.8</ele>
        <time>2018-04-28T09:40:01Z</time>
      </trkpt>
      <trkpt lat="38.1344510" lon="-3.7971150">
        <ele>330.0</ele>
        <time>2018-04-28T09:40:02Z</time>
      </trkpt>
      <trkpt lat="38.1345050" lon="-3.7971150">
        <ele>330.0</ele>
        <time>2018-04-28T09:40:03Z</time>
      </trkpt>
      <trkpt lat="38.1345620" lon="-3.7971090">
        <ele>330.4</ele>
        <time>2018-04-28T09:40:04Z</time>
      </trkpt>
      <trkpt lat="38.1346180" lon="-3.7971000">
        <ele>330.4</ele>
        <time>2018-04-28T09:40:05Z</time>
      </trkpt>
      <trkpt lat="38.1346730" lon="-3.7970860">
        <ele>330.6</ele>
        <time>2018-04-28T09:40:06Z</time>
      </trkpt>
      <trkpt lat="38.1347270" lon="-3.7970730">
        <ele>330.8</ele>
        <time>2018-04-28T09:40:07Z</time>
      </trkpt>
      <trkpt lat="38.1347820" lon="-3.7970580">
        <ele>331.0</ele>
        <time>2018-04-28T09:40:08Z</time>
      </trkpt>
      <trkpt lat="38.1348360" lon="-3.7970420">
        <ele>331.2</ele>
        <time>2018-04-28T09:40:09Z</time>
      </trkpt>
      <trkpt lat="38.1348890" lon="-3.7970240">
        <ele>331.4</ele>
        <time>2018-04-28T09:40:10Z</time>
      </trkpt>
      <trkpt lat="38.1349410" lon="-3.7970050">
        <ele>331.4</ele>
        <time>2018-04-28T09:40:11Z</time>
      </trkpt>
      <trkpt lat="38.1349930" lon="-3.7969860">
        <ele>331.8</ele>
        <time>2018-04-28T09:40:12Z</time>
      </trkpt>
      <trkpt lat="38.1350440" lon="-3.7969660">
        <ele>332.0</ele>
        <time>2018-04-28T09:40:13Z</time>
      </trkpt>
      <trkpt lat="38.1350920" lon="-3.7969450">
        <ele>332.0</ele>
        <time>2018-04-28T09:40:14Z</time>
      </trkpt>
      <trkpt lat="38.1351390" lon="-3.7969240">
        <ele>332.2</ele>
        <time>2018-04-28T09:40:15Z</time>
      </trkpt>
      <trkpt lat="38.1351880" lon="-3.7969000">
        <ele>332.4</ele>
        <time>2018-04-28T09:40:16Z</time>
      </trkpt>
      <trkpt lat="38.1352390" lon="-3.7968760">
        <ele>332.6</ele>
        <time>2018-04-28T09:40:17Z</time>
      </trkpt>
      <trkpt lat="38.1352890" lon="-3.7968520">
        <ele>332.8</ele>
        <time>2018-04-28T09:40:18Z</time>
      </trkpt>
      <trkpt lat="38.1353400" lon="-3.7968280">
        <ele>332.8</ele>
        <time>2018-04-28T09:40:19Z</time>
      </trkpt>
      <trkpt lat="38.1353910" lon="-3.7968050">
        <ele>333.2</ele>
        <time>2018-04-28T09:40:20Z</time>
      </trkpt>
      <trkpt lat="38.1354410" lon="-3.7967830">
        <ele>333.4</ele>
        <time>2018-04-28T09:40:21Z</time>
      </trkpt>
      <trkpt lat="38.1354900" lon="-3.7967630">
        <ele>333.6</ele>
        <time>2018-04-28T09:40:22Z</time>
      </trkpt>
      <trkpt lat="38.1355400" lon="-3.7967410">
        <ele>334.0</ele>
        <time>2018-04-28T09:40:23Z</time>
      </trkpt>
      <trkpt lat="38.1355890" lon="-3.7967190">
        <ele>334.4</ele>
        <time>2018-04-28T09:40:24Z</time>
      </trkpt>
      <trkpt lat="38.1356380" lon="-3.7966960">
        <ele>334.6</ele>
        <time>2018-04-28T09:40:25Z</time>
      </trkpt>
      <trkpt lat="38.1356860" lon="-3.7966730">
        <ele>335.0</ele>
        <time>2018-04-28T09:40:26Z</time>
      </trkpt>
      <trkpt lat="38.1357350" lon="-3.7966500">
        <ele>335.2</ele>
        <time>2018-04-28T09:40:27Z</time>
      </trkpt>
      <trkpt lat="38.1357810" lon="-3.7966270">
        <ele>335.6</ele>
        <time>2018-04-28T09:40:28Z</time>
      </trkpt>
      <trkpt lat="38.1358260" lon="-3.7966010">
        <ele>336.0</ele>
        <time>2018-04-28T09:40:29Z</time>
      </trkpt>
      <trkpt lat="38.1358680" lon="-3.7965700">
        <ele>336.2</ele>
        <time>2018-04-28T09:40:30Z</time>
      </trkpt>
      <trkpt lat="38.1359100" lon="-3.7965370">
        <ele>336.6</ele>
        <time>2018-04-28T09:40:31Z</time>
      </trkpt>
      <trkpt lat="38.1359490" lon="-3.7965030">
        <ele>337.0</ele>
        <time>2018-04-28T09:40:32Z</time>
      </trkpt>
      <trkpt lat="38.1359870" lon="-3.7964670">
        <ele>337.2</ele>
        <time>2018-04-28T09:40:33Z</time>
      </trkpt>
      <trkpt lat="38.1360260" lon="-3.7964300">
        <ele>337.6</ele>
        <time>2018-04-28T09:40:34Z</time>
      </trkpt>
      <trkpt lat="38.1360630" lon="-3.7963900">
        <ele>338.0</ele>
        <time>2018-04-28T09:40:35Z</time>
      </trkpt>
      <trkpt lat="38.1361000" lon="-3.7963480">
        <ele>338.0</ele>
        <time>2018-04-28T09:40:36Z</time>
      </trkpt>
      <trkpt lat="38.1361370" lon="-3.7963050">
        <ele>338.4</ele>
        <time>2018-04-28T09:40:37Z</time>
      </trkpt>
      <trkpt lat="38.1361740" lon="-3.7962610">
        <ele>338.8</ele>
        <time>2018-04-28T09:40:38Z</time>
      </trkpt>
      <trkpt lat="38.1362100" lon="-3.7962160">
        <ele>338.8</ele>
        <time>2018-04-28T09:40:39Z</time>
      </trkpt>
      <trkpt lat="38.1362450" lon="-3.7961690">
        <ele>339.2</ele>
        <time>2018-04-28T09:40:40Z</time>
      </trkpt>
      <trkpt lat="38.1362790" lon="-3.7961240">
        <ele>339.4</ele>
        <time>2018-04-28T09:40:41Z</time>
      </trkpt>
      <trkpt lat="38.1363130" lon="-3.7960790">
        <ele>339.8</ele>
        <time>2018-04-28T09:40:42Z</time>
      </trkpt>
      <trkpt lat="38.1363480" lon="-3.7960340">
        <ele>339.8</ele>
        <time>2018-04-28T09:40:43Z</time>
      </trkpt>
      <trkpt lat="38.1363830" lon="-3.7959880">
        <ele>339.8</ele>
        <time>2018-04-28T09:40:44Z</time>
      </trkpt>
      <trkpt lat="38.1364190" lon="-3.7959430">
        <ele>339.8</ele>
        <time>2018-04-28T09:40:45Z</time>
      </trkpt>
      <trkpt lat="38.1364540" lon="-3.7958940">
        <ele>340.0</ele>
        <time>2018-04-28T09:40:46Z</time>
      </trkpt>
      <trkpt lat="38.1364900" lon="-3.7958440">
        <ele>340.2</ele>
        <time>2018-04-28T09:40:47Z</time>
      </trkpt>
      <trkpt lat="38.1365250" lon="-3.7957940">
        <ele>340.2</ele>
        <time>2018-04-28T09:40:48Z</time>
      </trkpt>
      <trkpt lat="38.1365610" lon="-3.7957460">
        <ele>340.4</ele>
        <time>2018-04-28T09:40:49Z</time>
      </trkpt>
      <trkpt lat="38.1365950" lon="-3.7956970">
        <ele>340.6</ele>
        <time>2018-04-28T09:40:50Z</time>
      </trkpt>
      <trkpt lat="38.1366270" lon="-3.7956480">
        <ele>340.6</ele>
        <time>2018-04-28T09:40:51Z</time>
      </trkpt>
      <trkpt lat="38.1366610" lon="-3.7956000">
        <ele>340.6</ele>
        <time>2018-04-28T09:40:52Z</time>
      </trkpt>
      <trkpt lat="38.1366980" lon="-3.7955510">
        <ele>340.8</ele>
        <time>2018-04-28T09:40:53Z</time>
      </trkpt>
      <trkpt lat="38.1367330" lon="-3.7955030">
        <ele>341.0</ele>
        <time>2018-04-28T09:40:54Z</time>
      </trkpt>
      <trkpt lat="38.1367660" lon="-3.7954530">
        <ele>341.2</ele>
        <time>2018-04-28T09:40:55Z</time>
      </trkpt>
      <trkpt lat="38.1367980" lon="-3.7954030">
        <ele>341.4</ele>
        <time>2018-04-28T09:40:56Z</time>
      </trkpt>
      <trkpt lat="38.1368330" lon="-3.7953560">
        <ele>341.4</ele>
        <time>2018-04-28T09:40:57Z</time>
      </trkpt>
      <trkpt lat="38.1368680" lon="-3.7953060">
        <ele>341.4</ele>
        <time>2018-04-28T09:40:58Z</time>
      </trkpt>
      <trkpt lat="38.1369000" lon="-3.7952550">
        <ele>341.6</ele>
        <time>2018-04-28T09:40:59Z</time>
      </trkpt>
      <trkpt lat="38.1369330" lon="-3.7952020">
        <ele>341.6</ele>
        <time>2018-04-28T09:41:00Z</time>
      </trkpt>
      <trkpt lat="38.1369630" lon="-3.7951500">
        <ele>342.0</ele>
        <time>2018-04-28T09:41:01Z</time>
      </trkpt>
      <trkpt lat="38.1369940" lon="-3.7950970">
        <ele>342.0</ele>
        <time>2018-04-28T09:41:02Z</time>
      </trkpt>
      <trkpt lat="38.1370230" lon="-3.7950430">
        <ele>342.0</ele>
        <time>2018-04-28T09:41:03Z</time>
      </trkpt>
      <trkpt lat="38.1370520" lon="-3.7949890">
        <ele>342.0</ele>
        <time>2018-04-28T09:41:04Z</time>
      </trkpt>
      <trkpt lat="38.1370810" lon="-3.7949360">
        <ele>342.2</ele>
        <time>2018-04-28T09:41:05Z</time>
      </trkpt>
      <trkpt lat="38.1371100" lon="-3.7948820">
        <ele>342.4</ele>
        <time>2018-04-28T09:41:06Z</time>
      </trkpt>
      <trkpt lat="38.1371410" lon="-3.7948290">
        <ele>342.4</ele>
        <time>2018-04-28T09:41:07Z</time>
      </trkpt>
      <trkpt lat="38.1371720" lon="-3.7947770">
        <ele>342.4</ele>
        <time>2018-04-28T09:41:08Z</time>
      </trkpt>
      <trkpt lat="38.1372050" lon="-3.7947250">
        <ele>342.6</ele>
        <time>2018-04-28T09:41:09Z</time>
      </trkpt>
      <trkpt lat="38.1372390" lon="-3.7946740">
        <ele>342.6</ele>
        <time>2018-04-28T09:41:10Z</time>
      </trkpt>
      <trkpt lat="38.1372740" lon="-3.7946240">
        <ele>342.6</ele>
        <time>2018-04-28T09:41:11Z</time>
      </trkpt>
      <trkpt lat="38.1373100" lon="-3.7945730">
        <ele>342.8</ele>
        <time>2018-04-28T09:41:12Z</time>
      </trkpt>
      <trkpt lat="38.1373460" lon="-3.7945200">
        <ele>342.8</ele>
        <time>2018-04-28T09:41:13Z</time>
      </trkpt>
      <trkpt lat="38.1373820" lon="-3.7944700">
        <ele>343.0</ele>
        <time>2018-04-28T09:41:14Z</time>
      </trkpt>
      <trkpt lat="38.1374090" lon="-3.7944340">
        <ele>343.0</ele>
        <time>2018-04-28T09:41:15Z</time>
      </trkpt>
      <trkpt lat="38.1374360" lon="-3.7943980">
        <ele>343.0</ele>
        <time>2018-04-28T09:41:16Z</time>
      </trkpt>
      <trkpt lat="38.1374900" lon="-3.7943250">
        <ele>343.2</ele>
        <time>2018-04-28T09:41:17Z</time>
      </trkpt>
      <trkpt lat="38.1375270" lon="-3.7942790">
        <ele>343.2</ele>
        <time>2018-04-28T09:41:18Z</time>
      </trkpt>
      <trkpt lat="38.1375590" lon="-3.7942330">
        <ele>343.4</ele>
        <time>2018-04-28T09:41:19Z</time>
      </trkpt>
      <trkpt lat="38.1375950" lon="-3.7941880">
        <ele>343.2</ele>
        <time>2018-04-28T09:41:20Z</time>
      </trkpt>
      <trkpt lat="38.1376300" lon="-3.7941420">
        <ele>343.4</ele>
        <time>2018-04-28T09:41:21Z</time>
      </trkpt>
      <trkpt lat="38.1376650" lon="-3.7940970">
        <ele>343.8</ele>
        <time>2018-04-28T09:41:22Z</time>
      </trkpt>
      <trkpt lat="38.1376970" lon="-3.7940500">
        <ele>344.0</ele>
        <time>2018-04-28T09:41:23Z</time>
      </trkpt>
      <trkpt lat="38.1377310" lon="-3.7940050">
        <ele>344.0</ele>
        <time>2018-04-28T09:41:24Z</time>
      </trkpt>
      <trkpt lat="38.1377630" lon="-3.7939600">
        <ele>344.0</ele>
        <time>2018-04-28T09:41:25Z</time>
      </trkpt>
      <trkpt lat="38.1377960" lon="-3.7939140">
        <ele>344.0</ele>
        <time>2018-04-28T09:41:26Z</time>
      </trkpt>
      <trkpt lat="38.1378290" lon="-3.7938680">
        <ele>344.2</ele>
        <time>2018-04-28T09:41:27Z</time>
      </trkpt>
      <trkpt lat="38.1378630" lon="-3.7938230">
        <ele>344.4</ele>
        <time>2018-04-28T09:41:28Z</time>
      </trkpt>
      <trkpt lat="38.1378970" lon="-3.7937780">
        <ele>344.6</ele>
        <time>2018-04-28T09:41:29Z</time>
      </trkpt>
      <trkpt lat="38.1379310" lon="-3.7937330">
        <ele>344.6</ele>
        <time>2018-04-28T09:41:30Z</time>
      </trkpt>
      <trkpt lat="38.1379660" lon="-3.7936920">
        <ele>344.8</ele>
        <time>2018-04-28T09:41:31Z</time>
      </trkpt>
      <trkpt lat="38.1380060" lon="-3.7936540">
        <ele>344.8</ele>
        <time>2018-04-28T09:41:32Z</time>
      </trkpt>
      <trkpt lat="38.1380450" lon="-3.7936140">
        <ele>345.0</ele>
        <time>2018-04-28T09:41:33Z</time>
      </trkpt>
      <trkpt lat="38.1380780" lon="-3.7935700">
        <ele>345.0</ele>
        <time>2018-04-28T09:41:34Z</time>
      </trkpt>
      <trkpt lat="38.1381150" lon="-3.7935280">
        <ele>345.2</ele>
        <time>2018-04-28T09:41:35Z</time>
      </trkpt>
      <trkpt lat="38.1381510" lon="-3.7934840">
        <ele>345.4</ele>
        <time>2018-04-28T09:41:36Z</time>
      </trkpt>
      <trkpt lat="38.1381850" lon="-3.7934380">
        <ele>345.4</ele>
        <time>2018-04-28T09:41:37Z</time>
      </trkpt>
      <trkpt lat="38.1382210" lon="-3.7933930">
        <ele>345.6</ele>
        <time>2018-04-28T09:41:38Z</time>
      </trkpt>
      <trkpt lat="38.1382560" lon="-3.7933490">
        <ele>345.8</ele>
        <time>2018-04-28T09:41:39Z</time>
      </trkpt>
      <trkpt lat="38.1382900" lon="-3.7933040">
        <ele>345.8</ele>
        <time>2018-04-28T09:41:40Z</time>
      </trkpt>
      <trkpt lat="38.1383250" lon="-3.7932600">
        <ele>346.0</ele>
        <time>2018-04-28T09:41:41Z</time>
      </trkpt>
      <trkpt lat="38.1383600" lon="-3.7932150">
        <ele>346.0</ele>
        <time>2018-04-28T09:41:42Z</time>
      </trkpt>
      <trkpt lat="38.1383960" lon="-3.7931690">
        <ele>346.0</ele>
        <time>2018-04-28T09:41:43Z</time>
      </trkpt>
      <trkpt lat="38.1384320" lon="-3.7931220">
        <ele>346.0</ele>
        <time>2018-04-28T09:41:44Z</time>
      </trkpt>
      <trkpt lat="38.1384670" lon="-3.7930750">
        <ele>346.0</ele>
        <time>2018-04-28T09:41:45Z</time>
      </trkpt>
      <trkpt lat="38.1385010" lon="-3.7930260">
        <ele>346.2</ele>
        <time>2018-04-28T09:41:46Z</time>
      </trkpt>
      <trkpt lat="38.1385380" lon="-3.7929790">
        <ele>346.4</ele>
        <time>2018-04-28T09:41:47Z</time>
      </trkpt>
      <trkpt lat="38.1385730" lon="-3.7929320">
        <ele>346.2</ele>
        <time>2018-04-28T09:41:48Z</time>
      </trkpt>
      <trkpt lat="38.1386050" lon="-3.7928810">
        <ele>346.4</ele>
        <time>2018-04-28T09:41:49Z</time>
      </trkpt>
      <trkpt lat="38.1386420" lon="-3.7928350">
        <ele>346.4</ele>
        <time>2018-04-28T09:41:50Z</time>
      </trkpt>
      <trkpt lat="38.1386760" lon="-3.7927880">
        <ele>346.6</ele>
        <time>2018-04-28T09:41:51Z</time>
      </trkpt>
      <trkpt lat="38.1387120" lon="-3.7927410">
        <ele>346.6</ele>
        <time>2018-04-28T09:41:52Z</time>
      </trkpt>
      <trkpt lat="38.1387390" lon="-3.7927080">
        <ele>346.8</ele>
        <time>2018-04-28T09:41:53Z</time>
      </trkpt>
      <trkpt lat="38.1387660" lon="-3.7926740">
        <ele>346.8</ele>
        <time>2018-04-28T09:41:54Z</time>
      </trkpt>
      <trkpt lat="38.1388200" lon="-3.7926070">
        <ele>347.0</ele>
        <time>2018-04-28T09:41:55Z</time>
      </trkpt>
      <trkpt lat="38.1388540" lon="-3.7925630">
        <ele>347.2</ele>
        <time>2018-04-28T09:41:56Z</time>
      </trkpt>
      <trkpt lat="38.1388880" lon="-3.7925200">
        <ele>347.2</ele>
        <time>2018-04-28T09:41:57Z</time>
      </trkpt>
      <trkpt lat="38.1389220" lon="-3.7924780">
        <ele>347.4</ele>
        <time>2018-04-28T09:41:58Z</time>
      </trkpt>
      <trkpt lat="38.1389550" lon="-3.7924360">
        <ele>347.6</ele>
        <time>2018-04-28T09:41:59Z</time>
      </trkpt>
      <trkpt lat="38.1389880" lon="-3.7923950">
        <ele>347.8</ele>
        <time>2018-04-28T09:42:00Z</time>
      </trkpt>
      <trkpt lat="38.1390210" lon="-3.7923540">
        <ele>347.8</ele>
        <time>2018-04-28T09:42:01Z</time>
      </trkpt>
      <trkpt lat="38.1390510" lon="-3.7923120">
        <ele>348.0</ele>
        <time>2018-04-28T09:42:02Z</time>
      </trkpt>
      <trkpt lat="38.1390820" lon="-3.7922710">
        <ele>348.4</ele>
        <time>2018-04-28T09:42:03Z</time>
      </trkpt>
      <trkpt lat="38.1391120" lon="-3.7922300">
        <ele>348.4</ele>
        <time>2018-04-28T09:42:04Z</time>
      </trkpt>
      <trkpt lat="38.1391430" lon="-3.7921910">
        <ele>348.6</ele>
        <time>2018-04-28T09:42:05Z</time>
      </trkpt>
      <trkpt lat="38.1391720" lon="-3.7921500">
        <ele>348.6</ele>
        <time>2018-04-28T09:42:06Z</time>
      </trkpt>
      <trkpt lat="38.1392020" lon="-3.7921090">
        <ele>349.0</ele>
        <time>2018-04-28T09:42:07Z</time>
      </trkpt>
      <trkpt lat="38.1392310" lon="-3.7920690">
        <ele>349.0</ele>
        <time>2018-04-28T09:42:08Z</time>
      </trkpt>
      <trkpt lat="38.1392610" lon="-3.7920290">
        <ele>349.2</ele>
        <time>2018-04-28T09:42:09Z</time>
      </trkpt>
      <trkpt lat="38.1392910" lon="-3.7919900">
        <ele>349.2</ele>
        <time>2018-04-28T09:42:10Z</time>
      </trkpt>
      <trkpt lat="38.1393210" lon="-3.7919510">
        <ele>349.4</ele>
        <time>2018-04-28T09:42:11Z</time>
      </trkpt>
      <trkpt lat="38.1393510" lon="-3.7919100">
        <ele>349.6</ele>
        <time>2018-04-28T09:42:12Z</time>
      </trkpt>
      <trkpt lat="38.1393810" lon="-3.7918720">
        <ele>349.6</ele>
        <time>2018-04-28T09:42:13Z</time>
      </trkpt>
      <trkpt lat="38.1394150" lon="-3.7918360">
        <ele>349.8</ele>
        <time>2018-04-28T09:42:14Z</time>
      </trkpt>
      <trkpt lat="38.1394450" lon="-3.7917990">
        <ele>349.8</ele>
        <time>2018-04-28T09:42:15Z</time>
      </trkpt>
      <trkpt lat="38.1394740" lon="-3.7917610">
        <ele>350.0</ele>
        <time>2018-04-28T09:42:16Z</time>
      </trkpt>
      <trkpt lat="38.1395040" lon="-3.7917230">
        <ele>350.2</ele>
        <time>2018-04-28T09:42:17Z</time>
      </trkpt>
      <trkpt lat="38.1395350" lon="-3.7916850">
        <ele>350.2</ele>
        <time>2018-04-28T09:42:18Z</time>
      </trkpt>
      <trkpt lat="38.1395650" lon="-3.7916460">
        <ele>350.2</ele>
        <time>2018-04-28T09:42:19Z</time>
      </trkpt>
      <trkpt lat="38.1395960" lon="-3.7916070">
        <ele>350.4</ele>
        <time>2018-04-28T09:42:20Z</time>
      </trkpt>
      <trkpt lat="38.1396260" lon="-3.7915670">
        <ele>350.6</ele>
        <time>2018-04-28T09:42:21Z</time>
      </trkpt>
      <trkpt lat="38.1396590" lon="-3.7915300">
        <ele>350.8</ele>
        <time>2018-04-28T09:42:22Z</time>
      </trkpt>
      <trkpt lat="38.1396920" lon="-3.7914930">
        <ele>350.8</ele>
        <time>2018-04-28T09:42:23Z</time>
      </trkpt>
      <trkpt lat="38.1397260" lon="-3.7914580">
        <ele>351.2</ele>
        <time>2018-04-28T09:42:24Z</time>
      </trkpt>
      <trkpt lat="38.1397600" lon="-3.7914230">
        <ele>351.2</ele>
        <time>2018-04-28T09:42:25Z</time>
      </trkpt>
      <trkpt lat="38.1397930" lon="-3.7913880">
        <ele>351.4</ele>
        <time>2018-04-28T09:42:26Z</time>
      </trkpt>
      <trkpt lat="38.1398260" lon="-3.7913510">
        <ele>351.4</ele>
        <time>2018-04-28T09:42:27Z</time>
      </trkpt>
      <trkpt lat="38.1398590" lon="-3.7913150">
        <ele>351.6</ele>
        <time>2018-04-28T09:42:28Z</time>
      </trkpt>
      <trkpt lat="38.1398940" lon="-3.7912810">
        <ele>351.8</ele>
        <time>2018-04-28T09:42:29Z</time>
      </trkpt>
      <trkpt lat="38.1399270" lon="-3.7912450">
        <ele>352.0</ele>
        <time>2018-04-28T09:42:30Z</time>
      </trkpt>
      <trkpt lat="38.1399600" lon="-3.7912080">
        <ele>352.0</ele>
        <time>2018-04-28T09:42:31Z</time>
      </trkpt>
      <trkpt lat="38.1399940" lon="-3.7911730">
        <ele>352.2</ele>
        <time>2018-04-28T09:42:32Z</time>
      </trkpt>
      <trkpt lat="38.1400280" lon="-3.7911390">
        <ele>352.4</ele>
        <time>2018-04-28T09:42:33Z</time>
      </trkpt>
      <trkpt lat="38.1400630" lon="-3.7911060">
        <ele>352.6</ele>
        <time>2018-04-28T09:42:34Z</time>
      </trkpt>
      <trkpt lat="38.1400970" lon="-3.7910720">
        <ele>352.8</ele>
        <time>2018-04-28T09:42:35Z</time>
      </trkpt>
      <trkpt lat="38.1401290" lon="-3.7910360">
        <ele>352.8</ele>
        <time>2018-04-28T09:42:36Z</time>
      </trkpt>
      <trkpt lat="38.1401620" lon="-3.7910000">
        <ele>353.0</ele>
        <time>2018-04-28T09:42:37Z</time>
      </trkpt>
      <trkpt lat="38.1401940" lon="-3.7909630">
        <ele>353.2</ele>
        <time>2018-04-28T09:42:38Z</time>
      </trkpt>
      <trkpt lat="38.1402240" lon="-3.7909260">
        <ele>353.4</ele>
        <time>2018-04-28T09:42:39Z</time>
      </trkpt>
      <trkpt lat="38.1402560" lon="-3.7908890">
        <ele>353.6</ele>
        <time>2018-04-28T09:42:40Z</time>
      </trkpt>
      <trkpt lat="38.1402890" lon="-3.7908540">
        <ele>353.8</ele>
        <time>2018-04-28T09:42:41Z</time>
      </trkpt>
      <trkpt lat="38.1403220" lon="-3.7908200">
        <ele>354.0</ele>
        <time>2018-04-28T09:42:42Z</time>
      </trkpt>
      <trkpt lat="38.1403560" lon="-3.7907890">
        <ele>354.4</ele>
        <time>2018-04-28T09:42:43Z</time>
      </trkpt>
      <trkpt lat="38.1403880" lon="-3.7907580">
        <ele>354.6</ele>
        <time>2018-04-28T09:42:44Z</time>
      </trkpt>
      <trkpt lat="38.1404220" lon="-3.7907290">
        <ele>354.8</ele>
        <time>2018-04-28T09:42:45Z</time>
      </trkpt>
      <trkpt lat="38.1404590" lon="-3.7907060">
        <ele>354.8</ele>
        <time>2018-04-28T09:42:46Z</time>
      </trkpt>
      <trkpt lat="38.1404960" lon="-3.7906830">
        <ele>355.4</ele>
        <time>2018-04-28T09:42:47Z</time>
      </trkpt>
      <trkpt lat="38.1405320" lon="-3.7906610">
        <ele>355.6</ele>
        <time>2018-04-28T09:42:48Z</time>
      </trkpt>
      <trkpt lat="38.1405680" lon="-3.7906420">
        <ele>355.8</ele>
        <time>2018-04-28T09:42:49Z</time>
      </trkpt>
      <trkpt lat="38.1406030" lon="-3.7906240">
        <ele>356.0</ele>
        <time>2018-04-28T09:42:50Z</time>
      </trkpt>
      <trkpt lat="38.1406380" lon="-3.7906050">
        <ele>356.2</ele>
        <time>2018-04-28T09:42:51Z</time>
      </trkpt>
      <trkpt lat="38.1406730" lon="-3.7905850">
        <ele>356.4</ele>
        <time>2018-04-28T09:42:52Z</time>
      </trkpt>
      <trkpt lat="38.1407080" lon="-3.7905650">
        <ele>356.4</ele>
        <time>2018-04-28T09:42:53Z</time>
      </trkpt>
      <trkpt lat="38.1407420" lon="-3.7905470">
        <ele>356.8</ele>
        <time>2018-04-28T09:42:54Z</time>
      </trkpt>
      <trkpt lat="38.1407770" lon="-3.7905280">
        <ele>357.0</ele>
        <time>2018-04-28T09:42:55Z</time>
      </trkpt>
      <trkpt lat="38.1408140" lon="-3.7905110">
        <ele>357.2</ele>
        <time>2018-04-28T09:42:56Z</time>
      </trkpt>
      <trkpt lat="38.1408500" lon="-3.7904930">
        <ele>357.4</ele>
        <time>2018-04-28T09:42:57Z</time>
      </trkpt>
      <trkpt lat="38.1408830" lon="-3.7904720">
        <ele>357.4</ele>
        <time>2018-04-28T09:42:58Z</time>
      </trkpt>
      <trkpt lat="38.1409170" lon="-3.7904530">
        <ele>357.6</ele>
        <time>2018-04-28T09:42:59Z</time>
      </trkpt>
      <trkpt lat="38.1409530" lon="-3.7904400">
        <ele>357.6</ele>
        <time>2018-04-28T09:43:00Z</time>
      </trkpt>
      <trkpt lat="38.1409870" lon="-3.7904210">
        <ele>357.8</ele>
        <time>2018-04-28T09:43:01Z</time>
      </trkpt>
      <trkpt lat="38.1410190" lon="-3.7904000">
        <ele>358.0</ele>
        <time>2018-04-28T09:43:02Z</time>
      </trkpt>
      <trkpt lat="38.1410520" lon="-3.7903810">
        <ele>358.2</ele>
        <time>2018-04-28T09:43:03Z</time>
      </trkpt>
      <trkpt lat="38.1410860" lon="-3.7903620">
        <ele>358.2</ele>
        <time>2018-04-28T09:43:04Z</time>
      </trkpt>
      <trkpt lat="38.1411180" lon="-3.7903420">
        <ele>358.4</ele>
        <time>2018-04-28T09:43:05Z</time>
      </trkpt>
      <trkpt lat="38.1411500" lon="-3.7903210">
        <ele>358.6</ele>
        <time>2018-04-28T09:43:06Z</time>
      </trkpt>
      <trkpt lat="38.1411830" lon="-3.7903000">
        <ele>358.8</ele>
        <time>2018-04-28T09:43:07Z</time>
      </trkpt>
      <trkpt lat="38.1412150" lon="-3.7902760">
        <ele>359.0</ele>
        <time>2018-04-28T09:43:08Z</time>
      </trkpt>
      <trkpt lat="38.1412460" lon="-3.7902520">
        <ele>359.4</ele>
        <time>2018-04-28T09:43:09Z</time>
      </trkpt>
      <trkpt lat="38.1412780" lon="-3.7902280">
        <ele>359.2</ele>
        <time>2018-04-28T09:43:10Z</time>
      </trkpt>
      <trkpt lat="38.1413080" lon="-3.7902050">
        <ele>359.2</ele>
        <time>2018-04-28T09:43:11Z</time>
      </trkpt>
      <trkpt lat="38.1413390" lon="-3.7901830">
        <ele>359.4</ele>
        <time>2018-04-28T09:43:12Z</time>
      </trkpt>
      <trkpt lat="38.1413710" lon="-3.7901610">
        <ele>359.6</ele>
        <time>2018-04-28T09:43:13Z</time>
      </trkpt>
      <trkpt lat="38.1414010" lon="-3.7901360">
        <ele>359.8</ele>
        <time>2018-04-28T09:43:14Z</time>
      </trkpt>
      <trkpt lat="38.1414310" lon="-3.7901110">
        <ele>360.0</ele>
        <time>2018-04-28T09:43:15Z</time>
      </trkpt>
      <trkpt lat="38.1414630" lon="-3.7900910">
        <ele>360.2</ele>
        <time>2018-04-28T09:43:16Z</time>
      </trkpt>
      <trkpt lat="38.1414910" lon="-3.7900650">
        <ele>360.4</ele>
        <time>2018-04-28T09:43:17Z</time>
      </trkpt>
      <trkpt lat="38.1415200" lon="-3.7900380">
        <ele>360.4</ele>
        <time>2018-04-28T09:43:18Z</time>
      </trkpt>
      <trkpt lat="38.1415480" lon="-3.7900120">
        <ele>360.8</ele>
        <time>2018-04-28T09:43:19Z</time>
      </trkpt>
      <trkpt lat="38.1415780" lon="-3.7899870">
        <ele>361.0</ele>
        <time>2018-04-28T09:43:20Z</time>
      </trkpt>
      <trkpt lat="38.1416090" lon="-3.7899620">
        <ele>360.8</ele>
        <time>2018-04-28T09:43:21Z</time>
      </trkpt>
      <trkpt lat="38.1416400" lon="-3.7899380">
        <ele>360.8</ele>
        <time>2018-04-28T09:43:22Z</time>
      </trkpt>
      <trkpt lat="38.1416710" lon="-3.7899140">
        <ele>361.0</ele>
        <time>2018-04-28T09:43:23Z</time>
      </trkpt>
      <trkpt lat="38.1417040" lon="-3.7898910">
        <ele>361.0</ele>
        <time>2018-04-28T09:43:24Z</time>
      </trkpt>
      <trkpt lat="38.1417340" lon="-3.7898650">
        <ele>361.2</ele>
        <time>2018-04-28T09:43:25Z</time>
      </trkpt>
      <trkpt lat="38.1417640" lon="-3.7898390">
        <ele>361.4</ele>
        <time>2018-04-28T09:43:26Z</time>
      </trkpt>
      <trkpt lat="38.1417940" lon="-3.7898120">
        <ele>361.4</ele>
        <time>2018-04-28T09:43:27Z</time>
      </trkpt>
      <trkpt lat="38.1418250" lon="-3.7897860">
        <ele>361.4</ele>
        <time>2018-04-28T09:43:28Z</time>
      </trkpt>
      <trkpt lat="38.1418550" lon="-3.7897590">
        <ele>361.6</ele>
        <time>2018-04-28T09:43:29Z</time>
      </trkpt>
      <trkpt lat="38.1418860" lon="-3.7897340">
        <ele>361.8</ele>
        <time>2018-04-28T09:43:30Z</time>
      </trkpt>
      <trkpt lat="38.1419190" lon="-3.7897100">
        <ele>361.8</ele>
        <time>2018-04-28T09:43:31Z</time>
      </trkpt>
      <trkpt lat="38.1419520" lon="-3.7896840">
        <ele>361.8</ele>
        <time>2018-04-28T09:43:32Z</time>
      </trkpt>
      <trkpt lat="38.1419840" lon="-3.7896570">
        <ele>361.8</ele>
        <time>2018-04-28T09:43:33Z</time>
      </trkpt>
      <trkpt lat="38.1420150" lon="-3.7896300">
        <ele>362.0</ele>
        <time>2018-04-28T09:43:34Z</time>
      </trkpt>
      <trkpt lat="38.1420480" lon="-3.7896040">
        <ele>362.2</ele>
        <time>2018-04-28T09:43:35Z</time>
      </trkpt>
      <trkpt lat="38.1420820" lon="-3.7895790">
        <ele>362.2</ele>
        <time>2018-04-28T09:43:36Z</time>
      </trkpt>
      <trkpt lat="38.1421150" lon="-3.7895560">
        <ele>362.2</ele>
        <time>2018-04-28T09:43:37Z</time>
      </trkpt>
      <trkpt lat="38.1421500" lon="-3.7895320">
        <ele>362.4</ele>
        <time>2018-04-28T09:43:38Z</time>
      </trkpt>
      <trkpt lat="38.1421820" lon="-3.7895060">
        <ele>362.4</ele>
        <time>2018-04-28T09:43:39Z</time>
      </trkpt>
      <trkpt lat="38.1422150" lon="-3.7894810">
        <ele>362.4</ele>
        <time>2018-04-28T09:43:40Z</time>
      </trkpt>
      <trkpt lat="38.1422470" lon="-3.7894540">
        <ele>362.4</ele>
        <time>2018-04-28T09:43:41Z</time>
      </trkpt>
      <trkpt lat="38.1422800" lon="-3.7894270">
        <ele>362.6</ele>
        <time>2018-04-28T09:43:42Z</time>
      </trkpt>
      <trkpt lat="38.1423120" lon="-3.7893980">
        <ele>362.6</ele>
        <time>2018-04-28T09:43:43Z</time>
      </trkpt>
      <trkpt lat="38.1423480" lon="-3.7893710">
        <ele>362.6</ele>
        <time>2018-04-28T09:43:44Z</time>
      </trkpt>
      <trkpt lat="38.1423830" lon="-3.7893440">
        <ele>362.6</ele>
        <time>2018-04-28T09:43:45Z</time>
      </trkpt>
      <trkpt lat="38.1424170" lon="-3.7893170">
        <ele>362.6</ele>
        <time>2018-04-28T09:43:46Z</time>
      </trkpt>
      <trkpt lat="38.1424520" lon="-3.7892890">
        <ele>362.6</ele>
        <time>2018-04-28T09:43:47Z</time>
      </trkpt>
      <trkpt lat="38.1424850" lon="-3.7892600">
        <ele>362.8</ele>
        <time>2018-04-28T09:43:48Z</time>
      </trkpt>
      <trkpt lat="38.1425180" lon="-3.7892310">
        <ele>363.0</ele>
        <time>2018-04-28T09:43:49Z</time>
      </trkpt>
      <trkpt lat="38.1425530" lon="-3.7892030">
        <ele>363.0</ele>
        <time>2018-04-28T09:43:50Z</time>
      </trkpt>
      <trkpt lat="38.1425880" lon="-3.7891780">
        <ele>363.2</ele>
        <time>2018-04-28T09:43:51Z</time>
      </trkpt>
      <trkpt lat="38.1426230" lon="-3.7891530">
        <ele>363.2</ele>
        <time>2018-04-28T09:43:52Z</time>
      </trkpt>
      <trkpt lat="38.1426570" lon="-3.7891280">
        <ele>363.4</ele>
        <time>2018-04-28T09:43:53Z</time>
      </trkpt>
      <trkpt lat="38.1426920" lon="-3.7891010">
        <ele>363.6</ele>
        <time>2018-04-28T09:43:54Z</time>
      </trkpt>
      <trkpt lat="38.1427220" lon="-3.7890730">
        <ele>363.6</ele>
        <time>2018-04-28T09:43:55Z</time>
      </trkpt>
      <trkpt lat="38.1427560" lon="-3.7890470">
        <ele>363.6</ele>
        <time>2018-04-28T09:43:56Z</time>
      </trkpt>
      <trkpt lat="38.1427890" lon="-3.7890200">
        <ele>363.8</ele>
        <time>2018-04-28T09:43:57Z</time>
      </trkpt>
      <trkpt lat="38.1428240" lon="-3.7889950">
        <ele>364.0</ele>
        <time>2018-04-28T09:43:58Z</time>
      </trkpt>
      <trkpt lat="38.1428600" lon="-3.7889730">
        <ele>364.0</ele>
        <time>2018-04-28T09:43:59Z</time>
      </trkpt>
      <trkpt lat="38.1428950" lon="-3.7889530">
        <ele>364.2</ele>
        <time>2018-04-28T09:44:00Z</time>
      </trkpt>
      <trkpt lat="38.1429300" lon="-3.7889330">
        <ele>364.4</ele>
        <time>2018-04-28T09:44:01Z</time>
      </trkpt>
      <trkpt lat="38.1429640" lon="-3.7889140">
        <ele>364.6</ele>
        <time>2018-04-28T09:44:02Z</time>
      </trkpt>
      <trkpt lat="38.1429970" lon="-3.7888930">
        <ele>364.8</ele>
        <time>2018-04-28T09:44:03Z</time>
      </trkpt>
      <trkpt lat="38.1430310" lon="-3.7888720">
        <ele>365.0</ele>
        <time>2018-04-28T09:44:04Z</time>
      </trkpt>
      <trkpt lat="38.1430640" lon="-3.7888510">
        <ele>365.0</ele>
        <time>2018-04-28T09:44:05Z</time>
      </trkpt>
      <trkpt lat="38.1430890" lon="-3.7888280">
        <ele>365.2</ele>
        <time>2018-04-28T09:44:06Z</time>
      </trkpt>
      <trkpt lat="38.1431200" lon="-3.7888120">
        <ele>365.6</ele>
        <time>2018-04-28T09:44:07Z</time>
      </trkpt>
      <trkpt lat="38.1431580" lon="-3.7887970">
        <ele>365.8</ele>
        <time>2018-04-28T09:44:08Z</time>
      </trkpt>
      <trkpt lat="38.1431930" lon="-3.7887830">
        <ele>366.0</ele>
        <time>2018-04-28T09:44:09Z</time>
      </trkpt>
      <trkpt lat="38.1432280" lon="-3.7887690">
        <ele>366.2</ele>
        <time>2018-04-28T09:44:10Z</time>
      </trkpt>
      <trkpt lat="38.1432610" lon="-3.7887520">
        <ele>366.4</ele>
        <time>2018-04-28T09:44:11Z</time>
      </trkpt>
      <trkpt lat="38.1432930" lon="-3.7887320">
        <ele>366.6</ele>
        <time>2018-04-28T09:44:12Z</time>
      </trkpt>
      <trkpt lat="38.1433270" lon="-3.7887130">
        <ele>366.8</ele>
        <time>2018-04-28T09:44:13Z</time>
      </trkpt>
      <trkpt lat="38.1433610" lon="-3.7886950">
        <ele>366.8</ele>
        <time>2018-04-28T09:44:14Z</time>
      </trkpt>
      <trkpt lat="38.1433940" lon="-3.7886760">
        <ele>366.8</ele>
        <time>2018-04-28T09:44:15Z</time>
      </trkpt>
      <trkpt lat="38.1434290" lon="-3.7886590">
        <ele>367.0</ele>
        <time>2018-04-28T09:44:16Z</time>
      </trkpt>
      <trkpt lat="38.1434620" lon="-3.7886430">
        <ele>367.2</ele>
        <time>2018-04-28T09:44:17Z</time>
      </trkpt>
      <trkpt lat="38.1434960" lon="-3.7886260">
        <ele>367.4</ele>
        <time>2018-04-28T09:44:18Z</time>
      </trkpt>
      <trkpt lat="38.1435300" lon="-3.7886080">
        <ele>367.6</ele>
        <time>2018-04-28T09:44:19Z</time>
      </trkpt>
      <trkpt lat="38.1435650" lon="-3.7885920">
        <ele>367.6</ele>
        <time>2018-04-28T09:44:20Z</time>
      </trkpt>
      <trkpt lat="38.1435990" lon="-3.7885730">
        <ele>367.8</ele>
        <time>2018-04-28T09:44:21Z</time>
      </trkpt>
      <trkpt lat="38.1436330" lon="-3.7885520">
        <ele>368.0</ele>
        <time>2018-04-28T09:44:22Z</time>
      </trkpt>
      <trkpt lat="38.1436660" lon="-3.7885300">
        <ele>368.2</ele>
        <time>2018-04-28T09:44:23Z</time>
      </trkpt>
      <trkpt lat="38.1436990" lon="-3.7885050">
        <ele>368.6</ele>
        <time>2018-04-28T09:44:24Z</time>
      </trkpt>
      <trkpt lat="38.1437310" lon="-3.7884790">
        <ele>368.6</ele>
        <time>2018-04-28T09:44:25Z</time>
      </trkpt>
      <trkpt lat="38.1437620" lon="-3.7884510">
        <ele>368.8</ele>
        <time>2018-04-28T09:44:26Z</time>
      </trkpt>
      <trkpt lat="38.1437940" lon="-3.7884250">
        <ele>369.0</ele>
        <time>2018-04-28T09:44:27Z</time>
      </trkpt>
      <trkpt lat="38.1438260" lon="-3.7883990">
        <ele>369.0</ele>
        <time>2018-04-28T09:44:28Z</time>
      </trkpt>
      <trkpt lat="38.1438610" lon="-3.7883730">
        <ele>369.0</ele>
        <time>2018-04-28T09:44:29Z</time>
      </trkpt>
      <trkpt lat="38.1438930" lon="-3.7883450">
        <ele>369.0</ele>
        <time>2018-04-28T09:44:30Z</time>
      </trkpt>
      <trkpt lat="38.1439250" lon="-3.7883150">
        <ele>369.2</ele>
        <time>2018-04-28T09:44:31Z</time>
      </trkpt>
      <trkpt lat="38.1439530" lon="-3.7882840">
        <ele>369.2</ele>
        <time>2018-04-28T09:44:32Z</time>
      </trkpt>
      <trkpt lat="38.1439830" lon="-3.7882520">
        <ele>369.2</ele>
        <time>2018-04-28T09:44:33Z</time>
      </trkpt>
      <trkpt lat="38.1440160" lon="-3.7882190">
        <ele>369.4</ele>
        <time>2018-04-28T09:44:34Z</time>
      </trkpt>
      <trkpt lat="38.1440500" lon="-3.7881840">
        <ele>369.4</ele>
        <time>2018-04-28T09:44:35Z</time>
      </trkpt>
      <trkpt lat="38.1440840" lon="-3.7881470">
        <ele>369.2</ele>
        <time>2018-04-28T09:44:36Z</time>
      </trkpt>
      <trkpt lat="38.1441200" lon="-3.7881100">
        <ele>369.2</ele>
        <time>2018-04-28T09:44:37Z</time>
      </trkpt>
      <trkpt lat="38.1441560" lon="-3.7880710">
        <ele>369.2</ele>
        <time>2018-04-28T09:44:38Z</time>
      </trkpt>
      <trkpt lat="38.1441960" lon="-3.7880330">
        <ele>369.0</ele>
        <time>2018-04-28T09:44:39Z</time>
      </trkpt>
      <trkpt lat="38.1442350" lon="-3.7879940">
        <ele>369.2</ele>
        <time>2018-04-28T09:44:40Z</time>
      </trkpt>
      <trkpt lat="38.1442770" lon="-3.7879530">
        <ele>369.0</ele>
        <time>2018-04-28T09:44:41Z</time>
      </trkpt>
      <trkpt lat="38.1443180" lon="-3.7879130">
        <ele>369.0</ele>
        <time>2018-04-28T09:44:42Z</time>
      </trkpt>
      <trkpt lat="38.1443590" lon="-3.7878710">
        <ele>369.0</ele>
        <time>2018-04-28T09:44:43Z</time>
      </trkpt>
      <trkpt lat="38.1444010" lon="-3.7878300">
        <ele>369.0</ele>
        <time>2018-04-28T09:44:44Z</time>
      </trkpt>
      <trkpt lat="38.1444440" lon="-3.7877870">
        <ele>368.8</ele>
        <time>2018-04-28T09:44:45Z</time>
      </trkpt>
      <trkpt lat="38.1444880" lon="-3.7877450">
        <ele>368.8</ele>
        <time>2018-04-28T09:44:46Z</time>
      </trkpt>
      <trkpt lat="38.1445340" lon="-3.7877050">
        <ele>368.8</ele>
        <time>2018-04-28T09:44:47Z</time>
      </trkpt>
      <trkpt lat="38.1445780" lon="-3.7876640">
        <ele>369.0</ele>
        <time>2018-04-28T09:44:48Z</time>
      </trkpt>
      <trkpt lat="38.1446220" lon="-3.7876240">
        <ele>369.0</ele>
        <time>2018-04-28T09:44:49Z</time>
      </trkpt>
      <trkpt lat="38.1446670" lon="-3.7875860">
        <ele>369.2</ele>
        <time>2018-04-28T09:44:50Z</time>
      </trkpt>
      <trkpt lat="38.1447120" lon="-3.7875480">
        <ele>369.0</ele>
        <time>2018-04-28T09:44:51Z</time>
      </trkpt>
      <trkpt lat="38.1447560" lon="-3.7875090">
        <ele>369.0</ele>
        <time>2018-04-28T09:44:52Z</time>
      </trkpt>
      <trkpt lat="38.1447980" lon="-3.7874680">
        <ele>369.2</ele>
        <time>2018-04-28T09:44:53Z</time>
      </trkpt>
      <trkpt lat="38.1448410" lon="-3.7874270">
        <ele>369.2</ele>
        <time>2018-04-28T09:44:54Z</time>
      </trkpt>
      <trkpt lat="38.1448860" lon="-3.7873880">
        <ele>369.4</ele>
        <time>2018-04-28T09:44:55Z</time>
      </trkpt>
      <trkpt lat="38.1449320" lon="-3.7873500">
        <ele>369.6</ele>
        <time>2018-04-28T09:44:56Z</time>
      </trkpt>
      <trkpt lat="38.1449760" lon="-3.7873110">
        <ele>369.6</ele>
        <time>2018-04-28T09:44:57Z</time>
      </trkpt>
      <trkpt lat="38.1450150" lon="-3.7872700">
        <ele>369.6</ele>
        <time>2018-04-28T09:44:58Z</time>
      </trkpt>
      <trkpt lat="38.1450580" lon="-3.7872320">
        <ele>369.8</ele>
        <time>2018-04-28T09:44:59Z</time>
      </trkpt>
      <trkpt lat="38.1451000" lon="-3.7871920">
        <ele>369.8</ele>
        <time>2018-04-28T09:45:00Z</time>
      </trkpt>
      <trkpt lat="38.1451430" lon="-3.7871530">
        <ele>370.0</ele>
        <time>2018-04-28T09:45:01Z</time>
      </trkpt>
      <trkpt lat="38.1451870" lon="-3.7871160">
        <ele>370.0</ele>
        <time>2018-04-28T09:45:02Z</time>
      </trkpt>
      <trkpt lat="38.1452310" lon="-3.7870780">
        <ele>370.0</ele>
        <time>2018-04-28T09:45:03Z</time>
      </trkpt>
      <trkpt lat="38.1452750" lon="-3.7870390">
        <ele>370.0</ele>
        <time>2018-04-28T09:45:04Z</time>
      </trkpt>
      <trkpt lat="38.1453190" lon="-3.7870010">
        <ele>370.2</ele>
        <time>2018-04-28T09:45:05Z</time>
      </trkpt>
      <trkpt lat="38.1453610" lon="-3.7869610">
        <ele>370.0</ele>
        <time>2018-04-28T09:45:06Z</time>
      </trkpt>
      <trkpt lat="38.1454030" lon="-3.7869200">
        <ele>370.2</ele>
        <time>2018-04-28T09:45:07Z</time>
      </trkpt>
      <trkpt lat="38.1454470" lon="-3.7868810">
        <ele>370.0</ele>
        <time>2018-04-28T09:45:08Z</time>
      </trkpt>
      <trkpt lat="38.1454900" lon="-3.7868420">
        <ele>370.2</ele>
        <time>2018-04-28T09:45:09Z</time>
      </trkpt>
      <trkpt lat="38.1455350" lon="-3.7868030">
        <ele>370.4</ele>
        <time>2018-04-28T09:45:10Z</time>
      </trkpt>
      <trkpt lat="38.1455810" lon="-3.7867660">
        <ele>370.4</ele>
        <time>2018-04-28T09:45:11Z</time>
      </trkpt>
      <trkpt lat="38.1456260" lon="-3.7867280">
        <ele>370.6</ele>
        <time>2018-04-28T09:45:12Z</time>
      </trkpt>
      <trkpt lat="38.1456720" lon="-3.7866890">
        <ele>370.6</ele>
        <time>2018-04-28T09:45:13Z</time>
      </trkpt>
      <trkpt lat="38.1457170" lon="-3.7866480">
        <ele>370.8</ele>
        <time>2018-04-28T09:45:14Z</time>
      </trkpt>
      <trkpt lat="38.1457670" lon="-3.7866100">
        <ele>370.8</ele>
        <time>2018-04-28T09:45:15Z</time>
      </trkpt>
      <trkpt lat="38.1458160" lon="-3.7865710">
        <ele>370.8</ele>
        <time>2018-04-28T09:45:16Z</time>
      </trkpt>
      <trkpt lat="38.1458620" lon="-3.7865320">
        <ele>370.6</ele>
        <time>2018-04-28T09:45:17Z</time>
      </trkpt>
      <trkpt lat="38.1459100" lon="-3.7864940">
        <ele>370.8</ele>
        <time>2018-04-28T09:45:18Z</time>
      </trkpt>
      <trkpt lat="38.1459610" lon="-3.7864570">
        <ele>370.8</ele>
        <time>2018-04-28T09:45:19Z</time>
      </trkpt>
      <trkpt lat="38.1460110" lon="-3.7864200">
        <ele>370.8</ele>
        <time>2018-04-28T09:45:20Z</time>
      </trkpt>
      <trkpt lat="38.1460610" lon="-3.7863790">
        <ele>370.8</ele>
        <time>2018-04-28T09:45:21Z</time>
      </trkpt>
      <trkpt lat="38.1461120" lon="-3.7863380">
        <ele>370.8</ele>
        <time>2018-04-28T09:45:22Z</time>
      </trkpt>
      <trkpt lat="38.1461620" lon="-3.7862990">
        <ele>371.0</ele>
        <time>2018-04-28T09:45:23Z</time>
      </trkpt>
      <trkpt lat="38.1462110" lon="-3.7862660">
        <ele>371.0</ele>
        <time>2018-04-28T09:45:24Z</time>
      </trkpt>
      <trkpt lat="38.1462590" lon="-3.7862350">
        <ele>371.0</ele>
        <time>2018-04-28T09:45:25Z</time>
      </trkpt>
      <trkpt lat="38.1463060" lon="-3.7862080">
        <ele>371.0</ele>
        <time>2018-04-28T09:45:26Z</time>
      </trkpt>
      <trkpt lat="38.1463500" lon="-3.7861810">
        <ele>371.2</ele>
        <time>2018-04-28T09:45:27Z</time>
      </trkpt>
      <trkpt lat="38.1463990" lon="-3.7861600">
        <ele>371.2</ele>
        <time>2018-04-28T09:45:28Z</time>
      </trkpt>
      <trkpt lat="38.1464480" lon="-3.7861410">
        <ele>371.4</ele>
        <time>2018-04-28T09:45:29Z</time>
      </trkpt>
      <trkpt lat="38.1464980" lon="-3.7861240">
        <ele>371.4</ele>
        <time>2018-04-28T09:45:30Z</time>
      </trkpt>
      <trkpt lat="38.1465510" lon="-3.7861090">
        <ele>371.2</ele>
        <time>2018-04-28T09:45:31Z</time>
      </trkpt>
      <trkpt lat="38.1466040" lon="-3.7860950">
        <ele>371.2</ele>
        <time>2018-04-28T09:45:32Z</time>
      </trkpt>
      <trkpt lat="38.1466560" lon="-3.7860820">
        <ele>371.2</ele>
        <time>2018-04-28T09:45:33Z</time>
      </trkpt>
      <trkpt lat="38.1467080" lon="-3.7860660">
        <ele>371.0</ele>
        <time>2018-04-28T09:45:34Z</time>
      </trkpt>
      <trkpt lat="38.1467620" lon="-3.7860490">
        <ele>371.2</ele>
        <time>2018-04-28T09:45:35Z</time>
      </trkpt>
      <trkpt lat="38.1468160" lon="-3.7860280">
        <ele>371.2</ele>
        <time>2018-04-28T09:45:36Z</time>
      </trkpt>
      <trkpt lat="38.1468680" lon="-3.7860020">
        <ele>371.0</ele>
        <time>2018-04-28T09:45:37Z</time>
      </trkpt>
      <trkpt lat="38.1469200" lon="-3.7859740">
        <ele>371.2</ele>
        <time>2018-04-28T09:45:38Z</time>
      </trkpt>
      <trkpt lat="38.1469700" lon="-3.7859420">
        <ele>371.0</ele>
        <time>2018-04-28T09:45:39Z</time>
      </trkpt>
      <trkpt lat="38.1470190" lon="-3.7859040">
        <ele>371.0</ele>
        <time>2018-04-28T09:45:40Z</time>
      </trkpt>
      <trkpt lat="38.1470660" lon="-3.7858630">
        <ele>371.0</ele>
        <time>2018-04-28T09:45:41Z</time>
      </trkpt>
      <trkpt lat="38.1471130" lon="-3.7858200">
        <ele>371.0</ele>
        <time>2018-04-28T09:45:42Z</time>
      </trkpt>
      <trkpt lat="38.1471590" lon="-3.7857760">
        <ele>370.8</ele>
        <time>2018-04-28T09:45:43Z</time>
      </trkpt>
      <trkpt lat="38.1472040" lon="-3.7857300">
        <ele>371.0</ele>
        <time>2018-04-28T09:45:44Z</time>
      </trkpt>
      <trkpt lat="38.1472490" lon="-3.7856840">
        <ele>370.8</ele>
        <time>2018-04-28T09:45:45Z</time>
      </trkpt>
      <trkpt lat="38.1472950" lon="-3.7856370">
        <ele>370.8</ele>
        <time>2018-04-28T09:45:46Z</time>
      </trkpt>
      <trkpt lat="38.1473420" lon="-3.7855900">
        <ele>371.0</ele>
        <time>2018-04-28T09:45:47Z</time>
      </trkpt>
      <trkpt lat="38.1473860" lon="-3.7855430">
        <ele>371.0</ele>
        <time>2018-04-28T09:45:48Z</time>
      </trkpt>
      <trkpt lat="38.1474290" lon="-3.7854950">
        <ele>371.2</ele>
        <time>2018-04-28T09:45:49Z</time>
      </trkpt>
      <trkpt lat="38.1474710" lon="-3.7854480">
        <ele>371.2</ele>
        <time>2018-04-28T09:45:50Z</time>
      </trkpt>
      <trkpt lat="38.1475110" lon="-3.7854010">
        <ele>371.4</ele>
        <time>2018-04-28T09:45:51Z</time>
      </trkpt>
      <trkpt lat="38.1475500" lon="-3.7853510">
        <ele>371.4</ele>
        <time>2018-04-28T09:45:52Z</time>
      </trkpt>
      <trkpt lat="38.1475890" lon="-3.7853000">
        <ele>371.4</ele>
        <time>2018-04-28T09:45:53Z</time>
      </trkpt>
      <trkpt lat="38.1476280" lon="-3.7852480">
        <ele>371.4</ele>
        <time>2018-04-28T09:45:54Z</time>
      </trkpt>
      <trkpt lat="38.1476670" lon="-3.7851960">
        <ele>371.4</ele>
        <time>2018-04-28T09:45:55Z</time>
      </trkpt>
      <trkpt lat="38.1477040" lon="-3.7851440">
        <ele>371.6</ele>
        <time>2018-04-28T09:45:56Z</time>
      </trkpt>
      <trkpt lat="38.1477400" lon="-3.7850920">
        <ele>371.2</ele>
        <time>2018-04-28T09:45:57Z</time>
      </trkpt>
      <trkpt lat="38.1477760" lon="-3.7850410">
        <ele>371.2</ele>
        <time>2018-04-28T09:45:58Z</time>
      </trkpt>
      <trkpt lat="38.1478160" lon="-3.7849890">
        <ele>371.2</ele>
        <time>2018-04-28T09:45:59Z</time>
      </trkpt>
      <trkpt lat="38.1478550" lon="-3.7849370">
        <ele>371.2</ele>
        <time>2018-04-28T09:46:00Z</time>
      </trkpt>
      <trkpt lat="38.1478960" lon="-3.7848850">
        <ele>371.0</ele>
        <time>2018-04-28T09:46:01Z</time>
      </trkpt>
      <trkpt lat="38.1479420" lon="-3.7848360">
        <ele>371.0</ele>
        <time>2018-04-28T09:46:02Z</time>
      </trkpt>
      <trkpt lat="38.1479860" lon="-3.7847850">
        <ele>371.0</ele>
        <time>2018-04-28T09:46:03Z</time>
      </trkpt>
      <trkpt lat="38.1480300" lon="-3.7847330">
        <ele>371.0</ele>
        <time>2018-04-28T09:46:04Z</time>
      </trkpt>
      <trkpt lat="38.1480710" lon="-3.7846790">
        <ele>371.2</ele>
        <time>2018-04-28T09:46:05Z</time>
      </trkpt>
      <trkpt lat="38.1481130" lon="-3.7846240">
        <ele>371.4</ele>
        <time>2018-04-28T09:46:06Z</time>
      </trkpt>
      <trkpt lat="38.1481540" lon="-3.7845690">
        <ele>371.4</ele>
        <time>2018-04-28T09:46:07Z</time>
      </trkpt>
      <trkpt lat="38.1481940" lon="-3.7845120">
        <ele>371.4</ele>
        <time>2018-04-28T09:46:08Z</time>
      </trkpt>
      <trkpt lat="38.1482340" lon="-3.7844560">
        <ele>371.2</ele>
        <time>2018-04-28T09:46:09Z</time>
      </trkpt>
      <trkpt lat="38.1482760" lon="-3.7844000">
        <ele>371.2</ele>
        <time>2018-04-28T09:46:10Z</time>
      </trkpt>
      <trkpt lat="38.1483190" lon="-3.7843440">
        <ele>371.2</ele>
        <time>2018-04-28T09:46:11Z</time>
      </trkpt>
      <trkpt lat="38.1483620" lon="-3.7842890">
        <ele>371.0</ele>
        <time>2018-04-28T09:46:12Z</time>
      </trkpt>
      <trkpt lat="38.1484050" lon="-3.7842330">
        <ele>371.2</ele>
        <time>2018-04-28T09:46:13Z</time>
      </trkpt>
      <trkpt lat="38.1484480" lon="-3.7841770">
        <ele>371.0</ele>
        <time>2018-04-28T09:46:14Z</time>
      </trkpt>
      <trkpt lat="38.1484890" lon="-3.7841180">
        <ele>371.2</ele>
        <time>2018-04-28T09:46:15Z</time>
      </trkpt>
      <trkpt lat="38.1485290" lon="-3.7840610">
        <ele>370.8</ele>
        <time>2018-04-28T09:46:16Z</time>
      </trkpt>
      <trkpt lat="38.1485700" lon="-3.7840020">
        <ele>371.6</ele>
        <time>2018-04-28T09:46:17Z</time>
      </trkpt>
      <trkpt lat="38.1486120" lon="-3.7839450">
        <ele>370.8</ele>
        <time>2018-04-28T09:46:18Z</time>
      </trkpt>
      <trkpt lat="38.1486540" lon="-3.7838890">
        <ele>370.8</ele>
        <time>2018-04-28T09:46:19Z</time>
      </trkpt>
      <trkpt lat="38.1486950" lon="-3.7838320">
        <ele>371.2</ele>
        <time>2018-04-28T09:46:20Z</time>
      </trkpt>
      <trkpt lat="38.1487370" lon="-3.7837750">
        <ele>370.8</ele>
        <time>2018-04-28T09:46:21Z</time>
      </trkpt>
      <trkpt lat="38.1487780" lon="-3.7837160">
        <ele>371.0</ele>
        <time>2018-04-28T09:46:22Z</time>
      </trkpt>
      <trkpt lat="38.1488190" lon="-3.7836570">
        <ele>371.0</ele>
        <time>2018-04-28T09:46:23Z</time>
      </trkpt>
      <trkpt lat="38.1488560" lon="-3.7835940">
        <ele>371.2</ele>
        <time>2018-04-28T09:46:24Z</time>
      </trkpt>
      <trkpt lat="38.1488920" lon="-3.7835290">
        <ele>371.2</ele>
        <time>2018-04-28T09:46:25Z</time>
      </trkpt>
      <trkpt lat="38.1489250" lon="-3.7834610">
        <ele>371.2</ele>
        <time>2018-04-28T09:46:26Z</time>
      </trkpt>
      <trkpt lat="38.1489580" lon="-3.7833910">
        <ele>371.2</ele>
        <time>2018-04-28T09:46:27Z</time>
      </trkpt>
      <trkpt lat="38.1489900" lon="-3.7833160">
        <ele>371.0</ele>
        <time>2018-04-28T09:46:28Z</time>
      </trkpt>
      <trkpt lat="38.1490220" lon="-3.7832410">
        <ele>370.8</ele>
        <time>2018-04-28T09:46:29Z</time>
      </trkpt>
      <trkpt lat="38.1490570" lon="-3.7831650">
        <ele>370.6</ele>
        <time>2018-04-28T09:46:30Z</time>
      </trkpt>
      <trkpt lat="38.1490940" lon="-3.7830870">
        <ele>370.2</ele>
        <time>2018-04-28T09:46:31Z</time>
      </trkpt>
      <trkpt lat="38.1491330" lon="-3.7830090">
        <ele>370.2</ele>
        <time>2018-04-28T09:46:32Z</time>
      </trkpt>
      <trkpt lat="38.1491750" lon="-3.7829290">
        <ele>370.2</ele>
        <time>2018-04-28T09:46:33Z</time>
      </trkpt>
      <trkpt lat="38.1492200" lon="-3.7828520">
        <ele>370.2</ele>
        <time>2018-04-28T09:46:34Z</time>
      </trkpt>
      <trkpt lat="38.1492670" lon="-3.7827760">
        <ele>370.2</ele>
        <time>2018-04-28T09:46:35Z</time>
      </trkpt>
      <trkpt lat="38.1493130" lon="-3.7826990">
        <ele>369.8</ele>
        <time>2018-04-28T09:46:36Z</time>
      </trkpt>
      <trkpt lat="38.1493590" lon="-3.7826180">
        <ele>369.4</ele>
        <time>2018-04-28T09:46:37Z</time>
      </trkpt>
      <trkpt lat="38.1494050" lon="-3.7825360">
        <ele>369.2</ele>
        <time>2018-04-28T09:46:38Z</time>
      </trkpt>
      <trkpt lat="38.1494530" lon="-3.7824500">
        <ele>369.0</ele>
        <time>2018-04-28T09:46:39Z</time>
      </trkpt>
      <trkpt lat="38.1495020" lon="-3.7823630">
        <ele>368.8</ele>
        <time>2018-04-28T09:46:40Z</time>
      </trkpt>
      <trkpt lat="38.1495540" lon="-3.7822760">
        <ele>368.6</ele>
        <time>2018-04-28T09:46:41Z</time>
      </trkpt>
      <trkpt lat="38.1496080" lon="-3.7821900">
        <ele>368.2</ele>
        <time>2018-04-28T09:46:42Z</time>
      </trkpt>
      <trkpt lat="38.1496660" lon="-3.7821030">
        <ele>368.2</ele>
        <time>2018-04-28T09:46:43Z</time>
      </trkpt>
      <trkpt lat="38.1497310" lon="-3.7820200">
        <ele>368.2</ele>
        <time>2018-04-28T09:46:44Z</time>
      </trkpt>
      <trkpt lat="38.1497980" lon="-3.7819420">
        <ele>368.0</ele>
        <time>2018-04-28T09:46:45Z</time>
      </trkpt>
      <trkpt lat="38.1498670" lon="-3.7818710">
        <ele>367.6</ele>
        <time>2018-04-28T09:46:46Z</time>
      </trkpt>
      <trkpt lat="38.1499370" lon="-3.7818000">
        <ele>367.6</ele>
        <time>2018-04-28T09:46:47Z</time>
      </trkpt>
      <trkpt lat="38.1500090" lon="-3.7817310">
        <ele>367.6</ele>
        <time>2018-04-28T09:46:48Z</time>
      </trkpt>
      <trkpt lat="38.1500830" lon="-3.7816620">
        <ele>366.8</ele>
        <time>2018-04-28T09:46:49Z</time>
      </trkpt>
      <trkpt lat="38.1501550" lon="-3.7815920">
        <ele>367.0</ele>
        <time>2018-04-28T09:46:50Z</time>
      </trkpt>
      <trkpt lat="38.1502290" lon="-3.7815230">
        <ele>367.2</ele>
        <time>2018-04-28T09:46:51Z</time>
      </trkpt>
      <trkpt lat="38.1503010" lon="-3.7814570">
        <ele>367.0</ele>
        <time>2018-04-28T09:46:52Z</time>
      </trkpt>
      <trkpt lat="38.1503760" lon="-3.7813920">
        <ele>366.8</ele>
        <time>2018-04-28T09:46:53Z</time>
      </trkpt>
      <trkpt lat="38.1504470" lon="-3.7813230">
        <ele>366.8</ele>
        <time>2018-04-28T09:46:54Z</time>
      </trkpt>
      <trkpt lat="38.1505160" lon="-3.7812510">
        <ele>366.8</ele>
        <time>2018-04-28T09:46:55Z</time>
      </trkpt>
      <trkpt lat="38.1505850" lon="-3.7811790">
        <ele>367.0</ele>
        <time>2018-04-28T09:46:56Z</time>
      </trkpt>
      <trkpt lat="38.1506530" lon="-3.7811060">
        <ele>366.8</ele>
        <time>2018-04-28T09:46:57Z</time>
      </trkpt>
      <trkpt lat="38.1507200" lon="-3.7810340">
        <ele>367.0</ele>
        <time>2018-04-28T09:46:58Z</time>
      </trkpt>
      <trkpt lat="38.1507900" lon="-3.7809660">
        <ele>366.8</ele>
        <time>2018-04-28T09:46:59Z</time>
      </trkpt>
      <trkpt lat="38.1508600" lon="-3.7808970">
        <ele>366.6</ele>
        <time>2018-04-28T09:47:00Z</time>
      </trkpt>
      <trkpt lat="38.1509290" lon="-3.7808260">
        <ele>366.4</ele>
        <time>2018-04-28T09:47:01Z</time>
      </trkpt>
      <trkpt lat="38.1509980" lon="-3.7807540">
        <ele>366.4</ele>
        <time>2018-04-28T09:47:02Z</time>
      </trkpt>
      <trkpt lat="38.1510670" lon="-3.7806830">
        <ele>366.4</ele>
        <time>2018-04-28T09:47:03Z</time>
      </trkpt>
      <trkpt lat="38.1511370" lon="-3.7806110">
        <ele>366.4</ele>
        <time>2018-04-28T09:47:04Z</time>
      </trkpt>
      <trkpt lat="38.1512050" lon="-3.7805370">
        <ele>366.4</ele>
        <time>2018-04-28T09:47:05Z</time>
      </trkpt>
      <trkpt lat="38.1512730" lon="-3.7804650">
        <ele>366.2</ele>
        <time>2018-04-28T09:47:06Z</time>
      </trkpt>
      <trkpt lat="38.1513410" lon="-3.7803960">
        <ele>366.2</ele>
        <time>2018-04-28T09:47:07Z</time>
      </trkpt>
      <trkpt lat="38.1514090" lon="-3.7803260">
        <ele>366.4</ele>
        <time>2018-04-28T09:47:08Z</time>
      </trkpt>
      <trkpt lat="38.1514740" lon="-3.7802540">
        <ele>366.4</ele>
        <time>2018-04-28T09:47:09Z</time>
      </trkpt>
      <trkpt lat="38.1515390" lon="-3.7801830">
        <ele>366.2</ele>
        <time>2018-04-28T09:47:10Z</time>
      </trkpt>
      <trkpt lat="38.1516010" lon="-3.7801100">
        <ele>366.6</ele>
        <time>2018-04-28T09:47:11Z</time>
      </trkpt>
      <trkpt lat="38.1516590" lon="-3.7800340">
        <ele>366.6</ele>
        <time>2018-04-28T09:47:12Z</time>
      </trkpt>
      <trkpt lat="38.1517180" lon="-3.7799600">
        <ele>366.4</ele>
        <time>2018-04-28T09:47:13Z</time>
      </trkpt>
      <trkpt lat="38.1517780" lon="-3.7798890">
        <ele>366.4</ele>
        <time>2018-04-28T09:47:14Z</time>
      </trkpt>
      <trkpt lat="38.1518380" lon="-3.7798210">
        <ele>366.4</ele>
        <time>2018-04-28T09:47:15Z</time>
      </trkpt>
      <trkpt lat="38.1519010" lon="-3.7797530">
        <ele>366.2</ele>
        <time>2018-04-28T09:47:16Z</time>
      </trkpt>
      <trkpt lat="38.1519650" lon="-3.7796860">
        <ele>366.2</ele>
        <time>2018-04-28T09:47:17Z</time>
      </trkpt>
      <trkpt lat="38.1520290" lon="-3.7796190">
        <ele>366.0</ele>
        <time>2018-04-28T09:47:18Z</time>
      </trkpt>
      <trkpt lat="38.1520940" lon="-3.7795530">
        <ele>366.0</ele>
        <time>2018-04-28T09:47:19Z</time>
      </trkpt>
      <trkpt lat="38.1521630" lon="-3.7794930">
        <ele>366.2</ele>
        <time>2018-04-28T09:47:20Z</time>
      </trkpt>
      <trkpt lat="38.1522320" lon="-3.7794360">
        <ele>364.8</ele>
        <time>2018-04-28T09:47:21Z</time>
      </trkpt>
      <trkpt lat="38.1523020" lon="-3.7793840">
        <ele>358.8</ele>
        <time>2018-04-28T09:47:22Z</time>
      </trkpt>
      <trkpt lat="38.1523740" lon="-3.7793390">
        <ele>366.2</ele>
        <time>2018-04-28T09:47:23Z</time>
      </trkpt>
      <trkpt lat="38.1524460" lon="-3.7792930">
        <ele>366.0</ele>
        <time>2018-04-28T09:47:24Z</time>
      </trkpt>
      <trkpt lat="38.1525170" lon="-3.7792440">
        <ele>365.8</ele>
        <time>2018-04-28T09:47:25Z</time>
      </trkpt>
      <trkpt lat="38.1525840" lon="-3.7791920">
        <ele>366.0</ele>
        <time>2018-04-28T09:47:26Z</time>
      </trkpt>
      <trkpt lat="38.1526520" lon="-3.7791410">
        <ele>366.0</ele>
        <time>2018-04-28T09:47:27Z</time>
      </trkpt>
      <trkpt lat="38.1527210" lon="-3.7790940">
        <ele>366.2</ele>
        <time>2018-04-28T09:47:28Z</time>
      </trkpt>
      <trkpt lat="38.1527890" lon="-3.7790520">
        <ele>366.0</ele>
        <time>2018-04-28T09:47:29Z</time>
      </trkpt>
      <trkpt lat="38.1528570" lon="-3.7790100">
        <ele>366.2</ele>
        <time>2018-04-28T09:47:30Z</time>
      </trkpt>
      <trkpt lat="38.1529240" lon="-3.7789640">
        <ele>366.2</ele>
        <time>2018-04-28T09:47:31Z</time>
      </trkpt>
      <trkpt lat="38.1529880" lon="-3.7789150">
        <ele>366.4</ele>
        <time>2018-04-28T09:47:32Z</time>
      </trkpt>
      <trkpt lat="38.1530550" lon="-3.7788670">
        <ele>366.4</ele>
        <time>2018-04-28T09:47:33Z</time>
      </trkpt>
      <trkpt lat="38.1531180" lon="-3.7788160">
        <ele>366.4</ele>
        <time>2018-04-28T09:47:34Z</time>
      </trkpt>
      <trkpt lat="38.1531800" lon="-3.7787640">
        <ele>366.4</ele>
        <time>2018-04-28T09:47:35Z</time>
      </trkpt>
      <trkpt lat="38.1532400" lon="-3.7787110">
        <ele>366.6</ele>
        <time>2018-04-28T09:47:36Z</time>
      </trkpt>
      <trkpt lat="38.1533010" lon="-3.7786600">
        <ele>366.8</ele>
        <time>2018-04-28T09:47:37Z</time>
      </trkpt>
      <trkpt lat="38.1533600" lon="-3.7786080">
        <ele>366.8</ele>
        <time>2018-04-28T09:47:38Z</time>
      </trkpt>
      <trkpt lat="38.1534210" lon="-3.7785570">
        <ele>366.8</ele>
        <time>2018-04-28T09:47:39Z</time>
      </trkpt>
      <trkpt lat="38.1534840" lon="-3.7785070">
        <ele>367.0</ele>
        <time>2018-04-28T09:47:40Z</time>
      </trkpt>
      <trkpt lat="38.1535480" lon="-3.7784600">
        <ele>366.8</ele>
        <time>2018-04-28T09:47:41Z</time>
      </trkpt>
      <trkpt lat="38.1536110" lon="-3.7784120">
        <ele>367.2</ele>
        <time>2018-04-28T09:47:42Z</time>
      </trkpt>
      <trkpt lat="38.1536740" lon="-3.7783660">
        <ele>367.2</ele>
        <time>2018-04-28T09:47:43Z</time>
      </trkpt>
      <trkpt lat="38.1537370" lon="-3.7783210">
        <ele>367.4</ele>
        <time>2018-04-28T09:47:44Z</time>
      </trkpt>
      <trkpt lat="38.1538010" lon="-3.7782760">
        <ele>367.4</ele>
        <time>2018-04-28T09:47:45Z</time>
      </trkpt>
      <trkpt lat="38.1538650" lon="-3.7782310">
        <ele>367.6</ele>
        <time>2018-04-28T09:47:46Z</time>
      </trkpt>
      <trkpt lat="38.1539290" lon="-3.7781860">
        <ele>367.8</ele>
        <time>2018-04-28T09:47:47Z</time>
      </trkpt>
      <trkpt lat="38.1539920" lon="-3.7781390">
        <ele>367.8</ele>
        <time>2018-04-28T09:47:48Z</time>
      </trkpt>
      <trkpt lat="38.1540540" lon="-3.7780900">
        <ele>367.8</ele>
        <time>2018-04-28T09:47:49Z</time>
      </trkpt>
      <trkpt lat="38.1541170" lon="-3.7780440">
        <ele>367.8</ele>
        <time>2018-04-28T09:47:50Z</time>
      </trkpt>
      <trkpt lat="38.1541800" lon="-3.7779990">
        <ele>368.2</ele>
        <time>2018-04-28T09:47:51Z</time>
      </trkpt>
      <trkpt lat="38.1542410" lon="-3.7779550">
        <ele>368.2</ele>
        <time>2018-04-28T09:47:52Z</time>
      </trkpt>
      <trkpt lat="38.1543070" lon="-3.7779150">
        <ele>368.4</ele>
        <time>2018-04-28T09:47:53Z</time>
      </trkpt>
      <trkpt lat="38.1543700" lon="-3.7778720">
        <ele>368.2</ele>
        <time>2018-04-28T09:47:54Z</time>
      </trkpt>
      <trkpt lat="38.1544320" lon="-3.7778290">
        <ele>367.8</ele>
        <time>2018-04-28T09:47:55Z</time>
      </trkpt>
      <trkpt lat="38.1544950" lon="-3.7777850">
        <ele>367.8</ele>
        <time>2018-04-28T09:47:56Z</time>
      </trkpt>
      <trkpt lat="38.1545580" lon="-3.7777390">
        <ele>367.8</ele>
        <time>2018-04-28T09:47:57Z</time>
      </trkpt>
      <trkpt lat="38.1546210" lon="-3.7776880">
        <ele>367.6</ele>
        <time>2018-04-28T09:47:58Z</time>
      </trkpt>
      <trkpt lat="38.1546850" lon="-3.7776340">
        <ele>367.2</ele>
        <time>2018-04-28T09:47:59Z</time>
      </trkpt>
      <trkpt lat="38.1547520" lon="-3.7775770">
        <ele>367.0</ele>
        <time>2018-04-28T09:48:00Z</time>
      </trkpt>
      <trkpt lat="38.1548170" lon="-3.7775150">
        <ele>366.8</ele>
        <time>2018-04-28T09:48:01Z</time>
      </trkpt>
      <trkpt lat="38.1548840" lon="-3.7774520">
        <ele>366.6</ele>
        <time>2018-04-28T09:48:02Z</time>
      </trkpt>
      <trkpt lat="38.1549500" lon="-3.7773860">
        <ele>366.6</ele>
        <time>2018-04-28T09:48:03Z</time>
      </trkpt>
      <trkpt lat="38.1550150" lon="-3.7773190">
        <ele>366.4</ele>
        <time>2018-04-28T09:48:04Z</time>
      </trkpt>
      <trkpt lat="38.1550810" lon="-3.7772490">
        <ele>366.2</ele>
        <time>2018-04-28T09:48:05Z</time>
      </trkpt>
      <trkpt lat="38.1551480" lon="-3.7771810">
        <ele>366.0</ele>
        <time>2018-04-28T09:48:06Z</time>
      </trkpt>
      <trkpt lat="38.1552150" lon="-3.7771140">
        <ele>365.8</ele>
        <time>2018-04-28T09:48:07Z</time>
      </trkpt>
      <trkpt lat="38.1552820" lon="-3.7770480">
        <ele>365.6</ele>
        <time>2018-04-28T09:48:08Z</time>
      </trkpt>
      <trkpt lat="38.1553470" lon="-3.7769820">
        <ele>365.6</ele>
        <time>2018-04-28T09:48:09Z</time>
      </trkpt>
      <trkpt lat="38.1554150" lon="-3.7769200">
        <ele>365.6</ele>
        <time>2018-04-28T09:48:10Z</time>
      </trkpt>
      <trkpt lat="38.1554860" lon="-3.7768600">
        <ele>365.4</ele>
        <time>2018-04-28T09:48:11Z</time>
      </trkpt>
      <trkpt lat="38.1555580" lon="-3.7768050">
        <ele>365.4</ele>
        <time>2018-04-28T09:48:12Z</time>
      </trkpt>
      <trkpt lat="38.1556310" lon="-3.7767460">
        <ele>365.4</ele>
        <time>2018-04-28T09:48:13Z</time>
      </trkpt>
      <trkpt lat="38.1557050" lon="-3.7766850">
        <ele>365.2</ele>
        <time>2018-04-28T09:48:14Z</time>
      </trkpt>
      <trkpt lat="38.1557770" lon="-3.7766200">
        <ele>364.8</ele>
        <time>2018-04-28T09:48:15Z</time>
      </trkpt>
      <trkpt lat="38.1558480" lon="-3.7765510">
        <ele>364.6</ele>
        <time>2018-04-28T09:48:16Z</time>
      </trkpt>
      <trkpt lat="38.1559200" lon="-3.7764790">
        <ele>364.2</ele>
        <time>2018-04-28T09:48:17Z</time>
      </trkpt>
      <trkpt lat="38.1559920" lon="-3.7764060">
        <ele>364.0</ele>
        <time>2018-04-28T09:48:18Z</time>
      </trkpt>
      <trkpt lat="38.1560650" lon="-3.7763370">
        <ele>364.0</ele>
        <time>2018-04-28T09:48:19Z</time>
      </trkpt>
      <trkpt lat="38.1561370" lon="-3.7762700">
        <ele>363.4</ele>
        <time>2018-04-28T09:48:20Z</time>
      </trkpt>
      <trkpt lat="38.1562100" lon="-3.7762040">
        <ele>363.2</ele>
        <time>2018-04-28T09:48:21Z</time>
      </trkpt>
      <trkpt lat="38.1562830" lon="-3.7761390">
        <ele>363.0</ele>
        <time>2018-04-28T09:48:22Z</time>
      </trkpt>
      <trkpt lat="38.1563550" lon="-3.7760760">
        <ele>362.8</ele>
        <time>2018-04-28T09:48:23Z</time>
      </trkpt>
      <trkpt lat="38.1564300" lon="-3.7760160">
        <ele>362.6</ele>
        <time>2018-04-28T09:48:24Z</time>
      </trkpt>
      <trkpt lat="38.1565050" lon="-3.7759560">
        <ele>362.2</ele>
        <time>2018-04-28T09:48:25Z</time>
      </trkpt>
      <trkpt lat="38.1565800" lon="-3.7758970">
        <ele>362.0</ele>
        <time>2018-04-28T09:48:26Z</time>
      </trkpt>
      <trkpt lat="38.1566560" lon="-3.7758400">
        <ele>361.6</ele>
        <time>2018-04-28T09:48:27Z</time>
      </trkpt>
      <trkpt lat="38.1567320" lon="-3.7757860">
        <ele>361.6</ele>
        <time>2018-04-28T09:48:28Z</time>
      </trkpt>
      <trkpt lat="38.1568100" lon="-3.7757350">
        <ele>361.2</ele>
        <time>2018-04-28T09:48:29Z</time>
      </trkpt>
      <trkpt lat="38.1568880" lon="-3.7756840">
        <ele>361.4</ele>
        <time>2018-04-28T09:48:30Z</time>
      </trkpt>
      <trkpt lat="38.1569650" lon="-3.7756340">
        <ele>361.0</ele>
        <time>2018-04-28T09:48:31Z</time>
      </trkpt>
      <trkpt lat="38.1570420" lon="-3.7755830">
        <ele>361.0</ele>
        <time>2018-04-28T09:48:32Z</time>
      </trkpt>
      <trkpt lat="38.1571180" lon="-3.7755290">
        <ele>360.6</ele>
        <time>2018-04-28T09:48:33Z</time>
      </trkpt>
      <trkpt lat="38.1571950" lon="-3.7754740">
        <ele>360.4</ele>
        <time>2018-04-28T09:48:34Z</time>
      </trkpt>
      <trkpt lat="38.1572710" lon="-3.7754190">
        <ele>360.4</ele>
        <time>2018-04-28T09:48:35Z</time>
      </trkpt>
      <trkpt lat="38.1573480" lon="-3.7753640">
        <ele>360.2</ele>
        <time>2018-04-28T09:48:36Z</time>
      </trkpt>
      <trkpt lat="38.1574260" lon="-3.7753100">
        <ele>360.0</ele>
        <time>2018-04-28T09:48:37Z</time>
      </trkpt>
      <trkpt lat="38.1575050" lon="-3.7752570">
        <ele>360.0</ele>
        <time>2018-04-28T09:48:38Z</time>
      </trkpt>
      <trkpt lat="38.1575800" lon="-3.7752020">
        <ele>359.8</ele>
        <time>2018-04-28T09:48:39Z</time>
      </trkpt>
      <trkpt lat="38.1576560" lon="-3.7751480">
        <ele>359.8</ele>
        <time>2018-04-28T09:48:40Z</time>
      </trkpt>
      <trkpt lat="38.1577320" lon="-3.7750960">
        <ele>360.0</ele>
        <time>2018-04-28T09:48:41Z</time>
      </trkpt>
      <trkpt lat="38.1578080" lon="-3.7750470">
        <ele>359.8</ele>
        <time>2018-04-28T09:48:42Z</time>
      </trkpt>
      <trkpt lat="38.1578800" lon="-3.7749960">
        <ele>359.8</ele>
        <time>2018-04-28T09:48:43Z</time>
      </trkpt>
      <trkpt lat="38.1579530" lon="-3.7749460">
        <ele>359.6</ele>
        <time>2018-04-28T09:48:44Z</time>
      </trkpt>
      <trkpt lat="38.1580240" lon="-3.7748950">
        <ele>359.6</ele>
        <time>2018-04-28T09:48:45Z</time>
      </trkpt>
      <trkpt lat="38.1580950" lon="-3.7748440">
        <ele>359.6</ele>
        <time>2018-04-28T09:48:46Z</time>
      </trkpt>
      <trkpt lat="38.1581650" lon="-3.7747920">
        <ele>359.8</ele>
        <time>2018-04-28T09:48:47Z</time>
      </trkpt>
      <trkpt lat="38.1582350" lon="-3.7747410">
        <ele>359.6</ele>
        <time>2018-04-28T09:48:48Z</time>
      </trkpt>
      <trkpt lat="38.1583030" lon="-3.7746880">
        <ele>359.6</ele>
        <time>2018-04-28T09:48:49Z</time>
      </trkpt>
      <trkpt lat="38.1583710" lon="-3.7746360">
        <ele>359.6</ele>
        <time>2018-04-28T09:48:50Z</time>
      </trkpt>
      <trkpt lat="38.1584370" lon="-3.7745830">
        <ele>359.8</ele>
        <time>2018-04-28T09:48:51Z</time>
      </trkpt>
      <trkpt lat="38.1585010" lon="-3.7745290">
        <ele>359.6</ele>
        <time>2018-04-28T09:48:52Z</time>
      </trkpt>
      <trkpt lat="38.1585640" lon="-3.7744730">
        <ele>359.8</ele>
        <time>2018-04-28T09:48:53Z</time>
      </trkpt>
      <trkpt lat="38.1586270" lon="-3.7744200">
        <ele>359.8</ele>
        <time>2018-04-28T09:48:54Z</time>
      </trkpt>
      <trkpt lat="38.1586870" lon="-3.7743680">
        <ele>360.2</ele>
        <time>2018-04-28T09:48:55Z</time>
      </trkpt>
      <trkpt lat="38.1587470" lon="-3.7743210">
        <ele>360.2</ele>
        <time>2018-04-28T09:48:56Z</time>
      </trkpt>
      <trkpt lat="38.1588060" lon="-3.7742780">
        <ele>360.2</ele>
        <time>2018-04-28T09:48:57Z</time>
      </trkpt>
      <trkpt lat="38.1588620" lon="-3.7742360">
        <ele>360.2</ele>
        <time>2018-04-28T09:48:58Z</time>
      </trkpt>
      <trkpt lat="38.1589170" lon="-3.7741940">
        <ele>360.2</ele>
        <time>2018-04-28T09:48:59Z</time>
      </trkpt>
      <trkpt lat="38.1589700" lon="-3.7741520">
        <ele>360.2</ele>
        <time>2018-04-28T09:49:00Z</time>
      </trkpt>
      <trkpt lat="38.1590190" lon="-3.7741130">
        <ele>360.0</ele>
        <time>2018-04-28T09:49:01Z</time>
      </trkpt>
      <trkpt lat="38.1590620" lon="-3.7740760">
        <ele>359.8</ele>
        <time>2018-04-28T09:49:02Z</time>
      </trkpt>
      <trkpt lat="38.1590990" lon="-3.7740390">
        <ele>359.4</ele>
        <time>2018-04-28T09:49:03Z</time>
      </trkpt>
      <trkpt lat="38.1591340" lon="-3.7740070">
        <ele>359.0</ele>
        <time>2018-04-28T09:49:04Z</time>
      </trkpt>
      <trkpt lat="38.1591650" lon="-3.7739810">
        <ele>358.8</ele>
        <time>2018-04-28T09:49:05Z</time>
      </trkpt>
      <trkpt lat="38.1591940" lon="-3.7739630">
        <ele>358.6</ele>
        <time>2018-04-28T09:49:06Z</time>
      </trkpt>
      <trkpt lat="38.1592190" lon="-3.7739520">
        <ele>358.4</ele>
        <time>2018-04-28T09:49:07Z</time>
      </trkpt>
      <trkpt lat="38.1592360" lon="-3.7739390">
        <ele>358.0</ele>
        <time>2018-04-28T09:49:08Z</time>
      </trkpt>
      <trkpt lat="38.1592760" lon="-3.7739140">
        <ele>358.0</ele>
        <time>2018-04-28T09:49:09Z</time>
      </trkpt>
      <trkpt lat="38.1593050" lon="-3.7738980">
        <ele>357.8</ele>
        <time>2018-04-28T09:49:10Z</time>
      </trkpt>
      <trkpt lat="38.1593350" lon="-3.7738830">
        <ele>358.0</ele>
        <time>2018-04-28T09:49:11Z</time>
      </trkpt>
      <trkpt lat="38.1593640" lon="-3.7738680">
        <ele>357.8</ele>
        <time>2018-04-28T09:49:12Z</time>
      </trkpt>
      <trkpt lat="38.1593930" lon="-3.7738520">
        <ele>357.8</ele>
        <time>2018-04-28T09:49:13Z</time>
      </trkpt>
      <trkpt lat="38.1594220" lon="-3.7738370">
        <ele>358.0</ele>
        <time>2018-04-28T09:49:14Z</time>
      </trkpt>
      <trkpt lat="38.1594510" lon="-3.7738210">
        <ele>358.0</ele>
        <time>2018-04-28T09:49:15Z</time>
      </trkpt>
      <trkpt lat="38.1594800" lon="-3.7738060">
        <ele>358.2</ele>
        <time>2018-04-28T09:49:16Z</time>
      </trkpt>
      <trkpt lat="38.1595100" lon="-3.7737910">
        <ele>358.2</ele>
        <time>2018-04-28T09:49:17Z</time>
      </trkpt>
      <trkpt lat="38.1595390" lon="-3.7737750">
        <ele>356.2</ele>
        <time>2018-04-28T09:51:34Z</time>
      </trkpt>
      <trkpt lat="38.1595680" lon="-3.7737600">
        <ele>356.0</ele>
        <time>2018-04-28T09:51:35Z</time>
      </trkpt>
      <trkpt lat="38.1596220" lon="-3.7737470">
        <ele>356.0</ele>
        <time>2018-04-28T09:51:36Z</time>
      </trkpt>
      <trkpt lat="38.1596790" lon="-3.7737290">
        <ele>355.6</ele>
        <time>2018-04-28T09:51:37Z</time>
      </trkpt>
      <trkpt lat="38.1597380" lon="-3.7737070">
        <ele>355.4</ele>
        <time>2018-04-28T09:51:38Z</time>
      </trkpt>
      <trkpt lat="38.1598020" lon="-3.7736840">
        <ele>355.2</ele>
        <time>2018-04-28T09:51:39Z</time>
      </trkpt>
      <trkpt lat="38.1598680" lon="-3.7736630">
        <ele>354.8</ele>
        <time>2018-04-28T09:51:40Z</time>
      </trkpt>
      <trkpt lat="38.1599330" lon="-3.7736370">
        <ele>355.0</ele>
        <time>2018-04-28T09:51:41Z</time>
      </trkpt>
      <trkpt lat="38.1600040" lon="-3.7736150">
        <ele>354.2</ele>
        <time>2018-04-28T09:51:42Z</time>
      </trkpt>
      <trkpt lat="38.1600800" lon="-3.7735950">
        <ele>353.6</ele>
        <time>2018-04-28T09:51:43Z</time>
      </trkpt>
      <trkpt lat="38.1601570" lon="-3.7735720">
        <ele>353.4</ele>
        <time>2018-04-28T09:51:44Z</time>
      </trkpt>
      <trkpt lat="38.1602340" lon="-3.7735470">
        <ele>352.8</ele>
        <time>2018-04-28T09:51:45Z</time>
      </trkpt>
      <trkpt lat="38.1603130" lon="-3.7735230">
        <ele>352.6</ele>
        <time>2018-04-28T09:51:46Z</time>
      </trkpt>
      <trkpt lat="38.1603940" lon="-3.7735000">
        <ele>352.6</ele>
        <time>2018-04-28T09:51:47Z</time>
      </trkpt>
      <trkpt lat="38.1604770" lon="-3.7734740">
        <ele>352.0</ele>
        <time>2018-04-28T09:51:48Z</time>
      </trkpt>
      <trkpt lat="38.1605600" lon="-3.7734490">
        <ele>351.6</ele>
        <time>2018-04-28T09:51:49Z</time>
      </trkpt>
      <trkpt lat="38.1606430" lon="-3.7734280">
        <ele>351.2</ele>
        <time>2018-04-28T09:51:50Z</time>
      </trkpt>
      <trkpt lat="38.1607260" lon="-3.7734070">
        <ele>351.2</ele>
        <time>2018-04-28T09:51:51Z</time>
      </trkpt>
      <trkpt lat="38.1608090" lon="-3.7733840">
        <ele>351.0</ele>
        <time>2018-04-28T09:51:52Z</time>
      </trkpt>
      <trkpt lat="38.1608920" lon="-3.7733630">
        <ele>350.8</ele>
        <time>2018-04-28T09:51:53Z</time>
      </trkpt>
      <trkpt lat="38.1609750" lon="-3.7733440">
        <ele>350.6</ele>
        <time>2018-04-28T09:51:54Z</time>
      </trkpt>
      <trkpt lat="38.1610580" lon="-3.7733260">
        <ele>350.8</ele>
        <time>2018-04-28T09:51:55Z</time>
      </trkpt>
      <trkpt lat="38.1611410" lon="-3.7733140">
        <ele>350.4</ele>
        <time>2018-04-28T09:51:56Z</time>
      </trkpt>
      <trkpt lat="38.1612220" lon="-3.7733080">
        <ele>350.6</ele>
        <time>2018-04-28T09:51:57Z</time>
      </trkpt>
      <trkpt lat="38.1613010" lon="-3.7733080">
        <ele>350.4</ele>
        <time>2018-04-28T09:51:58Z</time>
      </trkpt>
      <trkpt lat="38.1613770" lon="-3.7733180">
        <ele>350.6</ele>
        <time>2018-04-28T09:51:59Z</time>
      </trkpt>
      <trkpt lat="38.1614470" lon="-3.7733420">
        <ele>351.0</ele>
        <time>2018-04-28T09:52:00Z</time>
      </trkpt>
      <trkpt lat="38.1615120" lon="-3.7733780">
        <ele>350.6</ele>
        <time>2018-04-28T09:52:01Z</time>
      </trkpt>
      <trkpt lat="38.1615740" lon="-3.7734140">
        <ele>350.4</ele>
        <time>2018-04-28T09:52:02Z</time>
      </trkpt>
      <trkpt lat="38.1616370" lon="-3.7734460">
        <ele>350.4</ele>
        <time>2018-04-28T09:52:03Z</time>
      </trkpt>
      <trkpt lat="38.1617010" lon="-3.7734710">
        <ele>350.2</ele>
        <time>2018-04-28T09:52:04Z</time>
      </trkpt>
      <trkpt lat="38.1617640" lon="-3.7734850">
        <ele>350.2</ele>
        <time>2018-04-28T09:52:05Z</time>
      </trkpt>
      <trkpt lat="38.1618260" lon="-3.7734840">
        <ele>350.0</ele>
        <time>2018-04-28T09:52:06Z</time>
      </trkpt>
      <trkpt lat="38.1618880" lon="-3.7734690">
        <ele>350.4</ele>
        <time>2018-04-28T09:52:07Z</time>
      </trkpt>
      <trkpt lat="38.1619490" lon="-3.7734440">
        <ele>350.6</ele>
        <time>2018-04-28T09:52:08Z</time>
      </trkpt>
      <trkpt lat="38.1620100" lon="-3.7734150">
        <ele>350.8</ele>
        <time>2018-04-28T09:52:09Z</time>
      </trkpt>
      <trkpt lat="38.1620700" lon="-3.7733830">
        <ele>350.8</ele>
        <time>2018-04-28T09:52:10Z</time>
      </trkpt>
      <trkpt lat="38.1621280" lon="-3.7733470">
        <ele>350.8</ele>
        <time>2018-04-28T09:52:11Z</time>
      </trkpt>
      <trkpt lat="38.1621870" lon="-3.7733080">
        <ele>350.8</ele>
        <time>2018-04-28T09:52:12Z</time>
      </trkpt>
      <trkpt lat="38.1622470" lon="-3.7732680">
        <ele>350.8</ele>
        <time>2018-04-28T09:52:13Z</time>
      </trkpt>
      <trkpt lat="38.1623070" lon="-3.7732260">
        <ele>350.2</ele>
        <time>2018-04-28T09:52:14Z</time>
      </trkpt>
      <trkpt lat="38.1623680" lon="-3.7731830">
        <ele>350.4</ele>
        <time>2018-04-28T09:52:15Z</time>
      </trkpt>
      <trkpt lat="38.1624290" lon="-3.7731400">
        <ele>350.4</ele>
        <time>2018-04-28T09:52:16Z</time>
      </trkpt>
      <trkpt lat="38.1624900" lon="-3.7730960">
        <ele>350.4</ele>
        <time>2018-04-28T09:52:17Z</time>
      </trkpt>
      <trkpt lat="38.1625500" lon="-3.7730500">
        <ele>350.4</ele>
        <time>2018-04-28T09:52:18Z</time>
      </trkpt>
      <trkpt lat="38.1626090" lon="-3.7730070">
        <ele>350.2</ele>
        <time>2018-04-28T09:52:19Z</time>
      </trkpt>
      <trkpt lat="38.1626710" lon="-3.7729640">
        <ele>349.8</ele>
        <time>2018-04-28T09:52:20Z</time>
      </trkpt>
      <trkpt lat="38.1627340" lon="-3.7729220">
        <ele>349.6</ele>
        <time>2018-04-28T09:52:21Z</time>
      </trkpt>
      <trkpt lat="38.1628000" lon="-3.7728810">
        <ele>349.4</ele>
        <time>2018-04-28T09:52:22Z</time>
      </trkpt>
      <trkpt lat="38.1628690" lon="-3.7728400">
        <ele>349.4</ele>
        <time>2018-04-28T09:52:23Z</time>
      </trkpt>
      <trkpt lat="38.1629400" lon="-3.7728010">
        <ele>349.0</ele>
        <time>2018-04-28T09:52:24Z</time>
      </trkpt>
      <trkpt lat="38.1630090" lon="-3.7727610">
        <ele>348.6</ele>
        <time>2018-04-28T09:52:25Z</time>
      </trkpt>
      <trkpt lat="38.1630810" lon="-3.7727220">
        <ele>348.4</ele>
        <time>2018-04-28T09:52:26Z</time>
      </trkpt>
      <trkpt lat="38.1631520" lon="-3.7726850">
        <ele>348.8</ele>
        <time>2018-04-28T09:52:27Z</time>
      </trkpt>
      <trkpt lat="38.1632260" lon="-3.7726520">
        <ele>348.4</ele>
        <time>2018-04-28T09:52:28Z</time>
      </trkpt>
      <trkpt lat="38.1632980" lon="-3.7726180">
        <ele>348.0</ele>
        <time>2018-04-28T09:52:29Z</time>
      </trkpt>
      <trkpt lat="38.1633720" lon="-3.7725850">
        <ele>348.0</ele>
        <time>2018-04-28T09:52:30Z</time>
      </trkpt>
      <trkpt lat="38.1634480" lon="-3.7725560">
        <ele>347.8</ele>
        <time>2018-04-28T09:52:31Z</time>
      </trkpt>
      <trkpt lat="38.1635240" lon="-3.7725260">
        <ele>347.6</ele>
        <time>2018-04-28T09:52:32Z</time>
      </trkpt>
      <trkpt lat="38.1636000" lon="-3.7724940">
        <ele>347.4</ele>
        <time>2018-04-28T09:52:33Z</time>
      </trkpt>
      <trkpt lat="38.1636750" lon="-3.7724610">
        <ele>347.4</ele>
        <time>2018-04-28T09:52:34Z</time>
      </trkpt>
      <trkpt lat="38.1637500" lon="-3.7724260">
        <ele>347.2</ele>
        <time>2018-04-28T09:52:35Z</time>
      </trkpt>
      <trkpt lat="38.1638250" lon="-3.7723910">
        <ele>346.6</ele>
        <time>2018-04-28T09:52:36Z</time>
      </trkpt>
      <trkpt lat="38.1639020" lon="-3.7723580">
        <ele>346.8</ele>
        <time>2018-04-28T09:52:37Z</time>
      </trkpt>
      <trkpt lat="38.1639800" lon="-3.7723280">
        <ele>346.6</ele>
        <time>2018-04-28T09:52:38Z</time>
      </trkpt>
      <trkpt lat="38.1640590" lon="-3.7722970">
        <ele>346.6</ele>
        <time>2018-04-28T09:52:39Z</time>
      </trkpt>
      <trkpt lat="38.1641380" lon="-3.7722660">
        <ele>346.0</ele>
        <time>2018-04-28T09:52:40Z</time>
      </trkpt>
      <trkpt lat="38.1642180" lon="-3.7722320">
        <ele>345.8</ele>
        <time>2018-04-28T09:52:41Z</time>
      </trkpt>
      <trkpt lat="38.1642970" lon="-3.7722000">
        <ele>345.8</ele>
        <time>2018-04-28T09:52:42Z</time>
      </trkpt>
      <trkpt lat="38.1643790" lon="-3.7721730">
        <ele>345.4</ele>
        <time>2018-04-28T09:52:43Z</time>
      </trkpt>
      <trkpt lat="38.1644630" lon="-3.7721490">
        <ele>345.2</ele>
        <time>2018-04-28T09:52:44Z</time>
      </trkpt>
      <trkpt lat="38.1645470" lon="-3.7721280">
        <ele>345.0</ele>
        <time>2018-04-28T09:52:45Z</time>
      </trkpt>
      <trkpt lat="38.1646340" lon="-3.7721150">
        <ele>344.4</ele>
        <time>2018-04-28T09:52:46Z</time>
      </trkpt>
      <trkpt lat="38.1647200" lon="-3.7721060">
        <ele>344.4</ele>
        <time>2018-04-28T09:52:47Z</time>
      </trkpt>
      <trkpt lat="38.1648050" lon="-3.7720970">
        <ele>344.4</ele>
        <time>2018-04-28T09:52:48Z</time>
      </trkpt>
      <trkpt lat="38.1648900" lon="-3.7720910">
        <ele>344.6</ele>
        <time>2018-04-28T09:52:49Z</time>
      </trkpt>
      <trkpt lat="38.1649740" lon="-3.7720860">
        <ele>344.0</ele>
        <time>2018-04-28T09:52:50Z</time>
      </trkpt>
      <trkpt lat="38.1650580" lon="-3.7720800">
        <ele>344.0</ele>
        <time>2018-04-28T09:52:51Z</time>
      </trkpt>
      <trkpt lat="38.1651410" lon="-3.7720750">
        <ele>343.8</ele>
        <time>2018-04-28T09:52:52Z</time>
      </trkpt>
      <trkpt lat="38.1652240" lon="-3.7720670">
        <ele>343.8</ele>
        <time>2018-04-28T09:52:53Z</time>
      </trkpt>
      <trkpt lat="38.1653050" lon="-3.7720570">
        <ele>343.6</ele>
        <time>2018-04-28T09:52:54Z</time>
      </trkpt>
      <trkpt lat="38.1653840" lon="-3.7720410">
        <ele>343.8</ele>
        <time>2018-04-28T09:52:55Z</time>
      </trkpt>
      <trkpt lat="38.1654590" lon="-3.7720200">
        <ele>343.8</ele>
        <time>2018-04-28T09:52:56Z</time>
      </trkpt>
      <trkpt lat="38.1655330" lon="-3.7719990">
        <ele>344.0</ele>
        <time>2018-04-28T09:52:57Z</time>
      </trkpt>
      <trkpt lat="38.1656050" lon="-3.7719810">
        <ele>344.0</ele>
        <time>2018-04-28T09:52:58Z</time>
      </trkpt>
      <trkpt lat="38.1656750" lon="-3.7719630">
        <ele>344.0</ele>
        <time>2018-04-28T09:52:59Z</time>
      </trkpt>
      <trkpt lat="38.1657440" lon="-3.7719470">
        <ele>344.2</ele>
        <time>2018-04-28T09:53:00Z</time>
      </trkpt>
      <trkpt lat="38.1658110" lon="-3.7719320">
        <ele>344.2</ele>
        <time>2018-04-28T09:53:01Z</time>
      </trkpt>
      <trkpt lat="38.1658770" lon="-3.7719180">
        <ele>344.6</ele>
        <time>2018-04-28T09:53:02Z</time>
      </trkpt>
      <trkpt lat="38.1659430" lon="-3.7719040">
        <ele>344.2</ele>
        <time>2018-04-28T09:53:03Z</time>
      </trkpt>
      <trkpt lat="38.1660080" lon="-3.7718930">
        <ele>344.4</ele>
        <time>2018-04-28T09:53:04Z</time>
      </trkpt>
      <trkpt lat="38.1660740" lon="-3.7718860">
        <ele>344.6</ele>
        <time>2018-04-28T09:53:05Z</time>
      </trkpt>
      <trkpt lat="38.1661410" lon="-3.7718890">
        <ele>344.8</ele>
        <time>2018-04-28T09:53:06Z</time>
      </trkpt>
      <trkpt lat="38.1662080" lon="-3.7718910">
        <ele>345.0</ele>
        <time>2018-04-28T09:53:07Z</time>
      </trkpt>
      <trkpt lat="38.1662760" lon="-3.7718970">
        <ele>345.2</ele>
        <time>2018-04-28T09:53:08Z</time>
      </trkpt>
      <trkpt lat="38.1663420" lon="-3.7719030">
        <ele>345.4</ele>
        <time>2018-04-28T09:53:09Z</time>
      </trkpt>
      <trkpt lat="38.1664070" lon="-3.7719070">
        <ele>345.6</ele>
        <time>2018-04-28T09:53:10Z</time>
      </trkpt>
      <trkpt lat="38.1664720" lon="-3.7719110">
        <ele>345.8</ele>
        <time>2018-04-28T09:53:11Z</time>
      </trkpt>
      <trkpt lat="38.1665360" lon="-3.7719160">
        <ele>346.0</ele>
        <time>2018-04-28T09:53:12Z</time>
      </trkpt>
      <trkpt lat="38.1665990" lon="-3.7719210">
        <ele>346.4</ele>
        <time>2018-04-28T09:53:13Z</time>
      </trkpt>
      <trkpt lat="38.1666590" lon="-3.7719240">
        <ele>346.2</ele>
        <time>2018-04-28T09:53:14Z</time>
      </trkpt>
      <trkpt lat="38.1667190" lon="-3.7719290">
        <ele>346.4</ele>
        <time>2018-04-28T09:53:15Z</time>
      </trkpt>
      <trkpt lat="38.1667770" lon="-3.7719340">
        <ele>346.4</ele>
        <time>2018-04-28T09:53:16Z</time>
      </trkpt>
      <trkpt lat="38.1668320" lon="-3.7719380">
        <ele>347.2</ele>
        <time>2018-04-28T09:53:17Z</time>
      </trkpt>
      <trkpt lat="38.1668870" lon="-3.7719420">
        <ele>346.8</ele>
        <time>2018-04-28T09:53:18Z</time>
      </trkpt>
      <trkpt lat="38.1669410" lon="-3.7719470">
        <ele>347.2</ele>
        <time>2018-04-28T09:53:19Z</time>
      </trkpt>
      <trkpt lat="38.1669940" lon="-3.7719520">
        <ele>347.4</ele>
        <time>2018-04-28T09:53:20Z</time>
      </trkpt>
      <trkpt lat="38.1670460" lon="-3.7719560">
        <ele>347.8</ele>
        <time>2018-04-28T09:53:21Z</time>
      </trkpt>
      <trkpt lat="38.1670960" lon="-3.7719600">
        <ele>348.2</ele>
        <time>2018-04-28T09:53:22Z</time>
      </trkpt>
      <trkpt lat="38.1671440" lon="-3.7719630">
        <ele>348.4</ele>
        <time>2018-04-28T09:53:23Z</time>
      </trkpt>
      <trkpt lat="38.1671930" lon="-3.7719640">
        <ele>348.8</ele>
        <time>2018-04-28T09:53:24Z</time>
      </trkpt>
      <trkpt lat="38.1672370" lon="-3.7719660">
        <ele>348.8</ele>
        <time>2018-04-28T09:53:25Z</time>
      </trkpt>
      <trkpt lat="38.1672790" lon="-3.7719670">
        <ele>349.0</ele>
        <time>2018-04-28T09:53:26Z</time>
      </trkpt>
      <trkpt lat="38.1673220" lon="-3.7719680">
        <ele>349.4</ele>
        <time>2018-04-28T09:53:27Z</time>
      </trkpt>
      <trkpt lat="38.1673620" lon="-3.7719710">
        <ele>349.6</ele>
        <time>2018-04-28T09:53:28Z</time>
      </trkpt>
      <trkpt lat="38.1674010" lon="-3.7719700">
        <ele>349.6</ele>
        <time>2018-04-28T09:53:29Z</time>
      </trkpt>
      <trkpt lat="38.1674400" lon="-3.7719710">
        <ele>350.0</ele>
        <time>2018-04-28T09:53:30Z</time>
      </trkpt>
      <trkpt lat="38.1674790" lon="-3.7719720">
        <ele>350.0</ele>
        <time>2018-04-28T09:53:31Z</time>
      </trkpt>
      <trkpt lat="38.1675180" lon="-3.7719710">
        <ele>350.4</ele>
        <time>2018-04-28T09:53:32Z</time>
      </trkpt>
      <trkpt lat="38.1675570" lon="-3.7719710">
        <ele>350.8</ele>
        <time>2018-04-28T09:53:33Z</time>
      </trkpt>
      <trkpt lat="38.1675960" lon="-3.7719750">
        <ele>351.4</ele>
        <time>2018-04-28T09:53:34Z</time>
      </trkpt>
      <trkpt lat="38.1676340" lon="-3.7719810">
        <ele>351.4</ele>
        <time>2018-04-28T09:53:35Z</time>
      </trkpt>
      <trkpt lat="38.1676710" lon="-3.7719850">
        <ele>351.6</ele>
        <time>2018-04-28T09:53:36Z</time>
      </trkpt>
      <trkpt lat="38.1677050" lon="-3.7719920">
        <ele>351.8</ele>
        <time>2018-04-28T09:53:37Z</time>
      </trkpt>
      <trkpt lat="38.1677360" lon="-3.7720010">
        <ele>352.0</ele>
        <time>2018-04-28T09:53:38Z</time>
      </trkpt>
      <trkpt lat="38.1677670" lon="-3.7720120">
        <ele>352.4</ele>
        <time>2018-04-28T09:53:39Z</time>
      </trkpt>
      <trkpt lat="38.1677970" lon="-3.7720230">
        <ele>352.8</ele>
        <time>2018-04-28T09:53:40Z</time>
      </trkpt>
      <trkpt lat="38.1678260" lon="-3.7720370">
        <ele>353.2</ele>
        <time>2018-04-28T09:53:41Z</time>
      </trkpt>
      <trkpt lat="38.1678550" lon="-3.7720520">
        <ele>353.2</ele>
        <time>2018-04-28T09:53:42Z</time>
      </trkpt>
      <trkpt lat="38.1678820" lon="-3.7720690">
        <ele>353.6</ele>
        <time>2018-04-28T09:53:43Z</time>
      </trkpt>
      <trkpt lat="38.1679070" lon="-3.7720900">
        <ele>354.0</ele>
        <time>2018-04-28T09:53:44Z</time>
      </trkpt>
      <trkpt lat="38.1679310" lon="-3.7721120">
        <ele>354.2</ele>
        <time>2018-04-28T09:53:45Z</time>
      </trkpt>
      <trkpt lat="38.1679530" lon="-3.7721390">
        <ele>354.6</ele>
        <time>2018-04-28T09:53:46Z</time>
      </trkpt>
      <trkpt lat="38.1679720" lon="-3.7721670">
        <ele>355.0</ele>
        <time>2018-04-28T09:53:47Z</time>
      </trkpt>
      <trkpt lat="38.1679890" lon="-3.7721970">
        <ele>355.2</ele>
        <time>2018-04-28T09:53:48Z</time>
      </trkpt>
      <trkpt lat="38.1680050" lon="-3.7722260">
        <ele>355.4</ele>
        <time>2018-04-28T09:53:49Z</time>
      </trkpt>
      <trkpt lat="38.1680200" lon="-3.7722560">
        <ele>355.6</ele>
        <time>2018-04-28T09:53:50Z</time>
      </trkpt>
      <trkpt lat="38.1680340" lon="-3.7722900">
        <ele>355.6</ele>
        <time>2018-04-28T09:53:51Z</time>
      </trkpt>
      <trkpt lat="38.1680450" lon="-3.7723220">
        <ele>356.0</ele>
        <time>2018-04-28T09:53:52Z</time>
      </trkpt>
      <trkpt lat="38.1680550" lon="-3.7723540">
        <ele>356.0</ele>
        <time>2018-04-28T09:53:53Z</time>
      </trkpt>
      <trkpt lat="38.1680620" lon="-3.7723860">
        <ele>356.0</ele>
        <time>2018-04-28T09:53:54Z</time>
      </trkpt>
      <trkpt lat="38.1680700" lon="-3.7724160">
        <ele>356.4</ele>
        <time>2018-04-28T09:53:55Z</time>
      </trkpt>
      <trkpt lat="38.1680800" lon="-3.7724470">
        <ele>356.6</ele>
        <time>2018-04-28T09:53:56Z</time>
      </trkpt>
      <trkpt lat="38.1680870" lon="-3.7724770">
        <ele>356.6</ele>
        <time>2018-04-28T09:53:57Z</time>
      </trkpt>
      <trkpt lat="38.1680930" lon="-3.7725080">
        <ele>356.8</ele>
        <time>2018-04-28T09:53:58Z</time>
      </trkpt>
      <trkpt lat="38.1681020" lon="-3.7725390">
        <ele>357.0</ele>
        <time>2018-04-28T09:53:59Z</time>
      </trkpt>
      <trkpt lat="38.1681110" lon="-3.7725700">
        <ele>357.0</ele>
        <time>2018-04-28T09:54:00Z</time>
      </trkpt>
      <trkpt lat="38.1681180" lon="-3.7726020">
        <ele>357.2</ele>
        <time>2018-04-28T09:54:01Z</time>
      </trkpt>
      <trkpt lat="38.1681250" lon="-3.7726330">
        <ele>357.4</ele>
        <time>2018-04-28T09:54:02Z</time>
      </trkpt>
      <trkpt lat="38.1681320" lon="-3.7726650">
        <ele>358.0</ele>
        <time>2018-04-28T09:54:03Z</time>
      </trkpt>
      <trkpt lat="38.1681400" lon="-3.7726970">
        <ele>358.0</ele>
        <time>2018-04-28T09:54:04Z</time>
      </trkpt>
      <trkpt lat="38.1681480" lon="-3.7727290">
        <ele>358.2</ele>
        <time>2018-04-28T09:54:05Z</time>
      </trkpt>
      <trkpt lat="38.1681540" lon="-3.7727600">
        <ele>358.4</ele>
        <time>2018-04-28T09:54:06Z</time>
      </trkpt>
      <trkpt lat="38.1681600" lon="-3.7727910">
        <ele>358.4</ele>
        <time>2018-04-28T09:54:07Z</time>
      </trkpt>
      <trkpt lat="38.1681680" lon="-3.7728210">
        <ele>358.6</ele>
        <time>2018-04-28T09:54:08Z</time>
      </trkpt>
      <trkpt lat="38.1681780" lon="-3.7728510">
        <ele>359.2</ele>
        <time>2018-04-28T09:54:09Z</time>
      </trkpt>
      <trkpt lat="38.1681870" lon="-3.7728810">
        <ele>359.2</ele>
        <time>2018-04-28T09:54:10Z</time>
      </trkpt>
      <trkpt lat="38.1681950" lon="-3.7729110">
        <ele>359.4</ele>
        <time>2018-04-28T09:54:11Z</time>
      </trkpt>
      <trkpt lat="38.1682030" lon="-3.7729400">
        <ele>359.6</ele>
        <time>2018-04-28T09:54:12Z</time>
      </trkpt>
      <trkpt lat="38.1682120" lon="-3.7729680">
        <ele>359.6</ele>
        <time>2018-04-28T09:54:13Z</time>
      </trkpt>
      <trkpt lat="38.1682210" lon="-3.7729980">
        <ele>360.2</ele>
        <time>2018-04-28T09:54:14Z</time>
      </trkpt>
      <trkpt lat="38.1682280" lon="-3.7730260">
        <ele>360.2</ele>
        <time>2018-04-28T09:54:15Z</time>
      </trkpt>
      <trkpt lat="38.1682360" lon="-3.7730560">
        <ele>360.6</ele>
        <time>2018-04-28T09:54:16Z</time>
      </trkpt>
      <trkpt lat="38.1682450" lon="-3.7730840">
        <ele>360.6</ele>
        <time>2018-04-28T09:54:17Z</time>
      </trkpt>
      <trkpt lat="38.1682560" lon="-3.7731110">
        <ele>360.6</ele>
        <time>2018-04-28T09:54:18Z</time>
      </trkpt>
      <trkpt lat="38.1682690" lon="-3.7731390">
        <ele>360.8</ele>
        <time>2018-04-28T09:54:19Z</time>
      </trkpt>
      <trkpt lat="38.1682810" lon="-3.7731660">
        <ele>361.0</ele>
        <time>2018-04-28T09:54:20Z</time>
      </trkpt>
      <trkpt lat="38.1682940" lon="-3.7731920">
        <ele>361.4</ele>
        <time>2018-04-28T09:54:21Z</time>
      </trkpt>
      <trkpt lat="38.1683070" lon="-3.7732170">
        <ele>361.4</ele>
        <time>2018-04-28T09:54:22Z</time>
      </trkpt>
      <trkpt lat="38.1683210" lon="-3.7732420">
        <ele>361.4</ele>
        <time>2018-04-28T09:54:23Z</time>
      </trkpt>
      <trkpt lat="38.1683390" lon="-3.7732670">
        <ele>361.8</ele>
        <time>2018-04-28T09:54:24Z</time>
      </trkpt>
      <trkpt lat="38.1683550" lon="-3.7732890">
        <ele>362.0</ele>
        <time>2018-04-28T09:54:25Z</time>
      </trkpt>
      <trkpt lat="38.1683720" lon="-3.7733130">
        <ele>362.2</ele>
        <time>2018-04-28T09:54:26Z</time>
      </trkpt>
      <trkpt lat="38.1683880" lon="-3.7733360">
        <ele>362.6</ele>
        <time>2018-04-28T09:54:27Z</time>
      </trkpt>
      <trkpt lat="38.1684040" lon="-3.7733600">
        <ele>362.6</ele>
        <time>2018-04-28T09:54:28Z</time>
      </trkpt>
      <trkpt lat="38.1684200" lon="-3.7733830">
        <ele>362.8</ele>
        <time>2018-04-28T09:54:29Z</time>
      </trkpt>
      <trkpt lat="38.1684370" lon="-3.7734050">
        <ele>363.2</ele>
        <time>2018-04-28T09:54:30Z</time>
      </trkpt>
      <trkpt lat="38.1684540" lon="-3.7734270">
        <ele>363.2</ele>
        <time>2018-04-28T09:54:31Z</time>
      </trkpt>
      <trkpt lat="38.1684710" lon="-3.7734450">
        <ele>363.6</ele>
        <time>2018-04-28T09:54:32Z</time>
      </trkpt>
      <trkpt lat="38.1684870" lon="-3.7734640">
        <ele>363.6</ele>
        <time>2018-04-28T09:54:33Z</time>
      </trkpt>
      <trkpt lat="38.1685030" lon="-3.7734870">
        <ele>363.8</ele>
        <time>2018-04-28T09:54:34Z</time>
      </trkpt>
      <trkpt lat="38.1685200" lon="-3.7735050">
        <ele>364.2</ele>
        <time>2018-04-28T09:54:35Z</time>
      </trkpt>
      <trkpt lat="38.1685380" lon="-3.7735200">
        <ele>364.2</ele>
        <time>2018-04-28T09:54:36Z</time>
      </trkpt>
      <trkpt lat="38.1685550" lon="-3.7735380">
        <ele>364.6</ele>
        <time>2018-04-28T09:54:37Z</time>
      </trkpt>
      <trkpt lat="38.1685720" lon="-3.7735560">
        <ele>365.0</ele>
        <time>2018-04-28T09:54:38Z</time>
      </trkpt>
      <trkpt lat="38.1685900" lon="-3.7735720">
        <ele>365.0</ele>
        <time>2018-04-28T09:54:39Z</time>
      </trkpt>
      <trkpt lat="38.1686060" lon="-3.7735870">
        <ele>365.2</ele>
        <time>2018-04-28T09:54:40Z</time>
      </trkpt>
      <trkpt lat="38.1686230" lon="-3.7736040">
        <ele>365.2</ele>
        <time>2018-04-28T09:54:41Z</time>
      </trkpt>
      <trkpt lat="38.1686380" lon="-3.7736230">
        <ele>365.2</ele>
        <time>2018-04-28T09:54:42Z</time>
      </trkpt>
      <trkpt lat="38.1686550" lon="-3.7736400">
        <ele>365.4</ele>
        <time>2018-04-28T09:54:43Z</time>
      </trkpt>
      <trkpt lat="38.1686740" lon="-3.7736550">
        <ele>360.2</ele>
        <time>2018-04-28T09:54:44Z</time>
      </trkpt>
      <trkpt lat="38.1687040" lon="-3.7736900">
        <ele>365.6</ele>
        <time>2018-04-28T09:54:45Z</time>
      </trkpt>
      <trkpt lat="38.1687210" lon="-3.7737060">
        <ele>365.6</ele>
        <time>2018-04-28T09:54:46Z</time>
      </trkpt>
      <trkpt lat="38.1687380" lon="-3.7737210">
        <ele>366.6</ele>
        <time>2018-04-28T09:54:47Z</time>
      </trkpt>
      <trkpt lat="38.1687530" lon="-3.7737370">
        <ele>366.6</ele>
        <time>2018-04-28T09:54:48Z</time>
      </trkpt>
      <trkpt lat="38.1687690" lon="-3.7737540">
        <ele>366.8</ele>
        <time>2018-04-28T09:54:49Z</time>
      </trkpt>
      <trkpt lat="38.1687850" lon="-3.7737710">
        <ele>367.4</ele>
        <time>2018-04-28T09:54:50Z</time>
      </trkpt>
      <trkpt lat="38.1688000" lon="-3.7737910">
        <ele>367.6</ele>
        <time>2018-04-28T09:54:51Z</time>
      </trkpt>
      <trkpt lat="38.1688120" lon="-3.7738110">
        <ele>367.6</ele>
        <time>2018-04-28T09:54:52Z</time>
      </trkpt>
      <trkpt lat="38.1688220" lon="-3.7738320">
        <ele>367.8</ele>
        <time>2018-04-28T09:54:53Z</time>
      </trkpt>
      <trkpt lat="38.1688310" lon="-3.7738540">
        <ele>367.8</ele>
        <time>2018-04-28T09:54:54Z</time>
      </trkpt>
      <trkpt lat="38.1688390" lon="-3.7738780">
        <ele>368.0</ele>
        <time>2018-04-28T09:54:55Z</time>
      </trkpt>
      <trkpt lat="38.1688430" lon="-3.7739000">
        <ele>368.4</ele>
        <time>2018-04-28T09:54:56Z</time>
      </trkpt>
      <trkpt lat="38.1688490" lon="-3.7739210">
        <ele>368.4</ele>
        <time>2018-04-28T09:54:57Z</time>
      </trkpt>
      <trkpt lat="38.1688530" lon="-3.7739440">
        <ele>368.6</ele>
        <time>2018-04-28T09:54:58Z</time>
      </trkpt>
      <trkpt lat="38.1688560" lon="-3.7739660">
        <ele>368.6</ele>
        <time>2018-04-28T09:54:59Z</time>
      </trkpt>
      <trkpt lat="38.1688570" lon="-3.7739890">
        <ele>368.8</ele>
        <time>2018-04-28T09:55:00Z</time>
      </trkpt>
      <trkpt lat="38.1688590" lon="-3.7740110">
        <ele>368.8</ele>
        <time>2018-04-28T09:55:01Z</time>
      </trkpt>
      <trkpt lat="38.1688590" lon="-3.7740330">
        <ele>369.0</ele>
        <time>2018-04-28T09:55:02Z</time>
      </trkpt>
      <trkpt lat="38.1688580" lon="-3.7740560">
        <ele>369.0</ele>
        <time>2018-04-28T09:55:03Z</time>
      </trkpt>
      <trkpt lat="38.1688570" lon="-3.7740810">
        <ele>369.4</ele>
        <time>2018-04-28T09:55:04Z</time>
      </trkpt>
      <trkpt lat="38.1688580" lon="-3.7741050">
        <ele>369.2</ele>
        <time>2018-04-28T09:55:05Z</time>
      </trkpt>
      <trkpt lat="38.1688580" lon="-3.7741290">
        <ele>369.4</ele>
        <time>2018-04-28T09:55:06Z</time>
      </trkpt>
      <trkpt lat="38.1688590" lon="-3.7741540">
        <ele>369.4</ele>
        <time>2018-04-28T09:55:07Z</time>
      </trkpt>
      <trkpt lat="38.1688590" lon="-3.7741790">
        <ele>369.8</ele>
        <time>2018-04-28T09:55:08Z</time>
      </trkpt>
      <trkpt lat="38.1688580" lon="-3.7742030">
        <ele>369.8</ele>
        <time>2018-04-28T09:55:09Z</time>
      </trkpt>
      <trkpt lat="38.1688560" lon="-3.7742270">
        <ele>370.2</ele>
        <time>2018-04-28T09:55:10Z</time>
      </trkpt>
      <trkpt lat="38.1688550" lon="-3.7742510">
        <ele>370.4</ele>
        <time>2018-04-28T09:55:11Z</time>
      </trkpt>
      <trkpt lat="38.1688540" lon="-3.7742760">
        <ele>370.4</ele>
        <time>2018-04-28T09:55:12Z</time>
      </trkpt>
      <trkpt lat="38.1688550" lon="-3.7743020">
        <ele>370.6</ele>
        <time>2018-04-28T09:55:13Z</time>
      </trkpt>
      <trkpt lat="38.1688550" lon="-3.7743270">
        <ele>370.6</ele>
        <time>2018-04-28T09:55:14Z</time>
      </trkpt>
      <trkpt lat="38.1688540" lon="-3.7743510">
        <ele>370.8</ele>
        <time>2018-04-28T09:55:15Z</time>
      </trkpt>
      <trkpt lat="38.1688540" lon="-3.7743770">
        <ele>371.0</ele>
        <time>2018-04-28T09:55:16Z</time>
      </trkpt>
      <trkpt lat="38.1688550" lon="-3.7744000">
        <ele>371.0</ele>
        <time>2018-04-28T09:55:17Z</time>
      </trkpt>
      <trkpt lat="38.1688540" lon="-3.7744240">
        <ele>371.2</ele>
        <time>2018-04-28T09:55:18Z</time>
      </trkpt>
      <trkpt lat="38.1688530" lon="-3.7744470">
        <ele>371.8</ele>
        <time>2018-04-28T09:55:19Z</time>
      </trkpt>
      <trkpt lat="38.1688520" lon="-3.7744720">
        <ele>371.6</ele>
        <time>2018-04-28T09:55:20Z</time>
      </trkpt>
      <trkpt lat="38.1688520" lon="-3.7744960">
        <ele>371.6</ele>
        <time>2018-04-28T09:55:21Z</time>
      </trkpt>
      <trkpt lat="38.1688520" lon="-3.7745200">
        <ele>372.2</ele>
        <time>2018-04-28T09:55:22Z</time>
      </trkpt>
      <trkpt lat="38.1688520" lon="-3.7745440">
        <ele>372.0</ele>
        <time>2018-04-28T09:55:23Z</time>
      </trkpt>
      <trkpt lat="38.1688520" lon="-3.7745690">
        <ele>372.2</ele>
        <time>2018-04-28T09:55:24Z</time>
      </trkpt>
      <trkpt lat="38.1688530" lon="-3.7745930">
        <ele>372.4</ele>
        <time>2018-04-28T09:55:25Z</time>
      </trkpt>
      <trkpt lat="38.1688500" lon="-3.7746180">
        <ele>372.6</ele>
        <time>2018-04-28T09:55:26Z</time>
      </trkpt>
      <trkpt lat="38.1688510" lon="-3.7746420">
        <ele>372.6</ele>
        <time>2018-04-28T09:55:27Z</time>
      </trkpt>
      <trkpt lat="38.1688530" lon="-3.7746670">
        <ele>373.0</ele>
        <time>2018-04-28T09:55:28Z</time>
      </trkpt>
      <trkpt lat="38.1688530" lon="-3.7746920">
        <ele>373.2</ele>
        <time>2018-04-28T09:55:29Z</time>
      </trkpt>
      <trkpt lat="38.1688520" lon="-3.7747170">
        <ele>373.2</ele>
        <time>2018-04-28T09:55:30Z</time>
      </trkpt>
      <trkpt lat="38.1688510" lon="-3.7747410">
        <ele>373.2</ele>
        <time>2018-04-28T09:55:31Z</time>
      </trkpt>
      <trkpt lat="38.1688500" lon="-3.7747640">
        <ele>373.4</ele>
        <time>2018-04-28T09:55:32Z</time>
      </trkpt>
      <trkpt lat="38.1688490" lon="-3.7747870">
        <ele>373.4</ele>
        <time>2018-04-28T09:55:33Z</time>
      </trkpt>
      <trkpt lat="38.1688490" lon="-3.7748120">
        <ele>373.4</ele>
        <time>2018-04-28T09:55:34Z</time>
      </trkpt>
      <trkpt lat="38.1688490" lon="-3.7748380">
        <ele>373.4</ele>
        <time>2018-04-28T09:55:35Z</time>
      </trkpt>
      <trkpt lat="38.1688500" lon="-3.7748620">
        <ele>373.6</ele>
        <time>2018-04-28T09:55:36Z</time>
      </trkpt>
      <trkpt lat="38.1688480" lon="-3.7748860">
        <ele>373.8</ele>
        <time>2018-04-28T09:55:37Z</time>
      </trkpt>
      <trkpt lat="38.1688460" lon="-3.7749100">
        <ele>374.2</ele>
        <time>2018-04-28T09:55:38Z</time>
      </trkpt>
      <trkpt lat="38.1688450" lon="-3.7749340">
        <ele>374.6</ele>
        <time>2018-04-28T09:55:39Z</time>
      </trkpt>
      <trkpt lat="38.1688440" lon="-3.7749590">
        <ele>374.2</ele>
        <time>2018-04-28T09:55:40Z</time>
      </trkpt>
      <trkpt lat="38.1688430" lon="-3.7749820">
        <ele>374.4</ele>
        <time>2018-04-28T09:55:41Z</time>
      </trkpt>
      <trkpt lat="38.1688420" lon="-3.7750050">
        <ele>374.6</ele>
        <time>2018-04-28T09:55:42Z</time>
      </trkpt>
      <trkpt lat="38.1688410" lon="-3.7750290">
        <ele>374.6</ele>
        <time>2018-04-28T09:55:43Z</time>
      </trkpt>
      <trkpt lat="38.1688400" lon="-3.7750540">
        <ele>374.8</ele>
        <time>2018-04-28T09:55:44Z</time>
      </trkpt>
      <trkpt lat="38.1688390" lon="-3.7750780">
        <ele>374.6</ele>
        <time>2018-04-28T09:55:45Z</time>
      </trkpt>
      <trkpt lat="38.1688370" lon="-3.7751030">
        <ele>375.0</ele>
        <time>2018-04-28T09:55:46Z</time>
      </trkpt>
      <trkpt lat="38.1688350" lon="-3.7751280">
        <ele>375.2</ele>
        <time>2018-04-28T09:55:47Z</time>
      </trkpt>
      <trkpt lat="38.1688330" lon="-3.7751530">
        <ele>375.2</ele>
        <time>2018-04-28T09:55:48Z</time>
      </trkpt>
      <trkpt lat="38.1688300" lon="-3.7751770">
        <ele>375.4</ele>
        <time>2018-04-28T09:55:49Z</time>
      </trkpt>
      <trkpt lat="38.1688260" lon="-3.7752000">
        <ele>375.6</ele>
        <time>2018-04-28T09:55:50Z</time>
      </trkpt>
      <trkpt lat="38.1688230" lon="-3.7752230">
        <ele>375.8</ele>
        <time>2018-04-28T09:55:51Z</time>
      </trkpt>
      <trkpt lat="38.1688210" lon="-3.7752480">
        <ele>375.8</ele>
        <time>2018-04-28T09:55:52Z</time>
      </trkpt>
      <trkpt lat="38.1688190" lon="-3.7752730">
        <ele>376.0</ele>
        <time>2018-04-28T09:55:53Z</time>
      </trkpt>
      <trkpt lat="38.1688160" lon="-3.7752960">
        <ele>376.0</ele>
        <time>2018-04-28T09:55:54Z</time>
      </trkpt>
      <trkpt lat="38.1688120" lon="-3.7753200">
        <ele>376.4</ele>
        <time>2018-04-28T09:55:55Z</time>
      </trkpt>
      <trkpt lat="38.1688090" lon="-3.7753430">
        <ele>376.6</ele>
        <time>2018-04-28T09:55:56Z</time>
      </trkpt>
      <trkpt lat="38.1688060" lon="-3.7753680">
        <ele>376.8</ele>
        <time>2018-04-28T09:55:57Z</time>
      </trkpt>
      <trkpt lat="38.1688030" lon="-3.7753920">
        <ele>376.8</ele>
        <time>2018-04-28T09:55:58Z</time>
      </trkpt>
      <trkpt lat="38.1688000" lon="-3.7754160">
        <ele>377.0</ele>
        <time>2018-04-28T09:55:59Z</time>
      </trkpt>
      <trkpt lat="38.1687970" lon="-3.7754410">
        <ele>377.8</ele>
        <time>2018-04-28T09:56:00Z</time>
      </trkpt>
      <trkpt lat="38.1687940" lon="-3.7754660">
        <ele>377.6</ele>
        <time>2018-04-28T09:56:01Z</time>
      </trkpt>
      <trkpt lat="38.1687900" lon="-3.7754900">
        <ele>377.6</ele>
        <time>2018-04-28T09:56:02Z</time>
      </trkpt>
      <trkpt lat="38.1687870" lon="-3.7755140">
        <ele>377.8</ele>
        <time>2018-04-28T09:56:03Z</time>
      </trkpt>
      <trkpt lat="38.1687860" lon="-3.7755390">
        <ele>378.4</ele>
        <time>2018-04-28T09:56:04Z</time>
      </trkpt>
      <trkpt lat="38.1687850" lon="-3.7755640">
        <ele>378.8</ele>
        <time>2018-04-28T09:56:05Z</time>
      </trkpt>
      <trkpt lat="38.1687840" lon="-3.7755890">
        <ele>378.8</ele>
        <time>2018-04-28T09:56:06Z</time>
      </trkpt>
      <trkpt lat="38.1687820" lon="-3.7756140">
        <ele>378.8</ele>
        <time>2018-04-28T09:56:07Z</time>
      </trkpt>
      <trkpt lat="38.1687800" lon="-3.7756380">
        <ele>379.0</ele>
        <time>2018-04-28T09:56:08Z</time>
      </trkpt>
      <trkpt lat="38.1687800" lon="-3.7756620">
        <ele>378.4</ele>
        <time>2018-04-28T09:56:09Z</time>
      </trkpt>
      <trkpt lat="38.1687830" lon="-3.7756870">
        <ele>379.2</ele>
        <time>2018-04-28T09:56:10Z</time>
      </trkpt>
      <trkpt lat="38.1687850" lon="-3.7757110">
        <ele>378.8</ele>
        <time>2018-04-28T09:56:11Z</time>
      </trkpt>
      <trkpt lat="38.1687870" lon="-3.7757370">
        <ele>379.2</ele>
        <time>2018-04-28T09:56:12Z</time>
      </trkpt>
      <trkpt lat="38.1687920" lon="-3.7757630">
        <ele>380.0</ele>
        <time>2018-04-28T09:56:13Z</time>
      </trkpt>
      <trkpt lat="38.1687960" lon="-3.7757870">
        <ele>380.0</ele>
        <time>2018-04-28T09:56:14Z</time>
      </trkpt>
      <trkpt lat="38.1688010" lon="-3.7758100">
        <ele>380.0</ele>
        <time>2018-04-28T09:56:15Z</time>
      </trkpt>
      <trkpt lat="38.1688050" lon="-3.7758340">
        <ele>380.0</ele>
        <time>2018-04-28T09:56:16Z</time>
      </trkpt>
      <trkpt lat="38.1688110" lon="-3.7758570">
        <ele>380.6</ele>
        <time>2018-04-28T09:56:17Z</time>
      </trkpt>
      <trkpt lat="38.1688180" lon="-3.7758810">
        <ele>380.8</ele>
        <time>2018-04-28T09:56:18Z</time>
      </trkpt>
      <trkpt lat="38.1688260" lon="-3.7759030">
        <ele>381.0</ele>
        <time>2018-04-28T09:56:19Z</time>
      </trkpt>
      <trkpt lat="38.1688330" lon="-3.7759250">
        <ele>380.8</ele>
        <time>2018-04-28T09:56:20Z</time>
      </trkpt>
      <trkpt lat="38.1688410" lon="-3.7759460">
        <ele>381.0</ele>
        <time>2018-04-28T09:56:21Z</time>
      </trkpt>
      <trkpt lat="38.1688500" lon="-3.7759680">
        <ele>381.2</ele>
        <time>2018-04-28T09:56:22Z</time>
      </trkpt>
      <trkpt lat="38.1688610" lon="-3.7759890">
        <ele>381.8</ele>
        <time>2018-04-28T09:56:23Z</time>
      </trkpt>
      <trkpt lat="38.1688710" lon="-3.7760090">
        <ele>381.2</ele>
        <time>2018-04-28T09:56:24Z</time>
      </trkpt>
      <trkpt lat="38.1688800" lon="-3.7760310">
        <ele>381.6</ele>
        <time>2018-04-28T09:56:25Z</time>
      </trkpt>
      <trkpt lat="38.1688910" lon="-3.7760520">
        <ele>381.6</ele>
        <time>2018-04-28T09:56:26Z</time>
      </trkpt>
      <trkpt lat="38.1689010" lon="-3.7760720">
        <ele>380.4</ele>
        <time>2018-04-28T09:56:27Z</time>
      </trkpt>
      <trkpt lat="38.1689120" lon="-3.7760920">
        <ele>381.0</ele>
        <time>2018-04-28T09:56:28Z</time>
      </trkpt>
      <trkpt lat="38.1689210" lon="-3.7761110">
        <ele>380.8</ele>
        <time>2018-04-28T09:56:29Z</time>
      </trkpt>
      <trkpt lat="38.1689310" lon="-3.7761300">
        <ele>381.2</ele>
        <time>2018-04-28T09:56:30Z</time>
      </trkpt>
      <trkpt lat="38.1689420" lon="-3.7761480">
        <ele>381.2</ele>
        <time>2018-04-28T09:56:31Z</time>
      </trkpt>
      <trkpt lat="38.1689530" lon="-3.7761640">
        <ele>381.2</ele>
        <time>2018-04-28T09:56:32Z</time>
      </trkpt>
      <trkpt lat="38.1689650" lon="-3.7761830">
        <ele>381.2</ele>
        <time>2018-04-28T09:56:33Z</time>
      </trkpt>
      <trkpt lat="38.1689770" lon="-3.7762020">
        <ele>381.6</ele>
        <time>2018-04-28T09:56:34Z</time>
      </trkpt>
      <trkpt lat="38.1689890" lon="-3.7762220">
        <ele>382.2</ele>
        <time>2018-04-28T09:56:35Z</time>
      </trkpt>
      <trkpt lat="38.1690020" lon="-3.7762400">
        <ele>382.2</ele>
        <time>2018-04-28T09:56:36Z</time>
      </trkpt>
      <trkpt lat="38.1690140" lon="-3.7762580">
        <ele>382.0</ele>
        <time>2018-04-28T09:56:37Z</time>
      </trkpt>
      <trkpt lat="38.1690270" lon="-3.7762780">
        <ele>382.0</ele>
        <time>2018-04-28T09:56:38Z</time>
      </trkpt>
      <trkpt lat="38.1690410" lon="-3.7762960">
        <ele>382.0</ele>
        <time>2018-04-28T09:56:39Z</time>
      </trkpt>
      <trkpt lat="38.1690540" lon="-3.7763120">
        <ele>382.0</ele>
        <time>2018-04-28T09:56:40Z</time>
      </trkpt>
      <trkpt lat="38.1690670" lon="-3.7763290">
        <ele>382.2</ele>
        <time>2018-04-28T09:56:41Z</time>
      </trkpt>
      <trkpt lat="38.1690800" lon="-3.7763470">
        <ele>382.4</ele>
        <time>2018-04-28T09:56:42Z</time>
      </trkpt>
      <trkpt lat="38.1690920" lon="-3.7763630">
        <ele>382.4</ele>
        <time>2018-04-28T09:56:43Z</time>
      </trkpt>
      <trkpt lat="38.1691080" lon="-3.7763800">
        <ele>382.4</ele>
        <time>2018-04-28T09:56:44Z</time>
      </trkpt>
      <trkpt lat="38.1691230" lon="-3.7763960">
        <ele>382.4</ele>
        <time>2018-04-28T09:56:45Z</time>
      </trkpt>
      <trkpt lat="38.1691360" lon="-3.7764150">
        <ele>382.4</ele>
        <time>2018-04-28T09:56:46Z</time>
      </trkpt>
      <trkpt lat="38.1691500" lon="-3.7764340">
        <ele>383.0</ele>
        <time>2018-04-28T09:56:47Z</time>
      </trkpt>
      <trkpt lat="38.1691640" lon="-3.7764520">
        <ele>383.2</ele>
        <time>2018-04-28T09:56:48Z</time>
      </trkpt>
      <trkpt lat="38.1691760" lon="-3.7764690">
        <ele>383.2</ele>
        <time>2018-04-28T09:56:49Z</time>
      </trkpt>
      <trkpt lat="38.1691880" lon="-3.7764880">
        <ele>383.2</ele>
        <time>2018-04-28T09:56:50Z</time>
      </trkpt>
      <trkpt lat="38.1692000" lon="-3.7765050">
        <ele>383.8</ele>
        <time>2018-04-28T09:56:51Z</time>
      </trkpt>
      <trkpt lat="38.1692110" lon="-3.7765200">
        <ele>384.0</ele>
        <time>2018-04-28T09:56:52Z</time>
      </trkpt>
      <trkpt lat="38.1692250" lon="-3.7765370">
        <ele>384.2</ele>
        <time>2018-04-28T09:56:53Z</time>
      </trkpt>
      <trkpt lat="38.1692370" lon="-3.7765550">
        <ele>384.4</ele>
        <time>2018-04-28T09:56:54Z</time>
      </trkpt>
      <trkpt lat="38.1692500" lon="-3.7765730">
        <ele>384.8</ele>
        <time>2018-04-28T09:56:55Z</time>
      </trkpt>
      <trkpt lat="38.1692630" lon="-3.7765900">
        <ele>384.8</ele>
        <time>2018-04-28T09:56:56Z</time>
      </trkpt>
      <trkpt lat="38.1692770" lon="-3.7766080">
        <ele>385.0</ele>
        <time>2018-04-28T09:56:57Z</time>
      </trkpt>
      <trkpt lat="38.1692910" lon="-3.7766260">
        <ele>385.0</ele>
        <time>2018-04-28T09:56:58Z</time>
      </trkpt>
      <trkpt lat="38.1693030" lon="-3.7766460">
        <ele>385.4</ele>
        <time>2018-04-28T09:56:59Z</time>
      </trkpt>
      <trkpt lat="38.1693150" lon="-3.7766650">
        <ele>385.4</ele>
        <time>2018-04-28T09:57:00Z</time>
      </trkpt>
      <trkpt lat="38.1693290" lon="-3.7766840">
        <ele>385.4</ele>
        <time>2018-04-28T09:57:01Z</time>
      </trkpt>
      <trkpt lat="38.1693410" lon="-3.7767020">
        <ele>385.4</ele>
        <time>2018-04-28T09:57:02Z</time>
      </trkpt>
      <trkpt lat="38.1693540" lon="-3.7767200">
        <ele>385.6</ele>
        <time>2018-04-28T09:57:03Z</time>
      </trkpt>
      <trkpt lat="38.1693680" lon="-3.7767370">
        <ele>385.8</ele>
        <time>2018-04-28T09:57:04Z</time>
      </trkpt>
      <trkpt lat="38.1693820" lon="-3.7767530">
        <ele>386.0</ele>
        <time>2018-04-28T09:57:05Z</time>
      </trkpt>
      <trkpt lat="38.1693970" lon="-3.7767690">
        <ele>386.2</ele>
        <time>2018-04-28T09:57:06Z</time>
      </trkpt>
      <trkpt lat="38.1694110" lon="-3.7767850">
        <ele>386.4</ele>
        <time>2018-04-28T09:57:07Z</time>
      </trkpt>
      <trkpt lat="38.1694250" lon="-3.7768020">
        <ele>386.6</ele>
        <time>2018-04-28T09:57:08Z</time>
      </trkpt>
      <trkpt lat="38.1694400" lon="-3.7768160">
        <ele>386.8</ele>
        <time>2018-04-28T09:57:09Z</time>
      </trkpt>
      <trkpt lat="38.1694560" lon="-3.7768300">
        <ele>387.2</ele>
        <time>2018-04-28T09:57:10Z</time>
      </trkpt>
      <trkpt lat="38.1694720" lon="-3.7768420">
        <ele>387.2</ele>
        <time>2018-04-28T09:57:11Z</time>
      </trkpt>
      <trkpt lat="38.1694880" lon="-3.7768530">
        <ele>387.4</ele>
        <time>2018-04-28T09:57:12Z</time>
      </trkpt>
      <trkpt lat="38.1695050" lon="-3.7768640">
        <ele>387.4</ele>
        <time>2018-04-28T09:57:13Z</time>
      </trkpt>
      <trkpt lat="38.1695230" lon="-3.7768740">
        <ele>387.6</ele>
        <time>2018-04-28T09:57:14Z</time>
      </trkpt>
      <trkpt lat="38.1695400" lon="-3.7768790">
        <ele>387.6</ele>
        <time>2018-04-28T09:57:15Z</time>
      </trkpt>
      <trkpt lat="38.1695570" lon="-3.7768890">
        <ele>387.8</ele>
        <time>2018-04-28T09:57:16Z</time>
      </trkpt>
      <trkpt lat="38.1695760" lon="-3.7768950">
        <ele>388.0</ele>
        <time>2018-04-28T09:57:17Z</time>
      </trkpt>
      <trkpt lat="38.1695940" lon="-3.7769020">
        <ele>388.4</ele>
        <time>2018-04-28T09:57:18Z</time>
      </trkpt>
      <trkpt lat="38.1696130" lon="-3.7769100">
        <ele>388.2</ele>
        <time>2018-04-28T09:57:19Z</time>
      </trkpt>
      <trkpt lat="38.1696320" lon="-3.7769160">
        <ele>388.4</ele>
        <time>2018-04-28T09:57:20Z</time>
      </trkpt>
      <trkpt lat="38.1696500" lon="-3.7769210">
        <ele>388.6</ele>
        <time>2018-04-28T09:57:21Z</time>
      </trkpt>
      <trkpt lat="38.1696690" lon="-3.7769230">
        <ele>388.8</ele>
        <time>2018-04-28T09:57:22Z</time>
      </trkpt>
      <trkpt lat="38.1696880" lon="-3.7769260">
        <ele>389.0</ele>
        <time>2018-04-28T09:57:23Z</time>
      </trkpt>
      <trkpt lat="38.1697060" lon="-3.7769290">
        <ele>389.6</ele>
        <time>2018-04-28T09:57:24Z</time>
      </trkpt>
      <trkpt lat="38.1697260" lon="-3.7769290">
        <ele>389.6</ele>
        <time>2018-04-28T09:57:25Z</time>
      </trkpt>
      <trkpt lat="38.1697450" lon="-3.7769300">
        <ele>389.8</ele>
        <time>2018-04-28T09:57:26Z</time>
      </trkpt>
      <trkpt lat="38.1697640" lon="-3.7769290">
        <ele>390.2</ele>
        <time>2018-04-28T09:57:27Z</time>
      </trkpt>
      <trkpt lat="38.1697820" lon="-3.7769290">
        <ele>390.4</ele>
        <time>2018-04-28T09:57:28Z</time>
      </trkpt>
      <trkpt lat="38.1698000" lon="-3.7769290">
        <ele>390.4</ele>
        <time>2018-04-28T09:57:29Z</time>
      </trkpt>
      <trkpt lat="38.1698180" lon="-3.7769280">
        <ele>390.0</ele>
        <time>2018-04-28T09:57:30Z</time>
      </trkpt>
      <trkpt lat="38.1698380" lon="-3.7769260">
        <ele>389.8</ele>
        <time>2018-04-28T09:57:31Z</time>
      </trkpt>
      <trkpt lat="38.1698570" lon="-3.7769230">
        <ele>389.8</ele>
        <time>2018-04-28T09:57:32Z</time>
      </trkpt>
      <trkpt lat="38.1698760" lon="-3.7769190">
        <ele>389.0</ele>
        <time>2018-04-28T09:57:33Z</time>
      </trkpt>
      <trkpt lat="38.1698940" lon="-3.7769150">
        <ele>389.8</ele>
        <time>2018-04-28T09:57:34Z</time>
      </trkpt>
      <trkpt lat="38.1699130" lon="-3.7769110">
        <ele>389.4</ele>
        <time>2018-04-28T09:57:35Z</time>
      </trkpt>
      <trkpt lat="38.1699320" lon="-3.7769060">
        <ele>389.6</ele>
        <time>2018-04-28T09:57:36Z</time>
      </trkpt>
      <trkpt lat="38.1699500" lon="-3.7768980">
        <ele>390.0</ele>
        <time>2018-04-28T09:57:37Z</time>
      </trkpt>
      <trkpt lat="38.1699700" lon="-3.7768940">
        <ele>390.4</ele>
        <time>2018-04-28T09:57:38Z</time>
      </trkpt>
      <trkpt lat="38.1699880" lon="-3.7768880">
        <ele>390.6</ele>
        <time>2018-04-28T09:57:39Z</time>
      </trkpt>
      <trkpt lat="38.1700080" lon="-3.7768780">
        <ele>390.6</ele>
        <time>2018-04-28T09:57:40Z</time>
      </trkpt>
      <trkpt lat="38.1700270" lon="-3.7768710">
        <ele>390.8</ele>
        <time>2018-04-28T09:57:41Z</time>
      </trkpt>
      <trkpt lat="38.1700460" lon="-3.7768640">
        <ele>391.0</ele>
        <time>2018-04-28T09:57:42Z</time>
      </trkpt>
      <trkpt lat="38.1700660" lon="-3.7768570">
        <ele>391.2</ele>
        <time>2018-04-28T09:57:43Z</time>
      </trkpt>
      <trkpt lat="38.1700840" lon="-3.7768430">
        <ele>391.4</ele>
        <time>2018-04-28T09:57:44Z</time>
      </trkpt>
      <trkpt lat="38.1701040" lon="-3.7768230">
        <ele>391.8</ele>
        <time>2018-04-28T09:57:45Z</time>
      </trkpt>
      <trkpt lat="38.1701220" lon="-3.7768150">
        <ele>392.0</ele>
        <time>2018-04-28T09:57:46Z</time>
      </trkpt>
      <trkpt lat="38.1701400" lon="-3.7768080">
        <ele>392.4</ele>
        <time>2018-04-28T09:57:47Z</time>
      </trkpt>
      <trkpt lat="38.1701580" lon="-3.7768010">
        <ele>392.6</ele>
        <time>2018-04-28T09:57:48Z</time>
      </trkpt>
      <trkpt lat="38.1701760" lon="-3.7767900">
        <ele>392.6</ele>
        <time>2018-04-28T09:57:49Z</time>
      </trkpt>
      <trkpt lat="38.1701940" lon="-3.7767810">
        <ele>392.8</ele>
        <time>2018-04-28T09:57:50Z</time>
      </trkpt>
      <trkpt lat="38.1702130" lon="-3.7767720">
        <ele>393.0</ele>
        <time>2018-04-28T09:57:51Z</time>
      </trkpt>
      <trkpt lat="38.1702310" lon="-3.7767630">
        <ele>393.0</ele>
        <time>2018-04-28T09:57:52Z</time>
      </trkpt>
      <trkpt lat="38.1702490" lon="-3.7767530">
        <ele>392.6</ele>
        <time>2018-04-28T09:57:53Z</time>
      </trkpt>
      <trkpt lat="38.1702670" lon="-3.7767430">
        <ele>392.8</ele>
        <time>2018-04-28T09:57:54Z</time>
      </trkpt>
      <trkpt lat="38.1702840" lon="-3.7767330">
        <ele>392.8</ele>
        <time>2018-04-28T09:57:55Z</time>
      </trkpt>
      <trkpt lat="38.1703000" lon="-3.7767210">
        <ele>393.0</ele>
        <time>2018-04-28T09:57:56Z</time>
      </trkpt>
      <trkpt lat="38.1703170" lon="-3.7767100">
        <ele>393.0</ele>
        <time>2018-04-28T09:57:57Z</time>
      </trkpt>
      <trkpt lat="38.1703350" lon="-3.7767010">
        <ele>393.2</ele>
        <time>2018-04-28T09:57:58Z</time>
      </trkpt>
      <trkpt lat="38.1703520" lon="-3.7766900">
        <ele>393.4</ele>
        <time>2018-04-28T09:57:59Z</time>
      </trkpt>
      <trkpt lat="38.1703710" lon="-3.7766800">
        <ele>393.4</ele>
        <time>2018-04-28T09:58:00Z</time>
      </trkpt>
      <trkpt lat="38.1703880" lon="-3.7766690">
        <ele>393.6</ele>
        <time>2018-04-28T09:58:01Z</time>
      </trkpt>
      <trkpt lat="38.1704060" lon="-3.7766570">
        <ele>393.8</ele>
        <time>2018-04-28T09:58:02Z</time>
      </trkpt>
      <trkpt lat="38.1704220" lon="-3.7766420">
        <ele>393.8</ele>
        <time>2018-04-28T09:58:03Z</time>
      </trkpt>
      <trkpt lat="38.1704370" lon="-3.7766280">
        <ele>394.2</ele>
        <time>2018-04-28T09:58:04Z</time>
      </trkpt>
      <trkpt lat="38.1704520" lon="-3.7766140">
        <ele>394.2</ele>
        <time>2018-04-28T09:58:05Z</time>
      </trkpt>
      <trkpt lat="38.1704680" lon="-3.7765990">
        <ele>394.2</ele>
        <time>2018-04-28T09:58:06Z</time>
      </trkpt>
      <trkpt lat="38.1704830" lon="-3.7765840">
        <ele>394.2</ele>
        <time>2018-04-28T09:58:07Z</time>
      </trkpt>
      <trkpt lat="38.1704980" lon="-3.7765680">
        <ele>394.2</ele>
        <time>2018-04-28T09:58:08Z</time>
      </trkpt>
      <trkpt lat="38.1705140" lon="-3.7765590">
        <ele>394.6</ele>
        <time>2018-04-28T09:58:09Z</time>
      </trkpt>
      <trkpt lat="38.1705280" lon="-3.7765440">
        <ele>394.8</ele>
        <time>2018-04-28T09:58:10Z</time>
      </trkpt>
      <trkpt lat="38.1705450" lon="-3.7765280">
        <ele>394.8</ele>
        <time>2018-04-28T09:58:11Z</time>
      </trkpt>
      <trkpt lat="38.1705600" lon="-3.7765120">
        <ele>395.0</ele>
        <time>2018-04-28T09:58:12Z</time>
      </trkpt>
      <trkpt lat="38.1705780" lon="-3.7765000">
        <ele>395.0</ele>
        <time>2018-04-28T09:58:13Z</time>
      </trkpt>
      <trkpt lat="38.1705940" lon="-3.7764850">
        <ele>395.2</ele>
        <time>2018-04-28T09:58:14Z</time>
      </trkpt>
      <trkpt lat="38.1706080" lon="-3.7764700">
        <ele>395.4</ele>
        <time>2018-04-28T09:58:15Z</time>
      </trkpt>
      <trkpt lat="38.1706220" lon="-3.7764560">
        <ele>395.6</ele>
        <time>2018-04-28T09:58:16Z</time>
      </trkpt>
      <trkpt lat="38.1706380" lon="-3.7764420">
        <ele>395.8</ele>
        <time>2018-04-28T09:58:17Z</time>
      </trkpt>
      <trkpt lat="38.1706540" lon="-3.7764290">
        <ele>395.8</ele>
        <time>2018-04-28T09:58:18Z</time>
      </trkpt>
      <trkpt lat="38.1706720" lon="-3.7764150">
        <ele>396.0</ele>
        <time>2018-04-28T09:58:19Z</time>
      </trkpt>
      <trkpt lat="38.1706880" lon="-3.7764010">
        <ele>396.2</ele>
        <time>2018-04-28T09:58:20Z</time>
      </trkpt>
      <trkpt lat="38.1707060" lon="-3.7763880">
        <ele>396.2</ele>
        <time>2018-04-28T09:58:21Z</time>
      </trkpt>
      <trkpt lat="38.1707230" lon="-3.7763770">
        <ele>396.4</ele>
        <time>2018-04-28T09:58:22Z</time>
      </trkpt>
      <trkpt lat="38.1707380" lon="-3.7763620">
        <ele>396.4</ele>
        <time>2018-04-28T09:58:23Z</time>
      </trkpt>
      <trkpt lat="38.1707530" lon="-3.7763500">
        <ele>396.4</ele>
        <time>2018-04-28T09:58:24Z</time>
      </trkpt>
      <trkpt lat="38.1707690" lon="-3.7763350">
        <ele>396.8</ele>
        <time>2018-04-28T09:58:25Z</time>
      </trkpt>
      <trkpt lat="38.1707840" lon="-3.7763210">
        <ele>397.0</ele>
        <time>2018-04-28T09:58:26Z</time>
      </trkpt>
      <trkpt lat="38.1708000" lon="-3.7763060">
        <ele>397.2</ele>
        <time>2018-04-28T09:58:27Z</time>
      </trkpt>
      <trkpt lat="38.1708160" lon="-3.7762890">
        <ele>397.2</ele>
        <time>2018-04-28T09:58:28Z</time>
      </trkpt>
      <trkpt lat="38.1708280" lon="-3.7762710">
        <ele>397.6</ele>
        <time>2018-04-28T09:58:29Z</time>
      </trkpt>
      <trkpt lat="38.1708440" lon="-3.7762580">
        <ele>397.6</ele>
        <time>2018-04-28T09:58:30Z</time>
      </trkpt>
      <trkpt lat="38.1708630" lon="-3.7762460">
        <ele>397.8</ele>
        <time>2018-04-28T09:58:31Z</time>
      </trkpt>
      <trkpt lat="38.1708770" lon="-3.7762350">
        <ele>397.8</ele>
        <time>2018-04-28T09:58:32Z</time>
      </trkpt>
      <trkpt lat="38.1708940" lon="-3.7762290">
        <ele>398.0</ele>
        <time>2018-04-28T09:58:33Z</time>
      </trkpt>
      <trkpt lat="38.1709140" lon="-3.7762250">
        <ele>398.2</ele>
        <time>2018-04-28T09:58:34Z</time>
      </trkpt>
      <trkpt lat="38.1709300" lon="-3.7762170">
        <ele>398.4</ele>
        <time>2018-04-28T09:58:35Z</time>
      </trkpt>
      <trkpt lat="38.1709470" lon="-3.7762080">
        <ele>398.6</ele>
        <time>2018-04-28T09:58:36Z</time>
      </trkpt>
      <trkpt lat="38.1709650" lon="-3.7762010">
        <ele>398.6</ele>
        <time>2018-04-28T09:58:37Z</time>
      </trkpt>
      <trkpt lat="38.1709830" lon="-3.7761920">
        <ele>398.8</ele>
        <time>2018-04-28T09:58:38Z</time>
      </trkpt>
      <trkpt lat="38.1710010" lon="-3.7761790">
        <ele>398.8</ele>
        <time>2018-04-28T09:58:39Z</time>
      </trkpt>
      <trkpt lat="38.1710180" lon="-3.7761650">
        <ele>398.8</ele>
        <time>2018-04-28T09:58:40Z</time>
      </trkpt>
      <trkpt lat="38.1710360" lon="-3.7761530">
        <ele>399.0</ele>
        <time>2018-04-28T09:58:41Z</time>
      </trkpt>
      <trkpt lat="38.1710560" lon="-3.7761410">
        <ele>399.0</ele>
        <time>2018-04-28T09:58:42Z</time>
      </trkpt>
      <trkpt lat="38.1710720" lon="-3.7761260">
        <ele>399.2</ele>
        <time>2018-04-28T09:58:43Z</time>
      </trkpt>
      <trkpt lat="38.1710860" lon="-3.7761090">
        <ele>399.2</ele>
        <time>2018-04-28T09:58:44Z</time>
      </trkpt>
      <trkpt lat="38.1711000" lon="-3.7760930">
        <ele>399.2</ele>
        <time>2018-04-28T09:58:45Z</time>
      </trkpt>
      <trkpt lat="38.1711140" lon="-3.7760770">
        <ele>399.4</ele>
        <time>2018-04-28T09:58:46Z</time>
      </trkpt>
      <trkpt lat="38.1711280" lon="-3.7760620">
        <ele>399.4</ele>
        <time>2018-04-28T09:58:47Z</time>
      </trkpt>
      <trkpt lat="38.1711440" lon="-3.7760460">
        <ele>399.4</ele>
        <time>2018-04-28T09:58:48Z</time>
      </trkpt>
      <trkpt lat="38.1711610" lon="-3.7760310">
        <ele>399.6</ele>
        <time>2018-04-28T09:58:49Z</time>
      </trkpt>
      <trkpt lat="38.1711790" lon="-3.7760180">
        <ele>399.8</ele>
        <time>2018-04-28T09:58:50Z</time>
      </trkpt>
      <trkpt lat="38.1711940" lon="-3.7760020">
        <ele>400.0</ele>
        <time>2018-04-28T09:58:51Z</time>
      </trkpt>
      <trkpt lat="38.1712070" lon="-3.7759850">
        <ele>400.2</ele>
        <time>2018-04-28T09:58:52Z</time>
      </trkpt>
      <trkpt lat="38.1712180" lon="-3.7759670">
        <ele>400.6</ele>
        <time>2018-04-28T09:58:53Z</time>
      </trkpt>
      <trkpt lat="38.1712260" lon="-3.7759500">
        <ele>400.8</ele>
        <time>2018-04-28T09:58:54Z</time>
      </trkpt>
      <trkpt lat="38.1712360" lon="-3.7759320">
        <ele>401.0</ele>
        <time>2018-04-28T09:58:55Z</time>
      </trkpt>
      <trkpt lat="38.1712400" lon="-3.7759160">
        <ele>401.0</ele>
        <time>2018-04-28T09:58:56Z</time>
      </trkpt>
      <trkpt lat="38.1712450" lon="-3.7758980">
        <ele>401.2</ele>
        <time>2018-04-28T09:58:57Z</time>
      </trkpt>
      <trkpt lat="38.1712520" lon="-3.7758790">
        <ele>401.2</ele>
        <time>2018-04-28T09:58:58Z</time>
      </trkpt>
      <trkpt lat="38.1712580" lon="-3.7758680">
        <ele>401.2</ele>
        <time>2018-04-28T09:58:59Z</time>
      </trkpt>
      <trkpt lat="38.1712640" lon="-3.7758690">
        <ele>401.4</ele>
        <time>2018-04-28T09:59:00Z</time>
      </trkpt>
      <trkpt lat="38.1712640" lon="-3.7758670">
        <ele>401.4</ele>
        <time>2018-04-28T09:59:01Z</time>
      </trkpt>
      <trkpt lat="38.1712620" lon="-3.7758620">
        <ele>401.2</ele>
        <time>2018-04-28T09:59:02Z</time>
      </trkpt>
      <trkpt lat="38.1712610" lon="-3.7758610">
        <ele>401.0</ele>
        <time>2018-04-28T09:59:03Z</time>
      </trkpt>
      <trkpt lat="38.1712620" lon="-3.7758620">
        <ele>401.0</ele>
        <time>2018-04-28T09:59:04Z</time>
      </trkpt>
      <trkpt lat="38.1712590" lon="-3.7758630">
        <ele>405.4</ele>
        <time>2018-04-28T09:59:05Z</time>
      </trkpt>
      <trkpt lat="38.1712570" lon="-3.7758620">
        <ele>401.0</ele>
        <time>2018-04-28T09:59:06Z</time>
      </trkpt>
      <trkpt lat="38.1712550" lon="-3.7758620">
        <ele>401.2</ele>
        <time>2018-04-28T09:59:07Z</time>
      </trkpt>
      <trkpt lat="38.1712550" lon="-3.7758600">
        <ele>399.0</ele>
        <time>2018-04-28T09:59:08Z</time>
      </trkpt>
      <trkpt lat="38.1712540" lon="-3.7758590">
        <ele>401.2</ele>
        <time>2018-04-28T09:59:09Z</time>
      </trkpt>
      <trkpt lat="38.1712540" lon="-3.7758590">
        <ele>396.8</ele>
        <time>2018-04-28T09:59:10Z</time>
      </trkpt>
      <trkpt lat="38.1712530" lon="-3.7758590">
        <ele>405.6</ele>
        <time>2018-04-28T09:59:11Z</time>
      </trkpt>
      <trkpt lat="38.1712540" lon="-3.7758580">
        <ele>403.4</ele>
        <time>2018-04-28T09:59:12Z</time>
      </trkpt>
    </trkseg>
  </trk>
</gpx>
